<?xml version="1.0" encoding="UTF-8" standalone="no" ?>
<gpx xmlns="http://www.topografix.com/GPX/1/1" xmlns:xsi="http://www.w3.org/2001/XMLSchema-instance" xsi:schemaLocation="http://www.topografix.com/GPX/1/1 http://www.topografix.com/GPX/1/1/gpx.xsd" version="1.1" creator="VisuGPX - https://www.visugpx.com">
  <metadata>
    <name>Mon parcours</name>
    <desc><![CDATA[
]]></desc>
  </metadata>
  <trk>
    <name><![CDATA[Mon parcours]]></name>
    <trkseg>
      <trkpt lat="47.21546" lon="-1.54306">
        <ele>6.6</ele>
        <time>2020-03-11T10:35:53Z</time>
      </trkpt>
      <trkpt lat="47.21562" lon="-1.54329">
        <ele>6.6</ele>
        <time>2020-03-11T10:35:53Z</time>
      </trkpt>
      <trkpt lat="47.21553" lon="-1.54304">
        <ele>7</ele>
        <time>2020-03-11T10:35:53Z</time>
      </trkpt>
      <trkpt lat="47.2157" lon="-1.54322">
        <ele>7.2</ele>
        <time>2020-03-11T10:35:53Z</time>
      </trkpt>
      <trkpt lat="47.21581" lon="-1.54347">
        <ele>6.9</ele>
        <time>2020-03-11T10:35:53Z</time>
      </trkpt>
      <trkpt lat="47.21599" lon="-1.54356">
        <ele>7.3</ele>
        <time>2020-03-11T10:35:53Z</time>
      </trkpt>
      <trkpt lat="47.21606" lon="-1.54388">
        <ele>7.5</ele>
        <time>2020-03-11T10:35:53Z</time>
      </trkpt>
      <trkpt lat="47.21608" lon="-1.54418">
        <ele>7.7</ele>
        <time>2020-03-11T10:35:53Z</time>
      </trkpt>
      <trkpt lat="47.21608" lon="-1.54452">
        <ele>8.6</ele>
        <time>2020-03-11T10:35:53Z</time>
      </trkpt>
      <trkpt lat="47.21604" lon="-1.54481">
        <ele>8.1</ele>
        <time>2020-03-11T10:35:53Z</time>
      </trkpt>
      <trkpt lat="47.21594" lon="-1.54518">
        <ele>7.6</ele>
        <time>2020-03-11T10:35:53Z</time>
      </trkpt>
      <trkpt lat="47.21585" lon="-1.54541">
        <ele>7.5</ele>
        <time>2020-03-11T10:35:53Z</time>
      </trkpt>
      <trkpt lat="47.21577" lon="-1.54565">
        <ele>8</ele>
        <time>2020-03-11T10:35:53Z</time>
      </trkpt>
      <trkpt lat="47.21566" lon="-1.54593">
        <ele>8</ele>
        <time>2020-03-11T10:35:53Z</time>
      </trkpt>
      <trkpt lat="47.21556" lon="-1.54622">
        <ele>8</ele>
        <time>2020-03-11T10:35:53Z</time>
      </trkpt>
      <trkpt lat="47.21543" lon="-1.54657">
        <ele>8</ele>
        <time>2020-03-11T10:35:53Z</time>
      </trkpt>
      <trkpt lat="47.21535" lon="-1.54687">
        <ele>7.5</ele>
        <time>2020-03-11T10:35:53Z</time>
      </trkpt>
      <trkpt lat="47.2151" lon="-1.5476">
        <ele>7.4</ele>
        <time>2020-03-11T10:35:53Z</time>
      </trkpt>
      <trkpt lat="47.21445" lon="-1.54896">
        <ele>7</ele>
        <time>2020-03-11T10:35:53Z</time>
      </trkpt>
      <trkpt lat="47.21402" lon="-1.54987">
        <ele>6.5</ele>
        <time>2020-03-11T10:35:53Z</time>
      </trkpt>
      <trkpt lat="47.2139" lon="-1.55015">
        <ele>6.5</ele>
        <time>2020-03-11T10:35:53Z</time>
      </trkpt>
      <trkpt lat="47.21375" lon="-1.5505">
        <ele>6.4</ele>
        <time>2020-03-11T10:35:53Z</time>
      </trkpt>
      <trkpt lat="47.21358" lon="-1.55091">
        <ele>5.8</ele>
        <time>2020-03-11T10:35:53Z</time>
      </trkpt>
      <trkpt lat="47.21336" lon="-1.55147">
        <ele>6.7</ele>
        <time>2020-03-11T10:35:53Z</time>
      </trkpt>
      <trkpt lat="47.21294" lon="-1.55254">
        <ele>6.4</ele>
        <time>2020-03-11T10:35:53Z</time>
      </trkpt>
      <trkpt lat="47.21278" lon="-1.55294">
        <ele>6.8</ele>
        <time>2020-03-11T10:35:53Z</time>
      </trkpt>
      <trkpt lat="47.21257" lon="-1.55291">
        <ele>8.1</ele>
        <time>2020-03-11T10:35:53Z</time>
      </trkpt>
      <trkpt lat="47.21231" lon="-1.55291">
        <ele>8.2</ele>
        <time>2020-03-11T10:35:53Z</time>
      </trkpt>
      <trkpt lat="47.21217" lon="-1.55308">
        <ele>8.3</ele>
        <time>2020-03-11T10:35:53Z</time>
      </trkpt>
      <trkpt lat="47.21209" lon="-1.55333">
        <ele>9</ele>
        <time>2020-03-11T10:35:53Z</time>
      </trkpt>
      <trkpt lat="47.21184" lon="-1.55315">
        <ele>8.8</ele>
        <time>2020-03-11T10:35:53Z</time>
      </trkpt>
      <trkpt lat="47.2116" lon="-1.55287">
        <ele>8</ele>
        <time>2020-03-11T10:35:53Z</time>
      </trkpt>
      <trkpt lat="47.21142" lon="-1.55266">
        <ele>8</ele>
        <time>2020-03-11T10:35:53Z</time>
      </trkpt>
      <trkpt lat="47.21124" lon="-1.55244">
        <ele>8</ele>
        <time>2020-03-11T10:35:53Z</time>
      </trkpt>
      <trkpt lat="47.21109" lon="-1.55226">
        <ele>8</ele>
        <time>2020-03-11T10:35:53Z</time>
      </trkpt>
      <trkpt lat="47.21089" lon="-1.55205">
        <ele>7.9</ele>
        <time>2020-03-11T10:35:53Z</time>
      </trkpt>
      <trkpt lat="47.21053" lon="-1.55165">
        <ele>8</ele>
        <time>2020-03-11T10:35:53Z</time>
      </trkpt>
      <trkpt lat="47.21028" lon="-1.55136">
        <ele>8</ele>
        <time>2020-03-11T10:35:53Z</time>
      </trkpt>
      <trkpt lat="47.21001" lon="-1.55103">
        <ele>8</ele>
        <time>2020-03-11T10:35:53Z</time>
      </trkpt>
      <trkpt lat="47.20978" lon="-1.55081">
        <ele>7.2</ele>
        <time>2020-03-11T10:35:53Z</time>
      </trkpt>
      <trkpt lat="47.20948" lon="-1.55053">
        <ele>7</ele>
        <time>2020-03-11T10:35:53Z</time>
      </trkpt>
      <trkpt lat="47.20896" lon="-1.54995">
        <ele>7</ele>
        <time>2020-03-11T10:35:53Z</time>
      </trkpt>
      <trkpt lat="47.20875" lon="-1.55001">
        <ele>7.4</ele>
        <time>2020-03-11T10:35:53Z</time>
      </trkpt>
      <trkpt lat="47.20859" lon="-1.54988">
        <ele>7.5</ele>
        <time>2020-03-11T10:35:53Z</time>
      </trkpt>
      <trkpt lat="47.20706" lon="-1.5489">
        <ele>6.3</ele>
        <time>2020-03-11T10:35:53Z</time>
      </trkpt>
      <trkpt lat="47.20685" lon="-1.54877">
        <ele>8</ele>
        <time>2020-03-11T10:35:53Z</time>
      </trkpt>
      <trkpt lat="47.20608" lon="-1.54803">
        <ele>8</ele>
        <time>2020-03-11T10:35:53Z</time>
      </trkpt>
      <trkpt lat="47.20586" lon="-1.54784">
        <ele>8</ele>
        <time>2020-03-11T10:35:53Z</time>
      </trkpt>
      <trkpt lat="47.2054" lon="-1.54752">
        <ele>8</ele>
        <time>2020-03-11T10:35:53Z</time>
      </trkpt>
      <trkpt lat="47.20516" lon="-1.5474">
        <ele>8</ele>
        <time>2020-03-11T10:35:53Z</time>
      </trkpt>
      <trkpt lat="47.20482" lon="-1.54722">
        <ele>8</ele>
        <time>2020-03-11T10:35:53Z</time>
      </trkpt>
      <trkpt lat="47.20442" lon="-1.54692">
        <ele>8</ele>
        <time>2020-03-11T10:35:53Z</time>
      </trkpt>
      <trkpt lat="47.20415" lon="-1.54675">
        <ele>8</ele>
        <time>2020-03-11T10:35:53Z</time>
      </trkpt>
      <trkpt lat="47.20366" lon="-1.54641">
        <ele>8</ele>
        <time>2020-03-11T10:35:53Z</time>
      </trkpt>
      <trkpt lat="47.20308" lon="-1.54604">
        <ele>8</ele>
        <time>2020-03-11T10:35:53Z</time>
      </trkpt>
      <trkpt lat="47.20236" lon="-1.54561">
        <ele>7.6</ele>
        <time>2020-03-11T10:35:53Z</time>
      </trkpt>
      <trkpt lat="47.2021" lon="-1.54546">
        <ele>8</ele>
        <time>2020-03-11T10:35:53Z</time>
      </trkpt>
      <trkpt lat="47.20181" lon="-1.54528">
        <ele>8</ele>
        <time>2020-03-11T10:35:53Z</time>
      </trkpt>
      <trkpt lat="47.20154" lon="-1.54511">
        <ele>8</ele>
        <time>2020-03-11T10:35:53Z</time>
      </trkpt>
      <trkpt lat="47.20133" lon="-1.54522">
        <ele>8</ele>
        <time>2020-03-11T10:35:53Z</time>
      </trkpt>
      <trkpt lat="47.20118" lon="-1.54543">
        <ele>8</ele>
        <time>2020-03-11T10:35:53Z</time>
      </trkpt>
      <trkpt lat="47.20098" lon="-1.54561">
        <ele>8</ele>
        <time>2020-03-11T10:35:53Z</time>
      </trkpt>
      <trkpt lat="47.20102" lon="-1.54589">
        <ele>7.9</ele>
        <time>2020-03-11T10:35:53Z</time>
      </trkpt>
      <trkpt lat="47.2013" lon="-1.54646">
        <ele>7.3</ele>
        <time>2020-03-11T10:35:53Z</time>
      </trkpt>
      <trkpt lat="47.20156" lon="-1.54696">
        <ele>8</ele>
        <time>2020-03-11T10:35:53Z</time>
      </trkpt>
      <trkpt lat="47.20159" lon="-1.54733">
        <ele>8</ele>
        <time>2020-03-11T10:35:53Z</time>
      </trkpt>
      <trkpt lat="47.20159" lon="-1.54763">
        <ele>8</ele>
        <time>2020-03-11T10:35:53Z</time>
      </trkpt>
      <trkpt lat="47.20165" lon="-1.54891">
        <ele>7.1</ele>
        <time>2020-03-11T10:35:53Z</time>
      </trkpt>
      <trkpt lat="47.20166" lon="-1.55028">
        <ele>8</ele>
        <time>2020-03-11T10:35:53Z</time>
      </trkpt>
      <trkpt lat="47.20166" lon="-1.55119">
        <ele>7</ele>
        <time>2020-03-11T10:35:53Z</time>
      </trkpt>
      <trkpt lat="47.20185" lon="-1.55137">
        <ele>7.6</ele>
        <time>2020-03-11T10:35:53Z</time>
      </trkpt>
      <trkpt lat="47.20202" lon="-1.5517">
        <ele>7.4</ele>
        <time>2020-03-11T10:35:53Z</time>
      </trkpt>
      <trkpt lat="47.20215" lon="-1.55211">
        <ele>8</ele>
        <time>2020-03-11T10:35:53Z</time>
      </trkpt>
      <trkpt lat="47.20219" lon="-1.55254">
        <ele>8</ele>
        <time>2020-03-11T10:35:53Z</time>
      </trkpt>
      <trkpt lat="47.20215" lon="-1.553">
        <ele>7.8</ele>
        <time>2020-03-11T10:35:53Z</time>
      </trkpt>
      <trkpt lat="47.20208" lon="-1.55358">
        <ele>7.5</ele>
        <time>2020-03-11T10:35:53Z</time>
      </trkpt>
      <trkpt lat="47.20217" lon="-1.55383">
        <ele>7.8</ele>
        <time>2020-03-11T10:35:53Z</time>
      </trkpt>
      <trkpt lat="47.20183" lon="-1.55428">
        <ele>7</ele>
        <time>2020-03-11T10:35:53Z</time>
      </trkpt>
      <trkpt lat="47.20168" lon="-1.5545">
        <ele>7</ele>
        <time>2020-03-11T10:35:53Z</time>
      </trkpt>
      <trkpt lat="47.20153" lon="-1.55472">
        <ele>7</ele>
        <time>2020-03-11T10:35:53Z</time>
      </trkpt>
      <trkpt lat="47.20139" lon="-1.55489">
        <ele>7</ele>
        <time>2020-03-11T10:35:53Z</time>
      </trkpt>
      <trkpt lat="47.20123" lon="-1.55505">
        <ele>7</ele>
        <time>2020-03-11T10:35:53Z</time>
      </trkpt>
      <trkpt lat="47.20026" lon="-1.55636">
        <ele>7</ele>
        <time>2020-03-11T10:35:53Z</time>
      </trkpt>
      <trkpt lat="47.20012" lon="-1.55658">
        <ele>7</ele>
        <time>2020-03-11T10:35:53Z</time>
      </trkpt>
      <trkpt lat="47.19994" lon="-1.55665">
        <ele>7</ele>
        <time>2020-03-11T10:35:53Z</time>
      </trkpt>
      <trkpt lat="47.1997" lon="-1.55659">
        <ele>7</ele>
        <time>2020-03-11T10:35:53Z</time>
      </trkpt>
      <trkpt lat="47.19949" lon="-1.55681">
        <ele>7</ele>
        <time>2020-03-11T10:35:53Z</time>
      </trkpt>
      <trkpt lat="47.19939" lon="-1.55705">
        <ele>6.3</ele>
        <time>2020-03-11T10:35:53Z</time>
      </trkpt>
      <trkpt lat="47.19934" lon="-1.55736">
        <ele>6.1</ele>
        <time>2020-03-11T10:35:53Z</time>
      </trkpt>
      <trkpt lat="47.19936" lon="-1.55811">
        <ele>7</ele>
        <time>2020-03-11T10:35:53Z</time>
      </trkpt>
      <trkpt lat="47.19936" lon="-1.55873">
        <ele>5.3</ele>
        <time>2020-03-11T10:35:53Z</time>
      </trkpt>
      <trkpt lat="47.19936" lon="-1.55908">
        <ele>5.7</ele>
        <time>2020-03-11T10:35:53Z</time>
      </trkpt>
      <trkpt lat="47.19936" lon="-1.55966">
        <ele>6.3</ele>
        <time>2020-03-11T10:35:53Z</time>
      </trkpt>
      <trkpt lat="47.19936" lon="-1.56013">
        <ele>6.5</ele>
        <time>2020-03-11T10:35:53Z</time>
      </trkpt>
      <trkpt lat="47.19937" lon="-1.56047">
        <ele>7.7</ele>
        <time>2020-03-11T10:35:53Z</time>
      </trkpt>
      <trkpt lat="47.19947" lon="-1.56087">
        <ele>7</ele>
        <time>2020-03-11T10:35:53Z</time>
      </trkpt>
      <trkpt lat="47.19964" lon="-1.5611">
        <ele>7</ele>
        <time>2020-03-11T10:35:53Z</time>
      </trkpt>
      <trkpt lat="47.19985" lon="-1.56126">
        <ele>7.3</ele>
        <time>2020-03-11T10:35:53Z</time>
      </trkpt>
      <trkpt lat="47.19999" lon="-1.56144">
        <ele>7</ele>
        <time>2020-03-11T10:35:53Z</time>
      </trkpt>
      <trkpt lat="47.19993" lon="-1.56169">
        <ele>7.2</ele>
        <time>2020-03-11T10:35:53Z</time>
      </trkpt>
      <trkpt lat="47.1997" lon="-1.56157">
        <ele>8.1</ele>
        <time>2020-03-11T10:35:53Z</time>
      </trkpt>
      <trkpt lat="47.19939" lon="-1.56163">
        <ele>7.4</ele>
        <time>2020-03-11T10:35:53Z</time>
      </trkpt>
      <trkpt lat="47.19849" lon="-1.5618">
        <time>2020-03-11T10:35:53Z</time>
      </trkpt>
      <trkpt lat="47.19762" lon="-1.56196">
        <time>2020-03-11T10:35:53Z</time>
      </trkpt>
      <trkpt lat="47.19678" lon="-1.56211">
        <ele>5</ele>
        <time>2020-03-11T10:35:53Z</time>
      </trkpt>
      <trkpt lat="47.1966" lon="-1.56223">
        <ele>6.7</ele>
        <time>2020-03-11T10:35:53Z</time>
      </trkpt>
      <trkpt lat="47.19634" lon="-1.56228">
        <ele>5.8</ele>
        <time>2020-03-11T10:35:53Z</time>
      </trkpt>
      <trkpt lat="47.19629" lon="-1.56322">
        <ele>5</ele>
        <time>2020-03-11T10:35:53Z</time>
      </trkpt>
      <trkpt lat="47.19627" lon="-1.56349">
        <ele>5.2</ele>
        <time>2020-03-11T10:35:53Z</time>
      </trkpt>
      <trkpt lat="47.19627" lon="-1.56396">
        <ele>5.3</ele>
        <time>2020-03-11T10:35:53Z</time>
      </trkpt>
      <trkpt lat="47.1963" lon="-1.56468">
        <ele>5</ele>
        <time>2020-03-11T10:35:53Z</time>
      </trkpt>
      <trkpt lat="47.1963" lon="-1.56515">
        <ele>5</ele>
        <time>2020-03-11T10:35:53Z</time>
      </trkpt>
      <trkpt lat="47.19629" lon="-1.56564">
        <ele>5.2</ele>
        <time>2020-03-11T10:35:53Z</time>
      </trkpt>
      <trkpt lat="47.19627" lon="-1.56596">
        <ele>5.6</ele>
        <time>2020-03-11T10:35:53Z</time>
      </trkpt>
      <trkpt lat="47.19623" lon="-1.56668">
        <ele>5.4</ele>
        <time>2020-03-11T10:35:53Z</time>
      </trkpt>
      <trkpt lat="47.19617" lon="-1.56784">
        <ele>5.2</ele>
        <time>2020-03-11T10:35:53Z</time>
      </trkpt>
      <trkpt lat="47.19606" lon="-1.56976">
        <ele>5</ele>
        <time>2020-03-11T10:35:53Z</time>
      </trkpt>
      <trkpt lat="47.19598" lon="-1.57102">
        <ele>5</ele>
        <time>2020-03-11T10:35:53Z</time>
      </trkpt>
      <trkpt lat="47.19595" lon="-1.57147">
        <ele>5.6</ele>
        <time>2020-03-11T10:35:53Z</time>
      </trkpt>
      <trkpt lat="47.19592" lon="-1.57194">
        <ele>5.7</ele>
        <time>2020-03-11T10:35:53Z</time>
      </trkpt>
      <trkpt lat="47.19589" lon="-1.57237">
        <ele>5.6</ele>
        <time>2020-03-11T10:35:53Z</time>
      </trkpt>
      <trkpt lat="47.19586" lon="-1.57268">
        <ele>5.9</ele>
        <time>2020-03-11T10:35:53Z</time>
      </trkpt>
      <trkpt lat="47.19585" lon="-1.57301">
        <ele>5.9</ele>
        <time>2020-03-11T10:35:53Z</time>
      </trkpt>
      <trkpt lat="47.19581" lon="-1.5733">
        <ele>6</ele>
        <time>2020-03-11T10:35:53Z</time>
      </trkpt>
      <trkpt lat="47.19546" lon="-1.57507">
        <ele>5.7</ele>
        <time>2020-03-11T10:35:53Z</time>
      </trkpt>
      <trkpt lat="47.19532" lon="-1.57576">
        <ele>5.2</ele>
        <time>2020-03-11T10:35:53Z</time>
      </trkpt>
      <trkpt lat="47.19524" lon="-1.57615">
        <ele>5.1</ele>
        <time>2020-03-11T10:35:53Z</time>
      </trkpt>
      <trkpt lat="47.19518" lon="-1.57642">
        <ele>5.6</ele>
        <time>2020-03-11T10:35:53Z</time>
      </trkpt>
      <trkpt lat="47.19503" lon="-1.57713">
        <ele>5.3</ele>
        <time>2020-03-11T10:35:53Z</time>
      </trkpt>
      <trkpt lat="47.19497" lon="-1.57749">
        <ele>5.1</ele>
        <time>2020-03-11T10:35:53Z</time>
      </trkpt>
      <trkpt lat="47.19485" lon="-1.57804">
        <ele>5.5</ele>
        <time>2020-03-11T10:35:53Z</time>
      </trkpt>
      <trkpt lat="47.1948" lon="-1.5783">
        <ele>4.6</ele>
        <time>2020-03-11T10:35:53Z</time>
      </trkpt>
      <trkpt lat="47.19483" lon="-1.57882">
        <ele>3.8</ele>
        <time>2020-03-11T10:35:53Z</time>
      </trkpt>
      <trkpt lat="47.19506" lon="-1.57992">
        <ele>4.1</ele>
        <time>2020-03-11T10:35:53Z</time>
      </trkpt>
      <trkpt lat="47.19513" lon="-1.58023">
        <ele>3.5</ele>
        <time>2020-03-11T10:35:53Z</time>
      </trkpt>
      <trkpt lat="47.19524" lon="-1.58068">
        <ele>4.6</ele>
        <time>2020-03-11T10:35:53Z</time>
      </trkpt>
      <trkpt lat="47.19527" lon="-1.58099">
        <ele>5</ele>
        <time>2020-03-11T10:35:53Z</time>
      </trkpt>
      <trkpt lat="47.19526" lon="-1.58129">
        <ele>5.1</ele>
        <time>2020-03-11T10:35:53Z</time>
      </trkpt>
      <trkpt lat="47.19525" lon="-1.58164">
        <ele>5.1</ele>
        <time>2020-03-11T10:35:53Z</time>
      </trkpt>
      <trkpt lat="47.19523" lon="-1.58204">
        <ele>4.3</ele>
        <time>2020-03-11T10:35:53Z</time>
      </trkpt>
      <trkpt lat="47.19521" lon="-1.58234">
        <ele>4.1</ele>
        <time>2020-03-11T10:35:53Z</time>
      </trkpt>
      <trkpt lat="47.19513" lon="-1.58265">
        <ele>4.6</ele>
        <time>2020-03-11T10:35:53Z</time>
      </trkpt>
      <trkpt lat="47.19494" lon="-1.58297">
        <ele>4.7</ele>
        <time>2020-03-11T10:35:53Z</time>
      </trkpt>
      <trkpt lat="47.19475" lon="-1.58339">
        <ele>4.6</ele>
        <time>2020-03-11T10:35:53Z</time>
      </trkpt>
      <trkpt lat="47.19444" lon="-1.58407">
        <ele>3.7</ele>
        <time>2020-03-11T10:35:53Z</time>
      </trkpt>
      <trkpt lat="47.19423" lon="-1.58439">
        <ele>4.2</ele>
        <time>2020-03-11T10:35:53Z</time>
      </trkpt>
      <trkpt lat="47.19407" lon="-1.5846">
        <ele>4.6</ele>
        <time>2020-03-11T10:35:53Z</time>
      </trkpt>
      <trkpt lat="47.19388" lon="-1.58497">
        <ele>4.1</ele>
        <time>2020-03-11T10:35:53Z</time>
      </trkpt>
      <trkpt lat="47.19371" lon="-1.58542">
        <ele>4.8</ele>
        <time>2020-03-11T10:35:53Z</time>
      </trkpt>
      <trkpt lat="47.19351" lon="-1.58597">
        <ele>5</ele>
        <time>2020-03-11T10:35:53Z</time>
      </trkpt>
      <trkpt lat="47.19339" lon="-1.58622">
        <ele>5.4</ele>
        <time>2020-03-11T10:35:53Z</time>
      </trkpt>
      <trkpt lat="47.19313" lon="-1.58585">
        <ele>4.3</ele>
        <time>2020-03-11T10:35:53Z</time>
      </trkpt>
      <trkpt lat="47.19278" lon="-1.5851">
        <ele>4.6</ele>
        <time>2020-03-11T10:35:53Z</time>
      </trkpt>
      <trkpt lat="47.19267" lon="-1.58535">
        <ele>4.3</ele>
        <time>2020-03-11T10:35:53Z</time>
      </trkpt>
      <trkpt lat="47.19251" lon="-1.58562">
        <ele>4</ele>
        <time>2020-03-11T10:35:53Z</time>
      </trkpt>
      <trkpt lat="47.19226" lon="-1.58568">
        <ele>4</ele>
        <time>2020-03-11T10:35:53Z</time>
      </trkpt>
      <trkpt lat="47.19207" lon="-1.58581">
        <ele>4.5</ele>
        <time>2020-03-11T10:35:53Z</time>
      </trkpt>
      <trkpt lat="47.19164" lon="-1.58515">
        <ele>5</ele>
        <time>2020-03-11T10:35:53Z</time>
      </trkpt>
      <trkpt lat="47.19143" lon="-1.58473">
        <ele>5</ele>
        <time>2020-03-11T10:35:53Z</time>
      </trkpt>
      <trkpt lat="47.19063" lon="-1.58549">
        <ele>5</ele>
        <time>2020-03-11T10:35:53Z</time>
      </trkpt>
      <trkpt lat="47.19042" lon="-1.58567">
        <ele>5.3</ele>
        <time>2020-03-11T10:35:53Z</time>
      </trkpt>
      <trkpt lat="47.18926" lon="-1.58679">
        <ele>6</ele>
        <time>2020-03-11T10:35:53Z</time>
      </trkpt>
      <trkpt lat="47.18907" lon="-1.58698">
        <ele>6</ele>
        <time>2020-03-11T10:35:53Z</time>
      </trkpt>
      <trkpt lat="47.18879" lon="-1.58713">
        <ele>6</ele>
        <time>2020-03-11T10:35:53Z</time>
      </trkpt>
      <trkpt lat="47.18854" lon="-1.58725">
        <ele>6.3</ele>
        <time>2020-03-11T10:35:53Z</time>
      </trkpt>
      <trkpt lat="47.18831" lon="-1.58743">
        <ele>7.1</ele>
        <time>2020-03-11T10:35:53Z</time>
      </trkpt>
      <trkpt lat="47.18823" lon="-1.58768">
        <ele>7.1</ele>
        <time>2020-03-11T10:35:53Z</time>
      </trkpt>
      <trkpt lat="47.1881" lon="-1.58792">
        <ele>7</ele>
        <time>2020-03-11T10:35:53Z</time>
      </trkpt>
      <trkpt lat="47.18788" lon="-1.588">
        <ele>7.1</ele>
        <time>2020-03-11T10:35:53Z</time>
      </trkpt>
      <trkpt lat="47.18771" lon="-1.58789">
        <ele>7.5</ele>
        <time>2020-03-11T10:35:53Z</time>
      </trkpt>
      <trkpt lat="47.1876" lon="-1.58762">
        <ele>7.4</ele>
        <time>2020-03-11T10:35:53Z</time>
      </trkpt>
      <trkpt lat="47.18753" lon="-1.5873">
        <ele>7.1</ele>
        <time>2020-03-11T10:35:53Z</time>
      </trkpt>
      <trkpt lat="47.18735" lon="-1.58709">
        <ele>6</ele>
        <time>2020-03-11T10:35:53Z</time>
      </trkpt>
      <trkpt lat="47.18722" lon="-1.58741">
        <ele>6</ele>
        <time>2020-03-11T10:35:53Z</time>
      </trkpt>
      <trkpt lat="47.1871" lon="-1.58781">
        <ele>5.6</ele>
        <time>2020-03-11T10:35:53Z</time>
      </trkpt>
      <trkpt lat="47.18698" lon="-1.58825">
        <ele>5.3</ele>
        <time>2020-03-11T10:35:53Z</time>
      </trkpt>
      <trkpt lat="47.18695" lon="-1.58859">
        <ele>5</ele>
        <time>2020-03-11T10:35:53Z</time>
      </trkpt>
      <trkpt lat="47.18691" lon="-1.58908">
        <ele>5.7</ele>
        <time>2020-03-11T10:35:53Z</time>
      </trkpt>
      <trkpt lat="47.18659" lon="-1.5891">
        <ele>6.6</ele>
        <time>2020-03-11T10:35:53Z</time>
      </trkpt>
      <trkpt lat="47.18635" lon="-1.5891">
        <ele>8.2</ele>
        <time>2020-03-11T10:35:53Z</time>
      </trkpt>
      <trkpt lat="47.18616" lon="-1.58907">
        <ele>9.1</ele>
        <time>2020-03-11T10:35:53Z</time>
      </trkpt>
      <trkpt lat="47.1861" lon="-1.58946">
        <ele>9.1</ele>
        <time>2020-03-11T10:35:53Z</time>
      </trkpt>
      <trkpt lat="47.18601" lon="-1.59012">
        <ele>10.4</ele>
        <time>2020-03-11T10:35:53Z</time>
      </trkpt>
      <trkpt lat="47.18592" lon="-1.59081">
        <ele>9.8</ele>
        <time>2020-03-11T10:35:53Z</time>
      </trkpt>
      <trkpt lat="47.18582" lon="-1.59163">
        <ele>10.1</ele>
        <time>2020-03-11T10:35:53Z</time>
      </trkpt>
      <trkpt lat="47.18571" lon="-1.5925">
        <ele>10.4</ele>
        <time>2020-03-11T10:35:53Z</time>
      </trkpt>
      <trkpt lat="47.18566" lon="-1.59292">
        <ele>10.6</ele>
        <time>2020-03-11T10:35:53Z</time>
      </trkpt>
      <trkpt lat="47.18506" lon="-1.59323">
        <ele>13.7</ele>
        <time>2020-03-11T10:35:53Z</time>
      </trkpt>
      <trkpt lat="47.18476" lon="-1.59319">
        <ele>14.9</ele>
        <time>2020-03-11T10:35:53Z</time>
      </trkpt>
      <trkpt lat="47.18441" lon="-1.59314">
        <ele>17.1</ele>
        <time>2020-03-11T10:35:53Z</time>
      </trkpt>
      <trkpt lat="47.18411" lon="-1.59305">
        <ele>18.2</ele>
        <time>2020-03-11T10:35:53Z</time>
      </trkpt>
      <trkpt lat="47.18364" lon="-1.59281">
        <ele>19.1</ele>
        <time>2020-03-11T10:35:53Z</time>
      </trkpt>
      <trkpt lat="47.18316" lon="-1.59249">
        <ele>20.6</ele>
        <time>2020-03-11T10:35:53Z</time>
      </trkpt>
      <trkpt lat="47.18274" lon="-1.59211">
        <ele>22</ele>
        <time>2020-03-11T10:35:53Z</time>
      </trkpt>
      <trkpt lat="47.18247" lon="-1.5923">
        <ele>22</ele>
        <time>2020-03-11T10:35:53Z</time>
      </trkpt>
      <trkpt lat="47.18228" lon="-1.5925">
        <ele>22</ele>
        <time>2020-03-11T10:35:53Z</time>
      </trkpt>
      <trkpt lat="47.182" lon="-1.5928">
        <ele>22.7</ele>
        <time>2020-03-11T10:35:53Z</time>
      </trkpt>
      <trkpt lat="47.18184" lon="-1.59296">
        <ele>22.6</ele>
        <time>2020-03-11T10:35:53Z</time>
      </trkpt>
      <trkpt lat="47.18163" lon="-1.59318">
        <ele>23</ele>
        <time>2020-03-11T10:35:53Z</time>
      </trkpt>
      <trkpt lat="47.18092" lon="-1.59386">
        <ele>23</ele>
        <time>2020-03-11T10:35:53Z</time>
      </trkpt>
      <trkpt lat="47.18073" lon="-1.59403">
        <ele>22.7</ele>
        <time>2020-03-11T10:35:53Z</time>
      </trkpt>
      <trkpt lat="47.18063" lon="-1.59429">
        <ele>22.4</ele>
        <time>2020-03-11T10:35:53Z</time>
      </trkpt>
      <trkpt lat="47.18043" lon="-1.59444">
        <ele>22</ele>
        <time>2020-03-11T10:35:53Z</time>
      </trkpt>
      <trkpt lat="47.18029" lon="-1.59487">
        <ele>22</ele>
        <time>2020-03-11T10:35:53Z</time>
      </trkpt>
      <trkpt lat="47.18013" lon="-1.59547">
        <ele>21.3</ele>
        <time>2020-03-11T10:35:53Z</time>
      </trkpt>
      <trkpt lat="47.18" lon="-1.59596">
        <ele>21</ele>
        <time>2020-03-11T10:35:53Z</time>
      </trkpt>
      <trkpt lat="47.17982" lon="-1.59666">
        <ele>20.7</ele>
        <time>2020-03-11T10:35:53Z</time>
      </trkpt>
      <trkpt lat="47.17977" lon="-1.59694">
        <ele>20.5</ele>
        <time>2020-03-11T10:35:53Z</time>
      </trkpt>
      <trkpt lat="47.17968" lon="-1.59721">
        <ele>19</ele>
        <time>2020-03-11T10:35:53Z</time>
      </trkpt>
      <trkpt lat="47.17961" lon="-1.59747">
        <ele>17.4</ele>
        <time>2020-03-11T10:35:53Z</time>
      </trkpt>
      <trkpt lat="47.17954" lon="-1.59775">
        <ele>15.2</ele>
        <time>2020-03-11T10:35:53Z</time>
      </trkpt>
      <trkpt lat="47.17944" lon="-1.59827">
        <ele>14.5</ele>
        <time>2020-03-11T10:35:53Z</time>
      </trkpt>
      <trkpt lat="47.1794" lon="-1.59857">
        <ele>14.3</ele>
        <time>2020-03-11T10:35:53Z</time>
      </trkpt>
      <trkpt lat="47.17933" lon="-1.59888">
        <ele>13.2</ele>
        <time>2020-03-11T10:35:53Z</time>
      </trkpt>
      <trkpt lat="47.17927" lon="-1.59913">
        <ele>11.2</ele>
        <time>2020-03-11T10:35:53Z</time>
      </trkpt>
      <trkpt lat="47.17924" lon="-1.5994">
        <ele>9.9</ele>
        <time>2020-03-11T10:35:53Z</time>
      </trkpt>
      <trkpt lat="47.17906" lon="-1.59941">
        <ele>10.1</ele>
        <time>2020-03-11T10:35:53Z</time>
      </trkpt>
      <trkpt lat="47.17887" lon="-1.59943">
        <ele>9.7</ele>
        <time>2020-03-11T10:35:53Z</time>
      </trkpt>
      <trkpt lat="47.17871" lon="-1.59965">
        <ele>9.2</ele>
        <time>2020-03-11T10:35:53Z</time>
      </trkpt>
      <trkpt lat="47.17849" lon="-1.60002">
        <ele>8.7</ele>
        <time>2020-03-11T10:35:53Z</time>
      </trkpt>
      <trkpt lat="47.17838" lon="-1.60023">
        <ele>10.5</ele>
        <time>2020-03-11T10:35:53Z</time>
      </trkpt>
      <trkpt lat="47.17807" lon="-1.60078">
        <ele>12</ele>
        <time>2020-03-11T10:35:53Z</time>
      </trkpt>
      <trkpt lat="47.17792" lon="-1.60104">
        <ele>10.1</ele>
        <time>2020-03-11T10:35:53Z</time>
      </trkpt>
      <trkpt lat="47.17777" lon="-1.60129">
        <ele>14.3</ele>
        <time>2020-03-11T10:35:53Z</time>
      </trkpt>
      <trkpt lat="47.17762" lon="-1.60154">
        <ele>16.6</ele>
        <time>2020-03-11T10:35:53Z</time>
      </trkpt>
      <trkpt lat="47.17752" lon="-1.60186">
        <ele>17.5</ele>
        <time>2020-03-11T10:35:53Z</time>
      </trkpt>
      <trkpt lat="47.17745" lon="-1.60215">
        <ele>18.2</ele>
        <time>2020-03-11T10:35:53Z</time>
      </trkpt>
      <trkpt lat="47.17737" lon="-1.60247">
        <ele>18.5</ele>
        <time>2020-03-11T10:35:53Z</time>
      </trkpt>
      <trkpt lat="47.17723" lon="-1.60279">
        <ele>19</ele>
        <time>2020-03-11T10:35:53Z</time>
      </trkpt>
      <trkpt lat="47.17664" lon="-1.60359">
        <ele>20.1</ele>
        <time>2020-03-11T10:35:53Z</time>
      </trkpt>
      <trkpt lat="47.17645" lon="-1.60387">
        <ele>19.3</ele>
        <time>2020-03-11T10:35:53Z</time>
      </trkpt>
      <trkpt lat="47.17622" lon="-1.60422">
        <ele>17.8</ele>
        <time>2020-03-11T10:35:53Z</time>
      </trkpt>
      <trkpt lat="47.17503" lon="-1.60615">
        <ele>16.3</ele>
        <time>2020-03-11T10:35:53Z</time>
      </trkpt>
      <trkpt lat="47.17488" lon="-1.60637">
        <ele>17</ele>
        <time>2020-03-11T10:35:53Z</time>
      </trkpt>
      <trkpt lat="47.17459" lon="-1.60688">
        <ele>16.7</ele>
        <time>2020-03-11T10:35:53Z</time>
      </trkpt>
      <trkpt lat="47.17439" lon="-1.60722">
        <ele>15.4</ele>
        <time>2020-03-11T10:35:53Z</time>
      </trkpt>
      <trkpt lat="47.17425" lon="-1.60747">
        <ele>14.8</ele>
        <time>2020-03-11T10:35:53Z</time>
      </trkpt>
      <trkpt lat="47.17413" lon="-1.60776">
        <ele>13.3</ele>
        <time>2020-03-11T10:35:53Z</time>
      </trkpt>
      <trkpt lat="47.17403" lon="-1.60807">
        <ele>11.4</ele>
        <time>2020-03-11T10:35:53Z</time>
      </trkpt>
      <trkpt lat="47.17396" lon="-1.60843">
        <ele>9.4</ele>
        <time>2020-03-11T10:35:53Z</time>
      </trkpt>
      <trkpt lat="47.17393" lon="-1.60871">
        <ele>9.1</ele>
        <time>2020-03-11T10:35:53Z</time>
      </trkpt>
      <trkpt lat="47.17391" lon="-1.60898">
        <ele>9.3</ele>
        <time>2020-03-11T10:35:53Z</time>
      </trkpt>
      <trkpt lat="47.17393" lon="-1.60926">
        <ele>8.3</ele>
        <time>2020-03-11T10:35:53Z</time>
      </trkpt>
      <trkpt lat="47.17401" lon="-1.6097">
        <ele>8</ele>
        <time>2020-03-11T10:35:53Z</time>
      </trkpt>
      <trkpt lat="47.17414" lon="-1.60989">
        <ele>8.6</ele>
        <time>2020-03-11T10:35:53Z</time>
      </trkpt>
      <trkpt lat="47.17416" lon="-1.61016">
        <ele>9</ele>
        <time>2020-03-11T10:35:53Z</time>
      </trkpt>
      <trkpt lat="47.17418" lon="-1.61049">
        <ele>9.6</ele>
        <time>2020-03-11T10:35:53Z</time>
      </trkpt>
      <trkpt lat="47.17436" lon="-1.61093">
        <ele>9.2</ele>
        <time>2020-03-11T10:35:53Z</time>
      </trkpt>
      <trkpt lat="47.17465" lon="-1.61161">
        <ele>9.6</ele>
        <time>2020-03-11T10:35:53Z</time>
      </trkpt>
      <trkpt lat="47.17491" lon="-1.61224">
        <ele>10.8</ele>
        <time>2020-03-11T10:35:53Z</time>
      </trkpt>
      <trkpt lat="47.17521" lon="-1.6128">
        <ele>13</ele>
        <time>2020-03-11T10:35:53Z</time>
      </trkpt>
      <trkpt lat="47.17538" lon="-1.61291">
        <ele>13</ele>
        <time>2020-03-11T10:35:53Z</time>
      </trkpt>
      <trkpt lat="47.17556" lon="-1.61298">
        <ele>13</ele>
        <time>2020-03-11T10:35:53Z</time>
      </trkpt>
      <trkpt lat="47.17563" lon="-1.61325">
        <ele>12.6</ele>
        <time>2020-03-11T10:35:53Z</time>
      </trkpt>
      <trkpt lat="47.17565" lon="-1.61352">
        <ele>12.5</ele>
        <time>2020-03-11T10:35:53Z</time>
      </trkpt>
      <trkpt lat="47.17579" lon="-1.61375">
        <ele>12.2</ele>
        <time>2020-03-11T10:35:53Z</time>
      </trkpt>
      <trkpt lat="47.17622" lon="-1.61417">
        <ele>11.6</ele>
        <time>2020-03-11T10:35:53Z</time>
      </trkpt>
      <trkpt lat="47.1764" lon="-1.61436">
        <ele>12.3</ele>
        <time>2020-03-11T10:35:53Z</time>
      </trkpt>
      <trkpt lat="47.17658" lon="-1.61462">
        <ele>12.3</ele>
        <time>2020-03-11T10:35:53Z</time>
      </trkpt>
      <trkpt lat="47.1767" lon="-1.6149">
        <ele>13.5</ele>
        <time>2020-03-11T10:35:53Z</time>
      </trkpt>
      <trkpt lat="47.1768" lon="-1.61517">
        <ele>14.1</ele>
        <time>2020-03-11T10:35:53Z</time>
      </trkpt>
      <trkpt lat="47.17687" lon="-1.6155">
        <ele>15.1</ele>
        <time>2020-03-11T10:35:53Z</time>
      </trkpt>
      <trkpt lat="47.1769" lon="-1.61582">
        <ele>16.1</ele>
        <time>2020-03-11T10:35:53Z</time>
      </trkpt>
      <trkpt lat="47.1769" lon="-1.61636">
        <ele>17.9</ele>
        <time>2020-03-11T10:35:53Z</time>
      </trkpt>
      <trkpt lat="47.1769" lon="-1.61664">
        <ele>18.9</ele>
        <time>2020-03-11T10:35:53Z</time>
      </trkpt>
      <trkpt lat="47.1769" lon="-1.61695">
        <ele>19.8</ele>
        <time>2020-03-11T10:35:53Z</time>
      </trkpt>
      <trkpt lat="47.1769" lon="-1.61734">
        <ele>20.5</ele>
        <time>2020-03-11T10:35:53Z</time>
      </trkpt>
      <trkpt lat="47.17687" lon="-1.61774">
        <ele>22.1</ele>
        <time>2020-03-11T10:35:53Z</time>
      </trkpt>
      <trkpt lat="47.17683" lon="-1.6183">
        <ele>22.9</ele>
        <time>2020-03-11T10:35:53Z</time>
      </trkpt>
      <trkpt lat="47.17679" lon="-1.6186">
        <ele>24</ele>
        <time>2020-03-11T10:35:53Z</time>
      </trkpt>
      <trkpt lat="47.17675" lon="-1.61887">
        <ele>24.3</ele>
        <time>2020-03-11T10:35:53Z</time>
      </trkpt>
      <trkpt lat="47.17668" lon="-1.61918">
        <ele>25</ele>
        <time>2020-03-11T10:35:53Z</time>
      </trkpt>
      <trkpt lat="47.17658" lon="-1.6196">
        <ele>25.8</ele>
        <time>2020-03-11T10:35:53Z</time>
      </trkpt>
      <trkpt lat="47.1766" lon="-1.61991">
        <ele>25.5</ele>
        <time>2020-03-11T10:35:53Z</time>
      </trkpt>
      <trkpt lat="47.17646" lon="-1.6201">
        <ele>25.7</ele>
        <time>2020-03-11T10:35:53Z</time>
      </trkpt>
      <trkpt lat="47.17623" lon="-1.62061">
        <ele>25</ele>
        <time>2020-03-11T10:35:53Z</time>
      </trkpt>
      <trkpt lat="47.17513" lon="-1.62368">
        <ele>20.4</ele>
        <time>2020-03-11T10:35:53Z</time>
      </trkpt>
      <trkpt lat="47.17522" lon="-1.62392">
        <ele>20.1</ele>
        <time>2020-03-11T10:35:53Z</time>
      </trkpt>
      <trkpt lat="47.17511" lon="-1.62413">
        <ele>20.3</ele>
        <time>2020-03-11T10:35:53Z</time>
      </trkpt>
      <trkpt lat="47.17493" lon="-1.62407">
        <ele>19.6</ele>
        <time>2020-03-11T10:35:53Z</time>
      </trkpt>
      <trkpt lat="47.1748" lon="-1.62379">
        <ele>19.3</ele>
        <time>2020-03-11T10:35:53Z</time>
      </trkpt>
      <trkpt lat="47.17454" lon="-1.62373">
        <ele>18.3</ele>
        <time>2020-03-11T10:35:53Z</time>
      </trkpt>
      <trkpt lat="47.17432" lon="-1.62376">
        <ele>17.6</ele>
        <time>2020-03-11T10:35:53Z</time>
      </trkpt>
      <trkpt lat="47.17413" lon="-1.62375">
        <ele>16.9</ele>
        <time>2020-03-11T10:35:53Z</time>
      </trkpt>
      <trkpt lat="47.17394" lon="-1.62373">
        <ele>16.5</ele>
        <time>2020-03-11T10:35:53Z</time>
      </trkpt>
      <trkpt lat="47.17358" lon="-1.62374">
        <ele>16.1</ele>
        <time>2020-03-11T10:35:53Z</time>
      </trkpt>
      <trkpt lat="47.17304" lon="-1.62382">
        <ele>16.8</ele>
        <time>2020-03-11T10:35:53Z</time>
      </trkpt>
      <trkpt lat="47.1728" lon="-1.62385">
        <ele>16.9</ele>
        <time>2020-03-11T10:35:53Z</time>
      </trkpt>
      <trkpt lat="47.17236" lon="-1.62393">
        <ele>17.1</ele>
        <time>2020-03-11T10:35:53Z</time>
      </trkpt>
      <trkpt lat="47.17196" lon="-1.62401">
        <ele>17</ele>
        <time>2020-03-11T10:35:53Z</time>
      </trkpt>
      <trkpt lat="47.17132" lon="-1.62413">
        <ele>17.2</ele>
        <time>2020-03-11T10:35:53Z</time>
      </trkpt>
      <trkpt lat="47.1711" lon="-1.62418">
        <ele>18</ele>
        <time>2020-03-11T10:35:53Z</time>
      </trkpt>
      <trkpt lat="47.17078" lon="-1.62431">
        <ele>17.5</ele>
        <time>2020-03-11T10:35:53Z</time>
      </trkpt>
      <trkpt lat="47.17037" lon="-1.62454">
        <ele>18.1</ele>
        <time>2020-03-11T10:35:53Z</time>
      </trkpt>
      <trkpt lat="47.1699" lon="-1.6248">
        <ele>18.2</ele>
        <time>2020-03-11T10:35:53Z</time>
      </trkpt>
      <trkpt lat="47.1697" lon="-1.62492">
        <ele>18.1</ele>
        <time>2020-03-11T10:35:53Z</time>
      </trkpt>
      <trkpt lat="47.16949" lon="-1.62498">
        <ele>18.8</ele>
        <time>2020-03-11T10:35:53Z</time>
      </trkpt>
      <trkpt lat="47.16927" lon="-1.62499">
        <ele>19</ele>
        <time>2020-03-11T10:35:53Z</time>
      </trkpt>
      <trkpt lat="47.16903" lon="-1.62497">
        <ele>19.1</ele>
        <time>2020-03-11T10:35:53Z</time>
      </trkpt>
      <trkpt lat="47.16878" lon="-1.62489">
        <ele>19.5</ele>
        <time>2020-03-11T10:35:53Z</time>
      </trkpt>
      <trkpt lat="47.1684" lon="-1.62476">
        <ele>19.9</ele>
        <time>2020-03-11T10:35:53Z</time>
      </trkpt>
      <trkpt lat="47.16814" lon="-1.62466">
        <ele>20.8</ele>
        <time>2020-03-11T10:35:53Z</time>
      </trkpt>
      <trkpt lat="47.1675" lon="-1.62444">
        <ele>21</ele>
        <time>2020-03-11T10:35:53Z</time>
      </trkpt>
      <trkpt lat="47.16729" lon="-1.62435">
        <ele>20.2</ele>
        <time>2020-03-11T10:35:53Z</time>
      </trkpt>
      <trkpt lat="47.16728" lon="-1.62401">
        <ele>20.1</ele>
        <time>2020-03-11T10:35:53Z</time>
      </trkpt>
      <trkpt lat="47.16711" lon="-1.6239">
        <ele>19.6</ele>
        <time>2020-03-11T10:35:53Z</time>
      </trkpt>
      <trkpt lat="47.16694" lon="-1.62368">
        <ele>20.5</ele>
        <time>2020-03-11T10:35:53Z</time>
      </trkpt>
      <trkpt lat="47.16672" lon="-1.6236">
        <ele>21.8</ele>
        <time>2020-03-11T10:35:53Z</time>
      </trkpt>
      <trkpt lat="47.16644" lon="-1.62374">
        <ele>21.4</ele>
        <time>2020-03-11T10:35:53Z</time>
      </trkpt>
      <trkpt lat="47.16625" lon="-1.62394">
        <ele>21</ele>
        <time>2020-03-11T10:35:53Z</time>
      </trkpt>
      <trkpt lat="47.16613" lon="-1.62414">
        <ele>22.6</ele>
        <time>2020-03-11T10:35:53Z</time>
      </trkpt>
      <trkpt lat="47.166" lon="-1.62439">
        <ele>21.6</ele>
        <time>2020-03-11T10:35:53Z</time>
      </trkpt>
      <trkpt lat="47.16588" lon="-1.62467">
        <ele>23</ele>
        <time>2020-03-11T10:35:53Z</time>
      </trkpt>
      <trkpt lat="47.16571" lon="-1.62509">
        <ele>22.8</ele>
        <time>2020-03-11T10:35:53Z</time>
      </trkpt>
      <trkpt lat="47.16559" lon="-1.62535">
        <ele>24.9</ele>
        <time>2020-03-11T10:35:53Z</time>
      </trkpt>
      <trkpt lat="47.16539" lon="-1.62558">
        <ele>25.1</ele>
        <time>2020-03-11T10:35:53Z</time>
      </trkpt>
      <trkpt lat="47.1652" lon="-1.62564">
        <ele>25.1</ele>
        <time>2020-03-11T10:35:53Z</time>
      </trkpt>
      <trkpt lat="47.16445" lon="-1.62541">
        <ele>25.5</ele>
        <time>2020-03-11T10:35:53Z</time>
      </trkpt>
      <trkpt lat="47.16426" lon="-1.62546">
        <ele>26.8</ele>
        <time>2020-03-11T10:35:53Z</time>
      </trkpt>
      <trkpt lat="47.16405" lon="-1.62567">
        <ele>27.1</ele>
        <time>2020-03-11T10:35:53Z</time>
      </trkpt>
      <trkpt lat="47.16385" lon="-1.62582">
        <ele>27.1</ele>
        <time>2020-03-11T10:35:53Z</time>
      </trkpt>
      <trkpt lat="47.16363" lon="-1.62583">
        <ele>27</ele>
        <time>2020-03-11T10:35:53Z</time>
      </trkpt>
      <trkpt lat="47.16343" lon="-1.62579">
        <ele>27.5</ele>
        <time>2020-03-11T10:35:53Z</time>
      </trkpt>
      <trkpt lat="47.16314" lon="-1.62568">
        <ele>27.5</ele>
        <time>2020-03-11T10:35:53Z</time>
      </trkpt>
      <trkpt lat="47.16295" lon="-1.62581">
        <ele>27</ele>
        <time>2020-03-11T10:35:53Z</time>
      </trkpt>
      <trkpt lat="47.16285" lon="-1.62605">
        <ele>27</ele>
        <time>2020-03-11T10:35:53Z</time>
      </trkpt>
      <trkpt lat="47.16279" lon="-1.62637">
        <ele>26.1</ele>
        <time>2020-03-11T10:35:53Z</time>
      </trkpt>
      <trkpt lat="47.16276" lon="-1.62672">
        <ele>26.2</ele>
        <time>2020-03-11T10:35:53Z</time>
      </trkpt>
      <trkpt lat="47.16279" lon="-1.62707">
        <ele>27</ele>
        <time>2020-03-11T10:35:53Z</time>
      </trkpt>
      <trkpt lat="47.16257" lon="-1.62741">
        <ele>25.8</ele>
        <time>2020-03-11T10:35:53Z</time>
      </trkpt>
      <trkpt lat="47.16234" lon="-1.62753">
        <ele>24.9</ele>
        <time>2020-03-11T10:35:53Z</time>
      </trkpt>
      <trkpt lat="47.16206" lon="-1.62768">
        <ele>24.1</ele>
        <time>2020-03-11T10:35:53Z</time>
      </trkpt>
      <trkpt lat="47.16127" lon="-1.62837">
        <ele>21</ele>
        <time>2020-03-11T10:35:53Z</time>
      </trkpt>
      <trkpt lat="47.15754" lon="-1.63166">
        <ele>18</ele>
        <time>2020-03-11T10:35:53Z</time>
      </trkpt>
      <trkpt lat="47.15697" lon="-1.6322">
        <ele>18.1</ele>
        <time>2020-03-11T10:35:53Z</time>
      </trkpt>
      <trkpt lat="47.15494" lon="-1.63398">
        <ele>22.3</ele>
        <time>2020-03-11T10:35:53Z</time>
      </trkpt>
      <trkpt lat="47.15456" lon="-1.63434">
        <ele>23.6</ele>
        <time>2020-03-11T10:35:53Z</time>
      </trkpt>
      <trkpt lat="47.15432" lon="-1.63455">
        <ele>24.2</ele>
        <time>2020-03-11T10:35:53Z</time>
      </trkpt>
      <trkpt lat="47.15413" lon="-1.63474">
        <ele>24.9</ele>
        <time>2020-03-11T10:35:53Z</time>
      </trkpt>
      <trkpt lat="47.15397" lon="-1.63495">
        <ele>24.9</ele>
        <time>2020-03-11T10:35:53Z</time>
      </trkpt>
      <trkpt lat="47.15382" lon="-1.63515">
        <ele>25</ele>
        <time>2020-03-11T10:35:53Z</time>
      </trkpt>
      <trkpt lat="47.15358" lon="-1.63523">
        <ele>25</ele>
        <time>2020-03-11T10:35:53Z</time>
      </trkpt>
      <trkpt lat="47.15326" lon="-1.63554">
        <ele>25</ele>
        <time>2020-03-11T10:35:53Z</time>
      </trkpt>
      <trkpt lat="47.15306" lon="-1.63568">
        <ele>25.4</ele>
        <time>2020-03-11T10:35:53Z</time>
      </trkpt>
      <trkpt lat="47.15259" lon="-1.63607">
        <ele>24.6</ele>
        <time>2020-03-11T10:35:53Z</time>
      </trkpt>
      <trkpt lat="47.15218" lon="-1.63644">
        <ele>23.9</ele>
        <time>2020-03-11T10:35:53Z</time>
      </trkpt>
      <trkpt lat="47.15184" lon="-1.63674">
        <ele>23.7</ele>
        <time>2020-03-11T10:35:53Z</time>
      </trkpt>
      <trkpt lat="47.15167" lon="-1.6369">
        <ele>23.8</ele>
        <time>2020-03-11T10:35:53Z</time>
      </trkpt>
      <trkpt lat="47.15148" lon="-1.63708">
        <ele>23.8</ele>
        <time>2020-03-11T10:35:53Z</time>
      </trkpt>
      <trkpt lat="47.15128" lon="-1.63727">
        <ele>24</ele>
        <time>2020-03-11T10:35:53Z</time>
      </trkpt>
      <trkpt lat="47.15103" lon="-1.63753">
        <ele>23.7</ele>
        <time>2020-03-11T10:35:53Z</time>
      </trkpt>
      <trkpt lat="47.15087" lon="-1.6377">
        <ele>23.8</ele>
        <time>2020-03-11T10:35:53Z</time>
      </trkpt>
      <trkpt lat="47.15064" lon="-1.638">
        <ele>24</ele>
        <time>2020-03-11T10:35:53Z</time>
      </trkpt>
      <trkpt lat="47.15031" lon="-1.63842">
        <ele>24.1</ele>
        <time>2020-03-11T10:35:53Z</time>
      </trkpt>
      <trkpt lat="47.1501" lon="-1.63873">
        <ele>24</ele>
        <time>2020-03-11T10:35:53Z</time>
      </trkpt>
      <trkpt lat="47.14986" lon="-1.6391">
        <ele>24</ele>
        <time>2020-03-11T10:35:53Z</time>
      </trkpt>
      <trkpt lat="47.14962" lon="-1.6395">
        <ele>24</ele>
        <time>2020-03-11T10:35:53Z</time>
      </trkpt>
      <trkpt lat="47.14937" lon="-1.63994">
        <ele>24</ele>
        <time>2020-03-11T10:35:53Z</time>
      </trkpt>
      <trkpt lat="47.14918" lon="-1.6403">
        <ele>24.9</ele>
        <time>2020-03-11T10:35:53Z</time>
      </trkpt>
      <trkpt lat="47.14905" lon="-1.64057">
        <ele>24.4</ele>
        <time>2020-03-11T10:35:53Z</time>
      </trkpt>
      <trkpt lat="47.14889" lon="-1.64096">
        <ele>25</ele>
        <time>2020-03-11T10:35:53Z</time>
      </trkpt>
      <trkpt lat="47.14878" lon="-1.6412">
        <ele>25</ele>
        <time>2020-03-11T10:35:53Z</time>
      </trkpt>
      <trkpt lat="47.14861" lon="-1.64163">
        <ele>25</ele>
        <time>2020-03-11T10:35:53Z</time>
      </trkpt>
      <trkpt lat="47.14847" lon="-1.64201">
        <ele>25</ele>
        <time>2020-03-11T10:35:53Z</time>
      </trkpt>
      <trkpt lat="47.14834" lon="-1.64238">
        <ele>25</ele>
        <time>2020-03-11T10:35:53Z</time>
      </trkpt>
      <trkpt lat="47.14825" lon="-1.64268">
        <ele>25</ele>
        <time>2020-03-11T10:35:53Z</time>
      </trkpt>
      <trkpt lat="47.14817" lon="-1.64295">
        <ele>25</ele>
        <time>2020-03-11T10:35:53Z</time>
      </trkpt>
      <trkpt lat="47.14809" lon="-1.64325">
        <ele>25</ele>
        <time>2020-03-11T10:35:53Z</time>
      </trkpt>
      <trkpt lat="47.14801" lon="-1.64357">
        <ele>24.1</ele>
        <time>2020-03-11T10:35:53Z</time>
      </trkpt>
      <trkpt lat="47.14792" lon="-1.64395">
        <ele>24.1</ele>
        <time>2020-03-11T10:35:53Z</time>
      </trkpt>
      <trkpt lat="47.14784" lon="-1.64439">
        <ele>25</ele>
        <time>2020-03-11T10:35:53Z</time>
      </trkpt>
      <trkpt lat="47.14774" lon="-1.64496">
        <ele>25</ele>
        <time>2020-03-11T10:35:53Z</time>
      </trkpt>
      <trkpt lat="47.14767" lon="-1.64538">
        <ele>24.8</ele>
        <time>2020-03-11T10:35:53Z</time>
      </trkpt>
      <trkpt lat="47.14761" lon="-1.64578">
        <ele>24.7</ele>
        <time>2020-03-11T10:35:53Z</time>
      </trkpt>
      <trkpt lat="47.14752" lon="-1.64636">
        <ele>24.1</ele>
        <time>2020-03-11T10:35:53Z</time>
      </trkpt>
      <trkpt lat="47.14744" lon="-1.64685">
        <ele>24</ele>
        <time>2020-03-11T10:35:53Z</time>
      </trkpt>
      <trkpt lat="47.14737" lon="-1.64722">
        <ele>23</ele>
        <time>2020-03-11T10:35:53Z</time>
      </trkpt>
      <trkpt lat="47.14731" lon="-1.64747">
        <ele>23</ele>
        <time>2020-03-11T10:35:53Z</time>
      </trkpt>
      <trkpt lat="47.14725" lon="-1.64774">
        <ele>22.1</ele>
        <time>2020-03-11T10:35:53Z</time>
      </trkpt>
      <trkpt lat="47.14717" lon="-1.64803">
        <ele>22</ele>
        <time>2020-03-11T10:35:53Z</time>
      </trkpt>
      <trkpt lat="47.14708" lon="-1.64836">
        <ele>21</ele>
        <time>2020-03-11T10:35:53Z</time>
      </trkpt>
      <trkpt lat="47.14698" lon="-1.6487">
        <ele>20.7</ele>
        <time>2020-03-11T10:35:53Z</time>
      </trkpt>
      <trkpt lat="47.14701" lon="-1.64907">
        <ele>20</ele>
        <time>2020-03-11T10:35:53Z</time>
      </trkpt>
      <trkpt lat="47.14693" lon="-1.64931">
        <ele>19.5</ele>
        <time>2020-03-11T10:35:53Z</time>
      </trkpt>
      <trkpt lat="47.14675" lon="-1.64945">
        <ele>19</ele>
        <time>2020-03-11T10:35:53Z</time>
      </trkpt>
      <trkpt lat="47.14664" lon="-1.64976">
        <ele>19</ele>
        <time>2020-03-11T10:35:53Z</time>
      </trkpt>
      <trkpt lat="47.14652" lon="-1.65006">
        <ele>18.9</ele>
        <time>2020-03-11T10:35:53Z</time>
      </trkpt>
      <trkpt lat="47.14633" lon="-1.65055">
        <ele>18</ele>
        <time>2020-03-11T10:35:53Z</time>
      </trkpt>
      <trkpt lat="47.14621" lon="-1.65087">
        <ele>18</ele>
        <time>2020-03-11T10:35:53Z</time>
      </trkpt>
      <trkpt lat="47.14611" lon="-1.65112">
        <ele>18</ele>
        <time>2020-03-11T10:35:53Z</time>
      </trkpt>
      <trkpt lat="47.14598" lon="-1.65147">
        <ele>17.5</ele>
        <time>2020-03-11T10:35:53Z</time>
      </trkpt>
      <trkpt lat="47.1459" lon="-1.65174">
        <ele>17.8</ele>
        <time>2020-03-11T10:35:53Z</time>
      </trkpt>
      <trkpt lat="47.1458" lon="-1.65209">
        <ele>17.5</ele>
        <time>2020-03-11T10:35:53Z</time>
      </trkpt>
      <trkpt lat="47.14573" lon="-1.65237">
        <ele>17</ele>
        <time>2020-03-11T10:35:53Z</time>
      </trkpt>
      <trkpt lat="47.14567" lon="-1.65266">
        <ele>17</ele>
        <time>2020-03-11T10:35:53Z</time>
      </trkpt>
      <trkpt lat="47.14561" lon="-1.65295">
        <ele>17</ele>
        <time>2020-03-11T10:35:53Z</time>
      </trkpt>
      <trkpt lat="47.14555" lon="-1.65324">
        <ele>17</ele>
        <time>2020-03-11T10:35:53Z</time>
      </trkpt>
      <trkpt lat="47.14547" lon="-1.65358">
        <ele>16.7</ele>
        <time>2020-03-11T10:35:53Z</time>
      </trkpt>
      <trkpt lat="47.1454" lon="-1.65388">
        <ele>16.4</ele>
        <time>2020-03-11T10:35:53Z</time>
      </trkpt>
      <trkpt lat="47.1453" lon="-1.65424">
        <ele>16.8</ele>
        <time>2020-03-11T10:35:53Z</time>
      </trkpt>
      <trkpt lat="47.1452" lon="-1.65453">
        <ele>16.5</ele>
        <time>2020-03-11T10:35:53Z</time>
      </trkpt>
      <trkpt lat="47.14506" lon="-1.65488">
        <ele>16.6</ele>
        <time>2020-03-11T10:35:53Z</time>
      </trkpt>
      <trkpt lat="47.1449" lon="-1.65529">
        <ele>16</ele>
        <time>2020-03-11T10:35:53Z</time>
      </trkpt>
      <trkpt lat="47.1447" lon="-1.65577">
        <ele>15.3</ele>
        <time>2020-03-11T10:35:53Z</time>
      </trkpt>
      <trkpt lat="47.14457" lon="-1.65611">
        <ele>15.5</ele>
        <time>2020-03-11T10:35:53Z</time>
      </trkpt>
      <trkpt lat="47.14445" lon="-1.65644">
        <ele>15</ele>
        <time>2020-03-11T10:35:53Z</time>
      </trkpt>
      <trkpt lat="47.14434" lon="-1.6568">
        <ele>15</ele>
        <time>2020-03-11T10:35:53Z</time>
      </trkpt>
      <trkpt lat="47.14425" lon="-1.65716">
        <ele>15</ele>
        <time>2020-03-11T10:35:53Z</time>
      </trkpt>
      <trkpt lat="47.14418" lon="-1.65754">
        <ele>15</ele>
        <time>2020-03-11T10:35:53Z</time>
      </trkpt>
      <trkpt lat="47.14412" lon="-1.65789">
        <ele>15</ele>
        <time>2020-03-11T10:35:53Z</time>
      </trkpt>
      <trkpt lat="47.14405" lon="-1.65843">
        <ele>14.8</ele>
        <time>2020-03-11T10:35:53Z</time>
      </trkpt>
      <trkpt lat="47.14402" lon="-1.65879">
        <ele>14.9</ele>
        <time>2020-03-11T10:35:53Z</time>
      </trkpt>
      <trkpt lat="47.14401" lon="-1.65911">
        <ele>15.5</ele>
        <time>2020-03-11T10:35:53Z</time>
      </trkpt>
      <trkpt lat="47.14399" lon="-1.65949">
        <ele>16.6</ele>
        <time>2020-03-11T10:35:53Z</time>
      </trkpt>
      <trkpt lat="47.14397" lon="-1.65983">
        <ele>16.8</ele>
        <time>2020-03-11T10:35:53Z</time>
      </trkpt>
      <trkpt lat="47.14397" lon="-1.66015">
        <ele>17.4</ele>
        <time>2020-03-11T10:35:53Z</time>
      </trkpt>
      <trkpt lat="47.14397" lon="-1.6605">
        <ele>17.9</ele>
        <time>2020-03-11T10:35:53Z</time>
      </trkpt>
      <trkpt lat="47.14393" lon="-1.66088">
        <ele>17.7</ele>
        <time>2020-03-11T10:35:53Z</time>
      </trkpt>
      <trkpt lat="47.14388" lon="-1.66121">
        <ele>17</ele>
        <time>2020-03-11T10:35:53Z</time>
      </trkpt>
      <trkpt lat="47.14384" lon="-1.66148">
        <ele>17</ele>
        <time>2020-03-11T10:35:53Z</time>
      </trkpt>
      <trkpt lat="47.14385" lon="-1.66179">
        <ele>17</ele>
        <time>2020-03-11T10:35:53Z</time>
      </trkpt>
      <trkpt lat="47.14372" lon="-1.66214">
        <ele>16.6</ele>
        <time>2020-03-11T10:35:53Z</time>
      </trkpt>
      <trkpt lat="47.14366" lon="-1.66242">
        <ele>16.2</ele>
        <time>2020-03-11T10:35:53Z</time>
      </trkpt>
      <trkpt lat="47.14352" lon="-1.66299">
        <ele>16.3</ele>
        <time>2020-03-11T10:35:53Z</time>
      </trkpt>
      <trkpt lat="47.14337" lon="-1.66357">
        <ele>16</ele>
        <time>2020-03-11T10:35:53Z</time>
      </trkpt>
      <trkpt lat="47.14318" lon="-1.66435">
        <ele>15.7</ele>
        <time>2020-03-11T10:35:53Z</time>
      </trkpt>
      <trkpt lat="47.14305" lon="-1.66489">
        <ele>16</ele>
        <time>2020-03-11T10:35:53Z</time>
      </trkpt>
      <trkpt lat="47.14291" lon="-1.66542">
        <ele>15.7</ele>
        <time>2020-03-11T10:35:53Z</time>
      </trkpt>
      <trkpt lat="47.14281" lon="-1.66581">
        <ele>15.1</ele>
        <time>2020-03-11T10:35:53Z</time>
      </trkpt>
      <trkpt lat="47.14273" lon="-1.66611">
        <ele>14.8</ele>
        <time>2020-03-11T10:35:53Z</time>
      </trkpt>
      <trkpt lat="47.14259" lon="-1.66652">
        <ele>13.6</ele>
        <time>2020-03-11T10:35:53Z</time>
      </trkpt>
      <trkpt lat="47.14211" lon="-1.668">
        <ele>12</ele>
        <time>2020-03-11T10:35:53Z</time>
      </trkpt>
      <trkpt lat="47.14196" lon="-1.66844">
        <ele>13</ele>
        <time>2020-03-11T10:35:53Z</time>
      </trkpt>
      <trkpt lat="47.14189" lon="-1.66878">
        <ele>12.9</ele>
        <time>2020-03-11T10:35:53Z</time>
      </trkpt>
      <trkpt lat="47.14175" lon="-1.66932">
        <ele>13.8</ele>
        <time>2020-03-11T10:35:53Z</time>
      </trkpt>
      <trkpt lat="47.14171" lon="-1.66983">
        <ele>14.2</ele>
        <time>2020-03-11T10:35:53Z</time>
      </trkpt>
      <trkpt lat="47.14171" lon="-1.67024">
        <ele>14.2</ele>
        <time>2020-03-11T10:35:53Z</time>
      </trkpt>
      <trkpt lat="47.14174" lon="-1.67061">
        <ele>14.3</ele>
        <time>2020-03-11T10:35:53Z</time>
      </trkpt>
      <trkpt lat="47.14177" lon="-1.67093">
        <ele>14.4</ele>
        <time>2020-03-11T10:35:53Z</time>
      </trkpt>
      <trkpt lat="47.14181" lon="-1.67123">
        <ele>14.5</ele>
        <time>2020-03-11T10:35:53Z</time>
      </trkpt>
      <trkpt lat="47.14183" lon="-1.67155">
        <ele>14.6</ele>
        <time>2020-03-11T10:35:53Z</time>
      </trkpt>
      <trkpt lat="47.14191" lon="-1.67188">
        <ele>14.9</ele>
        <time>2020-03-11T10:35:53Z</time>
      </trkpt>
      <trkpt lat="47.14202" lon="-1.67239">
        <ele>15</ele>
        <time>2020-03-11T10:35:53Z</time>
      </trkpt>
      <trkpt lat="47.14212" lon="-1.67272">
        <ele>15</ele>
        <time>2020-03-11T10:35:53Z</time>
      </trkpt>
      <trkpt lat="47.14236" lon="-1.6733">
        <ele>15.4</ele>
        <time>2020-03-11T10:35:53Z</time>
      </trkpt>
      <trkpt lat="47.14256" lon="-1.67381">
        <ele>16</ele>
        <time>2020-03-11T10:35:53Z</time>
      </trkpt>
      <trkpt lat="47.14266" lon="-1.67405">
        <ele>16</ele>
        <time>2020-03-11T10:35:53Z</time>
      </trkpt>
      <trkpt lat="47.14281" lon="-1.67448">
        <ele>15.8</ele>
        <time>2020-03-11T10:35:53Z</time>
      </trkpt>
      <trkpt lat="47.14296" lon="-1.67497">
        <ele>15</ele>
        <time>2020-03-11T10:35:53Z</time>
      </trkpt>
      <trkpt lat="47.14301" lon="-1.67523">
        <ele>14.9</ele>
        <time>2020-03-11T10:35:53Z</time>
      </trkpt>
      <trkpt lat="47.14306" lon="-1.67561">
        <ele>15</ele>
        <time>2020-03-11T10:35:53Z</time>
      </trkpt>
      <trkpt lat="47.14309" lon="-1.67598">
        <ele>15</ele>
        <time>2020-03-11T10:35:53Z</time>
      </trkpt>
      <trkpt lat="47.14312" lon="-1.67647">
        <ele>15</ele>
        <time>2020-03-11T10:35:53Z</time>
      </trkpt>
      <trkpt lat="47.14317" lon="-1.67681">
        <ele>14.8</ele>
        <time>2020-03-11T10:35:53Z</time>
      </trkpt>
      <trkpt lat="47.14331" lon="-1.67732">
        <ele>15.5</ele>
        <time>2020-03-11T10:35:53Z</time>
      </trkpt>
      <trkpt lat="47.14341" lon="-1.6777">
        <ele>15.3</ele>
        <time>2020-03-11T10:35:53Z</time>
      </trkpt>
      <trkpt lat="47.1435" lon="-1.6781">
        <ele>15</ele>
        <time>2020-03-11T10:35:53Z</time>
      </trkpt>
      <trkpt lat="47.14354" lon="-1.67851">
        <ele>15.5</ele>
        <time>2020-03-11T10:35:53Z</time>
      </trkpt>
      <trkpt lat="47.14372" lon="-1.67861">
        <ele>16</ele>
        <time>2020-03-11T10:35:53Z</time>
      </trkpt>
      <trkpt lat="47.14375" lon="-1.67888">
        <ele>16</ele>
        <time>2020-03-11T10:35:53Z</time>
      </trkpt>
      <trkpt lat="47.14365" lon="-1.67919">
        <ele>15</ele>
        <time>2020-03-11T10:35:53Z</time>
      </trkpt>
      <trkpt lat="47.14367" lon="-1.67948">
        <ele>15</ele>
        <time>2020-03-11T10:35:53Z</time>
      </trkpt>
      <trkpt lat="47.14368" lon="-1.67982">
        <ele>15.1</ele>
        <time>2020-03-11T10:35:53Z</time>
      </trkpt>
      <trkpt lat="47.14369" lon="-1.68013">
        <ele>15.3</ele>
        <time>2020-03-11T10:35:53Z</time>
      </trkpt>
      <trkpt lat="47.14372" lon="-1.68085">
        <ele>15.4</ele>
        <time>2020-03-11T10:35:53Z</time>
      </trkpt>
      <trkpt lat="47.14375" lon="-1.68122">
        <ele>15.8</ele>
        <time>2020-03-11T10:35:53Z</time>
      </trkpt>
      <trkpt lat="47.14375" lon="-1.68155">
        <ele>15.8</ele>
        <time>2020-03-11T10:35:53Z</time>
      </trkpt>
      <trkpt lat="47.14378" lon="-1.68186">
        <ele>15.8</ele>
        <time>2020-03-11T10:35:53Z</time>
      </trkpt>
      <trkpt lat="47.14383" lon="-1.68216">
        <ele>15.8</ele>
        <time>2020-03-11T10:35:53Z</time>
      </trkpt>
      <trkpt lat="47.14393" lon="-1.68238">
        <ele>15.5</ele>
        <time>2020-03-11T10:35:53Z</time>
      </trkpt>
      <trkpt lat="47.14389" lon="-1.68265">
        <ele>15</ele>
        <time>2020-03-11T10:35:53Z</time>
      </trkpt>
      <trkpt lat="47.14395" lon="-1.68291">
        <ele>14.6</ele>
        <time>2020-03-11T10:35:53Z</time>
      </trkpt>
      <trkpt lat="47.14399" lon="-1.6833">
        <ele>14</ele>
        <time>2020-03-11T10:35:53Z</time>
      </trkpt>
      <trkpt lat="47.14403" lon="-1.68375">
        <ele>14.2</ele>
        <time>2020-03-11T10:35:53Z</time>
      </trkpt>
      <trkpt lat="47.14401" lon="-1.68429">
        <ele>15</ele>
        <time>2020-03-11T10:35:53Z</time>
      </trkpt>
      <trkpt lat="47.14399" lon="-1.68457">
        <ele>15</ele>
        <time>2020-03-11T10:35:53Z</time>
      </trkpt>
      <trkpt lat="47.14396" lon="-1.68506">
        <ele>16</ele>
        <time>2020-03-11T10:35:53Z</time>
      </trkpt>
      <trkpt lat="47.14395" lon="-1.68561">
        <ele>16</ele>
        <time>2020-03-11T10:35:53Z</time>
      </trkpt>
      <trkpt lat="47.14397" lon="-1.68594">
        <ele>16</ele>
        <time>2020-03-11T10:35:53Z</time>
      </trkpt>
      <trkpt lat="47.14402" lon="-1.68622">
        <ele>16</ele>
        <time>2020-03-11T10:35:53Z</time>
      </trkpt>
      <trkpt lat="47.14414" lon="-1.68667">
        <ele>15.9</ele>
        <time>2020-03-11T10:35:53Z</time>
      </trkpt>
      <trkpt lat="47.14417" lon="-1.68701">
        <ele>16</ele>
        <time>2020-03-11T10:35:53Z</time>
      </trkpt>
      <trkpt lat="47.14413" lon="-1.68727">
        <ele>15.9</ele>
        <time>2020-03-11T10:35:53Z</time>
      </trkpt>
      <trkpt lat="47.14412" lon="-1.68754">
        <ele>16.7</ele>
        <time>2020-03-11T10:35:53Z</time>
      </trkpt>
      <trkpt lat="47.1441" lon="-1.68782">
        <ele>16.9</ele>
        <time>2020-03-11T10:35:53Z</time>
      </trkpt>
      <trkpt lat="47.14405" lon="-1.68852">
        <ele>18.3</ele>
        <time>2020-03-11T10:35:53Z</time>
      </trkpt>
      <trkpt lat="47.14404" lon="-1.68881">
        <ele>18.5</ele>
        <time>2020-03-11T10:35:53Z</time>
      </trkpt>
      <trkpt lat="47.14401" lon="-1.68913">
        <ele>19.3</ele>
        <time>2020-03-11T10:35:53Z</time>
      </trkpt>
      <trkpt lat="47.14398" lon="-1.68961">
        <ele>19.3</ele>
        <time>2020-03-11T10:35:53Z</time>
      </trkpt>
      <trkpt lat="47.14397" lon="-1.69006">
        <ele>20.3</ele>
        <time>2020-03-11T10:35:53Z</time>
      </trkpt>
      <trkpt lat="47.14396" lon="-1.69119">
        <ele>20.3</ele>
        <time>2020-03-11T10:35:53Z</time>
      </trkpt>
      <trkpt lat="47.14394" lon="-1.69236">
        <ele>19.2</ele>
        <time>2020-03-11T10:35:53Z</time>
      </trkpt>
      <trkpt lat="47.14393" lon="-1.69308">
        <ele>19.1</ele>
        <time>2020-03-11T10:35:53Z</time>
      </trkpt>
      <trkpt lat="47.14391" lon="-1.69353">
        <ele>19.1</ele>
        <time>2020-03-11T10:35:53Z</time>
      </trkpt>
      <trkpt lat="47.14383" lon="-1.69401">
        <ele>18.7</ele>
        <time>2020-03-11T10:35:53Z</time>
      </trkpt>
      <trkpt lat="47.14381" lon="-1.69438">
        <ele>18.1</ele>
        <time>2020-03-11T10:35:53Z</time>
      </trkpt>
      <trkpt lat="47.14379" lon="-1.69505">
        <ele>16.8</ele>
        <time>2020-03-11T10:35:53Z</time>
      </trkpt>
      <trkpt lat="47.14368" lon="-1.69562">
        <ele>14.2</ele>
        <time>2020-03-11T10:35:53Z</time>
      </trkpt>
      <trkpt lat="47.14358" lon="-1.69596">
        <ele>13.9</ele>
        <time>2020-03-11T10:35:53Z</time>
      </trkpt>
      <trkpt lat="47.14347" lon="-1.69631">
        <ele>13.1</ele>
        <time>2020-03-11T10:35:53Z</time>
      </trkpt>
      <trkpt lat="47.14326" lon="-1.69713">
        <ele>11.2</ele>
        <time>2020-03-11T10:35:53Z</time>
      </trkpt>
      <trkpt lat="47.14293" lon="-1.69708">
        <ele>11</ele>
        <time>2020-03-11T10:35:53Z</time>
      </trkpt>
      <trkpt lat="47.14269" lon="-1.69705">
        <ele>10.7</ele>
        <time>2020-03-11T10:35:53Z</time>
      </trkpt>
      <trkpt lat="47.14222" lon="-1.6971">
        <ele>9.4</ele>
        <time>2020-03-11T10:35:53Z</time>
      </trkpt>
      <trkpt lat="47.14181" lon="-1.69716">
        <ele>9.2</ele>
        <time>2020-03-11T10:35:53Z</time>
      </trkpt>
      <trkpt lat="47.14134" lon="-1.69724">
        <ele>8.9</ele>
        <time>2020-03-11T10:35:53Z</time>
      </trkpt>
      <trkpt lat="47.14103" lon="-1.69728">
        <ele>9.2</ele>
        <time>2020-03-11T10:35:53Z</time>
      </trkpt>
      <trkpt lat="47.14072" lon="-1.6973">
        <ele>10.1</ele>
        <time>2020-03-11T10:35:53Z</time>
      </trkpt>
      <trkpt lat="47.14036" lon="-1.69727">
        <ele>10.8</ele>
        <time>2020-03-11T10:35:53Z</time>
      </trkpt>
      <trkpt lat="47.14007" lon="-1.69725">
        <ele>10.9</ele>
        <time>2020-03-11T10:35:53Z</time>
      </trkpt>
      <trkpt lat="47.13936" lon="-1.69719">
        <ele>9.7</ele>
        <time>2020-03-11T10:35:53Z</time>
      </trkpt>
      <trkpt lat="47.13917" lon="-1.69718">
        <ele>9.2</ele>
        <time>2020-03-11T10:35:53Z</time>
      </trkpt>
      <trkpt lat="47.13896" lon="-1.69719">
        <ele>8.4</ele>
        <time>2020-03-11T10:35:53Z</time>
      </trkpt>
      <trkpt lat="47.13851" lon="-1.69726">
        <ele>8</ele>
        <time>2020-03-11T10:35:53Z</time>
      </trkpt>
      <trkpt lat="47.13827" lon="-1.69727">
        <ele>7.8</ele>
        <time>2020-03-11T10:35:53Z</time>
      </trkpt>
      <trkpt lat="47.13801" lon="-1.69726">
        <ele>7.1</ele>
        <time>2020-03-11T10:35:53Z</time>
      </trkpt>
      <trkpt lat="47.13771" lon="-1.69725">
        <ele>7</ele>
        <time>2020-03-11T10:35:53Z</time>
      </trkpt>
      <trkpt lat="47.13726" lon="-1.69732">
        <ele>7</ele>
        <time>2020-03-11T10:35:53Z</time>
      </trkpt>
      <trkpt lat="47.13665" lon="-1.69738">
        <ele>6.9</ele>
        <time>2020-03-11T10:35:53Z</time>
      </trkpt>
      <trkpt lat="47.13568" lon="-1.69738">
        <ele>5</ele>
        <time>2020-03-11T10:35:53Z</time>
      </trkpt>
      <trkpt lat="47.13511" lon="-1.69738">
        <ele>4.4</ele>
        <time>2020-03-11T10:35:53Z</time>
      </trkpt>
      <trkpt lat="47.13487" lon="-1.69741">
        <ele>4.2</ele>
        <time>2020-03-11T10:35:53Z</time>
      </trkpt>
      <trkpt lat="47.13457" lon="-1.69748">
        <ele>4</ele>
        <time>2020-03-11T10:35:53Z</time>
      </trkpt>
      <trkpt lat="47.13413" lon="-1.6977">
        <ele>3</ele>
        <time>2020-03-11T10:35:53Z</time>
      </trkpt>
      <trkpt lat="47.13268" lon="-1.69844">
        <ele>2.8</ele>
        <time>2020-03-11T10:35:53Z</time>
      </trkpt>
      <trkpt lat="47.13237" lon="-1.69861">
        <ele>2.9</ele>
        <time>2020-03-11T10:35:53Z</time>
      </trkpt>
      <trkpt lat="47.13219" lon="-1.6987">
        <ele>3.9</ele>
        <time>2020-03-11T10:35:53Z</time>
      </trkpt>
      <trkpt lat="47.12996" lon="-1.69987">
        <ele>2</ele>
        <time>2020-03-11T10:35:53Z</time>
      </trkpt>
      <trkpt lat="47.12652" lon="-1.70167">
        <ele>3</ele>
        <time>2020-03-11T10:35:53Z</time>
      </trkpt>
      <trkpt lat="47.12484" lon="-1.70254">
        <ele>3.2</ele>
        <time>2020-03-11T10:35:53Z</time>
      </trkpt>
      <trkpt lat="47.12464" lon="-1.70268">
        <ele>2.6</ele>
        <time>2020-03-11T10:35:53Z</time>
      </trkpt>
      <trkpt lat="47.12443" lon="-1.70287">
        <ele>3.3</ele>
        <time>2020-03-11T10:35:53Z</time>
      </trkpt>
      <trkpt lat="47.12426" lon="-1.70315">
        <ele>2.8</ele>
        <time>2020-03-11T10:35:53Z</time>
      </trkpt>
      <trkpt lat="47.12415" lon="-1.70347">
        <ele>3.4</ele>
        <time>2020-03-11T10:35:53Z</time>
      </trkpt>
      <trkpt lat="47.12397" lon="-1.70427">
        <ele>2.1</ele>
        <time>2020-03-11T10:35:53Z</time>
      </trkpt>
      <trkpt lat="47.12381" lon="-1.7049">
        <ele>3.2</ele>
        <time>2020-03-11T10:35:53Z</time>
      </trkpt>
      <trkpt lat="47.12369" lon="-1.70522">
        <ele>3.8</ele>
        <time>2020-03-11T10:35:53Z</time>
      </trkpt>
      <trkpt lat="47.12351" lon="-1.7056">
        <ele>4</ele>
        <time>2020-03-11T10:35:53Z</time>
      </trkpt>
      <trkpt lat="47.12323" lon="-1.70603">
        <ele>4.4</ele>
        <time>2020-03-11T10:35:53Z</time>
      </trkpt>
      <trkpt lat="47.12277" lon="-1.70671">
        <ele>4.1</ele>
        <time>2020-03-11T10:35:53Z</time>
      </trkpt>
      <trkpt lat="47.12258" lon="-1.70697">
        <ele>4.4</ele>
        <time>2020-03-11T10:35:53Z</time>
      </trkpt>
      <trkpt lat="47.1224" lon="-1.70719">
        <ele>4.9</ele>
        <time>2020-03-11T10:35:53Z</time>
      </trkpt>
      <trkpt lat="47.12346" lon="-1.70914">
        <ele>3.6</ele>
        <time>2020-03-11T10:35:53Z</time>
      </trkpt>
      <trkpt lat="47.1238" lon="-1.70981">
        <ele>4.1</ele>
        <time>2020-03-11T10:35:53Z</time>
      </trkpt>
      <trkpt lat="47.12394" lon="-1.71026">
        <ele>4.9</ele>
        <time>2020-03-11T10:35:53Z</time>
      </trkpt>
      <trkpt lat="47.12394" lon="-1.71071">
        <ele>6.1</ele>
        <time>2020-03-11T10:35:53Z</time>
      </trkpt>
      <trkpt lat="47.12384" lon="-1.71141">
        <ele>7</ele>
        <time>2020-03-11T10:35:53Z</time>
      </trkpt>
      <trkpt lat="47.12371" lon="-1.71188">
        <ele>7.9</ele>
        <time>2020-03-11T10:35:53Z</time>
      </trkpt>
      <trkpt lat="47.12351" lon="-1.71239">
        <ele>8.7</ele>
        <time>2020-03-11T10:35:53Z</time>
      </trkpt>
      <trkpt lat="47.1232" lon="-1.71304">
        <ele>10</ele>
        <time>2020-03-11T10:35:53Z</time>
      </trkpt>
      <trkpt lat="47.12264" lon="-1.7139">
        <ele>11</ele>
        <time>2020-03-11T10:35:53Z</time>
      </trkpt>
      <trkpt lat="47.1223" lon="-1.71429">
        <ele>11</ele>
        <time>2020-03-11T10:35:53Z</time>
      </trkpt>
      <trkpt lat="47.12203" lon="-1.71448">
        <ele>11.1</ele>
        <time>2020-03-11T10:35:53Z</time>
      </trkpt>
      <trkpt lat="47.12171" lon="-1.71464">
        <ele>11.7</ele>
        <time>2020-03-11T10:35:53Z</time>
      </trkpt>
      <trkpt lat="47.12119" lon="-1.71485">
        <ele>11.5</ele>
        <time>2020-03-11T10:35:53Z</time>
      </trkpt>
      <trkpt lat="47.12065" lon="-1.71492">
        <ele>11.7</ele>
        <time>2020-03-11T10:35:53Z</time>
      </trkpt>
      <trkpt lat="47.11979" lon="-1.71498">
        <ele>11.7</ele>
        <time>2020-03-11T10:35:53Z</time>
      </trkpt>
      <trkpt lat="47.11763" lon="-1.71511">
        <ele>9.5</ele>
        <time>2020-03-11T10:35:53Z</time>
      </trkpt>
      <trkpt lat="47.11665" lon="-1.71519">
        <ele>7.9</ele>
        <time>2020-03-11T10:35:53Z</time>
      </trkpt>
      <trkpt lat="47.11646" lon="-1.7152">
        <ele>7.3</ele>
        <time>2020-03-11T10:35:53Z</time>
      </trkpt>
      <trkpt lat="47.11561" lon="-1.71525">
        <ele>6</ele>
        <time>2020-03-11T10:35:53Z</time>
      </trkpt>
      <trkpt lat="47.1152" lon="-1.71529">
        <ele>5</ele>
        <time>2020-03-11T10:35:53Z</time>
      </trkpt>
      <trkpt lat="47.11483" lon="-1.71543">
        <ele>4.4</ele>
        <time>2020-03-11T10:35:53Z</time>
      </trkpt>
      <trkpt lat="47.11456" lon="-1.71562">
        <ele>4</ele>
        <time>2020-03-11T10:35:53Z</time>
      </trkpt>
      <trkpt lat="47.11372" lon="-1.71618">
        <ele>4</ele>
        <time>2020-03-11T10:35:53Z</time>
      </trkpt>
      <trkpt lat="47.1135" lon="-1.71631">
        <ele>4</ele>
        <time>2020-03-11T10:35:53Z</time>
      </trkpt>
      <trkpt lat="47.1131" lon="-1.7166">
        <ele>4.1</ele>
        <time>2020-03-11T10:35:53Z</time>
      </trkpt>
      <trkpt lat="47.11281" lon="-1.71676">
        <ele>4.9</ele>
        <time>2020-03-11T10:35:53Z</time>
      </trkpt>
      <trkpt lat="47.11252" lon="-1.71673">
        <ele>5</ele>
        <time>2020-03-11T10:35:53Z</time>
      </trkpt>
      <trkpt lat="47.11234" lon="-1.71682">
        <ele>5.3</ele>
        <time>2020-03-11T10:35:53Z</time>
      </trkpt>
      <trkpt lat="47.11085" lon="-1.71812">
        <ele>8</ele>
        <time>2020-03-11T10:35:53Z</time>
      </trkpt>
      <trkpt lat="47.11051" lon="-1.71852">
        <ele>8.6</ele>
        <time>2020-03-11T10:35:53Z</time>
      </trkpt>
      <trkpt lat="47.11031" lon="-1.71878">
        <ele>8.7</ele>
        <time>2020-03-11T10:35:53Z</time>
      </trkpt>
      <trkpt lat="47.10957" lon="-1.7199">
        <ele>8.3</ele>
        <time>2020-03-11T10:35:53Z</time>
      </trkpt>
      <trkpt lat="47.10869" lon="-1.72119">
        <ele>6.8</ele>
        <time>2020-03-11T10:35:53Z</time>
      </trkpt>
      <trkpt lat="47.10834" lon="-1.72143">
        <ele>6</ele>
        <time>2020-03-11T10:35:53Z</time>
      </trkpt>
      <trkpt lat="47.10794" lon="-1.72197">
        <ele>5</ele>
        <time>2020-03-11T10:35:53Z</time>
      </trkpt>
      <trkpt lat="47.10768" lon="-1.72217">
        <ele>5.4</ele>
        <time>2020-03-11T10:35:53Z</time>
      </trkpt>
      <trkpt lat="47.10727" lon="-1.72243">
        <ele>6</ele>
        <time>2020-03-11T10:35:53Z</time>
      </trkpt>
      <trkpt lat="47.10697" lon="-1.72293">
        <ele>7</ele>
        <time>2020-03-11T10:35:53Z</time>
      </trkpt>
      <trkpt lat="47.10632" lon="-1.72403">
        <ele>9</ele>
        <time>2020-03-11T10:35:53Z</time>
      </trkpt>
      <trkpt lat="47.10601" lon="-1.72472">
        <ele>10</ele>
        <time>2020-03-11T10:35:53Z</time>
      </trkpt>
      <trkpt lat="47.10571" lon="-1.72543">
        <ele>9.8</ele>
        <time>2020-03-11T10:35:53Z</time>
      </trkpt>
      <trkpt lat="47.10598" lon="-1.72568">
        <ele>10.2</ele>
        <time>2020-03-11T10:35:53Z</time>
      </trkpt>
      <trkpt lat="47.10616" lon="-1.72587">
        <ele>10.9</ele>
        <time>2020-03-11T10:35:53Z</time>
      </trkpt>
      <trkpt lat="47.10666" lon="-1.72665">
        <ele>10.9</ele>
        <time>2020-03-11T10:35:53Z</time>
      </trkpt>
      <trkpt lat="47.10708" lon="-1.7273">
        <ele>10.5</ele>
        <time>2020-03-11T10:35:53Z</time>
      </trkpt>
      <trkpt lat="47.10731" lon="-1.72761">
        <ele>10.3</ele>
        <time>2020-03-11T10:35:53Z</time>
      </trkpt>
      <trkpt lat="47.10755" lon="-1.72789">
        <ele>10.4</ele>
        <time>2020-03-11T10:35:53Z</time>
      </trkpt>
      <trkpt lat="47.10779" lon="-1.72811">
        <ele>11.2</ele>
        <time>2020-03-11T10:35:53Z</time>
      </trkpt>
      <trkpt lat="47.10817" lon="-1.72844">
        <ele>11.7</ele>
        <time>2020-03-11T10:35:53Z</time>
      </trkpt>
      <trkpt lat="47.10846" lon="-1.72867">
        <ele>11.6</ele>
        <time>2020-03-11T10:35:53Z</time>
      </trkpt>
      <trkpt lat="47.10897" lon="-1.72935">
        <ele>12</ele>
        <time>2020-03-11T10:35:53Z</time>
      </trkpt>
      <trkpt lat="47.10917" lon="-1.72958">
        <ele>12</ele>
        <time>2020-03-11T10:35:53Z</time>
      </trkpt>
      <trkpt lat="47.1095" lon="-1.73001">
        <ele>13</ele>
        <time>2020-03-11T10:35:53Z</time>
      </trkpt>
      <trkpt lat="47.10975" lon="-1.73043">
        <ele>13</ele>
        <time>2020-03-11T10:35:53Z</time>
      </trkpt>
      <trkpt lat="47.11065" lon="-1.73165">
        <ele>12</ele>
        <time>2020-03-11T10:35:53Z</time>
      </trkpt>
      <trkpt lat="47.11089" lon="-1.73207">
        <ele>12.1</ele>
        <time>2020-03-11T10:35:53Z</time>
      </trkpt>
      <trkpt lat="47.1112" lon="-1.73266">
        <ele>10.6</ele>
        <time>2020-03-11T10:35:53Z</time>
      </trkpt>
      <trkpt lat="47.11153" lon="-1.7333">
        <ele>10</ele>
        <time>2020-03-11T10:35:53Z</time>
      </trkpt>
      <trkpt lat="47.11189" lon="-1.73364">
        <ele>10</ele>
        <time>2020-03-11T10:35:53Z</time>
      </trkpt>
      <trkpt lat="47.1123" lon="-1.73396">
        <ele>10</ele>
        <time>2020-03-11T10:35:53Z</time>
      </trkpt>
      <trkpt lat="47.11247" lon="-1.73407">
        <ele>10</ele>
        <time>2020-03-11T10:35:53Z</time>
      </trkpt>
      <trkpt lat="47.11263" lon="-1.73457">
        <ele>9.3</ele>
        <time>2020-03-11T10:35:53Z</time>
      </trkpt>
      <trkpt lat="47.11267" lon="-1.73504">
        <ele>8.5</ele>
        <time>2020-03-11T10:35:53Z</time>
      </trkpt>
      <trkpt lat="47.11272" lon="-1.73538">
        <ele>7.9</ele>
        <time>2020-03-11T10:35:53Z</time>
      </trkpt>
      <trkpt lat="47.1129" lon="-1.73573">
        <ele>7.4</ele>
        <time>2020-03-11T10:35:53Z</time>
      </trkpt>
      <trkpt lat="47.11311" lon="-1.73617">
        <ele>7.2</ele>
        <time>2020-03-11T10:35:53Z</time>
      </trkpt>
      <trkpt lat="47.11368" lon="-1.73733">
        <ele>7</ele>
        <time>2020-03-11T10:35:53Z</time>
      </trkpt>
      <trkpt lat="47.11377" lon="-1.73758">
        <ele>7</ele>
        <time>2020-03-11T10:35:53Z</time>
      </trkpt>
      <trkpt lat="47.11389" lon="-1.73791">
        <ele>7</ele>
        <time>2020-03-11T10:35:53Z</time>
      </trkpt>
      <trkpt lat="47.11415" lon="-1.73878">
        <ele>4.9</ele>
        <time>2020-03-11T10:35:53Z</time>
      </trkpt>
      <trkpt lat="47.11423" lon="-1.73902">
        <ele>3.1</ele>
        <time>2020-03-11T10:35:53Z</time>
      </trkpt>
      <trkpt lat="47.11434" lon="-1.73933">
        <ele>2.9</ele>
        <time>2020-03-11T10:35:53Z</time>
      </trkpt>
      <trkpt lat="47.11452" lon="-1.73969">
        <ele>3.1</ele>
        <time>2020-03-11T10:35:53Z</time>
      </trkpt>
      <trkpt lat="47.11473" lon="-1.73988">
        <ele>3</ele>
        <time>2020-03-11T10:35:53Z</time>
      </trkpt>
      <trkpt lat="47.11495" lon="-1.73997">
        <ele>3.6</ele>
        <time>2020-03-11T10:35:53Z</time>
      </trkpt>
      <trkpt lat="47.11496" lon="-1.74035">
        <ele>4</ele>
        <time>2020-03-11T10:35:53Z</time>
      </trkpt>
      <trkpt lat="47.11449" lon="-1.74114">
        <ele>4.4</ele>
        <time>2020-03-11T10:35:53Z</time>
      </trkpt>
      <trkpt lat="47.11433" lon="-1.7416">
        <ele>4.1</ele>
        <time>2020-03-11T10:35:53Z</time>
      </trkpt>
      <trkpt lat="47.11425" lon="-1.7423">
        <ele>5.6</ele>
        <time>2020-03-11T10:35:53Z</time>
      </trkpt>
      <trkpt lat="47.11434" lon="-1.74334">
        <ele>8.2</ele>
        <time>2020-03-11T10:35:53Z</time>
      </trkpt>
      <trkpt lat="47.11415" lon="-1.74392">
        <ele>6.9</ele>
        <time>2020-03-11T10:35:53Z</time>
      </trkpt>
      <trkpt lat="47.11406" lon="-1.74437">
        <ele>7.1</ele>
        <time>2020-03-11T10:35:53Z</time>
      </trkpt>
      <trkpt lat="47.11397" lon="-1.74483">
        <ele>7.4</ele>
        <time>2020-03-11T10:35:53Z</time>
      </trkpt>
      <trkpt lat="47.11384" lon="-1.74552">
        <ele>6.8</ele>
        <time>2020-03-11T10:35:53Z</time>
      </trkpt>
      <trkpt lat="47.11377" lon="-1.74641">
        <ele>6.7</ele>
        <time>2020-03-11T10:35:53Z</time>
      </trkpt>
      <trkpt lat="47.11372" lon="-1.74708">
        <ele>5.8</ele>
        <time>2020-03-11T10:35:53Z</time>
      </trkpt>
      <trkpt lat="47.11354" lon="-1.74868">
        <ele>6.1</ele>
        <time>2020-03-11T10:35:53Z</time>
      </trkpt>
      <trkpt lat="47.11363" lon="-1.74983">
        <ele>8.4</ele>
        <time>2020-03-11T10:35:53Z</time>
      </trkpt>
      <trkpt lat="47.11366" lon="-1.75017">
        <ele>9.6</ele>
        <time>2020-03-11T10:35:53Z</time>
      </trkpt>
      <trkpt lat="47.11352" lon="-1.75088">
        <ele>10.4</ele>
        <time>2020-03-11T10:35:53Z</time>
      </trkpt>
      <trkpt lat="47.11331" lon="-1.75158">
        <ele>11</ele>
        <time>2020-03-11T10:35:53Z</time>
      </trkpt>
      <trkpt lat="47.11313" lon="-1.75258">
        <ele>11.3</ele>
        <time>2020-03-11T10:35:53Z</time>
      </trkpt>
      <trkpt lat="47.11303" lon="-1.75313">
        <ele>11</ele>
        <time>2020-03-11T10:35:53Z</time>
      </trkpt>
      <trkpt lat="47.11274" lon="-1.75383">
        <ele>10.2</ele>
        <time>2020-03-11T10:35:53Z</time>
      </trkpt>
      <trkpt lat="47.11236" lon="-1.75457">
        <ele>8.5</ele>
        <time>2020-03-11T10:35:53Z</time>
      </trkpt>
      <trkpt lat="47.11196" lon="-1.75517">
        <ele>6.4</ele>
        <time>2020-03-11T10:35:53Z</time>
      </trkpt>
      <trkpt lat="47.11153" lon="-1.75538">
        <ele>5.8</ele>
        <time>2020-03-11T10:35:53Z</time>
      </trkpt>
      <trkpt lat="47.11137" lon="-1.75554">
        <ele>5.1</ele>
        <time>2020-03-11T10:35:53Z</time>
      </trkpt>
      <trkpt lat="47.11124" lon="-1.75578">
        <ele>5.8</ele>
        <time>2020-03-11T10:35:53Z</time>
      </trkpt>
      <trkpt lat="47.1109" lon="-1.75707">
        <ele>9.9</ele>
        <time>2020-03-11T10:35:53Z</time>
      </trkpt>
      <trkpt lat="47.1106" lon="-1.75766">
        <ele>10</ele>
        <time>2020-03-11T10:35:53Z</time>
      </trkpt>
      <trkpt lat="47.11017" lon="-1.75823">
        <ele>9.6</ele>
        <time>2020-03-11T10:35:53Z</time>
      </trkpt>
      <trkpt lat="47.10966" lon="-1.75859">
        <ele>9.9</ele>
        <time>2020-03-11T10:35:53Z</time>
      </trkpt>
      <trkpt lat="47.1091" lon="-1.75868">
        <ele>10</ele>
        <time>2020-03-11T10:35:53Z</time>
      </trkpt>
      <trkpt lat="47.1087" lon="-1.75904">
        <ele>9.7</ele>
        <time>2020-03-11T10:35:53Z</time>
      </trkpt>
      <trkpt lat="47.10847" lon="-1.75975">
        <ele>9.5</ele>
        <time>2020-03-11T10:35:53Z</time>
      </trkpt>
      <trkpt lat="47.10824" lon="-1.76141">
        <ele>10.7</ele>
        <time>2020-03-11T10:35:53Z</time>
      </trkpt>
      <trkpt lat="47.10808" lon="-1.76222">
        <ele>11</ele>
        <time>2020-03-11T10:35:53Z</time>
      </trkpt>
      <trkpt lat="47.10774" lon="-1.76397">
        <ele>9</ele>
        <time>2020-03-11T10:35:53Z</time>
      </trkpt>
      <trkpt lat="47.10765" lon="-1.76455">
        <ele>9.7</ele>
        <time>2020-03-11T10:35:53Z</time>
      </trkpt>
      <trkpt lat="47.10752" lon="-1.76523">
        <ele>10.2</ele>
        <time>2020-03-11T10:35:53Z</time>
      </trkpt>
      <trkpt lat="47.10735" lon="-1.76595">
        <ele>9.8</ele>
        <time>2020-03-11T10:35:53Z</time>
      </trkpt>
      <trkpt lat="47.10646" lon="-1.7685">
        <ele>5.7</ele>
        <time>2020-03-11T10:35:53Z</time>
      </trkpt>
      <trkpt lat="47.1063" lon="-1.76875">
        <ele>5.5</ele>
        <time>2020-03-11T10:35:53Z</time>
      </trkpt>
      <trkpt lat="47.10598" lon="-1.76907">
        <ele>5.7</ele>
        <time>2020-03-11T10:35:53Z</time>
      </trkpt>
      <trkpt lat="47.10574" lon="-1.76932">
        <ele>6.3</ele>
        <time>2020-03-11T10:35:53Z</time>
      </trkpt>
      <trkpt lat="47.10557" lon="-1.76958">
        <ele>7</ele>
        <time>2020-03-11T10:35:53Z</time>
      </trkpt>
      <trkpt lat="47.10463" lon="-1.77164">
        <ele>8.6</ele>
        <time>2020-03-11T10:35:53Z</time>
      </trkpt>
      <trkpt lat="47.10448" lon="-1.77204">
        <ele>9</ele>
        <time>2020-03-11T10:35:53Z</time>
      </trkpt>
      <trkpt lat="47.10439" lon="-1.77242">
        <ele>9.6</ele>
        <time>2020-03-11T10:35:53Z</time>
      </trkpt>
      <trkpt lat="47.10418" lon="-1.77393">
        <ele>10</ele>
        <time>2020-03-11T10:35:53Z</time>
      </trkpt>
      <trkpt lat="47.10407" lon="-1.77422">
        <ele>10</ele>
        <time>2020-03-11T10:35:53Z</time>
      </trkpt>
      <trkpt lat="47.10388" lon="-1.7744">
        <ele>10</ele>
        <time>2020-03-11T10:35:53Z</time>
      </trkpt>
      <trkpt lat="47.10377" lon="-1.77461">
        <ele>9.3</ele>
        <time>2020-03-11T10:35:53Z</time>
      </trkpt>
      <trkpt lat="47.10393" lon="-1.77654">
        <ele>8.1</ele>
        <time>2020-03-11T10:35:53Z</time>
      </trkpt>
      <trkpt lat="47.10396" lon="-1.77724">
        <ele>8.6</ele>
        <time>2020-03-11T10:35:53Z</time>
      </trkpt>
      <trkpt lat="47.10397" lon="-1.77782">
        <ele>10.2</ele>
        <time>2020-03-11T10:35:53Z</time>
      </trkpt>
      <trkpt lat="47.10395" lon="-1.77845">
        <ele>11.2</ele>
        <time>2020-03-11T10:35:53Z</time>
      </trkpt>
      <trkpt lat="47.10382" lon="-1.77931">
        <ele>12.4</ele>
        <time>2020-03-11T10:35:53Z</time>
      </trkpt>
      <trkpt lat="47.10367" lon="-1.77975">
        <ele>13.3</ele>
        <time>2020-03-11T10:35:53Z</time>
      </trkpt>
      <trkpt lat="47.10359" lon="-1.78008">
        <ele>14.3</ele>
        <time>2020-03-11T10:35:53Z</time>
      </trkpt>
      <trkpt lat="47.10351" lon="-1.78047">
        <ele>15.4</ele>
        <time>2020-03-11T10:35:53Z</time>
      </trkpt>
      <trkpt lat="47.10347" lon="-1.78075">
        <ele>15.8</ele>
        <time>2020-03-11T10:35:53Z</time>
      </trkpt>
      <trkpt lat="47.10345" lon="-1.78111">
        <ele>16.4</ele>
        <time>2020-03-11T10:35:53Z</time>
      </trkpt>
      <trkpt lat="47.10342" lon="-1.78148">
        <ele>17</ele>
        <time>2020-03-11T10:35:53Z</time>
      </trkpt>
      <trkpt lat="47.10335" lon="-1.78202">
        <ele>16.7</ele>
        <time>2020-03-11T10:35:53Z</time>
      </trkpt>
      <trkpt lat="47.10333" lon="-1.78238">
        <ele>15.4</ele>
        <time>2020-03-11T10:35:53Z</time>
      </trkpt>
      <trkpt lat="47.10332" lon="-1.78283">
        <ele>13.9</ele>
        <time>2020-03-11T10:35:53Z</time>
      </trkpt>
      <trkpt lat="47.10331" lon="-1.78368">
        <ele>9.7</ele>
        <time>2020-03-11T10:35:53Z</time>
      </trkpt>
      <trkpt lat="47.10316" lon="-1.78465">
        <ele>5.8</ele>
        <time>2020-03-11T10:35:53Z</time>
      </trkpt>
      <trkpt lat="47.10309" lon="-1.78515">
        <ele>5.7</ele>
        <time>2020-03-11T10:35:53Z</time>
      </trkpt>
      <trkpt lat="47.10305" lon="-1.78574">
        <ele>5.7</ele>
        <time>2020-03-11T10:35:53Z</time>
      </trkpt>
      <trkpt lat="47.10303" lon="-1.78681">
        <ele>9.7</ele>
        <time>2020-03-11T10:35:53Z</time>
      </trkpt>
      <trkpt lat="47.10301" lon="-1.78722">
        <ele>11.3</ele>
        <time>2020-03-11T10:35:53Z</time>
      </trkpt>
      <trkpt lat="47.10294" lon="-1.78773">
        <ele>14.3</ele>
        <time>2020-03-11T10:35:53Z</time>
      </trkpt>
      <trkpt lat="47.10239" lon="-1.78922">
        <ele>14.6</ele>
        <time>2020-03-11T10:35:53Z</time>
      </trkpt>
      <trkpt lat="47.10242" lon="-1.78986">
        <ele>14.6</ele>
        <time>2020-03-11T10:35:53Z</time>
      </trkpt>
      <trkpt lat="47.10339" lon="-1.79112">
        <ele>15</ele>
        <time>2020-03-11T10:35:53Z</time>
      </trkpt>
      <trkpt lat="47.10292" lon="-1.79146">
        <ele>14.6</ele>
        <time>2020-03-11T10:35:53Z</time>
      </trkpt>
      <trkpt lat="47.10253" lon="-1.79175">
        <ele>14.1</ele>
        <time>2020-03-11T10:35:53Z</time>
      </trkpt>
      <trkpt lat="47.10209" lon="-1.79212">
        <ele>14.8</ele>
        <time>2020-03-11T10:35:53Z</time>
      </trkpt>
      <trkpt lat="47.10189" lon="-1.7923">
        <ele>14.9</ele>
        <time>2020-03-11T10:35:53Z</time>
      </trkpt>
      <trkpt lat="47.10172" lon="-1.79244">
        <ele>14.8</ele>
        <time>2020-03-11T10:35:53Z</time>
      </trkpt>
      <trkpt lat="47.10156" lon="-1.7926">
        <ele>14.8</ele>
        <time>2020-03-11T10:35:53Z</time>
      </trkpt>
      <trkpt lat="47.1014" lon="-1.79277">
        <ele>15</ele>
        <time>2020-03-11T10:35:53Z</time>
      </trkpt>
      <trkpt lat="47.10106" lon="-1.79323">
        <ele>13.8</ele>
        <time>2020-03-11T10:35:53Z</time>
      </trkpt>
      <trkpt lat="47.10084" lon="-1.79354">
        <ele>13</ele>
        <time>2020-03-11T10:35:53Z</time>
      </trkpt>
      <trkpt lat="47.10063" lon="-1.79382">
        <ele>11</ele>
        <time>2020-03-11T10:35:53Z</time>
      </trkpt>
      <trkpt lat="47.10017" lon="-1.79442">
        <ele>8.5</ele>
        <time>2020-03-11T10:35:53Z</time>
      </trkpt>
      <trkpt lat="47.09959" lon="-1.79501">
        <ele>8.1</ele>
        <time>2020-03-11T10:35:53Z</time>
      </trkpt>
      <trkpt lat="47.09927" lon="-1.7953">
        <ele>7.5</ele>
        <time>2020-03-11T10:35:53Z</time>
      </trkpt>
      <trkpt lat="47.09904" lon="-1.79549">
        <ele>6.9</ele>
        <time>2020-03-11T10:35:53Z</time>
      </trkpt>
      <trkpt lat="47.09881" lon="-1.79559">
        <ele>6.2</ele>
        <time>2020-03-11T10:35:53Z</time>
      </trkpt>
      <trkpt lat="47.09893" lon="-1.79626">
        <ele>9.6</ele>
        <time>2020-03-11T10:35:53Z</time>
      </trkpt>
      <trkpt lat="47.09914" lon="-1.79695">
        <ele>12</ele>
        <time>2020-03-11T10:35:53Z</time>
      </trkpt>
      <trkpt lat="47.09915" lon="-1.79723">
        <ele>12</ele>
        <time>2020-03-11T10:35:53Z</time>
      </trkpt>
      <trkpt lat="47.09988" lon="-1.79937">
        <ele>15.7</ele>
        <time>2020-03-11T10:35:53Z</time>
      </trkpt>
      <trkpt lat="47.10002" lon="-1.79964">
        <ele>16.1</ele>
        <time>2020-03-11T10:35:53Z</time>
      </trkpt>
      <trkpt lat="47.09994" lon="-1.79998">
        <ele>15.8</ele>
        <time>2020-03-11T10:35:53Z</time>
      </trkpt>
      <trkpt lat="47.10002" lon="-1.80024">
        <ele>16.1</ele>
        <time>2020-03-11T10:35:53Z</time>
      </trkpt>
      <trkpt lat="47.10017" lon="-1.80164">
        <ele>11.4</ele>
        <time>2020-03-11T10:35:53Z</time>
      </trkpt>
      <trkpt lat="47.10025" lon="-1.80204">
        <ele>10.5</ele>
        <time>2020-03-11T10:35:53Z</time>
      </trkpt>
      <trkpt lat="47.1006" lon="-1.80254">
        <ele>11.2</ele>
        <time>2020-03-11T10:35:53Z</time>
      </trkpt>
      <trkpt lat="47.10071" lon="-1.80284">
        <ele>11.1</ele>
        <time>2020-03-11T10:35:53Z</time>
      </trkpt>
      <trkpt lat="47.10067" lon="-1.80322">
        <ele>10.8</ele>
        <time>2020-03-11T10:35:53Z</time>
      </trkpt>
      <trkpt lat="47.10068" lon="-1.80363">
        <ele>10.9</ele>
        <time>2020-03-11T10:35:53Z</time>
      </trkpt>
      <trkpt lat="47.10111" lon="-1.80492">
        <ele>11.3</ele>
        <time>2020-03-11T10:35:53Z</time>
      </trkpt>
      <trkpt lat="47.10126" lon="-1.8051">
        <ele>11.5</ele>
        <time>2020-03-11T10:35:53Z</time>
      </trkpt>
      <trkpt lat="47.10157" lon="-1.8049">
        <ele>12.6</ele>
        <time>2020-03-11T10:35:53Z</time>
      </trkpt>
      <trkpt lat="47.10172" lon="-1.80533">
        <ele>13.2</ele>
        <time>2020-03-11T10:35:53Z</time>
      </trkpt>
      <trkpt lat="47.10175" lon="-1.80575">
        <ele>13.5</ele>
        <time>2020-03-11T10:35:53Z</time>
      </trkpt>
      <trkpt lat="47.10178" lon="-1.80605">
        <ele>13.8</ele>
        <time>2020-03-11T10:35:53Z</time>
      </trkpt>
      <trkpt lat="47.10191" lon="-1.80642">
        <ele>14</ele>
        <time>2020-03-11T10:35:53Z</time>
      </trkpt>
      <trkpt lat="47.102" lon="-1.80672">
        <ele>14.2</ele>
        <time>2020-03-11T10:35:53Z</time>
      </trkpt>
      <trkpt lat="47.1021" lon="-1.80716">
        <ele>14.1</ele>
        <time>2020-03-11T10:35:53Z</time>
      </trkpt>
      <trkpt lat="47.10212" lon="-1.80757">
        <ele>12.9</ele>
        <time>2020-03-11T10:35:53Z</time>
      </trkpt>
      <trkpt lat="47.10208" lon="-1.80788">
        <ele>12.1</ele>
        <time>2020-03-11T10:35:53Z</time>
      </trkpt>
      <trkpt lat="47.10233" lon="-1.80797">
        <ele>12.3</ele>
        <time>2020-03-11T10:35:53Z</time>
      </trkpt>
      <trkpt lat="47.10246" lon="-1.80841">
        <ele>10.7</ele>
        <time>2020-03-11T10:35:53Z</time>
      </trkpt>
      <trkpt lat="47.10259" lon="-1.8086">
        <ele>10</ele>
        <time>2020-03-11T10:35:53Z</time>
      </trkpt>
      <trkpt lat="47.10356" lon="-1.80853">
        <ele>11.9</ele>
        <time>2020-03-11T10:35:53Z</time>
      </trkpt>
      <trkpt lat="47.10357" lon="-1.80888">
        <ele>12</ele>
        <time>2020-03-11T10:35:53Z</time>
      </trkpt>
      <trkpt lat="47.10363" lon="-1.80931">
        <ele>13.5</ele>
        <time>2020-03-11T10:35:53Z</time>
      </trkpt>
      <trkpt lat="47.10372" lon="-1.80969">
        <ele>14.3</ele>
        <time>2020-03-11T10:35:53Z</time>
      </trkpt>
      <trkpt lat="47.10373" lon="-1.81001">
        <ele>14.5</ele>
        <time>2020-03-11T10:35:53Z</time>
      </trkpt>
      <trkpt lat="47.10358" lon="-1.81042">
        <ele>15.4</ele>
        <time>2020-03-11T10:35:53Z</time>
      </trkpt>
      <trkpt lat="47.10321" lon="-1.81088">
        <ele>15.1</ele>
        <time>2020-03-11T10:35:53Z</time>
      </trkpt>
      <trkpt lat="47.10382" lon="-1.81185">
        <ele>17</ele>
        <time>2020-03-11T10:35:53Z</time>
      </trkpt>
      <trkpt lat="47.10368" lon="-1.81209">
        <ele>17</ele>
        <time>2020-03-11T10:35:53Z</time>
      </trkpt>
      <trkpt lat="47.10328" lon="-1.81283">
        <ele>15.2</ele>
        <time>2020-03-11T10:35:53Z</time>
      </trkpt>
      <trkpt lat="47.10273" lon="-1.81399">
        <ele>12.8</ele>
        <time>2020-03-11T10:35:53Z</time>
      </trkpt>
      <trkpt lat="47.10263" lon="-1.81442">
        <ele>12.5</ele>
        <time>2020-03-11T10:35:53Z</time>
      </trkpt>
      <trkpt lat="47.10261" lon="-1.81484">
        <ele>13</ele>
        <time>2020-03-11T10:35:53Z</time>
      </trkpt>
      <trkpt lat="47.10259" lon="-1.81515">
        <ele>13</ele>
        <time>2020-03-11T10:35:53Z</time>
      </trkpt>
      <trkpt lat="47.10225" lon="-1.81516">
        <ele>13.5</ele>
        <time>2020-03-11T10:35:53Z</time>
      </trkpt>
      <trkpt lat="47.10192" lon="-1.81521">
        <ele>13.7</ele>
        <time>2020-03-11T10:35:53Z</time>
      </trkpt>
      <trkpt lat="47.10162" lon="-1.81548">
        <ele>13</ele>
        <time>2020-03-11T10:35:53Z</time>
      </trkpt>
      <trkpt lat="47.10127" lon="-1.81569">
        <ele>13</ele>
        <time>2020-03-11T10:35:53Z</time>
      </trkpt>
      <trkpt lat="47.10098" lon="-1.81586">
        <ele>13.5</ele>
        <time>2020-03-11T10:35:53Z</time>
      </trkpt>
      <trkpt lat="47.10073" lon="-1.81602">
        <ele>14</ele>
        <time>2020-03-11T10:35:53Z</time>
      </trkpt>
      <trkpt lat="47.10051" lon="-1.8162">
        <ele>14.2</ele>
        <time>2020-03-11T10:35:53Z</time>
      </trkpt>
      <trkpt lat="47.10025" lon="-1.81645">
        <ele>15.1</ele>
        <time>2020-03-11T10:35:53Z</time>
      </trkpt>
      <trkpt lat="47.10054" lon="-1.81705">
        <ele>15</ele>
        <time>2020-03-11T10:35:53Z</time>
      </trkpt>
      <trkpt lat="47.10071" lon="-1.81737">
        <ele>14.7</ele>
        <time>2020-03-11T10:35:53Z</time>
      </trkpt>
      <trkpt lat="47.10086" lon="-1.8177">
        <ele>14.9</ele>
        <time>2020-03-11T10:35:53Z</time>
      </trkpt>
      <trkpt lat="47.10086" lon="-1.81802">
        <ele>14.9</ele>
        <time>2020-03-11T10:35:53Z</time>
      </trkpt>
      <trkpt lat="47.10074" lon="-1.81843">
        <ele>15.3</ele>
        <time>2020-03-11T10:35:53Z</time>
      </trkpt>
      <trkpt lat="47.10128" lon="-1.8192">
        <ele>15.7</ele>
        <time>2020-03-11T10:35:53Z</time>
      </trkpt>
      <trkpt lat="47.10155" lon="-1.81959">
        <ele>16</ele>
        <time>2020-03-11T10:35:53Z</time>
      </trkpt>
      <trkpt lat="47.10197" lon="-1.8199">
        <ele>16.7</ele>
        <time>2020-03-11T10:35:53Z</time>
      </trkpt>
      <trkpt lat="47.10187" lon="-1.82047">
        <ele>17</ele>
        <time>2020-03-11T10:35:53Z</time>
      </trkpt>
      <trkpt lat="47.10176" lon="-1.82114">
        <ele>18</ele>
        <time>2020-03-11T10:35:53Z</time>
      </trkpt>
      <trkpt lat="47.10171" lon="-1.8215">
        <ele>18.1</ele>
        <time>2020-03-11T10:35:53Z</time>
      </trkpt>
      <trkpt lat="47.10166" lon="-1.82203">
        <ele>18</ele>
        <time>2020-03-11T10:35:53Z</time>
      </trkpt>
      <trkpt lat="47.10163" lon="-1.82277">
        <ele>19</ele>
        <time>2020-03-11T10:35:53Z</time>
      </trkpt>
      <trkpt lat="47.10162" lon="-1.82335">
        <ele>19.2</ele>
        <time>2020-03-11T10:35:53Z</time>
      </trkpt>
      <trkpt lat="47.1016" lon="-1.82415">
        <ele>20</ele>
        <time>2020-03-11T10:35:53Z</time>
      </trkpt>
      <trkpt lat="47.10163" lon="-1.82494">
        <ele>21</ele>
        <time>2020-03-11T10:35:53Z</time>
      </trkpt>
      <trkpt lat="47.1017" lon="-1.82567">
        <ele>22</ele>
        <time>2020-03-11T10:35:53Z</time>
      </trkpt>
      <trkpt lat="47.10176" lon="-1.82633">
        <ele>23</ele>
        <time>2020-03-11T10:35:53Z</time>
      </trkpt>
      <trkpt lat="47.10177" lon="-1.82694">
        <ele>24</ele>
        <time>2020-03-11T10:35:53Z</time>
      </trkpt>
      <trkpt lat="47.10169" lon="-1.82804">
        <ele>23</ele>
        <time>2020-03-11T10:35:53Z</time>
      </trkpt>
      <trkpt lat="47.10165" lon="-1.82875">
        <ele>21.5</ele>
        <time>2020-03-11T10:35:53Z</time>
      </trkpt>
      <trkpt lat="47.10162" lon="-1.82913">
        <ele>21</ele>
        <time>2020-03-11T10:35:53Z</time>
      </trkpt>
      <trkpt lat="47.10157" lon="-1.82941">
        <ele>20.1</ele>
        <time>2020-03-11T10:35:53Z</time>
      </trkpt>
      <trkpt lat="47.1015" lon="-1.82968">
        <ele>19.2</ele>
        <time>2020-03-11T10:35:53Z</time>
      </trkpt>
      <trkpt lat="47.10138" lon="-1.83003">
        <ele>17.9</ele>
        <time>2020-03-11T10:35:53Z</time>
      </trkpt>
      <trkpt lat="47.10116" lon="-1.83053">
        <ele>16.3</ele>
        <time>2020-03-11T10:35:53Z</time>
      </trkpt>
      <trkpt lat="47.10101" lon="-1.83083">
        <ele>16</ele>
        <time>2020-03-11T10:35:53Z</time>
      </trkpt>
      <trkpt lat="47.10081" lon="-1.83111">
        <ele>15.9</ele>
        <time>2020-03-11T10:35:53Z</time>
      </trkpt>
      <trkpt lat="47.10062" lon="-1.83116">
        <ele>15.2</ele>
        <time>2020-03-11T10:35:53Z</time>
      </trkpt>
      <trkpt lat="47.09988" lon="-1.83136">
        <ele>15</ele>
        <time>2020-03-11T10:35:53Z</time>
      </trkpt>
      <trkpt lat="47.0996" lon="-1.83151">
        <ele>14.6</ele>
        <time>2020-03-11T10:35:53Z</time>
      </trkpt>
      <trkpt lat="47.09917" lon="-1.83169">
        <ele>15</ele>
        <time>2020-03-11T10:35:53Z</time>
      </trkpt>
      <trkpt lat="47.09878" lon="-1.8318">
        <ele>15.4</ele>
        <time>2020-03-11T10:35:53Z</time>
      </trkpt>
      <trkpt lat="47.09882" lon="-1.83238">
        <ele>14.6</ele>
        <time>2020-03-11T10:35:53Z</time>
      </trkpt>
      <trkpt lat="47.09881" lon="-1.83279">
        <ele>14</ele>
        <time>2020-03-11T10:35:53Z</time>
      </trkpt>
      <trkpt lat="47.09876" lon="-1.83322">
        <ele>13.7</ele>
        <time>2020-03-11T10:35:53Z</time>
      </trkpt>
      <trkpt lat="47.0981" lon="-1.83344">
        <ele>15.5</ele>
        <time>2020-03-11T10:35:53Z</time>
      </trkpt>
      <trkpt lat="47.09781" lon="-1.83335">
        <ele>15.9</ele>
        <time>2020-03-11T10:35:53Z</time>
      </trkpt>
      <trkpt lat="47.09764" lon="-1.83292">
        <ele>16</ele>
        <time>2020-03-11T10:35:53Z</time>
      </trkpt>
      <trkpt lat="47.0975" lon="-1.83248">
        <ele>16.1</ele>
        <time>2020-03-11T10:35:53Z</time>
      </trkpt>
      <trkpt lat="47.09726" lon="-1.83196">
        <ele>17</ele>
        <time>2020-03-11T10:35:53Z</time>
      </trkpt>
      <trkpt lat="47.09698" lon="-1.83203">
        <ele>17.8</ele>
        <time>2020-03-11T10:35:53Z</time>
      </trkpt>
      <trkpt lat="47.09649" lon="-1.83217">
        <ele>18</ele>
        <time>2020-03-11T10:35:53Z</time>
      </trkpt>
      <trkpt lat="47.09603" lon="-1.83253">
        <ele>18</ele>
        <time>2020-03-11T10:35:53Z</time>
      </trkpt>
      <trkpt lat="47.09545" lon="-1.8333">
        <ele>18</ele>
        <time>2020-03-11T10:35:53Z</time>
      </trkpt>
      <trkpt lat="47.0951" lon="-1.83389">
        <ele>18</ele>
        <time>2020-03-11T10:35:53Z</time>
      </trkpt>
      <trkpt lat="47.09431" lon="-1.83531">
        <ele>17.6</ele>
        <time>2020-03-11T10:35:53Z</time>
      </trkpt>
      <trkpt lat="47.09411" lon="-1.83553">
        <ele>17.7</ele>
        <time>2020-03-11T10:35:53Z</time>
      </trkpt>
      <trkpt lat="47.09392" lon="-1.83562">
        <ele>17.1</ele>
        <time>2020-03-11T10:35:53Z</time>
      </trkpt>
      <trkpt lat="47.09317" lon="-1.83601">
        <ele>16.4</ele>
        <time>2020-03-11T10:35:53Z</time>
      </trkpt>
      <trkpt lat="47.09289" lon="-1.83606">
        <ele>15.5</ele>
        <time>2020-03-11T10:35:53Z</time>
      </trkpt>
      <trkpt lat="47.0926" lon="-1.83605">
        <ele>15.1</ele>
        <time>2020-03-11T10:35:53Z</time>
      </trkpt>
      <trkpt lat="47.09238" lon="-1.83598">
        <ele>14.8</ele>
        <time>2020-03-11T10:35:53Z</time>
      </trkpt>
      <trkpt lat="47.09211" lon="-1.83589">
        <ele>14.1</ele>
        <time>2020-03-11T10:35:53Z</time>
      </trkpt>
      <trkpt lat="47.09193" lon="-1.83572">
        <ele>14</ele>
        <time>2020-03-11T10:35:53Z</time>
      </trkpt>
      <trkpt lat="47.09181" lon="-1.83548">
        <ele>14</ele>
        <time>2020-03-11T10:35:53Z</time>
      </trkpt>
      <trkpt lat="47.09134" lon="-1.83434">
        <ele>14</ele>
        <time>2020-03-11T10:35:53Z</time>
      </trkpt>
      <trkpt lat="47.09124" lon="-1.83412">
        <ele>14</ele>
        <time>2020-03-11T10:35:53Z</time>
      </trkpt>
      <trkpt lat="47.09026" lon="-1.83514">
        <ele>13</ele>
        <time>2020-03-11T10:35:53Z</time>
      </trkpt>
      <trkpt lat="47.09003" lon="-1.83512">
        <ele>13</ele>
        <time>2020-03-11T10:35:53Z</time>
      </trkpt>
      <trkpt lat="47.08971" lon="-1.83499">
        <ele>12</ele>
        <time>2020-03-11T10:35:53Z</time>
      </trkpt>
      <trkpt lat="47.08626" lon="-1.83736">
        <ele>9.2</ele>
        <time>2020-03-11T10:35:53Z</time>
      </trkpt>
      <trkpt lat="47.0861" lon="-1.83749">
        <ele>10</ele>
        <time>2020-03-11T10:35:53Z</time>
      </trkpt>
      <trkpt lat="47.08576" lon="-1.83783">
        <ele>10.2</ele>
        <time>2020-03-11T10:35:53Z</time>
      </trkpt>
      <trkpt lat="47.08547" lon="-1.83817">
        <ele>10.6</ele>
        <time>2020-03-11T10:35:53Z</time>
      </trkpt>
      <trkpt lat="47.08511" lon="-1.83864">
        <ele>11</ele>
        <time>2020-03-11T10:35:53Z</time>
      </trkpt>
      <trkpt lat="47.08488" lon="-1.83893">
        <ele>11</ele>
        <time>2020-03-11T10:35:53Z</time>
      </trkpt>
      <trkpt lat="47.08471" lon="-1.83928">
        <ele>11</ele>
        <time>2020-03-11T10:35:53Z</time>
      </trkpt>
      <trkpt lat="47.08462" lon="-1.83957">
        <ele>11</ele>
        <time>2020-03-11T10:35:53Z</time>
      </trkpt>
      <trkpt lat="47.08449" lon="-1.83994">
        <ele>11</ele>
        <time>2020-03-11T10:35:53Z</time>
      </trkpt>
      <trkpt lat="47.08433" lon="-1.84024">
        <ele>11</ele>
        <time>2020-03-11T10:35:53Z</time>
      </trkpt>
      <trkpt lat="47.08418" lon="-1.84042">
        <ele>11</ele>
        <time>2020-03-11T10:35:53Z</time>
      </trkpt>
      <trkpt lat="47.08394" lon="-1.84061">
        <ele>11.8</ele>
        <time>2020-03-11T10:35:53Z</time>
      </trkpt>
      <trkpt lat="47.0819" lon="-1.8421">
        <ele>14</ele>
        <time>2020-03-11T10:35:53Z</time>
      </trkpt>
      <trkpt lat="47.08171" lon="-1.84225">
        <ele>14</ele>
        <time>2020-03-11T10:35:53Z</time>
      </trkpt>
      <trkpt lat="47.08042" lon="-1.8436">
        <ele>17.5</ele>
        <time>2020-03-11T10:35:53Z</time>
      </trkpt>
      <trkpt lat="47.07939" lon="-1.84474">
        <ele>22.2</ele>
        <time>2020-03-11T10:35:53Z</time>
      </trkpt>
      <trkpt lat="47.07827" lon="-1.84592">
        <ele>25</ele>
        <time>2020-03-11T10:35:53Z</time>
      </trkpt>
      <trkpt lat="47.0781" lon="-1.84602">
        <ele>25</ele>
        <time>2020-03-11T10:35:53Z</time>
      </trkpt>
      <trkpt lat="47.07782" lon="-1.84611">
        <ele>25.8</ele>
        <time>2020-03-11T10:35:53Z</time>
      </trkpt>
      <trkpt lat="47.07763" lon="-1.84612">
        <ele>26</ele>
        <time>2020-03-11T10:35:53Z</time>
      </trkpt>
      <trkpt lat="47.07738" lon="-1.84616">
        <ele>26</ele>
        <time>2020-03-11T10:35:53Z</time>
      </trkpt>
      <trkpt lat="47.07715" lon="-1.84626">
        <ele>26</ele>
        <time>2020-03-11T10:35:53Z</time>
      </trkpt>
      <trkpt lat="47.07698" lon="-1.84638">
        <ele>26</ele>
        <time>2020-03-11T10:35:53Z</time>
      </trkpt>
      <trkpt lat="47.07661" lon="-1.84675">
        <ele>27</ele>
        <time>2020-03-11T10:35:53Z</time>
      </trkpt>
      <trkpt lat="47.07638" lon="-1.84698">
        <ele>27</ele>
        <time>2020-03-11T10:35:53Z</time>
      </trkpt>
      <trkpt lat="47.07612" lon="-1.84728">
        <ele>27.2</ele>
        <time>2020-03-11T10:35:53Z</time>
      </trkpt>
      <trkpt lat="47.07582" lon="-1.84772">
        <ele>28</ele>
        <time>2020-03-11T10:35:53Z</time>
      </trkpt>
      <trkpt lat="47.07531" lon="-1.84863">
        <ele>29</ele>
        <time>2020-03-11T10:35:53Z</time>
      </trkpt>
      <trkpt lat="47.07498" lon="-1.84901">
        <ele>29</ele>
        <time>2020-03-11T10:35:53Z</time>
      </trkpt>
      <trkpt lat="47.07377" lon="-1.85019">
        <ele>28.9</ele>
        <time>2020-03-11T10:35:53Z</time>
      </trkpt>
      <trkpt lat="47.0736" lon="-1.85034">
        <ele>29</ele>
        <time>2020-03-11T10:35:53Z</time>
      </trkpt>
      <trkpt lat="47.07331" lon="-1.85051">
        <ele>28.8</ele>
        <time>2020-03-11T10:35:53Z</time>
      </trkpt>
      <trkpt lat="47.07312" lon="-1.85061">
        <ele>28.4</ele>
        <time>2020-03-11T10:35:53Z</time>
      </trkpt>
      <trkpt lat="47.07282" lon="-1.85076">
        <ele>28.7</ele>
        <time>2020-03-11T10:35:53Z</time>
      </trkpt>
      <trkpt lat="47.07244" lon="-1.85106">
        <ele>28</ele>
        <time>2020-03-11T10:35:53Z</time>
      </trkpt>
      <trkpt lat="47.07228" lon="-1.85119">
        <ele>28</ele>
        <time>2020-03-11T10:35:53Z</time>
      </trkpt>
      <trkpt lat="47.07195" lon="-1.85148">
        <ele>26.4</ele>
        <time>2020-03-11T10:35:53Z</time>
      </trkpt>
      <trkpt lat="47.07143" lon="-1.85192">
        <ele>23.4</ele>
        <time>2020-03-11T10:35:53Z</time>
      </trkpt>
      <trkpt lat="47.07126" lon="-1.85206">
        <ele>22.5</ele>
        <time>2020-03-11T10:35:53Z</time>
      </trkpt>
      <trkpt lat="47.07103" lon="-1.85222">
        <ele>22</ele>
        <time>2020-03-11T10:35:53Z</time>
      </trkpt>
      <trkpt lat="47.07044" lon="-1.85255">
        <ele>24.4</ele>
        <time>2020-03-11T10:35:53Z</time>
      </trkpt>
      <trkpt lat="47.06978" lon="-1.85294">
        <ele>26</ele>
        <time>2020-03-11T10:35:53Z</time>
      </trkpt>
      <trkpt lat="47.06939" lon="-1.85317">
        <ele>27</ele>
        <time>2020-03-11T10:35:53Z</time>
      </trkpt>
      <trkpt lat="47.0691" lon="-1.85338">
        <ele>27.4</ele>
        <time>2020-03-11T10:35:53Z</time>
      </trkpt>
      <trkpt lat="47.06884" lon="-1.85358">
        <ele>28</ele>
        <time>2020-03-11T10:35:53Z</time>
      </trkpt>
      <trkpt lat="47.06867" lon="-1.85372">
        <ele>28</ele>
        <time>2020-03-11T10:35:53Z</time>
      </trkpt>
      <trkpt lat="47.06842" lon="-1.85395">
        <ele>28.1</ele>
        <time>2020-03-11T10:35:53Z</time>
      </trkpt>
      <trkpt lat="47.06738" lon="-1.85496">
        <ele>25.9</ele>
        <time>2020-03-11T10:35:53Z</time>
      </trkpt>
      <trkpt lat="47.06718" lon="-1.85516">
        <ele>25.9</ele>
        <time>2020-03-11T10:35:53Z</time>
      </trkpt>
      <trkpt lat="47.06713" lon="-1.85548">
        <ele>26.5</ele>
        <time>2020-03-11T10:35:53Z</time>
      </trkpt>
      <trkpt lat="47.06697" lon="-1.8559">
        <ele>26.1</ele>
        <time>2020-03-11T10:35:53Z</time>
      </trkpt>
      <trkpt lat="47.06687" lon="-1.85616">
        <ele>25.9</ele>
        <time>2020-03-11T10:35:53Z</time>
      </trkpt>
      <trkpt lat="47.06674" lon="-1.85643">
        <ele>25.5</ele>
        <time>2020-03-11T10:35:53Z</time>
      </trkpt>
      <trkpt lat="47.06655" lon="-1.85675">
        <ele>24.9</ele>
        <time>2020-03-11T10:35:53Z</time>
      </trkpt>
      <trkpt lat="47.06642" lon="-1.85702">
        <ele>25.1</ele>
        <time>2020-03-11T10:35:53Z</time>
      </trkpt>
      <trkpt lat="47.06629" lon="-1.8574">
        <ele>24.2</ele>
        <time>2020-03-11T10:35:53Z</time>
      </trkpt>
      <trkpt lat="47.06619" lon="-1.85763">
        <ele>24</ele>
        <time>2020-03-11T10:35:53Z</time>
      </trkpt>
      <trkpt lat="47.06566" lon="-1.85854">
        <ele>23.2</ele>
        <time>2020-03-11T10:35:53Z</time>
      </trkpt>
      <trkpt lat="47.06554" lon="-1.85877">
        <ele>22.9</ele>
        <time>2020-03-11T10:35:53Z</time>
      </trkpt>
      <trkpt lat="47.0654" lon="-1.85909">
        <ele>22.8</ele>
        <time>2020-03-11T10:35:53Z</time>
      </trkpt>
      <trkpt lat="47.06537" lon="-1.85947">
        <ele>23</ele>
        <time>2020-03-11T10:35:53Z</time>
      </trkpt>
      <trkpt lat="47.06445" lon="-1.86089">
        <ele>22.2</ele>
        <time>2020-03-11T10:35:53Z</time>
      </trkpt>
      <trkpt lat="47.06415" lon="-1.86147">
        <ele>22</ele>
        <time>2020-03-11T10:35:53Z</time>
      </trkpt>
      <trkpt lat="47.06399" lon="-1.86174">
        <ele>22.7</ele>
        <time>2020-03-11T10:35:53Z</time>
      </trkpt>
      <trkpt lat="47.06382" lon="-1.86203">
        <ele>23</ele>
        <time>2020-03-11T10:35:53Z</time>
      </trkpt>
      <trkpt lat="47.06368" lon="-1.86224">
        <ele>23</ele>
        <time>2020-03-11T10:35:53Z</time>
      </trkpt>
      <trkpt lat="47.0635" lon="-1.86247">
        <ele>23.4</ele>
        <time>2020-03-11T10:35:53Z</time>
      </trkpt>
      <trkpt lat="47.06325" lon="-1.86269">
        <ele>24.8</ele>
        <time>2020-03-11T10:35:53Z</time>
      </trkpt>
      <trkpt lat="47.06294" lon="-1.86292">
        <ele>25.7</ele>
        <time>2020-03-11T10:35:53Z</time>
      </trkpt>
      <trkpt lat="47.06275" lon="-1.86314">
        <ele>26.4</ele>
        <time>2020-03-11T10:35:53Z</time>
      </trkpt>
      <trkpt lat="47.06258" lon="-1.86343">
        <ele>27</ele>
        <time>2020-03-11T10:35:53Z</time>
      </trkpt>
      <trkpt lat="47.06242" lon="-1.86368">
        <ele>27.4</ele>
        <time>2020-03-11T10:35:53Z</time>
      </trkpt>
      <trkpt lat="47.06215" lon="-1.86403">
        <ele>27.6</ele>
        <time>2020-03-11T10:35:53Z</time>
      </trkpt>
      <trkpt lat="47.06202" lon="-1.86436">
        <ele>28.7</ele>
        <time>2020-03-11T10:35:53Z</time>
      </trkpt>
      <trkpt lat="47.06202" lon="-1.86467">
        <ele>29</ele>
        <time>2020-03-11T10:35:53Z</time>
      </trkpt>
      <trkpt lat="47.06202" lon="-1.86534">
        <ele>29.7</ele>
        <time>2020-03-11T10:35:53Z</time>
      </trkpt>
      <trkpt lat="47.06197" lon="-1.86563">
        <ele>29.9</ele>
        <time>2020-03-11T10:35:53Z</time>
      </trkpt>
      <trkpt lat="47.06181" lon="-1.8659">
        <ele>30.1</ele>
        <time>2020-03-11T10:35:53Z</time>
      </trkpt>
      <trkpt lat="47.06124" lon="-1.86659">
        <ele>29.5</ele>
        <time>2020-03-11T10:35:53Z</time>
      </trkpt>
      <trkpt lat="47.06105" lon="-1.86681">
        <ele>29.3</ele>
        <time>2020-03-11T10:35:53Z</time>
      </trkpt>
      <trkpt lat="47.06072" lon="-1.86716">
        <ele>29.1</ele>
        <time>2020-03-11T10:35:53Z</time>
      </trkpt>
      <trkpt lat="47.06022" lon="-1.86768">
        <ele>28.6</ele>
        <time>2020-03-11T10:35:53Z</time>
      </trkpt>
      <trkpt lat="47.05975" lon="-1.86816">
        <ele>29</ele>
        <time>2020-03-11T10:35:53Z</time>
      </trkpt>
      <trkpt lat="47.05944" lon="-1.8684">
        <ele>29.2</ele>
        <time>2020-03-11T10:35:53Z</time>
      </trkpt>
      <trkpt lat="47.05916" lon="-1.86858">
        <ele>28.9</ele>
        <time>2020-03-11T10:35:53Z</time>
      </trkpt>
      <trkpt lat="47.05895" lon="-1.86873">
        <ele>28.6</ele>
        <time>2020-03-11T10:35:53Z</time>
      </trkpt>
      <trkpt lat="47.05875" lon="-1.86885">
        <ele>28.9</ele>
        <time>2020-03-11T10:35:53Z</time>
      </trkpt>
      <trkpt lat="47.05857" lon="-1.86894">
        <ele>28.9</ele>
        <time>2020-03-11T10:35:53Z</time>
      </trkpt>
      <trkpt lat="47.05832" lon="-1.86907">
        <ele>28.7</ele>
        <time>2020-03-11T10:35:53Z</time>
      </trkpt>
      <trkpt lat="47.0576" lon="-1.86941">
        <ele>29</ele>
        <time>2020-03-11T10:35:53Z</time>
      </trkpt>
      <trkpt lat="47.05678" lon="-1.8698">
        <ele>29.9</ele>
        <time>2020-03-11T10:35:53Z</time>
      </trkpt>
      <trkpt lat="47.0565" lon="-1.86994">
        <ele>30</ele>
        <time>2020-03-11T10:35:53Z</time>
      </trkpt>
      <trkpt lat="47.05633" lon="-1.87004">
        <ele>30</ele>
        <time>2020-03-11T10:35:53Z</time>
      </trkpt>
      <trkpt lat="47.05613" lon="-1.87019">
        <ele>30</ele>
        <time>2020-03-11T10:35:53Z</time>
      </trkpt>
      <trkpt lat="47.05584" lon="-1.87044">
        <ele>30.4</ele>
        <time>2020-03-11T10:35:53Z</time>
      </trkpt>
      <trkpt lat="47.05526" lon="-1.87098">
        <ele>31.5</ele>
        <time>2020-03-11T10:35:53Z</time>
      </trkpt>
      <trkpt lat="47.05492" lon="-1.87128">
        <ele>31.8</ele>
        <time>2020-03-11T10:35:53Z</time>
      </trkpt>
      <trkpt lat="47.05465" lon="-1.87148">
        <ele>32.5</ele>
        <time>2020-03-11T10:35:53Z</time>
      </trkpt>
      <trkpt lat="47.05429" lon="-1.87157">
        <ele>33</ele>
        <time>2020-03-11T10:35:53Z</time>
      </trkpt>
      <trkpt lat="47.05405" lon="-1.87169">
        <ele>32.6</ele>
        <time>2020-03-11T10:35:53Z</time>
      </trkpt>
      <trkpt lat="47.05385" lon="-1.87191">
        <ele>32.9</ele>
        <time>2020-03-11T10:35:53Z</time>
      </trkpt>
      <trkpt lat="47.05368" lon="-1.87202">
        <ele>33.3</ele>
        <time>2020-03-11T10:35:53Z</time>
      </trkpt>
      <trkpt lat="47.05299" lon="-1.8721">
        <ele>32.6</ele>
        <time>2020-03-11T10:35:53Z</time>
      </trkpt>
      <trkpt lat="47.05274" lon="-1.87205">
        <ele>32.4</ele>
        <time>2020-03-11T10:35:53Z</time>
      </trkpt>
      <trkpt lat="47.05259" lon="-1.8723">
        <ele>33.1</ele>
        <time>2020-03-11T10:35:53Z</time>
      </trkpt>
      <trkpt lat="47.05242" lon="-1.87242">
        <ele>33</ele>
        <time>2020-03-11T10:35:53Z</time>
      </trkpt>
      <trkpt lat="47.05191" lon="-1.87286">
        <ele>34</ele>
        <time>2020-03-11T10:35:53Z</time>
      </trkpt>
      <trkpt lat="47.05153" lon="-1.87319">
        <ele>34</ele>
        <time>2020-03-11T10:35:53Z</time>
      </trkpt>
      <trkpt lat="47.05115" lon="-1.87352">
        <ele>35</ele>
        <time>2020-03-11T10:35:53Z</time>
      </trkpt>
      <trkpt lat="47.05094" lon="-1.87371">
        <ele>35</ele>
        <time>2020-03-11T10:35:53Z</time>
      </trkpt>
      <trkpt lat="47.05064" lon="-1.87384">
        <ele>35</ele>
        <time>2020-03-11T10:35:53Z</time>
      </trkpt>
      <trkpt lat="47.05008" lon="-1.87401">
        <ele>35.8</ele>
        <time>2020-03-11T10:35:53Z</time>
      </trkpt>
      <trkpt lat="47.04966" lon="-1.87424">
        <ele>36</ele>
        <time>2020-03-11T10:35:53Z</time>
      </trkpt>
      <trkpt lat="47.0485" lon="-1.87487">
        <ele>36.3</ele>
        <time>2020-03-11T10:35:53Z</time>
      </trkpt>
      <trkpt lat="47.04811" lon="-1.875">
        <ele>36</ele>
        <time>2020-03-11T10:35:53Z</time>
      </trkpt>
      <trkpt lat="47.04685" lon="-1.87555">
        <ele>37</ele>
        <time>2020-03-11T10:35:53Z</time>
      </trkpt>
      <trkpt lat="47.0466" lon="-1.8757">
        <ele>37</ele>
        <time>2020-03-11T10:35:53Z</time>
      </trkpt>
      <trkpt lat="47.04643" lon="-1.87584">
        <ele>37</ele>
        <time>2020-03-11T10:35:53Z</time>
      </trkpt>
      <trkpt lat="47.04602" lon="-1.87621">
        <ele>37</ele>
        <time>2020-03-11T10:35:53Z</time>
      </trkpt>
      <trkpt lat="47.04581" lon="-1.87645">
        <ele>37</ele>
        <time>2020-03-11T10:35:53Z</time>
      </trkpt>
      <trkpt lat="47.04585" lon="-1.87674">
        <ele>37</ele>
        <time>2020-03-11T10:35:53Z</time>
      </trkpt>
      <trkpt lat="47.04616" lon="-1.87738">
        <ele>36.5</ele>
        <time>2020-03-11T10:35:53Z</time>
      </trkpt>
      <trkpt lat="47.04681" lon="-1.87872">
        <ele>36</ele>
        <time>2020-03-11T10:35:53Z</time>
      </trkpt>
      <trkpt lat="47.04767" lon="-1.88047">
        <ele>35.3</ele>
        <time>2020-03-11T10:35:53Z</time>
      </trkpt>
      <trkpt lat="47.04851" lon="-1.88184">
        <ele>34.6</ele>
        <time>2020-03-11T10:35:53Z</time>
      </trkpt>
      <trkpt lat="47.04925" lon="-1.88335">
        <ele>33.3</ele>
        <time>2020-03-11T10:35:53Z</time>
      </trkpt>
      <trkpt lat="47.0499" lon="-1.8848">
        <ele>32.8</ele>
        <time>2020-03-11T10:35:53Z</time>
      </trkpt>
      <trkpt lat="47.05005" lon="-1.88511">
        <ele>32</ele>
        <time>2020-03-11T10:35:53Z</time>
      </trkpt>
      <trkpt lat="47.05055" lon="-1.88632">
        <ele>32</ele>
        <time>2020-03-11T10:35:53Z</time>
      </trkpt>
      <trkpt lat="47.05089" lon="-1.88698">
        <ele>32</ele>
        <time>2020-03-11T10:35:53Z</time>
      </trkpt>
      <trkpt lat="47.05141" lon="-1.88756">
        <ele>31.3</ele>
        <time>2020-03-11T10:35:53Z</time>
      </trkpt>
      <trkpt lat="47.05492" lon="-1.89081">
        <ele>29</ele>
        <time>2020-03-11T10:35:53Z</time>
      </trkpt>
      <trkpt lat="47.05755" lon="-1.8932">
        <ele>29</ele>
        <time>2020-03-11T10:35:53Z</time>
      </trkpt>
      <trkpt lat="47.05847" lon="-1.894">
        <ele>28.2</ele>
        <time>2020-03-11T10:35:53Z</time>
      </trkpt>
      <trkpt lat="47.05933" lon="-1.89478">
        <ele>28</ele>
        <time>2020-03-11T10:35:53Z</time>
      </trkpt>
      <trkpt lat="47.05974" lon="-1.89515">
        <ele>28</ele>
        <time>2020-03-11T10:35:53Z</time>
      </trkpt>
      <trkpt lat="47.06072" lon="-1.8962">
        <ele>27.4</ele>
        <time>2020-03-11T10:35:53Z</time>
      </trkpt>
      <trkpt lat="47.06124" lon="-1.89664">
        <ele>27</ele>
        <time>2020-03-11T10:35:53Z</time>
      </trkpt>
      <trkpt lat="47.0623" lon="-1.89738">
        <ele>27</ele>
        <time>2020-03-11T10:35:53Z</time>
      </trkpt>
      <trkpt lat="47.06271" lon="-1.89775">
        <ele>26.2</ele>
        <time>2020-03-11T10:35:53Z</time>
      </trkpt>
      <trkpt lat="47.06416" lon="-1.89964">
        <ele>25</ele>
        <time>2020-03-11T10:35:53Z</time>
      </trkpt>
      <trkpt lat="47.06532" lon="-1.90082">
        <ele>25</ele>
        <time>2020-03-11T10:35:53Z</time>
      </trkpt>
      <trkpt lat="47.06559" lon="-1.90116">
        <ele>25.3</ele>
        <time>2020-03-11T10:35:53Z</time>
      </trkpt>
      <trkpt lat="47.06652" lon="-1.90254">
        <ele>25.9</ele>
        <time>2020-03-11T10:35:53Z</time>
      </trkpt>
      <trkpt lat="47.06678" lon="-1.90296">
        <ele>25.1</ele>
        <time>2020-03-11T10:35:53Z</time>
      </trkpt>
      <trkpt lat="47.06702" lon="-1.90329">
        <ele>25</ele>
        <time>2020-03-11T10:35:53Z</time>
      </trkpt>
      <trkpt lat="47.06792" lon="-1.90447">
        <ele>24</ele>
        <time>2020-03-11T10:35:53Z</time>
      </trkpt>
      <trkpt lat="47.06849" lon="-1.9051">
        <ele>23.8</ele>
        <time>2020-03-11T10:35:53Z</time>
      </trkpt>
      <trkpt lat="47.06869" lon="-1.9052">
        <ele>24.1</ele>
        <time>2020-03-11T10:35:53Z</time>
      </trkpt>
      <trkpt lat="47.06819" lon="-1.90629">
        <ele>23</ele>
        <time>2020-03-11T10:35:53Z</time>
      </trkpt>
      <trkpt lat="47.06793" lon="-1.90671">
        <ele>23</ele>
        <time>2020-03-11T10:35:53Z</time>
      </trkpt>
      <trkpt lat="47.06764" lon="-1.90714">
        <ele>23.3</ele>
        <time>2020-03-11T10:35:53Z</time>
      </trkpt>
      <trkpt lat="47.06636" lon="-1.90897">
        <ele>25.9</ele>
        <time>2020-03-11T10:35:53Z</time>
      </trkpt>
      <trkpt lat="47.06617" lon="-1.90927">
        <ele>26</ele>
        <time>2020-03-11T10:35:53Z</time>
      </trkpt>
      <trkpt lat="47.06601" lon="-1.90954">
        <ele>26</ele>
        <time>2020-03-11T10:35:53Z</time>
      </trkpt>
      <trkpt lat="47.06582" lon="-1.90993">
        <ele>26</ele>
        <time>2020-03-11T10:35:53Z</time>
      </trkpt>
      <trkpt lat="47.06566" lon="-1.91031">
        <ele>26.7</ele>
        <time>2020-03-11T10:35:53Z</time>
      </trkpt>
      <trkpt lat="47.06544" lon="-1.91091">
        <ele>27</ele>
        <time>2020-03-11T10:35:53Z</time>
      </trkpt>
      <trkpt lat="47.06497" lon="-1.91087">
        <ele>26.8</ele>
        <time>2020-03-11T10:35:53Z</time>
      </trkpt>
      <trkpt lat="47.06443" lon="-1.91078">
        <ele>26</ele>
        <time>2020-03-11T10:35:53Z</time>
      </trkpt>
      <trkpt lat="47.06395" lon="-1.91101">
        <ele>26</ele>
        <time>2020-03-11T10:35:53Z</time>
      </trkpt>
      <trkpt lat="47.06352" lon="-1.9113">
        <ele>25.7</ele>
        <time>2020-03-11T10:35:53Z</time>
      </trkpt>
      <trkpt lat="47.0623" lon="-1.91208">
        <ele>24.1</ele>
        <time>2020-03-11T10:35:53Z</time>
      </trkpt>
      <trkpt lat="47.06077" lon="-1.91296">
        <ele>23.5</ele>
        <time>2020-03-11T10:35:53Z</time>
      </trkpt>
      <trkpt lat="47.0596" lon="-1.91359">
        <ele>24.5</ele>
        <time>2020-03-11T10:35:53Z</time>
      </trkpt>
      <trkpt lat="47.05917" lon="-1.91379">
        <ele>25</ele>
        <time>2020-03-11T10:35:53Z</time>
      </trkpt>
      <trkpt lat="47.05887" lon="-1.914">
        <ele>25.6</ele>
        <time>2020-03-11T10:35:53Z</time>
      </trkpt>
      <trkpt lat="47.05862" lon="-1.91421">
        <ele>25.8</ele>
        <time>2020-03-11T10:35:53Z</time>
      </trkpt>
      <trkpt lat="47.05782" lon="-1.91494">
        <ele>25</ele>
        <time>2020-03-11T10:35:53Z</time>
      </trkpt>
      <trkpt lat="47.05754" lon="-1.91521">
        <ele>24</ele>
        <time>2020-03-11T10:35:53Z</time>
      </trkpt>
      <trkpt lat="47.05725" lon="-1.91558">
        <ele>23.9</ele>
        <time>2020-03-11T10:35:53Z</time>
      </trkpt>
      <trkpt lat="47.05713" lon="-1.9158">
        <ele>24</ele>
        <time>2020-03-11T10:35:53Z</time>
      </trkpt>
      <trkpt lat="47.05708" lon="-1.91607">
        <ele>24</ele>
        <time>2020-03-11T10:35:53Z</time>
      </trkpt>
      <trkpt lat="47.05707" lon="-1.91654">
        <ele>24.3</ele>
        <time>2020-03-11T10:35:53Z</time>
      </trkpt>
      <trkpt lat="47.05709" lon="-1.91696">
        <ele>25</ele>
        <time>2020-03-11T10:35:53Z</time>
      </trkpt>
      <trkpt lat="47.0571" lon="-1.91744">
        <ele>25</ele>
        <time>2020-03-11T10:35:53Z</time>
      </trkpt>
      <trkpt lat="47.05712" lon="-1.91773">
        <ele>25.8</ele>
        <time>2020-03-11T10:35:53Z</time>
      </trkpt>
      <trkpt lat="47.05718" lon="-1.91804">
        <ele>25.2</ele>
        <time>2020-03-11T10:35:53Z</time>
      </trkpt>
      <trkpt lat="47.05738" lon="-1.91881">
        <ele>26.3</ele>
        <time>2020-03-11T10:35:53Z</time>
      </trkpt>
      <trkpt lat="47.05756" lon="-1.91952">
        <ele>26</ele>
        <time>2020-03-11T10:35:53Z</time>
      </trkpt>
      <trkpt lat="47.05768" lon="-1.92">
        <ele>26</ele>
        <time>2020-03-11T10:35:53Z</time>
      </trkpt>
      <trkpt lat="47.05779" lon="-1.92043">
        <ele>26.5</ele>
        <time>2020-03-11T10:35:53Z</time>
      </trkpt>
      <trkpt lat="47.05782" lon="-1.92071">
        <ele>26.4</ele>
        <time>2020-03-11T10:35:53Z</time>
      </trkpt>
      <trkpt lat="47.05796" lon="-1.92208">
        <ele>26</ele>
        <time>2020-03-11T10:35:53Z</time>
      </trkpt>
      <trkpt lat="47.05803" lon="-1.92247">
        <ele>25.9</ele>
        <time>2020-03-11T10:35:53Z</time>
      </trkpt>
      <trkpt lat="47.05814" lon="-1.92281">
        <ele>25</ele>
        <time>2020-03-11T10:35:53Z</time>
      </trkpt>
      <trkpt lat="47.0591" lon="-1.92513">
        <ele>20.9</ele>
        <time>2020-03-11T10:35:53Z</time>
      </trkpt>
      <trkpt lat="47.05882" lon="-1.92565">
        <ele>19.7</ele>
        <time>2020-03-11T10:35:53Z</time>
      </trkpt>
      <trkpt lat="47.05824" lon="-1.92665">
        <ele>18</ele>
        <time>2020-03-11T10:35:53Z</time>
      </trkpt>
      <trkpt lat="47.05792" lon="-1.92693">
        <ele>16</ele>
        <time>2020-03-11T10:35:53Z</time>
      </trkpt>
      <trkpt lat="47.05752" lon="-1.92756">
        <ele>15.1</ele>
        <time>2020-03-11T10:35:53Z</time>
      </trkpt>
      <trkpt lat="47.05732" lon="-1.92822">
        <ele>16.5</ele>
        <time>2020-03-11T10:35:53Z</time>
      </trkpt>
      <trkpt lat="47.05714" lon="-1.92839">
        <ele>16.1</ele>
        <time>2020-03-11T10:35:53Z</time>
      </trkpt>
      <trkpt lat="47.05671" lon="-1.92861">
        <ele>15.2</ele>
        <time>2020-03-11T10:35:53Z</time>
      </trkpt>
      <trkpt lat="47.05638" lon="-1.92868">
        <ele>15.2</ele>
        <time>2020-03-11T10:35:53Z</time>
      </trkpt>
      <trkpt lat="47.05554" lon="-1.92883">
        <ele>15.5</ele>
        <time>2020-03-11T10:35:53Z</time>
      </trkpt>
      <trkpt lat="47.05519" lon="-1.92903">
        <ele>15.2</ele>
        <time>2020-03-11T10:35:53Z</time>
      </trkpt>
      <trkpt lat="47.05494" lon="-1.92935">
        <ele>15.3</ele>
        <time>2020-03-11T10:35:53Z</time>
      </trkpt>
      <trkpt lat="47.05464" lon="-1.93002">
        <ele>15.4</ele>
        <time>2020-03-11T10:35:53Z</time>
      </trkpt>
      <trkpt lat="47.05454" lon="-1.93024">
        <ele>14.7</ele>
        <time>2020-03-11T10:35:53Z</time>
      </trkpt>
      <trkpt lat="47.05438" lon="-1.93072">
        <ele>14.5</ele>
        <time>2020-03-11T10:35:53Z</time>
      </trkpt>
      <trkpt lat="47.05427" lon="-1.931">
        <ele>14</ele>
        <time>2020-03-11T10:35:53Z</time>
      </trkpt>
      <trkpt lat="47.05427" lon="-1.9316">
        <ele>14.1</ele>
        <time>2020-03-11T10:35:53Z</time>
      </trkpt>
      <trkpt lat="47.05432" lon="-1.93194">
        <ele>14.1</ele>
        <time>2020-03-11T10:35:53Z</time>
      </trkpt>
      <trkpt lat="47.05432" lon="-1.93223">
        <ele>14.1</ele>
        <time>2020-03-11T10:35:53Z</time>
      </trkpt>
      <trkpt lat="47.05428" lon="-1.93272">
        <ele>14.3</ele>
        <time>2020-03-11T10:35:53Z</time>
      </trkpt>
      <trkpt lat="47.05406" lon="-1.93297">
        <ele>14</ele>
        <time>2020-03-11T10:35:53Z</time>
      </trkpt>
      <trkpt lat="47.0539" lon="-1.93328">
        <ele>13.9</ele>
        <time>2020-03-11T10:35:53Z</time>
      </trkpt>
      <trkpt lat="47.05387" lon="-1.93358">
        <ele>13.9</ele>
        <time>2020-03-11T10:35:53Z</time>
      </trkpt>
      <trkpt lat="47.05394" lon="-1.93394">
        <ele>13.3</ele>
        <time>2020-03-11T10:35:53Z</time>
      </trkpt>
      <trkpt lat="47.05395" lon="-1.93421">
        <ele>13.2</ele>
        <time>2020-03-11T10:35:53Z</time>
      </trkpt>
      <trkpt lat="47.05378" lon="-1.93464">
        <ele>13.4</ele>
        <time>2020-03-11T10:35:53Z</time>
      </trkpt>
      <trkpt lat="47.05362" lon="-1.93492">
        <ele>13</ele>
        <time>2020-03-11T10:35:53Z</time>
      </trkpt>
      <trkpt lat="47.05329" lon="-1.93551">
        <ele>13</ele>
        <time>2020-03-11T10:35:53Z</time>
      </trkpt>
      <trkpt lat="47.05292" lon="-1.93621">
        <ele>13.2</ele>
        <time>2020-03-11T10:35:53Z</time>
      </trkpt>
      <trkpt lat="47.0525" lon="-1.93693">
        <ele>13.9</ele>
        <time>2020-03-11T10:35:53Z</time>
      </trkpt>
      <trkpt lat="47.0524" lon="-1.93731">
        <ele>13.8</ele>
        <time>2020-03-11T10:35:53Z</time>
      </trkpt>
      <trkpt lat="47.05222" lon="-1.93768">
        <ele>13</ele>
        <time>2020-03-11T10:35:53Z</time>
      </trkpt>
      <trkpt lat="47.05206" lon="-1.93801">
        <ele>12</ele>
        <time>2020-03-11T10:35:53Z</time>
      </trkpt>
      <trkpt lat="47.05186" lon="-1.93833">
        <ele>11.7</ele>
        <time>2020-03-11T10:35:53Z</time>
      </trkpt>
      <trkpt lat="47.05164" lon="-1.9387">
        <ele>10.4</ele>
        <time>2020-03-11T10:35:53Z</time>
      </trkpt>
      <trkpt lat="47.05142" lon="-1.93905">
        <ele>9.5</ele>
        <time>2020-03-11T10:35:53Z</time>
      </trkpt>
      <trkpt lat="47.05119" lon="-1.93945">
        <ele>9.6</ele>
        <time>2020-03-11T10:35:53Z</time>
      </trkpt>
      <trkpt lat="47.05101" lon="-1.93976">
        <ele>9.3</ele>
        <time>2020-03-11T10:35:53Z</time>
      </trkpt>
      <trkpt lat="47.05087" lon="-1.94005">
        <ele>9.3</ele>
        <time>2020-03-11T10:35:53Z</time>
      </trkpt>
      <trkpt lat="47.05074" lon="-1.94032">
        <ele>9.4</ele>
        <time>2020-03-11T10:35:53Z</time>
      </trkpt>
      <trkpt lat="47.05059" lon="-1.94047">
        <ele>8.9</ele>
        <time>2020-03-11T10:35:53Z</time>
      </trkpt>
      <trkpt lat="47.05043" lon="-1.94062">
        <ele>8.8</ele>
        <time>2020-03-11T10:35:53Z</time>
      </trkpt>
      <trkpt lat="47.05028" lon="-1.94079">
        <ele>8.9</ele>
        <time>2020-03-11T10:35:53Z</time>
      </trkpt>
      <trkpt lat="47.05018" lon="-1.94112">
        <ele>8.7</ele>
        <time>2020-03-11T10:35:53Z</time>
      </trkpt>
      <trkpt lat="47.05009" lon="-1.94142">
        <ele>8.8</ele>
        <time>2020-03-11T10:35:53Z</time>
      </trkpt>
      <trkpt lat="47.04998" lon="-1.94168">
        <ele>8.9</ele>
        <time>2020-03-11T10:35:53Z</time>
      </trkpt>
      <trkpt lat="47.04968" lon="-1.94222">
        <ele>8.7</ele>
        <time>2020-03-11T10:35:53Z</time>
      </trkpt>
      <trkpt lat="47.04953" lon="-1.94248">
        <ele>8.3</ele>
        <time>2020-03-11T10:35:53Z</time>
      </trkpt>
      <trkpt lat="47.04938" lon="-1.94273">
        <ele>8</ele>
        <time>2020-03-11T10:35:53Z</time>
      </trkpt>
      <trkpt lat="47.04918" lon="-1.94308">
        <ele>8</ele>
        <time>2020-03-11T10:35:53Z</time>
      </trkpt>
      <trkpt lat="47.04904" lon="-1.94331">
        <ele>8</ele>
        <time>2020-03-11T10:35:53Z</time>
      </trkpt>
      <trkpt lat="47.04869" lon="-1.94387">
        <ele>8</ele>
        <time>2020-03-11T10:35:53Z</time>
      </trkpt>
      <trkpt lat="47.0485" lon="-1.94418">
        <ele>8</ele>
        <time>2020-03-11T10:35:53Z</time>
      </trkpt>
      <trkpt lat="47.04824" lon="-1.94462">
        <ele>7.7</ele>
        <time>2020-03-11T10:35:53Z</time>
      </trkpt>
      <trkpt lat="47.04807" lon="-1.94502">
        <ele>8.1</ele>
        <time>2020-03-11T10:35:53Z</time>
      </trkpt>
      <trkpt lat="47.04781" lon="-1.94567">
        <ele>8.2</ele>
        <time>2020-03-11T10:35:53Z</time>
      </trkpt>
      <trkpt lat="47.04752" lon="-1.94663">
        <ele>7.9</ele>
        <time>2020-03-11T10:35:53Z</time>
      </trkpt>
      <trkpt lat="47.04735" lon="-1.94684">
        <ele>7.1</ele>
        <time>2020-03-11T10:35:53Z</time>
      </trkpt>
      <trkpt lat="47.04728" lon="-1.94715">
        <ele>6.4</ele>
        <time>2020-03-11T10:35:53Z</time>
      </trkpt>
      <trkpt lat="47.04718" lon="-1.94752">
        <ele>6.8</ele>
        <time>2020-03-11T10:35:53Z</time>
      </trkpt>
      <trkpt lat="47.0469" lon="-1.9475">
        <ele>5.8</ele>
        <time>2020-03-11T10:35:53Z</time>
      </trkpt>
      <trkpt lat="47.04667" lon="-1.94742">
        <ele>4.7</ele>
        <time>2020-03-11T10:35:53Z</time>
      </trkpt>
      <trkpt lat="47.04639" lon="-1.94731">
        <ele>4.7</ele>
        <time>2020-03-11T10:35:53Z</time>
      </trkpt>
      <trkpt lat="47.04611" lon="-1.94735">
        <ele>4</ele>
        <time>2020-03-11T10:35:53Z</time>
      </trkpt>
      <trkpt lat="47.04592" lon="-1.9475">
        <ele>4.7</ele>
        <time>2020-03-11T10:35:53Z</time>
      </trkpt>
      <trkpt lat="47.04557" lon="-1.94789">
        <ele>4.9</ele>
        <time>2020-03-11T10:35:53Z</time>
      </trkpt>
      <trkpt lat="47.04533" lon="-1.94816">
        <ele>5.1</ele>
        <time>2020-03-11T10:35:53Z</time>
      </trkpt>
      <trkpt lat="47.04501" lon="-1.9485">
        <ele>6.3</ele>
        <time>2020-03-11T10:35:53Z</time>
      </trkpt>
      <trkpt lat="47.04484" lon="-1.94869">
        <ele>7.2</ele>
        <time>2020-03-11T10:35:53Z</time>
      </trkpt>
      <trkpt lat="47.04466" lon="-1.94889">
        <ele>8.4</ele>
        <time>2020-03-11T10:35:53Z</time>
      </trkpt>
      <trkpt lat="47.04448" lon="-1.9491">
        <ele>9</ele>
        <time>2020-03-11T10:35:53Z</time>
      </trkpt>
      <trkpt lat="47.0443" lon="-1.94927">
        <ele>10</ele>
        <time>2020-03-11T10:35:53Z</time>
      </trkpt>
      <trkpt lat="47.04414" lon="-1.94951">
        <ele>10.3</ele>
        <time>2020-03-11T10:35:53Z</time>
      </trkpt>
      <trkpt lat="47.04394" lon="-1.94982">
        <ele>11</ele>
        <time>2020-03-11T10:35:53Z</time>
      </trkpt>
      <trkpt lat="47.04367" lon="-1.95024">
        <ele>11</ele>
        <time>2020-03-11T10:35:53Z</time>
      </trkpt>
      <trkpt lat="47.04339" lon="-1.95065">
        <ele>10.9</ele>
        <time>2020-03-11T10:35:53Z</time>
      </trkpt>
      <trkpt lat="47.04393" lon="-1.95124">
        <ele>9.9</ele>
        <time>2020-03-11T10:35:53Z</time>
      </trkpt>
      <trkpt lat="47.04423" lon="-1.95172">
        <ele>8.6</ele>
        <time>2020-03-11T10:35:53Z</time>
      </trkpt>
      <trkpt lat="47.04479" lon="-1.9529">
        <ele>5.2</ele>
        <time>2020-03-11T10:35:53Z</time>
      </trkpt>
      <trkpt lat="47.04448" lon="-1.95298">
        <ele>6.1</ele>
        <time>2020-03-11T10:35:53Z</time>
      </trkpt>
      <trkpt lat="47.04406" lon="-1.95321">
        <ele>5.8</ele>
        <time>2020-03-11T10:35:53Z</time>
      </trkpt>
      <trkpt lat="47.04382" lon="-1.95331">
        <ele>5.1</ele>
        <time>2020-03-11T10:35:53Z</time>
      </trkpt>
      <trkpt lat="47.04353" lon="-1.95344">
        <ele>4.6</ele>
        <time>2020-03-11T10:35:53Z</time>
      </trkpt>
      <trkpt lat="47.0433" lon="-1.95358">
        <ele>4.1</ele>
        <time>2020-03-11T10:35:53Z</time>
      </trkpt>
      <trkpt lat="47.04327" lon="-1.9539">
        <ele>4</ele>
        <time>2020-03-11T10:35:53Z</time>
      </trkpt>
      <trkpt lat="47.04328" lon="-1.95436">
        <ele>3.4</ele>
        <time>2020-03-11T10:35:53Z</time>
      </trkpt>
      <trkpt lat="47.04328" lon="-1.95475">
        <ele>4.8</ele>
        <time>2020-03-11T10:35:53Z</time>
      </trkpt>
      <trkpt lat="47.04327" lon="-1.95638">
        <ele>7.1</ele>
        <time>2020-03-11T10:35:53Z</time>
      </trkpt>
      <trkpt lat="47.04326" lon="-1.95705">
        <ele>5</ele>
        <time>2020-03-11T10:35:53Z</time>
      </trkpt>
      <trkpt lat="47.04326" lon="-1.9574">
        <ele>5.7</ele>
        <time>2020-03-11T10:35:53Z</time>
      </trkpt>
      <trkpt lat="47.0434" lon="-1.95767">
        <ele>4.6</ele>
        <time>2020-03-11T10:35:53Z</time>
      </trkpt>
      <trkpt lat="47.04359" lon="-1.95776">
        <ele>4</ele>
        <time>2020-03-11T10:35:53Z</time>
      </trkpt>
      <trkpt lat="47.04347" lon="-1.95804">
        <ele>3.1</ele>
        <time>2020-03-11T10:35:53Z</time>
      </trkpt>
      <trkpt lat="47.04327" lon="-1.95809">
        <ele>3</ele>
        <time>2020-03-11T10:35:53Z</time>
      </trkpt>
      <trkpt lat="47.04302" lon="-1.95778">
        <ele>3</ele>
        <time>2020-03-11T10:35:53Z</time>
      </trkpt>
      <trkpt lat="47.04282" lon="-1.95762">
        <ele>3.1</ele>
        <time>2020-03-11T10:35:53Z</time>
      </trkpt>
      <trkpt lat="47.04244" lon="-1.95775">
        <ele>3.2</ele>
        <time>2020-03-11T10:35:53Z</time>
      </trkpt>
      <trkpt lat="47.04221" lon="-1.95782">
        <ele>4</ele>
        <time>2020-03-11T10:35:53Z</time>
      </trkpt>
      <trkpt lat="47.04197" lon="-1.95777">
        <ele>3.1</ele>
        <time>2020-03-11T10:35:53Z</time>
      </trkpt>
      <trkpt lat="47.04131" lon="-1.9574">
        <ele>2.6</ele>
        <time>2020-03-11T10:35:53Z</time>
      </trkpt>
      <trkpt lat="47.04094" lon="-1.95745">
        <ele>3.7</ele>
        <time>2020-03-11T10:35:53Z</time>
      </trkpt>
      <trkpt lat="47.04075" lon="-1.95729">
        <ele>3.7</ele>
        <time>2020-03-11T10:35:53Z</time>
      </trkpt>
      <trkpt lat="47.04049" lon="-1.9574">
        <ele>3.2</ele>
        <time>2020-03-11T10:35:53Z</time>
      </trkpt>
      <trkpt lat="47.04028" lon="-1.95759">
        <ele>4</ele>
        <time>2020-03-11T10:35:53Z</time>
      </trkpt>
      <trkpt lat="47.04016" lon="-1.95788">
        <ele>3.6</ele>
        <time>2020-03-11T10:35:53Z</time>
      </trkpt>
      <trkpt lat="47.03995" lon="-1.95802">
        <ele>4</ele>
        <time>2020-03-11T10:35:53Z</time>
      </trkpt>
      <trkpt lat="47.0398" lon="-1.95827">
        <ele>3.8</ele>
        <time>2020-03-11T10:35:53Z</time>
      </trkpt>
      <trkpt lat="47.03973" lon="-1.95853">
        <ele>4</ele>
        <time>2020-03-11T10:35:53Z</time>
      </trkpt>
      <trkpt lat="47.03955" lon="-1.95883">
        <ele>3.6</ele>
        <time>2020-03-11T10:35:53Z</time>
      </trkpt>
      <trkpt lat="47.03879" lon="-1.95946">
        <ele>3.9</ele>
        <time>2020-03-11T10:35:53Z</time>
      </trkpt>
      <trkpt lat="47.03854" lon="-1.95965">
        <ele>3.4</ele>
        <time>2020-03-11T10:35:53Z</time>
      </trkpt>
      <trkpt lat="47.03836" lon="-1.95983">
        <ele>3.6</ele>
        <time>2020-03-11T10:35:53Z</time>
      </trkpt>
      <trkpt lat="47.03821" lon="-1.95999">
        <ele>3.5</ele>
        <time>2020-03-11T10:35:53Z</time>
      </trkpt>
      <trkpt lat="47.03807" lon="-1.96017">
        <ele>3.9</ele>
        <time>2020-03-11T10:35:53Z</time>
      </trkpt>
      <trkpt lat="47.03789" lon="-1.96043">
        <ele>3.8</ele>
        <time>2020-03-11T10:35:53Z</time>
      </trkpt>
      <trkpt lat="47.03771" lon="-1.96074">
        <ele>3.1</ele>
        <time>2020-03-11T10:35:53Z</time>
      </trkpt>
      <trkpt lat="47.03755" lon="-1.96113">
        <ele>3</ele>
        <time>2020-03-11T10:35:53Z</time>
      </trkpt>
      <trkpt lat="47.03731" lon="-1.96189">
        <ele>2.3</ele>
        <time>2020-03-11T10:35:53Z</time>
      </trkpt>
      <trkpt lat="47.03718" lon="-1.96221">
        <ele>3</ele>
        <time>2020-03-11T10:35:53Z</time>
      </trkpt>
      <trkpt lat="47.03703" lon="-1.96248">
        <ele>2.7</ele>
        <time>2020-03-11T10:35:53Z</time>
      </trkpt>
      <trkpt lat="47.03686" lon="-1.96271">
        <ele>3</ele>
        <time>2020-03-11T10:35:53Z</time>
      </trkpt>
      <trkpt lat="47.0362" lon="-1.96348">
        <ele>3</ele>
        <time>2020-03-11T10:35:53Z</time>
      </trkpt>
      <trkpt lat="47.03487" lon="-1.96499">
        <ele>1.5</ele>
        <time>2020-03-11T10:35:53Z</time>
      </trkpt>
      <trkpt lat="47.03472" lon="-1.96518">
        <ele>3.3</ele>
        <time>2020-03-11T10:35:53Z</time>
      </trkpt>
      <trkpt lat="47.03467" lon="-1.96546">
        <ele>3.3</ele>
        <time>2020-03-11T10:35:53Z</time>
      </trkpt>
      <trkpt lat="47.03464" lon="-1.96585">
        <ele>3</ele>
        <time>2020-03-11T10:35:53Z</time>
      </trkpt>
      <trkpt lat="47.03452" lon="-1.96765">
        <ele>2.4</ele>
        <time>2020-03-11T10:35:53Z</time>
      </trkpt>
      <trkpt lat="47.03439" lon="-1.96952">
        <ele>3</ele>
        <time>2020-03-11T10:35:53Z</time>
      </trkpt>
      <trkpt lat="47.03436" lon="-1.96988">
        <ele>3</ele>
        <time>2020-03-11T10:35:53Z</time>
      </trkpt>
      <trkpt lat="47.03428" lon="-1.97014">
        <ele>3.1</ele>
        <time>2020-03-11T10:35:53Z</time>
      </trkpt>
      <trkpt lat="47.03414" lon="-1.97036">
        <ele>3.7</ele>
        <time>2020-03-11T10:35:53Z</time>
      </trkpt>
      <trkpt lat="47.03376" lon="-1.97061">
        <ele>3.5</ele>
        <time>2020-03-11T10:35:53Z</time>
      </trkpt>
      <trkpt lat="47.03342" lon="-1.97072">
        <ele>2.9</ele>
        <time>2020-03-11T10:35:53Z</time>
      </trkpt>
      <trkpt lat="47.03317" lon="-1.97075">
        <ele>3</ele>
        <time>2020-03-11T10:35:53Z</time>
      </trkpt>
      <trkpt lat="47.0328" lon="-1.97076">
        <ele>2.8</ele>
        <time>2020-03-11T10:35:53Z</time>
      </trkpt>
      <trkpt lat="47.03251" lon="-1.97082">
        <ele>3.9</ele>
        <time>2020-03-11T10:35:53Z</time>
      </trkpt>
      <trkpt lat="47.03233" lon="-1.97087">
        <ele>3.2</ele>
        <time>2020-03-11T10:35:53Z</time>
      </trkpt>
      <trkpt lat="47.0318" lon="-1.97104">
        <ele>3.1</ele>
        <time>2020-03-11T10:35:53Z</time>
      </trkpt>
      <trkpt lat="47.03161" lon="-1.9711">
        <ele>3.9</ele>
        <time>2020-03-11T10:35:53Z</time>
      </trkpt>
      <trkpt lat="47.03143" lon="-1.97115">
        <ele>3.7</ele>
        <time>2020-03-11T10:35:53Z</time>
      </trkpt>
      <trkpt lat="47.03117" lon="-1.97119">
        <ele>3.7</ele>
        <time>2020-03-11T10:35:53Z</time>
      </trkpt>
      <trkpt lat="47.0309" lon="-1.97118">
        <ele>3.8</ele>
        <time>2020-03-11T10:35:53Z</time>
      </trkpt>
      <trkpt lat="47.03072" lon="-1.97116">
        <ele>3.5</ele>
        <time>2020-03-11T10:35:53Z</time>
      </trkpt>
      <trkpt lat="47.03035" lon="-1.97106">
        <ele>2.8</ele>
        <time>2020-03-11T10:35:53Z</time>
      </trkpt>
      <trkpt lat="47.02957" lon="-1.97079">
        <ele>3.5</ele>
        <time>2020-03-11T10:35:53Z</time>
      </trkpt>
      <trkpt lat="47.02929" lon="-1.97072">
        <ele>2.7</ele>
        <time>2020-03-11T10:35:53Z</time>
      </trkpt>
      <trkpt lat="47.02907" lon="-1.97072">
        <ele>2.8</ele>
        <time>2020-03-11T10:35:53Z</time>
      </trkpt>
      <trkpt lat="47.02885" lon="-1.97076">
        <ele>3.3</ele>
        <time>2020-03-11T10:35:53Z</time>
      </trkpt>
      <trkpt lat="47.02833" lon="-1.971">
        <ele>3.2</ele>
        <time>2020-03-11T10:35:53Z</time>
      </trkpt>
      <trkpt lat="47.02812" lon="-1.97113">
        <ele>3.2</ele>
        <time>2020-03-11T10:35:53Z</time>
      </trkpt>
      <trkpt lat="47.0279" lon="-1.97132">
        <ele>2.5</ele>
        <time>2020-03-11T10:35:53Z</time>
      </trkpt>
      <trkpt lat="47.02771" lon="-1.97154">
        <ele>2.3</ele>
        <time>2020-03-11T10:35:53Z</time>
      </trkpt>
      <trkpt lat="47.02755" lon="-1.9718">
        <ele>2.4</ele>
        <time>2020-03-11T10:35:53Z</time>
      </trkpt>
      <trkpt lat="47.02741" lon="-1.9721">
        <ele>2.5</ele>
        <time>2020-03-11T10:35:53Z</time>
      </trkpt>
      <trkpt lat="47.0273" lon="-1.97241">
        <ele>2.7</ele>
        <time>2020-03-11T10:35:53Z</time>
      </trkpt>
      <trkpt lat="47.02722" lon="-1.97274">
        <ele>3</ele>
        <time>2020-03-11T10:35:53Z</time>
      </trkpt>
      <trkpt lat="47.02719" lon="-1.97311">
        <ele>2.6</ele>
        <time>2020-03-11T10:35:53Z</time>
      </trkpt>
      <trkpt lat="47.02715" lon="-1.97381">
        <ele>1.2</ele>
        <time>2020-03-11T10:35:53Z</time>
      </trkpt>
      <trkpt lat="47.0271" lon="-1.97471">
        <ele>1</ele>
        <time>2020-03-11T10:35:53Z</time>
      </trkpt>
      <trkpt lat="47.02708" lon="-1.97506">
        <ele>1.6</ele>
        <time>2020-03-11T10:35:53Z</time>
      </trkpt>
      <trkpt lat="47.02701" lon="-1.97538">
        <ele>2.4</ele>
        <time>2020-03-11T10:35:53Z</time>
      </trkpt>
      <trkpt lat="47.02689" lon="-1.97558">
        <ele>2.5</ele>
        <time>2020-03-11T10:35:53Z</time>
      </trkpt>
      <trkpt lat="47.02651" lon="-1.9757">
        <ele>1</ele>
        <time>2020-03-11T10:35:53Z</time>
      </trkpt>
      <trkpt lat="47.02551" lon="-1.97578">
        <ele>1</ele>
        <time>2020-03-11T10:35:53Z</time>
      </trkpt>
      <trkpt lat="47.02252" lon="-1.97602">
        <ele>1</ele>
        <time>2020-03-11T10:35:53Z</time>
      </trkpt>
      <trkpt lat="47.02205" lon="-1.97606">
        <ele>1</ele>
        <time>2020-03-11T10:35:53Z</time>
      </trkpt>
      <trkpt lat="47.02181" lon="-1.9761">
        <ele>1.5</ele>
        <time>2020-03-11T10:35:53Z</time>
      </trkpt>
      <trkpt lat="47.02161" lon="-1.9763">
        <ele>1.3</ele>
        <time>2020-03-11T10:35:53Z</time>
      </trkpt>
      <trkpt lat="47.02147" lon="-1.97656">
        <ele>1</ele>
        <time>2020-03-11T10:35:53Z</time>
      </trkpt>
      <trkpt lat="47.02115" lon="-1.97715">
        <ele>1.9</ele>
        <time>2020-03-11T10:35:53Z</time>
      </trkpt>
      <trkpt lat="47.01607" lon="-1.98672">
        <ele>1.8</ele>
        <time>2020-03-11T10:35:53Z</time>
      </trkpt>
      <trkpt lat="47.01589" lon="-1.98689">
        <ele>1.8</ele>
        <time>2020-03-11T10:35:53Z</time>
      </trkpt>
      <trkpt lat="47.01344" lon="-1.98697">
        <ele>2.6</ele>
        <time>2020-03-11T10:35:53Z</time>
      </trkpt>
      <trkpt lat="47.01357" lon="-1.98993">
        <ele>2</ele>
        <time>2020-03-11T10:35:53Z</time>
      </trkpt>
      <trkpt lat="47.01367" lon="-1.99285">
        <ele>1.8</ele>
        <time>2020-03-11T10:35:53Z</time>
      </trkpt>
      <trkpt lat="47.01375" lon="-1.99366">
        <ele>1.5</ele>
        <time>2020-03-11T10:35:53Z</time>
      </trkpt>
      <trkpt lat="47.01378" lon="-1.99442">
        <ele>1.4</ele>
        <time>2020-03-11T10:35:53Z</time>
      </trkpt>
      <trkpt lat="47.01381" lon="-1.99508">
        <ele>1.3</ele>
        <time>2020-03-11T10:35:53Z</time>
      </trkpt>
      <trkpt lat="47.01383" lon="-1.996">
        <ele>1.2</ele>
        <time>2020-03-11T10:35:53Z</time>
      </trkpt>
      <trkpt lat="47.01388" lon="-1.99681">
        <ele>2</ele>
        <time>2020-03-11T10:35:53Z</time>
      </trkpt>
      <trkpt lat="47.01392" lon="-1.99708">
        <ele>1.9</ele>
        <time>2020-03-11T10:35:53Z</time>
      </trkpt>
      <trkpt lat="47.01419" lon="-1.99895">
        <ele>1.9</ele>
        <time>2020-03-11T10:35:53Z</time>
      </trkpt>
      <trkpt lat="47.01446" lon="-2.0007">
        <ele>1.9</ele>
        <time>2020-03-11T10:35:53Z</time>
      </trkpt>
      <trkpt lat="47.01445" lon="-2.00097">
        <ele>2</ele>
        <time>2020-03-11T10:35:53Z</time>
      </trkpt>
      <trkpt lat="47.014" lon="-2.00286">
        <ele>2</ele>
        <time>2020-03-11T10:35:53Z</time>
      </trkpt>
      <trkpt lat="47.01398" lon="-2.00318">
        <ele>2</ele>
        <time>2020-03-11T10:35:53Z</time>
      </trkpt>
      <trkpt lat="47.01414" lon="-2.00363">
        <ele>2.2</ele>
        <time>2020-03-11T10:35:53Z</time>
      </trkpt>
      <trkpt lat="47.01431" lon="-2.00407">
        <ele>2.3</ele>
        <time>2020-03-11T10:35:53Z</time>
      </trkpt>
      <trkpt lat="47.01443" lon="-2.00438">
        <ele>2.1</ele>
        <time>2020-03-11T10:35:53Z</time>
      </trkpt>
      <trkpt lat="47.01454" lon="-2.00498">
        <ele>1.7</ele>
        <time>2020-03-11T10:35:53Z</time>
      </trkpt>
      <trkpt lat="47.01461" lon="-2.00534">
        <ele>2.4</ele>
        <time>2020-03-11T10:35:53Z</time>
      </trkpt>
      <trkpt lat="47.01484" lon="-2.00566">
        <ele>2</ele>
        <time>2020-03-11T10:35:53Z</time>
      </trkpt>
      <trkpt lat="47.01489" lon="-2.00603">
        <ele>2.4</ele>
        <time>2020-03-11T10:35:53Z</time>
      </trkpt>
      <trkpt lat="47.01513" lon="-2.00664">
        <ele>2</ele>
        <time>2020-03-11T10:35:53Z</time>
      </trkpt>
      <trkpt lat="47.01524" lon="-2.00685">
        <ele>2.4</ele>
        <time>2020-03-11T10:35:53Z</time>
      </trkpt>
      <trkpt lat="47.01541" lon="-2.00703">
        <ele>2.3</ele>
        <time>2020-03-11T10:35:53Z</time>
      </trkpt>
      <trkpt lat="47.0156" lon="-2.00722">
        <ele>2.7</ele>
        <time>2020-03-11T10:35:53Z</time>
      </trkpt>
      <trkpt lat="47.01575" lon="-2.00764">
        <ele>2.3</ele>
        <time>2020-03-11T10:35:53Z</time>
      </trkpt>
      <trkpt lat="47.01583" lon="-2.00822">
        <ele>2</ele>
        <time>2020-03-11T10:35:53Z</time>
      </trkpt>
      <trkpt lat="47.01593" lon="-2.00905">
        <ele>2.9</ele>
        <time>2020-03-11T10:35:53Z</time>
      </trkpt>
      <trkpt lat="47.01624" lon="-2.00937">
        <ele>2.4</ele>
        <time>2020-03-11T10:35:53Z</time>
      </trkpt>
      <trkpt lat="47.01645" lon="-2.00952">
        <ele>2.7</ele>
        <time>2020-03-11T10:35:53Z</time>
      </trkpt>
      <trkpt lat="47.0166" lon="-2.00968">
        <ele>4.4</ele>
        <time>2020-03-11T10:35:53Z</time>
      </trkpt>
      <trkpt lat="47.0166" lon="-2.01006">
        <ele>4.2</ele>
        <time>2020-03-11T10:35:53Z</time>
      </trkpt>
      <trkpt lat="47.01649" lon="-2.01029">
        <ele>3.7</ele>
        <time>2020-03-11T10:35:53Z</time>
      </trkpt>
      <trkpt lat="47.0161" lon="-2.01079">
        <ele>3.8</ele>
        <time>2020-03-11T10:35:53Z</time>
      </trkpt>
      <trkpt lat="47.01609" lon="-2.01121">
        <ele>4.3</ele>
        <time>2020-03-11T10:35:53Z</time>
      </trkpt>
      <trkpt lat="47.01556" lon="-2.01166">
        <ele>4</ele>
        <time>2020-03-11T10:35:53Z</time>
      </trkpt>
      <trkpt lat="47.0151" lon="-2.01229">
        <ele>2.6</ele>
        <time>2020-03-11T10:35:53Z</time>
      </trkpt>
      <trkpt lat="47.01476" lon="-2.01281">
        <ele>3</ele>
        <time>2020-03-11T10:35:53Z</time>
      </trkpt>
      <trkpt lat="47.01456" lon="-2.01299">
        <ele>4.2</ele>
        <time>2020-03-11T10:35:53Z</time>
      </trkpt>
      <trkpt lat="47.01424" lon="-2.013">
        <ele>4</ele>
        <time>2020-03-11T10:35:53Z</time>
      </trkpt>
      <trkpt lat="47.0138" lon="-2.01354">
        <ele>3.8</ele>
        <time>2020-03-11T10:35:53Z</time>
      </trkpt>
      <trkpt lat="47.01356" lon="-2.01397">
        <ele>3.2</ele>
        <time>2020-03-11T10:35:53Z</time>
      </trkpt>
      <trkpt lat="47.01332" lon="-2.01447">
        <ele>4</ele>
        <time>2020-03-11T10:35:53Z</time>
      </trkpt>
      <trkpt lat="47.01317" lon="-2.01492">
        <ele>3.1</ele>
        <time>2020-03-11T10:35:53Z</time>
      </trkpt>
      <trkpt lat="47.01266" lon="-2.01585">
        <ele>4</ele>
        <time>2020-03-11T10:35:53Z</time>
      </trkpt>
      <trkpt lat="47.01238" lon="-2.01654">
        <ele>3</ele>
        <time>2020-03-11T10:35:53Z</time>
      </trkpt>
      <trkpt lat="47.01226" lon="-2.01681">
        <ele>2.6</ele>
        <time>2020-03-11T10:35:53Z</time>
      </trkpt>
      <trkpt lat="47.01213" lon="-2.01709">
        <ele>3.4</ele>
        <time>2020-03-11T10:35:53Z</time>
      </trkpt>
      <trkpt lat="47.01188" lon="-2.0172">
        <ele>2.8</ele>
        <time>2020-03-11T10:35:53Z</time>
      </trkpt>
      <trkpt lat="47.01187" lon="-2.01771">
        <ele>3</ele>
        <time>2020-03-11T10:35:53Z</time>
      </trkpt>
      <trkpt lat="47.01187" lon="-2.01815">
        <ele>4</ele>
        <time>2020-03-11T10:35:53Z</time>
      </trkpt>
      <trkpt lat="47.01185" lon="-2.01861">
        <ele>5.3</ele>
        <time>2020-03-11T10:35:53Z</time>
      </trkpt>
      <trkpt lat="47.01178" lon="-2.01909">
        <ele>3.4</ele>
        <time>2020-03-11T10:35:53Z</time>
      </trkpt>
      <trkpt lat="47.01164" lon="-2.01953">
        <ele>4.8</ele>
        <time>2020-03-11T10:35:53Z</time>
      </trkpt>
      <trkpt lat="47.01148" lon="-2.0198">
        <ele>3.8</ele>
        <time>2020-03-11T10:35:53Z</time>
      </trkpt>
      <trkpt lat="47.01125" lon="-2.01992">
        <ele>3.7</ele>
        <time>2020-03-11T10:35:53Z</time>
      </trkpt>
      <trkpt lat="47.01106" lon="-2.02015">
        <ele>3.4</ele>
        <time>2020-03-11T10:35:53Z</time>
      </trkpt>
      <trkpt lat="47.0107" lon="-2.0212">
        <ele>3.2</ele>
        <time>2020-03-11T10:35:53Z</time>
      </trkpt>
      <trkpt lat="47.01054" lon="-2.02168">
        <ele>3.1</ele>
        <time>2020-03-11T10:35:53Z</time>
      </trkpt>
      <trkpt lat="47.01033" lon="-2.02234">
        <ele>3.3</ele>
        <time>2020-03-11T10:35:53Z</time>
      </trkpt>
      <trkpt lat="47.01014" lon="-2.0228">
        <ele>3.4</ele>
        <time>2020-03-11T10:35:53Z</time>
      </trkpt>
      <trkpt lat="47.00999" lon="-2.02329">
        <ele>3.8</ele>
        <time>2020-03-11T10:35:53Z</time>
      </trkpt>
      <trkpt lat="47.00976" lon="-2.024">
        <ele>2.3</ele>
        <time>2020-03-11T10:35:53Z</time>
      </trkpt>
      <trkpt lat="47.00941" lon="-2.02505">
        <ele>4</ele>
        <time>2020-03-11T10:35:53Z</time>
      </trkpt>
      <trkpt lat="47.00925" lon="-2.02554">
        <ele>3</ele>
        <time>2020-03-11T10:35:53Z</time>
      </trkpt>
      <trkpt lat="47.00913" lon="-2.02614">
        <ele>3.8</ele>
        <time>2020-03-11T10:35:53Z</time>
      </trkpt>
      <trkpt lat="47.00906" lon="-2.02657">
        <ele>4.2</ele>
        <time>2020-03-11T10:35:53Z</time>
      </trkpt>
      <trkpt lat="47.00906" lon="-2.02687">
        <ele>4.2</ele>
        <time>2020-03-11T10:35:53Z</time>
      </trkpt>
      <trkpt lat="47.00909" lon="-2.02738">
        <ele>4</ele>
        <time>2020-03-11T10:35:53Z</time>
      </trkpt>
      <trkpt lat="47.00886" lon="-2.02735">
        <ele>3</ele>
        <time>2020-03-11T10:35:53Z</time>
      </trkpt>
      <trkpt lat="47.00834" lon="-2.02732">
        <ele>3</ele>
        <time>2020-03-11T10:35:53Z</time>
      </trkpt>
      <trkpt lat="47.00807" lon="-2.02724">
        <ele>2.1</ele>
        <time>2020-03-11T10:35:53Z</time>
      </trkpt>
      <trkpt lat="47.00773" lon="-2.02714">
        <ele>2.7</ele>
        <time>2020-03-11T10:35:53Z</time>
      </trkpt>
      <trkpt lat="47.00746" lon="-2.02714">
        <ele>2.7</ele>
        <time>2020-03-11T10:35:53Z</time>
      </trkpt>
      <trkpt lat="47.00723" lon="-2.02712">
        <ele>3</ele>
        <time>2020-03-11T10:35:53Z</time>
      </trkpt>
      <trkpt lat="47.00697" lon="-2.02592">
        <ele>2.6</ele>
        <time>2020-03-11T10:35:53Z</time>
      </trkpt>
      <trkpt lat="47.00684" lon="-2.02571">
        <ele>2.6</ele>
        <time>2020-03-11T10:35:53Z</time>
      </trkpt>
      <trkpt lat="47.0066" lon="-2.02569">
        <ele>2.2</ele>
        <time>2020-03-11T10:35:53Z</time>
      </trkpt>
      <trkpt lat="47.00634" lon="-2.02587">
        <ele>2.9</ele>
        <time>2020-03-11T10:35:53Z</time>
      </trkpt>
      <trkpt lat="47.00614" lon="-2.02595">
        <ele>2.6</ele>
        <time>2020-03-11T10:35:53Z</time>
      </trkpt>
      <trkpt lat="47.0059" lon="-2.026">
        <ele>2.9</ele>
        <time>2020-03-11T10:35:53Z</time>
      </trkpt>
      <trkpt lat="47.00535" lon="-2.0262">
        <ele>2.5</ele>
        <time>2020-03-11T10:35:53Z</time>
      </trkpt>
      <trkpt lat="47.00498" lon="-2.02638">
        <ele>2</ele>
        <time>2020-03-11T10:35:53Z</time>
      </trkpt>
      <trkpt lat="47.00443" lon="-2.02661">
        <ele>2</ele>
        <time>2020-03-11T10:35:53Z</time>
      </trkpt>
      <trkpt lat="47.0039" lon="-2.02684">
        <ele>2.4</ele>
        <time>2020-03-11T10:35:53Z</time>
      </trkpt>
      <trkpt lat="47.00359" lon="-2.02701">
        <ele>2.1</ele>
        <time>2020-03-11T10:35:53Z</time>
      </trkpt>
      <trkpt lat="47.00296" lon="-2.02734">
        <ele>2.2</ele>
        <time>2020-03-11T10:35:53Z</time>
      </trkpt>
      <trkpt lat="47.00219" lon="-2.0277">
        <ele>2.2</ele>
        <time>2020-03-11T10:35:53Z</time>
      </trkpt>
      <trkpt lat="47.00158" lon="-2.02798">
        <ele>2.3</ele>
        <time>2020-03-11T10:35:53Z</time>
      </trkpt>
      <trkpt lat="47.00016" lon="-2.02819">
        <ele>3</ele>
        <time>2020-03-11T10:35:53Z</time>
      </trkpt>
      <trkpt lat="46.99983" lon="-2.02821">
        <ele>2.4</ele>
        <time>2020-03-11T10:35:53Z</time>
      </trkpt>
      <trkpt lat="46.99946" lon="-2.02815">
        <ele>2.9</ele>
        <time>2020-03-11T10:35:53Z</time>
      </trkpt>
      <trkpt lat="46.99923" lon="-2.02818">
        <ele>2.6</ele>
        <time>2020-03-11T10:35:53Z</time>
      </trkpt>
      <trkpt lat="46.99904" lon="-2.02835">
        <ele>3</ele>
        <time>2020-03-11T10:35:53Z</time>
      </trkpt>
      <trkpt lat="46.9988" lon="-2.02876">
        <ele>3</ele>
        <time>2020-03-11T10:35:53Z</time>
      </trkpt>
      <trkpt lat="46.99862" lon="-2.02891">
        <ele>3</ele>
        <time>2020-03-11T10:35:53Z</time>
      </trkpt>
      <trkpt lat="46.99801" lon="-2.02901">
        <ele>2.7</ele>
        <time>2020-03-11T10:35:53Z</time>
      </trkpt>
      <trkpt lat="46.99779" lon="-2.02826">
        <ele>3.3</ele>
        <time>2020-03-11T10:35:53Z</time>
      </trkpt>
      <trkpt lat="46.99761" lon="-2.02737">
        <ele>1.6</ele>
        <time>2020-03-11T10:35:53Z</time>
      </trkpt>
      <trkpt lat="46.99749" lon="-2.02687">
        <ele>4</ele>
        <time>2020-03-11T10:35:53Z</time>
      </trkpt>
      <trkpt lat="46.99742" lon="-2.02661">
        <ele>3.7</ele>
        <time>2020-03-11T10:35:53Z</time>
      </trkpt>
      <trkpt lat="46.9972" lon="-2.02666">
        <ele>3.9</ele>
        <time>2020-03-11T10:35:53Z</time>
      </trkpt>
      <trkpt lat="46.99744" lon="-2.02785">
        <ele>2.6</ele>
        <time>2020-03-11T10:35:53Z</time>
      </trkpt>
      <trkpt lat="46.99782" lon="-2.02975">
        <ele>3.7</ele>
        <time>2020-03-11T10:35:53Z</time>
      </trkpt>
      <trkpt lat="46.9979" lon="-2.03014">
        <ele>2.4</ele>
        <time>2020-03-11T10:35:53Z</time>
      </trkpt>
      <trkpt lat="46.99792" lon="-2.03045">
        <ele>2.3</ele>
        <time>2020-03-11T10:35:53Z</time>
      </trkpt>
      <trkpt lat="46.99794" lon="-2.03072">
        <ele>2.4</ele>
        <time>2020-03-11T10:35:53Z</time>
      </trkpt>
      <trkpt lat="46.99793" lon="-2.031">
        <ele>2.8</ele>
        <time>2020-03-11T10:35:53Z</time>
      </trkpt>
      <trkpt lat="46.99788" lon="-2.03176">
        <ele>2.9</ele>
        <time>2020-03-11T10:35:53Z</time>
      </trkpt>
      <trkpt lat="46.99786" lon="-2.03225">
        <ele>3.3</ele>
        <time>2020-03-11T10:35:53Z</time>
      </trkpt>
      <trkpt lat="46.99782" lon="-2.03285">
        <ele>2.9</ele>
        <time>2020-03-11T10:35:53Z</time>
      </trkpt>
      <trkpt lat="46.99775" lon="-2.03352">
        <ele>2.6</ele>
        <time>2020-03-11T10:35:53Z</time>
      </trkpt>
      <trkpt lat="46.99769" lon="-2.03405">
        <ele>3.8</ele>
        <time>2020-03-11T10:35:53Z</time>
      </trkpt>
      <trkpt lat="46.99764" lon="-2.03461">
        <ele>2.2</ele>
        <time>2020-03-11T10:35:53Z</time>
      </trkpt>
      <trkpt lat="46.99759" lon="-2.03521">
        <ele>1.3</ele>
        <time>2020-03-11T10:35:53Z</time>
      </trkpt>
      <trkpt lat="46.99756" lon="-2.0355">
        <ele>1</ele>
        <time>2020-03-11T10:35:53Z</time>
      </trkpt>
      <trkpt lat="46.99753" lon="-2.03583">
        <ele>1.9</ele>
        <time>2020-03-11T10:35:53Z</time>
      </trkpt>
      <trkpt lat="46.99748" lon="-2.03661">
        <ele>3.9</ele>
        <time>2020-03-11T10:35:53Z</time>
      </trkpt>
      <trkpt lat="46.9974" lon="-2.03785">
        <ele>4.6</ele>
        <time>2020-03-11T10:35:53Z</time>
      </trkpt>
      <trkpt lat="46.99715" lon="-2.03796">
        <ele>3.3</ele>
        <time>2020-03-11T10:35:53Z</time>
      </trkpt>
      <trkpt lat="46.99644" lon="-2.0378">
        <ele>2</ele>
        <time>2020-03-11T10:35:53Z</time>
      </trkpt>
      <trkpt lat="46.99618" lon="-2.03769">
        <ele>4.1</ele>
        <time>2020-03-11T10:35:53Z</time>
      </trkpt>
      <trkpt lat="46.99595" lon="-2.03754">
        <ele>3.2</ele>
        <time>2020-03-11T10:35:53Z</time>
      </trkpt>
      <trkpt lat="46.99573" lon="-2.03733">
        <ele>2.8</ele>
        <time>2020-03-11T10:35:53Z</time>
      </trkpt>
      <trkpt lat="46.99553" lon="-2.03701">
        <ele>2.7</ele>
        <time>2020-03-11T10:35:53Z</time>
      </trkpt>
      <trkpt lat="46.99536" lon="-2.03669">
        <ele>4</ele>
        <time>2020-03-11T10:35:53Z</time>
      </trkpt>
      <trkpt lat="46.99521" lon="-2.03631">
        <ele>2.1</ele>
        <time>2020-03-11T10:35:53Z</time>
      </trkpt>
      <trkpt lat="46.99507" lon="-2.03608">
        <ele>3.2</ele>
        <time>2020-03-11T10:35:53Z</time>
      </trkpt>
      <trkpt lat="46.9949" lon="-2.03586">
        <ele>2.2</ele>
        <time>2020-03-11T10:35:53Z</time>
      </trkpt>
      <trkpt lat="46.99462" lon="-2.03549">
        <ele>2.2</ele>
        <time>2020-03-11T10:35:53Z</time>
      </trkpt>
      <trkpt lat="46.99406" lon="-2.03482">
        <ele>2.5</ele>
        <time>2020-03-11T10:35:53Z</time>
      </trkpt>
      <trkpt lat="46.99378" lon="-2.03449">
        <ele>2.6</ele>
        <time>2020-03-11T10:35:53Z</time>
      </trkpt>
      <trkpt lat="46.99351" lon="-2.03419">
        <ele>2.2</ele>
        <time>2020-03-11T10:35:53Z</time>
      </trkpt>
      <trkpt lat="46.99238" lon="-2.0331">
        <ele>3</ele>
        <time>2020-03-11T10:35:53Z</time>
      </trkpt>
      <trkpt lat="46.99199" lon="-2.03274">
        <ele>4</ele>
        <time>2020-03-11T10:35:53Z</time>
      </trkpt>
      <trkpt lat="46.9919" lon="-2.03251">
        <ele>2.1</ele>
        <time>2020-03-11T10:35:53Z</time>
      </trkpt>
      <trkpt lat="46.99189" lon="-2.03215">
        <ele>1.5</ele>
        <time>2020-03-11T10:35:53Z</time>
      </trkpt>
      <trkpt lat="46.99181" lon="-2.03186">
        <ele>2.6</ele>
        <time>2020-03-11T10:35:53Z</time>
      </trkpt>
      <trkpt lat="46.99163" lon="-2.03162">
        <ele>3.4</ele>
        <time>2020-03-11T10:35:53Z</time>
      </trkpt>
      <trkpt lat="46.99142" lon="-2.03144">
        <ele>2</ele>
        <time>2020-03-11T10:35:53Z</time>
      </trkpt>
      <trkpt lat="46.99119" lon="-2.03134">
        <ele>3.2</ele>
        <time>2020-03-11T10:35:53Z</time>
      </trkpt>
      <trkpt lat="46.99093" lon="-2.03133">
        <ele>3.1</ele>
        <time>2020-03-11T10:35:53Z</time>
      </trkpt>
      <trkpt lat="46.99067" lon="-2.03138">
        <ele>3.6</ele>
        <time>2020-03-11T10:35:53Z</time>
      </trkpt>
      <trkpt lat="46.99057" lon="-2.03116">
        <ele>3.1</ele>
        <time>2020-03-11T10:35:53Z</time>
      </trkpt>
      <trkpt lat="46.99058" lon="-2.03079">
        <ele>3.1</ele>
        <time>2020-03-11T10:35:53Z</time>
      </trkpt>
      <trkpt lat="46.99056" lon="-2.0302">
        <ele>3.7</ele>
        <time>2020-03-11T10:35:53Z</time>
      </trkpt>
      <trkpt lat="46.99052" lon="-2.02988">
        <ele>3.4</ele>
        <time>2020-03-11T10:35:53Z</time>
      </trkpt>
      <trkpt lat="46.99015" lon="-2.03014">
        <ele>2.8</ele>
        <time>2020-03-11T10:35:53Z</time>
      </trkpt>
      <trkpt lat="46.99004" lon="-2.03039">
        <ele>2.9</ele>
        <time>2020-03-11T10:35:53Z</time>
      </trkpt>
      <trkpt lat="46.98984" lon="-2.03045">
        <ele>2.6</ele>
        <time>2020-03-11T10:35:53Z</time>
      </trkpt>
      <trkpt lat="46.98957" lon="-2.03045">
        <ele>2.7</ele>
        <time>2020-03-11T10:35:53Z</time>
      </trkpt>
      <trkpt lat="46.98939" lon="-2.03058">
        <ele>2.8</ele>
        <time>2020-03-11T10:35:53Z</time>
      </trkpt>
      <trkpt lat="46.98928" lon="-2.03079">
        <ele>2.6</ele>
        <time>2020-03-11T10:35:53Z</time>
      </trkpt>
      <trkpt lat="46.98909" lon="-2.03119">
        <ele>2.6</ele>
        <time>2020-03-11T10:35:53Z</time>
      </trkpt>
      <trkpt lat="46.98895" lon="-2.03141">
        <ele>2.7</ele>
        <time>2020-03-11T10:35:53Z</time>
      </trkpt>
      <trkpt lat="46.98877" lon="-2.03151">
        <ele>2.3</ele>
        <time>2020-03-11T10:35:53Z</time>
      </trkpt>
      <trkpt lat="46.98857" lon="-2.0315">
        <ele>2.1</ele>
        <time>2020-03-11T10:35:53Z</time>
      </trkpt>
      <trkpt lat="46.98833" lon="-2.03138">
        <ele>2.9</ele>
        <time>2020-03-11T10:35:53Z</time>
      </trkpt>
      <trkpt lat="46.98809" lon="-2.0312">
        <ele>2.6</ele>
        <time>2020-03-11T10:35:53Z</time>
      </trkpt>
      <trkpt lat="46.98779" lon="-2.03096">
        <ele>2.5</ele>
        <time>2020-03-11T10:35:53Z</time>
      </trkpt>
      <trkpt lat="46.98764" lon="-2.03081">
        <ele>2.5</ele>
        <time>2020-03-11T10:35:53Z</time>
      </trkpt>
      <trkpt lat="46.98747" lon="-2.03052">
        <ele>2.8</ele>
        <time>2020-03-11T10:35:53Z</time>
      </trkpt>
      <trkpt lat="46.98728" lon="-2.0302">
        <ele>2.8</ele>
        <time>2020-03-11T10:35:53Z</time>
      </trkpt>
      <trkpt lat="46.98709" lon="-2.02993">
        <ele>2.4</ele>
        <time>2020-03-11T10:35:53Z</time>
      </trkpt>
      <trkpt lat="46.98694" lon="-2.02968">
        <ele>2.8</ele>
        <time>2020-03-11T10:35:53Z</time>
      </trkpt>
      <trkpt lat="46.9868" lon="-2.02943">
        <ele>2</ele>
        <time>2020-03-11T10:35:53Z</time>
      </trkpt>
      <trkpt lat="46.98657" lon="-2.02931">
        <ele>2.2</ele>
        <time>2020-03-11T10:35:53Z</time>
      </trkpt>
      <trkpt lat="46.98615" lon="-2.02922">
        <ele>2.8</ele>
        <time>2020-03-11T10:35:53Z</time>
      </trkpt>
      <trkpt lat="46.98594" lon="-2.02918">
        <ele>3</ele>
        <time>2020-03-11T10:35:53Z</time>
      </trkpt>
      <trkpt lat="46.98579" lon="-2.02938">
        <ele>3</ele>
        <time>2020-03-11T10:35:53Z</time>
      </trkpt>
      <trkpt lat="46.98558" lon="-2.02977">
        <ele>3</ele>
        <time>2020-03-11T10:35:53Z</time>
      </trkpt>
      <trkpt lat="46.98541" lon="-2.03013">
        <ele>2.8</ele>
        <time>2020-03-11T10:35:53Z</time>
      </trkpt>
      <trkpt lat="46.9853" lon="-2.03036">
        <ele>2.3</ele>
        <time>2020-03-11T10:35:53Z</time>
      </trkpt>
      <trkpt lat="46.98514" lon="-2.03077">
        <ele>2.6</ele>
        <time>2020-03-11T10:35:53Z</time>
      </trkpt>
      <trkpt lat="46.98505" lon="-2.03104">
        <ele>2.8</ele>
        <time>2020-03-11T10:35:53Z</time>
      </trkpt>
      <trkpt lat="46.98494" lon="-2.0313">
        <ele>3</ele>
        <time>2020-03-11T10:35:53Z</time>
      </trkpt>
      <trkpt lat="46.98478" lon="-2.03146">
        <ele>2.7</ele>
        <time>2020-03-11T10:35:53Z</time>
      </trkpt>
      <trkpt lat="46.98438" lon="-2.03137">
        <ele>3.7</ele>
        <time>2020-03-11T10:35:53Z</time>
      </trkpt>
      <trkpt lat="46.9842" lon="-2.03132">
        <ele>3.1</ele>
        <time>2020-03-11T10:35:53Z</time>
      </trkpt>
      <trkpt lat="46.98388" lon="-2.03118">
        <ele>2</ele>
        <time>2020-03-11T10:35:53Z</time>
      </trkpt>
      <trkpt lat="46.98368" lon="-2.03112">
        <ele>2.7</ele>
        <time>2020-03-11T10:35:53Z</time>
      </trkpt>
      <trkpt lat="46.98271" lon="-2.03108">
        <ele>3</ele>
        <time>2020-03-11T10:35:53Z</time>
      </trkpt>
      <trkpt lat="46.98253" lon="-2.03094">
        <ele>3</ele>
        <time>2020-03-11T10:35:53Z</time>
      </trkpt>
      <trkpt lat="46.9825" lon="-2.03067">
        <ele>3</ele>
        <time>2020-03-11T10:35:53Z</time>
      </trkpt>
      <trkpt lat="46.98223" lon="-2.0305">
        <ele>3.6</ele>
        <time>2020-03-11T10:35:53Z</time>
      </trkpt>
      <trkpt lat="46.98205" lon="-2.03056">
        <ele>3.4</ele>
        <time>2020-03-11T10:35:53Z</time>
      </trkpt>
      <trkpt lat="46.98185" lon="-2.03065">
        <ele>3</ele>
        <time>2020-03-11T10:35:53Z</time>
      </trkpt>
      <trkpt lat="46.98168" lon="-2.03077">
        <ele>3</ele>
        <time>2020-03-11T10:35:53Z</time>
      </trkpt>
      <trkpt lat="46.98162" lon="-2.03131">
        <ele>3</ele>
        <time>2020-03-11T10:35:53Z</time>
      </trkpt>
      <trkpt lat="46.98155" lon="-2.03199">
        <ele>2.4</ele>
        <time>2020-03-11T10:35:53Z</time>
      </trkpt>
      <trkpt lat="46.98144" lon="-2.03224">
        <ele>2.8</ele>
        <time>2020-03-11T10:35:53Z</time>
      </trkpt>
      <trkpt lat="46.9811" lon="-2.03231">
        <ele>2.7</ele>
        <time>2020-03-11T10:35:53Z</time>
      </trkpt>
      <trkpt lat="46.98089" lon="-2.03237">
        <ele>2.5</ele>
        <time>2020-03-11T10:35:53Z</time>
      </trkpt>
      <trkpt lat="46.98073" lon="-2.03251">
        <ele>3</ele>
        <time>2020-03-11T10:35:53Z</time>
      </trkpt>
      <trkpt lat="46.98047" lon="-2.03255">
        <ele>2.9</ele>
        <time>2020-03-11T10:35:53Z</time>
      </trkpt>
      <trkpt lat="46.98024" lon="-2.03251">
        <ele>3</ele>
        <time>2020-03-11T10:35:53Z</time>
      </trkpt>
      <trkpt lat="46.98" lon="-2.03247">
        <ele>2.9</ele>
        <time>2020-03-11T10:35:53Z</time>
      </trkpt>
      <trkpt lat="46.9798" lon="-2.03249">
        <ele>3</ele>
        <time>2020-03-11T10:35:53Z</time>
      </trkpt>
      <trkpt lat="46.97968" lon="-2.03276">
        <ele>3</ele>
        <time>2020-03-11T10:35:53Z</time>
      </trkpt>
      <trkpt lat="46.97963" lon="-2.0331">
        <ele>2.9</ele>
        <time>2020-03-11T10:35:53Z</time>
      </trkpt>
      <trkpt lat="46.97955" lon="-2.03368">
        <ele>2.5</ele>
        <time>2020-03-11T10:35:53Z</time>
      </trkpt>
      <trkpt lat="46.97944" lon="-2.03396">
        <ele>3</ele>
        <time>2020-03-11T10:35:53Z</time>
      </trkpt>
      <trkpt lat="46.9788" lon="-2.03432">
        <ele>2.9</ele>
        <time>2020-03-11T10:35:53Z</time>
      </trkpt>
      <trkpt lat="46.97841" lon="-2.03454">
        <ele>3.1</ele>
        <time>2020-03-11T10:35:53Z</time>
      </trkpt>
      <trkpt lat="46.97822" lon="-2.03466">
        <ele>3</ele>
        <time>2020-03-11T10:35:53Z</time>
      </trkpt>
      <trkpt lat="46.978" lon="-2.03482">
        <ele>2.6</ele>
        <time>2020-03-11T10:35:53Z</time>
      </trkpt>
      <trkpt lat="46.97781" lon="-2.03486">
        <ele>2.5</ele>
        <time>2020-03-11T10:35:53Z</time>
      </trkpt>
      <trkpt lat="46.97758" lon="-2.03487">
        <ele>2.5</ele>
        <time>2020-03-11T10:35:53Z</time>
      </trkpt>
      <trkpt lat="46.97729" lon="-2.03488">
        <ele>2.9</ele>
        <time>2020-03-11T10:35:53Z</time>
      </trkpt>
      <trkpt lat="46.97707" lon="-2.0349">
        <ele>3</ele>
        <time>2020-03-11T10:35:53Z</time>
      </trkpt>
      <trkpt lat="46.97676" lon="-2.03489">
        <ele>2.7</ele>
        <time>2020-03-11T10:35:53Z</time>
      </trkpt>
      <trkpt lat="46.97653" lon="-2.03486">
        <ele>2.7</ele>
        <time>2020-03-11T10:35:53Z</time>
      </trkpt>
      <trkpt lat="46.97633" lon="-2.03482">
        <ele>3</ele>
        <time>2020-03-11T10:35:53Z</time>
      </trkpt>
      <trkpt lat="46.97614" lon="-2.03472">
        <ele>3</ele>
        <time>2020-03-11T10:35:53Z</time>
      </trkpt>
      <trkpt lat="46.9758" lon="-2.03446">
        <ele>3</ele>
        <time>2020-03-11T10:35:53Z</time>
      </trkpt>
      <trkpt lat="46.97559" lon="-2.03431">
        <ele>3</ele>
        <time>2020-03-11T10:35:53Z</time>
      </trkpt>
      <trkpt lat="46.97525" lon="-2.03413">
        <ele>3</ele>
        <time>2020-03-11T10:35:53Z</time>
      </trkpt>
      <trkpt lat="46.97499" lon="-2.03402">
        <ele>2.5</ele>
        <time>2020-03-11T10:35:53Z</time>
      </trkpt>
      <trkpt lat="46.97477" lon="-2.03395">
        <ele>2.7</ele>
        <time>2020-03-11T10:35:53Z</time>
      </trkpt>
      <trkpt lat="46.97458" lon="-2.0339">
        <ele>3</ele>
        <time>2020-03-11T10:35:53Z</time>
      </trkpt>
      <trkpt lat="46.97421" lon="-2.03381">
        <ele>2.4</ele>
        <time>2020-03-11T10:35:53Z</time>
      </trkpt>
      <trkpt lat="46.97394" lon="-2.03375">
        <ele>2.9</ele>
        <time>2020-03-11T10:35:53Z</time>
      </trkpt>
      <trkpt lat="46.9737" lon="-2.03373">
        <ele>3</ele>
        <time>2020-03-11T10:35:53Z</time>
      </trkpt>
      <trkpt lat="46.97347" lon="-2.03373">
        <ele>3</ele>
        <time>2020-03-11T10:35:53Z</time>
      </trkpt>
      <trkpt lat="46.97329" lon="-2.03378">
        <ele>3</ele>
        <time>2020-03-11T10:35:53Z</time>
      </trkpt>
      <trkpt lat="46.9731" lon="-2.03385">
        <ele>3</ele>
        <time>2020-03-11T10:35:53Z</time>
      </trkpt>
      <trkpt lat="46.97271" lon="-2.03394">
        <ele>3</ele>
        <time>2020-03-11T10:35:53Z</time>
      </trkpt>
      <trkpt lat="46.97248" lon="-2.03397">
        <ele>3</ele>
        <time>2020-03-11T10:35:53Z</time>
      </trkpt>
      <trkpt lat="46.97227" lon="-2.03394">
        <ele>3</ele>
        <time>2020-03-11T10:35:53Z</time>
      </trkpt>
      <trkpt lat="46.97202" lon="-2.0339">
        <ele>3</ele>
        <time>2020-03-11T10:35:53Z</time>
      </trkpt>
      <trkpt lat="46.97176" lon="-2.0339">
        <ele>3.6</ele>
        <time>2020-03-11T10:35:53Z</time>
      </trkpt>
      <trkpt lat="46.97158" lon="-2.03393">
        <ele>3.6</ele>
        <time>2020-03-11T10:35:53Z</time>
      </trkpt>
      <trkpt lat="46.97137" lon="-2.03393">
        <ele>3</ele>
        <time>2020-03-11T10:35:53Z</time>
      </trkpt>
      <trkpt lat="46.97116" lon="-2.03381">
        <ele>3</ele>
        <time>2020-03-11T10:35:53Z</time>
      </trkpt>
      <trkpt lat="46.97101" lon="-2.03365">
        <ele>3</ele>
        <time>2020-03-11T10:35:53Z</time>
      </trkpt>
      <trkpt lat="46.97077" lon="-2.03349">
        <ele>3</ele>
        <time>2020-03-11T10:35:53Z</time>
      </trkpt>
      <trkpt lat="46.9704" lon="-2.03343">
        <ele>3.4</ele>
        <time>2020-03-11T10:35:53Z</time>
      </trkpt>
      <trkpt lat="46.9701" lon="-2.03341">
        <ele>3.3</ele>
        <time>2020-03-11T10:35:53Z</time>
      </trkpt>
      <trkpt lat="46.96981" lon="-2.03342">
        <ele>3</ele>
        <time>2020-03-11T10:35:53Z</time>
      </trkpt>
      <trkpt lat="46.96952" lon="-2.03347">
        <ele>3</ele>
        <time>2020-03-11T10:35:53Z</time>
      </trkpt>
      <trkpt lat="46.96929" lon="-2.03348">
        <ele>3.6</ele>
        <time>2020-03-11T10:35:53Z</time>
      </trkpt>
      <trkpt lat="46.9691" lon="-2.03345">
        <ele>4</ele>
        <time>2020-03-11T10:35:53Z</time>
      </trkpt>
      <trkpt lat="46.96888" lon="-2.03347">
        <ele>4</ele>
        <time>2020-03-11T10:35:53Z</time>
      </trkpt>
      <trkpt lat="46.96887" lon="-2.03375">
        <ele>4.4</ele>
        <time>2020-03-11T10:35:53Z</time>
      </trkpt>
      <trkpt lat="46.96874" lon="-2.03686">
        <ele>1.8</ele>
        <time>2020-03-11T10:35:53Z</time>
      </trkpt>
      <trkpt lat="46.9687" lon="-2.03727">
        <ele>2.1</ele>
        <time>2020-03-11T10:35:53Z</time>
      </trkpt>
      <trkpt lat="46.96858" lon="-2.0382">
        <ele>3.8</ele>
        <time>2020-03-11T10:35:53Z</time>
      </trkpt>
      <trkpt lat="46.96849" lon="-2.03889">
        <ele>3</ele>
        <time>2020-03-11T10:35:53Z</time>
      </trkpt>
      <trkpt lat="46.96836" lon="-2.03937">
        <ele>3</ele>
        <time>2020-03-11T10:35:53Z</time>
      </trkpt>
      <trkpt lat="46.9683" lon="-2.04019">
        <ele>3.7</ele>
        <time>2020-03-11T10:35:53Z</time>
      </trkpt>
      <trkpt lat="46.96826" lon="-2.04064">
        <ele>3.2</ele>
        <time>2020-03-11T10:35:53Z</time>
      </trkpt>
      <trkpt lat="46.96818" lon="-2.04161">
        <ele>2.1</ele>
        <time>2020-03-11T10:35:53Z</time>
      </trkpt>
      <trkpt lat="46.96814" lon="-2.04193">
        <ele>2.7</ele>
        <time>2020-03-11T10:35:53Z</time>
      </trkpt>
      <trkpt lat="46.96802" lon="-2.04216">
        <ele>2.8</ele>
        <time>2020-03-11T10:35:53Z</time>
      </trkpt>
      <trkpt lat="46.96796" lon="-2.04266">
        <ele>2.7</ele>
        <time>2020-03-11T10:35:53Z</time>
      </trkpt>
      <trkpt lat="46.96794" lon="-2.04295">
        <ele>2.6</ele>
        <time>2020-03-11T10:35:53Z</time>
      </trkpt>
      <trkpt lat="46.96787" lon="-2.04335">
        <ele>2.7</ele>
        <time>2020-03-11T10:35:53Z</time>
      </trkpt>
      <trkpt lat="46.9677" lon="-2.04352">
        <ele>2.7</ele>
        <time>2020-03-11T10:35:53Z</time>
      </trkpt>
      <trkpt lat="46.96743" lon="-2.04356">
        <ele>2.6</ele>
        <time>2020-03-11T10:35:53Z</time>
      </trkpt>
      <trkpt lat="46.96716" lon="-2.04371">
        <ele>2.1</ele>
        <time>2020-03-11T10:35:53Z</time>
      </trkpt>
      <trkpt lat="46.96683" lon="-2.0439">
        <ele>2.5</ele>
        <time>2020-03-11T10:35:53Z</time>
      </trkpt>
      <trkpt lat="46.96665" lon="-2.04398">
        <ele>2</ele>
        <time>2020-03-11T10:35:53Z</time>
      </trkpt>
      <trkpt lat="46.96641" lon="-2.04399">
        <ele>2</ele>
        <time>2020-03-11T10:35:53Z</time>
      </trkpt>
      <trkpt lat="46.96569" lon="-2.04386">
        <ele>2.9</ele>
        <time>2020-03-11T10:35:53Z</time>
      </trkpt>
      <trkpt lat="46.96477" lon="-2.04369">
        <ele>2</ele>
        <time>2020-03-11T10:35:53Z</time>
      </trkpt>
      <trkpt lat="46.96429" lon="-2.04361">
        <ele>3</ele>
        <time>2020-03-11T10:35:53Z</time>
      </trkpt>
      <trkpt lat="46.96402" lon="-2.04357">
        <ele>2.9</ele>
        <time>2020-03-11T10:35:53Z</time>
      </trkpt>
      <trkpt lat="46.96382" lon="-2.04353">
        <ele>2.7</ele>
        <time>2020-03-11T10:35:53Z</time>
      </trkpt>
      <trkpt lat="46.96347" lon="-2.04345">
        <ele>2.4</ele>
        <time>2020-03-11T10:35:53Z</time>
      </trkpt>
      <trkpt lat="46.96305" lon="-2.04339">
        <ele>3</ele>
        <time>2020-03-11T10:35:53Z</time>
      </trkpt>
      <trkpt lat="46.96279" lon="-2.04335">
        <ele>2.9</ele>
        <time>2020-03-11T10:35:53Z</time>
      </trkpt>
      <trkpt lat="46.9622" lon="-2.04325">
        <ele>2.7</ele>
        <time>2020-03-11T10:35:53Z</time>
      </trkpt>
      <trkpt lat="46.96201" lon="-2.04322">
        <ele>2.6</ele>
        <time>2020-03-11T10:35:53Z</time>
      </trkpt>
      <trkpt lat="46.9617" lon="-2.04316">
        <ele>2</ele>
        <time>2020-03-11T10:35:53Z</time>
      </trkpt>
      <trkpt lat="46.9615" lon="-2.04315">
        <ele>2</ele>
        <time>2020-03-11T10:35:53Z</time>
      </trkpt>
      <trkpt lat="46.96128" lon="-2.04308">
        <ele>2</ele>
        <time>2020-03-11T10:35:53Z</time>
      </trkpt>
      <trkpt lat="46.96041" lon="-2.04292">
        <ele>2.2</ele>
        <time>2020-03-11T10:35:53Z</time>
      </trkpt>
      <trkpt lat="46.95915" lon="-2.04271">
        <ele>2.8</ele>
        <time>2020-03-11T10:35:53Z</time>
      </trkpt>
      <trkpt lat="46.95845" lon="-2.04257">
        <ele>2.1</ele>
        <time>2020-03-11T10:35:53Z</time>
      </trkpt>
      <trkpt lat="46.9579" lon="-2.04248">
        <ele>2.9</ele>
        <time>2020-03-11T10:35:53Z</time>
      </trkpt>
      <trkpt lat="46.95738" lon="-2.0424">
        <ele>2.6</ele>
        <time>2020-03-11T10:35:53Z</time>
      </trkpt>
      <trkpt lat="46.95707" lon="-2.04242">
        <ele>2.7</ele>
        <time>2020-03-11T10:35:53Z</time>
      </trkpt>
      <trkpt lat="46.95673" lon="-2.04257">
        <ele>2.4</ele>
        <time>2020-03-11T10:35:53Z</time>
      </trkpt>
      <trkpt lat="46.95623" lon="-2.0429">
        <ele>2.7</ele>
        <time>2020-03-11T10:35:53Z</time>
      </trkpt>
      <trkpt lat="46.95544" lon="-2.04345">
        <ele>2.8</ele>
        <time>2020-03-11T10:35:53Z</time>
      </trkpt>
      <trkpt lat="46.9547" lon="-2.04399">
        <ele>2.3</ele>
        <time>2020-03-11T10:35:53Z</time>
      </trkpt>
      <trkpt lat="46.95402" lon="-2.04447">
        <ele>2</ele>
        <time>2020-03-11T10:35:53Z</time>
      </trkpt>
      <trkpt lat="46.95313" lon="-2.04508">
        <ele>2</ele>
        <time>2020-03-11T10:35:53Z</time>
      </trkpt>
      <trkpt lat="46.9529" lon="-2.04525">
        <ele>2</ele>
        <time>2020-03-11T10:35:53Z</time>
      </trkpt>
      <trkpt lat="46.95273" lon="-2.04538">
        <ele>2</ele>
        <time>2020-03-11T10:35:53Z</time>
      </trkpt>
      <trkpt lat="46.95174" lon="-2.04606">
        <ele>2</ele>
        <time>2020-03-11T10:35:53Z</time>
      </trkpt>
      <trkpt lat="46.95119" lon="-2.04646">
        <ele>1.4</ele>
        <time>2020-03-11T10:35:53Z</time>
      </trkpt>
      <trkpt lat="46.9506" lon="-2.04687">
        <ele>2</ele>
        <time>2020-03-11T10:35:53Z</time>
      </trkpt>
      <trkpt lat="46.95036" lon="-2.04701">
        <ele>1.9</ele>
        <time>2020-03-11T10:35:53Z</time>
      </trkpt>
      <trkpt lat="46.94975" lon="-2.04743">
        <ele>2.7</ele>
        <time>2020-03-11T10:35:53Z</time>
      </trkpt>
      <trkpt lat="46.94895" lon="-2.04555">
        <ele>2</ele>
        <time>2020-03-11T10:35:53Z</time>
      </trkpt>
      <trkpt lat="46.94826" lon="-2.04348">
        <ele>2.8</ele>
        <time>2020-03-11T10:35:53Z</time>
      </trkpt>
      <trkpt lat="46.94808" lon="-2.0433">
        <ele>3.1</ele>
        <time>2020-03-11T10:35:53Z</time>
      </trkpt>
      <trkpt lat="46.94786" lon="-2.04336">
        <ele>3.6</ele>
        <time>2020-03-11T10:35:53Z</time>
      </trkpt>
      <trkpt lat="46.94767" lon="-2.04354">
        <ele>3.2</ele>
        <time>2020-03-11T10:35:53Z</time>
      </trkpt>
      <trkpt lat="46.94726" lon="-2.04391">
        <ele>3.8</ele>
        <time>2020-03-11T10:35:53Z</time>
      </trkpt>
      <trkpt lat="46.94699" lon="-2.04416">
        <ele>3</ele>
        <time>2020-03-11T10:35:53Z</time>
      </trkpt>
      <trkpt lat="46.94656" lon="-2.04446">
        <ele>3</ele>
        <time>2020-03-11T10:35:53Z</time>
      </trkpt>
      <trkpt lat="46.94635" lon="-2.04464">
        <ele>3</ele>
        <time>2020-03-11T10:35:53Z</time>
      </trkpt>
      <trkpt lat="46.94594" lon="-2.04503">
        <ele>3.5</ele>
        <time>2020-03-11T10:35:53Z</time>
      </trkpt>
      <trkpt lat="46.94574" lon="-2.04527">
        <ele>2.7</ele>
        <time>2020-03-11T10:35:53Z</time>
      </trkpt>
      <trkpt lat="46.94549" lon="-2.04576">
        <ele>3</ele>
        <time>2020-03-11T10:35:53Z</time>
      </trkpt>
      <trkpt lat="46.94537" lon="-2.04608">
        <ele>2.7</ele>
        <time>2020-03-11T10:35:53Z</time>
      </trkpt>
      <trkpt lat="46.94529" lon="-2.04635">
        <ele>3</ele>
        <time>2020-03-11T10:35:53Z</time>
      </trkpt>
      <trkpt lat="46.94523" lon="-2.04663">
        <ele>2.3</ele>
        <time>2020-03-11T10:35:53Z</time>
      </trkpt>
      <trkpt lat="46.94515" lon="-2.04688">
        <ele>2.8</ele>
        <time>2020-03-11T10:35:53Z</time>
      </trkpt>
      <trkpt lat="46.94499" lon="-2.04725">
        <ele>2.9</ele>
        <time>2020-03-11T10:35:53Z</time>
      </trkpt>
      <trkpt lat="46.94482" lon="-2.0476">
        <ele>2.4</ele>
        <time>2020-03-11T10:35:53Z</time>
      </trkpt>
      <trkpt lat="46.94469" lon="-2.04784">
        <ele>2</ele>
        <time>2020-03-11T10:35:53Z</time>
      </trkpt>
      <trkpt lat="46.94411" lon="-2.0486">
        <ele>2.3</ele>
        <time>2020-03-11T10:35:53Z</time>
      </trkpt>
      <trkpt lat="46.94391" lon="-2.04893">
        <ele>2.8</ele>
        <time>2020-03-11T10:35:53Z</time>
      </trkpt>
      <trkpt lat="46.94376" lon="-2.0492">
        <ele>2.4</ele>
        <time>2020-03-11T10:35:53Z</time>
      </trkpt>
      <trkpt lat="46.94361" lon="-2.04944">
        <ele>2</ele>
        <time>2020-03-11T10:35:53Z</time>
      </trkpt>
      <trkpt lat="46.94339" lon="-2.04971">
        <ele>2.8</ele>
        <time>2020-03-11T10:35:53Z</time>
      </trkpt>
      <trkpt lat="46.94276" lon="-2.05043">
        <ele>2</ele>
        <time>2020-03-11T10:35:53Z</time>
      </trkpt>
      <trkpt lat="46.94236" lon="-2.05089">
        <ele>1.9</ele>
        <time>2020-03-11T10:35:53Z</time>
      </trkpt>
      <trkpt lat="46.94208" lon="-2.05124">
        <ele>2.3</ele>
        <time>2020-03-11T10:35:53Z</time>
      </trkpt>
      <trkpt lat="46.94187" lon="-2.05144">
        <ele>2.5</ele>
        <time>2020-03-11T10:35:53Z</time>
      </trkpt>
      <trkpt lat="46.94171" lon="-2.05131">
        <ele>2.6</ele>
        <time>2020-03-11T10:35:53Z</time>
      </trkpt>
      <trkpt lat="46.94151" lon="-2.05136">
        <ele>2.1</ele>
        <time>2020-03-11T10:35:53Z</time>
      </trkpt>
      <trkpt lat="46.94072" lon="-2.05248">
        <ele>2.9</ele>
        <time>2020-03-11T10:35:53Z</time>
      </trkpt>
      <trkpt lat="46.94059" lon="-2.0527">
        <ele>3.1</ele>
        <time>2020-03-11T10:35:53Z</time>
      </trkpt>
      <trkpt lat="46.94054" lon="-2.05308">
        <ele>2.1</ele>
        <time>2020-03-11T10:35:53Z</time>
      </trkpt>
      <trkpt lat="46.94044" lon="-2.05372">
        <ele>2.2</ele>
        <time>2020-03-11T10:35:53Z</time>
      </trkpt>
      <trkpt lat="46.94035" lon="-2.05417">
        <ele>3.5</ele>
        <time>2020-03-11T10:35:53Z</time>
      </trkpt>
      <trkpt lat="46.94029" lon="-2.05455">
        <ele>2</ele>
        <time>2020-03-11T10:35:53Z</time>
      </trkpt>
      <trkpt lat="46.94025" lon="-2.05483">
        <ele>2.1</ele>
        <time>2020-03-11T10:35:53Z</time>
      </trkpt>
      <trkpt lat="46.94021" lon="-2.05549">
        <ele>2.2</ele>
        <time>2020-03-11T10:35:53Z</time>
      </trkpt>
      <trkpt lat="46.94016" lon="-2.0561">
        <ele>2.4</ele>
        <time>2020-03-11T10:35:53Z</time>
      </trkpt>
      <trkpt lat="46.94011" lon="-2.05655">
        <ele>3.2</ele>
        <time>2020-03-11T10:35:53Z</time>
      </trkpt>
      <trkpt lat="46.94008" lon="-2.05687">
        <ele>3.9</ele>
        <time>2020-03-11T10:35:53Z</time>
      </trkpt>
      <trkpt lat="46.94008" lon="-2.05722">
        <ele>2.4</ele>
        <time>2020-03-11T10:35:53Z</time>
      </trkpt>
      <trkpt lat="46.93999" lon="-2.05749">
        <ele>2.1</ele>
        <time>2020-03-11T10:35:53Z</time>
      </trkpt>
      <trkpt lat="46.93976" lon="-2.05779">
        <ele>2.7</ele>
        <time>2020-03-11T10:35:53Z</time>
      </trkpt>
      <trkpt lat="46.93954" lon="-2.05822">
        <ele>2.5</ele>
        <time>2020-03-11T10:35:53Z</time>
      </trkpt>
      <trkpt lat="46.93926" lon="-2.05867">
        <ele>3</ele>
        <time>2020-03-11T10:35:53Z</time>
      </trkpt>
      <trkpt lat="46.93902" lon="-2.05899">
        <ele>2.5</ele>
        <time>2020-03-11T10:35:53Z</time>
      </trkpt>
      <trkpt lat="46.93868" lon="-2.05952">
        <ele>3.1</ele>
        <time>2020-03-11T10:35:53Z</time>
      </trkpt>
      <trkpt lat="46.93842" lon="-2.05997">
        <ele>3.2</ele>
        <time>2020-03-11T10:35:53Z</time>
      </trkpt>
      <trkpt lat="46.93824" lon="-2.0603">
        <ele>2</ele>
        <time>2020-03-11T10:35:53Z</time>
      </trkpt>
      <trkpt lat="46.9381" lon="-2.06057">
        <ele>2.8</ele>
        <time>2020-03-11T10:35:53Z</time>
      </trkpt>
      <trkpt lat="46.93802" lon="-2.06101">
        <ele>2.3</ele>
        <time>2020-03-11T10:35:53Z</time>
      </trkpt>
      <trkpt lat="46.93794" lon="-2.06144">
        <ele>2.1</ele>
        <time>2020-03-11T10:35:53Z</time>
      </trkpt>
      <trkpt lat="46.93782" lon="-2.06219">
        <ele>2.9</ele>
        <time>2020-03-11T10:35:53Z</time>
      </trkpt>
      <trkpt lat="46.93773" lon="-2.06277">
        <ele>2.2</ele>
        <time>2020-03-11T10:35:53Z</time>
      </trkpt>
      <trkpt lat="46.93768" lon="-2.06303">
        <ele>2.4</ele>
        <time>2020-03-11T10:35:53Z</time>
      </trkpt>
      <trkpt lat="46.93764" lon="-2.06337">
        <ele>2.5</ele>
        <time>2020-03-11T10:35:53Z</time>
      </trkpt>
      <trkpt lat="46.93758" lon="-2.06404">
        <ele>3.4</ele>
        <time>2020-03-11T10:35:53Z</time>
      </trkpt>
      <trkpt lat="46.93754" lon="-2.06432">
        <ele>2.8</ele>
        <time>2020-03-11T10:35:53Z</time>
      </trkpt>
      <trkpt lat="46.93749" lon="-2.06461">
        <ele>2</ele>
        <time>2020-03-11T10:35:53Z</time>
      </trkpt>
      <trkpt lat="46.93728" lon="-2.06526">
        <ele>2.7</ele>
        <time>2020-03-11T10:35:53Z</time>
      </trkpt>
      <trkpt lat="46.93699" lon="-2.06606">
        <ele>2.8</ele>
        <time>2020-03-11T10:35:53Z</time>
      </trkpt>
      <trkpt lat="46.93672" lon="-2.06675">
        <ele>3.1</ele>
        <time>2020-03-11T10:35:53Z</time>
      </trkpt>
      <trkpt lat="46.9366" lon="-2.06703">
        <ele>2</ele>
        <time>2020-03-11T10:35:53Z</time>
      </trkpt>
      <trkpt lat="46.93649" lon="-2.06743">
        <ele>2.5</ele>
        <time>2020-03-11T10:35:53Z</time>
      </trkpt>
      <trkpt lat="46.93642" lon="-2.06802">
        <ele>2.9</ele>
        <time>2020-03-11T10:35:53Z</time>
      </trkpt>
      <trkpt lat="46.93638" lon="-2.0683">
        <ele>3</ele>
        <time>2020-03-11T10:35:53Z</time>
      </trkpt>
      <trkpt lat="46.93636" lon="-2.0687">
        <ele>2</ele>
        <time>2020-03-11T10:35:53Z</time>
      </trkpt>
      <trkpt lat="46.93633" lon="-2.06917">
        <ele>2</ele>
        <time>2020-03-11T10:35:53Z</time>
      </trkpt>
      <trkpt lat="46.93628" lon="-2.06977">
        <ele>2.4</ele>
        <time>2020-03-11T10:35:53Z</time>
      </trkpt>
      <trkpt lat="46.93625" lon="-2.07023">
        <ele>2.5</ele>
        <time>2020-03-11T10:35:53Z</time>
      </trkpt>
      <trkpt lat="46.93619" lon="-2.07062">
        <ele>3.5</ele>
        <time>2020-03-11T10:35:53Z</time>
      </trkpt>
      <trkpt lat="46.93607" lon="-2.07099">
        <ele>4</ele>
        <time>2020-03-11T10:35:53Z</time>
      </trkpt>
      <trkpt lat="46.93585" lon="-2.07098">
        <ele>4</ele>
        <time>2020-03-11T10:35:53Z</time>
      </trkpt>
      <trkpt lat="46.93567" lon="-2.07092">
        <ele>4</ele>
        <time>2020-03-11T10:35:53Z</time>
      </trkpt>
      <trkpt lat="46.93549" lon="-2.07091">
        <ele>3.8</ele>
        <time>2020-03-11T10:35:53Z</time>
      </trkpt>
      <trkpt lat="46.93519" lon="-2.07084">
        <ele>3.3</ele>
        <time>2020-03-11T10:35:53Z</time>
      </trkpt>
      <trkpt lat="46.93502" lon="-2.07098">
        <ele>3</ele>
        <time>2020-03-11T10:35:53Z</time>
      </trkpt>
      <trkpt lat="46.93488" lon="-2.07118">
        <ele>3.3</ele>
        <time>2020-03-11T10:35:53Z</time>
      </trkpt>
      <trkpt lat="46.93462" lon="-2.07138">
        <ele>3</ele>
        <time>2020-03-11T10:35:53Z</time>
      </trkpt>
      <trkpt lat="46.93357" lon="-2.07185">
        <ele>3</ele>
        <time>2020-03-11T10:35:53Z</time>
      </trkpt>
      <trkpt lat="46.93266" lon="-2.0723">
        <ele>3</ele>
        <time>2020-03-11T10:35:53Z</time>
      </trkpt>
      <trkpt lat="46.93171" lon="-2.07273">
        <ele>3</ele>
        <time>2020-03-11T10:35:53Z</time>
      </trkpt>
      <trkpt lat="46.93049" lon="-2.07333">
        <ele>3</ele>
        <time>2020-03-11T10:35:53Z</time>
      </trkpt>
      <trkpt lat="46.92954" lon="-2.07374">
        <ele>3</ele>
        <time>2020-03-11T10:35:53Z</time>
      </trkpt>
      <trkpt lat="46.92745" lon="-2.07468">
        <ele>3</ele>
        <time>2020-03-11T10:35:53Z</time>
      </trkpt>
      <trkpt lat="46.92717" lon="-2.07481">
        <ele>3</ele>
        <time>2020-03-11T10:35:53Z</time>
      </trkpt>
      <trkpt lat="46.92665" lon="-2.07507">
        <ele>3</ele>
        <time>2020-03-11T10:35:53Z</time>
      </trkpt>
      <trkpt lat="46.92621" lon="-2.07532">
        <ele>3</ele>
        <time>2020-03-11T10:35:53Z</time>
      </trkpt>
      <trkpt lat="46.92616" lon="-2.07579">
        <ele>3</ele>
        <time>2020-03-11T10:35:53Z</time>
      </trkpt>
      <trkpt lat="46.92605" lon="-2.07609">
        <ele>3</ele>
        <time>2020-03-11T10:35:53Z</time>
      </trkpt>
      <trkpt lat="46.92583" lon="-2.07631">
        <ele>3</ele>
        <time>2020-03-11T10:35:53Z</time>
      </trkpt>
      <trkpt lat="46.92569" lon="-2.07656">
        <ele>3</ele>
        <time>2020-03-11T10:35:53Z</time>
      </trkpt>
      <trkpt lat="46.92564" lon="-2.07682">
        <ele>3</ele>
        <time>2020-03-11T10:35:53Z</time>
      </trkpt>
      <trkpt lat="46.92562" lon="-2.07709">
        <ele>2.6</ele>
        <time>2020-03-11T10:35:53Z</time>
      </trkpt>
      <trkpt lat="46.92562" lon="-2.0776">
        <ele>2.5</ele>
        <time>2020-03-11T10:35:53Z</time>
      </trkpt>
      <trkpt lat="46.92564" lon="-2.07796">
        <ele>3</ele>
        <time>2020-03-11T10:35:53Z</time>
      </trkpt>
      <trkpt lat="46.9257" lon="-2.0783">
        <ele>3</ele>
        <time>2020-03-11T10:35:53Z</time>
      </trkpt>
      <trkpt lat="46.92578" lon="-2.07854">
        <ele>3</ele>
        <time>2020-03-11T10:35:53Z</time>
      </trkpt>
      <trkpt lat="46.92591" lon="-2.0788">
        <ele>3</ele>
        <time>2020-03-11T10:35:53Z</time>
      </trkpt>
      <trkpt lat="46.92606" lon="-2.07909">
        <ele>3</ele>
        <time>2020-03-11T10:35:53Z</time>
      </trkpt>
      <trkpt lat="46.92602" lon="-2.07939">
        <ele>2.5</ele>
        <time>2020-03-11T10:35:53Z</time>
      </trkpt>
      <trkpt lat="46.92583" lon="-2.07954">
        <ele>3</ele>
        <time>2020-03-11T10:35:53Z</time>
      </trkpt>
      <trkpt lat="46.92565" lon="-2.07966">
        <ele>3</ele>
        <time>2020-03-11T10:35:53Z</time>
      </trkpt>
      <trkpt lat="46.92545" lon="-2.07976">
        <ele>2.7</ele>
        <time>2020-03-11T10:35:53Z</time>
      </trkpt>
      <trkpt lat="46.92523" lon="-2.07988">
        <ele>2.6</ele>
        <time>2020-03-11T10:35:53Z</time>
      </trkpt>
      <trkpt lat="46.92499" lon="-2.08002">
        <ele>3</ele>
        <time>2020-03-11T10:35:53Z</time>
      </trkpt>
      <trkpt lat="46.92482" lon="-2.08013">
        <ele>3</ele>
        <time>2020-03-11T10:35:53Z</time>
      </trkpt>
      <trkpt lat="46.92458" lon="-2.08026">
        <ele>3</ele>
        <time>2020-03-11T10:35:53Z</time>
      </trkpt>
      <trkpt lat="46.92441" lon="-2.08042">
        <ele>2.9</ele>
        <time>2020-03-11T10:35:53Z</time>
      </trkpt>
      <trkpt lat="46.92418" lon="-2.08061">
        <ele>2.2</ele>
        <time>2020-03-11T10:35:53Z</time>
      </trkpt>
      <trkpt lat="46.92392" lon="-2.08076">
        <ele>3</ele>
        <time>2020-03-11T10:35:53Z</time>
      </trkpt>
      <trkpt lat="46.92348" lon="-2.08098">
        <ele>3</ele>
        <time>2020-03-11T10:35:53Z</time>
      </trkpt>
      <trkpt lat="46.92323" lon="-2.08113">
        <ele>2.7</ele>
        <time>2020-03-11T10:35:53Z</time>
      </trkpt>
      <trkpt lat="46.92297" lon="-2.08131">
        <ele>2.8</ele>
        <time>2020-03-11T10:35:53Z</time>
      </trkpt>
      <trkpt lat="46.92279" lon="-2.0814">
        <ele>3</ele>
        <time>2020-03-11T10:35:53Z</time>
      </trkpt>
      <trkpt lat="46.92261" lon="-2.08141">
        <ele>3</ele>
        <time>2020-03-11T10:35:53Z</time>
      </trkpt>
      <trkpt lat="46.92241" lon="-2.0815">
        <ele>3</ele>
        <time>2020-03-11T10:35:53Z</time>
      </trkpt>
      <trkpt lat="46.92198" lon="-2.0816">
        <ele>3</ele>
        <time>2020-03-11T10:35:53Z</time>
      </trkpt>
      <trkpt lat="46.92167" lon="-2.08166">
        <ele>3</ele>
        <time>2020-03-11T10:35:53Z</time>
      </trkpt>
      <trkpt lat="46.92142" lon="-2.08174">
        <ele>3</ele>
        <time>2020-03-11T10:35:53Z</time>
      </trkpt>
      <trkpt lat="46.92118" lon="-2.08185">
        <ele>3</ele>
        <time>2020-03-11T10:35:53Z</time>
      </trkpt>
      <trkpt lat="46.92097" lon="-2.08192">
        <ele>2.5</ele>
        <time>2020-03-11T10:35:53Z</time>
      </trkpt>
      <trkpt lat="46.92069" lon="-2.08197">
        <ele>2.6</ele>
        <time>2020-03-11T10:35:53Z</time>
      </trkpt>
      <trkpt lat="46.92046" lon="-2.08194">
        <ele>2.7</ele>
        <time>2020-03-11T10:35:53Z</time>
      </trkpt>
      <trkpt lat="46.92027" lon="-2.08186">
        <ele>2.3</ele>
        <time>2020-03-11T10:35:53Z</time>
      </trkpt>
      <trkpt lat="46.92015" lon="-2.08163">
        <ele>3</ele>
        <time>2020-03-11T10:35:53Z</time>
      </trkpt>
      <trkpt lat="46.92005" lon="-2.08132">
        <ele>2.8</ele>
        <time>2020-03-11T10:35:53Z</time>
      </trkpt>
      <trkpt lat="46.91992" lon="-2.08111">
        <ele>2.3</ele>
        <time>2020-03-11T10:35:53Z</time>
      </trkpt>
      <trkpt lat="46.91976" lon="-2.08098">
        <ele>2.9</ele>
        <time>2020-03-11T10:35:53Z</time>
      </trkpt>
      <trkpt lat="46.91954" lon="-2.08096">
        <ele>3</ele>
        <time>2020-03-11T10:35:53Z</time>
      </trkpt>
      <trkpt lat="46.91931" lon="-2.08084">
        <ele>3</ele>
        <time>2020-03-11T10:35:53Z</time>
      </trkpt>
      <trkpt lat="46.91892" lon="-2.08176">
        <ele>3</ele>
        <time>2020-03-11T10:35:53Z</time>
      </trkpt>
      <trkpt lat="46.91863" lon="-2.08157">
        <ele>3</ele>
        <time>2020-03-11T10:35:53Z</time>
      </trkpt>
      <trkpt lat="46.91847" lon="-2.08176">
        <ele>3</ele>
        <time>2020-03-11T10:35:53Z</time>
      </trkpt>
      <trkpt lat="46.9183" lon="-2.08186">
        <ele>2.9</ele>
        <time>2020-03-11T10:35:53Z</time>
      </trkpt>
      <trkpt lat="46.91814" lon="-2.08199">
        <ele>2.4</ele>
        <time>2020-03-11T10:35:53Z</time>
      </trkpt>
      <trkpt lat="46.91803" lon="-2.08231">
        <ele>2.6</ele>
        <time>2020-03-11T10:35:53Z</time>
      </trkpt>
      <trkpt lat="46.91782" lon="-2.08262">
        <ele>2.1</ele>
        <time>2020-03-11T10:35:53Z</time>
      </trkpt>
      <trkpt lat="46.91761" lon="-2.08282">
        <ele>2.5</ele>
        <time>2020-03-11T10:35:53Z</time>
      </trkpt>
      <trkpt lat="46.91728" lon="-2.08297">
        <ele>2.3</ele>
        <time>2020-03-11T10:35:53Z</time>
      </trkpt>
      <trkpt lat="46.91708" lon="-2.0831">
        <ele>2</ele>
        <time>2020-03-11T10:35:53Z</time>
      </trkpt>
      <trkpt lat="46.91689" lon="-2.08321">
        <ele>2.1</ele>
        <time>2020-03-11T10:35:53Z</time>
      </trkpt>
      <trkpt lat="46.91667" lon="-2.08334">
        <ele>2</ele>
        <time>2020-03-11T10:35:53Z</time>
      </trkpt>
      <trkpt lat="46.91648" lon="-2.08335">
        <ele>2</ele>
        <time>2020-03-11T10:35:53Z</time>
      </trkpt>
      <trkpt lat="46.91632" lon="-2.08321">
        <ele>2.1</ele>
        <time>2020-03-11T10:35:53Z</time>
      </trkpt>
      <trkpt lat="46.91617" lon="-2.08274">
        <ele>2.2</ele>
        <time>2020-03-11T10:35:53Z</time>
      </trkpt>
      <trkpt lat="46.91603" lon="-2.08233">
        <ele>2</ele>
        <time>2020-03-11T10:35:53Z</time>
      </trkpt>
      <trkpt lat="46.91584" lon="-2.08219">
        <ele>2.1</ele>
        <time>2020-03-11T10:35:53Z</time>
      </trkpt>
      <trkpt lat="46.91559" lon="-2.08246">
        <ele>2.7</ele>
        <time>2020-03-11T10:35:53Z</time>
      </trkpt>
      <trkpt lat="46.91543" lon="-2.08269">
        <ele>2.2</ele>
        <time>2020-03-11T10:35:53Z</time>
      </trkpt>
      <trkpt lat="46.91523" lon="-2.08292">
        <ele>2</ele>
        <time>2020-03-11T10:35:53Z</time>
      </trkpt>
      <trkpt lat="46.91504" lon="-2.08296">
        <ele>2</ele>
        <time>2020-03-11T10:35:53Z</time>
      </trkpt>
      <trkpt lat="46.91489" lon="-2.08275">
        <ele>2.4</ele>
        <time>2020-03-11T10:35:53Z</time>
      </trkpt>
      <trkpt lat="46.91485" lon="-2.08237">
        <ele>2</ele>
        <time>2020-03-11T10:35:53Z</time>
      </trkpt>
      <trkpt lat="46.91483" lon="-2.08209">
        <ele>2.3</ele>
        <time>2020-03-11T10:35:53Z</time>
      </trkpt>
      <trkpt lat="46.91484" lon="-2.08178">
        <ele>2.2</ele>
        <time>2020-03-11T10:35:53Z</time>
      </trkpt>
      <trkpt lat="46.91476" lon="-2.08128">
        <ele>2.6</ele>
        <time>2020-03-11T10:35:53Z</time>
      </trkpt>
      <trkpt lat="46.91467" lon="-2.08084">
        <ele>2</ele>
        <time>2020-03-11T10:35:53Z</time>
      </trkpt>
      <trkpt lat="46.91445" lon="-2.08076">
        <ele>2.3</ele>
        <time>2020-03-11T10:35:53Z</time>
      </trkpt>
      <trkpt lat="46.91422" lon="-2.08066">
        <ele>2.4</ele>
        <time>2020-03-11T10:35:53Z</time>
      </trkpt>
      <trkpt lat="46.914" lon="-2.08051">
        <ele>2.2</ele>
        <time>2020-03-11T10:35:53Z</time>
      </trkpt>
      <trkpt lat="46.91379" lon="-2.08039">
        <ele>2.7</ele>
        <time>2020-03-11T10:35:53Z</time>
      </trkpt>
      <trkpt lat="46.91361" lon="-2.08036">
        <ele>3</ele>
        <time>2020-03-11T10:35:53Z</time>
      </trkpt>
      <trkpt lat="46.91343" lon="-2.08059">
        <ele>2.9</ele>
        <time>2020-03-11T10:35:53Z</time>
      </trkpt>
      <trkpt lat="46.91337" lon="-2.08085">
        <ele>2.2</ele>
        <time>2020-03-11T10:35:53Z</time>
      </trkpt>
      <trkpt lat="46.91323" lon="-2.08109">
        <ele>2.9</ele>
        <time>2020-03-11T10:35:53Z</time>
      </trkpt>
      <trkpt lat="46.91303" lon="-2.08112">
        <ele>3</ele>
        <time>2020-03-11T10:35:53Z</time>
      </trkpt>
      <trkpt lat="46.91272" lon="-2.08108">
        <ele>2.9</ele>
        <time>2020-03-11T10:35:53Z</time>
      </trkpt>
      <trkpt lat="46.91238" lon="-2.081">
        <ele>2.6</ele>
        <time>2020-03-11T10:35:53Z</time>
      </trkpt>
      <trkpt lat="46.91241" lon="-2.08035">
        <ele>2.9</ele>
        <time>2020-03-11T10:35:53Z</time>
      </trkpt>
      <trkpt lat="46.91249" lon="-2.07876">
        <ele>3</ele>
        <time>2020-03-11T10:35:53Z</time>
      </trkpt>
      <trkpt lat="46.91245" lon="-2.07838">
        <ele>2.3</ele>
        <time>2020-03-11T10:35:53Z</time>
      </trkpt>
      <trkpt lat="46.91223" lon="-2.07802">
        <ele>3</ele>
        <time>2020-03-11T10:35:53Z</time>
      </trkpt>
      <trkpt lat="46.91198" lon="-2.07765">
        <ele>2.5</ele>
        <time>2020-03-11T10:35:53Z</time>
      </trkpt>
      <trkpt lat="46.91184" lon="-2.07735">
        <ele>2.8</ele>
        <time>2020-03-11T10:35:53Z</time>
      </trkpt>
      <trkpt lat="46.91166" lon="-2.07691">
        <ele>2.9</ele>
        <time>2020-03-11T10:35:53Z</time>
      </trkpt>
      <trkpt lat="46.91149" lon="-2.07647">
        <ele>2.4</ele>
        <time>2020-03-11T10:35:53Z</time>
      </trkpt>
      <trkpt lat="46.91134" lon="-2.07604">
        <ele>2.6</ele>
        <time>2020-03-11T10:35:53Z</time>
      </trkpt>
      <trkpt lat="46.91121" lon="-2.07562">
        <ele>2</ele>
        <time>2020-03-11T10:35:53Z</time>
      </trkpt>
      <trkpt lat="46.9111" lon="-2.07507">
        <ele>2.2</ele>
        <time>2020-03-11T10:35:53Z</time>
      </trkpt>
      <trkpt lat="46.91107" lon="-2.07479">
        <ele>2</ele>
        <time>2020-03-11T10:35:53Z</time>
      </trkpt>
      <trkpt lat="46.91109" lon="-2.07399">
        <ele>2.9</ele>
        <time>2020-03-11T10:35:53Z</time>
      </trkpt>
      <trkpt lat="46.9111" lon="-2.07354">
        <ele>3</ele>
        <time>2020-03-11T10:35:53Z</time>
      </trkpt>
      <trkpt lat="46.91111" lon="-2.07308">
        <ele>3</ele>
        <time>2020-03-11T10:35:53Z</time>
      </trkpt>
      <trkpt lat="46.91111" lon="-2.07275">
        <ele>2.9</ele>
        <time>2020-03-11T10:35:53Z</time>
      </trkpt>
      <trkpt lat="46.91107" lon="-2.07208">
        <ele>3</ele>
        <time>2020-03-11T10:35:53Z</time>
      </trkpt>
      <trkpt lat="46.91103" lon="-2.07151">
        <ele>2.2</ele>
        <time>2020-03-11T10:35:53Z</time>
      </trkpt>
      <trkpt lat="46.91113" lon="-2.07111">
        <ele>3</ele>
        <time>2020-03-11T10:35:53Z</time>
      </trkpt>
      <trkpt lat="46.91147" lon="-2.07082">
        <ele>3</ele>
        <time>2020-03-11T10:35:53Z</time>
      </trkpt>
      <trkpt lat="46.91177" lon="-2.07022">
        <ele>2.9</ele>
        <time>2020-03-11T10:35:53Z</time>
      </trkpt>
      <trkpt lat="46.91184" lon="-2.06985">
        <ele>2.3</ele>
        <time>2020-03-11T10:35:53Z</time>
      </trkpt>
      <trkpt lat="46.9119" lon="-2.06929">
        <ele>2.6</ele>
        <time>2020-03-11T10:35:53Z</time>
      </trkpt>
      <trkpt lat="46.91196" lon="-2.06851">
        <ele>2.9</ele>
        <time>2020-03-11T10:35:53Z</time>
      </trkpt>
      <trkpt lat="46.912" lon="-2.06825">
        <ele>2.6</ele>
        <time>2020-03-11T10:35:53Z</time>
      </trkpt>
      <trkpt lat="46.91209" lon="-2.06787">
        <ele>2.4</ele>
        <time>2020-03-11T10:35:53Z</time>
      </trkpt>
      <trkpt lat="46.91224" lon="-2.06746">
        <ele>2.9</ele>
        <time>2020-03-11T10:35:53Z</time>
      </trkpt>
      <trkpt lat="46.91249" lon="-2.06689">
        <ele>2.8</ele>
        <time>2020-03-11T10:35:53Z</time>
      </trkpt>
      <trkpt lat="46.91261" lon="-2.06654">
        <ele>2.7</ele>
        <time>2020-03-11T10:35:53Z</time>
      </trkpt>
      <trkpt lat="46.91283" lon="-2.06599">
        <ele>3</ele>
        <time>2020-03-11T10:35:53Z</time>
      </trkpt>
      <trkpt lat="46.91295" lon="-2.0656">
        <ele>3</ele>
        <time>2020-03-11T10:35:53Z</time>
      </trkpt>
      <trkpt lat="46.91302" lon="-2.0652">
        <ele>3</ele>
        <time>2020-03-11T10:35:53Z</time>
      </trkpt>
      <trkpt lat="46.91306" lon="-2.06482">
        <ele>2.3</ele>
        <time>2020-03-11T10:35:53Z</time>
      </trkpt>
      <trkpt lat="46.91307" lon="-2.06439">
        <ele>2.9</ele>
        <time>2020-03-11T10:35:53Z</time>
      </trkpt>
      <trkpt lat="46.91303" lon="-2.06405">
        <ele>3</ele>
        <time>2020-03-11T10:35:53Z</time>
      </trkpt>
      <trkpt lat="46.91313" lon="-2.06377">
        <ele>2.8</ele>
        <time>2020-03-11T10:35:53Z</time>
      </trkpt>
      <trkpt lat="46.91346" lon="-2.0636">
        <ele>3</ele>
        <time>2020-03-11T10:35:53Z</time>
      </trkpt>
      <trkpt lat="46.91364" lon="-2.06352">
        <ele>3</ele>
        <time>2020-03-11T10:35:53Z</time>
      </trkpt>
      <trkpt lat="46.91385" lon="-2.06336">
        <ele>3</ele>
        <time>2020-03-11T10:35:53Z</time>
      </trkpt>
      <trkpt lat="46.91408" lon="-2.06316">
        <ele>3</ele>
        <time>2020-03-11T10:35:53Z</time>
      </trkpt>
      <trkpt lat="46.91426" lon="-2.06294">
        <ele>2.8</ele>
        <time>2020-03-11T10:35:53Z</time>
      </trkpt>
      <trkpt lat="46.91456" lon="-2.06248">
        <ele>3</ele>
        <time>2020-03-11T10:35:53Z</time>
      </trkpt>
      <trkpt lat="46.91468" lon="-2.06227">
        <ele>3</ele>
        <time>2020-03-11T10:35:53Z</time>
      </trkpt>
      <trkpt lat="46.91476" lon="-2.06203">
        <ele>3</ele>
        <time>2020-03-11T10:35:53Z</time>
      </trkpt>
      <trkpt lat="46.91532" lon="-2.06136">
        <ele>2.9</ele>
        <time>2020-03-11T10:35:53Z</time>
      </trkpt>
      <trkpt lat="46.91548" lon="-2.06092">
        <ele>2.7</ele>
        <time>2020-03-11T10:35:53Z</time>
      </trkpt>
      <trkpt lat="46.91569" lon="-2.06078">
        <ele>2.9</ele>
        <time>2020-03-11T10:35:53Z</time>
      </trkpt>
      <trkpt lat="46.91585" lon="-2.06064">
        <ele>3</ele>
        <time>2020-03-11T10:35:53Z</time>
      </trkpt>
      <trkpt lat="46.91601" lon="-2.06044">
        <ele>3</ele>
        <time>2020-03-11T10:35:53Z</time>
      </trkpt>
      <trkpt lat="46.91612" lon="-2.06009">
        <ele>3</ele>
        <time>2020-03-11T10:35:53Z</time>
      </trkpt>
      <trkpt lat="46.91634" lon="-2.06001">
        <ele>2.2</ele>
        <time>2020-03-11T10:35:53Z</time>
      </trkpt>
      <trkpt lat="46.91653" lon="-2.06021">
        <ele>2.8</ele>
        <time>2020-03-11T10:35:53Z</time>
      </trkpt>
      <trkpt lat="46.91673" lon="-2.06017">
        <ele>2.7</ele>
        <time>2020-03-11T10:35:53Z</time>
      </trkpt>
      <trkpt lat="46.91689" lon="-2.06002">
        <ele>2.8</ele>
        <time>2020-03-11T10:35:53Z</time>
      </trkpt>
      <trkpt lat="46.91725" lon="-2.05959">
        <ele>2.1</ele>
        <time>2020-03-11T10:35:53Z</time>
      </trkpt>
      <trkpt lat="46.91765" lon="-2.05912">
        <ele>2</ele>
        <time>2020-03-11T10:35:53Z</time>
      </trkpt>
      <trkpt lat="46.91787" lon="-2.05894">
        <ele>2.3</ele>
        <time>2020-03-11T10:35:53Z</time>
      </trkpt>
      <trkpt lat="46.9182" lon="-2.05869">
        <ele>3</ele>
        <time>2020-03-11T10:35:53Z</time>
      </trkpt>
      <trkpt lat="46.91841" lon="-2.05858">
        <ele>3</ele>
        <time>2020-03-11T10:35:53Z</time>
      </trkpt>
      <trkpt lat="46.91868" lon="-2.05858">
        <ele>3</ele>
        <time>2020-03-11T10:35:53Z</time>
      </trkpt>
      <trkpt lat="46.91891" lon="-2.05864">
        <ele>3</ele>
        <time>2020-03-11T10:35:53Z</time>
      </trkpt>
      <trkpt lat="46.91918" lon="-2.05852">
        <ele>3</ele>
        <time>2020-03-11T10:35:53Z</time>
      </trkpt>
      <trkpt lat="46.9194" lon="-2.05835">
        <ele>3</ele>
        <time>2020-03-11T10:35:53Z</time>
      </trkpt>
      <trkpt lat="46.91957" lon="-2.05826">
        <ele>3</ele>
        <time>2020-03-11T10:35:53Z</time>
      </trkpt>
      <trkpt lat="46.91988" lon="-2.05814">
        <ele>3</ele>
        <time>2020-03-11T10:35:53Z</time>
      </trkpt>
      <trkpt lat="46.91991" lon="-2.05784">
        <ele>2.7</ele>
        <time>2020-03-11T10:35:53Z</time>
      </trkpt>
      <trkpt lat="46.91969" lon="-2.05747">
        <ele>2.9</ele>
        <time>2020-03-11T10:35:53Z</time>
      </trkpt>
      <trkpt lat="46.91957" lon="-2.05711">
        <ele>2.5</ele>
        <time>2020-03-11T10:35:53Z</time>
      </trkpt>
      <trkpt lat="46.91958" lon="-2.05677">
        <ele>2.5</ele>
        <time>2020-03-11T10:35:53Z</time>
      </trkpt>
      <trkpt lat="46.91968" lon="-2.05655">
        <ele>2.4</ele>
        <time>2020-03-11T10:35:53Z</time>
      </trkpt>
      <trkpt lat="46.91965" lon="-2.05622">
        <ele>2.7</ele>
        <time>2020-03-11T10:35:53Z</time>
      </trkpt>
      <trkpt lat="46.91953" lon="-2.05582">
        <ele>2.3</ele>
        <time>2020-03-11T10:35:53Z</time>
      </trkpt>
      <trkpt lat="46.91945" lon="-2.05554">
        <ele>3</ele>
        <time>2020-03-11T10:35:53Z</time>
      </trkpt>
      <trkpt lat="46.9194" lon="-2.05527">
        <ele>2.8</ele>
        <time>2020-03-11T10:35:53Z</time>
      </trkpt>
      <trkpt lat="46.9195" lon="-2.05501">
        <ele>3</ele>
        <time>2020-03-11T10:35:53Z</time>
      </trkpt>
      <trkpt lat="46.91967" lon="-2.05475">
        <ele>2.8</ele>
        <time>2020-03-11T10:35:53Z</time>
      </trkpt>
      <trkpt lat="46.91982" lon="-2.05452">
        <ele>2.4</ele>
        <time>2020-03-11T10:35:53Z</time>
      </trkpt>
      <trkpt lat="46.91995" lon="-2.05428">
        <ele>2.8</ele>
        <time>2020-03-11T10:35:53Z</time>
      </trkpt>
      <trkpt lat="46.91992" lon="-2.05401">
        <ele>2.7</ele>
        <time>2020-03-11T10:35:53Z</time>
      </trkpt>
      <trkpt lat="46.91978" lon="-2.05376">
        <ele>2.1</ele>
        <time>2020-03-11T10:35:53Z</time>
      </trkpt>
      <trkpt lat="46.91959" lon="-2.05368">
        <ele>2</ele>
        <time>2020-03-11T10:35:53Z</time>
      </trkpt>
      <trkpt lat="46.91943" lon="-2.05385">
        <ele>2.1</ele>
        <time>2020-03-11T10:35:53Z</time>
      </trkpt>
      <trkpt lat="46.91921" lon="-2.054">
        <ele>2.6</ele>
        <time>2020-03-11T10:35:53Z</time>
      </trkpt>
      <trkpt lat="46.91899" lon="-2.05398">
        <ele>2.2</ele>
        <time>2020-03-11T10:35:53Z</time>
      </trkpt>
      <trkpt lat="46.9187" lon="-2.05388">
        <ele>2.7</ele>
        <time>2020-03-11T10:35:53Z</time>
      </trkpt>
      <trkpt lat="46.91842" lon="-2.05377">
        <ele>3</ele>
        <time>2020-03-11T10:35:53Z</time>
      </trkpt>
      <trkpt lat="46.91825" lon="-2.05361">
        <ele>3</ele>
        <time>2020-03-11T10:35:53Z</time>
      </trkpt>
      <trkpt lat="46.91831" lon="-2.05308">
        <ele>2.9</ele>
        <time>2020-03-11T10:35:53Z</time>
      </trkpt>
      <trkpt lat="46.9184" lon="-2.05276">
        <ele>2.3</ele>
        <time>2020-03-11T10:35:53Z</time>
      </trkpt>
      <trkpt lat="46.91847" lon="-2.05245">
        <ele>2.5</ele>
        <time>2020-03-11T10:35:53Z</time>
      </trkpt>
      <trkpt lat="46.91853" lon="-2.05215">
        <ele>2.5</ele>
        <time>2020-03-11T10:35:53Z</time>
      </trkpt>
      <trkpt lat="46.91859" lon="-2.05189">
        <ele>3</ele>
        <time>2020-03-11T10:35:53Z</time>
      </trkpt>
      <trkpt lat="46.91878" lon="-2.05155">
        <ele>2.7</ele>
        <time>2020-03-11T10:35:53Z</time>
      </trkpt>
      <trkpt lat="46.91892" lon="-2.05131">
        <ele>2.4</ele>
        <time>2020-03-11T10:35:53Z</time>
      </trkpt>
      <trkpt lat="46.91908" lon="-2.0511">
        <ele>3</ele>
        <time>2020-03-11T10:35:53Z</time>
      </trkpt>
      <trkpt lat="46.91931" lon="-2.0512">
        <ele>3</ele>
        <time>2020-03-11T10:35:53Z</time>
      </trkpt>
      <trkpt lat="46.91956" lon="-2.05123">
        <ele>2.8</ele>
        <time>2020-03-11T10:35:53Z</time>
      </trkpt>
      <trkpt lat="46.91971" lon="-2.05096">
        <ele>2.5</ele>
        <time>2020-03-11T10:35:53Z</time>
      </trkpt>
      <trkpt lat="46.9198" lon="-2.05061">
        <ele>2.4</ele>
        <time>2020-03-11T10:35:53Z</time>
      </trkpt>
      <trkpt lat="46.91991" lon="-2.05031">
        <ele>2.7</ele>
        <time>2020-03-11T10:35:53Z</time>
      </trkpt>
      <trkpt lat="46.9202" lon="-2.04997">
        <ele>2.4</ele>
        <time>2020-03-11T10:35:53Z</time>
      </trkpt>
      <trkpt lat="46.92035" lon="-2.04966">
        <ele>2.9</ele>
        <time>2020-03-11T10:35:53Z</time>
      </trkpt>
      <trkpt lat="46.9204" lon="-2.04938">
        <ele>3.3</ele>
        <time>2020-03-11T10:35:53Z</time>
      </trkpt>
      <trkpt lat="46.92006" lon="-2.04911">
        <ele>3</ele>
        <time>2020-03-11T10:35:53Z</time>
      </trkpt>
      <trkpt lat="46.91986" lon="-2.04895">
        <ele>3</ele>
        <time>2020-03-11T10:35:53Z</time>
      </trkpt>
      <trkpt lat="46.91983" lon="-2.04863">
        <ele>3.4</ele>
        <time>2020-03-11T10:35:53Z</time>
      </trkpt>
      <trkpt lat="46.91991" lon="-2.04831">
        <ele>3.6</ele>
        <time>2020-03-11T10:35:53Z</time>
      </trkpt>
      <trkpt lat="46.91996" lon="-2.04798">
        <ele>3</ele>
        <time>2020-03-11T10:35:53Z</time>
      </trkpt>
      <trkpt lat="46.91968" lon="-2.04805">
        <ele>3</ele>
        <time>2020-03-11T10:35:53Z</time>
      </trkpt>
      <trkpt lat="46.91944" lon="-2.04788">
        <ele>3</ele>
        <time>2020-03-11T10:35:53Z</time>
      </trkpt>
      <trkpt lat="46.91927" lon="-2.04765">
        <ele>3</ele>
        <time>2020-03-11T10:35:53Z</time>
      </trkpt>
      <trkpt lat="46.91911" lon="-2.04746">
        <ele>3</ele>
        <time>2020-03-11T10:35:53Z</time>
      </trkpt>
      <trkpt lat="46.9189" lon="-2.04724">
        <ele>3</ele>
        <time>2020-03-11T10:35:53Z</time>
      </trkpt>
      <trkpt lat="46.91862" lon="-2.04696">
        <ele>3</ele>
        <time>2020-03-11T10:35:53Z</time>
      </trkpt>
      <trkpt lat="46.91838" lon="-2.04672">
        <ele>3</ele>
        <time>2020-03-11T10:35:53Z</time>
      </trkpt>
      <trkpt lat="46.91815" lon="-2.04641">
        <ele>3.7</ele>
        <time>2020-03-11T10:35:53Z</time>
      </trkpt>
      <trkpt lat="46.91788" lon="-2.04602">
        <ele>4</ele>
        <time>2020-03-11T10:35:53Z</time>
      </trkpt>
      <trkpt lat="46.91766" lon="-2.04572">
        <ele>4.7</ele>
        <time>2020-03-11T10:35:53Z</time>
      </trkpt>
      <trkpt lat="46.91733" lon="-2.04531">
        <ele>5</ele>
        <time>2020-03-11T10:35:53Z</time>
      </trkpt>
      <trkpt lat="46.91707" lon="-2.045">
        <ele>5.5</ele>
        <time>2020-03-11T10:35:53Z</time>
      </trkpt>
      <trkpt lat="46.91688" lon="-2.04476">
        <ele>6</ele>
        <time>2020-03-11T10:35:53Z</time>
      </trkpt>
      <trkpt lat="46.91673" lon="-2.04458">
        <ele>6</ele>
        <time>2020-03-11T10:35:53Z</time>
      </trkpt>
      <trkpt lat="46.91659" lon="-2.04438">
        <ele>6.3</ele>
        <time>2020-03-11T10:35:53Z</time>
      </trkpt>
      <trkpt lat="46.9164" lon="-2.04415">
        <ele>7</ele>
        <time>2020-03-11T10:35:53Z</time>
      </trkpt>
      <trkpt lat="46.91619" lon="-2.04388">
        <ele>7</ele>
        <time>2020-03-11T10:35:53Z</time>
      </trkpt>
      <trkpt lat="46.91605" lon="-2.04366">
        <ele>7.2</ele>
        <time>2020-03-11T10:35:53Z</time>
      </trkpt>
      <trkpt lat="46.91591" lon="-2.04344">
        <ele>7.7</ele>
        <time>2020-03-11T10:35:53Z</time>
      </trkpt>
      <trkpt lat="46.91578" lon="-2.04314">
        <ele>7.9</ele>
        <time>2020-03-11T10:35:53Z</time>
      </trkpt>
      <trkpt lat="46.91567" lon="-2.04292">
        <ele>7.2</ele>
        <time>2020-03-11T10:35:53Z</time>
      </trkpt>
      <trkpt lat="46.91557" lon="-2.04269">
        <ele>7</ele>
        <time>2020-03-11T10:35:53Z</time>
      </trkpt>
      <trkpt lat="46.91547" lon="-2.04244">
        <ele>7</ele>
        <time>2020-03-11T10:35:53Z</time>
      </trkpt>
      <trkpt lat="46.91531" lon="-2.04208">
        <ele>7</ele>
        <time>2020-03-11T10:35:53Z</time>
      </trkpt>
      <trkpt lat="46.91514" lon="-2.04183">
        <ele>7</ele>
        <time>2020-03-11T10:35:53Z</time>
      </trkpt>
      <trkpt lat="46.91493" lon="-2.04172">
        <ele>7</ele>
        <time>2020-03-11T10:35:53Z</time>
      </trkpt>
      <trkpt lat="46.91476" lon="-2.04184">
        <ele>7</ele>
        <time>2020-03-11T10:35:53Z</time>
      </trkpt>
      <trkpt lat="46.91456" lon="-2.042">
        <ele>7</ele>
        <time>2020-03-11T10:35:53Z</time>
      </trkpt>
      <trkpt lat="46.9144" lon="-2.04213">
        <ele>7.2</ele>
        <time>2020-03-11T10:35:53Z</time>
      </trkpt>
      <trkpt lat="46.91421" lon="-2.04228">
        <ele>7.9</ele>
        <time>2020-03-11T10:35:53Z</time>
      </trkpt>
      <trkpt lat="46.91397" lon="-2.04251">
        <ele>8.7</ele>
        <time>2020-03-11T10:35:53Z</time>
      </trkpt>
      <trkpt lat="46.91373" lon="-2.04282">
        <ele>9</ele>
        <time>2020-03-11T10:35:53Z</time>
      </trkpt>
      <trkpt lat="46.91346" lon="-2.04264">
        <ele>9.3</ele>
        <time>2020-03-11T10:35:53Z</time>
      </trkpt>
      <trkpt lat="46.91324" lon="-2.04235">
        <ele>9.2</ele>
        <time>2020-03-11T10:35:53Z</time>
      </trkpt>
      <trkpt lat="46.91295" lon="-2.04183">
        <ele>9.2</ele>
        <time>2020-03-11T10:35:53Z</time>
      </trkpt>
      <trkpt lat="46.91281" lon="-2.04151">
        <ele>8.9</ele>
        <time>2020-03-11T10:35:53Z</time>
      </trkpt>
      <trkpt lat="46.9124" lon="-2.04064">
        <ele>7.7</ele>
        <time>2020-03-11T10:35:53Z</time>
      </trkpt>
      <trkpt lat="46.91214" lon="-2.04079">
        <ele>8.6</ele>
        <time>2020-03-11T10:35:53Z</time>
      </trkpt>
      <trkpt lat="46.91188" lon="-2.041">
        <ele>8.7</ele>
        <time>2020-03-11T10:35:53Z</time>
      </trkpt>
      <trkpt lat="46.91155" lon="-2.04126">
        <ele>9</ele>
        <time>2020-03-11T10:35:53Z</time>
      </trkpt>
      <trkpt lat="46.91115" lon="-2.04138">
        <ele>9</ele>
        <time>2020-03-11T10:35:53Z</time>
      </trkpt>
      <trkpt lat="46.91087" lon="-2.04142">
        <ele>9.1</ele>
        <time>2020-03-11T10:35:53Z</time>
      </trkpt>
      <trkpt lat="46.9105" lon="-2.04146">
        <ele>10</ele>
        <time>2020-03-11T10:35:53Z</time>
      </trkpt>
      <trkpt lat="46.91021" lon="-2.04146">
        <ele>10</ele>
        <time>2020-03-11T10:35:53Z</time>
      </trkpt>
      <trkpt lat="46.90961" lon="-2.04144">
        <ele>11.1</ele>
        <time>2020-03-11T10:35:53Z</time>
      </trkpt>
      <trkpt lat="46.90911" lon="-2.04147">
        <ele>12</ele>
        <time>2020-03-11T10:35:53Z</time>
      </trkpt>
      <trkpt lat="46.90844" lon="-2.04146">
        <ele>12.7</ele>
        <time>2020-03-11T10:35:53Z</time>
      </trkpt>
      <trkpt lat="46.90792" lon="-2.04146">
        <ele>13</ele>
        <time>2020-03-11T10:35:53Z</time>
      </trkpt>
      <trkpt lat="46.90751" lon="-2.0415">
        <ele>13</ele>
        <time>2020-03-11T10:35:53Z</time>
      </trkpt>
      <trkpt lat="46.90725" lon="-2.04156">
        <ele>13</ele>
        <time>2020-03-11T10:35:53Z</time>
      </trkpt>
      <trkpt lat="46.90699" lon="-2.04158">
        <ele>13</ele>
        <time>2020-03-11T10:35:53Z</time>
      </trkpt>
      <trkpt lat="46.90661" lon="-2.04159">
        <ele>12</ele>
        <time>2020-03-11T10:35:53Z</time>
      </trkpt>
      <trkpt lat="46.90631" lon="-2.04163">
        <ele>11.7</ele>
        <time>2020-03-11T10:35:53Z</time>
      </trkpt>
      <trkpt lat="46.90595" lon="-2.0417">
        <ele>10.4</ele>
        <time>2020-03-11T10:35:53Z</time>
      </trkpt>
      <trkpt lat="46.90576" lon="-2.04173">
        <ele>9.5</ele>
        <time>2020-03-11T10:35:53Z</time>
      </trkpt>
      <trkpt lat="46.90556" lon="-2.04174">
        <ele>8</ele>
        <time>2020-03-11T10:35:53Z</time>
      </trkpt>
      <trkpt lat="46.90532" lon="-2.04165">
        <ele>6.3</ele>
        <time>2020-03-11T10:35:53Z</time>
      </trkpt>
      <trkpt lat="46.90447" lon="-2.04176">
        <ele>3.1</ele>
        <time>2020-03-11T10:35:53Z</time>
      </trkpt>
      <trkpt lat="46.9044" lon="-2.04147">
        <ele>2.8</ele>
        <time>2020-03-11T10:35:53Z</time>
      </trkpt>
      <trkpt lat="46.90438" lon="-2.04113">
        <ele>2.8</ele>
        <time>2020-03-11T10:35:53Z</time>
      </trkpt>
      <trkpt lat="46.9043" lon="-2.04086">
        <ele>2.9</ele>
        <time>2020-03-11T10:35:53Z</time>
      </trkpt>
      <trkpt lat="46.90425" lon="-2.04054">
        <ele>3.3</ele>
        <time>2020-03-11T10:35:53Z</time>
      </trkpt>
      <trkpt lat="46.90426" lon="-2.03991">
        <ele>2.4</ele>
        <time>2020-03-11T10:35:53Z</time>
      </trkpt>
      <trkpt lat="46.90427" lon="-2.03964">
        <ele>2.9</ele>
        <time>2020-03-11T10:35:53Z</time>
      </trkpt>
      <trkpt lat="46.90427" lon="-2.03937">
        <ele>3.4</ele>
        <time>2020-03-11T10:35:53Z</time>
      </trkpt>
      <trkpt lat="46.90425" lon="-2.03897">
        <ele>3.3</ele>
        <time>2020-03-11T10:35:53Z</time>
      </trkpt>
      <trkpt lat="46.90422" lon="-2.03868">
        <ele>2.6</ele>
        <time>2020-03-11T10:35:53Z</time>
      </trkpt>
      <trkpt lat="46.90419" lon="-2.03828">
        <ele>3.1</ele>
        <time>2020-03-11T10:35:53Z</time>
      </trkpt>
      <trkpt lat="46.90416" lon="-2.03797">
        <ele>3</ele>
        <time>2020-03-11T10:35:53Z</time>
      </trkpt>
      <trkpt lat="46.90406" lon="-2.0374">
        <ele>2.8</ele>
        <time>2020-03-11T10:35:53Z</time>
      </trkpt>
      <trkpt lat="46.90398" lon="-2.03702">
        <ele>3.1</ele>
        <time>2020-03-11T10:35:53Z</time>
      </trkpt>
      <trkpt lat="46.90392" lon="-2.03664">
        <ele>2.3</ele>
        <time>2020-03-11T10:35:53Z</time>
      </trkpt>
      <trkpt lat="46.90385" lon="-2.03613">
        <ele>2.9</ele>
        <time>2020-03-11T10:35:53Z</time>
      </trkpt>
      <trkpt lat="46.90382" lon="-2.0356">
        <ele>3.4</ele>
        <time>2020-03-11T10:35:53Z</time>
      </trkpt>
      <trkpt lat="46.90376" lon="-2.03493">
        <ele>3.2</ele>
        <time>2020-03-11T10:35:53Z</time>
      </trkpt>
      <trkpt lat="46.90374" lon="-2.03446">
        <ele>3.5</ele>
        <time>2020-03-11T10:35:53Z</time>
      </trkpt>
      <trkpt lat="46.90368" lon="-2.03402">
        <ele>3.2</ele>
        <time>2020-03-11T10:35:53Z</time>
      </trkpt>
      <trkpt lat="46.90364" lon="-2.03375">
        <ele>3.1</ele>
        <time>2020-03-11T10:35:53Z</time>
      </trkpt>
      <trkpt lat="46.90352" lon="-2.03344">
        <ele>2.8</ele>
        <time>2020-03-11T10:35:53Z</time>
      </trkpt>
      <trkpt lat="46.90331" lon="-2.03317">
        <ele>2</ele>
        <time>2020-03-11T10:35:53Z</time>
      </trkpt>
      <trkpt lat="46.90308" lon="-2.03307">
        <ele>2.9</ele>
        <time>2020-03-11T10:35:53Z</time>
      </trkpt>
      <trkpt lat="46.90273" lon="-2.03312">
        <ele>2.1</ele>
        <time>2020-03-11T10:35:53Z</time>
      </trkpt>
      <trkpt lat="46.90254" lon="-2.03315">
        <ele>2.6</ele>
        <time>2020-03-11T10:35:53Z</time>
      </trkpt>
      <trkpt lat="46.90236" lon="-2.03316">
        <ele>2.6</ele>
        <time>2020-03-11T10:35:53Z</time>
      </trkpt>
      <trkpt lat="46.90217" lon="-2.03315">
        <ele>2.7</ele>
        <time>2020-03-11T10:35:53Z</time>
      </trkpt>
      <trkpt lat="46.90185" lon="-2.03311">
        <ele>2.8</ele>
        <time>2020-03-11T10:35:53Z</time>
      </trkpt>
      <trkpt lat="46.90165" lon="-2.03309">
        <ele>2.8</ele>
        <time>2020-03-11T10:35:53Z</time>
      </trkpt>
      <trkpt lat="46.90141" lon="-2.03313">
        <ele>2.1</ele>
        <time>2020-03-11T10:35:53Z</time>
      </trkpt>
      <trkpt lat="46.90125" lon="-2.03327">
        <ele>2</ele>
        <time>2020-03-11T10:35:53Z</time>
      </trkpt>
      <trkpt lat="46.90105" lon="-2.0335">
        <ele>2.1</ele>
        <time>2020-03-11T10:35:53Z</time>
      </trkpt>
      <trkpt lat="46.90085" lon="-2.03367">
        <ele>2.7</ele>
        <time>2020-03-11T10:35:53Z</time>
      </trkpt>
      <trkpt lat="46.90062" lon="-2.03376">
        <ele>2.1</ele>
        <time>2020-03-11T10:35:53Z</time>
      </trkpt>
      <trkpt lat="46.90015" lon="-2.03391">
        <ele>2</ele>
        <time>2020-03-11T10:35:53Z</time>
      </trkpt>
      <trkpt lat="46.89991" lon="-2.03404">
        <ele>2.2</ele>
        <time>2020-03-11T10:35:53Z</time>
      </trkpt>
      <trkpt lat="46.89966" lon="-2.03419">
        <ele>2.7</ele>
        <time>2020-03-11T10:35:53Z</time>
      </trkpt>
      <trkpt lat="46.89933" lon="-2.03442">
        <ele>2</ele>
        <time>2020-03-11T10:35:53Z</time>
      </trkpt>
      <trkpt lat="46.89902" lon="-2.03467">
        <ele>2</ele>
        <time>2020-03-11T10:35:53Z</time>
      </trkpt>
      <trkpt lat="46.89873" lon="-2.03496">
        <ele>2</ele>
        <time>2020-03-11T10:35:53Z</time>
      </trkpt>
      <trkpt lat="46.89842" lon="-2.03527">
        <ele>2</ele>
        <time>2020-03-11T10:35:53Z</time>
      </trkpt>
      <trkpt lat="46.89809" lon="-2.03558">
        <ele>2</ele>
        <time>2020-03-11T10:35:53Z</time>
      </trkpt>
      <trkpt lat="46.89783" lon="-2.03584">
        <ele>2.8</ele>
        <time>2020-03-11T10:35:53Z</time>
      </trkpt>
      <trkpt lat="46.89762" lon="-2.03606">
        <ele>2.1</ele>
        <time>2020-03-11T10:35:53Z</time>
      </trkpt>
      <trkpt lat="46.89746" lon="-2.0362">
        <ele>2</ele>
        <time>2020-03-11T10:35:53Z</time>
      </trkpt>
      <trkpt lat="46.89721" lon="-2.03628">
        <ele>2</ele>
        <time>2020-03-11T10:35:53Z</time>
      </trkpt>
      <trkpt lat="46.89693" lon="-2.03629">
        <ele>2</ele>
        <time>2020-03-11T10:35:53Z</time>
      </trkpt>
      <trkpt lat="46.89667" lon="-2.03634">
        <ele>2.8</ele>
        <time>2020-03-11T10:35:53Z</time>
      </trkpt>
      <trkpt lat="46.89634" lon="-2.03641">
        <ele>2.2</ele>
        <time>2020-03-11T10:35:53Z</time>
      </trkpt>
      <trkpt lat="46.89569" lon="-2.03668">
        <ele>2</ele>
        <time>2020-03-11T10:35:53Z</time>
      </trkpt>
      <trkpt lat="46.89532" lon="-2.03684">
        <ele>2.3</ele>
        <time>2020-03-11T10:35:53Z</time>
      </trkpt>
      <trkpt lat="46.89506" lon="-2.03677">
        <ele>2.1</ele>
        <time>2020-03-11T10:35:53Z</time>
      </trkpt>
      <trkpt lat="46.89466" lon="-2.03666">
        <ele>2</ele>
        <time>2020-03-11T10:35:53Z</time>
      </trkpt>
      <trkpt lat="46.89419" lon="-2.0365">
        <ele>2</ele>
        <time>2020-03-11T10:35:53Z</time>
      </trkpt>
      <trkpt lat="46.89318" lon="-2.03619">
        <ele>2.1</ele>
        <time>2020-03-11T10:35:53Z</time>
      </trkpt>
      <trkpt lat="46.89297" lon="-2.03613">
        <ele>2.3</ele>
        <time>2020-03-11T10:35:53Z</time>
      </trkpt>
      <trkpt lat="46.89227" lon="-2.03594">
        <ele>2</ele>
        <time>2020-03-11T10:35:53Z</time>
      </trkpt>
      <trkpt lat="46.89199" lon="-2.0358">
        <ele>2.8</ele>
        <time>2020-03-11T10:35:53Z</time>
      </trkpt>
      <trkpt lat="46.89183" lon="-2.03558">
        <ele>2.1</ele>
        <time>2020-03-11T10:35:53Z</time>
      </trkpt>
      <trkpt lat="46.8916" lon="-2.0351">
        <ele>2.8</ele>
        <time>2020-03-11T10:35:53Z</time>
      </trkpt>
      <trkpt lat="46.89091" lon="-2.03364">
        <ele>2.6</ele>
        <time>2020-03-11T10:35:53Z</time>
      </trkpt>
      <trkpt lat="46.8906" lon="-2.03295">
        <ele>2</ele>
        <time>2020-03-11T10:35:53Z</time>
      </trkpt>
      <trkpt lat="46.89003" lon="-2.0317">
        <ele>2</ele>
        <time>2020-03-11T10:35:53Z</time>
      </trkpt>
      <trkpt lat="46.88982" lon="-2.03116">
        <ele>2.3</ele>
        <time>2020-03-11T10:35:53Z</time>
      </trkpt>
      <trkpt lat="46.88961" lon="-2.03057">
        <ele>2</ele>
        <time>2020-03-11T10:35:53Z</time>
      </trkpt>
      <trkpt lat="46.88955" lon="-2.0302">
        <ele>2</ele>
        <time>2020-03-11T10:35:53Z</time>
      </trkpt>
      <trkpt lat="46.88972" lon="-2.02953">
        <ele>2</ele>
        <time>2020-03-11T10:35:53Z</time>
      </trkpt>
      <trkpt lat="46.88984" lon="-2.029">
        <ele>2</ele>
        <time>2020-03-11T10:35:53Z</time>
      </trkpt>
      <trkpt lat="46.88981" lon="-2.02811">
        <ele>2</ele>
        <time>2020-03-11T10:35:53Z</time>
      </trkpt>
      <trkpt lat="46.88978" lon="-2.02765">
        <ele>2</ele>
        <time>2020-03-11T10:35:53Z</time>
      </trkpt>
      <trkpt lat="46.88977" lon="-2.02704">
        <ele>2</ele>
        <time>2020-03-11T10:35:53Z</time>
      </trkpt>
      <trkpt lat="46.88976" lon="-2.02673">
        <ele>2</ele>
        <time>2020-03-11T10:35:53Z</time>
      </trkpt>
      <trkpt lat="46.88979" lon="-2.02634">
        <ele>2</ele>
        <time>2020-03-11T10:35:53Z</time>
      </trkpt>
      <trkpt lat="46.8899" lon="-2.02568">
        <ele>2</ele>
        <time>2020-03-11T10:35:53Z</time>
      </trkpt>
      <trkpt lat="46.89003" lon="-2.02483">
        <ele>2.3</ele>
        <time>2020-03-11T10:35:53Z</time>
      </trkpt>
      <trkpt lat="46.89006" lon="-2.02457">
        <ele>2</ele>
        <time>2020-03-11T10:35:53Z</time>
      </trkpt>
      <trkpt lat="46.89" lon="-2.02422">
        <ele>2.8</ele>
        <time>2020-03-11T10:35:53Z</time>
      </trkpt>
      <trkpt lat="46.88983" lon="-2.02407">
        <ele>2.5</ele>
        <time>2020-03-11T10:35:53Z</time>
      </trkpt>
      <trkpt lat="46.88963" lon="-2.02401">
        <ele>2.4</ele>
        <time>2020-03-11T10:35:53Z</time>
      </trkpt>
      <trkpt lat="46.8892" lon="-2.02393">
        <ele>2.9</ele>
        <time>2020-03-11T10:35:53Z</time>
      </trkpt>
      <trkpt lat="46.88844" lon="-2.0238">
        <ele>3.2</ele>
        <time>2020-03-11T10:35:53Z</time>
      </trkpt>
      <trkpt lat="46.88809" lon="-2.02377">
        <ele>3.9</ele>
        <time>2020-03-11T10:35:53Z</time>
      </trkpt>
      <trkpt lat="46.88737" lon="-2.02373">
        <ele>4</ele>
        <time>2020-03-11T10:35:53Z</time>
      </trkpt>
      <trkpt lat="46.88694" lon="-2.02372">
        <ele>4</ele>
        <time>2020-03-11T10:35:53Z</time>
      </trkpt>
      <trkpt lat="46.88658" lon="-2.0237">
        <ele>5</ele>
        <time>2020-03-11T10:35:53Z</time>
      </trkpt>
      <trkpt lat="46.88606" lon="-2.0237">
        <ele>5</ele>
        <time>2020-03-11T10:35:53Z</time>
      </trkpt>
      <trkpt lat="46.88587" lon="-2.02372">
        <ele>5</ele>
        <time>2020-03-11T10:35:53Z</time>
      </trkpt>
      <trkpt lat="46.88556" lon="-2.02372">
        <ele>4.6</ele>
        <time>2020-03-11T10:35:53Z</time>
      </trkpt>
      <trkpt lat="46.88534" lon="-2.02373">
        <ele>4.9</ele>
        <time>2020-03-11T10:35:53Z</time>
      </trkpt>
      <trkpt lat="46.88513" lon="-2.02376">
        <ele>4.5</ele>
        <time>2020-03-11T10:35:53Z</time>
      </trkpt>
      <trkpt lat="46.8849" lon="-2.02385">
        <ele>4</ele>
        <time>2020-03-11T10:35:53Z</time>
      </trkpt>
      <trkpt lat="46.88458" lon="-2.02399">
        <ele>4</ele>
        <time>2020-03-11T10:35:53Z</time>
      </trkpt>
      <trkpt lat="46.88423" lon="-2.02416">
        <ele>4</ele>
        <time>2020-03-11T10:35:53Z</time>
      </trkpt>
      <trkpt lat="46.88383" lon="-2.02433">
        <ele>3.9</ele>
        <time>2020-03-11T10:35:53Z</time>
      </trkpt>
      <trkpt lat="46.88355" lon="-2.02447">
        <ele>3.3</ele>
        <time>2020-03-11T10:35:53Z</time>
      </trkpt>
      <trkpt lat="46.88333" lon="-2.02458">
        <ele>4</ele>
        <time>2020-03-11T10:35:53Z</time>
      </trkpt>
      <trkpt lat="46.88285" lon="-2.02478">
        <ele>3.1</ele>
        <time>2020-03-11T10:35:53Z</time>
      </trkpt>
      <trkpt lat="46.88266" lon="-2.02488">
        <ele>3</ele>
        <time>2020-03-11T10:35:53Z</time>
      </trkpt>
      <trkpt lat="46.88249" lon="-2.02498">
        <ele>3</ele>
        <time>2020-03-11T10:35:53Z</time>
      </trkpt>
      <trkpt lat="46.88209" lon="-2.02522">
        <ele>3</ele>
        <time>2020-03-11T10:35:53Z</time>
      </trkpt>
      <trkpt lat="46.88187" lon="-2.02531">
        <ele>3</ele>
        <time>2020-03-11T10:35:53Z</time>
      </trkpt>
      <trkpt lat="46.88169" lon="-2.02538">
        <ele>3</ele>
        <time>2020-03-11T10:35:53Z</time>
      </trkpt>
      <trkpt lat="46.88142" lon="-2.02543">
        <ele>2.5</ele>
        <time>2020-03-11T10:35:53Z</time>
      </trkpt>
      <trkpt lat="46.88122" lon="-2.02543">
        <ele>2.8</ele>
        <time>2020-03-11T10:35:53Z</time>
      </trkpt>
      <trkpt lat="46.88099" lon="-2.02544">
        <ele>2.6</ele>
        <time>2020-03-11T10:35:53Z</time>
      </trkpt>
      <trkpt lat="46.88078" lon="-2.02544">
        <ele>2</ele>
        <time>2020-03-11T10:35:53Z</time>
      </trkpt>
      <trkpt lat="46.88043" lon="-2.02547">
        <ele>2</ele>
        <time>2020-03-11T10:35:53Z</time>
      </trkpt>
      <trkpt lat="46.88024" lon="-2.02539">
        <ele>2</ele>
        <time>2020-03-11T10:35:53Z</time>
      </trkpt>
      <trkpt lat="46.88018" lon="-2.0251">
        <ele>2</ele>
        <time>2020-03-11T10:35:53Z</time>
      </trkpt>
      <trkpt lat="46.88012" lon="-2.02485">
        <ele>2</ele>
        <time>2020-03-11T10:35:53Z</time>
      </trkpt>
      <trkpt lat="46.88004" lon="-2.02457">
        <ele>2</ele>
        <time>2020-03-11T10:35:53Z</time>
      </trkpt>
      <trkpt lat="46.87992" lon="-2.02402">
        <ele>1.7</ele>
        <time>2020-03-11T10:35:53Z</time>
      </trkpt>
      <trkpt lat="46.8797" lon="-2.0232">
        <ele>2</ele>
        <time>2020-03-11T10:35:53Z</time>
      </trkpt>
      <trkpt lat="46.87955" lon="-2.02275">
        <ele>2</ele>
        <time>2020-03-11T10:35:53Z</time>
      </trkpt>
      <trkpt lat="46.87948" lon="-2.02224">
        <ele>2</ele>
        <time>2020-03-11T10:35:53Z</time>
      </trkpt>
      <trkpt lat="46.87943" lon="-2.02189">
        <ele>2</ele>
        <time>2020-03-11T10:35:53Z</time>
      </trkpt>
      <trkpt lat="46.87939" lon="-2.02154">
        <ele>2.1</ele>
        <time>2020-03-11T10:35:53Z</time>
      </trkpt>
      <trkpt lat="46.87941" lon="-2.02087">
        <ele>2</ele>
        <time>2020-03-11T10:35:53Z</time>
      </trkpt>
      <trkpt lat="46.8794" lon="-2.02052">
        <ele>2</ele>
        <time>2020-03-11T10:35:53Z</time>
      </trkpt>
      <trkpt lat="46.87936" lon="-2.01976">
        <ele>1.9</ele>
        <time>2020-03-11T10:35:53Z</time>
      </trkpt>
      <trkpt lat="46.87933" lon="-2.01929">
        <ele>2</ele>
        <time>2020-03-11T10:35:53Z</time>
      </trkpt>
      <trkpt lat="46.87929" lon="-2.01898">
        <ele>2.4</ele>
        <time>2020-03-11T10:35:53Z</time>
      </trkpt>
      <trkpt lat="46.87911" lon="-2.01909">
        <ele>2.3</ele>
        <time>2020-03-11T10:35:53Z</time>
      </trkpt>
      <trkpt lat="46.87888" lon="-2.01926">
        <ele>2</ele>
        <time>2020-03-11T10:35:53Z</time>
      </trkpt>
      <trkpt lat="46.87857" lon="-2.01949">
        <ele>2</ele>
        <time>2020-03-11T10:35:53Z</time>
      </trkpt>
      <trkpt lat="46.87819" lon="-2.0196">
        <ele>2</ele>
        <time>2020-03-11T10:35:53Z</time>
      </trkpt>
      <trkpt lat="46.87789" lon="-2.01968">
        <ele>2</ele>
        <time>2020-03-11T10:35:53Z</time>
      </trkpt>
      <trkpt lat="46.87749" lon="-2.01979">
        <ele>2</ele>
        <time>2020-03-11T10:35:53Z</time>
      </trkpt>
      <trkpt lat="46.87713" lon="-2.01988">
        <ele>2</ele>
        <time>2020-03-11T10:35:53Z</time>
      </trkpt>
      <trkpt lat="46.87695" lon="-2.01996">
        <ele>2</ele>
        <time>2020-03-11T10:35:53Z</time>
      </trkpt>
      <trkpt lat="46.87689" lon="-2.02026">
        <ele>2</ele>
        <time>2020-03-11T10:35:53Z</time>
      </trkpt>
      <trkpt lat="46.87683" lon="-2.02053">
        <ele>2</ele>
        <time>2020-03-11T10:35:53Z</time>
      </trkpt>
      <trkpt lat="46.87672" lon="-2.02093">
        <ele>2</ele>
        <time>2020-03-11T10:35:53Z</time>
      </trkpt>
      <trkpt lat="46.87647" lon="-2.02174">
        <ele>2.1</ele>
        <time>2020-03-11T10:35:53Z</time>
      </trkpt>
      <trkpt lat="46.87632" lon="-2.02242">
        <ele>2</ele>
        <time>2020-03-11T10:35:53Z</time>
      </trkpt>
      <trkpt lat="46.87621" lon="-2.02316">
        <ele>2</ele>
        <time>2020-03-11T10:35:53Z</time>
      </trkpt>
      <trkpt lat="46.87609" lon="-2.02405">
        <ele>1.9</ele>
        <time>2020-03-11T10:35:53Z</time>
      </trkpt>
      <trkpt lat="46.87599" lon="-2.02496">
        <ele>1.5</ele>
        <time>2020-03-11T10:35:53Z</time>
      </trkpt>
      <trkpt lat="46.87592" lon="-2.02538">
        <ele>1.6</ele>
        <time>2020-03-11T10:35:53Z</time>
      </trkpt>
      <trkpt lat="46.87579" lon="-2.02582">
        <ele>1.9</ele>
        <time>2020-03-11T10:35:53Z</time>
      </trkpt>
      <trkpt lat="46.87561" lon="-2.02616">
        <ele>1</ele>
        <time>2020-03-11T10:35:53Z</time>
      </trkpt>
      <trkpt lat="46.87529" lon="-2.0267">
        <ele>1.8</ele>
        <time>2020-03-11T10:35:53Z</time>
      </trkpt>
      <trkpt lat="46.87508" lon="-2.02705">
        <ele>2</ele>
        <time>2020-03-11T10:35:53Z</time>
      </trkpt>
      <trkpt lat="46.8749" lon="-2.02741">
        <ele>2.2</ele>
        <time>2020-03-11T10:35:53Z</time>
      </trkpt>
      <trkpt lat="46.87479" lon="-2.02778">
        <ele>2</ele>
        <time>2020-03-11T10:35:53Z</time>
      </trkpt>
      <trkpt lat="46.87475" lon="-2.02805">
        <ele>2.9</ele>
        <time>2020-03-11T10:35:53Z</time>
      </trkpt>
      <trkpt lat="46.87464" lon="-2.0289">
        <ele>2</ele>
        <time>2020-03-11T10:35:53Z</time>
      </trkpt>
      <trkpt lat="46.87449" lon="-2.02975">
        <ele>2</ele>
        <time>2020-03-11T10:35:53Z</time>
      </trkpt>
      <trkpt lat="46.87424" lon="-2.03068">
        <ele>2</ele>
        <time>2020-03-11T10:35:53Z</time>
      </trkpt>
      <trkpt lat="46.87373" lon="-2.03242">
        <ele>2</ele>
        <time>2020-03-11T10:35:53Z</time>
      </trkpt>
      <trkpt lat="46.8736" lon="-2.03277">
        <ele>2</ele>
        <time>2020-03-11T10:35:53Z</time>
      </trkpt>
      <trkpt lat="46.8734" lon="-2.03318">
        <ele>2</ele>
        <time>2020-03-11T10:35:53Z</time>
      </trkpt>
      <trkpt lat="46.87278" lon="-2.03415">
        <ele>1.9</ele>
        <time>2020-03-11T10:35:53Z</time>
      </trkpt>
      <trkpt lat="46.87257" lon="-2.03455">
        <ele>1.5</ele>
        <time>2020-03-11T10:35:53Z</time>
      </trkpt>
      <trkpt lat="46.8725" lon="-2.03502">
        <ele>2</ele>
        <time>2020-03-11T10:35:53Z</time>
      </trkpt>
      <trkpt lat="46.87253" lon="-2.03573">
        <ele>1.7</ele>
        <time>2020-03-11T10:35:53Z</time>
      </trkpt>
      <trkpt lat="46.87257" lon="-2.036">
        <ele>2</ele>
        <time>2020-03-11T10:35:53Z</time>
      </trkpt>
      <trkpt lat="46.87231" lon="-2.03638">
        <ele>1.3</ele>
        <time>2020-03-11T10:35:53Z</time>
      </trkpt>
      <trkpt lat="46.87208" lon="-2.0366">
        <ele>1.9</ele>
        <time>2020-03-11T10:35:53Z</time>
      </trkpt>
      <trkpt lat="46.87182" lon="-2.03684">
        <ele>2</ele>
        <time>2020-03-11T10:35:53Z</time>
      </trkpt>
      <trkpt lat="46.87166" lon="-2.037">
        <ele>2</ele>
        <time>2020-03-11T10:35:53Z</time>
      </trkpt>
      <trkpt lat="46.87143" lon="-2.03729">
        <ele>2</ele>
        <time>2020-03-11T10:35:53Z</time>
      </trkpt>
      <trkpt lat="46.87129" lon="-2.0376">
        <ele>2</ele>
        <time>2020-03-11T10:35:53Z</time>
      </trkpt>
      <trkpt lat="46.8707" lon="-2.0395">
        <ele>1.9</ele>
        <time>2020-03-11T10:35:53Z</time>
      </trkpt>
      <trkpt lat="46.87063" lon="-2.03976">
        <ele>1.5</ele>
        <time>2020-03-11T10:35:53Z</time>
      </trkpt>
      <trkpt lat="46.87054" lon="-2.04017">
        <ele>2.3</ele>
        <time>2020-03-11T10:35:53Z</time>
      </trkpt>
      <trkpt lat="46.8705" lon="-2.04056">
        <ele>2</ele>
        <time>2020-03-11T10:35:53Z</time>
      </trkpt>
      <trkpt lat="46.87042" lon="-2.04127">
        <ele>1.7</ele>
        <time>2020-03-11T10:35:53Z</time>
      </trkpt>
      <trkpt lat="46.87026" lon="-2.04299">
        <ele>2</ele>
        <time>2020-03-11T10:35:53Z</time>
      </trkpt>
      <trkpt lat="46.87018" lon="-2.04374">
        <ele>2</ele>
        <time>2020-03-11T10:35:53Z</time>
      </trkpt>
      <trkpt lat="46.87015" lon="-2.04401">
        <ele>2</ele>
        <time>2020-03-11T10:35:53Z</time>
      </trkpt>
      <trkpt lat="46.87011" lon="-2.0443">
        <ele>2</ele>
        <time>2020-03-11T10:35:53Z</time>
      </trkpt>
      <trkpt lat="46.87004" lon="-2.04465">
        <ele>2</ele>
        <time>2020-03-11T10:35:53Z</time>
      </trkpt>
      <trkpt lat="46.86993" lon="-2.045">
        <ele>2</ele>
        <time>2020-03-11T10:35:53Z</time>
      </trkpt>
      <trkpt lat="46.86982" lon="-2.04531">
        <ele>2</ele>
        <time>2020-03-11T10:35:53Z</time>
      </trkpt>
      <trkpt lat="46.86966" lon="-2.04567">
        <ele>2</ele>
        <time>2020-03-11T10:35:53Z</time>
      </trkpt>
      <trkpt lat="46.86942" lon="-2.04615">
        <ele>2</ele>
        <time>2020-03-11T10:35:53Z</time>
      </trkpt>
      <trkpt lat="46.86904" lon="-2.04706">
        <ele>2</ele>
        <time>2020-03-11T10:35:53Z</time>
      </trkpt>
      <trkpt lat="46.86876" lon="-2.04759">
        <ele>2</ele>
        <time>2020-03-11T10:35:53Z</time>
      </trkpt>
      <trkpt lat="46.86826" lon="-2.05003">
        <ele>2</ele>
        <time>2020-03-11T10:35:53Z</time>
      </trkpt>
      <trkpt lat="46.86792" lon="-2.05138">
        <ele>2</ele>
        <time>2020-03-11T10:35:53Z</time>
      </trkpt>
      <trkpt lat="46.86798" lon="-2.05299">
        <ele>2</ele>
        <time>2020-03-11T10:35:53Z</time>
      </trkpt>
      <trkpt lat="46.86782" lon="-2.05349">
        <ele>2</ele>
        <time>2020-03-11T10:35:53Z</time>
      </trkpt>
      <trkpt lat="46.86751" lon="-2.05399">
        <ele>2</ele>
        <time>2020-03-11T10:35:53Z</time>
      </trkpt>
      <trkpt lat="46.86728" lon="-2.05435">
        <ele>2</ele>
        <time>2020-03-11T10:35:53Z</time>
      </trkpt>
      <trkpt lat="46.86714" lon="-2.05473">
        <ele>2</ele>
        <time>2020-03-11T10:35:53Z</time>
      </trkpt>
      <trkpt lat="46.86709" lon="-2.05503">
        <ele>2</ele>
        <time>2020-03-11T10:35:53Z</time>
      </trkpt>
      <trkpt lat="46.86706" lon="-2.05607">
        <ele>2</ele>
        <time>2020-03-11T10:35:53Z</time>
      </trkpt>
      <trkpt lat="46.86702" lon="-2.05664">
        <ele>2</ele>
        <time>2020-03-11T10:35:53Z</time>
      </trkpt>
      <trkpt lat="46.86692" lon="-2.05706">
        <ele>2</ele>
        <time>2020-03-11T10:35:53Z</time>
      </trkpt>
      <trkpt lat="46.86663" lon="-2.05768">
        <ele>2</ele>
        <time>2020-03-11T10:35:53Z</time>
      </trkpt>
      <trkpt lat="46.8664" lon="-2.05826">
        <ele>2</ele>
        <time>2020-03-11T10:35:53Z</time>
      </trkpt>
      <trkpt lat="46.86621" lon="-2.05862">
        <ele>2</ele>
        <time>2020-03-11T10:35:53Z</time>
      </trkpt>
      <trkpt lat="46.86575" lon="-2.05916">
        <ele>2</ele>
        <time>2020-03-11T10:35:53Z</time>
      </trkpt>
      <trkpt lat="46.86547" lon="-2.05949">
        <ele>2</ele>
        <time>2020-03-11T10:35:53Z</time>
      </trkpt>
      <trkpt lat="46.8653" lon="-2.05966">
        <ele>2</ele>
        <time>2020-03-11T10:35:53Z</time>
      </trkpt>
      <trkpt lat="46.86517" lon="-2.05985">
        <ele>2</ele>
        <time>2020-03-11T10:35:53Z</time>
      </trkpt>
      <trkpt lat="46.86502" lon="-2.06007">
        <ele>2</ele>
        <time>2020-03-11T10:35:53Z</time>
      </trkpt>
      <trkpt lat="46.86484" lon="-2.06036">
        <ele>2</ele>
        <time>2020-03-11T10:35:53Z</time>
      </trkpt>
      <trkpt lat="46.86476" lon="-2.06062">
        <ele>2</ele>
        <time>2020-03-11T10:35:53Z</time>
      </trkpt>
      <trkpt lat="46.86468" lon="-2.06094">
        <ele>2</ele>
        <time>2020-03-11T10:35:53Z</time>
      </trkpt>
      <trkpt lat="46.86458" lon="-2.06149">
        <ele>2</ele>
        <time>2020-03-11T10:35:53Z</time>
      </trkpt>
      <trkpt lat="46.86434" lon="-2.06266">
        <ele>2</ele>
        <time>2020-03-11T10:35:53Z</time>
      </trkpt>
      <trkpt lat="46.86422" lon="-2.06328">
        <ele>2</ele>
        <time>2020-03-11T10:35:53Z</time>
      </trkpt>
      <trkpt lat="46.86408" lon="-2.06425">
        <ele>2</ele>
        <time>2020-03-11T10:35:53Z</time>
      </trkpt>
      <trkpt lat="46.86393" lon="-2.06489">
        <ele>2</ele>
        <time>2020-03-11T10:35:53Z</time>
      </trkpt>
      <trkpt lat="46.86346" lon="-2.06618">
        <ele>2</ele>
        <time>2020-03-11T10:35:53Z</time>
      </trkpt>
      <trkpt lat="46.86328" lon="-2.06664">
        <ele>2</ele>
        <time>2020-03-11T10:35:53Z</time>
      </trkpt>
      <trkpt lat="46.86312" lon="-2.06704">
        <ele>2</ele>
        <time>2020-03-11T10:35:53Z</time>
      </trkpt>
      <trkpt lat="46.86309" lon="-2.06764">
        <ele>2</ele>
        <time>2020-03-11T10:35:53Z</time>
      </trkpt>
      <trkpt lat="46.86307" lon="-2.06818">
        <ele>2</ele>
        <time>2020-03-11T10:35:53Z</time>
      </trkpt>
      <trkpt lat="46.86299" lon="-2.06852">
        <ele>2</ele>
        <time>2020-03-11T10:35:53Z</time>
      </trkpt>
      <trkpt lat="46.86277" lon="-2.06903">
        <ele>2</ele>
        <time>2020-03-11T10:35:53Z</time>
      </trkpt>
      <trkpt lat="46.86259" lon="-2.06953">
        <ele>2</ele>
        <time>2020-03-11T10:35:53Z</time>
      </trkpt>
      <trkpt lat="46.86229" lon="-2.0701">
        <ele>2</ele>
        <time>2020-03-11T10:35:53Z</time>
      </trkpt>
      <trkpt lat="46.86211" lon="-2.07091">
        <ele>2</ele>
        <time>2020-03-11T10:35:53Z</time>
      </trkpt>
      <trkpt lat="46.86192" lon="-2.07184">
        <ele>2</ele>
        <time>2020-03-11T10:35:53Z</time>
      </trkpt>
      <trkpt lat="46.86156" lon="-2.07268">
        <ele>2</ele>
        <time>2020-03-11T10:35:53Z</time>
      </trkpt>
      <trkpt lat="46.86129" lon="-2.07396">
        <ele>2</ele>
        <time>2020-03-11T10:35:53Z</time>
      </trkpt>
      <trkpt lat="46.86126" lon="-2.07458">
        <ele>2</ele>
        <time>2020-03-11T10:35:53Z</time>
      </trkpt>
      <trkpt lat="46.86175" lon="-2.07589">
        <ele>2</ele>
        <time>2020-03-11T10:35:53Z</time>
      </trkpt>
      <trkpt lat="46.86201" lon="-2.07651">
        <ele>2</ele>
        <time>2020-03-11T10:35:53Z</time>
      </trkpt>
      <trkpt lat="46.86255" lon="-2.07773">
        <ele>2</ele>
        <time>2020-03-11T10:35:53Z</time>
      </trkpt>
      <trkpt lat="46.86265" lon="-2.07796">
        <ele>2</ele>
        <time>2020-03-11T10:35:53Z</time>
      </trkpt>
      <trkpt lat="46.86279" lon="-2.07818">
        <ele>2</ele>
        <time>2020-03-11T10:35:53Z</time>
      </trkpt>
      <trkpt lat="46.86305" lon="-2.07839">
        <ele>2</ele>
        <time>2020-03-11T10:35:53Z</time>
      </trkpt>
      <trkpt lat="46.86334" lon="-2.07856">
        <ele>2</ele>
        <time>2020-03-11T10:35:53Z</time>
      </trkpt>
      <trkpt lat="46.8635" lon="-2.07871">
        <ele>1.6</ele>
        <time>2020-03-11T10:35:53Z</time>
      </trkpt>
      <trkpt lat="46.8637" lon="-2.07907">
        <ele>2</ele>
        <time>2020-03-11T10:35:53Z</time>
      </trkpt>
      <trkpt lat="46.86424" lon="-2.08033">
        <ele>2</ele>
        <time>2020-03-11T10:35:53Z</time>
      </trkpt>
      <trkpt lat="46.86463" lon="-2.0809">
        <ele>2</ele>
        <time>2020-03-11T10:35:53Z</time>
      </trkpt>
      <trkpt lat="46.86492" lon="-2.08145">
        <ele>2</ele>
        <time>2020-03-11T10:35:53Z</time>
      </trkpt>
      <trkpt lat="46.86513" lon="-2.08201">
        <ele>1.9</ele>
        <time>2020-03-11T10:35:53Z</time>
      </trkpt>
      <trkpt lat="46.86819" lon="-2.08994">
        <ele>2</ele>
        <time>2020-03-11T10:35:53Z</time>
      </trkpt>
      <trkpt lat="46.86903" lon="-2.09209">
        <ele>2.5</ele>
        <time>2020-03-11T10:35:53Z</time>
      </trkpt>
      <trkpt lat="46.86923" lon="-2.09257">
        <ele>1.9</ele>
        <time>2020-03-11T10:35:53Z</time>
      </trkpt>
      <trkpt lat="46.86938" lon="-2.09292">
        <ele>2</ele>
        <time>2020-03-11T10:35:53Z</time>
      </trkpt>
      <trkpt lat="46.86993" lon="-2.0942">
        <ele>2.1</ele>
        <time>2020-03-11T10:35:53Z</time>
      </trkpt>
      <trkpt lat="46.87123" lon="-2.09714">
        <ele>2</ele>
        <time>2020-03-11T10:35:53Z</time>
      </trkpt>
      <trkpt lat="46.87136" lon="-2.09742">
        <ele>2</ele>
        <time>2020-03-11T10:35:53Z</time>
      </trkpt>
      <trkpt lat="46.87153" lon="-2.09771">
        <ele>2</ele>
        <time>2020-03-11T10:35:53Z</time>
      </trkpt>
      <trkpt lat="46.87166" lon="-2.0979">
        <ele>2</ele>
        <time>2020-03-11T10:35:53Z</time>
      </trkpt>
      <trkpt lat="46.87232" lon="-2.0986">
        <ele>2</ele>
        <time>2020-03-11T10:35:53Z</time>
      </trkpt>
      <trkpt lat="46.87268" lon="-2.09895">
        <ele>1.6</ele>
        <time>2020-03-11T10:35:53Z</time>
      </trkpt>
      <trkpt lat="46.87277" lon="-2.09919">
        <ele>3</ele>
        <time>2020-03-11T10:35:53Z</time>
      </trkpt>
      <trkpt lat="46.87249" lon="-2.09944">
        <ele>2.9</ele>
        <time>2020-03-11T10:35:53Z</time>
      </trkpt>
      <trkpt lat="46.87223" lon="-2.0996">
        <ele>2.6</ele>
        <time>2020-03-11T10:35:53Z</time>
      </trkpt>
      <trkpt lat="46.87197" lon="-2.09978">
        <ele>2.8</ele>
        <time>2020-03-11T10:35:53Z</time>
      </trkpt>
      <trkpt lat="46.87179" lon="-2.09995">
        <ele>2.1</ele>
        <time>2020-03-11T10:35:53Z</time>
      </trkpt>
      <trkpt lat="46.87158" lon="-2.10028">
        <ele>2</ele>
        <time>2020-03-11T10:35:53Z</time>
      </trkpt>
      <trkpt lat="46.87143" lon="-2.1005">
        <ele>2.7</ele>
        <time>2020-03-11T10:35:53Z</time>
      </trkpt>
      <trkpt lat="46.87129" lon="-2.10068">
        <ele>2.7</ele>
        <time>2020-03-11T10:35:53Z</time>
      </trkpt>
      <trkpt lat="46.87123" lon="-2.10093">
        <ele>2.7</ele>
        <time>2020-03-11T10:35:53Z</time>
      </trkpt>
      <trkpt lat="46.87137" lon="-2.1012">
        <ele>2.7</ele>
        <time>2020-03-11T10:35:53Z</time>
      </trkpt>
      <trkpt lat="46.87148" lon="-2.10147">
        <ele>2.2</ele>
        <time>2020-03-11T10:35:53Z</time>
      </trkpt>
      <trkpt lat="46.87154" lon="-2.10173">
        <ele>2.5</ele>
        <time>2020-03-11T10:35:53Z</time>
      </trkpt>
      <trkpt lat="46.87164" lon="-2.10234">
        <ele>2</ele>
        <time>2020-03-11T10:35:53Z</time>
      </trkpt>
      <trkpt lat="46.87169" lon="-2.10265">
        <ele>2</ele>
        <time>2020-03-11T10:35:53Z</time>
      </trkpt>
      <trkpt lat="46.87168" lon="-2.10304">
        <ele>2</ele>
        <time>2020-03-11T10:35:53Z</time>
      </trkpt>
      <trkpt lat="46.87179" lon="-2.10328">
        <ele>2.4</ele>
        <time>2020-03-11T10:35:53Z</time>
      </trkpt>
      <trkpt lat="46.8722" lon="-2.10337">
        <ele>2.9</ele>
        <time>2020-03-11T10:35:53Z</time>
      </trkpt>
      <trkpt lat="46.87238" lon="-2.10341">
        <ele>2.3</ele>
        <time>2020-03-11T10:35:53Z</time>
      </trkpt>
      <trkpt lat="46.87321" lon="-2.10356">
        <ele>2.1</ele>
        <time>2020-03-11T10:35:53Z</time>
      </trkpt>
      <trkpt lat="46.87347" lon="-2.10364">
        <ele>2</ele>
        <time>2020-03-11T10:35:53Z</time>
      </trkpt>
      <trkpt lat="46.87354" lon="-2.10336">
        <ele>2.2</ele>
        <time>2020-03-11T10:35:53Z</time>
      </trkpt>
      <trkpt lat="46.87365" lon="-2.1031">
        <ele>2</ele>
        <time>2020-03-11T10:35:53Z</time>
      </trkpt>
      <trkpt lat="46.87382" lon="-2.10291">
        <ele>2</ele>
        <time>2020-03-11T10:35:53Z</time>
      </trkpt>
      <trkpt lat="46.87397" lon="-2.10271">
        <ele>2.2</ele>
        <time>2020-03-11T10:35:53Z</time>
      </trkpt>
      <trkpt lat="46.87414" lon="-2.10281">
        <ele>2</ele>
        <time>2020-03-11T10:35:53Z</time>
      </trkpt>
      <trkpt lat="46.87435" lon="-2.10297">
        <ele>2.7</ele>
        <time>2020-03-11T10:35:53Z</time>
      </trkpt>
      <trkpt lat="46.87445" lon="-2.10385">
        <ele>2</ele>
        <time>2020-03-11T10:35:53Z</time>
      </trkpt>
      <trkpt lat="46.87449" lon="-2.10412">
        <ele>2</ele>
        <time>2020-03-11T10:35:53Z</time>
      </trkpt>
      <trkpt lat="46.87473" lon="-2.10416">
        <ele>2</ele>
        <time>2020-03-11T10:35:53Z</time>
      </trkpt>
      <trkpt lat="46.87496" lon="-2.10426">
        <ele>2</ele>
        <time>2020-03-11T10:35:53Z</time>
      </trkpt>
      <trkpt lat="46.87513" lon="-2.10439">
        <ele>2</ele>
        <time>2020-03-11T10:35:53Z</time>
      </trkpt>
      <trkpt lat="46.87536" lon="-2.10448">
        <ele>2</ele>
        <time>2020-03-11T10:35:53Z</time>
      </trkpt>
      <trkpt lat="46.87558" lon="-2.10444">
        <ele>2</ele>
        <time>2020-03-11T10:35:53Z</time>
      </trkpt>
      <trkpt lat="46.8759" lon="-2.10468">
        <ele>2</ele>
        <time>2020-03-11T10:35:53Z</time>
      </trkpt>
      <trkpt lat="46.87616" lon="-2.10469">
        <ele>2</ele>
        <time>2020-03-11T10:35:53Z</time>
      </trkpt>
      <trkpt lat="46.87635" lon="-2.10474">
        <ele>2</ele>
        <time>2020-03-11T10:35:53Z</time>
      </trkpt>
      <trkpt lat="46.87659" lon="-2.10473">
        <ele>2</ele>
        <time>2020-03-11T10:35:53Z</time>
      </trkpt>
      <trkpt lat="46.87682" lon="-2.10476">
        <ele>2</ele>
        <time>2020-03-11T10:35:53Z</time>
      </trkpt>
      <trkpt lat="46.87699" lon="-2.10465">
        <ele>2</ele>
        <time>2020-03-11T10:35:53Z</time>
      </trkpt>
      <trkpt lat="46.87717" lon="-2.10454">
        <ele>2</ele>
        <time>2020-03-11T10:35:53Z</time>
      </trkpt>
      <trkpt lat="46.8776" lon="-2.10453">
        <ele>2.2</ele>
        <time>2020-03-11T10:35:53Z</time>
      </trkpt>
      <trkpt lat="46.87781" lon="-2.10451">
        <ele>2.7</ele>
        <time>2020-03-11T10:35:53Z</time>
      </trkpt>
      <trkpt lat="46.87803" lon="-2.10447">
        <ele>2.8</ele>
        <time>2020-03-11T10:35:53Z</time>
      </trkpt>
      <trkpt lat="46.87821" lon="-2.10455">
        <ele>2.1</ele>
        <time>2020-03-11T10:35:53Z</time>
      </trkpt>
      <trkpt lat="46.87841" lon="-2.10479">
        <ele>2</ele>
        <time>2020-03-11T10:35:53Z</time>
      </trkpt>
      <trkpt lat="46.87915" lon="-2.10568">
        <ele>2</ele>
        <time>2020-03-11T10:35:53Z</time>
      </trkpt>
      <trkpt lat="46.88025" lon="-2.10705">
        <ele>2</ele>
        <time>2020-03-11T10:35:53Z</time>
      </trkpt>
      <trkpt lat="46.88042" lon="-2.10722">
        <ele>2</ele>
        <time>2020-03-11T10:35:53Z</time>
      </trkpt>
      <trkpt lat="46.88059" lon="-2.1075">
        <ele>2</ele>
        <time>2020-03-11T10:35:53Z</time>
      </trkpt>
      <trkpt lat="46.88078" lon="-2.10747">
        <ele>2</ele>
        <time>2020-03-11T10:35:53Z</time>
      </trkpt>
      <trkpt lat="46.88106" lon="-2.10728">
        <ele>1.8</ele>
        <time>2020-03-11T10:35:53Z</time>
      </trkpt>
      <trkpt lat="46.88134" lon="-2.10712">
        <ele>1.5</ele>
        <time>2020-03-11T10:35:53Z</time>
      </trkpt>
      <trkpt lat="46.8816" lon="-2.10704">
        <ele>1.7</ele>
        <time>2020-03-11T10:35:53Z</time>
      </trkpt>
      <trkpt lat="46.88187" lon="-2.10694">
        <ele>2</ele>
        <time>2020-03-11T10:35:53Z</time>
      </trkpt>
      <trkpt lat="46.88239" lon="-2.10676">
        <ele>1.7</ele>
        <time>2020-03-11T10:35:53Z</time>
      </trkpt>
      <trkpt lat="46.88254" lon="-2.1066">
        <ele>1.9</ele>
        <time>2020-03-11T10:35:53Z</time>
      </trkpt>
      <trkpt lat="46.8827" lon="-2.10642">
        <ele>1.9</ele>
        <time>2020-03-11T10:35:53Z</time>
      </trkpt>
      <trkpt lat="46.88296" lon="-2.10619">
        <ele>1.8</ele>
        <time>2020-03-11T10:35:53Z</time>
      </trkpt>
      <trkpt lat="46.88323" lon="-2.10601">
        <ele>1.7</ele>
        <time>2020-03-11T10:35:53Z</time>
      </trkpt>
      <trkpt lat="46.88344" lon="-2.10594">
        <ele>1.6</ele>
        <time>2020-03-11T10:35:53Z</time>
      </trkpt>
      <trkpt lat="46.88364" lon="-2.10597">
        <ele>1.6</ele>
        <time>2020-03-11T10:35:53Z</time>
      </trkpt>
      <trkpt lat="46.88384" lon="-2.10614">
        <ele>1.8</ele>
        <time>2020-03-11T10:35:53Z</time>
      </trkpt>
      <trkpt lat="46.88408" lon="-2.10618">
        <ele>1.8</ele>
        <time>2020-03-11T10:35:53Z</time>
      </trkpt>
      <trkpt lat="46.88434" lon="-2.1061">
        <ele>2</ele>
        <time>2020-03-11T10:35:53Z</time>
      </trkpt>
      <trkpt lat="46.88456" lon="-2.10615">
        <ele>2.2</ele>
        <time>2020-03-11T10:35:53Z</time>
      </trkpt>
      <trkpt lat="46.88481" lon="-2.10642">
        <ele>1.6</ele>
        <time>2020-03-11T10:35:53Z</time>
      </trkpt>
      <trkpt lat="46.88505" lon="-2.10654">
        <ele>1.9</ele>
        <time>2020-03-11T10:35:53Z</time>
      </trkpt>
      <trkpt lat="46.88552" lon="-2.1067">
        <ele>1.9</ele>
        <time>2020-03-11T10:35:53Z</time>
      </trkpt>
      <trkpt lat="46.88571" lon="-2.10682">
        <ele>1.8</ele>
        <time>2020-03-11T10:35:53Z</time>
      </trkpt>
      <trkpt lat="46.88584" lon="-2.10703">
        <ele>1.7</ele>
        <time>2020-03-11T10:35:53Z</time>
      </trkpt>
      <trkpt lat="46.88597" lon="-2.10724">
        <ele>2</ele>
        <time>2020-03-11T10:35:53Z</time>
      </trkpt>
      <trkpt lat="46.88622" lon="-2.10731">
        <ele>2.1</ele>
        <time>2020-03-11T10:35:53Z</time>
      </trkpt>
      <trkpt lat="46.88645" lon="-2.10726">
        <ele>1.9</ele>
        <time>2020-03-11T10:35:53Z</time>
      </trkpt>
      <trkpt lat="46.88664" lon="-2.10735">
        <ele>1.5</ele>
        <time>2020-03-11T10:35:53Z</time>
      </trkpt>
      <trkpt lat="46.88677" lon="-2.10754">
        <ele>1.1</ele>
        <time>2020-03-11T10:35:53Z</time>
      </trkpt>
      <trkpt lat="46.88694" lon="-2.10803">
        <ele>2.9</ele>
        <time>2020-03-11T10:35:53Z</time>
      </trkpt>
      <trkpt lat="46.88685" lon="-2.10836">
        <ele>1.7</ele>
        <time>2020-03-11T10:35:53Z</time>
      </trkpt>
      <trkpt lat="46.88687" lon="-2.10865">
        <ele>2.1</ele>
        <time>2020-03-11T10:35:53Z</time>
      </trkpt>
      <trkpt lat="46.88696" lon="-2.10918">
        <ele>2.9</ele>
        <time>2020-03-11T10:35:53Z</time>
      </trkpt>
      <trkpt lat="46.88704" lon="-2.10948">
        <ele>2.4</ele>
        <time>2020-03-11T10:35:53Z</time>
      </trkpt>
      <trkpt lat="46.8872" lon="-2.10976">
        <ele>2.9</ele>
        <time>2020-03-11T10:35:53Z</time>
      </trkpt>
      <trkpt lat="46.88739" lon="-2.10982">
        <ele>1.9</ele>
        <time>2020-03-11T10:35:53Z</time>
      </trkpt>
      <trkpt lat="46.88761" lon="-2.10982">
        <ele>1.9</ele>
        <time>2020-03-11T10:35:53Z</time>
      </trkpt>
      <trkpt lat="46.88806" lon="-2.10975">
        <ele>2.1</ele>
        <time>2020-03-11T10:35:53Z</time>
      </trkpt>
      <trkpt lat="46.88828" lon="-2.10987">
        <ele>1.7</ele>
        <time>2020-03-11T10:35:53Z</time>
      </trkpt>
      <trkpt lat="46.88855" lon="-2.10986">
        <ele>1.9</ele>
        <time>2020-03-11T10:35:53Z</time>
      </trkpt>
      <trkpt lat="46.88888" lon="-2.10991">
        <ele>2.4</ele>
        <time>2020-03-11T10:35:53Z</time>
      </trkpt>
      <trkpt lat="46.88911" lon="-2.10994">
        <ele>3.2</ele>
        <time>2020-03-11T10:35:53Z</time>
      </trkpt>
      <trkpt lat="46.88913" lon="-2.11031">
        <ele>3.9</ele>
        <time>2020-03-11T10:35:53Z</time>
      </trkpt>
      <trkpt lat="46.88912" lon="-2.11072">
        <ele>3.8</ele>
        <time>2020-03-11T10:35:53Z</time>
      </trkpt>
      <trkpt lat="46.889" lon="-2.11109">
        <ele>4</ele>
        <time>2020-03-11T10:35:53Z</time>
      </trkpt>
      <trkpt lat="46.88892" lon="-2.11133">
        <ele>4</ele>
        <time>2020-03-11T10:35:53Z</time>
      </trkpt>
      <trkpt lat="46.88889" lon="-2.11161">
        <ele>4</ele>
        <time>2020-03-11T10:35:53Z</time>
      </trkpt>
      <trkpt lat="46.88888" lon="-2.11189">
        <ele>4</ele>
        <time>2020-03-11T10:35:53Z</time>
      </trkpt>
      <trkpt lat="46.88868" lon="-2.11188">
        <ele>3.2</ele>
        <time>2020-03-11T10:35:53Z</time>
      </trkpt>
      <trkpt lat="46.88809" lon="-2.11269">
        <ele>3</ele>
        <time>2020-03-11T10:35:53Z</time>
      </trkpt>
      <trkpt lat="46.88827" lon="-2.11293">
        <ele>2.9</ele>
        <time>2020-03-11T10:35:53Z</time>
      </trkpt>
      <trkpt lat="46.8885" lon="-2.1131">
        <ele>2.9</ele>
        <time>2020-03-11T10:35:53Z</time>
      </trkpt>
      <trkpt lat="46.88878" lon="-2.11309">
        <ele>3</ele>
        <time>2020-03-11T10:35:53Z</time>
      </trkpt>
      <trkpt lat="46.88896" lon="-2.11305">
        <ele>3</ele>
        <time>2020-03-11T10:35:53Z</time>
      </trkpt>
      <trkpt lat="46.88964" lon="-2.11285">
        <ele>4</ele>
        <time>2020-03-11T10:35:53Z</time>
      </trkpt>
      <trkpt lat="46.88975" lon="-2.11359">
        <ele>3.9</ele>
        <time>2020-03-11T10:35:53Z</time>
      </trkpt>
      <trkpt lat="46.88969" lon="-2.1141">
        <ele>4</ele>
        <time>2020-03-11T10:35:53Z</time>
      </trkpt>
      <trkpt lat="46.88953" lon="-2.11473">
        <ele>4</ele>
        <time>2020-03-11T10:35:53Z</time>
      </trkpt>
      <trkpt lat="46.88955" lon="-2.11501">
        <ele>4.4</ele>
        <time>2020-03-11T10:35:53Z</time>
      </trkpt>
      <trkpt lat="46.88969" lon="-2.11583">
        <ele>3.9</ele>
        <time>2020-03-11T10:35:53Z</time>
      </trkpt>
      <trkpt lat="46.88998" lon="-2.11604">
        <ele>4</ele>
        <time>2020-03-11T10:35:53Z</time>
      </trkpt>
      <trkpt lat="46.89003" lon="-2.11636">
        <ele>3.9</ele>
        <time>2020-03-11T10:35:53Z</time>
      </trkpt>
      <trkpt lat="46.89001" lon="-2.11675">
        <ele>4</ele>
        <time>2020-03-11T10:35:53Z</time>
      </trkpt>
      <trkpt lat="46.88993" lon="-2.11745">
        <ele>3.3</ele>
        <time>2020-03-11T10:35:53Z</time>
      </trkpt>
      <trkpt lat="46.8899" lon="-2.11796">
        <ele>3.4</ele>
        <time>2020-03-11T10:35:53Z</time>
      </trkpt>
      <trkpt lat="46.88989" lon="-2.1188">
        <ele>3.1</ele>
        <time>2020-03-11T10:35:53Z</time>
      </trkpt>
      <trkpt lat="46.88983" lon="-2.11915">
        <ele>3.6</ele>
        <time>2020-03-11T10:35:53Z</time>
      </trkpt>
      <trkpt lat="46.88968" lon="-2.11969">
        <ele>3.8</ele>
        <time>2020-03-11T10:35:53Z</time>
      </trkpt>
      <trkpt lat="46.8896" lon="-2.1201">
        <ele>4</ele>
        <time>2020-03-11T10:35:53Z</time>
      </trkpt>
      <trkpt lat="46.88953" lon="-2.12043">
        <ele>4.4</ele>
        <time>2020-03-11T10:35:53Z</time>
      </trkpt>
      <trkpt lat="46.88943" lon="-2.12083">
        <ele>4.9</ele>
        <time>2020-03-11T10:35:53Z</time>
      </trkpt>
      <trkpt lat="46.88921" lon="-2.12094">
        <ele>4.2</ele>
        <time>2020-03-11T10:35:53Z</time>
      </trkpt>
      <trkpt lat="46.88904" lon="-2.12113">
        <ele>4</ele>
        <time>2020-03-11T10:35:53Z</time>
      </trkpt>
      <trkpt lat="46.88858" lon="-2.12138">
        <ele>4</ele>
        <time>2020-03-11T10:35:53Z</time>
      </trkpt>
      <trkpt lat="46.88813" lon="-2.12158">
        <ele>4</ele>
        <time>2020-03-11T10:35:53Z</time>
      </trkpt>
      <trkpt lat="46.88782" lon="-2.12175">
        <ele>4</ele>
        <time>2020-03-11T10:35:53Z</time>
      </trkpt>
      <trkpt lat="46.88721" lon="-2.12215">
        <ele>5</ele>
        <time>2020-03-11T10:35:53Z</time>
      </trkpt>
      <trkpt lat="46.88682" lon="-2.12238">
        <ele>6</ele>
        <time>2020-03-11T10:35:53Z</time>
      </trkpt>
      <trkpt lat="46.88652" lon="-2.12262">
        <ele>7</ele>
        <time>2020-03-11T10:35:53Z</time>
      </trkpt>
      <trkpt lat="46.88603" lon="-2.12314">
        <ele>7</ele>
        <time>2020-03-11T10:35:53Z</time>
      </trkpt>
      <trkpt lat="46.88556" lon="-2.12363">
        <ele>6</ele>
        <time>2020-03-11T10:35:53Z</time>
      </trkpt>
      <trkpt lat="46.8853" lon="-2.12383">
        <ele>6</ele>
        <time>2020-03-11T10:35:53Z</time>
      </trkpt>
      <trkpt lat="46.88505" lon="-2.12395">
        <ele>5.7</ele>
        <time>2020-03-11T10:35:53Z</time>
      </trkpt>
      <trkpt lat="46.88493" lon="-2.12415">
        <ele>5</ele>
        <time>2020-03-11T10:35:53Z</time>
      </trkpt>
      <trkpt lat="46.88475" lon="-2.12422">
        <ele>5</ele>
        <time>2020-03-11T10:35:53Z</time>
      </trkpt>
      <trkpt lat="46.8847" lon="-2.12452">
        <ele>5</ele>
        <time>2020-03-11T10:35:53Z</time>
      </trkpt>
      <trkpt lat="46.88458" lon="-2.12477">
        <ele>4.9</ele>
        <time>2020-03-11T10:35:53Z</time>
      </trkpt>
      <trkpt lat="46.88439" lon="-2.12466">
        <ele>4.8</ele>
        <time>2020-03-11T10:35:53Z</time>
      </trkpt>
      <trkpt lat="46.88414" lon="-2.12457">
        <ele>4.5</ele>
        <time>2020-03-11T10:35:53Z</time>
      </trkpt>
      <trkpt lat="46.8839" lon="-2.12466">
        <ele>4</ele>
        <time>2020-03-11T10:35:53Z</time>
      </trkpt>
      <trkpt lat="46.8832" lon="-2.12526">
        <ele>4</ele>
        <time>2020-03-11T10:35:53Z</time>
      </trkpt>
      <trkpt lat="46.88295" lon="-2.1254">
        <ele>4</ele>
        <time>2020-03-11T10:35:53Z</time>
      </trkpt>
      <trkpt lat="46.8827" lon="-2.12544">
        <ele>4.2</ele>
        <time>2020-03-11T10:35:53Z</time>
      </trkpt>
      <trkpt lat="46.88245" lon="-2.12542">
        <ele>4.5</ele>
        <time>2020-03-11T10:35:53Z</time>
      </trkpt>
      <trkpt lat="46.88202" lon="-2.1253">
        <ele>4.1</ele>
        <time>2020-03-11T10:35:53Z</time>
      </trkpt>
      <trkpt lat="46.88166" lon="-2.12522">
        <ele>4.8</ele>
        <time>2020-03-11T10:35:53Z</time>
      </trkpt>
      <trkpt lat="46.88125" lon="-2.12514">
        <ele>4.3</ele>
        <time>2020-03-11T10:35:53Z</time>
      </trkpt>
      <trkpt lat="46.88099" lon="-2.12506">
        <ele>4.2</ele>
        <time>2020-03-11T10:35:53Z</time>
      </trkpt>
      <trkpt lat="46.88074" lon="-2.12495">
        <ele>4.3</ele>
        <time>2020-03-11T10:35:53Z</time>
      </trkpt>
      <trkpt lat="46.88031" lon="-2.12471">
        <ele>4</ele>
        <time>2020-03-11T10:35:53Z</time>
      </trkpt>
      <trkpt lat="46.88004" lon="-2.12458">
        <ele>5.7</ele>
        <time>2020-03-11T10:35:53Z</time>
      </trkpt>
      <trkpt lat="46.87914" lon="-2.12438">
        <ele>5.5</ele>
        <time>2020-03-11T10:35:53Z</time>
      </trkpt>
      <trkpt lat="46.87839" lon="-2.12449">
        <ele>4.1</ele>
        <time>2020-03-11T10:35:53Z</time>
      </trkpt>
      <trkpt lat="46.87762" lon="-2.12464">
        <ele>4</ele>
        <time>2020-03-11T10:35:53Z</time>
      </trkpt>
      <trkpt lat="46.87738" lon="-2.12463">
        <ele>4</ele>
        <time>2020-03-11T10:35:53Z</time>
      </trkpt>
      <trkpt lat="46.87709" lon="-2.12459">
        <ele>4.2</ele>
        <time>2020-03-11T10:35:53Z</time>
      </trkpt>
      <trkpt lat="46.87684" lon="-2.12448">
        <ele>4.3</ele>
        <time>2020-03-11T10:35:53Z</time>
      </trkpt>
      <trkpt lat="46.87607" lon="-2.12402">
        <ele>4.8</ele>
        <time>2020-03-11T10:35:53Z</time>
      </trkpt>
      <trkpt lat="46.87584" lon="-2.12387">
        <ele>4</ele>
        <time>2020-03-11T10:35:53Z</time>
      </trkpt>
      <trkpt lat="46.87544" lon="-2.12347">
        <ele>5.1</ele>
        <time>2020-03-11T10:35:53Z</time>
      </trkpt>
      <trkpt lat="46.8751" lon="-2.12332">
        <ele>4.6</ele>
        <time>2020-03-11T10:35:53Z</time>
      </trkpt>
      <trkpt lat="46.87488" lon="-2.12356">
        <ele>8.7</ele>
        <time>2020-03-11T10:35:53Z</time>
      </trkpt>
      <trkpt lat="46.87453" lon="-2.12364">
        <ele>8</ele>
        <time>2020-03-11T10:35:53Z</time>
      </trkpt>
      <trkpt lat="46.8743" lon="-2.12382">
        <ele>7.7</ele>
        <time>2020-03-11T10:35:53Z</time>
      </trkpt>
      <trkpt lat="46.87401" lon="-2.12423">
        <ele>7.9</ele>
        <time>2020-03-11T10:35:53Z</time>
      </trkpt>
      <trkpt lat="46.87367" lon="-2.12444">
        <ele>5.6</ele>
        <time>2020-03-11T10:35:53Z</time>
      </trkpt>
      <trkpt lat="46.87336" lon="-2.12441">
        <ele>5.7</ele>
        <time>2020-03-11T10:35:53Z</time>
      </trkpt>
      <trkpt lat="46.87307" lon="-2.12432">
        <ele>5.6</ele>
        <time>2020-03-11T10:35:53Z</time>
      </trkpt>
      <trkpt lat="46.87266" lon="-2.1242">
        <ele>6.7</ele>
        <time>2020-03-11T10:35:53Z</time>
      </trkpt>
      <trkpt lat="46.8722" lon="-2.12394">
        <ele>6.9</ele>
        <time>2020-03-11T10:35:53Z</time>
      </trkpt>
      <trkpt lat="46.87194" lon="-2.12373">
        <ele>5.7</ele>
        <time>2020-03-11T10:35:53Z</time>
      </trkpt>
      <trkpt lat="46.87146" lon="-2.12357">
        <ele>5.5</ele>
        <time>2020-03-11T10:35:53Z</time>
      </trkpt>
      <trkpt lat="46.87101" lon="-2.12357">
        <ele>6.2</ele>
        <time>2020-03-11T10:35:53Z</time>
      </trkpt>
      <trkpt lat="46.87064" lon="-2.12364">
        <ele>5.1</ele>
        <time>2020-03-11T10:35:53Z</time>
      </trkpt>
      <trkpt lat="46.87041" lon="-2.12368">
        <ele>4.9</ele>
        <time>2020-03-11T10:35:53Z</time>
      </trkpt>
      <trkpt lat="46.87006" lon="-2.124">
        <ele>5.6</ele>
        <time>2020-03-11T10:35:53Z</time>
      </trkpt>
      <trkpt lat="46.86976" lon="-2.12451">
        <ele>6</ele>
        <time>2020-03-11T10:35:53Z</time>
      </trkpt>
      <trkpt lat="46.86951" lon="-2.1247">
        <ele>5.8</ele>
        <time>2020-03-11T10:35:53Z</time>
      </trkpt>
      <trkpt lat="46.86923" lon="-2.12483">
        <ele>5</ele>
        <time>2020-03-11T10:35:53Z</time>
      </trkpt>
      <trkpt lat="46.86882" lon="-2.12484">
        <ele>6.1</ele>
        <time>2020-03-11T10:35:53Z</time>
      </trkpt>
      <trkpt lat="46.86852" lon="-2.12482">
        <ele>5.6</ele>
        <time>2020-03-11T10:35:53Z</time>
      </trkpt>
      <trkpt lat="46.8683" lon="-2.12479">
        <ele>5.4</ele>
        <time>2020-03-11T10:35:53Z</time>
      </trkpt>
      <trkpt lat="46.8679" lon="-2.12478">
        <ele>5.8</ele>
        <time>2020-03-11T10:35:53Z</time>
      </trkpt>
      <trkpt lat="46.86745" lon="-2.1246">
        <ele>5.9</ele>
        <time>2020-03-11T10:35:53Z</time>
      </trkpt>
      <trkpt lat="46.86691" lon="-2.12413">
        <ele>6.1</ele>
        <time>2020-03-11T10:35:53Z</time>
      </trkpt>
      <trkpt lat="46.86671" lon="-2.12389">
        <ele>5.2</ele>
        <time>2020-03-11T10:35:53Z</time>
      </trkpt>
      <trkpt lat="46.86653" lon="-2.1238">
        <ele>5.2</ele>
        <time>2020-03-11T10:35:53Z</time>
      </trkpt>
      <trkpt lat="46.86624" lon="-2.12392">
        <ele>7.3</ele>
        <time>2020-03-11T10:35:53Z</time>
      </trkpt>
      <trkpt lat="46.86597" lon="-2.124">
        <ele>7.2</ele>
        <time>2020-03-11T10:35:53Z</time>
      </trkpt>
      <trkpt lat="46.86562" lon="-2.12421">
        <ele>5.5</ele>
        <time>2020-03-11T10:35:53Z</time>
      </trkpt>
      <trkpt lat="46.86533" lon="-2.1244">
        <ele>5</ele>
        <time>2020-03-11T10:35:53Z</time>
      </trkpt>
      <trkpt lat="46.86501" lon="-2.1245">
        <ele>4.2</ele>
        <time>2020-03-11T10:35:53Z</time>
      </trkpt>
      <trkpt lat="46.86476" lon="-2.12471">
        <ele>4.1</ele>
        <time>2020-03-11T10:35:53Z</time>
      </trkpt>
      <trkpt lat="46.86464" lon="-2.12495">
        <ele>4</ele>
        <time>2020-03-11T10:35:53Z</time>
      </trkpt>
      <trkpt lat="46.86446" lon="-2.12498">
        <ele>4</ele>
        <time>2020-03-11T10:35:53Z</time>
      </trkpt>
      <trkpt lat="46.86392" lon="-2.12494">
        <ele>4</ele>
        <time>2020-03-11T10:35:53Z</time>
      </trkpt>
      <trkpt lat="46.86367" lon="-2.12497">
        <ele>4.7</ele>
        <time>2020-03-11T10:35:53Z</time>
      </trkpt>
      <trkpt lat="46.86333" lon="-2.12442">
        <ele>6</ele>
        <time>2020-03-11T10:35:53Z</time>
      </trkpt>
      <trkpt lat="46.86304" lon="-2.12384">
        <ele>5.8</ele>
        <time>2020-03-11T10:35:53Z</time>
      </trkpt>
      <trkpt lat="46.86277" lon="-2.12322">
        <ele>5.1</ele>
        <time>2020-03-11T10:35:53Z</time>
      </trkpt>
      <trkpt lat="46.86268" lon="-2.12266">
        <ele>5.5</ele>
        <time>2020-03-11T10:35:53Z</time>
      </trkpt>
      <trkpt lat="46.86251" lon="-2.12232">
        <ele>5.3</ele>
        <time>2020-03-11T10:35:53Z</time>
      </trkpt>
      <trkpt lat="46.86232" lon="-2.12212">
        <ele>5.4</ele>
        <time>2020-03-11T10:35:53Z</time>
      </trkpt>
      <trkpt lat="46.86211" lon="-2.12183">
        <ele>8</ele>
        <time>2020-03-11T10:35:53Z</time>
      </trkpt>
      <trkpt lat="46.86211" lon="-2.12153">
        <ele>9.1</ele>
        <time>2020-03-11T10:35:53Z</time>
      </trkpt>
      <trkpt lat="46.86225" lon="-2.12126">
        <ele>5.6</ele>
        <time>2020-03-11T10:35:53Z</time>
      </trkpt>
      <trkpt lat="46.86226" lon="-2.12083">
        <ele>6.6</ele>
        <time>2020-03-11T10:35:53Z</time>
      </trkpt>
      <trkpt lat="46.86219" lon="-2.12053">
        <ele>6.7</ele>
        <time>2020-03-11T10:35:53Z</time>
      </trkpt>
      <trkpt lat="46.86202" lon="-2.12036">
        <ele>5.4</ele>
        <time>2020-03-11T10:35:53Z</time>
      </trkpt>
      <trkpt lat="46.86155" lon="-2.12023">
        <ele>4.3</ele>
        <time>2020-03-11T10:35:53Z</time>
      </trkpt>
      <trkpt lat="46.86122" lon="-2.12012">
        <ele>4.4</ele>
        <time>2020-03-11T10:35:53Z</time>
      </trkpt>
      <trkpt lat="46.86101" lon="-2.11999">
        <ele>4</ele>
        <time>2020-03-11T10:35:53Z</time>
      </trkpt>
      <trkpt lat="46.86073" lon="-2.11962">
        <ele>4</ele>
        <time>2020-03-11T10:35:53Z</time>
      </trkpt>
      <trkpt lat="46.86055" lon="-2.11951">
        <ele>4</ele>
        <time>2020-03-11T10:35:53Z</time>
      </trkpt>
      <trkpt lat="46.86034" lon="-2.11927">
        <ele>4.3</ele>
        <time>2020-03-11T10:35:53Z</time>
      </trkpt>
      <trkpt lat="46.86009" lon="-2.11899">
        <ele>4.5</ele>
        <time>2020-03-11T10:35:53Z</time>
      </trkpt>
      <trkpt lat="46.8599" lon="-2.11881">
        <ele>4.3</ele>
        <time>2020-03-11T10:35:53Z</time>
      </trkpt>
      <trkpt lat="46.85971" lon="-2.11868">
        <ele>4.7</ele>
        <time>2020-03-11T10:35:53Z</time>
      </trkpt>
      <trkpt lat="46.85944" lon="-2.11835">
        <ele>4.2</ele>
        <time>2020-03-11T10:35:53Z</time>
      </trkpt>
      <trkpt lat="46.85929" lon="-2.11815">
        <ele>4.7</ele>
        <time>2020-03-11T10:35:53Z</time>
      </trkpt>
      <trkpt lat="46.85911" lon="-2.11809">
        <ele>5.3</ele>
        <time>2020-03-11T10:35:53Z</time>
      </trkpt>
      <trkpt lat="46.85877" lon="-2.11858">
        <ele>6</ele>
        <time>2020-03-11T10:35:53Z</time>
      </trkpt>
      <trkpt lat="46.8586" lon="-2.11898">
        <ele>7.1</ele>
        <time>2020-03-11T10:35:53Z</time>
      </trkpt>
      <trkpt lat="46.8585" lon="-2.11941">
        <ele>9.1</ele>
        <time>2020-03-11T10:35:53Z</time>
      </trkpt>
      <trkpt lat="46.85837" lon="-2.11967">
        <ele>10.7</ele>
        <time>2020-03-11T10:35:53Z</time>
      </trkpt>
      <trkpt lat="46.85819" lon="-2.11993">
        <ele>10.2</ele>
        <time>2020-03-11T10:35:53Z</time>
      </trkpt>
      <trkpt lat="46.8576" lon="-2.12051">
        <ele>8.5</ele>
        <time>2020-03-11T10:35:53Z</time>
      </trkpt>
      <trkpt lat="46.85723" lon="-2.12091">
        <ele>8.4</ele>
        <time>2020-03-11T10:35:53Z</time>
      </trkpt>
      <trkpt lat="46.8569" lon="-2.12134">
        <ele>5.8</ele>
        <time>2020-03-11T10:35:53Z</time>
      </trkpt>
      <trkpt lat="46.85669" lon="-2.12161">
        <ele>6.2</ele>
        <time>2020-03-11T10:35:53Z</time>
      </trkpt>
      <trkpt lat="46.85666" lon="-2.12215">
        <ele>5.3</ele>
        <time>2020-03-11T10:35:53Z</time>
      </trkpt>
      <trkpt lat="46.85673" lon="-2.1227">
        <ele>6.9</ele>
        <time>2020-03-11T10:35:53Z</time>
      </trkpt>
      <trkpt lat="46.85658" lon="-2.12294">
        <ele>6.6</ele>
        <time>2020-03-11T10:35:53Z</time>
      </trkpt>
      <trkpt lat="46.85619" lon="-2.12297">
        <ele>5.2</ele>
        <time>2020-03-11T10:35:53Z</time>
      </trkpt>
      <trkpt lat="46.85594" lon="-2.12301">
        <ele>5</ele>
        <time>2020-03-11T10:35:53Z</time>
      </trkpt>
      <trkpt lat="46.85571" lon="-2.12306">
        <ele>5</ele>
        <time>2020-03-11T10:35:53Z</time>
      </trkpt>
      <trkpt lat="46.85544" lon="-2.1233">
        <ele>5</ele>
        <time>2020-03-11T10:35:53Z</time>
      </trkpt>
      <trkpt lat="46.85506" lon="-2.12362">
        <ele>5</ele>
        <time>2020-03-11T10:35:53Z</time>
      </trkpt>
      <trkpt lat="46.85493" lon="-2.12381">
        <ele>5</ele>
        <time>2020-03-11T10:35:53Z</time>
      </trkpt>
      <trkpt lat="46.85476" lon="-2.12398">
        <ele>5</ele>
        <time>2020-03-11T10:35:53Z</time>
      </trkpt>
      <trkpt lat="46.8545" lon="-2.12433">
        <ele>5.6</ele>
        <time>2020-03-11T10:35:53Z</time>
      </trkpt>
      <trkpt lat="46.85426" lon="-2.12469">
        <ele>5.6</ele>
        <time>2020-03-11T10:35:53Z</time>
      </trkpt>
      <trkpt lat="46.85394" lon="-2.12481">
        <ele>5</ele>
        <time>2020-03-11T10:35:53Z</time>
      </trkpt>
      <trkpt lat="46.85372" lon="-2.12506">
        <ele>5.2</ele>
        <time>2020-03-11T10:35:53Z</time>
      </trkpt>
      <trkpt lat="46.85342" lon="-2.12528">
        <ele>4.3</ele>
        <time>2020-03-11T10:35:53Z</time>
      </trkpt>
      <trkpt lat="46.85323" lon="-2.12542">
        <ele>4.7</ele>
        <time>2020-03-11T10:35:53Z</time>
      </trkpt>
      <trkpt lat="46.85299" lon="-2.12579">
        <ele>5</ele>
        <time>2020-03-11T10:35:53Z</time>
      </trkpt>
      <trkpt lat="46.85284" lon="-2.12603">
        <ele>5.3</ele>
        <time>2020-03-11T10:35:53Z</time>
      </trkpt>
      <trkpt lat="46.85257" lon="-2.12635">
        <ele>4.9</ele>
        <time>2020-03-11T10:35:53Z</time>
      </trkpt>
      <trkpt lat="46.85234" lon="-2.1266">
        <ele>5.3</ele>
        <time>2020-03-11T10:35:53Z</time>
      </trkpt>
      <trkpt lat="46.85221" lon="-2.12679">
        <ele>4.8</ele>
        <time>2020-03-11T10:35:53Z</time>
      </trkpt>
      <trkpt lat="46.85204" lon="-2.12722">
        <ele>6</ele>
        <time>2020-03-11T10:35:53Z</time>
      </trkpt>
      <trkpt lat="46.85176" lon="-2.12745">
        <ele>4.8</ele>
        <time>2020-03-11T10:35:53Z</time>
      </trkpt>
      <trkpt lat="46.85156" lon="-2.12765">
        <ele>5.2</ele>
        <time>2020-03-11T10:35:53Z</time>
      </trkpt>
      <trkpt lat="46.85143" lon="-2.12786">
        <ele>6.2</ele>
        <time>2020-03-11T10:35:53Z</time>
      </trkpt>
      <trkpt lat="46.85104" lon="-2.12798">
        <ele>5.7</ele>
        <time>2020-03-11T10:35:53Z</time>
      </trkpt>
      <trkpt lat="46.85084" lon="-2.12807">
        <ele>6.3</ele>
        <time>2020-03-11T10:35:53Z</time>
      </trkpt>
      <trkpt lat="46.85057" lon="-2.12823">
        <ele>9.3</ele>
        <time>2020-03-11T10:35:53Z</time>
      </trkpt>
      <trkpt lat="46.85041" lon="-2.12843">
        <ele>9.8</ele>
        <time>2020-03-11T10:35:53Z</time>
      </trkpt>
      <trkpt lat="46.85005" lon="-2.12859">
        <ele>7.3</ele>
        <time>2020-03-11T10:35:53Z</time>
      </trkpt>
      <trkpt lat="46.84976" lon="-2.12915">
        <ele>6.6</ele>
        <time>2020-03-11T10:35:53Z</time>
      </trkpt>
      <trkpt lat="46.84954" lon="-2.12943">
        <ele>7.3</ele>
        <time>2020-03-11T10:35:53Z</time>
      </trkpt>
      <trkpt lat="46.84929" lon="-2.12956">
        <ele>7.3</ele>
        <time>2020-03-11T10:35:53Z</time>
      </trkpt>
      <trkpt lat="46.84907" lon="-2.12967">
        <ele>7</ele>
        <time>2020-03-11T10:35:53Z</time>
      </trkpt>
      <trkpt lat="46.84884" lon="-2.12988">
        <ele>7.3</ele>
        <time>2020-03-11T10:35:53Z</time>
      </trkpt>
      <trkpt lat="46.84854" lon="-2.13008">
        <ele>5.6</ele>
        <time>2020-03-11T10:35:53Z</time>
      </trkpt>
      <trkpt lat="46.84828" lon="-2.13015">
        <ele>4.5</ele>
        <time>2020-03-11T10:35:53Z</time>
      </trkpt>
      <trkpt lat="46.84806" lon="-2.13023">
        <ele>4.2</ele>
        <time>2020-03-11T10:35:53Z</time>
      </trkpt>
      <trkpt lat="46.8478" lon="-2.13055">
        <ele>5</ele>
        <time>2020-03-11T10:35:53Z</time>
      </trkpt>
      <trkpt lat="46.84759" lon="-2.13068">
        <ele>6</ele>
        <time>2020-03-11T10:35:53Z</time>
      </trkpt>
      <trkpt lat="46.84741" lon="-2.13071">
        <ele>5.7</ele>
        <time>2020-03-11T10:35:53Z</time>
      </trkpt>
      <trkpt lat="46.84721" lon="-2.1307">
        <ele>5</ele>
        <time>2020-03-11T10:35:53Z</time>
      </trkpt>
      <trkpt lat="46.84699" lon="-2.13076">
        <ele>5</ele>
        <time>2020-03-11T10:35:53Z</time>
      </trkpt>
      <trkpt lat="46.8468" lon="-2.13101">
        <ele>4.8</ele>
        <time>2020-03-11T10:35:53Z</time>
      </trkpt>
      <trkpt lat="46.84671" lon="-2.13138">
        <ele>6</ele>
        <time>2020-03-11T10:35:53Z</time>
      </trkpt>
      <trkpt lat="46.84651" lon="-2.13151">
        <ele>6.2</ele>
        <time>2020-03-11T10:35:53Z</time>
      </trkpt>
      <trkpt lat="46.84629" lon="-2.13178">
        <ele>6.7</ele>
        <time>2020-03-11T10:35:53Z</time>
      </trkpt>
      <trkpt lat="46.84619" lon="-2.13201">
        <ele>7.6</ele>
        <time>2020-03-11T10:35:53Z</time>
      </trkpt>
      <trkpt lat="46.84599" lon="-2.13214">
        <ele>8</ele>
        <time>2020-03-11T10:35:53Z</time>
      </trkpt>
      <trkpt lat="46.84572" lon="-2.13223">
        <ele>8.1</ele>
        <time>2020-03-11T10:35:53Z</time>
      </trkpt>
      <trkpt lat="46.84506" lon="-2.13248">
        <ele>8.9</ele>
        <time>2020-03-11T10:35:53Z</time>
      </trkpt>
      <trkpt lat="46.84477" lon="-2.13262">
        <ele>9.7</ele>
        <time>2020-03-11T10:35:53Z</time>
      </trkpt>
      <trkpt lat="46.84456" lon="-2.13288">
        <ele>9.2</ele>
        <time>2020-03-11T10:35:53Z</time>
      </trkpt>
      <trkpt lat="46.8444" lon="-2.13308">
        <ele>8.5</ele>
        <time>2020-03-11T10:35:53Z</time>
      </trkpt>
      <trkpt lat="46.84416" lon="-2.13312">
        <ele>7</ele>
        <time>2020-03-11T10:35:53Z</time>
      </trkpt>
      <trkpt lat="46.84387" lon="-2.13318">
        <ele>6.1</ele>
        <time>2020-03-11T10:35:53Z</time>
      </trkpt>
      <trkpt lat="46.84368" lon="-2.13327">
        <ele>5.3</ele>
        <time>2020-03-11T10:35:53Z</time>
      </trkpt>
      <trkpt lat="46.84338" lon="-2.13355">
        <ele>5.7</ele>
        <time>2020-03-11T10:35:53Z</time>
      </trkpt>
      <trkpt lat="46.84321" lon="-2.13376">
        <ele>6</ele>
        <time>2020-03-11T10:35:53Z</time>
      </trkpt>
      <trkpt lat="46.84282" lon="-2.13421">
        <ele>7.2</ele>
        <time>2020-03-11T10:35:53Z</time>
      </trkpt>
      <trkpt lat="46.84254" lon="-2.13437">
        <ele>7.5</ele>
        <time>2020-03-11T10:35:53Z</time>
      </trkpt>
      <trkpt lat="46.84219" lon="-2.13458">
        <ele>6</ele>
        <time>2020-03-11T10:35:53Z</time>
      </trkpt>
      <trkpt lat="46.84187" lon="-2.13472">
        <ele>5.5</ele>
        <time>2020-03-11T10:35:53Z</time>
      </trkpt>
      <trkpt lat="46.84163" lon="-2.13482">
        <ele>4.4</ele>
        <time>2020-03-11T10:35:53Z</time>
      </trkpt>
      <trkpt lat="46.84156" lon="-2.1351">
        <ele>4.5</ele>
        <time>2020-03-11T10:35:53Z</time>
      </trkpt>
      <trkpt lat="46.84157" lon="-2.13538">
        <ele>4.2</ele>
        <time>2020-03-11T10:35:53Z</time>
      </trkpt>
      <trkpt lat="46.84159" lon="-2.13579">
        <ele>3.4</ele>
        <time>2020-03-11T10:35:53Z</time>
      </trkpt>
      <trkpt lat="46.8416" lon="-2.13607">
        <ele>3</ele>
        <time>2020-03-11T10:35:53Z</time>
      </trkpt>
      <trkpt lat="46.84162" lon="-2.1365">
        <ele>3.3</ele>
        <time>2020-03-11T10:35:53Z</time>
      </trkpt>
      <trkpt lat="46.84167" lon="-2.13707">
        <ele>3</ele>
        <time>2020-03-11T10:35:53Z</time>
      </trkpt>
      <trkpt lat="46.84166" lon="-2.1381">
        <ele>3</ele>
        <time>2020-03-11T10:35:53Z</time>
      </trkpt>
      <trkpt lat="46.84171" lon="-2.13855">
        <ele>3.2</ele>
        <time>2020-03-11T10:35:53Z</time>
      </trkpt>
      <trkpt lat="46.84171" lon="-2.13898">
        <ele>4.4</ele>
        <time>2020-03-11T10:35:53Z</time>
      </trkpt>
      <trkpt lat="46.84145" lon="-2.13921">
        <ele>4.3</ele>
        <time>2020-03-11T10:35:53Z</time>
      </trkpt>
      <trkpt lat="46.84115" lon="-2.13918">
        <ele>4.9</ele>
        <time>2020-03-11T10:35:53Z</time>
      </trkpt>
      <trkpt lat="46.8408" lon="-2.13916">
        <ele>5.8</ele>
        <time>2020-03-11T10:35:53Z</time>
      </trkpt>
      <trkpt lat="46.8405" lon="-2.13907">
        <ele>5</ele>
        <time>2020-03-11T10:35:53Z</time>
      </trkpt>
      <trkpt lat="46.84015" lon="-2.13895">
        <ele>5</ele>
        <time>2020-03-11T10:35:53Z</time>
      </trkpt>
      <trkpt lat="46.83966" lon="-2.13881">
        <ele>4.6</ele>
        <time>2020-03-11T10:35:53Z</time>
      </trkpt>
      <trkpt lat="46.83911" lon="-2.13856">
        <ele>5.4</ele>
        <time>2020-03-11T10:35:53Z</time>
      </trkpt>
      <trkpt lat="46.83887" lon="-2.13841">
        <ele>6.2</ele>
        <time>2020-03-11T10:35:53Z</time>
      </trkpt>
      <trkpt lat="46.83865" lon="-2.13833">
        <ele>5.1</ele>
        <time>2020-03-11T10:35:53Z</time>
      </trkpt>
      <trkpt lat="46.83783" lon="-2.13801">
        <ele>5</ele>
        <time>2020-03-11T10:35:53Z</time>
      </trkpt>
      <trkpt lat="46.8374" lon="-2.13779">
        <ele>6</ele>
        <time>2020-03-11T10:35:53Z</time>
      </trkpt>
      <trkpt lat="46.83717" lon="-2.13763">
        <ele>5.5</ele>
        <time>2020-03-11T10:35:53Z</time>
      </trkpt>
      <trkpt lat="46.83694" lon="-2.13755">
        <ele>5.2</ele>
        <time>2020-03-11T10:35:53Z</time>
      </trkpt>
      <trkpt lat="46.83671" lon="-2.13762">
        <ele>6.3</ele>
        <time>2020-03-11T10:35:53Z</time>
      </trkpt>
      <trkpt lat="46.83651" lon="-2.1377">
        <ele>6.7</ele>
        <time>2020-03-11T10:35:53Z</time>
      </trkpt>
      <trkpt lat="46.83629" lon="-2.13774">
        <ele>6.5</ele>
        <time>2020-03-11T10:35:53Z</time>
      </trkpt>
      <trkpt lat="46.83583" lon="-2.13793">
        <ele>6.5</ele>
        <time>2020-03-11T10:35:53Z</time>
      </trkpt>
      <trkpt lat="46.83549" lon="-2.13815">
        <ele>6.8</ele>
        <time>2020-03-11T10:35:53Z</time>
      </trkpt>
      <trkpt lat="46.83516" lon="-2.1382">
        <ele>6.5</ele>
        <time>2020-03-11T10:35:53Z</time>
      </trkpt>
      <trkpt lat="46.83496" lon="-2.13816">
        <ele>6.5</ele>
        <time>2020-03-11T10:35:53Z</time>
      </trkpt>
      <trkpt lat="46.83462" lon="-2.13813">
        <ele>6.6</ele>
        <time>2020-03-11T10:35:53Z</time>
      </trkpt>
      <trkpt lat="46.83437" lon="-2.13812">
        <ele>6.4</ele>
        <time>2020-03-11T10:35:53Z</time>
      </trkpt>
      <trkpt lat="46.83419" lon="-2.13814">
        <ele>6.9</ele>
        <time>2020-03-11T10:35:53Z</time>
      </trkpt>
      <trkpt lat="46.83249" lon="-2.13919">
        <ele>7.1</ele>
        <time>2020-03-11T10:35:53Z</time>
      </trkpt>
      <trkpt lat="46.83215" lon="-2.1394">
        <ele>7.6</ele>
        <time>2020-03-11T10:35:53Z</time>
      </trkpt>
      <trkpt lat="46.83163" lon="-2.13984">
        <ele>7.9</ele>
        <time>2020-03-11T10:35:53Z</time>
      </trkpt>
      <trkpt lat="46.83137" lon="-2.14006">
        <ele>8</ele>
        <time>2020-03-11T10:35:53Z</time>
      </trkpt>
      <trkpt lat="46.83117" lon="-2.14016">
        <ele>8.5</ele>
        <time>2020-03-11T10:35:53Z</time>
      </trkpt>
      <trkpt lat="46.83081" lon="-2.1402">
        <ele>8.3</ele>
        <time>2020-03-11T10:35:53Z</time>
      </trkpt>
      <trkpt lat="46.83019" lon="-2.14002">
        <ele>6</ele>
        <time>2020-03-11T10:35:53Z</time>
      </trkpt>
      <trkpt lat="46.82954" lon="-2.13983">
        <ele>6</ele>
        <time>2020-03-11T10:35:53Z</time>
      </trkpt>
      <trkpt lat="46.82893" lon="-2.1396">
        <ele>6.4</ele>
        <time>2020-03-11T10:35:53Z</time>
      </trkpt>
      <trkpt lat="46.82872" lon="-2.13949">
        <ele>6.9</ele>
        <time>2020-03-11T10:35:53Z</time>
      </trkpt>
      <trkpt lat="46.82851" lon="-2.13969">
        <ele>7.7</ele>
        <time>2020-03-11T10:35:53Z</time>
      </trkpt>
      <trkpt lat="46.82751" lon="-2.13951">
        <ele>8.1</ele>
        <time>2020-03-11T10:35:53Z</time>
      </trkpt>
      <trkpt lat="46.82646" lon="-2.13925">
        <ele>5</ele>
        <time>2020-03-11T10:35:53Z</time>
      </trkpt>
      <trkpt lat="46.82618" lon="-2.13902">
        <ele>4.5</ele>
        <time>2020-03-11T10:35:53Z</time>
      </trkpt>
      <trkpt lat="46.82584" lon="-2.13894">
        <ele>4.2</ele>
        <time>2020-03-11T10:35:53Z</time>
      </trkpt>
      <trkpt lat="46.82285" lon="-2.13805">
        <ele>6</ele>
        <time>2020-03-11T10:35:53Z</time>
      </trkpt>
      <trkpt lat="46.82219" lon="-2.13778">
        <ele>4.1</ele>
        <time>2020-03-11T10:35:53Z</time>
      </trkpt>
      <trkpt lat="46.82042" lon="-2.13713">
        <ele>8.8</ele>
        <time>2020-03-11T10:35:53Z</time>
      </trkpt>
      <trkpt lat="46.81982" lon="-2.13482">
        <ele>7.8</ele>
        <time>2020-03-11T10:35:53Z</time>
      </trkpt>
      <trkpt lat="46.81987" lon="-2.1338">
        <ele>7.1</ele>
        <time>2020-03-11T10:35:53Z</time>
      </trkpt>
      <trkpt lat="46.82007" lon="-2.13291">
        <ele>5.4</ele>
        <time>2020-03-11T10:35:53Z</time>
      </trkpt>
      <trkpt lat="46.82008" lon="-2.13244">
        <ele>4.8</ele>
        <time>2020-03-11T10:35:53Z</time>
      </trkpt>
      <trkpt lat="46.8194" lon="-2.13145">
        <ele>5.2</ele>
        <time>2020-03-11T10:35:53Z</time>
      </trkpt>
      <trkpt lat="46.8192" lon="-2.13087">
        <ele>4</ele>
        <time>2020-03-11T10:35:53Z</time>
      </trkpt>
      <trkpt lat="46.81824" lon="-2.1304">
        <ele>4.6</ele>
        <time>2020-03-11T10:35:53Z</time>
      </trkpt>
      <trkpt lat="46.81713" lon="-2.12884">
        <ele>4.2</ele>
        <time>2020-03-11T10:35:53Z</time>
      </trkpt>
      <trkpt lat="46.81708" lon="-2.12852">
        <ele>3.9</ele>
        <time>2020-03-11T10:35:53Z</time>
      </trkpt>
      <trkpt lat="46.81675" lon="-2.12758">
        <ele>3.7</ele>
        <time>2020-03-11T10:35:53Z</time>
      </trkpt>
      <trkpt lat="46.81642" lon="-2.12658">
        <ele>3.9</ele>
        <time>2020-03-11T10:35:53Z</time>
      </trkpt>
      <trkpt lat="46.81606" lon="-2.1259">
        <ele>5</ele>
        <time>2020-03-11T10:35:53Z</time>
      </trkpt>
      <trkpt lat="46.81483" lon="-2.12423">
        <ele>3.9</ele>
        <time>2020-03-11T10:35:53Z</time>
      </trkpt>
      <trkpt lat="46.81464" lon="-2.12393">
        <ele>3.4</ele>
        <time>2020-03-11T10:35:53Z</time>
      </trkpt>
      <trkpt lat="46.81418" lon="-2.12312">
        <ele>3</ele>
        <time>2020-03-11T10:35:53Z</time>
      </trkpt>
      <trkpt lat="46.81408" lon="-2.12289">
        <ele>3.3</ele>
        <time>2020-03-11T10:35:53Z</time>
      </trkpt>
      <trkpt lat="46.81376" lon="-2.12208">
        <ele>3.5</ele>
        <time>2020-03-11T10:35:53Z</time>
      </trkpt>
      <trkpt lat="46.81352" lon="-2.12187">
        <ele>4.5</ele>
        <time>2020-03-11T10:35:53Z</time>
      </trkpt>
      <trkpt lat="46.81316" lon="-2.12106">
        <ele>5.9</ele>
        <time>2020-03-11T10:35:53Z</time>
      </trkpt>
      <trkpt lat="46.81259" lon="-2.12003">
        <ele>5.9</ele>
        <time>2020-03-11T10:35:53Z</time>
      </trkpt>
      <trkpt lat="46.81166" lon="-2.11869">
        <ele>5.1</ele>
        <time>2020-03-11T10:35:53Z</time>
      </trkpt>
      <trkpt lat="46.81152" lon="-2.11846">
        <ele>5</ele>
        <time>2020-03-11T10:35:53Z</time>
      </trkpt>
      <trkpt lat="46.81109" lon="-2.11755">
        <ele>5.1</ele>
        <time>2020-03-11T10:35:53Z</time>
      </trkpt>
      <trkpt lat="46.81087" lon="-2.11709">
        <ele>4.9</ele>
        <time>2020-03-11T10:35:53Z</time>
      </trkpt>
      <trkpt lat="46.81057" lon="-2.11666">
        <ele>5.9</ele>
        <time>2020-03-11T10:35:53Z</time>
      </trkpt>
      <trkpt lat="46.81041" lon="-2.11646">
        <ele>5.6</ele>
        <time>2020-03-11T10:35:53Z</time>
      </trkpt>
      <trkpt lat="46.81001" lon="-2.11602">
        <ele>6</ele>
        <time>2020-03-11T10:35:53Z</time>
      </trkpt>
      <trkpt lat="46.80986" lon="-2.11561">
        <ele>6.2</ele>
        <time>2020-03-11T10:35:53Z</time>
      </trkpt>
      <trkpt lat="46.80932" lon="-2.11416">
        <ele>5</ele>
        <time>2020-03-11T10:35:53Z</time>
      </trkpt>
      <trkpt lat="46.80915" lon="-2.11368">
        <ele>5.1</ele>
        <time>2020-03-11T10:35:53Z</time>
      </trkpt>
      <trkpt lat="46.80896" lon="-2.11299">
        <ele>5.5</ele>
        <time>2020-03-11T10:35:53Z</time>
      </trkpt>
      <trkpt lat="46.80888" lon="-2.1127">
        <ele>5.1</ele>
        <time>2020-03-11T10:35:53Z</time>
      </trkpt>
      <trkpt lat="46.80875" lon="-2.11223">
        <ele>5.5</ele>
        <time>2020-03-11T10:35:53Z</time>
      </trkpt>
      <trkpt lat="46.80859" lon="-2.11181">
        <ele>5.2</ele>
        <time>2020-03-11T10:35:53Z</time>
      </trkpt>
      <trkpt lat="46.80821" lon="-2.11029">
        <ele>4.9</ele>
        <time>2020-03-11T10:35:53Z</time>
      </trkpt>
      <trkpt lat="46.80812" lon="-2.10997">
        <ele>4.5</ele>
        <time>2020-03-11T10:35:53Z</time>
      </trkpt>
      <trkpt lat="46.80778" lon="-2.10926">
        <ele>4.7</ele>
        <time>2020-03-11T10:35:53Z</time>
      </trkpt>
      <trkpt lat="46.80747" lon="-2.10858">
        <ele>4.6</ele>
        <time>2020-03-11T10:35:53Z</time>
      </trkpt>
      <trkpt lat="46.80682" lon="-2.1072">
        <ele>6.3</ele>
        <time>2020-03-11T10:35:53Z</time>
      </trkpt>
      <trkpt lat="46.80671" lon="-2.10691">
        <ele>6.5</ele>
        <time>2020-03-11T10:35:53Z</time>
      </trkpt>
      <trkpt lat="46.80663" lon="-2.10652">
        <ele>7.3</ele>
        <time>2020-03-11T10:35:53Z</time>
      </trkpt>
      <trkpt lat="46.80633" lon="-2.10513">
        <ele>6.8</ele>
        <time>2020-03-11T10:35:53Z</time>
      </trkpt>
      <trkpt lat="46.80613" lon="-2.10415">
        <ele>5.8</ele>
        <time>2020-03-11T10:35:53Z</time>
      </trkpt>
      <trkpt lat="46.80603" lon="-2.10373">
        <ele>6.3</ele>
        <time>2020-03-11T10:35:53Z</time>
      </trkpt>
      <trkpt lat="46.80576" lon="-2.10274">
        <ele>5</ele>
        <time>2020-03-11T10:35:53Z</time>
      </trkpt>
      <trkpt lat="46.80534" lon="-2.10146">
        <ele>5</ele>
        <time>2020-03-11T10:35:53Z</time>
      </trkpt>
      <trkpt lat="46.80522" lon="-2.10124">
        <ele>5.3</ele>
        <time>2020-03-11T10:35:53Z</time>
      </trkpt>
      <trkpt lat="46.80512" lon="-2.10011">
        <ele>5.5</ele>
        <time>2020-03-11T10:35:53Z</time>
      </trkpt>
      <trkpt lat="46.80507" lon="-2.09982">
        <ele>5.5</ele>
        <time>2020-03-11T10:35:53Z</time>
      </trkpt>
      <trkpt lat="46.80489" lon="-2.09895">
        <ele>6.2</ele>
        <time>2020-03-11T10:35:53Z</time>
      </trkpt>
      <trkpt lat="46.80477" lon="-2.09827">
        <ele>4</ele>
        <time>2020-03-11T10:35:53Z</time>
      </trkpt>
      <trkpt lat="46.80472" lon="-2.09798">
        <ele>4</ele>
        <time>2020-03-11T10:35:53Z</time>
      </trkpt>
      <trkpt lat="46.80463" lon="-2.09744">
        <ele>3.9</ele>
        <time>2020-03-11T10:35:53Z</time>
      </trkpt>
      <trkpt lat="46.80455" lon="-2.09703">
        <ele>3.6</ele>
        <time>2020-03-11T10:35:53Z</time>
      </trkpt>
      <trkpt lat="46.80445" lon="-2.09662">
        <ele>3.8</ele>
        <time>2020-03-11T10:35:53Z</time>
      </trkpt>
      <trkpt lat="46.80435" lon="-2.09628">
        <ele>3.3</ele>
        <time>2020-03-11T10:35:53Z</time>
      </trkpt>
      <trkpt lat="46.80412" lon="-2.09553">
        <ele>3.2</ele>
        <time>2020-03-11T10:35:53Z</time>
      </trkpt>
      <trkpt lat="46.80401" lon="-2.09519">
        <ele>3.4</ele>
        <time>2020-03-11T10:35:53Z</time>
      </trkpt>
      <trkpt lat="46.80393" lon="-2.09493">
        <ele>3</ele>
        <time>2020-03-11T10:35:53Z</time>
      </trkpt>
      <trkpt lat="46.80372" lon="-2.09431">
        <ele>3</ele>
        <time>2020-03-11T10:35:53Z</time>
      </trkpt>
      <trkpt lat="46.80353" lon="-2.09388">
        <ele>3</ele>
        <time>2020-03-11T10:35:53Z</time>
      </trkpt>
      <trkpt lat="46.80335" lon="-2.09355">
        <ele>3</ele>
        <time>2020-03-11T10:35:53Z</time>
      </trkpt>
      <trkpt lat="46.80313" lon="-2.09319">
        <ele>3.4</ele>
        <time>2020-03-11T10:35:53Z</time>
      </trkpt>
      <trkpt lat="46.80299" lon="-2.09292">
        <ele>3.2</ele>
        <time>2020-03-11T10:35:53Z</time>
      </trkpt>
      <trkpt lat="46.80279" lon="-2.09241">
        <ele>3</ele>
        <time>2020-03-11T10:35:53Z</time>
      </trkpt>
      <trkpt lat="46.8026" lon="-2.09147">
        <ele>3.7</ele>
        <time>2020-03-11T10:35:53Z</time>
      </trkpt>
      <trkpt lat="46.80255" lon="-2.09086">
        <ele>3.8</ele>
        <time>2020-03-11T10:35:53Z</time>
      </trkpt>
      <trkpt lat="46.80251" lon="-2.09044">
        <ele>3.6</ele>
        <time>2020-03-11T10:35:53Z</time>
      </trkpt>
      <trkpt lat="46.80244" lon="-2.08999">
        <ele>3.2</ele>
        <time>2020-03-11T10:35:53Z</time>
      </trkpt>
      <trkpt lat="46.8024" lon="-2.08973">
        <ele>4</ele>
        <time>2020-03-11T10:35:53Z</time>
      </trkpt>
      <trkpt lat="46.80232" lon="-2.08934">
        <ele>3.4</ele>
        <time>2020-03-11T10:35:53Z</time>
      </trkpt>
      <trkpt lat="46.80226" lon="-2.08909">
        <ele>3</ele>
        <time>2020-03-11T10:35:53Z</time>
      </trkpt>
      <trkpt lat="46.80216" lon="-2.08869">
        <ele>3.1</ele>
        <time>2020-03-11T10:35:53Z</time>
      </trkpt>
      <trkpt lat="46.80203" lon="-2.08822">
        <ele>3</ele>
        <time>2020-03-11T10:35:53Z</time>
      </trkpt>
      <trkpt lat="46.80194" lon="-2.08794">
        <ele>3</ele>
        <time>2020-03-11T10:35:53Z</time>
      </trkpt>
      <trkpt lat="46.80139" lon="-2.08653">
        <ele>4</ele>
        <time>2020-03-11T10:35:53Z</time>
      </trkpt>
      <trkpt lat="46.80131" lon="-2.08616">
        <ele>4.3</ele>
        <time>2020-03-11T10:35:53Z</time>
      </trkpt>
      <trkpt lat="46.80124" lon="-2.08577">
        <ele>4.5</ele>
        <time>2020-03-11T10:35:53Z</time>
      </trkpt>
      <trkpt lat="46.80111" lon="-2.08528">
        <ele>5</ele>
        <time>2020-03-11T10:35:53Z</time>
      </trkpt>
      <trkpt lat="46.80074" lon="-2.08445">
        <ele>4</ele>
        <time>2020-03-11T10:35:53Z</time>
      </trkpt>
      <trkpt lat="46.8006" lon="-2.08417">
        <ele>4</ele>
        <time>2020-03-11T10:35:53Z</time>
      </trkpt>
      <trkpt lat="46.80026" lon="-2.08346">
        <ele>4.1</ele>
        <time>2020-03-11T10:35:53Z</time>
      </trkpt>
      <trkpt lat="46.7999" lon="-2.08294">
        <ele>4.9</ele>
        <time>2020-03-11T10:35:53Z</time>
      </trkpt>
      <trkpt lat="46.79969" lon="-2.08264">
        <ele>4.9</ele>
        <time>2020-03-11T10:35:53Z</time>
      </trkpt>
      <trkpt lat="46.79954" lon="-2.08232">
        <ele>5.2</ele>
        <time>2020-03-11T10:35:53Z</time>
      </trkpt>
      <trkpt lat="46.7994" lon="-2.08187">
        <ele>4.5</ele>
        <time>2020-03-11T10:35:53Z</time>
      </trkpt>
      <trkpt lat="46.79935" lon="-2.08134">
        <ele>4.9</ele>
        <time>2020-03-11T10:35:53Z</time>
      </trkpt>
      <trkpt lat="46.79933" lon="-2.08106">
        <ele>4.5</ele>
        <time>2020-03-11T10:35:53Z</time>
      </trkpt>
      <trkpt lat="46.79932" lon="-2.08068">
        <ele>4</ele>
        <time>2020-03-11T10:35:53Z</time>
      </trkpt>
      <trkpt lat="46.79925" lon="-2.08017">
        <ele>4.7</ele>
        <time>2020-03-11T10:35:53Z</time>
      </trkpt>
      <trkpt lat="46.79901" lon="-2.07927">
        <ele>5</ele>
        <time>2020-03-11T10:35:53Z</time>
      </trkpt>
      <trkpt lat="46.79881" lon="-2.0786">
        <ele>8.4</ele>
        <time>2020-03-11T10:35:53Z</time>
      </trkpt>
      <trkpt lat="46.79844" lon="-2.07725">
        <ele>8</ele>
        <time>2020-03-11T10:35:53Z</time>
      </trkpt>
      <trkpt lat="46.79828" lon="-2.07681">
        <ele>7</ele>
        <time>2020-03-11T10:35:53Z</time>
      </trkpt>
      <trkpt lat="46.79803" lon="-2.07668">
        <ele>8.4</ele>
        <time>2020-03-11T10:35:53Z</time>
      </trkpt>
      <trkpt lat="46.79785" lon="-2.0766">
        <ele>10</ele>
        <time>2020-03-11T10:35:53Z</time>
      </trkpt>
      <trkpt lat="46.79763" lon="-2.07652">
        <ele>10.5</ele>
        <time>2020-03-11T10:35:53Z</time>
      </trkpt>
      <trkpt lat="46.79744" lon="-2.07649">
        <ele>10.5</ele>
        <time>2020-03-11T10:35:53Z</time>
      </trkpt>
      <trkpt lat="46.79722" lon="-2.0765">
        <ele>11</ele>
        <time>2020-03-11T10:35:53Z</time>
      </trkpt>
      <trkpt lat="46.79703" lon="-2.07656">
        <ele>11.3</ele>
        <time>2020-03-11T10:35:53Z</time>
      </trkpt>
      <trkpt lat="46.79674" lon="-2.07674">
        <ele>12.3</ele>
        <time>2020-03-11T10:35:53Z</time>
      </trkpt>
      <trkpt lat="46.79633" lon="-2.077">
        <ele>11.6</ele>
        <time>2020-03-11T10:35:53Z</time>
      </trkpt>
      <trkpt lat="46.79508" lon="-2.07741">
        <ele>10.9</ele>
        <time>2020-03-11T10:35:53Z</time>
      </trkpt>
      <trkpt lat="46.79487" lon="-2.07752">
        <ele>8.1</ele>
        <time>2020-03-11T10:35:53Z</time>
      </trkpt>
      <trkpt lat="46.79452" lon="-2.07783">
        <ele>4.7</ele>
        <time>2020-03-11T10:35:53Z</time>
      </trkpt>
      <trkpt lat="46.79431" lon="-2.07804">
        <ele>4</ele>
        <time>2020-03-11T10:35:53Z</time>
      </trkpt>
      <trkpt lat="46.79411" lon="-2.07828">
        <ele>4</ele>
        <time>2020-03-11T10:35:53Z</time>
      </trkpt>
      <trkpt lat="46.79393" lon="-2.07853">
        <ele>3.3</ele>
        <time>2020-03-11T10:35:53Z</time>
      </trkpt>
      <trkpt lat="46.79359" lon="-2.07895">
        <ele>3.9</ele>
        <time>2020-03-11T10:35:53Z</time>
      </trkpt>
      <trkpt lat="46.79338" lon="-2.07921">
        <ele>4</ele>
        <time>2020-03-11T10:35:53Z</time>
      </trkpt>
      <trkpt lat="46.7931" lon="-2.07961">
        <ele>3.9</ele>
        <time>2020-03-11T10:35:53Z</time>
      </trkpt>
      <trkpt lat="46.79281" lon="-2.07999">
        <ele>4</ele>
        <time>2020-03-11T10:35:53Z</time>
      </trkpt>
      <trkpt lat="46.79265" lon="-2.08019">
        <ele>4</ele>
        <time>2020-03-11T10:35:53Z</time>
      </trkpt>
      <trkpt lat="46.79245" lon="-2.08046">
        <ele>4</ele>
        <time>2020-03-11T10:35:53Z</time>
      </trkpt>
      <trkpt lat="46.79205" lon="-2.08074">
        <ele>4.5</ele>
        <time>2020-03-11T10:35:53Z</time>
      </trkpt>
      <trkpt lat="46.79185" lon="-2.08098">
        <ele>4</ele>
        <time>2020-03-11T10:35:53Z</time>
      </trkpt>
      <trkpt lat="46.79172" lon="-2.08119">
        <ele>3.6</ele>
        <time>2020-03-11T10:35:53Z</time>
      </trkpt>
      <trkpt lat="46.79151" lon="-2.08162">
        <ele>3.1</ele>
        <time>2020-03-11T10:35:53Z</time>
      </trkpt>
      <trkpt lat="46.79115" lon="-2.08128">
        <ele>3</ele>
        <time>2020-03-11T10:35:53Z</time>
      </trkpt>
      <trkpt lat="46.79094" lon="-2.08108">
        <ele>3</ele>
        <time>2020-03-11T10:35:53Z</time>
      </trkpt>
      <trkpt lat="46.79075" lon="-2.0809">
        <ele>3</ele>
        <time>2020-03-11T10:35:53Z</time>
      </trkpt>
      <trkpt lat="46.79053" lon="-2.08074">
        <ele>3</ele>
        <time>2020-03-11T10:35:53Z</time>
      </trkpt>
      <trkpt lat="46.79035" lon="-2.08061">
        <ele>3.6</ele>
        <time>2020-03-11T10:35:53Z</time>
      </trkpt>
      <trkpt lat="46.79015" lon="-2.0805">
        <ele>3.5</ele>
        <time>2020-03-11T10:35:53Z</time>
      </trkpt>
      <trkpt lat="46.78995" lon="-2.08043">
        <ele>3.1</ele>
        <time>2020-03-11T10:35:53Z</time>
      </trkpt>
      <trkpt lat="46.78977" lon="-2.08039">
        <ele>3.5</ele>
        <time>2020-03-11T10:35:53Z</time>
      </trkpt>
      <trkpt lat="46.78955" lon="-2.08036">
        <ele>3.7</ele>
        <time>2020-03-11T10:35:53Z</time>
      </trkpt>
      <trkpt lat="46.78928" lon="-2.08033">
        <ele>3.9</ele>
        <time>2020-03-11T10:35:53Z</time>
      </trkpt>
      <trkpt lat="46.78898" lon="-2.08032">
        <ele>4.7</ele>
        <time>2020-03-11T10:35:53Z</time>
      </trkpt>
      <trkpt lat="46.78876" lon="-2.08035">
        <ele>4.7</ele>
        <time>2020-03-11T10:35:53Z</time>
      </trkpt>
      <trkpt lat="46.78847" lon="-2.08042">
        <ele>4.5</ele>
        <time>2020-03-11T10:35:53Z</time>
      </trkpt>
      <trkpt lat="46.78823" lon="-2.08047">
        <ele>4.7</ele>
        <time>2020-03-11T10:35:53Z</time>
      </trkpt>
      <trkpt lat="46.78797" lon="-2.08052">
        <ele>5.1</ele>
        <time>2020-03-11T10:35:53Z</time>
      </trkpt>
      <trkpt lat="46.78771" lon="-2.08052">
        <ele>6</ele>
        <time>2020-03-11T10:35:53Z</time>
      </trkpt>
      <trkpt lat="46.78741" lon="-2.08044">
        <ele>7.1</ele>
        <time>2020-03-11T10:35:53Z</time>
      </trkpt>
      <trkpt lat="46.78706" lon="-2.08019">
        <ele>7.6</ele>
        <time>2020-03-11T10:35:53Z</time>
      </trkpt>
      <trkpt lat="46.78691" lon="-2.08001">
        <ele>7.9</ele>
        <time>2020-03-11T10:35:53Z</time>
      </trkpt>
      <trkpt lat="46.78677" lon="-2.07979">
        <ele>7.8</ele>
        <time>2020-03-11T10:35:53Z</time>
      </trkpt>
      <trkpt lat="46.78666" lon="-2.07956">
        <ele>7.9</ele>
        <time>2020-03-11T10:35:53Z</time>
      </trkpt>
      <trkpt lat="46.78652" lon="-2.07923">
        <ele>6.9</ele>
        <time>2020-03-11T10:35:53Z</time>
      </trkpt>
      <trkpt lat="46.78643" lon="-2.079">
        <ele>6.7</ele>
        <time>2020-03-11T10:35:53Z</time>
      </trkpt>
      <trkpt lat="46.78606" lon="-2.07826">
        <ele>6.5</ele>
        <time>2020-03-11T10:35:53Z</time>
      </trkpt>
      <trkpt lat="46.7857" lon="-2.07743">
        <ele>6.2</ele>
        <time>2020-03-11T10:35:53Z</time>
      </trkpt>
      <trkpt lat="46.78542" lon="-2.07677">
        <ele>6.3</ele>
        <time>2020-03-11T10:35:53Z</time>
      </trkpt>
      <trkpt lat="46.78525" lon="-2.07637">
        <ele>6.7</ele>
        <time>2020-03-11T10:35:53Z</time>
      </trkpt>
      <trkpt lat="46.78504" lon="-2.07588">
        <ele>5.9</ele>
        <time>2020-03-11T10:35:53Z</time>
      </trkpt>
      <trkpt lat="46.78489" lon="-2.07564">
        <ele>5.1</ele>
        <time>2020-03-11T10:35:53Z</time>
      </trkpt>
      <trkpt lat="46.78481" lon="-2.07538">
        <ele>5.4</ele>
        <time>2020-03-11T10:35:53Z</time>
      </trkpt>
      <trkpt lat="46.78467" lon="-2.07503">
        <ele>5.8</ele>
        <time>2020-03-11T10:35:53Z</time>
      </trkpt>
      <trkpt lat="46.78438" lon="-2.07436">
        <ele>6.5</ele>
        <time>2020-03-11T10:35:53Z</time>
      </trkpt>
      <trkpt lat="46.7842" lon="-2.07395">
        <ele>6.6</ele>
        <time>2020-03-11T10:35:53Z</time>
      </trkpt>
      <trkpt lat="46.78396" lon="-2.07341">
        <ele>7</ele>
        <time>2020-03-11T10:35:53Z</time>
      </trkpt>
      <trkpt lat="46.78374" lon="-2.07289">
        <ele>7.4</ele>
        <time>2020-03-11T10:35:53Z</time>
      </trkpt>
      <trkpt lat="46.78362" lon="-2.07261">
        <ele>8</ele>
        <time>2020-03-11T10:35:53Z</time>
      </trkpt>
      <trkpt lat="46.78344" lon="-2.07227">
        <ele>7.4</ele>
        <time>2020-03-11T10:35:53Z</time>
      </trkpt>
      <trkpt lat="46.78331" lon="-2.07199">
        <ele>7</ele>
        <time>2020-03-11T10:35:53Z</time>
      </trkpt>
      <trkpt lat="46.78318" lon="-2.07176">
        <ele>6.6</ele>
        <time>2020-03-11T10:35:53Z</time>
      </trkpt>
      <trkpt lat="46.78287" lon="-2.0711">
        <ele>7</ele>
        <time>2020-03-11T10:35:53Z</time>
      </trkpt>
      <trkpt lat="46.78278" lon="-2.07086">
        <ele>7</ele>
        <time>2020-03-11T10:35:53Z</time>
      </trkpt>
      <trkpt lat="46.78252" lon="-2.07034">
        <ele>7.3</ele>
        <time>2020-03-11T10:35:53Z</time>
      </trkpt>
      <trkpt lat="46.78236" lon="-2.07016">
        <ele>6.7</ele>
        <time>2020-03-11T10:35:53Z</time>
      </trkpt>
      <trkpt lat="46.7821" lon="-2.06968">
        <ele>6.7</ele>
        <time>2020-03-11T10:35:53Z</time>
      </trkpt>
      <trkpt lat="46.78159" lon="-2.06878">
        <ele>7.2</ele>
        <time>2020-03-11T10:35:53Z</time>
      </trkpt>
      <trkpt lat="46.78154" lon="-2.0685">
        <ele>7.3</ele>
        <time>2020-03-11T10:35:53Z</time>
      </trkpt>
      <trkpt lat="46.78146" lon="-2.06824">
        <ele>7</ele>
        <time>2020-03-11T10:35:53Z</time>
      </trkpt>
      <trkpt lat="46.78138" lon="-2.06796">
        <ele>7.4</ele>
        <time>2020-03-11T10:35:53Z</time>
      </trkpt>
      <trkpt lat="46.78116" lon="-2.06768">
        <ele>7.9</ele>
        <time>2020-03-11T10:35:53Z</time>
      </trkpt>
      <trkpt lat="46.78093" lon="-2.06728">
        <ele>7.9</ele>
        <time>2020-03-11T10:35:53Z</time>
      </trkpt>
      <trkpt lat="46.78075" lon="-2.06718">
        <ele>7.2</ele>
        <time>2020-03-11T10:35:53Z</time>
      </trkpt>
      <trkpt lat="46.78058" lon="-2.06704">
        <ele>7.1</ele>
        <time>2020-03-11T10:35:53Z</time>
      </trkpt>
      <trkpt lat="46.78039" lon="-2.06673">
        <ele>6.8</ele>
        <time>2020-03-11T10:35:53Z</time>
      </trkpt>
      <trkpt lat="46.78028" lon="-2.06651">
        <ele>7.6</ele>
        <time>2020-03-11T10:35:53Z</time>
      </trkpt>
      <trkpt lat="46.78025" lon="-2.06622">
        <ele>7.9</ele>
        <time>2020-03-11T10:35:53Z</time>
      </trkpt>
      <trkpt lat="46.78013" lon="-2.06598">
        <ele>8</ele>
        <time>2020-03-11T10:35:53Z</time>
      </trkpt>
      <trkpt lat="46.77992" lon="-2.06589">
        <ele>7.1</ele>
        <time>2020-03-11T10:35:53Z</time>
      </trkpt>
      <trkpt lat="46.77967" lon="-2.06546">
        <ele>7.3</ele>
        <time>2020-03-11T10:35:53Z</time>
      </trkpt>
      <trkpt lat="46.77945" lon="-2.06509">
        <ele>7.7</ele>
        <time>2020-03-11T10:35:53Z</time>
      </trkpt>
      <trkpt lat="46.77941" lon="-2.06481">
        <ele>7.9</ele>
        <time>2020-03-11T10:35:53Z</time>
      </trkpt>
      <trkpt lat="46.77941" lon="-2.06444">
        <ele>7.8</ele>
        <time>2020-03-11T10:35:53Z</time>
      </trkpt>
      <trkpt lat="46.77938" lon="-2.06413">
        <ele>7.8</ele>
        <time>2020-03-11T10:35:53Z</time>
      </trkpt>
      <trkpt lat="46.77922" lon="-2.06384">
        <ele>8</ele>
        <time>2020-03-11T10:35:53Z</time>
      </trkpt>
      <trkpt lat="46.77904" lon="-2.06365">
        <ele>7.9</ele>
        <time>2020-03-11T10:35:53Z</time>
      </trkpt>
      <trkpt lat="46.77884" lon="-2.06355">
        <ele>8</ele>
        <time>2020-03-11T10:35:53Z</time>
      </trkpt>
      <trkpt lat="46.77864" lon="-2.06354">
        <ele>8</ele>
        <time>2020-03-11T10:35:53Z</time>
      </trkpt>
      <trkpt lat="46.7782" lon="-2.06296">
        <ele>7.1</ele>
        <time>2020-03-11T10:35:53Z</time>
      </trkpt>
      <trkpt lat="46.7779" lon="-2.06246">
        <ele>7</ele>
        <time>2020-03-11T10:35:53Z</time>
      </trkpt>
      <trkpt lat="46.77773" lon="-2.06216">
        <ele>7.4</ele>
        <time>2020-03-11T10:35:53Z</time>
      </trkpt>
      <trkpt lat="46.77742" lon="-2.06162">
        <ele>7</ele>
        <time>2020-03-11T10:35:53Z</time>
      </trkpt>
      <trkpt lat="46.7771" lon="-2.06107">
        <ele>6.9</ele>
        <time>2020-03-11T10:35:53Z</time>
      </trkpt>
      <trkpt lat="46.77695" lon="-2.06083">
        <ele>8</ele>
        <time>2020-03-11T10:35:53Z</time>
      </trkpt>
      <trkpt lat="46.77681" lon="-2.06062">
        <ele>7.2</ele>
        <time>2020-03-11T10:35:53Z</time>
      </trkpt>
      <trkpt lat="46.77635" lon="-2.0599">
        <ele>7.5</ele>
        <time>2020-03-11T10:35:53Z</time>
      </trkpt>
      <trkpt lat="46.77587" lon="-2.05918">
        <ele>7.9</ele>
        <time>2020-03-11T10:35:53Z</time>
      </trkpt>
      <trkpt lat="46.77573" lon="-2.05896">
        <ele>7.1</ele>
        <time>2020-03-11T10:35:53Z</time>
      </trkpt>
      <trkpt lat="46.77556" lon="-2.0587">
        <ele>7.4</ele>
        <time>2020-03-11T10:35:53Z</time>
      </trkpt>
      <trkpt lat="46.77519" lon="-2.05815">
        <ele>7.6</ele>
        <time>2020-03-11T10:35:53Z</time>
      </trkpt>
      <trkpt lat="46.77472" lon="-2.05752">
        <ele>8.7</ele>
        <time>2020-03-11T10:35:53Z</time>
      </trkpt>
      <trkpt lat="46.77454" lon="-2.0573">
        <ele>8.1</ele>
        <time>2020-03-11T10:35:53Z</time>
      </trkpt>
      <trkpt lat="46.77434" lon="-2.05703">
        <ele>7.8</ele>
        <time>2020-03-11T10:35:53Z</time>
      </trkpt>
      <trkpt lat="46.77418" lon="-2.05681">
        <ele>8</ele>
        <time>2020-03-11T10:35:53Z</time>
      </trkpt>
      <trkpt lat="46.77383" lon="-2.05641">
        <ele>7.7</ele>
        <time>2020-03-11T10:35:53Z</time>
      </trkpt>
      <trkpt lat="46.77361" lon="-2.05609">
        <ele>8</ele>
        <time>2020-03-11T10:35:53Z</time>
      </trkpt>
      <trkpt lat="46.77317" lon="-2.0555">
        <ele>7.5</ele>
        <time>2020-03-11T10:35:53Z</time>
      </trkpt>
      <trkpt lat="46.77286" lon="-2.055">
        <ele>8.3</ele>
        <time>2020-03-11T10:35:53Z</time>
      </trkpt>
      <trkpt lat="46.77271" lon="-2.05483">
        <ele>7.7</ele>
        <time>2020-03-11T10:35:53Z</time>
      </trkpt>
      <trkpt lat="46.77254" lon="-2.05469">
        <ele>6.7</ele>
        <time>2020-03-11T10:35:53Z</time>
      </trkpt>
      <trkpt lat="46.77231" lon="-2.05433">
        <ele>7.4</ele>
        <time>2020-03-11T10:35:53Z</time>
      </trkpt>
      <trkpt lat="46.77208" lon="-2.05402">
        <ele>7.3</ele>
        <time>2020-03-11T10:35:53Z</time>
      </trkpt>
      <trkpt lat="46.77191" lon="-2.05376">
        <ele>7.5</ele>
        <time>2020-03-11T10:35:53Z</time>
      </trkpt>
      <trkpt lat="46.77143" lon="-2.05313">
        <ele>7.9</ele>
        <time>2020-03-11T10:35:53Z</time>
      </trkpt>
      <trkpt lat="46.77099" lon="-2.05253">
        <ele>6</ele>
        <time>2020-03-11T10:35:53Z</time>
      </trkpt>
      <trkpt lat="46.77087" lon="-2.05232">
        <ele>6.9</ele>
        <time>2020-03-11T10:35:53Z</time>
      </trkpt>
      <trkpt lat="46.77072" lon="-2.05202">
        <ele>7.1</ele>
        <time>2020-03-11T10:35:53Z</time>
      </trkpt>
      <trkpt lat="46.77064" lon="-2.0516">
        <ele>9.6</ele>
        <time>2020-03-11T10:35:53Z</time>
      </trkpt>
      <trkpt lat="46.7707" lon="-2.05134">
        <ele>9</ele>
        <time>2020-03-11T10:35:53Z</time>
      </trkpt>
      <trkpt lat="46.77082" lon="-2.051">
        <ele>7.7</ele>
        <time>2020-03-11T10:35:53Z</time>
      </trkpt>
      <trkpt lat="46.77111" lon="-2.05029">
        <ele>6</ele>
        <time>2020-03-11T10:35:53Z</time>
      </trkpt>
      <trkpt lat="46.77136" lon="-2.04947">
        <ele>4.5</ele>
        <time>2020-03-11T10:35:53Z</time>
      </trkpt>
      <trkpt lat="46.77133" lon="-2.04875">
        <ele>3.8</ele>
        <time>2020-03-11T10:35:53Z</time>
      </trkpt>
      <trkpt lat="46.77118" lon="-2.04842">
        <ele>5</ele>
        <time>2020-03-11T10:35:53Z</time>
      </trkpt>
      <trkpt lat="46.77109" lon="-2.04817">
        <ele>4.1</ele>
        <time>2020-03-11T10:35:53Z</time>
      </trkpt>
      <trkpt lat="46.77092" lon="-2.04776">
        <ele>4.3</ele>
        <time>2020-03-11T10:35:53Z</time>
      </trkpt>
      <trkpt lat="46.7706" lon="-2.04693">
        <ele>4.6</ele>
        <time>2020-03-11T10:35:53Z</time>
      </trkpt>
      <trkpt lat="46.77043" lon="-2.04652">
        <ele>4.2</ele>
        <time>2020-03-11T10:35:53Z</time>
      </trkpt>
      <trkpt lat="46.7703" lon="-2.04627">
        <ele>4.4</ele>
        <time>2020-03-11T10:35:53Z</time>
      </trkpt>
      <trkpt lat="46.76999" lon="-2.04579">
        <ele>4</ele>
        <time>2020-03-11T10:35:53Z</time>
      </trkpt>
      <trkpt lat="46.76969" lon="-2.04534">
        <ele>4.6</ele>
        <time>2020-03-11T10:35:53Z</time>
      </trkpt>
      <trkpt lat="46.7692" lon="-2.04461">
        <ele>5.5</ele>
        <time>2020-03-11T10:35:53Z</time>
      </trkpt>
      <trkpt lat="46.7689" lon="-2.04417">
        <ele>4.9</ele>
        <time>2020-03-11T10:35:53Z</time>
      </trkpt>
      <trkpt lat="46.76873" lon="-2.04396">
        <ele>4.4</ele>
        <time>2020-03-11T10:35:53Z</time>
      </trkpt>
      <trkpt lat="46.76845" lon="-2.0437">
        <ele>4.6</ele>
        <time>2020-03-11T10:35:53Z</time>
      </trkpt>
      <trkpt lat="46.76828" lon="-2.04353">
        <ele>4.7</ele>
        <time>2020-03-11T10:35:53Z</time>
      </trkpt>
      <trkpt lat="46.76795" lon="-2.04329">
        <ele>4.6</ele>
        <time>2020-03-11T10:35:53Z</time>
      </trkpt>
      <trkpt lat="46.76779" lon="-2.04313">
        <ele>4.5</ele>
        <time>2020-03-11T10:35:53Z</time>
      </trkpt>
      <trkpt lat="46.7676" lon="-2.04293">
        <ele>5.1</ele>
        <time>2020-03-11T10:35:53Z</time>
      </trkpt>
      <trkpt lat="46.7675" lon="-2.04271">
        <ele>4</ele>
        <time>2020-03-11T10:35:53Z</time>
      </trkpt>
      <trkpt lat="46.76729" lon="-2.04243">
        <ele>5.7</ele>
        <time>2020-03-11T10:35:53Z</time>
      </trkpt>
      <trkpt lat="46.76711" lon="-2.0421">
        <ele>4.7</ele>
        <time>2020-03-11T10:35:53Z</time>
      </trkpt>
      <trkpt lat="46.76698" lon="-2.04185">
        <ele>4</ele>
        <time>2020-03-11T10:35:53Z</time>
      </trkpt>
      <trkpt lat="46.76677" lon="-2.04114">
        <ele>3.7</ele>
        <time>2020-03-11T10:35:53Z</time>
      </trkpt>
      <trkpt lat="46.76646" lon="-2.04036">
        <ele>3.9</ele>
        <time>2020-03-11T10:35:53Z</time>
      </trkpt>
      <trkpt lat="46.76626" lon="-2.03976">
        <ele>4</ele>
        <time>2020-03-11T10:35:53Z</time>
      </trkpt>
      <trkpt lat="46.76616" lon="-2.03933">
        <ele>4.7</ele>
        <time>2020-03-11T10:35:53Z</time>
      </trkpt>
      <trkpt lat="46.76611" lon="-2.0386">
        <ele>6</ele>
        <time>2020-03-11T10:35:53Z</time>
      </trkpt>
      <trkpt lat="46.76611" lon="-2.03807">
        <ele>6</ele>
        <time>2020-03-11T10:35:53Z</time>
      </trkpt>
      <trkpt lat="46.76609" lon="-2.03758">
        <ele>7.8</ele>
        <time>2020-03-11T10:35:53Z</time>
      </trkpt>
      <trkpt lat="46.76605" lon="-2.03706">
        <ele>10</ele>
        <time>2020-03-11T10:35:53Z</time>
      </trkpt>
      <trkpt lat="46.76589" lon="-2.03634">
        <ele>10.1</ele>
        <time>2020-03-11T10:35:53Z</time>
      </trkpt>
      <trkpt lat="46.7657" lon="-2.03564">
        <ele>9.9</ele>
        <time>2020-03-11T10:35:53Z</time>
      </trkpt>
      <trkpt lat="46.7655" lon="-2.03519">
        <ele>6.9</ele>
        <time>2020-03-11T10:35:53Z</time>
      </trkpt>
      <trkpt lat="46.76528" lon="-2.03474">
        <ele>6.1</ele>
        <time>2020-03-11T10:35:53Z</time>
      </trkpt>
      <trkpt lat="46.76506" lon="-2.03434">
        <ele>5.7</ele>
        <time>2020-03-11T10:35:53Z</time>
      </trkpt>
      <trkpt lat="46.76496" lon="-2.03412">
        <ele>5.3</ele>
        <time>2020-03-11T10:35:53Z</time>
      </trkpt>
      <trkpt lat="46.76479" lon="-2.03354">
        <ele>6.1</ele>
        <time>2020-03-11T10:35:53Z</time>
      </trkpt>
      <trkpt lat="46.76466" lon="-2.03314">
        <ele>5.3</ele>
        <time>2020-03-11T10:35:53Z</time>
      </trkpt>
      <trkpt lat="46.76401" lon="-2.03186">
        <ele>6.4</ele>
        <time>2020-03-11T10:35:53Z</time>
      </trkpt>
      <trkpt lat="46.7639" lon="-2.03161">
        <ele>6.7</ele>
        <time>2020-03-11T10:35:53Z</time>
      </trkpt>
      <trkpt lat="46.76377" lon="-2.03124">
        <ele>7.3</ele>
        <time>2020-03-11T10:35:53Z</time>
      </trkpt>
      <trkpt lat="46.76372" lon="-2.03095">
        <ele>6.5</ele>
        <time>2020-03-11T10:35:53Z</time>
      </trkpt>
      <trkpt lat="46.76369" lon="-2.03016">
        <ele>6</ele>
        <time>2020-03-11T10:35:53Z</time>
      </trkpt>
      <trkpt lat="46.76357" lon="-2.02957">
        <ele>6.7</ele>
        <time>2020-03-11T10:35:53Z</time>
      </trkpt>
      <trkpt lat="46.76345" lon="-2.02928">
        <ele>7.3</ele>
        <time>2020-03-11T10:35:53Z</time>
      </trkpt>
      <trkpt lat="46.76325" lon="-2.02902">
        <ele>6.6</ele>
        <time>2020-03-11T10:35:53Z</time>
      </trkpt>
      <trkpt lat="46.76289" lon="-2.02878">
        <ele>5.1</ele>
        <time>2020-03-11T10:35:53Z</time>
      </trkpt>
      <trkpt lat="46.76266" lon="-2.0286">
        <ele>5</ele>
        <time>2020-03-11T10:35:53Z</time>
      </trkpt>
      <trkpt lat="46.76246" lon="-2.02839">
        <ele>6.1</ele>
        <time>2020-03-11T10:35:53Z</time>
      </trkpt>
      <trkpt lat="46.76211" lon="-2.02797">
        <ele>5.8</ele>
        <time>2020-03-11T10:35:53Z</time>
      </trkpt>
      <trkpt lat="46.76176" lon="-2.02772">
        <ele>5.4</ele>
        <time>2020-03-11T10:35:53Z</time>
      </trkpt>
      <trkpt lat="46.76156" lon="-2.02756">
        <ele>6.2</ele>
        <time>2020-03-11T10:35:53Z</time>
      </trkpt>
      <trkpt lat="46.76142" lon="-2.02736">
        <ele>5.5</ele>
        <time>2020-03-11T10:35:53Z</time>
      </trkpt>
      <trkpt lat="46.76112" lon="-2.02711">
        <ele>6.5</ele>
        <time>2020-03-11T10:35:53Z</time>
      </trkpt>
      <trkpt lat="46.76079" lon="-2.02685">
        <ele>5.9</ele>
        <time>2020-03-11T10:35:53Z</time>
      </trkpt>
      <trkpt lat="46.76053" lon="-2.0266">
        <ele>6</ele>
        <time>2020-03-11T10:35:53Z</time>
      </trkpt>
      <trkpt lat="46.75995" lon="-2.02581">
        <ele>6.9</ele>
        <time>2020-03-11T10:35:53Z</time>
      </trkpt>
      <trkpt lat="46.75978" lon="-2.02567">
        <ele>6.9</ele>
        <time>2020-03-11T10:35:53Z</time>
      </trkpt>
      <trkpt lat="46.75964" lon="-2.02543">
        <ele>6.4</ele>
        <time>2020-03-11T10:35:53Z</time>
      </trkpt>
      <trkpt lat="46.75938" lon="-2.02519">
        <ele>5.7</ele>
        <time>2020-03-11T10:35:53Z</time>
      </trkpt>
      <trkpt lat="46.75891" lon="-2.02499">
        <ele>5</ele>
        <time>2020-03-11T10:35:53Z</time>
      </trkpt>
      <trkpt lat="46.75866" lon="-2.0249">
        <ele>4.7</ele>
        <time>2020-03-11T10:35:53Z</time>
      </trkpt>
      <trkpt lat="46.75843" lon="-2.02484">
        <ele>4.4</ele>
        <time>2020-03-11T10:35:53Z</time>
      </trkpt>
      <trkpt lat="46.75824" lon="-2.02482">
        <ele>4.2</ele>
        <time>2020-03-11T10:35:53Z</time>
      </trkpt>
      <trkpt lat="46.75803" lon="-2.02493">
        <ele>4.1</ele>
        <time>2020-03-11T10:35:53Z</time>
      </trkpt>
      <trkpt lat="46.75782" lon="-2.02476">
        <ele>4.1</ele>
        <time>2020-03-11T10:35:53Z</time>
      </trkpt>
      <trkpt lat="46.75744" lon="-2.02469">
        <ele>4.9</ele>
        <time>2020-03-11T10:35:53Z</time>
      </trkpt>
      <trkpt lat="46.75722" lon="-2.02456">
        <ele>5</ele>
        <time>2020-03-11T10:35:53Z</time>
      </trkpt>
      <trkpt lat="46.75704" lon="-2.02443">
        <ele>5</ele>
        <time>2020-03-11T10:35:53Z</time>
      </trkpt>
      <trkpt lat="46.75641" lon="-2.02355">
        <ele>3.1</ele>
        <time>2020-03-11T10:35:53Z</time>
      </trkpt>
      <trkpt lat="46.75571" lon="-2.02298">
        <ele>3.8</ele>
        <time>2020-03-11T10:35:53Z</time>
      </trkpt>
      <trkpt lat="46.75527" lon="-2.02263">
        <ele>3.5</ele>
        <time>2020-03-11T10:35:53Z</time>
      </trkpt>
      <trkpt lat="46.75509" lon="-2.02244">
        <ele>4.2</ele>
        <time>2020-03-11T10:35:53Z</time>
      </trkpt>
      <trkpt lat="46.75496" lon="-2.02215">
        <ele>4.1</ele>
        <time>2020-03-11T10:35:53Z</time>
      </trkpt>
      <trkpt lat="46.75484" lon="-2.02178">
        <ele>4</ele>
        <time>2020-03-11T10:35:53Z</time>
      </trkpt>
      <trkpt lat="46.75474" lon="-2.02148">
        <ele>3.3</ele>
        <time>2020-03-11T10:35:53Z</time>
      </trkpt>
      <trkpt lat="46.75449" lon="-2.02097">
        <ele>3.8</ele>
        <time>2020-03-11T10:35:53Z</time>
      </trkpt>
      <trkpt lat="46.75409" lon="-2.02045">
        <ele>3.4</ele>
        <time>2020-03-11T10:35:53Z</time>
      </trkpt>
      <trkpt lat="46.75367" lon="-2.01994">
        <ele>4.2</ele>
        <time>2020-03-11T10:35:53Z</time>
      </trkpt>
      <trkpt lat="46.75339" lon="-2.01955">
        <ele>4.1</ele>
        <time>2020-03-11T10:35:53Z</time>
      </trkpt>
      <trkpt lat="46.75311" lon="-2.01907">
        <ele>3.5</ele>
        <time>2020-03-11T10:35:53Z</time>
      </trkpt>
      <trkpt lat="46.75284" lon="-2.01865">
        <ele>4.7</ele>
        <time>2020-03-11T10:35:53Z</time>
      </trkpt>
      <trkpt lat="46.75257" lon="-2.01826">
        <ele>3</ele>
        <time>2020-03-11T10:35:53Z</time>
      </trkpt>
      <trkpt lat="46.75198" lon="-2.01745">
        <ele>3</ele>
        <time>2020-03-11T10:35:53Z</time>
      </trkpt>
      <trkpt lat="46.75174" lon="-2.01699">
        <ele>3</ele>
        <time>2020-03-11T10:35:53Z</time>
      </trkpt>
      <trkpt lat="46.75139" lon="-2.0164">
        <ele>4</ele>
        <time>2020-03-11T10:35:53Z</time>
      </trkpt>
      <trkpt lat="46.7512" lon="-2.0163">
        <ele>3.9</ele>
        <time>2020-03-11T10:35:53Z</time>
      </trkpt>
      <trkpt lat="46.75106" lon="-2.01613">
        <ele>4.2</ele>
        <time>2020-03-11T10:35:53Z</time>
      </trkpt>
      <trkpt lat="46.751" lon="-2.01585">
        <ele>4.4</ele>
        <time>2020-03-11T10:35:53Z</time>
      </trkpt>
      <trkpt lat="46.75079" lon="-2.01562">
        <ele>4.4</ele>
        <time>2020-03-11T10:35:53Z</time>
      </trkpt>
      <trkpt lat="46.75062" lon="-2.01541">
        <ele>4.4</ele>
        <time>2020-03-11T10:35:53Z</time>
      </trkpt>
      <trkpt lat="46.75038" lon="-2.01506">
        <ele>4</ele>
        <time>2020-03-11T10:35:53Z</time>
      </trkpt>
      <trkpt lat="46.75019" lon="-2.01479">
        <ele>3.5</ele>
        <time>2020-03-11T10:35:53Z</time>
      </trkpt>
      <trkpt lat="46.74993" lon="-2.01432">
        <ele>3.9</ele>
        <time>2020-03-11T10:35:53Z</time>
      </trkpt>
      <trkpt lat="46.74971" lon="-2.01393">
        <ele>4.1</ele>
        <time>2020-03-11T10:35:53Z</time>
      </trkpt>
      <trkpt lat="46.74955" lon="-2.01379">
        <ele>4.8</ele>
        <time>2020-03-11T10:35:53Z</time>
      </trkpt>
      <trkpt lat="46.74924" lon="-2.01352">
        <ele>5.2</ele>
        <time>2020-03-11T10:35:53Z</time>
      </trkpt>
      <trkpt lat="46.74835" lon="-2.01304">
        <ele>5.9</ele>
        <time>2020-03-11T10:35:53Z</time>
      </trkpt>
      <trkpt lat="46.74781" lon="-2.0127">
        <ele>5.6</ele>
        <time>2020-03-11T10:35:53Z</time>
      </trkpt>
      <trkpt lat="46.74695" lon="-2.01217">
        <ele>5.8</ele>
        <time>2020-03-11T10:35:53Z</time>
      </trkpt>
      <trkpt lat="46.7465" lon="-2.01178">
        <ele>5.7</ele>
        <time>2020-03-11T10:35:53Z</time>
      </trkpt>
      <trkpt lat="46.74613" lon="-2.01137">
        <ele>4.9</ele>
        <time>2020-03-11T10:35:53Z</time>
      </trkpt>
      <trkpt lat="46.74526" lon="-2.01032">
        <ele>4.1</ele>
        <time>2020-03-11T10:35:53Z</time>
      </trkpt>
      <trkpt lat="46.74489" lon="-2.01001">
        <ele>4</ele>
        <time>2020-03-11T10:35:53Z</time>
      </trkpt>
      <trkpt lat="46.74463" lon="-2.00978">
        <ele>4</ele>
        <time>2020-03-11T10:35:53Z</time>
      </trkpt>
      <trkpt lat="46.74389" lon="-2.00916">
        <ele>3</ele>
        <time>2020-03-11T10:35:53Z</time>
      </trkpt>
      <trkpt lat="46.74364" lon="-2.00895">
        <ele>3.2</ele>
        <time>2020-03-11T10:35:53Z</time>
      </trkpt>
      <trkpt lat="46.74344" lon="-2.00874">
        <ele>3.3</ele>
        <time>2020-03-11T10:35:53Z</time>
      </trkpt>
      <trkpt lat="46.74308" lon="-2.0082">
        <ele>3</ele>
        <time>2020-03-11T10:35:53Z</time>
      </trkpt>
      <trkpt lat="46.74252" lon="-2.00783">
        <ele>3.2</ele>
        <time>2020-03-11T10:35:53Z</time>
      </trkpt>
      <trkpt lat="46.74224" lon="-2.00768">
        <ele>3.6</ele>
        <time>2020-03-11T10:35:53Z</time>
      </trkpt>
      <trkpt lat="46.74179" lon="-2.00742">
        <ele>3.4</ele>
        <time>2020-03-11T10:35:53Z</time>
      </trkpt>
      <trkpt lat="46.74118" lon="-2.00701">
        <ele>3.8</ele>
        <time>2020-03-11T10:35:53Z</time>
      </trkpt>
      <trkpt lat="46.74095" lon="-2.00688">
        <ele>3.9</ele>
        <time>2020-03-11T10:35:53Z</time>
      </trkpt>
      <trkpt lat="46.74041" lon="-2.0068">
        <ele>4.3</ele>
        <time>2020-03-11T10:35:53Z</time>
      </trkpt>
      <trkpt lat="46.74023" lon="-2.00676">
        <ele>4.5</ele>
        <time>2020-03-11T10:35:53Z</time>
      </trkpt>
      <trkpt lat="46.7402" lon="-2.00643">
        <ele>4.1</ele>
        <time>2020-03-11T10:35:53Z</time>
      </trkpt>
      <trkpt lat="46.74033" lon="-2.00548">
        <ele>3.8</ele>
        <time>2020-03-11T10:35:53Z</time>
      </trkpt>
      <trkpt lat="46.74051" lon="-2.00444">
        <ele>4.2</ele>
        <time>2020-03-11T10:35:53Z</time>
      </trkpt>
      <trkpt lat="46.74054" lon="-2.00415">
        <ele>4.1</ele>
        <time>2020-03-11T10:35:53Z</time>
      </trkpt>
      <trkpt lat="46.74059" lon="-2.00386">
        <ele>3.9</ele>
        <time>2020-03-11T10:35:53Z</time>
      </trkpt>
      <trkpt lat="46.74062" lon="-2.0035">
        <ele>3.8</ele>
        <time>2020-03-11T10:35:53Z</time>
      </trkpt>
      <trkpt lat="46.74072" lon="-2.00308">
        <ele>3.4</ele>
        <time>2020-03-11T10:35:53Z</time>
      </trkpt>
      <trkpt lat="46.74081" lon="-2.00272">
        <ele>3.1</ele>
        <time>2020-03-11T10:35:53Z</time>
      </trkpt>
      <trkpt lat="46.74091" lon="-2.00232">
        <ele>3</ele>
        <time>2020-03-11T10:35:53Z</time>
      </trkpt>
      <trkpt lat="46.74107" lon="-2.00175">
        <ele>3.1</ele>
        <time>2020-03-11T10:35:53Z</time>
      </trkpt>
      <trkpt lat="46.74119" lon="-2.00141">
        <ele>3.3</ele>
        <time>2020-03-11T10:35:53Z</time>
      </trkpt>
      <trkpt lat="46.74127" lon="-2.00089">
        <ele>3.9</ele>
        <time>2020-03-11T10:35:53Z</time>
      </trkpt>
      <trkpt lat="46.74131" lon="-2.0006">
        <ele>3.2</ele>
        <time>2020-03-11T10:35:53Z</time>
      </trkpt>
      <trkpt lat="46.74135" lon="-2.00017">
        <ele>3</ele>
        <time>2020-03-11T10:35:53Z</time>
      </trkpt>
      <trkpt lat="46.74137" lon="-1.99989">
        <ele>3.4</ele>
        <time>2020-03-11T10:35:53Z</time>
      </trkpt>
      <trkpt lat="46.7414" lon="-1.99944">
        <ele>4</ele>
        <time>2020-03-11T10:35:53Z</time>
      </trkpt>
      <trkpt lat="46.74146" lon="-1.99841">
        <ele>4.6</ele>
        <time>2020-03-11T10:35:53Z</time>
      </trkpt>
      <trkpt lat="46.74151" lon="-1.99759">
        <ele>4.6</ele>
        <time>2020-03-11T10:35:53Z</time>
      </trkpt>
      <trkpt lat="46.74154" lon="-1.99703">
        <ele>4</ele>
        <time>2020-03-11T10:35:53Z</time>
      </trkpt>
      <trkpt lat="46.74156" lon="-1.99675">
        <ele>4</ele>
        <time>2020-03-11T10:35:53Z</time>
      </trkpt>
      <trkpt lat="46.74162" lon="-1.99639">
        <ele>4</ele>
        <time>2020-03-11T10:35:53Z</time>
      </trkpt>
      <trkpt lat="46.7417" lon="-1.99605">
        <ele>4.3</ele>
        <time>2020-03-11T10:35:53Z</time>
      </trkpt>
      <trkpt lat="46.74181" lon="-1.99565">
        <ele>4.7</ele>
        <time>2020-03-11T10:35:53Z</time>
      </trkpt>
      <trkpt lat="46.7419" lon="-1.99533">
        <ele>4.3</ele>
        <time>2020-03-11T10:35:53Z</time>
      </trkpt>
      <trkpt lat="46.74197" lon="-1.99507">
        <ele>4.1</ele>
        <time>2020-03-11T10:35:53Z</time>
      </trkpt>
      <trkpt lat="46.74204" lon="-1.99475">
        <ele>4.6</ele>
        <time>2020-03-11T10:35:53Z</time>
      </trkpt>
      <trkpt lat="46.7421" lon="-1.99439">
        <ele>4</ele>
        <time>2020-03-11T10:35:53Z</time>
      </trkpt>
      <trkpt lat="46.74215" lon="-1.99394">
        <ele>3.4</ele>
        <time>2020-03-11T10:35:53Z</time>
      </trkpt>
      <trkpt lat="46.74215" lon="-1.99366">
        <ele>3</ele>
        <time>2020-03-11T10:35:53Z</time>
      </trkpt>
      <trkpt lat="46.7421" lon="-1.99339">
        <ele>3.4</ele>
        <time>2020-03-11T10:35:53Z</time>
      </trkpt>
      <trkpt lat="46.74194" lon="-1.99326">
        <ele>3.3</ele>
        <time>2020-03-11T10:35:53Z</time>
      </trkpt>
      <trkpt lat="46.74178" lon="-1.99308">
        <ele>4</ele>
        <time>2020-03-11T10:35:53Z</time>
      </trkpt>
      <trkpt lat="46.7417" lon="-1.99283">
        <ele>4</ele>
        <time>2020-03-11T10:35:53Z</time>
      </trkpt>
      <trkpt lat="46.74147" lon="-1.9928">
        <ele>4</ele>
        <time>2020-03-11T10:35:53Z</time>
      </trkpt>
      <trkpt lat="46.74116" lon="-1.99276">
        <ele>4</ele>
        <time>2020-03-11T10:35:53Z</time>
      </trkpt>
      <trkpt lat="46.74092" lon="-1.99273">
        <ele>4.7</ele>
        <time>2020-03-11T10:35:53Z</time>
      </trkpt>
      <trkpt lat="46.74054" lon="-1.99268">
        <ele>5</ele>
        <time>2020-03-11T10:35:53Z</time>
      </trkpt>
      <trkpt lat="46.74011" lon="-1.99267">
        <ele>6.4</ele>
        <time>2020-03-11T10:35:53Z</time>
      </trkpt>
      <trkpt lat="46.7398" lon="-1.99256">
        <ele>5.5</ele>
        <time>2020-03-11T10:35:53Z</time>
      </trkpt>
      <trkpt lat="46.73953" lon="-1.99244">
        <ele>4.2</ele>
        <time>2020-03-11T10:35:53Z</time>
      </trkpt>
      <trkpt lat="46.73917" lon="-1.99221">
        <ele>4</ele>
        <time>2020-03-11T10:35:53Z</time>
      </trkpt>
      <trkpt lat="46.73899" lon="-1.99206">
        <ele>3.5</ele>
        <time>2020-03-11T10:35:53Z</time>
      </trkpt>
      <trkpt lat="46.73875" lon="-1.99183">
        <ele>3.8</ele>
        <time>2020-03-11T10:35:53Z</time>
      </trkpt>
      <trkpt lat="46.73841" lon="-1.99148">
        <ele>5.2</ele>
        <time>2020-03-11T10:35:53Z</time>
      </trkpt>
      <trkpt lat="46.73777" lon="-1.99084">
        <ele>5.9</ele>
        <time>2020-03-11T10:35:53Z</time>
      </trkpt>
      <trkpt lat="46.73728" lon="-1.99038">
        <ele>7.9</ele>
        <time>2020-03-11T10:35:53Z</time>
      </trkpt>
      <trkpt lat="46.73662" lon="-1.98978">
        <ele>6.2</ele>
        <time>2020-03-11T10:35:53Z</time>
      </trkpt>
      <trkpt lat="46.73591" lon="-1.98907">
        <ele>5.8</ele>
        <time>2020-03-11T10:35:53Z</time>
      </trkpt>
      <trkpt lat="46.73544" lon="-1.98862">
        <ele>6.4</ele>
        <time>2020-03-11T10:35:53Z</time>
      </trkpt>
      <trkpt lat="46.73503" lon="-1.98821">
        <ele>6.5</ele>
        <time>2020-03-11T10:35:53Z</time>
      </trkpt>
      <trkpt lat="46.73445" lon="-1.98764">
        <ele>6</ele>
        <time>2020-03-11T10:35:53Z</time>
      </trkpt>
      <trkpt lat="46.7341" lon="-1.98728">
        <ele>7.7</ele>
        <time>2020-03-11T10:35:53Z</time>
      </trkpt>
      <trkpt lat="46.73388" lon="-1.9871">
        <ele>9.1</ele>
        <time>2020-03-11T10:35:53Z</time>
      </trkpt>
      <trkpt lat="46.73372" lon="-1.98692">
        <ele>8.1</ele>
        <time>2020-03-11T10:35:53Z</time>
      </trkpt>
      <trkpt lat="46.73378" lon="-1.98665">
        <ele>8.6</ele>
        <time>2020-03-11T10:35:53Z</time>
      </trkpt>
      <trkpt lat="46.73381" lon="-1.98624">
        <ele>8.6</ele>
        <time>2020-03-11T10:35:53Z</time>
      </trkpt>
      <trkpt lat="46.7338" lon="-1.98587">
        <ele>8.9</ele>
        <time>2020-03-11T10:35:53Z</time>
      </trkpt>
      <trkpt lat="46.73374" lon="-1.98554">
        <ele>9.6</ele>
        <time>2020-03-11T10:35:53Z</time>
      </trkpt>
      <trkpt lat="46.73366" lon="-1.98528">
        <ele>7.9</ele>
        <time>2020-03-11T10:35:53Z</time>
      </trkpt>
      <trkpt lat="46.73355" lon="-1.98504">
        <ele>7.8</ele>
        <time>2020-03-11T10:35:53Z</time>
      </trkpt>
      <trkpt lat="46.73339" lon="-1.98483">
        <ele>7.9</ele>
        <time>2020-03-11T10:35:53Z</time>
      </trkpt>
      <trkpt lat="46.7332" lon="-1.98463">
        <ele>7.5</ele>
        <time>2020-03-11T10:35:53Z</time>
      </trkpt>
      <trkpt lat="46.73269" lon="-1.98413">
        <ele>5.4</ele>
        <time>2020-03-11T10:35:53Z</time>
      </trkpt>
      <trkpt lat="46.73215" lon="-1.98361">
        <ele>5</ele>
        <time>2020-03-11T10:35:53Z</time>
      </trkpt>
      <trkpt lat="46.73182" lon="-1.98332">
        <ele>5.9</ele>
        <time>2020-03-11T10:35:53Z</time>
      </trkpt>
      <trkpt lat="46.73164" lon="-1.98318">
        <ele>5.9</ele>
        <time>2020-03-11T10:35:53Z</time>
      </trkpt>
      <trkpt lat="46.73132" lon="-1.98299">
        <ele>5</ele>
        <time>2020-03-11T10:35:53Z</time>
      </trkpt>
      <trkpt lat="46.73086" lon="-1.9828">
        <ele>5.1</ele>
        <time>2020-03-11T10:35:53Z</time>
      </trkpt>
      <trkpt lat="46.73015" lon="-1.98251">
        <ele>5</ele>
        <time>2020-03-11T10:35:53Z</time>
      </trkpt>
      <trkpt lat="46.72942" lon="-1.98219">
        <ele>5</ele>
        <time>2020-03-11T10:35:53Z</time>
      </trkpt>
      <trkpt lat="46.7285" lon="-1.98181">
        <ele>4.2</ele>
        <time>2020-03-11T10:35:53Z</time>
      </trkpt>
      <trkpt lat="46.72813" lon="-1.98165">
        <ele>4</ele>
        <time>2020-03-11T10:35:53Z</time>
      </trkpt>
      <trkpt lat="46.72782" lon="-1.98152">
        <ele>4</ele>
        <time>2020-03-11T10:35:53Z</time>
      </trkpt>
      <trkpt lat="46.72735" lon="-1.98129">
        <ele>4.5</ele>
        <time>2020-03-11T10:35:53Z</time>
      </trkpt>
      <trkpt lat="46.72704" lon="-1.98111">
        <ele>4</ele>
        <time>2020-03-11T10:35:53Z</time>
      </trkpt>
      <trkpt lat="46.72683" lon="-1.98097">
        <ele>4.2</ele>
        <time>2020-03-11T10:35:53Z</time>
      </trkpt>
      <trkpt lat="46.72619" lon="-1.98055">
        <ele>4.7</ele>
        <time>2020-03-11T10:35:53Z</time>
      </trkpt>
      <trkpt lat="46.72546" lon="-1.98003">
        <ele>4.4</ele>
        <time>2020-03-11T10:35:53Z</time>
      </trkpt>
      <trkpt lat="46.72513" lon="-1.97981">
        <ele>4.8</ele>
        <time>2020-03-11T10:35:53Z</time>
      </trkpt>
      <trkpt lat="46.72486" lon="-1.97959">
        <ele>4.7</ele>
        <time>2020-03-11T10:35:53Z</time>
      </trkpt>
      <trkpt lat="46.72461" lon="-1.97933">
        <ele>4.5</ele>
        <time>2020-03-11T10:35:53Z</time>
      </trkpt>
      <trkpt lat="46.72437" lon="-1.97898">
        <ele>5</ele>
        <time>2020-03-11T10:35:53Z</time>
      </trkpt>
      <trkpt lat="46.72424" lon="-1.97877">
        <ele>5</ele>
        <time>2020-03-11T10:35:53Z</time>
      </trkpt>
      <trkpt lat="46.72406" lon="-1.97856">
        <ele>5</ele>
        <time>2020-03-11T10:35:53Z</time>
      </trkpt>
      <trkpt lat="46.72388" lon="-1.97852">
        <ele>5</ele>
        <time>2020-03-11T10:35:53Z</time>
      </trkpt>
      <trkpt lat="46.72385" lon="-1.9782">
        <ele>5</ele>
        <time>2020-03-11T10:35:53Z</time>
      </trkpt>
      <trkpt lat="46.7234" lon="-1.97738">
        <ele>5.5</ele>
        <time>2020-03-11T10:35:53Z</time>
      </trkpt>
      <trkpt lat="46.72272" lon="-1.97618">
        <ele>5.4</ele>
        <time>2020-03-11T10:35:53Z</time>
      </trkpt>
      <trkpt lat="46.72234" lon="-1.97549">
        <ele>5.9</ele>
        <time>2020-03-11T10:35:53Z</time>
      </trkpt>
      <trkpt lat="46.72183" lon="-1.97462">
        <ele>6</ele>
        <time>2020-03-11T10:35:53Z</time>
      </trkpt>
      <trkpt lat="46.72119" lon="-1.9735">
        <ele>6</ele>
        <time>2020-03-11T10:35:53Z</time>
      </trkpt>
      <trkpt lat="46.72078" lon="-1.97275">
        <ele>7</ele>
        <time>2020-03-11T10:35:53Z</time>
      </trkpt>
      <trkpt lat="46.7202" lon="-1.97166">
        <ele>8</ele>
        <time>2020-03-11T10:35:53Z</time>
      </trkpt>
      <trkpt lat="46.71989" lon="-1.97109">
        <ele>9</ele>
        <time>2020-03-11T10:35:53Z</time>
      </trkpt>
      <trkpt lat="46.71947" lon="-1.9703">
        <ele>9.8</ele>
        <time>2020-03-11T10:35:53Z</time>
      </trkpt>
      <trkpt lat="46.71898" lon="-1.96937">
        <ele>11</ele>
        <time>2020-03-11T10:35:53Z</time>
      </trkpt>
      <trkpt lat="46.71884" lon="-1.9691">
        <ele>11</ele>
        <time>2020-03-11T10:35:53Z</time>
      </trkpt>
      <trkpt lat="46.71869" lon="-1.96892">
        <ele>11.6</ele>
        <time>2020-03-11T10:35:53Z</time>
      </trkpt>
      <trkpt lat="46.71849" lon="-1.96883">
        <ele>12</ele>
        <time>2020-03-11T10:35:53Z</time>
      </trkpt>
      <trkpt lat="46.71831" lon="-1.96895">
        <ele>12</ele>
        <time>2020-03-11T10:35:53Z</time>
      </trkpt>
      <trkpt lat="46.71815" lon="-1.96935">
        <ele>11.8</ele>
        <time>2020-03-11T10:35:53Z</time>
      </trkpt>
      <trkpt lat="46.71783" lon="-1.97008">
        <ele>12.6</ele>
        <time>2020-03-11T10:35:53Z</time>
      </trkpt>
      <trkpt lat="46.71772" lon="-1.97032">
        <ele>12</ele>
        <time>2020-03-11T10:35:53Z</time>
      </trkpt>
      <trkpt lat="46.71756" lon="-1.97057">
        <ele>12.7</ele>
        <time>2020-03-11T10:35:53Z</time>
      </trkpt>
      <trkpt lat="46.71718" lon="-1.9711">
        <ele>12</ele>
        <time>2020-03-11T10:35:53Z</time>
      </trkpt>
      <trkpt lat="46.71697" lon="-1.97142">
        <ele>12</ele>
        <time>2020-03-11T10:35:53Z</time>
      </trkpt>
      <trkpt lat="46.7168" lon="-1.97166">
        <ele>11.5</ele>
        <time>2020-03-11T10:35:53Z</time>
      </trkpt>
      <trkpt lat="46.71654" lon="-1.97207">
        <ele>10.8</ele>
        <time>2020-03-11T10:35:53Z</time>
      </trkpt>
      <trkpt lat="46.71618" lon="-1.97272">
        <ele>10</ele>
        <time>2020-03-11T10:35:53Z</time>
      </trkpt>
      <trkpt lat="46.71576" lon="-1.97346">
        <ele>10.3</ele>
        <time>2020-03-11T10:35:53Z</time>
      </trkpt>
      <trkpt lat="46.7152" lon="-1.97442">
        <ele>11.3</ele>
        <time>2020-03-11T10:35:53Z</time>
      </trkpt>
      <trkpt lat="46.7146" lon="-1.97545">
        <ele>12.1</ele>
        <time>2020-03-11T10:35:53Z</time>
      </trkpt>
      <trkpt lat="46.71435" lon="-1.97588">
        <ele>12.1</ele>
        <time>2020-03-11T10:35:53Z</time>
      </trkpt>
      <trkpt lat="46.7142" lon="-1.97613">
        <ele>11</ele>
        <time>2020-03-11T10:35:53Z</time>
      </trkpt>
      <trkpt lat="46.71404" lon="-1.97631">
        <ele>11.4</ele>
        <time>2020-03-11T10:35:53Z</time>
      </trkpt>
      <trkpt lat="46.71388" lon="-1.97645">
        <ele>11.2</ele>
        <time>2020-03-11T10:35:53Z</time>
      </trkpt>
      <trkpt lat="46.71362" lon="-1.97675">
        <ele>10.4</ele>
        <time>2020-03-11T10:35:53Z</time>
      </trkpt>
      <trkpt lat="46.71345" lon="-1.97699">
        <ele>9.5</ele>
        <time>2020-03-11T10:35:53Z</time>
      </trkpt>
      <trkpt lat="46.71332" lon="-1.97727">
        <ele>9.6</ele>
        <time>2020-03-11T10:35:53Z</time>
      </trkpt>
      <trkpt lat="46.71314" lon="-1.97748">
        <ele>9.4</ele>
        <time>2020-03-11T10:35:53Z</time>
      </trkpt>
      <trkpt lat="46.71292" lon="-1.97765">
        <ele>8.1</ele>
        <time>2020-03-11T10:35:53Z</time>
      </trkpt>
      <trkpt lat="46.71277" lon="-1.97782">
        <ele>7</ele>
        <time>2020-03-11T10:35:53Z</time>
      </trkpt>
      <trkpt lat="46.71262" lon="-1.97812">
        <ele>7</ele>
        <time>2020-03-11T10:35:53Z</time>
      </trkpt>
      <trkpt lat="46.71245" lon="-1.97856">
        <ele>6.2</ele>
        <time>2020-03-11T10:35:53Z</time>
      </trkpt>
      <trkpt lat="46.71226" lon="-1.97891">
        <ele>6.1</ele>
        <time>2020-03-11T10:35:53Z</time>
      </trkpt>
      <trkpt lat="46.71212" lon="-1.97914">
        <ele>6.6</ele>
        <time>2020-03-11T10:35:53Z</time>
      </trkpt>
      <trkpt lat="46.71194" lon="-1.97931">
        <ele>6</ele>
        <time>2020-03-11T10:35:53Z</time>
      </trkpt>
      <trkpt lat="46.71178" lon="-1.97945">
        <ele>6</ele>
        <time>2020-03-11T10:35:53Z</time>
      </trkpt>
      <trkpt lat="46.71158" lon="-1.97957">
        <ele>6.6</ele>
        <time>2020-03-11T10:35:53Z</time>
      </trkpt>
      <trkpt lat="46.71167" lon="-1.97981">
        <ele>6</ele>
        <time>2020-03-11T10:35:53Z</time>
      </trkpt>
      <trkpt lat="46.71167" lon="-1.9801">
        <ele>4.9</ele>
        <time>2020-03-11T10:35:53Z</time>
      </trkpt>
      <trkpt lat="46.71149" lon="-1.98023">
        <ele>4.8</ele>
        <time>2020-03-11T10:35:53Z</time>
      </trkpt>
      <trkpt lat="46.71123" lon="-1.98033">
        <ele>5.9</ele>
        <time>2020-03-11T10:35:53Z</time>
      </trkpt>
      <trkpt lat="46.71104" lon="-1.98041">
        <ele>6.1</ele>
        <time>2020-03-11T10:35:53Z</time>
      </trkpt>
      <trkpt lat="46.71071" lon="-1.98039">
        <ele>7.9</ele>
        <time>2020-03-11T10:35:53Z</time>
      </trkpt>
      <trkpt lat="46.71047" lon="-1.98047">
        <ele>7.8</ele>
        <time>2020-03-11T10:35:53Z</time>
      </trkpt>
      <trkpt lat="46.71028" lon="-1.98049">
        <ele>8.2</ele>
        <time>2020-03-11T10:35:53Z</time>
      </trkpt>
      <trkpt lat="46.70997" lon="-1.98059">
        <ele>8.3</ele>
        <time>2020-03-11T10:35:53Z</time>
      </trkpt>
      <trkpt lat="46.70969" lon="-1.98061">
        <ele>7</ele>
        <time>2020-03-11T10:35:53Z</time>
      </trkpt>
      <trkpt lat="46.70953" lon="-1.98042">
        <ele>7.7</ele>
        <time>2020-03-11T10:35:53Z</time>
      </trkpt>
      <trkpt lat="46.70936" lon="-1.98031">
        <ele>8.7</ele>
        <time>2020-03-11T10:35:53Z</time>
      </trkpt>
      <trkpt lat="46.70916" lon="-1.98024">
        <ele>8</ele>
        <time>2020-03-11T10:35:53Z</time>
      </trkpt>
      <trkpt lat="46.70895" lon="-1.98007">
        <ele>7</ele>
        <time>2020-03-11T10:35:53Z</time>
      </trkpt>
      <trkpt lat="46.70875" lon="-1.97994">
        <ele>5.8</ele>
        <time>2020-03-11T10:35:53Z</time>
      </trkpt>
      <trkpt lat="46.70863" lon="-1.97974">
        <ele>7.7</ele>
        <time>2020-03-11T10:35:53Z</time>
      </trkpt>
      <trkpt lat="46.70842" lon="-1.97957">
        <ele>7</ele>
        <time>2020-03-11T10:35:53Z</time>
      </trkpt>
      <trkpt lat="46.70809" lon="-1.97935">
        <ele>6.7</ele>
        <time>2020-03-11T10:35:53Z</time>
      </trkpt>
      <trkpt lat="46.70793" lon="-1.97918">
        <ele>7.9</ele>
        <time>2020-03-11T10:35:53Z</time>
      </trkpt>
      <trkpt lat="46.70771" lon="-1.97906">
        <ele>7.8</ele>
        <time>2020-03-11T10:35:53Z</time>
      </trkpt>
      <trkpt lat="46.70747" lon="-1.97903">
        <ele>7.9</ele>
        <time>2020-03-11T10:35:53Z</time>
      </trkpt>
      <trkpt lat="46.7069" lon="-1.97897">
        <ele>7.7</ele>
        <time>2020-03-11T10:35:53Z</time>
      </trkpt>
      <trkpt lat="46.70672" lon="-1.97898">
        <ele>6.9</ele>
        <time>2020-03-11T10:35:53Z</time>
      </trkpt>
      <trkpt lat="46.7064" lon="-1.97905">
        <ele>6.2</ele>
        <time>2020-03-11T10:35:53Z</time>
      </trkpt>
      <trkpt lat="46.70607" lon="-1.97916">
        <ele>6.3</ele>
        <time>2020-03-11T10:35:53Z</time>
      </trkpt>
      <trkpt lat="46.70583" lon="-1.97925">
        <ele>6.5</ele>
        <time>2020-03-11T10:35:53Z</time>
      </trkpt>
      <trkpt lat="46.70558" lon="-1.9793">
        <ele>6.1</ele>
        <time>2020-03-11T10:35:53Z</time>
      </trkpt>
      <trkpt lat="46.70536" lon="-1.97929">
        <ele>8</ele>
        <time>2020-03-11T10:35:53Z</time>
      </trkpt>
      <trkpt lat="46.7051" lon="-1.97921">
        <ele>8.5</ele>
        <time>2020-03-11T10:35:53Z</time>
      </trkpt>
      <trkpt lat="46.70484" lon="-1.97909">
        <ele>8.3</ele>
        <time>2020-03-11T10:35:53Z</time>
      </trkpt>
      <trkpt lat="46.70463" lon="-1.97896">
        <ele>10</ele>
        <time>2020-03-11T10:35:53Z</time>
      </trkpt>
      <trkpt lat="46.70445" lon="-1.9788">
        <ele>11</ele>
        <time>2020-03-11T10:35:53Z</time>
      </trkpt>
      <trkpt lat="46.70426" lon="-1.97861">
        <ele>7.7</ele>
        <time>2020-03-11T10:35:53Z</time>
      </trkpt>
      <trkpt lat="46.70364" lon="-1.97796">
        <ele>13</ele>
        <time>2020-03-11T10:35:53Z</time>
      </trkpt>
      <trkpt lat="46.70318" lon="-1.97749">
        <ele>14</ele>
        <time>2020-03-11T10:35:53Z</time>
      </trkpt>
      <trkpt lat="46.70285" lon="-1.97715">
        <ele>14.4</ele>
        <time>2020-03-11T10:35:53Z</time>
      </trkpt>
      <trkpt lat="46.70252" lon="-1.97681">
        <ele>13.1</ele>
        <time>2020-03-11T10:35:53Z</time>
      </trkpt>
      <trkpt lat="46.70206" lon="-1.9763">
        <ele>13.6</ele>
        <time>2020-03-11T10:35:53Z</time>
      </trkpt>
      <trkpt lat="46.70186" lon="-1.97603">
        <ele>13.8</ele>
        <time>2020-03-11T10:35:53Z</time>
      </trkpt>
      <trkpt lat="46.70162" lon="-1.97571">
        <ele>13.2</ele>
        <time>2020-03-11T10:35:53Z</time>
      </trkpt>
      <trkpt lat="46.70142" lon="-1.97543">
        <ele>12.1</ele>
        <time>2020-03-11T10:35:53Z</time>
      </trkpt>
      <trkpt lat="46.70128" lon="-1.97524">
        <ele>10.9</ele>
        <time>2020-03-11T10:35:53Z</time>
      </trkpt>
      <trkpt lat="46.70106" lon="-1.97494">
        <ele>11</ele>
        <time>2020-03-11T10:35:53Z</time>
      </trkpt>
      <trkpt lat="46.70086" lon="-1.97468">
        <ele>11.2</ele>
        <time>2020-03-11T10:35:53Z</time>
      </trkpt>
      <trkpt lat="46.7003" lon="-1.97391">
        <ele>13</ele>
        <time>2020-03-11T10:35:53Z</time>
      </trkpt>
      <trkpt lat="46.70014" lon="-1.97369">
        <ele>12.9</ele>
        <time>2020-03-11T10:35:53Z</time>
      </trkpt>
      <trkpt lat="46.69993" lon="-1.97344">
        <ele>12.7</ele>
        <time>2020-03-11T10:35:53Z</time>
      </trkpt>
      <trkpt lat="46.69971" lon="-1.97321">
        <ele>11.9</ele>
        <time>2020-03-11T10:35:53Z</time>
      </trkpt>
      <trkpt lat="46.69947" lon="-1.97301">
        <ele>10.3</ele>
        <time>2020-03-11T10:35:53Z</time>
      </trkpt>
      <trkpt lat="46.69917" lon="-1.97278">
        <ele>9</ele>
        <time>2020-03-11T10:35:53Z</time>
      </trkpt>
      <trkpt lat="46.69894" lon="-1.97261">
        <ele>9.8</ele>
        <time>2020-03-11T10:35:53Z</time>
      </trkpt>
      <trkpt lat="46.69878" lon="-1.97247">
        <ele>11</ele>
        <time>2020-03-11T10:35:53Z</time>
      </trkpt>
      <trkpt lat="46.69862" lon="-1.97233">
        <ele>11.6</ele>
        <time>2020-03-11T10:35:53Z</time>
      </trkpt>
      <trkpt lat="46.69837" lon="-1.97215">
        <ele>12.2</ele>
        <time>2020-03-11T10:35:53Z</time>
      </trkpt>
      <trkpt lat="46.6981" lon="-1.97193">
        <ele>13</ele>
        <time>2020-03-11T10:35:53Z</time>
      </trkpt>
      <trkpt lat="46.69784" lon="-1.97174">
        <ele>13.4</ele>
        <time>2020-03-11T10:35:53Z</time>
      </trkpt>
      <trkpt lat="46.69761" lon="-1.97153">
        <ele>13.7</ele>
        <time>2020-03-11T10:35:53Z</time>
      </trkpt>
      <trkpt lat="46.69742" lon="-1.97134">
        <ele>13.8</ele>
        <time>2020-03-11T10:35:53Z</time>
      </trkpt>
      <trkpt lat="46.69724" lon="-1.97115">
        <ele>13.9</ele>
        <time>2020-03-11T10:35:53Z</time>
      </trkpt>
      <trkpt lat="46.69702" lon="-1.97091">
        <ele>12.7</ele>
        <time>2020-03-11T10:35:53Z</time>
      </trkpt>
      <trkpt lat="46.69681" lon="-1.97068">
        <ele>11.5</ele>
        <time>2020-03-11T10:35:53Z</time>
      </trkpt>
      <trkpt lat="46.69654" lon="-1.97039">
        <ele>12</ele>
        <time>2020-03-11T10:35:53Z</time>
      </trkpt>
      <trkpt lat="46.69634" lon="-1.97018">
        <ele>12.2</ele>
        <time>2020-03-11T10:35:53Z</time>
      </trkpt>
      <trkpt lat="46.69614" lon="-1.96996">
        <ele>12.1</ele>
        <time>2020-03-11T10:35:53Z</time>
      </trkpt>
      <trkpt lat="46.69597" lon="-1.96979">
        <ele>11</ele>
        <time>2020-03-11T10:35:53Z</time>
      </trkpt>
      <trkpt lat="46.69577" lon="-1.96958">
        <ele>9.1</ele>
        <time>2020-03-11T10:35:53Z</time>
      </trkpt>
      <trkpt lat="46.69551" lon="-1.96933">
        <ele>8.9</ele>
        <time>2020-03-11T10:35:53Z</time>
      </trkpt>
      <trkpt lat="46.69526" lon="-1.96908">
        <ele>11.4</ele>
        <time>2020-03-11T10:35:53Z</time>
      </trkpt>
      <trkpt lat="46.69497" lon="-1.9688">
        <ele>13.3</ele>
        <time>2020-03-11T10:35:53Z</time>
      </trkpt>
      <trkpt lat="46.69474" lon="-1.96858">
        <ele>14</ele>
        <time>2020-03-11T10:35:53Z</time>
      </trkpt>
      <trkpt lat="46.69442" lon="-1.96827">
        <ele>13.2</ele>
        <time>2020-03-11T10:35:53Z</time>
      </trkpt>
      <trkpt lat="46.69426" lon="-1.96811">
        <ele>13.8</ele>
        <time>2020-03-11T10:35:53Z</time>
      </trkpt>
      <trkpt lat="46.6941" lon="-1.96796">
        <ele>13.8</ele>
        <time>2020-03-11T10:35:53Z</time>
      </trkpt>
      <trkpt lat="46.69389" lon="-1.96775">
        <ele>14</ele>
        <time>2020-03-11T10:35:53Z</time>
      </trkpt>
      <trkpt lat="46.69374" lon="-1.96757">
        <ele>12.8</ele>
        <time>2020-03-11T10:35:53Z</time>
      </trkpt>
      <trkpt lat="46.69358" lon="-1.9673">
        <ele>12.9</ele>
        <time>2020-03-11T10:35:53Z</time>
      </trkpt>
      <trkpt lat="46.69347" lon="-1.96708">
        <ele>12.5</ele>
        <time>2020-03-11T10:35:53Z</time>
      </trkpt>
      <trkpt lat="46.69335" lon="-1.96677">
        <ele>12.7</ele>
        <time>2020-03-11T10:35:53Z</time>
      </trkpt>
      <trkpt lat="46.69325" lon="-1.96642">
        <ele>12.2</ele>
        <time>2020-03-11T10:35:53Z</time>
      </trkpt>
      <trkpt lat="46.69318" lon="-1.96604">
        <ele>12.7</ele>
        <time>2020-03-11T10:35:53Z</time>
      </trkpt>
      <trkpt lat="46.69316" lon="-1.96574">
        <ele>13.6</ele>
        <time>2020-03-11T10:35:53Z</time>
      </trkpt>
      <trkpt lat="46.69315" lon="-1.96539">
        <ele>13.6</ele>
        <time>2020-03-11T10:35:53Z</time>
      </trkpt>
      <trkpt lat="46.69316" lon="-1.96505">
        <ele>13.4</ele>
        <time>2020-03-11T10:35:53Z</time>
      </trkpt>
      <trkpt lat="46.69318" lon="-1.9647">
        <ele>13.5</ele>
        <time>2020-03-11T10:35:53Z</time>
      </trkpt>
      <trkpt lat="46.69323" lon="-1.96405">
        <ele>13.8</ele>
        <time>2020-03-11T10:35:53Z</time>
      </trkpt>
      <trkpt lat="46.69326" lon="-1.96349">
        <ele>14</ele>
        <time>2020-03-11T10:35:53Z</time>
      </trkpt>
      <trkpt lat="46.69328" lon="-1.96318">
        <ele>14</ele>
        <time>2020-03-11T10:35:53Z</time>
      </trkpt>
      <trkpt lat="46.69328" lon="-1.96278">
        <ele>13.8</ele>
        <time>2020-03-11T10:35:53Z</time>
      </trkpt>
      <trkpt lat="46.69327" lon="-1.96225">
        <ele>12.8</ele>
        <time>2020-03-11T10:35:53Z</time>
      </trkpt>
      <trkpt lat="46.69326" lon="-1.96188">
        <ele>12</ele>
        <time>2020-03-11T10:35:53Z</time>
      </trkpt>
      <trkpt lat="46.69326" lon="-1.96158">
        <ele>11</ele>
        <time>2020-03-11T10:35:53Z</time>
      </trkpt>
      <trkpt lat="46.69332" lon="-1.96131">
        <ele>9.2</ele>
        <time>2020-03-11T10:35:53Z</time>
      </trkpt>
      <trkpt lat="46.69345" lon="-1.96111">
        <ele>7.2</ele>
        <time>2020-03-11T10:35:53Z</time>
      </trkpt>
      <trkpt lat="46.69383" lon="-1.96077">
        <ele>5.3</ele>
        <time>2020-03-11T10:35:53Z</time>
      </trkpt>
      <trkpt lat="46.69399" lon="-1.96064">
        <ele>4.5</ele>
        <time>2020-03-11T10:35:53Z</time>
      </trkpt>
      <trkpt lat="46.69416" lon="-1.96045">
        <ele>4.4</ele>
        <time>2020-03-11T10:35:53Z</time>
      </trkpt>
      <trkpt lat="46.69429" lon="-1.96023">
        <ele>3.2</ele>
        <time>2020-03-11T10:35:53Z</time>
      </trkpt>
      <trkpt lat="46.69439" lon="-1.96">
        <ele>4.2</ele>
        <time>2020-03-11T10:35:53Z</time>
      </trkpt>
      <trkpt lat="46.69446" lon="-1.95972">
        <ele>4.1</ele>
        <time>2020-03-11T10:35:53Z</time>
      </trkpt>
      <trkpt lat="46.69452" lon="-1.95915">
        <ele>6.4</ele>
        <time>2020-03-11T10:35:53Z</time>
      </trkpt>
      <trkpt lat="46.69461" lon="-1.95822">
        <ele>6.1</ele>
        <time>2020-03-11T10:35:53Z</time>
      </trkpt>
      <trkpt lat="46.69467" lon="-1.95759">
        <ele>7.5</ele>
        <time>2020-03-11T10:35:53Z</time>
      </trkpt>
      <trkpt lat="46.69476" lon="-1.95715">
        <ele>9.1</ele>
        <time>2020-03-11T10:35:53Z</time>
      </trkpt>
      <trkpt lat="46.69485" lon="-1.95671">
        <ele>7.2</ele>
        <time>2020-03-11T10:35:53Z</time>
      </trkpt>
      <trkpt lat="46.69499" lon="-1.95607">
        <ele>9.6</ele>
        <time>2020-03-11T10:35:53Z</time>
      </trkpt>
      <trkpt lat="46.69507" lon="-1.95579">
        <ele>8.5</ele>
        <time>2020-03-11T10:35:53Z</time>
      </trkpt>
      <trkpt lat="46.69526" lon="-1.95532">
        <ele>8</ele>
        <time>2020-03-11T10:35:53Z</time>
      </trkpt>
      <trkpt lat="46.69537" lon="-1.95505">
        <ele>7.5</ele>
        <time>2020-03-11T10:35:53Z</time>
      </trkpt>
      <trkpt lat="46.69544" lon="-1.9548">
        <ele>7.6</ele>
        <time>2020-03-11T10:35:53Z</time>
      </trkpt>
      <trkpt lat="46.69551" lon="-1.95453">
        <ele>7.8</ele>
        <time>2020-03-11T10:35:53Z</time>
      </trkpt>
      <trkpt lat="46.69549" lon="-1.95423">
        <ele>7.9</ele>
        <time>2020-03-11T10:35:53Z</time>
      </trkpt>
      <trkpt lat="46.69541" lon="-1.9538">
        <ele>8.5</ele>
        <time>2020-03-11T10:35:53Z</time>
      </trkpt>
      <trkpt lat="46.6953" lon="-1.95324">
        <ele>8.5</ele>
        <time>2020-03-11T10:35:53Z</time>
      </trkpt>
      <trkpt lat="46.69524" lon="-1.95292">
        <ele>8.6</ele>
        <time>2020-03-11T10:35:53Z</time>
      </trkpt>
      <trkpt lat="46.69525" lon="-1.95265">
        <ele>8.7</ele>
        <time>2020-03-11T10:35:53Z</time>
      </trkpt>
      <trkpt lat="46.69538" lon="-1.9524">
        <ele>7.8</ele>
        <time>2020-03-11T10:35:53Z</time>
      </trkpt>
      <trkpt lat="46.69569" lon="-1.95223">
        <ele>10</ele>
        <time>2020-03-11T10:35:53Z</time>
      </trkpt>
      <trkpt lat="46.6959" lon="-1.95197">
        <ele>9.1</ele>
        <time>2020-03-11T10:35:53Z</time>
      </trkpt>
      <trkpt lat="46.69608" lon="-1.9517">
        <ele>8.7</ele>
        <time>2020-03-11T10:35:53Z</time>
      </trkpt>
      <trkpt lat="46.69622" lon="-1.95138">
        <ele>7.5</ele>
        <time>2020-03-11T10:35:53Z</time>
      </trkpt>
      <trkpt lat="46.69647" lon="-1.95076">
        <ele>6.6</ele>
        <time>2020-03-11T10:35:53Z</time>
      </trkpt>
      <trkpt lat="46.69676" lon="-1.95004">
        <ele>5.1</ele>
        <time>2020-03-11T10:35:53Z</time>
      </trkpt>
      <trkpt lat="46.69692" lon="-1.94974">
        <ele>6.5</ele>
        <time>2020-03-11T10:35:53Z</time>
      </trkpt>
      <trkpt lat="46.6975" lon="-1.94903">
        <ele>5.5</ele>
        <time>2020-03-11T10:35:53Z</time>
      </trkpt>
      <trkpt lat="46.6977" lon="-1.94858">
        <ele>4.6</ele>
        <time>2020-03-11T10:35:53Z</time>
      </trkpt>
      <trkpt lat="46.6978" lon="-1.94827">
        <ele>5</ele>
        <time>2020-03-11T10:35:53Z</time>
      </trkpt>
      <trkpt lat="46.69794" lon="-1.94787">
        <ele>4.4</ele>
        <time>2020-03-11T10:35:53Z</time>
      </trkpt>
      <trkpt lat="46.69804" lon="-1.94758">
        <ele>5</ele>
        <time>2020-03-11T10:35:53Z</time>
      </trkpt>
      <trkpt lat="46.69811" lon="-1.94726">
        <ele>2.9</ele>
        <time>2020-03-11T10:35:53Z</time>
      </trkpt>
      <trkpt lat="46.69812" lon="-1.94689">
        <ele>4.4</ele>
        <time>2020-03-11T10:35:53Z</time>
      </trkpt>
      <trkpt lat="46.698" lon="-1.94638">
        <ele>5</ele>
        <time>2020-03-11T10:35:53Z</time>
      </trkpt>
      <trkpt lat="46.69787" lon="-1.94576">
        <ele>4.5</ele>
        <time>2020-03-11T10:35:53Z</time>
      </trkpt>
      <trkpt lat="46.69778" lon="-1.9454">
        <ele>5</ele>
        <time>2020-03-11T10:35:53Z</time>
      </trkpt>
      <trkpt lat="46.69767" lon="-1.94506">
        <ele>4.4</ele>
        <time>2020-03-11T10:35:53Z</time>
      </trkpt>
      <trkpt lat="46.69752" lon="-1.94462">
        <ele>5</ele>
        <time>2020-03-11T10:35:53Z</time>
      </trkpt>
      <trkpt lat="46.69744" lon="-1.94438">
        <ele>4.8</ele>
        <time>2020-03-11T10:35:53Z</time>
      </trkpt>
      <trkpt lat="46.69731" lon="-1.94399">
        <ele>4.8</ele>
        <time>2020-03-11T10:35:53Z</time>
      </trkpt>
      <trkpt lat="46.69702" lon="-1.94313">
        <ele>5</ele>
        <time>2020-03-11T10:35:53Z</time>
      </trkpt>
      <trkpt lat="46.69694" lon="-1.94282">
        <ele>4.1</ele>
        <time>2020-03-11T10:35:53Z</time>
      </trkpt>
      <trkpt lat="46.69672" lon="-1.94193">
        <ele>4.2</ele>
        <time>2020-03-11T10:35:53Z</time>
      </trkpt>
      <trkpt lat="46.69658" lon="-1.94132">
        <ele>4</ele>
        <time>2020-03-11T10:35:53Z</time>
      </trkpt>
      <trkpt lat="46.69647" lon="-1.94109">
        <ele>4</ele>
        <time>2020-03-11T10:35:53Z</time>
      </trkpt>
      <trkpt lat="46.69627" lon="-1.94114">
        <ele>4</ele>
        <time>2020-03-11T10:35:53Z</time>
      </trkpt>
      <trkpt lat="46.69609" lon="-1.9411">
        <ele>4</ele>
        <time>2020-03-11T10:35:53Z</time>
      </trkpt>
      <trkpt lat="46.69596" lon="-1.94078">
        <ele>4</ele>
        <time>2020-03-11T10:35:53Z</time>
      </trkpt>
      <trkpt lat="46.69587" lon="-1.94055">
        <ele>4</ele>
        <time>2020-03-11T10:35:53Z</time>
      </trkpt>
      <trkpt lat="46.69572" lon="-1.94016">
        <ele>4</ele>
        <time>2020-03-11T10:35:53Z</time>
      </trkpt>
      <trkpt lat="46.69556" lon="-1.93983">
        <ele>4</ele>
        <time>2020-03-11T10:35:53Z</time>
      </trkpt>
      <trkpt lat="46.69544" lon="-1.93954">
        <ele>4</ele>
        <time>2020-03-11T10:35:53Z</time>
      </trkpt>
      <trkpt lat="46.69532" lon="-1.93923">
        <ele>4.1</ele>
        <time>2020-03-11T10:35:53Z</time>
      </trkpt>
      <trkpt lat="46.69506" lon="-1.93867">
        <ele>4.3</ele>
        <time>2020-03-11T10:35:53Z</time>
      </trkpt>
      <trkpt lat="46.69473" lon="-1.938">
        <ele>4</ele>
        <time>2020-03-11T10:35:53Z</time>
      </trkpt>
      <trkpt lat="46.69453" lon="-1.93759">
        <ele>4</ele>
        <time>2020-03-11T10:35:53Z</time>
      </trkpt>
      <trkpt lat="46.69444" lon="-1.93731">
        <ele>4</ele>
        <time>2020-03-11T10:35:53Z</time>
      </trkpt>
      <trkpt lat="46.69434" lon="-1.93694">
        <ele>4</ele>
        <time>2020-03-11T10:35:53Z</time>
      </trkpt>
      <trkpt lat="46.69424" lon="-1.93651">
        <ele>4</ele>
        <time>2020-03-11T10:35:53Z</time>
      </trkpt>
      <trkpt lat="46.69424" lon="-1.93623">
        <ele>4</ele>
        <time>2020-03-11T10:35:53Z</time>
      </trkpt>
      <trkpt lat="46.69439" lon="-1.93598">
        <ele>3.7</ele>
        <time>2020-03-11T10:35:53Z</time>
      </trkpt>
      <trkpt lat="46.69464" lon="-1.9359">
        <ele>3.8</ele>
        <time>2020-03-11T10:35:53Z</time>
      </trkpt>
      <trkpt lat="46.69489" lon="-1.93582">
        <ele>4</ele>
        <time>2020-03-11T10:35:53Z</time>
      </trkpt>
      <trkpt lat="46.69508" lon="-1.93576">
        <ele>3.9</ele>
        <time>2020-03-11T10:35:53Z</time>
      </trkpt>
      <trkpt lat="46.69528" lon="-1.9358">
        <ele>3.9</ele>
        <time>2020-03-11T10:35:53Z</time>
      </trkpt>
      <trkpt lat="46.69554" lon="-1.93591">
        <ele>3.7</ele>
        <time>2020-03-11T10:35:53Z</time>
      </trkpt>
      <trkpt lat="46.69578" lon="-1.93593">
        <ele>3.9</ele>
        <time>2020-03-11T10:35:53Z</time>
      </trkpt>
      <trkpt lat="46.69603" lon="-1.93582">
        <ele>4</ele>
        <time>2020-03-11T10:35:53Z</time>
      </trkpt>
      <trkpt lat="46.69607" lon="-1.93555">
        <ele>4.2</ele>
        <time>2020-03-11T10:35:53Z</time>
      </trkpt>
      <trkpt lat="46.69622" lon="-1.93532">
        <ele>4.8</ele>
        <time>2020-03-11T10:35:53Z</time>
      </trkpt>
      <trkpt lat="46.6963" lon="-1.93503">
        <ele>5</ele>
        <time>2020-03-11T10:35:53Z</time>
      </trkpt>
      <trkpt lat="46.69632" lon="-1.93471">
        <ele>2.75</ele>
        <time>2020-03-11T10:35:53Z</time>
      </trkpt>
      <trkpt lat="46.69628" lon="-1.93442">
        <ele>2.8</ele>
        <time>2020-03-11T10:35:53Z</time>
      </trkpt>
      <trkpt lat="46.69614" lon="-1.93419">
        <ele>4.8</ele>
        <time>2020-03-11T10:35:53Z</time>
      </trkpt>
      <trkpt lat="46.69586" lon="-1.93414">
        <ele>4.1</ele>
        <time>2020-03-11T10:35:53Z</time>
      </trkpt>
      <trkpt lat="46.6955" lon="-1.934">
        <ele>2.8</ele>
        <time>2020-03-11T10:35:53Z</time>
      </trkpt>
      <trkpt lat="46.69531" lon="-1.93393">
        <ele>3.6</ele>
        <time>2020-03-11T10:35:53Z</time>
      </trkpt>
      <trkpt lat="46.69505" lon="-1.93378">
        <ele>4</ele>
        <time>2020-03-11T10:35:53Z</time>
      </trkpt>
      <trkpt lat="46.69468" lon="-1.93363">
        <ele>4</ele>
        <time>2020-03-11T10:35:53Z</time>
      </trkpt>
      <trkpt lat="46.69414" lon="-1.93342">
        <ele>4</ele>
        <time>2020-03-11T10:35:53Z</time>
      </trkpt>
      <trkpt lat="46.69396" lon="-1.93344">
        <ele>4</ele>
        <time>2020-03-11T10:35:53Z</time>
      </trkpt>
      <trkpt lat="46.69378" lon="-1.93345">
        <ele>4</ele>
        <time>2020-03-11T10:35:53Z</time>
      </trkpt>
      <trkpt lat="46.69279" lon="-1.93322">
        <ele>4</ele>
        <time>2020-03-11T10:35:53Z</time>
      </trkpt>
      <trkpt lat="46.69245" lon="-1.93317">
        <ele>4</ele>
        <time>2020-03-11T10:35:53Z</time>
      </trkpt>
      <trkpt lat="46.69225" lon="-1.93316">
        <ele>4</ele>
        <time>2020-03-11T10:35:53Z</time>
      </trkpt>
      <trkpt lat="46.692" lon="-1.93314">
        <ele>4.6</ele>
        <time>2020-03-11T10:35:53Z</time>
      </trkpt>
      <trkpt lat="46.69181" lon="-1.93319">
        <ele>3.8</ele>
        <time>2020-03-11T10:35:53Z</time>
      </trkpt>
      <trkpt lat="46.69162" lon="-1.93318">
        <ele>2.8</ele>
        <time>2020-03-11T10:35:53Z</time>
      </trkpt>
      <trkpt lat="46.69151" lon="-1.93288">
        <ele>3</ele>
        <time>2020-03-11T10:35:53Z</time>
      </trkpt>
      <trkpt lat="46.69103" lon="-1.932">
        <ele>2.9</ele>
        <time>2020-03-11T10:35:53Z</time>
      </trkpt>
      <trkpt lat="46.69089" lon="-1.93181">
        <ele>3</ele>
        <time>2020-03-11T10:35:53Z</time>
      </trkpt>
      <trkpt lat="46.69069" lon="-1.93166">
        <ele>3</ele>
        <time>2020-03-11T10:35:53Z</time>
      </trkpt>
      <trkpt lat="46.69047" lon="-1.93163">
        <ele>3</ele>
        <time>2020-03-11T10:35:53Z</time>
      </trkpt>
      <trkpt lat="46.68995" lon="-1.93163">
        <ele>3</ele>
        <time>2020-03-11T10:35:53Z</time>
      </trkpt>
      <trkpt lat="46.68958" lon="-1.93167">
        <ele>3</ele>
        <time>2020-03-11T10:35:53Z</time>
      </trkpt>
      <trkpt lat="46.68928" lon="-1.93174">
        <ele>2.6</ele>
        <time>2020-03-11T10:35:53Z</time>
      </trkpt>
      <trkpt lat="46.68907" lon="-1.93183">
        <ele>2.6</ele>
        <time>2020-03-11T10:35:53Z</time>
      </trkpt>
      <trkpt lat="46.68886" lon="-1.93197">
        <ele>2.8</ele>
        <time>2020-03-11T10:35:53Z</time>
      </trkpt>
      <trkpt lat="46.68839" lon="-1.93226">
        <ele>2.6</ele>
        <time>2020-03-11T10:35:53Z</time>
      </trkpt>
      <trkpt lat="46.68821" lon="-1.93239">
        <ele>2</ele>
        <time>2020-03-11T10:35:53Z</time>
      </trkpt>
      <trkpt lat="46.68789" lon="-1.93244">
        <ele>2.1</ele>
        <time>2020-03-11T10:35:53Z</time>
      </trkpt>
      <trkpt lat="46.68736" lon="-1.93229">
        <ele>3.3</ele>
        <time>2020-03-11T10:35:53Z</time>
      </trkpt>
      <trkpt lat="46.68704" lon="-1.93225">
        <ele>3.8</ele>
        <time>2020-03-11T10:35:53Z</time>
      </trkpt>
      <trkpt lat="46.68681" lon="-1.93219">
        <ele>2.7</ele>
        <time>2020-03-11T10:35:53Z</time>
      </trkpt>
      <trkpt lat="46.68648" lon="-1.932">
        <ele>3.5</ele>
        <time>2020-03-11T10:35:53Z</time>
      </trkpt>
      <trkpt lat="46.68631" lon="-1.9319">
        <ele>3.5</ele>
        <time>2020-03-11T10:35:53Z</time>
      </trkpt>
      <trkpt lat="46.6861" lon="-1.93171">
        <ele>3.6</ele>
        <time>2020-03-11T10:35:53Z</time>
      </trkpt>
      <trkpt lat="46.68579" lon="-1.93145">
        <ele>3.2</ele>
        <time>2020-03-11T10:35:53Z</time>
      </trkpt>
      <trkpt lat="46.68529" lon="-1.93097">
        <ele>3.1</ele>
        <time>2020-03-11T10:35:53Z</time>
      </trkpt>
      <trkpt lat="46.68495" lon="-1.93065">
        <ele>3.1</ele>
        <time>2020-03-11T10:35:53Z</time>
      </trkpt>
      <trkpt lat="46.68454" lon="-1.93026">
        <ele>3.7</ele>
        <time>2020-03-11T10:35:53Z</time>
      </trkpt>
      <trkpt lat="46.68439" lon="-1.93005">
        <ele>3.6</ele>
        <time>2020-03-11T10:35:53Z</time>
      </trkpt>
      <trkpt lat="46.68412" lon="-1.92961">
        <ele>4.2</ele>
        <time>2020-03-11T10:35:53Z</time>
      </trkpt>
      <trkpt lat="46.68398" lon="-1.92942">
        <ele>4.4</ele>
        <time>2020-03-11T10:35:53Z</time>
      </trkpt>
      <trkpt lat="46.6837" lon="-1.92906">
        <ele>4.6</ele>
        <time>2020-03-11T10:35:53Z</time>
      </trkpt>
      <trkpt lat="46.68344" lon="-1.9287">
        <ele>5.7</ele>
        <time>2020-03-11T10:35:53Z</time>
      </trkpt>
      <trkpt lat="46.68323" lon="-1.92839">
        <ele>5.9</ele>
        <time>2020-03-11T10:35:53Z</time>
      </trkpt>
      <trkpt lat="46.68308" lon="-1.92815">
        <ele>6</ele>
        <time>2020-03-11T10:35:53Z</time>
      </trkpt>
      <trkpt lat="46.68284" lon="-1.92771">
        <ele>6.1</ele>
        <time>2020-03-11T10:35:53Z</time>
      </trkpt>
      <trkpt lat="46.68269" lon="-1.92745">
        <ele>5.7</ele>
        <time>2020-03-11T10:35:53Z</time>
      </trkpt>
      <trkpt lat="46.68249" lon="-1.92721">
        <ele>5.9</ele>
        <time>2020-03-11T10:35:53Z</time>
      </trkpt>
      <trkpt lat="46.68224" lon="-1.92696">
        <ele>5.8</ele>
        <time>2020-03-11T10:35:53Z</time>
      </trkpt>
      <trkpt lat="46.68207" lon="-1.92675">
        <ele>4.6</ele>
        <time>2020-03-11T10:35:53Z</time>
      </trkpt>
      <trkpt lat="46.68181" lon="-1.92627">
        <ele>5.4</ele>
        <time>2020-03-11T10:35:53Z</time>
      </trkpt>
      <trkpt lat="46.68171" lon="-1.92603">
        <ele>6</ele>
        <time>2020-03-11T10:35:53Z</time>
      </trkpt>
      <trkpt lat="46.68127" lon="-1.92539">
        <ele>6.3</ele>
        <time>2020-03-11T10:35:53Z</time>
      </trkpt>
      <trkpt lat="46.68112" lon="-1.92517">
        <ele>6.4</ele>
        <time>2020-03-11T10:35:53Z</time>
      </trkpt>
      <trkpt lat="46.68076" lon="-1.92429">
        <ele>6.9</ele>
        <time>2020-03-11T10:35:53Z</time>
      </trkpt>
      <trkpt lat="46.68064" lon="-1.92399">
        <ele>6.3</ele>
        <time>2020-03-11T10:35:53Z</time>
      </trkpt>
      <trkpt lat="46.68052" lon="-1.92377">
        <ele>6</ele>
        <time>2020-03-11T10:35:53Z</time>
      </trkpt>
      <trkpt lat="46.68024" lon="-1.92344">
        <ele>5.4</ele>
        <time>2020-03-11T10:35:53Z</time>
      </trkpt>
      <trkpt lat="46.67984" lon="-1.92299">
        <ele>4.6</ele>
        <time>2020-03-11T10:35:53Z</time>
      </trkpt>
      <trkpt lat="46.67961" lon="-1.92272">
        <ele>4.5</ele>
        <time>2020-03-11T10:35:53Z</time>
      </trkpt>
      <trkpt lat="46.67931" lon="-1.92241">
        <ele>3.8</ele>
        <time>2020-03-11T10:35:53Z</time>
      </trkpt>
      <trkpt lat="46.67911" lon="-1.92228">
        <ele>4</ele>
        <time>2020-03-11T10:35:53Z</time>
      </trkpt>
      <trkpt lat="46.67882" lon="-1.92215">
        <ele>3.7</ele>
        <time>2020-03-11T10:35:53Z</time>
      </trkpt>
      <trkpt lat="46.67857" lon="-1.92195">
        <ele>2.7</ele>
        <time>2020-03-11T10:35:53Z</time>
      </trkpt>
      <trkpt lat="46.67847" lon="-1.92171">
        <ele>2</ele>
        <time>2020-03-11T10:35:53Z</time>
      </trkpt>
      <trkpt lat="46.67833" lon="-1.92128">
        <ele>2.4</ele>
        <time>2020-03-11T10:35:53Z</time>
      </trkpt>
      <trkpt lat="46.67824" lon="-1.92087">
        <ele>2.5</ele>
        <time>2020-03-11T10:35:53Z</time>
      </trkpt>
      <trkpt lat="46.67814" lon="-1.92056">
        <ele>1.6</ele>
        <time>2020-03-11T10:35:53Z</time>
      </trkpt>
      <trkpt lat="46.67803" lon="-1.92033">
        <ele>2.5</ele>
        <time>2020-03-11T10:35:53Z</time>
      </trkpt>
      <trkpt lat="46.6779" lon="-1.92013">
        <ele>2.2</ele>
        <time>2020-03-11T10:35:53Z</time>
      </trkpt>
      <trkpt lat="46.67762" lon="-1.91967">
        <ele>2.2</ele>
        <time>2020-03-11T10:35:53Z</time>
      </trkpt>
      <trkpt lat="46.6774" lon="-1.91929">
        <ele>2.8</ele>
        <time>2020-03-11T10:35:53Z</time>
      </trkpt>
      <trkpt lat="46.67706" lon="-1.91871">
        <ele>3</ele>
        <time>2020-03-11T10:35:53Z</time>
      </trkpt>
      <trkpt lat="46.67687" lon="-1.9184">
        <ele>3.1</ele>
        <time>2020-03-11T10:35:53Z</time>
      </trkpt>
      <trkpt lat="46.67674" lon="-1.91817">
        <ele>3.1</ele>
        <time>2020-03-11T10:35:53Z</time>
      </trkpt>
      <trkpt lat="46.67661" lon="-1.91793">
        <ele>3.6</ele>
        <time>2020-03-11T10:35:53Z</time>
      </trkpt>
      <trkpt lat="46.67629" lon="-1.91729">
        <ele>3.1</ele>
        <time>2020-03-11T10:35:53Z</time>
      </trkpt>
      <trkpt lat="46.676" lon="-1.91668">
        <ele>2.8</ele>
        <time>2020-03-11T10:35:53Z</time>
      </trkpt>
      <trkpt lat="46.67577" lon="-1.91615">
        <ele>3.3</ele>
        <time>2020-03-11T10:35:53Z</time>
      </trkpt>
      <trkpt lat="46.67549" lon="-1.91552">
        <ele>3.5</ele>
        <time>2020-03-11T10:35:53Z</time>
      </trkpt>
      <trkpt lat="46.67533" lon="-1.91515">
        <ele>3.1</ele>
        <time>2020-03-11T10:35:53Z</time>
      </trkpt>
      <trkpt lat="46.67507" lon="-1.91465">
        <ele>3.4</ele>
        <time>2020-03-11T10:35:53Z</time>
      </trkpt>
      <trkpt lat="46.67493" lon="-1.91441">
        <ele>3.4</ele>
        <time>2020-03-11T10:35:53Z</time>
      </trkpt>
      <trkpt lat="46.67485" lon="-1.91415">
        <ele>3.9</ele>
        <time>2020-03-11T10:35:53Z</time>
      </trkpt>
      <trkpt lat="46.67468" lon="-1.91399">
        <ele>3.5</ele>
        <time>2020-03-11T10:35:53Z</time>
      </trkpt>
      <trkpt lat="46.67396" lon="-1.91281">
        <ele>2.2</ele>
        <time>2020-03-11T10:35:53Z</time>
      </trkpt>
      <trkpt lat="46.67376" lon="-1.91239">
        <ele>1.5</ele>
        <time>2020-03-11T10:35:53Z</time>
      </trkpt>
      <trkpt lat="46.67363" lon="-1.912">
        <ele>1.8</ele>
        <time>2020-03-11T10:35:53Z</time>
      </trkpt>
      <trkpt lat="46.67355" lon="-1.91176">
        <ele>1.9</ele>
        <time>2020-03-11T10:35:53Z</time>
      </trkpt>
      <trkpt lat="46.67339" lon="-1.91136">
        <ele>1.3</ele>
        <time>2020-03-11T10:35:53Z</time>
      </trkpt>
      <trkpt lat="46.6732" lon="-1.91101">
        <ele>1.7</ele>
        <time>2020-03-11T10:35:53Z</time>
      </trkpt>
      <trkpt lat="46.67308" lon="-1.91076">
        <ele>2</ele>
        <time>2020-03-11T10:35:53Z</time>
      </trkpt>
      <trkpt lat="46.67292" lon="-1.91038">
        <ele>1.7</ele>
        <time>2020-03-11T10:35:53Z</time>
      </trkpt>
      <trkpt lat="46.67279" lon="-1.91013">
        <ele>1.6</ele>
        <time>2020-03-11T10:35:53Z</time>
      </trkpt>
      <trkpt lat="46.67267" lon="-1.90991">
        <ele>1.7</ele>
        <time>2020-03-11T10:35:53Z</time>
      </trkpt>
      <trkpt lat="46.67245" lon="-1.9096">
        <ele>2.3</ele>
        <time>2020-03-11T10:35:53Z</time>
      </trkpt>
      <trkpt lat="46.67211" lon="-1.90911">
        <ele>2.5</ele>
        <time>2020-03-11T10:35:53Z</time>
      </trkpt>
      <trkpt lat="46.67194" lon="-1.90886">
        <ele>3.1</ele>
        <time>2020-03-11T10:35:53Z</time>
      </trkpt>
      <trkpt lat="46.67181" lon="-1.90859">
        <ele>3.1</ele>
        <time>2020-03-11T10:35:53Z</time>
      </trkpt>
      <trkpt lat="46.67169" lon="-1.90837">
        <ele>3</ele>
        <time>2020-03-11T10:35:53Z</time>
      </trkpt>
      <trkpt lat="46.67152" lon="-1.9081">
        <ele>2.4</ele>
        <time>2020-03-11T10:35:53Z</time>
      </trkpt>
      <trkpt lat="46.67134" lon="-1.90823">
        <ele>1.9</ele>
        <time>2020-03-11T10:35:53Z</time>
      </trkpt>
      <trkpt lat="46.67112" lon="-1.90852">
        <ele>3</ele>
        <time>2020-03-11T10:35:53Z</time>
      </trkpt>
      <trkpt lat="46.67097" lon="-1.90867">
        <ele>3.2</ele>
        <time>2020-03-11T10:35:53Z</time>
      </trkpt>
      <trkpt lat="46.67077" lon="-1.90857">
        <ele>3.2</ele>
        <time>2020-03-11T10:35:53Z</time>
      </trkpt>
      <trkpt lat="46.6705" lon="-1.90845">
        <ele>3.5</ele>
        <time>2020-03-11T10:35:53Z</time>
      </trkpt>
      <trkpt lat="46.67026" lon="-1.90838">
        <ele>4</ele>
        <time>2020-03-11T10:35:53Z</time>
      </trkpt>
      <trkpt lat="46.66989" lon="-1.90827">
        <ele>3.8</ele>
        <time>2020-03-11T10:35:53Z</time>
      </trkpt>
      <trkpt lat="46.66959" lon="-1.90824">
        <ele>3.3</ele>
        <time>2020-03-11T10:35:53Z</time>
      </trkpt>
      <trkpt lat="46.66941" lon="-1.90828">
        <ele>3</ele>
        <time>2020-03-11T10:35:53Z</time>
      </trkpt>
      <trkpt lat="46.66919" lon="-1.90837">
        <ele>3.1</ele>
        <time>2020-03-11T10:35:53Z</time>
      </trkpt>
      <trkpt lat="46.66902" lon="-1.90847">
        <ele>3.2</ele>
        <time>2020-03-11T10:35:53Z</time>
      </trkpt>
      <trkpt lat="46.66855" lon="-1.90888">
        <ele>2.8</ele>
        <time>2020-03-11T10:35:53Z</time>
      </trkpt>
      <trkpt lat="46.6679" lon="-1.90939">
        <ele>2.9</ele>
        <time>2020-03-11T10:35:53Z</time>
      </trkpt>
      <trkpt lat="46.66766" lon="-1.90966">
        <ele>2.9</ele>
        <time>2020-03-11T10:35:53Z</time>
      </trkpt>
      <trkpt lat="46.66751" lon="-1.91003">
        <ele>3</ele>
        <time>2020-03-11T10:35:53Z</time>
      </trkpt>
      <trkpt lat="46.66749" lon="-1.91036">
        <ele>3.3</ele>
        <time>2020-03-11T10:35:53Z</time>
      </trkpt>
      <trkpt lat="46.66734" lon="-1.91064">
        <ele>3.7</ele>
        <time>2020-03-11T10:35:53Z</time>
      </trkpt>
      <trkpt lat="46.66712" lon="-1.91095">
        <ele>4.1</ele>
        <time>2020-03-11T10:35:53Z</time>
      </trkpt>
      <trkpt lat="46.66695" lon="-1.9111">
        <ele>4</ele>
        <time>2020-03-11T10:35:53Z</time>
      </trkpt>
      <trkpt lat="46.66673" lon="-1.9109">
        <ele>3.6</ele>
        <time>2020-03-11T10:35:53Z</time>
      </trkpt>
      <trkpt lat="46.66668" lon="-1.91059">
        <ele>3.9</ele>
        <time>2020-03-11T10:35:53Z</time>
      </trkpt>
      <trkpt lat="46.66667" lon="-1.91018">
        <ele>4</ele>
        <time>2020-03-11T10:35:53Z</time>
      </trkpt>
      <trkpt lat="46.66671" lon="-1.90979">
        <ele>4.3</ele>
        <time>2020-03-11T10:35:53Z</time>
      </trkpt>
      <trkpt lat="46.66678" lon="-1.90948">
        <ele>3.8</ele>
        <time>2020-03-11T10:35:53Z</time>
      </trkpt>
      <trkpt lat="46.66684" lon="-1.90923">
        <ele>3.7</ele>
        <time>2020-03-11T10:35:53Z</time>
      </trkpt>
      <trkpt lat="46.66696" lon="-1.90884">
        <ele>2.9</ele>
        <time>2020-03-11T10:35:53Z</time>
      </trkpt>
      <trkpt lat="46.66699" lon="-1.90855">
        <ele>2.8</ele>
        <time>2020-03-11T10:35:53Z</time>
      </trkpt>
      <trkpt lat="46.66698" lon="-1.90805">
        <ele>2.9</ele>
        <time>2020-03-11T10:35:53Z</time>
      </trkpt>
      <trkpt lat="46.66699" lon="-1.90757">
        <ele>2.8</ele>
        <time>2020-03-11T10:35:53Z</time>
      </trkpt>
      <trkpt lat="46.66693" lon="-1.90718">
        <ele>3.1</ele>
        <time>2020-03-11T10:35:53Z</time>
      </trkpt>
      <trkpt lat="46.66687" lon="-1.90688">
        <ele>3</ele>
        <time>2020-03-11T10:35:53Z</time>
      </trkpt>
      <trkpt lat="46.6668" lon="-1.90659">
        <ele>3.3</ele>
        <time>2020-03-11T10:35:53Z</time>
      </trkpt>
      <trkpt lat="46.66667" lon="-1.90627">
        <ele>3</ele>
        <time>2020-03-11T10:35:53Z</time>
      </trkpt>
      <trkpt lat="46.66631" lon="-1.90614">
        <ele>4.1</ele>
        <time>2020-03-11T10:35:53Z</time>
      </trkpt>
      <trkpt lat="46.66608" lon="-1.9061">
        <ele>4</ele>
        <time>2020-03-11T10:35:53Z</time>
      </trkpt>
      <trkpt lat="46.66585" lon="-1.90603">
        <ele>4</ele>
        <time>2020-03-11T10:35:53Z</time>
      </trkpt>
      <trkpt lat="46.66548" lon="-1.90606">
        <ele>3.5</ele>
        <time>2020-03-11T10:35:53Z</time>
      </trkpt>
      <trkpt lat="46.66506" lon="-1.90604">
        <ele>2.7</ele>
        <time>2020-03-11T10:35:53Z</time>
      </trkpt>
      <trkpt lat="46.66477" lon="-1.90592">
        <ele>3.1</ele>
        <time>2020-03-11T10:35:53Z</time>
      </trkpt>
      <trkpt lat="46.66456" lon="-1.90585">
        <ele>3.7</ele>
        <time>2020-03-11T10:35:53Z</time>
      </trkpt>
      <trkpt lat="46.66435" lon="-1.90592">
        <ele>4.3</ele>
        <time>2020-03-11T10:35:53Z</time>
      </trkpt>
      <trkpt lat="46.66413" lon="-1.90605">
        <ele>4.5</ele>
        <time>2020-03-11T10:35:53Z</time>
      </trkpt>
      <trkpt lat="46.66395" lon="-1.90608">
        <ele>4.1</ele>
        <time>2020-03-11T10:35:53Z</time>
      </trkpt>
      <trkpt lat="46.66381" lon="-1.90628">
        <ele>4.3</ele>
        <time>2020-03-11T10:35:53Z</time>
      </trkpt>
      <trkpt lat="46.66362" lon="-1.90637">
        <ele>4</ele>
        <time>2020-03-11T10:35:53Z</time>
      </trkpt>
      <trkpt lat="46.66334" lon="-1.90634">
        <ele>3.7</ele>
        <time>2020-03-11T10:35:53Z</time>
      </trkpt>
      <trkpt lat="46.66309" lon="-1.90626">
        <ele>3.5</ele>
        <time>2020-03-11T10:35:53Z</time>
      </trkpt>
      <trkpt lat="46.66285" lon="-1.90623">
        <ele>3.4</ele>
        <time>2020-03-11T10:35:53Z</time>
      </trkpt>
      <trkpt lat="46.66261" lon="-1.90622">
        <ele>3.8</ele>
        <time>2020-03-11T10:35:53Z</time>
      </trkpt>
      <trkpt lat="46.6624" lon="-1.90615">
        <ele>4</ele>
        <time>2020-03-11T10:35:53Z</time>
      </trkpt>
      <trkpt lat="46.66221" lon="-1.90606">
        <ele>3.8</ele>
        <time>2020-03-11T10:35:53Z</time>
      </trkpt>
      <trkpt lat="46.66197" lon="-1.90601">
        <ele>3.1</ele>
        <time>2020-03-11T10:35:53Z</time>
      </trkpt>
      <trkpt lat="46.66168" lon="-1.90601">
        <ele>3.6</ele>
        <time>2020-03-11T10:35:53Z</time>
      </trkpt>
      <trkpt lat="46.6615" lon="-1.90598">
        <ele>3.8</ele>
        <time>2020-03-11T10:35:53Z</time>
      </trkpt>
      <trkpt lat="46.66132" lon="-1.90582">
        <ele>4</ele>
        <time>2020-03-11T10:35:53Z</time>
      </trkpt>
      <trkpt lat="46.6612" lon="-1.90559">
        <ele>4</ele>
        <time>2020-03-11T10:35:53Z</time>
      </trkpt>
      <trkpt lat="46.66108" lon="-1.90511">
        <ele>3.6</ele>
        <time>2020-03-11T10:35:53Z</time>
      </trkpt>
      <trkpt lat="46.66097" lon="-1.90469">
        <ele>4.5</ele>
        <time>2020-03-11T10:35:53Z</time>
      </trkpt>
      <trkpt lat="46.66091" lon="-1.90443">
        <ele>4.7</ele>
        <time>2020-03-11T10:35:53Z</time>
      </trkpt>
      <trkpt lat="46.6609" lon="-1.90404">
        <ele>4</ele>
        <time>2020-03-11T10:35:53Z</time>
      </trkpt>
      <trkpt lat="46.66089" lon="-1.90373">
        <ele>4</ele>
        <time>2020-03-11T10:35:53Z</time>
      </trkpt>
      <trkpt lat="46.66083" lon="-1.90345">
        <ele>4.6</ele>
        <time>2020-03-11T10:35:53Z</time>
      </trkpt>
      <trkpt lat="46.66083" lon="-1.9031">
        <ele>5.8</ele>
        <time>2020-03-11T10:35:53Z</time>
      </trkpt>
      <trkpt lat="46.66085" lon="-1.90282">
        <ele>6.6</ele>
        <time>2020-03-11T10:35:53Z</time>
      </trkpt>
      <trkpt lat="46.66095" lon="-1.90248">
        <ele>5.4</ele>
        <time>2020-03-11T10:35:53Z</time>
      </trkpt>
      <trkpt lat="46.66105" lon="-1.90217">
        <ele>4.7</ele>
        <time>2020-03-11T10:35:53Z</time>
      </trkpt>
      <trkpt lat="46.66117" lon="-1.90192">
        <ele>3.9</ele>
        <time>2020-03-11T10:35:53Z</time>
      </trkpt>
      <trkpt lat="46.66122" lon="-1.90162">
        <ele>5.1</ele>
        <time>2020-03-11T10:35:53Z</time>
      </trkpt>
      <trkpt lat="46.66119" lon="-1.90125">
        <ele>4.4</ele>
        <time>2020-03-11T10:35:53Z</time>
      </trkpt>
      <trkpt lat="46.6611" lon="-1.90093">
        <ele>4</ele>
        <time>2020-03-11T10:35:53Z</time>
      </trkpt>
      <trkpt lat="46.66089" lon="-1.90065">
        <ele>4</ele>
        <time>2020-03-11T10:35:53Z</time>
      </trkpt>
      <trkpt lat="46.6608" lon="-1.90042">
        <ele>4.1</ele>
        <time>2020-03-11T10:35:53Z</time>
      </trkpt>
      <trkpt lat="46.66076" lon="-1.90015">
        <ele>4.3</ele>
        <time>2020-03-11T10:35:53Z</time>
      </trkpt>
      <trkpt lat="46.66061" lon="-1.89997">
        <ele>4.8</ele>
        <time>2020-03-11T10:35:53Z</time>
      </trkpt>
      <trkpt lat="46.66035" lon="-1.89984">
        <ele>5</ele>
        <time>2020-03-11T10:35:53Z</time>
      </trkpt>
      <trkpt lat="46.66015" lon="-1.89971">
        <ele>5</ele>
        <time>2020-03-11T10:35:53Z</time>
      </trkpt>
      <trkpt lat="46.65996" lon="-1.89953">
        <ele>5.2</ele>
        <time>2020-03-11T10:35:53Z</time>
      </trkpt>
      <trkpt lat="46.65974" lon="-1.89946">
        <ele>6.8</ele>
        <time>2020-03-11T10:35:53Z</time>
      </trkpt>
      <trkpt lat="46.65957" lon="-1.89929">
        <ele>5.7</ele>
        <time>2020-03-11T10:35:53Z</time>
      </trkpt>
      <trkpt lat="46.65941" lon="-1.89917">
        <ele>5.7</ele>
        <time>2020-03-11T10:35:53Z</time>
      </trkpt>
      <trkpt lat="46.65908" lon="-1.89904">
        <ele>4.5</ele>
        <time>2020-03-11T10:35:53Z</time>
      </trkpt>
      <trkpt lat="46.65883" lon="-1.89889">
        <ele>4.8</ele>
        <time>2020-03-11T10:35:53Z</time>
      </trkpt>
      <trkpt lat="46.65849" lon="-1.89864">
        <ele>4.5</ele>
        <time>2020-03-11T10:35:53Z</time>
      </trkpt>
      <trkpt lat="46.65793" lon="-1.89825">
        <ele>4.5</ele>
        <time>2020-03-11T10:35:53Z</time>
      </trkpt>
      <trkpt lat="46.65748" lon="-1.898">
        <ele>5.2</ele>
        <time>2020-03-11T10:35:53Z</time>
      </trkpt>
      <trkpt lat="46.65711" lon="-1.89774">
        <ele>5.1</ele>
        <time>2020-03-11T10:35:53Z</time>
      </trkpt>
      <trkpt lat="46.65675" lon="-1.89755">
        <ele>5</ele>
        <time>2020-03-11T10:35:53Z</time>
      </trkpt>
      <trkpt lat="46.65652" lon="-1.89735">
        <ele>5.5</ele>
        <time>2020-03-11T10:35:53Z</time>
      </trkpt>
      <trkpt lat="46.65611" lon="-1.89711">
        <ele>6</ele>
        <time>2020-03-11T10:35:53Z</time>
      </trkpt>
      <trkpt lat="46.65562" lon="-1.89685">
        <ele>6</ele>
        <time>2020-03-11T10:35:53Z</time>
      </trkpt>
      <trkpt lat="46.65544" lon="-1.89674">
        <ele>6</ele>
        <time>2020-03-11T10:35:53Z</time>
      </trkpt>
      <trkpt lat="46.65516" lon="-1.89652">
        <ele>6</ele>
        <time>2020-03-11T10:35:53Z</time>
      </trkpt>
      <trkpt lat="46.6549" lon="-1.89633">
        <ele>6</ele>
        <time>2020-03-11T10:35:53Z</time>
      </trkpt>
      <trkpt lat="46.65454" lon="-1.89607">
        <ele>6</ele>
        <time>2020-03-11T10:35:53Z</time>
      </trkpt>
      <trkpt lat="46.65426" lon="-1.89626">
        <ele>6.4</ele>
        <time>2020-03-11T10:35:53Z</time>
      </trkpt>
      <trkpt lat="46.65408" lon="-1.89648">
        <ele>7</ele>
        <time>2020-03-11T10:35:53Z</time>
      </trkpt>
      <trkpt lat="46.65395" lon="-1.89672">
        <ele>7</ele>
        <time>2020-03-11T10:35:53Z</time>
      </trkpt>
      <trkpt lat="46.65381" lon="-1.89698">
        <ele>7.1</ele>
        <time>2020-03-11T10:35:53Z</time>
      </trkpt>
      <trkpt lat="46.65367" lon="-1.89715">
        <ele>8.2</ele>
        <time>2020-03-11T10:35:53Z</time>
      </trkpt>
      <trkpt lat="46.65341" lon="-1.8974">
        <ele>8.9</ele>
        <time>2020-03-11T10:35:53Z</time>
      </trkpt>
      <trkpt lat="46.65321" lon="-1.89759">
        <ele>9.5</ele>
        <time>2020-03-11T10:35:53Z</time>
      </trkpt>
      <trkpt lat="46.65302" lon="-1.89767">
        <ele>9.5</ele>
        <time>2020-03-11T10:35:53Z</time>
      </trkpt>
      <trkpt lat="46.65285" lon="-1.89746">
        <ele>9</ele>
        <time>2020-03-11T10:35:53Z</time>
      </trkpt>
      <trkpt lat="46.65271" lon="-1.89728">
        <ele>9.2</ele>
        <time>2020-03-11T10:35:53Z</time>
      </trkpt>
      <trkpt lat="46.65251" lon="-1.89711">
        <ele>9.6</ele>
        <time>2020-03-11T10:35:53Z</time>
      </trkpt>
      <trkpt lat="46.65222" lon="-1.89705">
        <ele>9.4</ele>
        <time>2020-03-11T10:35:53Z</time>
      </trkpt>
      <trkpt lat="46.65201" lon="-1.89717">
        <ele>9.8</ele>
        <time>2020-03-11T10:35:53Z</time>
      </trkpt>
      <trkpt lat="46.65181" lon="-1.89737">
        <ele>10.3</ele>
        <time>2020-03-11T10:35:53Z</time>
      </trkpt>
      <trkpt lat="46.6516" lon="-1.89758">
        <ele>11.1</ele>
        <time>2020-03-11T10:35:53Z</time>
      </trkpt>
      <trkpt lat="46.65141" lon="-1.89764">
        <ele>11.5</ele>
        <time>2020-03-11T10:35:53Z</time>
      </trkpt>
      <trkpt lat="46.65122" lon="-1.89752">
        <ele>11.6</ele>
        <time>2020-03-11T10:35:53Z</time>
      </trkpt>
      <trkpt lat="46.65101" lon="-1.89734">
        <ele>12.2</ele>
        <time>2020-03-11T10:35:53Z</time>
      </trkpt>
      <trkpt lat="46.65087" lon="-1.8971">
        <ele>12.7</ele>
        <time>2020-03-11T10:35:53Z</time>
      </trkpt>
      <trkpt lat="46.65069" lon="-1.897">
        <ele>13.9</ele>
        <time>2020-03-11T10:35:53Z</time>
      </trkpt>
      <trkpt lat="46.65053" lon="-1.89667">
        <ele>14.2</ele>
        <time>2020-03-11T10:35:53Z</time>
      </trkpt>
      <trkpt lat="46.65041" lon="-1.89644">
        <ele>14.2</ele>
        <time>2020-03-11T10:35:53Z</time>
      </trkpt>
      <trkpt lat="46.65022" lon="-1.89622">
        <ele>14.3</ele>
        <time>2020-03-11T10:35:53Z</time>
      </trkpt>
      <trkpt lat="46.65009" lon="-1.89602">
        <ele>14.8</ele>
        <time>2020-03-11T10:35:53Z</time>
      </trkpt>
      <trkpt lat="46.64997" lon="-1.89569">
        <ele>14.6</ele>
        <time>2020-03-11T10:35:53Z</time>
      </trkpt>
      <trkpt lat="46.64976" lon="-1.89496">
        <ele>14.7</ele>
        <time>2020-03-11T10:35:53Z</time>
      </trkpt>
      <trkpt lat="46.64962" lon="-1.89458">
        <ele>14.7</ele>
        <time>2020-03-11T10:35:53Z</time>
      </trkpt>
      <trkpt lat="46.6495" lon="-1.89437">
        <ele>14.8</ele>
        <time>2020-03-11T10:35:53Z</time>
      </trkpt>
      <trkpt lat="46.64941" lon="-1.89407">
        <ele>15</ele>
        <time>2020-03-11T10:35:53Z</time>
      </trkpt>
      <trkpt lat="46.64922" lon="-1.89351">
        <ele>15.7</ele>
        <time>2020-03-11T10:35:53Z</time>
      </trkpt>
      <trkpt lat="46.64908" lon="-1.89316">
        <ele>16.1</ele>
        <time>2020-03-11T10:35:53Z</time>
      </trkpt>
      <trkpt lat="46.6488" lon="-1.89324">
        <ele>16.8</ele>
        <time>2020-03-11T10:35:53Z</time>
      </trkpt>
      <trkpt lat="46.64847" lon="-1.89341">
        <ele>16.7</ele>
        <time>2020-03-11T10:35:53Z</time>
      </trkpt>
      <trkpt lat="46.64825" lon="-1.89365">
        <ele>16.3</ele>
        <time>2020-03-11T10:35:53Z</time>
      </trkpt>
      <trkpt lat="46.64809" lon="-1.89382">
        <ele>17.5</ele>
        <time>2020-03-11T10:35:53Z</time>
      </trkpt>
      <trkpt lat="46.64801" lon="-1.89409">
        <ele>17.9</ele>
        <time>2020-03-11T10:35:53Z</time>
      </trkpt>
      <trkpt lat="46.64784" lon="-1.89422">
        <ele>17.3</ele>
        <time>2020-03-11T10:35:53Z</time>
      </trkpt>
      <trkpt lat="46.64776" lon="-1.89448">
        <ele>16.9</ele>
        <time>2020-03-11T10:35:53Z</time>
      </trkpt>
      <trkpt lat="46.64752" lon="-1.89449">
        <ele>16.2</ele>
        <time>2020-03-11T10:35:53Z</time>
      </trkpt>
      <trkpt lat="46.64717" lon="-1.8943">
        <ele>16.4</ele>
        <time>2020-03-11T10:35:53Z</time>
      </trkpt>
      <trkpt lat="46.64694" lon="-1.89427">
        <ele>18.2</ele>
        <time>2020-03-11T10:35:53Z</time>
      </trkpt>
      <trkpt lat="46.64671" lon="-1.89415">
        <ele>18.2</ele>
        <time>2020-03-11T10:35:53Z</time>
      </trkpt>
      <trkpt lat="46.64653" lon="-1.89405">
        <ele>18.3</ele>
        <time>2020-03-11T10:35:53Z</time>
      </trkpt>
      <trkpt lat="46.64633" lon="-1.89373">
        <ele>19</ele>
        <time>2020-03-11T10:35:53Z</time>
      </trkpt>
      <trkpt lat="46.64615" lon="-1.89358">
        <ele>17.4</ele>
        <time>2020-03-11T10:35:53Z</time>
      </trkpt>
      <trkpt lat="46.64585" lon="-1.8935">
        <ele>18.1</ele>
        <time>2020-03-11T10:35:53Z</time>
      </trkpt>
      <trkpt lat="46.64563" lon="-1.89339">
        <ele>17.8</ele>
        <time>2020-03-11T10:35:53Z</time>
      </trkpt>
      <trkpt lat="46.64541" lon="-1.89342">
        <ele>17.5</ele>
        <time>2020-03-11T10:35:53Z</time>
      </trkpt>
      <trkpt lat="46.6452" lon="-1.89357">
        <ele>16.7</ele>
        <time>2020-03-11T10:35:53Z</time>
      </trkpt>
      <trkpt lat="46.645" lon="-1.89381">
        <ele>16</ele>
        <time>2020-03-11T10:35:53Z</time>
      </trkpt>
      <trkpt lat="46.64478" lon="-1.89382">
        <ele>16</ele>
        <time>2020-03-11T10:35:53Z</time>
      </trkpt>
      <trkpt lat="46.64459" lon="-1.89386">
        <ele>16</ele>
        <time>2020-03-11T10:35:53Z</time>
      </trkpt>
      <trkpt lat="46.64437" lon="-1.89385">
        <ele>16</ele>
        <time>2020-03-11T10:35:53Z</time>
      </trkpt>
      <trkpt lat="46.6441" lon="-1.89355">
        <ele>15.8</ele>
        <time>2020-03-11T10:35:53Z</time>
      </trkpt>
      <trkpt lat="46.64379" lon="-1.89351">
        <ele>15.2</ele>
        <time>2020-03-11T10:35:53Z</time>
      </trkpt>
      <trkpt lat="46.64359" lon="-1.89343">
        <ele>15.3</ele>
        <time>2020-03-11T10:35:53Z</time>
      </trkpt>
      <trkpt lat="46.64338" lon="-1.89359">
        <ele>15.2</ele>
        <time>2020-03-11T10:35:53Z</time>
      </trkpt>
      <trkpt lat="46.64313" lon="-1.89365">
        <ele>15.7</ele>
        <time>2020-03-11T10:35:53Z</time>
      </trkpt>
      <trkpt lat="46.64296" lon="-1.89383">
        <ele>15.6</ele>
        <time>2020-03-11T10:35:53Z</time>
      </trkpt>
      <trkpt lat="46.64285" lon="-1.89416">
        <ele>16.5</ele>
        <time>2020-03-11T10:35:53Z</time>
      </trkpt>
      <trkpt lat="46.64278" lon="-1.89464">
        <ele>16</ele>
        <time>2020-03-11T10:35:53Z</time>
      </trkpt>
      <trkpt lat="46.64193" lon="-1.89449">
        <ele>14</ele>
        <time>2020-03-11T10:35:53Z</time>
      </trkpt>
      <trkpt lat="46.64168" lon="-1.89441">
        <ele>14</ele>
        <time>2020-03-11T10:35:53Z</time>
      </trkpt>
      <trkpt lat="46.64126" lon="-1.89427">
        <ele>13.5</ele>
        <time>2020-03-11T10:35:53Z</time>
      </trkpt>
      <trkpt lat="46.64095" lon="-1.89417">
        <ele>12.4</ele>
        <time>2020-03-11T10:35:53Z</time>
      </trkpt>
      <trkpt lat="46.64064" lon="-1.89416">
        <ele>11.3</ele>
        <time>2020-03-11T10:35:53Z</time>
      </trkpt>
      <trkpt lat="46.64031" lon="-1.89422">
        <ele>9.4</ele>
        <time>2020-03-11T10:35:53Z</time>
      </trkpt>
      <trkpt lat="46.64001" lon="-1.89428">
        <ele>8.1</ele>
        <time>2020-03-11T10:35:53Z</time>
      </trkpt>
      <trkpt lat="46.63978" lon="-1.89436">
        <ele>7.2</ele>
        <time>2020-03-11T10:35:53Z</time>
      </trkpt>
      <trkpt lat="46.63952" lon="-1.89444">
        <ele>7</ele>
        <time>2020-03-11T10:35:53Z</time>
      </trkpt>
      <trkpt lat="46.6393" lon="-1.89439">
        <ele>6.8</ele>
        <time>2020-03-11T10:35:53Z</time>
      </trkpt>
      <trkpt lat="46.6391" lon="-1.89427">
        <ele>7.1</ele>
        <time>2020-03-11T10:35:53Z</time>
      </trkpt>
      <trkpt lat="46.63865" lon="-1.89378">
        <ele>8.5</ele>
        <time>2020-03-11T10:35:53Z</time>
      </trkpt>
      <trkpt lat="46.63848" lon="-1.89353">
        <ele>7.8</ele>
        <time>2020-03-11T10:35:53Z</time>
      </trkpt>
      <trkpt lat="46.63809" lon="-1.89296">
        <ele>8</ele>
        <time>2020-03-11T10:35:53Z</time>
      </trkpt>
      <trkpt lat="46.63793" lon="-1.8926">
        <ele>8.2</ele>
        <time>2020-03-11T10:35:53Z</time>
      </trkpt>
      <trkpt lat="46.63776" lon="-1.89239">
        <ele>8.3</ele>
        <time>2020-03-11T10:35:53Z</time>
      </trkpt>
      <trkpt lat="46.63732" lon="-1.89208">
        <ele>8</ele>
        <time>2020-03-11T10:35:53Z</time>
      </trkpt>
      <trkpt lat="46.63697" lon="-1.89185">
        <ele>9.3</ele>
        <time>2020-03-11T10:35:53Z</time>
      </trkpt>
      <trkpt lat="46.63661" lon="-1.89158">
        <ele>10.1</ele>
        <time>2020-03-11T10:35:53Z</time>
      </trkpt>
      <trkpt lat="46.63581" lon="-1.89101">
        <ele>10.1</ele>
        <time>2020-03-11T10:35:53Z</time>
      </trkpt>
      <trkpt lat="46.63557" lon="-1.89082">
        <ele>9.1</ele>
        <time>2020-03-11T10:35:53Z</time>
      </trkpt>
      <trkpt lat="46.63538" lon="-1.89067">
        <ele>8.2</ele>
        <time>2020-03-11T10:35:53Z</time>
      </trkpt>
      <trkpt lat="46.63518" lon="-1.89034">
        <ele>7.9</ele>
        <time>2020-03-11T10:35:53Z</time>
      </trkpt>
      <trkpt lat="46.63492" lon="-1.8897">
        <ele>9</ele>
        <time>2020-03-11T10:35:53Z</time>
      </trkpt>
      <trkpt lat="46.63479" lon="-1.88944">
        <ele>9.5</ele>
        <time>2020-03-11T10:35:53Z</time>
      </trkpt>
      <trkpt lat="46.63465" lon="-1.88922">
        <ele>8.4</ele>
        <time>2020-03-11T10:35:53Z</time>
      </trkpt>
      <trkpt lat="46.63451" lon="-1.8889">
        <ele>9.3</ele>
        <time>2020-03-11T10:35:53Z</time>
      </trkpt>
      <trkpt lat="46.63444" lon="-1.88858">
        <ele>10.9</ele>
        <time>2020-03-11T10:35:53Z</time>
      </trkpt>
      <trkpt lat="46.63428" lon="-1.88821">
        <ele>8.4</ele>
        <time>2020-03-11T10:35:53Z</time>
      </trkpt>
      <trkpt lat="46.63401" lon="-1.88762">
        <ele>9</ele>
        <time>2020-03-11T10:35:53Z</time>
      </trkpt>
      <trkpt lat="46.63379" lon="-1.88737">
        <ele>9.5</ele>
        <time>2020-03-11T10:35:53Z</time>
      </trkpt>
      <trkpt lat="46.63335" lon="-1.88698">
        <ele>9.4</ele>
        <time>2020-03-11T10:35:53Z</time>
      </trkpt>
      <trkpt lat="46.63319" lon="-1.88683">
        <ele>8</ele>
        <time>2020-03-11T10:35:53Z</time>
      </trkpt>
      <trkpt lat="46.63304" lon="-1.88662">
        <ele>8.9</ele>
        <time>2020-03-11T10:35:53Z</time>
      </trkpt>
      <trkpt lat="46.63291" lon="-1.88636">
        <ele>8.4</ele>
        <time>2020-03-11T10:35:53Z</time>
      </trkpt>
      <trkpt lat="46.63277" lon="-1.88607">
        <ele>8</ele>
        <time>2020-03-11T10:35:53Z</time>
      </trkpt>
      <trkpt lat="46.63259" lon="-1.88574">
        <ele>7</ele>
        <time>2020-03-11T10:35:53Z</time>
      </trkpt>
      <trkpt lat="46.63246" lon="-1.88554">
        <ele>7.5</ele>
        <time>2020-03-11T10:35:53Z</time>
      </trkpt>
      <trkpt lat="46.6322" lon="-1.88528">
        <ele>8.4</ele>
        <time>2020-03-11T10:35:53Z</time>
      </trkpt>
      <trkpt lat="46.63209" lon="-1.88495">
        <ele>8.4</ele>
        <time>2020-03-11T10:35:53Z</time>
      </trkpt>
      <trkpt lat="46.63194" lon="-1.8847">
        <ele>9</ele>
        <time>2020-03-11T10:35:53Z</time>
      </trkpt>
      <trkpt lat="46.63175" lon="-1.88434">
        <ele>9</ele>
        <time>2020-03-11T10:35:53Z</time>
      </trkpt>
      <trkpt lat="46.63166" lon="-1.88395">
        <ele>9.6</ele>
        <time>2020-03-11T10:35:53Z</time>
      </trkpt>
      <trkpt lat="46.6317" lon="-1.88363">
        <ele>10.1</ele>
        <time>2020-03-11T10:35:53Z</time>
      </trkpt>
      <trkpt lat="46.6317" lon="-1.88327">
        <ele>9.8</ele>
        <time>2020-03-11T10:35:53Z</time>
      </trkpt>
      <trkpt lat="46.63166" lon="-1.88301">
        <ele>8.8</ele>
        <time>2020-03-11T10:35:53Z</time>
      </trkpt>
      <trkpt lat="46.63167" lon="-1.8827">
        <ele>9</ele>
        <time>2020-03-11T10:35:53Z</time>
      </trkpt>
      <trkpt lat="46.6316" lon="-1.88225">
        <ele>9.8</ele>
        <time>2020-03-11T10:35:53Z</time>
      </trkpt>
      <trkpt lat="46.63142" lon="-1.88216">
        <ele>10</ele>
        <time>2020-03-11T10:35:53Z</time>
      </trkpt>
      <trkpt lat="46.63137" lon="-1.88188">
        <ele>9.7</ele>
        <time>2020-03-11T10:35:53Z</time>
      </trkpt>
      <trkpt lat="46.63136" lon="-1.8816">
        <ele>9.3</ele>
        <time>2020-03-11T10:35:53Z</time>
      </trkpt>
      <trkpt lat="46.63126" lon="-1.88133">
        <ele>7.3</ele>
        <time>2020-03-11T10:35:53Z</time>
      </trkpt>
      <trkpt lat="46.63125" lon="-1.88105">
        <ele>9.9</ele>
        <time>2020-03-11T10:35:53Z</time>
      </trkpt>
      <trkpt lat="46.63114" lon="-1.88079">
        <ele>13.2</ele>
        <time>2020-03-11T10:35:53Z</time>
      </trkpt>
      <trkpt lat="46.63083" lon="-1.88039">
        <ele>14.5</ele>
        <time>2020-03-11T10:35:53Z</time>
      </trkpt>
      <trkpt lat="46.63063" lon="-1.88013">
        <ele>14.3</ele>
        <time>2020-03-11T10:35:53Z</time>
      </trkpt>
      <trkpt lat="46.63049" lon="-1.87987">
        <ele>13.2</ele>
        <time>2020-03-11T10:35:53Z</time>
      </trkpt>
      <trkpt lat="46.63036" lon="-1.87958">
        <ele>13.9</ele>
        <time>2020-03-11T10:35:53Z</time>
      </trkpt>
      <trkpt lat="46.63018" lon="-1.87895">
        <ele>14.2</ele>
        <time>2020-03-11T10:35:53Z</time>
      </trkpt>
      <trkpt lat="46.6301" lon="-1.87869">
        <ele>13.7</ele>
        <time>2020-03-11T10:35:53Z</time>
      </trkpt>
      <trkpt lat="46.63006" lon="-1.87834">
        <ele>13.4</ele>
        <time>2020-03-11T10:35:53Z</time>
      </trkpt>
      <trkpt lat="46.62996" lon="-1.87801">
        <ele>12.8</ele>
        <time>2020-03-11T10:35:53Z</time>
      </trkpt>
      <trkpt lat="46.62978" lon="-1.87761">
        <ele>13.2</ele>
        <time>2020-03-11T10:35:53Z</time>
      </trkpt>
      <trkpt lat="46.62966" lon="-1.87739">
        <ele>12.3</ele>
        <time>2020-03-11T10:35:53Z</time>
      </trkpt>
      <trkpt lat="46.62953" lon="-1.87718">
        <ele>11.7</ele>
        <time>2020-03-11T10:35:53Z</time>
      </trkpt>
      <trkpt lat="46.62935" lon="-1.87715">
        <ele>9.4</ele>
        <time>2020-03-11T10:35:53Z</time>
      </trkpt>
      <trkpt lat="46.62918" lon="-1.87698">
        <ele>10.2</ele>
        <time>2020-03-11T10:35:53Z</time>
      </trkpt>
      <trkpt lat="46.62904" lon="-1.87678">
        <ele>9.2</ele>
        <time>2020-03-11T10:35:53Z</time>
      </trkpt>
      <trkpt lat="46.62889" lon="-1.87654">
        <ele>10</ele>
        <time>2020-03-11T10:35:53Z</time>
      </trkpt>
      <trkpt lat="46.62882" lon="-1.87624">
        <ele>9.5</ele>
        <time>2020-03-11T10:35:53Z</time>
      </trkpt>
      <trkpt lat="46.62873" lon="-1.87565">
        <ele>9.6</ele>
        <time>2020-03-11T10:35:53Z</time>
      </trkpt>
      <trkpt lat="46.62859" lon="-1.87541">
        <ele>9</ele>
        <time>2020-03-11T10:35:53Z</time>
      </trkpt>
      <trkpt lat="46.62838" lon="-1.87511">
        <ele>9</ele>
        <time>2020-03-11T10:35:53Z</time>
      </trkpt>
      <trkpt lat="46.62817" lon="-1.87493">
        <ele>9.1</ele>
        <time>2020-03-11T10:35:53Z</time>
      </trkpt>
      <trkpt lat="46.62792" lon="-1.87479">
        <ele>9.9</ele>
        <time>2020-03-11T10:35:53Z</time>
      </trkpt>
      <trkpt lat="46.62757" lon="-1.87458">
        <ele>9.5</ele>
        <time>2020-03-11T10:35:53Z</time>
      </trkpt>
      <trkpt lat="46.62725" lon="-1.87439">
        <ele>9</ele>
        <time>2020-03-11T10:35:53Z</time>
      </trkpt>
      <trkpt lat="46.62708" lon="-1.87425">
        <ele>8.6</ele>
        <time>2020-03-11T10:35:53Z</time>
      </trkpt>
      <trkpt lat="46.62692" lon="-1.87402">
        <ele>7.8</ele>
        <time>2020-03-11T10:35:53Z</time>
      </trkpt>
      <trkpt lat="46.62671" lon="-1.87375">
        <ele>6.3</ele>
        <time>2020-03-11T10:35:53Z</time>
      </trkpt>
      <trkpt lat="46.62633" lon="-1.87363">
        <ele>5.2</ele>
        <time>2020-03-11T10:35:53Z</time>
      </trkpt>
      <trkpt lat="46.62612" lon="-1.87363">
        <ele>6</ele>
        <time>2020-03-11T10:35:53Z</time>
      </trkpt>
      <trkpt lat="46.62574" lon="-1.87376">
        <ele>6.9</ele>
        <time>2020-03-11T10:35:53Z</time>
      </trkpt>
      <trkpt lat="46.62549" lon="-1.87375">
        <ele>7.5</ele>
        <time>2020-03-11T10:35:53Z</time>
      </trkpt>
      <trkpt lat="46.62523" lon="-1.87369">
        <ele>7.4</ele>
        <time>2020-03-11T10:35:53Z</time>
      </trkpt>
      <trkpt lat="46.62502" lon="-1.87366">
        <ele>7.9</ele>
        <time>2020-03-11T10:35:53Z</time>
      </trkpt>
      <trkpt lat="46.62478" lon="-1.87368">
        <ele>8.2</ele>
        <time>2020-03-11T10:35:53Z</time>
      </trkpt>
      <trkpt lat="46.6245" lon="-1.8737">
        <ele>8.9</ele>
        <time>2020-03-11T10:35:53Z</time>
      </trkpt>
      <trkpt lat="46.62411" lon="-1.87361">
        <ele>9</ele>
        <time>2020-03-11T10:35:53Z</time>
      </trkpt>
      <trkpt lat="46.62387" lon="-1.87355">
        <ele>8.9</ele>
        <time>2020-03-11T10:35:53Z</time>
      </trkpt>
      <trkpt lat="46.6235" lon="-1.8734">
        <ele>8.7</ele>
        <time>2020-03-11T10:35:53Z</time>
      </trkpt>
      <trkpt lat="46.62308" lon="-1.87321">
        <ele>8.9</ele>
        <time>2020-03-11T10:35:53Z</time>
      </trkpt>
      <trkpt lat="46.62277" lon="-1.87304">
        <ele>9.1</ele>
        <time>2020-03-11T10:35:53Z</time>
      </trkpt>
      <trkpt lat="46.62248" lon="-1.87283">
        <ele>9</ele>
        <time>2020-03-11T10:35:53Z</time>
      </trkpt>
      <trkpt lat="46.6222" lon="-1.87262">
        <ele>9.4</ele>
        <time>2020-03-11T10:35:53Z</time>
      </trkpt>
      <trkpt lat="46.62192" lon="-1.87243">
        <ele>8.9</ele>
        <time>2020-03-11T10:35:53Z</time>
      </trkpt>
      <trkpt lat="46.62174" lon="-1.87234">
        <ele>8.3</ele>
        <time>2020-03-11T10:35:53Z</time>
      </trkpt>
      <trkpt lat="46.62143" lon="-1.87217">
        <ele>8.2</ele>
        <time>2020-03-11T10:35:53Z</time>
      </trkpt>
      <trkpt lat="46.62118" lon="-1.87216">
        <ele>8.1</ele>
        <time>2020-03-11T10:35:53Z</time>
      </trkpt>
      <trkpt lat="46.62091" lon="-1.87229">
        <ele>7.9</ele>
        <time>2020-03-11T10:35:53Z</time>
      </trkpt>
      <trkpt lat="46.62072" lon="-1.87242">
        <ele>8.3</ele>
        <time>2020-03-11T10:35:53Z</time>
      </trkpt>
      <trkpt lat="46.62054" lon="-1.87248">
        <ele>9</ele>
        <time>2020-03-11T10:35:53Z</time>
      </trkpt>
      <trkpt lat="46.62033" lon="-1.87244">
        <ele>9.6</ele>
        <time>2020-03-11T10:35:53Z</time>
      </trkpt>
      <trkpt lat="46.6201" lon="-1.87232">
        <ele>8.7</ele>
        <time>2020-03-11T10:35:53Z</time>
      </trkpt>
      <trkpt lat="46.61982" lon="-1.8722">
        <ele>9</ele>
        <time>2020-03-11T10:35:53Z</time>
      </trkpt>
      <trkpt lat="46.61955" lon="-1.87203">
        <ele>8.2</ele>
        <time>2020-03-11T10:35:53Z</time>
      </trkpt>
      <trkpt lat="46.61931" lon="-1.87188">
        <ele>8.4</ele>
        <time>2020-03-11T10:35:53Z</time>
      </trkpt>
      <trkpt lat="46.61912" lon="-1.87177">
        <ele>7.9</ele>
        <time>2020-03-11T10:35:53Z</time>
      </trkpt>
      <trkpt lat="46.61891" lon="-1.87168">
        <ele>8.7</ele>
        <time>2020-03-11T10:35:53Z</time>
      </trkpt>
      <trkpt lat="46.61867" lon="-1.87149">
        <ele>6.8</ele>
        <time>2020-03-11T10:35:53Z</time>
      </trkpt>
      <trkpt lat="46.61849" lon="-1.87116">
        <ele>7.3</ele>
        <time>2020-03-11T10:35:53Z</time>
      </trkpt>
      <trkpt lat="46.61833" lon="-1.87097">
        <ele>7.5</ele>
        <time>2020-03-11T10:35:53Z</time>
      </trkpt>
      <trkpt lat="46.61813" lon="-1.87099">
        <ele>6.2</ele>
        <time>2020-03-11T10:35:53Z</time>
      </trkpt>
      <trkpt lat="46.61763" lon="-1.87051">
        <ele>5.9</ele>
        <time>2020-03-11T10:35:53Z</time>
      </trkpt>
      <trkpt lat="46.61747" lon="-1.87035">
        <ele>6.9</ele>
        <time>2020-03-11T10:35:53Z</time>
      </trkpt>
      <trkpt lat="46.61738" lon="-1.87008">
        <ele>8.3</ele>
        <time>2020-03-11T10:35:53Z</time>
      </trkpt>
      <trkpt lat="46.61722" lon="-1.86992">
        <ele>9</ele>
        <time>2020-03-11T10:35:53Z</time>
      </trkpt>
      <trkpt lat="46.61704" lon="-1.86975">
        <ele>8</ele>
        <time>2020-03-11T10:35:53Z</time>
      </trkpt>
      <trkpt lat="46.61689" lon="-1.86955">
        <ele>7.6</ele>
        <time>2020-03-11T10:35:53Z</time>
      </trkpt>
      <trkpt lat="46.61677" lon="-1.86931">
        <ele>7.1</ele>
        <time>2020-03-11T10:35:53Z</time>
      </trkpt>
      <trkpt lat="46.61667" lon="-1.86902">
        <ele>8</ele>
        <time>2020-03-11T10:35:53Z</time>
      </trkpt>
      <trkpt lat="46.61654" lon="-1.86868">
        <ele>5.5</ele>
        <time>2020-03-11T10:35:53Z</time>
      </trkpt>
      <trkpt lat="46.61645" lon="-1.86827">
        <ele>6.6</ele>
        <time>2020-03-11T10:35:53Z</time>
      </trkpt>
      <trkpt lat="46.61639" lon="-1.86785">
        <ele>7</ele>
        <time>2020-03-11T10:35:53Z</time>
      </trkpt>
      <trkpt lat="46.6163" lon="-1.86739">
        <ele>5.5</ele>
        <time>2020-03-11T10:35:53Z</time>
      </trkpt>
      <trkpt lat="46.61624" lon="-1.86701">
        <ele>5.7</ele>
        <time>2020-03-11T10:35:53Z</time>
      </trkpt>
      <trkpt lat="46.61613" lon="-1.86672">
        <ele>5.9</ele>
        <time>2020-03-11T10:35:53Z</time>
      </trkpt>
      <trkpt lat="46.61609" lon="-1.86643">
        <ele>5.7</ele>
        <time>2020-03-11T10:35:53Z</time>
      </trkpt>
      <trkpt lat="46.61613" lon="-1.8661">
        <ele>6.1</ele>
        <time>2020-03-11T10:35:53Z</time>
      </trkpt>
      <trkpt lat="46.61615" lon="-1.86575">
        <ele>6.1</ele>
        <time>2020-03-11T10:35:53Z</time>
      </trkpt>
      <trkpt lat="46.61616" lon="-1.86546">
        <ele>6.5</ele>
        <time>2020-03-11T10:35:53Z</time>
      </trkpt>
      <trkpt lat="46.61605" lon="-1.86491">
        <ele>6.7</ele>
        <time>2020-03-11T10:35:53Z</time>
      </trkpt>
      <trkpt lat="46.61619" lon="-1.8647">
        <ele>8</ele>
        <time>2020-03-11T10:35:53Z</time>
      </trkpt>
      <trkpt lat="46.61606" lon="-1.86437">
        <ele>6.5</ele>
        <time>2020-03-11T10:35:53Z</time>
      </trkpt>
      <trkpt lat="46.61588" lon="-1.8639">
        <ele>6.3</ele>
        <time>2020-03-11T10:35:53Z</time>
      </trkpt>
      <trkpt lat="46.61627" lon="-1.86351">
        <ele>8.7</ele>
        <time>2020-03-11T10:35:53Z</time>
      </trkpt>
      <trkpt lat="46.61622" lon="-1.86293">
        <ele>9.5</ele>
        <time>2020-03-11T10:35:53Z</time>
      </trkpt>
      <trkpt lat="46.6161" lon="-1.86272">
        <ele>10.1</ele>
        <time>2020-03-11T10:35:53Z</time>
      </trkpt>
      <trkpt lat="46.61609" lon="-1.86233">
        <ele>10.1</ele>
        <time>2020-03-11T10:35:53Z</time>
      </trkpt>
      <trkpt lat="46.61598" lon="-1.86201">
        <ele>10.1</ele>
        <time>2020-03-11T10:35:53Z</time>
      </trkpt>
      <trkpt lat="46.6158" lon="-1.8619">
        <ele>9.9</ele>
        <time>2020-03-11T10:35:53Z</time>
      </trkpt>
      <trkpt lat="46.61558" lon="-1.86201">
        <ele>10</ele>
        <time>2020-03-11T10:35:53Z</time>
      </trkpt>
      <trkpt lat="46.61541" lon="-1.86183">
        <ele>10.6</ele>
        <time>2020-03-11T10:35:53Z</time>
      </trkpt>
      <trkpt lat="46.6153" lon="-1.86161">
        <ele>10.2</ele>
        <time>2020-03-11T10:35:53Z</time>
      </trkpt>
      <trkpt lat="46.61507" lon="-1.86164">
        <ele>10.7</ele>
        <time>2020-03-11T10:35:53Z</time>
      </trkpt>
      <trkpt lat="46.6149" lon="-1.86175">
        <ele>11.6</ele>
        <time>2020-03-11T10:35:53Z</time>
      </trkpt>
      <trkpt lat="46.61472" lon="-1.86142">
        <ele>11.1</ele>
        <time>2020-03-11T10:35:53Z</time>
      </trkpt>
      <trkpt lat="46.61461" lon="-1.86095">
        <ele>8.1</ele>
        <time>2020-03-11T10:35:53Z</time>
      </trkpt>
      <trkpt lat="46.61452" lon="-1.86065">
        <ele>7.6</ele>
        <time>2020-03-11T10:35:53Z</time>
      </trkpt>
      <trkpt lat="46.61447" lon="-1.86011">
        <ele>7.9</ele>
        <time>2020-03-11T10:35:53Z</time>
      </trkpt>
      <trkpt lat="46.6144" lon="-1.85968">
        <ele>7.3</ele>
        <time>2020-03-11T10:35:53Z</time>
      </trkpt>
      <trkpt lat="46.61437" lon="-1.8594">
        <ele>8</ele>
        <time>2020-03-11T10:35:53Z</time>
      </trkpt>
      <trkpt lat="46.61432" lon="-1.85892">
        <ele>8.9</ele>
        <time>2020-03-11T10:35:53Z</time>
      </trkpt>
      <trkpt lat="46.61429" lon="-1.85856">
        <ele>9.2</ele>
        <time>2020-03-11T10:35:53Z</time>
      </trkpt>
      <trkpt lat="46.61414" lon="-1.85886">
        <ele>9</ele>
        <time>2020-03-11T10:35:53Z</time>
      </trkpt>
      <trkpt lat="46.61404" lon="-1.85912">
        <ele>8.5</ele>
        <time>2020-03-11T10:35:53Z</time>
      </trkpt>
      <trkpt lat="46.61389" lon="-1.85949">
        <ele>9</ele>
        <time>2020-03-11T10:35:53Z</time>
      </trkpt>
      <trkpt lat="46.61365" lon="-1.8601">
        <ele>7.1</ele>
        <time>2020-03-11T10:35:53Z</time>
      </trkpt>
      <trkpt lat="46.61339" lon="-1.86062">
        <ele>7</ele>
        <time>2020-03-11T10:35:53Z</time>
      </trkpt>
      <trkpt lat="46.61306" lon="-1.86061">
        <ele>6.6</ele>
        <time>2020-03-11T10:35:53Z</time>
      </trkpt>
      <trkpt lat="46.61291" lon="-1.86035">
        <ele>7.5</ele>
        <time>2020-03-11T10:35:53Z</time>
      </trkpt>
      <trkpt lat="46.61269" lon="-1.85994">
        <ele>9.5</ele>
        <time>2020-03-11T10:35:53Z</time>
      </trkpt>
      <trkpt lat="46.61258" lon="-1.85956">
        <ele>10.5</ele>
        <time>2020-03-11T10:35:53Z</time>
      </trkpt>
      <trkpt lat="46.61248" lon="-1.85917">
        <ele>11</ele>
        <time>2020-03-11T10:35:53Z</time>
      </trkpt>
      <trkpt lat="46.61246" lon="-1.85882">
        <ele>10.2</ele>
        <time>2020-03-11T10:35:53Z</time>
      </trkpt>
      <trkpt lat="46.61237" lon="-1.85856">
        <ele>10.2</ele>
        <time>2020-03-11T10:35:53Z</time>
      </trkpt>
      <trkpt lat="46.61225" lon="-1.85826">
        <ele>9.9</ele>
        <time>2020-03-11T10:35:53Z</time>
      </trkpt>
      <trkpt lat="46.61222" lon="-1.85794">
        <ele>10.4</ele>
        <time>2020-03-11T10:35:53Z</time>
      </trkpt>
      <trkpt lat="46.61215" lon="-1.85757">
        <ele>11.9</ele>
        <time>2020-03-11T10:35:53Z</time>
      </trkpt>
      <trkpt lat="46.61209" lon="-1.85718">
        <ele>12.6</ele>
        <time>2020-03-11T10:35:53Z</time>
      </trkpt>
      <trkpt lat="46.61199" lon="-1.85686">
        <ele>12.1</ele>
        <time>2020-03-11T10:35:53Z</time>
      </trkpt>
      <trkpt lat="46.61187" lon="-1.85659">
        <ele>12</ele>
        <time>2020-03-11T10:35:53Z</time>
      </trkpt>
      <trkpt lat="46.6118" lon="-1.85603">
        <ele>12.3</ele>
        <time>2020-03-11T10:35:53Z</time>
      </trkpt>
      <trkpt lat="46.61173" lon="-1.85562">
        <ele>13</ele>
        <time>2020-03-11T10:35:53Z</time>
      </trkpt>
      <trkpt lat="46.61153" lon="-1.85546">
        <ele>13</ele>
        <time>2020-03-11T10:35:53Z</time>
      </trkpt>
      <trkpt lat="46.61135" lon="-1.8553">
        <ele>12.1</ele>
        <time>2020-03-11T10:35:53Z</time>
      </trkpt>
      <trkpt lat="46.61123" lon="-1.85501">
        <ele>12.4</ele>
        <time>2020-03-11T10:35:53Z</time>
      </trkpt>
      <trkpt lat="46.61103" lon="-1.85494">
        <ele>12.4</ele>
        <time>2020-03-11T10:35:53Z</time>
      </trkpt>
      <trkpt lat="46.61089" lon="-1.85465">
        <ele>12.9</ele>
        <time>2020-03-11T10:35:53Z</time>
      </trkpt>
      <trkpt lat="46.61055" lon="-1.85448">
        <ele>12.1</ele>
        <time>2020-03-11T10:35:53Z</time>
      </trkpt>
      <trkpt lat="46.61015" lon="-1.8543">
        <ele>12.3</ele>
        <time>2020-03-11T10:35:53Z</time>
      </trkpt>
      <trkpt lat="46.60973" lon="-1.85406">
        <ele>12</ele>
        <time>2020-03-11T10:35:53Z</time>
      </trkpt>
      <trkpt lat="46.60919" lon="-1.85382">
        <ele>11.8</ele>
        <time>2020-03-11T10:35:53Z</time>
      </trkpt>
      <trkpt lat="46.60895" lon="-1.85368">
        <ele>11.1</ele>
        <time>2020-03-11T10:35:53Z</time>
      </trkpt>
      <trkpt lat="46.60843" lon="-1.85322">
        <ele>11.6</ele>
        <time>2020-03-11T10:35:53Z</time>
      </trkpt>
      <trkpt lat="46.60784" lon="-1.8527">
        <ele>11</ele>
        <time>2020-03-11T10:35:53Z</time>
      </trkpt>
      <trkpt lat="46.60769" lon="-1.85255">
        <ele>11</ele>
        <time>2020-03-11T10:35:53Z</time>
      </trkpt>
      <trkpt lat="46.60736" lon="-1.85237">
        <ele>10.8</ele>
        <time>2020-03-11T10:35:53Z</time>
      </trkpt>
      <trkpt lat="46.60673" lon="-1.85208">
        <ele>9.7</ele>
        <time>2020-03-11T10:35:53Z</time>
      </trkpt>
      <trkpt lat="46.60643" lon="-1.85194">
        <ele>10</ele>
        <time>2020-03-11T10:35:53Z</time>
      </trkpt>
      <trkpt lat="46.60612" lon="-1.85179">
        <ele>7.7</ele>
        <time>2020-03-11T10:35:53Z</time>
      </trkpt>
      <trkpt lat="46.60532" lon="-1.85141">
        <ele>9.1</ele>
        <time>2020-03-11T10:35:53Z</time>
      </trkpt>
      <trkpt lat="46.60503" lon="-1.85128">
        <ele>9</ele>
        <time>2020-03-11T10:35:53Z</time>
      </trkpt>
      <trkpt lat="46.60433" lon="-1.85095">
        <ele>10.8</ele>
        <time>2020-03-11T10:35:53Z</time>
      </trkpt>
      <trkpt lat="46.60338" lon="-1.8505">
        <ele>7.1</ele>
        <time>2020-03-11T10:35:53Z</time>
      </trkpt>
      <trkpt lat="46.60276" lon="-1.85021">
        <ele>6.9</ele>
        <time>2020-03-11T10:35:53Z</time>
      </trkpt>
      <trkpt lat="46.6027" lon="-1.8499">
        <ele>6</ele>
        <time>2020-03-11T10:35:53Z</time>
      </trkpt>
      <trkpt lat="46.60274" lon="-1.84956">
        <ele>6</ele>
        <time>2020-03-11T10:35:53Z</time>
      </trkpt>
      <trkpt lat="46.60283" lon="-1.84912">
        <ele>6</ele>
        <time>2020-03-11T10:35:53Z</time>
      </trkpt>
      <trkpt lat="46.60311" lon="-1.84715">
        <ele>5</ele>
        <time>2020-03-11T10:35:53Z</time>
      </trkpt>
      <trkpt lat="46.60332" lon="-1.84691">
        <ele>5</ele>
        <time>2020-03-11T10:35:53Z</time>
      </trkpt>
      <trkpt lat="46.60354" lon="-1.8457">
        <ele>4</ele>
        <time>2020-03-11T10:35:53Z</time>
      </trkpt>
      <trkpt lat="46.60354" lon="-1.84501">
        <ele>3</ele>
        <time>2020-03-11T10:35:53Z</time>
      </trkpt>
      <trkpt lat="46.60351" lon="-1.84474">
        <ele>3</ele>
        <time>2020-03-11T10:35:53Z</time>
      </trkpt>
      <trkpt lat="46.60278" lon="-1.84485">
        <ele>3.5</ele>
        <time>2020-03-11T10:35:53Z</time>
      </trkpt>
      <trkpt lat="46.60259" lon="-1.84486">
        <ele>4.2</ele>
        <time>2020-03-11T10:35:53Z</time>
      </trkpt>
      <trkpt lat="46.60207" lon="-1.84472">
        <ele>6.5</ele>
        <time>2020-03-11T10:35:53Z</time>
      </trkpt>
      <trkpt lat="46.60141" lon="-1.84453">
        <ele>7.9</ele>
        <time>2020-03-11T10:35:53Z</time>
      </trkpt>
      <trkpt lat="46.60108" lon="-1.84444">
        <ele>9</ele>
        <time>2020-03-11T10:35:53Z</time>
      </trkpt>
      <trkpt lat="46.59948" lon="-1.8443">
        <ele>4.6</ele>
        <time>2020-03-11T10:35:53Z</time>
      </trkpt>
      <trkpt lat="46.5993" lon="-1.84433">
        <ele>4.2</ele>
        <time>2020-03-11T10:35:53Z</time>
      </trkpt>
      <trkpt lat="46.59909" lon="-1.84447">
        <ele>3.7</ele>
        <time>2020-03-11T10:35:53Z</time>
      </trkpt>
      <trkpt lat="46.59889" lon="-1.84468">
        <ele>3</ele>
        <time>2020-03-11T10:35:53Z</time>
      </trkpt>
      <trkpt lat="46.59869" lon="-1.84473">
        <ele>3</ele>
        <time>2020-03-11T10:35:53Z</time>
      </trkpt>
      <trkpt lat="46.59851" lon="-1.84468">
        <ele>3</ele>
        <time>2020-03-11T10:35:53Z</time>
      </trkpt>
      <trkpt lat="46.5983" lon="-1.84457">
        <ele>3</ele>
        <time>2020-03-11T10:35:53Z</time>
      </trkpt>
      <trkpt lat="46.59816" lon="-1.84439">
        <ele>3</ele>
        <time>2020-03-11T10:35:53Z</time>
      </trkpt>
      <trkpt lat="46.59788" lon="-1.84359">
        <ele>3</ele>
        <time>2020-03-11T10:35:53Z</time>
      </trkpt>
      <trkpt lat="46.59761" lon="-1.84286">
        <ele>3</ele>
        <time>2020-03-11T10:35:53Z</time>
      </trkpt>
      <trkpt lat="46.59747" lon="-1.84251">
        <ele>2.9</ele>
        <time>2020-03-11T10:35:53Z</time>
      </trkpt>
      <trkpt lat="46.59703" lon="-1.84168">
        <ele>2.3</ele>
        <time>2020-03-11T10:35:53Z</time>
      </trkpt>
      <trkpt lat="46.59685" lon="-1.84128">
        <ele>3</ele>
        <time>2020-03-11T10:35:53Z</time>
      </trkpt>
      <trkpt lat="46.59658" lon="-1.84065">
        <ele>2.9</ele>
        <time>2020-03-11T10:35:53Z</time>
      </trkpt>
      <trkpt lat="46.59649" lon="-1.8404">
        <ele>2.6</ele>
        <time>2020-03-11T10:35:53Z</time>
      </trkpt>
      <trkpt lat="46.59641" lon="-1.84016">
        <ele>2.1</ele>
        <time>2020-03-11T10:35:53Z</time>
      </trkpt>
      <trkpt lat="46.59635" lon="-1.83966">
        <ele>2.9</ele>
        <time>2020-03-11T10:35:53Z</time>
      </trkpt>
      <trkpt lat="46.5963" lon="-1.83931">
        <ele>2.8</ele>
        <time>2020-03-11T10:35:53Z</time>
      </trkpt>
      <trkpt lat="46.5957" lon="-1.83816">
        <ele>2.7</ele>
        <time>2020-03-11T10:35:53Z</time>
      </trkpt>
      <trkpt lat="46.5956" lon="-1.8377">
        <ele>2.8</ele>
        <time>2020-03-11T10:35:53Z</time>
      </trkpt>
      <trkpt lat="46.59554" lon="-1.83702">
        <ele>3</ele>
        <time>2020-03-11T10:35:53Z</time>
      </trkpt>
      <trkpt lat="46.59557" lon="-1.83655">
        <ele>3</ele>
        <time>2020-03-11T10:35:53Z</time>
      </trkpt>
      <trkpt lat="46.59563" lon="-1.83623">
        <ele>3</ele>
        <time>2020-03-11T10:35:53Z</time>
      </trkpt>
      <trkpt lat="46.59564" lon="-1.83581">
        <ele>3</ele>
        <time>2020-03-11T10:35:53Z</time>
      </trkpt>
      <trkpt lat="46.59555" lon="-1.83423">
        <ele>3</ele>
        <time>2020-03-11T10:35:53Z</time>
      </trkpt>
      <trkpt lat="46.59564" lon="-1.834">
        <ele>2.9</ele>
        <time>2020-03-11T10:35:53Z</time>
      </trkpt>
      <trkpt lat="46.59568" lon="-1.83373">
        <ele>3</ele>
        <time>2020-03-11T10:35:53Z</time>
      </trkpt>
      <trkpt lat="46.59568" lon="-1.83322">
        <ele>3.2</ele>
        <time>2020-03-11T10:35:53Z</time>
      </trkpt>
      <trkpt lat="46.59552" lon="-1.83307">
        <ele>3</ele>
        <time>2020-03-11T10:35:53Z</time>
      </trkpt>
      <trkpt lat="46.59516" lon="-1.8333">
        <ele>3.4</ele>
        <time>2020-03-11T10:35:53Z</time>
      </trkpt>
      <trkpt lat="46.59498" lon="-1.83342">
        <ele>3.5</ele>
        <time>2020-03-11T10:35:53Z</time>
      </trkpt>
      <trkpt lat="46.59445" lon="-1.83377">
        <ele>2</ele>
        <time>2020-03-11T10:35:53Z</time>
      </trkpt>
      <trkpt lat="46.59417" lon="-1.8338">
        <ele>2.7</ele>
        <time>2020-03-11T10:35:53Z</time>
      </trkpt>
      <trkpt lat="46.5938" lon="-1.83361">
        <ele>3.4</ele>
        <time>2020-03-11T10:35:53Z</time>
      </trkpt>
      <trkpt lat="46.59352" lon="-1.83348">
        <ele>2.6</ele>
        <time>2020-03-11T10:35:53Z</time>
      </trkpt>
      <trkpt lat="46.59322" lon="-1.83336">
        <ele>3</ele>
        <time>2020-03-11T10:35:53Z</time>
      </trkpt>
      <trkpt lat="46.59296" lon="-1.8333">
        <ele>3</ele>
        <time>2020-03-11T10:35:53Z</time>
      </trkpt>
      <trkpt lat="46.59278" lon="-1.83345">
        <ele>3</ele>
        <time>2020-03-11T10:35:53Z</time>
      </trkpt>
      <trkpt lat="46.59278" lon="-1.83413">
        <ele>3</ele>
        <time>2020-03-11T10:35:53Z</time>
      </trkpt>
      <trkpt lat="46.59262" lon="-1.83471">
        <ele>3</ele>
        <time>2020-03-11T10:35:53Z</time>
      </trkpt>
      <trkpt lat="46.59252" lon="-1.83501">
        <ele>3.1</ele>
        <time>2020-03-11T10:35:53Z</time>
      </trkpt>
      <trkpt lat="46.59237" lon="-1.83518">
        <ele>3</ele>
        <time>2020-03-11T10:35:53Z</time>
      </trkpt>
      <trkpt lat="46.59208" lon="-1.83524">
        <ele>3</ele>
        <time>2020-03-11T10:35:53Z</time>
      </trkpt>
      <trkpt lat="46.59183" lon="-1.83531">
        <ele>2.9</ele>
        <time>2020-03-11T10:35:53Z</time>
      </trkpt>
      <trkpt lat="46.5915" lon="-1.83567">
        <ele>2.8</ele>
        <time>2020-03-11T10:35:53Z</time>
      </trkpt>
      <trkpt lat="46.59125" lon="-1.83602">
        <ele>3</ele>
        <time>2020-03-11T10:35:53Z</time>
      </trkpt>
      <trkpt lat="46.59077" lon="-1.83692">
        <ele>3</ele>
        <time>2020-03-11T10:35:53Z</time>
      </trkpt>
      <trkpt lat="46.59057" lon="-1.83728">
        <ele>3</ele>
        <time>2020-03-11T10:35:53Z</time>
      </trkpt>
      <trkpt lat="46.59041" lon="-1.83751">
        <ele>3</ele>
        <time>2020-03-11T10:35:53Z</time>
      </trkpt>
      <trkpt lat="46.59021" lon="-1.83766">
        <ele>3</ele>
        <time>2020-03-11T10:35:53Z</time>
      </trkpt>
      <trkpt lat="46.58968" lon="-1.83776">
        <ele>3</ele>
        <time>2020-03-11T10:35:53Z</time>
      </trkpt>
      <trkpt lat="46.58934" lon="-1.8379">
        <ele>3</ele>
        <time>2020-03-11T10:35:53Z</time>
      </trkpt>
      <trkpt lat="46.58855" lon="-1.83825">
        <ele>3</ele>
        <time>2020-03-11T10:35:53Z</time>
      </trkpt>
      <trkpt lat="46.58776" lon="-1.83852">
        <ele>3</ele>
        <time>2020-03-11T10:35:53Z</time>
      </trkpt>
      <trkpt lat="46.58666" lon="-1.83893">
        <ele>3</ele>
        <time>2020-03-11T10:35:53Z</time>
      </trkpt>
      <trkpt lat="46.58648" lon="-1.83903">
        <ele>3.7</ele>
        <time>2020-03-11T10:35:53Z</time>
      </trkpt>
      <trkpt lat="46.5863" lon="-1.8392">
        <ele>4.5</ele>
        <time>2020-03-11T10:35:53Z</time>
      </trkpt>
      <trkpt lat="46.58556" lon="-1.83968">
        <ele>5</ele>
        <time>2020-03-11T10:35:53Z</time>
      </trkpt>
      <trkpt lat="46.58506" lon="-1.83941">
        <ele>5.2</ele>
        <time>2020-03-11T10:35:53Z</time>
      </trkpt>
      <trkpt lat="46.58449" lon="-1.83899">
        <ele>5.2</ele>
        <time>2020-03-11T10:35:53Z</time>
      </trkpt>
      <trkpt lat="46.58384" lon="-1.83826">
        <ele>5.6</ele>
        <time>2020-03-11T10:35:53Z</time>
      </trkpt>
      <trkpt lat="46.58367" lon="-1.83765">
        <ele>6.5</ele>
        <time>2020-03-11T10:35:53Z</time>
      </trkpt>
      <trkpt lat="46.58341" lon="-1.83762">
        <ele>6.3</ele>
        <time>2020-03-11T10:35:53Z</time>
      </trkpt>
      <trkpt lat="46.58323" lon="-1.83755">
        <ele>5.6</ele>
        <time>2020-03-11T10:35:53Z</time>
      </trkpt>
      <trkpt lat="46.58274" lon="-1.83782">
        <ele>5.1</ele>
        <time>2020-03-11T10:35:53Z</time>
      </trkpt>
      <trkpt lat="46.58248" lon="-1.83772">
        <ele>5.1</ele>
        <time>2020-03-11T10:35:53Z</time>
      </trkpt>
      <trkpt lat="46.58242" lon="-1.83742">
        <ele>5.4</ele>
        <time>2020-03-11T10:35:53Z</time>
      </trkpt>
      <trkpt lat="46.58226" lon="-1.83718">
        <ele>6.7</ele>
        <time>2020-03-11T10:35:53Z</time>
      </trkpt>
      <trkpt lat="46.58146" lon="-1.83708">
        <ele>6.6</ele>
        <time>2020-03-11T10:35:53Z</time>
      </trkpt>
      <trkpt lat="46.58125" lon="-1.83729">
        <ele>7.9</ele>
        <time>2020-03-11T10:35:53Z</time>
      </trkpt>
      <trkpt lat="46.58105" lon="-1.83722">
        <ele>9</ele>
        <time>2020-03-11T10:35:53Z</time>
      </trkpt>
      <trkpt lat="46.58086" lon="-1.83704">
        <ele>10.2</ele>
        <time>2020-03-11T10:35:53Z</time>
      </trkpt>
      <trkpt lat="46.5807" lon="-1.83678">
        <ele>11.1</ele>
        <time>2020-03-11T10:35:53Z</time>
      </trkpt>
      <trkpt lat="46.58043" lon="-1.83603">
        <ele>9.2</ele>
        <time>2020-03-11T10:35:53Z</time>
      </trkpt>
      <trkpt lat="46.58026" lon="-1.83521">
        <ele>9.8</ele>
        <time>2020-03-11T10:35:53Z</time>
      </trkpt>
      <trkpt lat="46.58017" lon="-1.83473">
        <ele>12.1</ele>
        <time>2020-03-11T10:35:53Z</time>
      </trkpt>
      <trkpt lat="46.58001" lon="-1.83444">
        <ele>11</ele>
        <time>2020-03-11T10:35:53Z</time>
      </trkpt>
      <trkpt lat="46.5798" lon="-1.83406">
        <ele>12</ele>
        <time>2020-03-11T10:35:53Z</time>
      </trkpt>
      <trkpt lat="46.57963" lon="-1.83376">
        <ele>11.7</ele>
        <time>2020-03-11T10:35:53Z</time>
      </trkpt>
      <trkpt lat="46.57951" lon="-1.83349">
        <ele>9.9</ele>
        <time>2020-03-11T10:35:53Z</time>
      </trkpt>
      <trkpt lat="46.57928" lon="-1.83275">
        <ele>8.7</ele>
        <time>2020-03-11T10:35:53Z</time>
      </trkpt>
      <trkpt lat="46.57902" lon="-1.83216">
        <ele>9.4</ele>
        <time>2020-03-11T10:35:53Z</time>
      </trkpt>
      <trkpt lat="46.57886" lon="-1.83191">
        <ele>8</ele>
        <time>2020-03-11T10:35:53Z</time>
      </trkpt>
      <trkpt lat="46.57859" lon="-1.83166">
        <ele>8</ele>
        <time>2020-03-11T10:35:53Z</time>
      </trkpt>
      <trkpt lat="46.57847" lon="-1.83138">
        <ele>8</ele>
        <time>2020-03-11T10:35:53Z</time>
      </trkpt>
      <trkpt lat="46.57838" lon="-1.83111">
        <ele>8.8</ele>
        <time>2020-03-11T10:35:53Z</time>
      </trkpt>
      <trkpt lat="46.57846" lon="-1.83046">
        <ele>9.5</ele>
        <time>2020-03-11T10:35:53Z</time>
      </trkpt>
      <trkpt lat="46.57841" lon="-1.82987">
        <ele>7.6</ele>
        <time>2020-03-11T10:35:53Z</time>
      </trkpt>
      <trkpt lat="46.57837" lon="-1.82934">
        <ele>7.2</ele>
        <time>2020-03-11T10:35:53Z</time>
      </trkpt>
      <trkpt lat="46.57829" lon="-1.82897">
        <ele>8.5</ele>
        <time>2020-03-11T10:35:53Z</time>
      </trkpt>
      <trkpt lat="46.57819" lon="-1.82866">
        <ele>9.5</ele>
        <time>2020-03-11T10:35:53Z</time>
      </trkpt>
      <trkpt lat="46.57821" lon="-1.8283">
        <ele>10.5</ele>
        <time>2020-03-11T10:35:53Z</time>
      </trkpt>
      <trkpt lat="46.57815" lon="-1.82796">
        <ele>10</ele>
        <time>2020-03-11T10:35:53Z</time>
      </trkpt>
      <trkpt lat="46.57804" lon="-1.82769">
        <ele>9.3</ele>
        <time>2020-03-11T10:35:53Z</time>
      </trkpt>
      <trkpt lat="46.578" lon="-1.82729">
        <ele>8.6</ele>
        <time>2020-03-11T10:35:53Z</time>
      </trkpt>
      <trkpt lat="46.57792" lon="-1.82695">
        <ele>8</ele>
        <time>2020-03-11T10:35:53Z</time>
      </trkpt>
      <trkpt lat="46.57779" lon="-1.82635">
        <ele>8.1</ele>
        <time>2020-03-11T10:35:53Z</time>
      </trkpt>
      <trkpt lat="46.57764" lon="-1.82576">
        <ele>8.8</ele>
        <time>2020-03-11T10:35:53Z</time>
      </trkpt>
      <trkpt lat="46.57756" lon="-1.82537">
        <ele>8.7</ele>
        <time>2020-03-11T10:35:53Z</time>
      </trkpt>
      <trkpt lat="46.57744" lon="-1.82517">
        <ele>8.3</ele>
        <time>2020-03-11T10:35:53Z</time>
      </trkpt>
      <trkpt lat="46.57695" lon="-1.8251">
        <ele>8</ele>
        <time>2020-03-11T10:35:53Z</time>
      </trkpt>
      <trkpt lat="46.57656" lon="-1.82494">
        <ele>8.3</ele>
        <time>2020-03-11T10:35:53Z</time>
      </trkpt>
      <trkpt lat="46.57641" lon="-1.82468">
        <ele>8</ele>
        <time>2020-03-11T10:35:53Z</time>
      </trkpt>
      <trkpt lat="46.57626" lon="-1.8235">
        <ele>7.8</ele>
        <time>2020-03-11T10:35:53Z</time>
      </trkpt>
      <trkpt lat="46.57632" lon="-1.82311">
        <ele>7.9</ele>
        <time>2020-03-11T10:35:53Z</time>
      </trkpt>
      <trkpt lat="46.57636" lon="-1.82284">
        <ele>6.5</ele>
        <time>2020-03-11T10:35:53Z</time>
      </trkpt>
      <trkpt lat="46.57614" lon="-1.82254">
        <ele>6.2</ele>
        <time>2020-03-11T10:35:53Z</time>
      </trkpt>
      <trkpt lat="46.57573" lon="-1.82237">
        <ele>5.5</ele>
        <time>2020-03-11T10:35:53Z</time>
      </trkpt>
      <trkpt lat="46.57507" lon="-1.82203">
        <ele>5.5</ele>
        <time>2020-03-11T10:35:53Z</time>
      </trkpt>
      <trkpt lat="46.57455" lon="-1.82175">
        <ele>5.2</ele>
        <time>2020-03-11T10:35:53Z</time>
      </trkpt>
      <trkpt lat="46.57421" lon="-1.82158">
        <ele>4.7</ele>
        <time>2020-03-11T10:35:53Z</time>
      </trkpt>
      <trkpt lat="46.57397" lon="-1.82142">
        <ele>4.9</ele>
        <time>2020-03-11T10:35:53Z</time>
      </trkpt>
      <trkpt lat="46.5737" lon="-1.82115">
        <ele>5.4</ele>
        <time>2020-03-11T10:35:53Z</time>
      </trkpt>
      <trkpt lat="46.57341" lon="-1.82111">
        <ele>5</ele>
        <time>2020-03-11T10:35:53Z</time>
      </trkpt>
      <trkpt lat="46.57279" lon="-1.8213">
        <ele>4.4</ele>
        <time>2020-03-11T10:35:53Z</time>
      </trkpt>
      <trkpt lat="46.57257" lon="-1.82132">
        <ele>4.1</ele>
        <time>2020-03-11T10:35:53Z</time>
      </trkpt>
      <trkpt lat="46.57232" lon="-1.82121">
        <ele>4.6</ele>
        <time>2020-03-11T10:35:53Z</time>
      </trkpt>
      <trkpt lat="46.57211" lon="-1.82052">
        <ele>6.1</ele>
        <time>2020-03-11T10:35:53Z</time>
      </trkpt>
      <trkpt lat="46.57196" lon="-1.81998">
        <ele>3.8</ele>
        <time>2020-03-11T10:35:53Z</time>
      </trkpt>
      <trkpt lat="46.57176" lon="-1.81946">
        <ele>5.5</ele>
        <time>2020-03-11T10:35:53Z</time>
      </trkpt>
      <trkpt lat="46.57163" lon="-1.8191">
        <ele>4.3</ele>
        <time>2020-03-11T10:35:53Z</time>
      </trkpt>
      <trkpt lat="46.57128" lon="-1.8187">
        <ele>3.8</ele>
        <time>2020-03-11T10:35:53Z</time>
      </trkpt>
      <trkpt lat="46.57106" lon="-1.81863">
        <ele>4.1</ele>
        <time>2020-03-11T10:35:53Z</time>
      </trkpt>
      <trkpt lat="46.5706" lon="-1.81861">
        <ele>4</ele>
        <time>2020-03-11T10:35:53Z</time>
      </trkpt>
      <trkpt lat="46.5701" lon="-1.81871">
        <ele>4.2</ele>
        <time>2020-03-11T10:35:53Z</time>
      </trkpt>
      <trkpt lat="46.56992" lon="-1.81883">
        <ele>4.1</ele>
        <time>2020-03-11T10:35:53Z</time>
      </trkpt>
      <trkpt lat="46.56974" lon="-1.81907">
        <ele>3.9</ele>
        <time>2020-03-11T10:35:53Z</time>
      </trkpt>
      <trkpt lat="46.5696" lon="-1.8193">
        <ele>4.1</ele>
        <time>2020-03-11T10:35:53Z</time>
      </trkpt>
      <trkpt lat="46.56949" lon="-1.81951">
        <ele>3.7</ele>
        <time>2020-03-11T10:35:53Z</time>
      </trkpt>
      <trkpt lat="46.56926" lon="-1.82023">
        <ele>3.5</ele>
        <time>2020-03-11T10:35:53Z</time>
      </trkpt>
      <trkpt lat="46.56907" lon="-1.82044">
        <ele>3.6</ele>
        <time>2020-03-11T10:35:53Z</time>
      </trkpt>
      <trkpt lat="46.56888" lon="-1.82033">
        <ele>3.2</ele>
        <time>2020-03-11T10:35:53Z</time>
      </trkpt>
      <trkpt lat="46.56864" lon="-1.82009">
        <ele>3.2</ele>
        <time>2020-03-11T10:35:53Z</time>
      </trkpt>
      <trkpt lat="46.56847" lon="-1.81986">
        <ele>4.8</ele>
        <time>2020-03-11T10:35:53Z</time>
      </trkpt>
      <trkpt lat="46.56848" lon="-1.81958">
        <ele>5.1</ele>
        <time>2020-03-11T10:35:53Z</time>
      </trkpt>
      <trkpt lat="46.56847" lon="-1.81927">
        <ele>5.5</ele>
        <time>2020-03-11T10:35:53Z</time>
      </trkpt>
      <trkpt lat="46.56845" lon="-1.81894">
        <ele>6.4</ele>
        <time>2020-03-11T10:35:53Z</time>
      </trkpt>
      <trkpt lat="46.56836" lon="-1.81849">
        <ele>4.9</ele>
        <time>2020-03-11T10:35:53Z</time>
      </trkpt>
      <trkpt lat="46.56825" lon="-1.81821">
        <ele>5.3</ele>
        <time>2020-03-11T10:35:53Z</time>
      </trkpt>
      <trkpt lat="46.56807" lon="-1.81791">
        <ele>5.3</ele>
        <time>2020-03-11T10:35:53Z</time>
      </trkpt>
      <trkpt lat="46.56791" lon="-1.81769">
        <ele>5.2</ele>
        <time>2020-03-11T10:35:53Z</time>
      </trkpt>
      <trkpt lat="46.56767" lon="-1.81739">
        <ele>5.7</ele>
        <time>2020-03-11T10:35:53Z</time>
      </trkpt>
      <trkpt lat="46.56748" lon="-1.81712">
        <ele>4.9</ele>
        <time>2020-03-11T10:35:53Z</time>
      </trkpt>
      <trkpt lat="46.56714" lon="-1.8167">
        <ele>4.5</ele>
        <time>2020-03-11T10:35:53Z</time>
      </trkpt>
      <trkpt lat="46.56693" lon="-1.81644">
        <ele>4.5</ele>
        <time>2020-03-11T10:35:53Z</time>
      </trkpt>
      <trkpt lat="46.56668" lon="-1.81602">
        <ele>3.6</ele>
        <time>2020-03-11T10:35:53Z</time>
      </trkpt>
      <trkpt lat="46.56648" lon="-1.81533">
        <ele>5.9</ele>
        <time>2020-03-11T10:35:53Z</time>
      </trkpt>
      <trkpt lat="46.56639" lon="-1.81494">
        <ele>4.8</ele>
        <time>2020-03-11T10:35:53Z</time>
      </trkpt>
      <trkpt lat="46.56632" lon="-1.81469">
        <ele>5.3</ele>
        <time>2020-03-11T10:35:53Z</time>
      </trkpt>
      <trkpt lat="46.56611" lon="-1.81425">
        <ele>4.9</ele>
        <time>2020-03-11T10:35:53Z</time>
      </trkpt>
      <trkpt lat="46.56597" lon="-1.81391">
        <ele>4.7</ele>
        <time>2020-03-11T10:35:53Z</time>
      </trkpt>
      <trkpt lat="46.56575" lon="-1.81355">
        <ele>4</ele>
        <time>2020-03-11T10:35:53Z</time>
      </trkpt>
      <trkpt lat="46.56522" lon="-1.81319">
        <ele>5.3</ele>
        <time>2020-03-11T10:35:53Z</time>
      </trkpt>
      <trkpt lat="46.565" lon="-1.81288">
        <ele>5.5</ele>
        <time>2020-03-11T10:35:53Z</time>
      </trkpt>
      <trkpt lat="46.56484" lon="-1.81257">
        <ele>6.3</ele>
        <time>2020-03-11T10:35:53Z</time>
      </trkpt>
      <trkpt lat="46.56468" lon="-1.81229">
        <ele>4.9</ele>
        <time>2020-03-11T10:35:53Z</time>
      </trkpt>
      <trkpt lat="46.56444" lon="-1.81206">
        <ele>5.2</ele>
        <time>2020-03-11T10:35:53Z</time>
      </trkpt>
      <trkpt lat="46.5643" lon="-1.81184">
        <ele>4.4</ele>
        <time>2020-03-11T10:35:53Z</time>
      </trkpt>
      <trkpt lat="46.56413" lon="-1.81159">
        <ele>3.5</ele>
        <time>2020-03-11T10:35:53Z</time>
      </trkpt>
      <trkpt lat="46.56384" lon="-1.81109">
        <ele>4.7</ele>
        <time>2020-03-11T10:35:53Z</time>
      </trkpt>
      <trkpt lat="46.56351" lon="-1.81031">
        <ele>3.5</ele>
        <time>2020-03-11T10:35:53Z</time>
      </trkpt>
      <trkpt lat="46.56339" lon="-1.81">
        <ele>3</ele>
        <time>2020-03-11T10:35:53Z</time>
      </trkpt>
      <trkpt lat="46.56292" lon="-1.80992">
        <ele>3.7</ele>
        <time>2020-03-11T10:35:53Z</time>
      </trkpt>
      <trkpt lat="46.56202" lon="-1.80996">
        <ele>3.2</ele>
        <time>2020-03-11T10:35:53Z</time>
      </trkpt>
      <trkpt lat="46.56175" lon="-1.81007">
        <ele>3.2</ele>
        <time>2020-03-11T10:35:53Z</time>
      </trkpt>
      <trkpt lat="46.56155" lon="-1.81066">
        <ele>4.8</ele>
        <time>2020-03-11T10:35:53Z</time>
      </trkpt>
      <trkpt lat="46.56136" lon="-1.81083">
        <ele>5</ele>
        <time>2020-03-11T10:35:53Z</time>
      </trkpt>
      <trkpt lat="46.56107" lon="-1.8106">
        <ele>4.3</ele>
        <time>2020-03-11T10:35:53Z</time>
      </trkpt>
      <trkpt lat="46.56091" lon="-1.81041">
        <ele>4.7</ele>
        <time>2020-03-11T10:35:53Z</time>
      </trkpt>
      <trkpt lat="46.56055" lon="-1.80999">
        <ele>5</ele>
        <time>2020-03-11T10:35:53Z</time>
      </trkpt>
      <trkpt lat="46.56031" lon="-1.80974">
        <ele>5.8</ele>
        <time>2020-03-11T10:35:53Z</time>
      </trkpt>
      <trkpt lat="46.56002" lon="-1.80958">
        <ele>6</ele>
        <time>2020-03-11T10:35:53Z</time>
      </trkpt>
      <trkpt lat="46.55982" lon="-1.80943">
        <ele>6</ele>
        <time>2020-03-11T10:35:53Z</time>
      </trkpt>
      <trkpt lat="46.55961" lon="-1.80931">
        <ele>6</ele>
        <time>2020-03-11T10:35:53Z</time>
      </trkpt>
      <trkpt lat="46.5592" lon="-1.80915">
        <ele>6</ele>
        <time>2020-03-11T10:35:53Z</time>
      </trkpt>
      <trkpt lat="46.55894" lon="-1.80897">
        <ele>5.4</ele>
        <time>2020-03-11T10:35:53Z</time>
      </trkpt>
      <trkpt lat="46.55869" lon="-1.80876">
        <ele>5.4</ele>
        <time>2020-03-11T10:35:53Z</time>
      </trkpt>
      <trkpt lat="46.55845" lon="-1.80869">
        <ele>4.7</ele>
        <time>2020-03-11T10:35:53Z</time>
      </trkpt>
      <trkpt lat="46.55815" lon="-1.80872">
        <ele>4.4</ele>
        <time>2020-03-11T10:35:53Z</time>
      </trkpt>
      <trkpt lat="46.55785" lon="-1.80867">
        <ele>4.2</ele>
        <time>2020-03-11T10:35:53Z</time>
      </trkpt>
      <trkpt lat="46.55767" lon="-1.80886">
        <ele>5.3</ele>
        <time>2020-03-11T10:35:53Z</time>
      </trkpt>
      <trkpt lat="46.55746" lon="-1.80924">
        <ele>6.4</ele>
        <time>2020-03-11T10:35:53Z</time>
      </trkpt>
      <trkpt lat="46.55716" lon="-1.80975">
        <ele>7.1</ele>
        <time>2020-03-11T10:35:53Z</time>
      </trkpt>
      <trkpt lat="46.55657" lon="-1.81077">
        <ele>8</ele>
        <time>2020-03-11T10:35:53Z</time>
      </trkpt>
      <trkpt lat="46.5565" lon="-1.81103">
        <ele>8</ele>
        <time>2020-03-11T10:35:53Z</time>
      </trkpt>
      <trkpt lat="46.55649" lon="-1.81136">
        <ele>7.4</ele>
        <time>2020-03-11T10:35:53Z</time>
      </trkpt>
      <trkpt lat="46.55629" lon="-1.81177">
        <ele>7.4</ele>
        <time>2020-03-11T10:35:53Z</time>
      </trkpt>
      <trkpt lat="46.55614" lon="-1.81206">
        <ele>7</ele>
        <time>2020-03-11T10:35:53Z</time>
      </trkpt>
      <trkpt lat="46.55584" lon="-1.81263">
        <ele>7</ele>
        <time>2020-03-11T10:35:53Z</time>
      </trkpt>
      <trkpt lat="46.55593" lon="-1.8129">
        <ele>6.7</ele>
        <time>2020-03-11T10:35:53Z</time>
      </trkpt>
      <trkpt lat="46.5561" lon="-1.81318">
        <ele>7</ele>
        <time>2020-03-11T10:35:53Z</time>
      </trkpt>
      <trkpt lat="46.55631" lon="-1.81353">
        <ele>8.7</ele>
        <time>2020-03-11T10:35:53Z</time>
      </trkpt>
      <trkpt lat="46.55627" lon="-1.81386">
        <ele>9.2</ele>
        <time>2020-03-11T10:35:53Z</time>
      </trkpt>
      <trkpt lat="46.55616" lon="-1.81423">
        <ele>8.7</ele>
        <time>2020-03-11T10:35:53Z</time>
      </trkpt>
      <trkpt lat="46.55602" lon="-1.81461">
        <ele>8.7</ele>
        <time>2020-03-11T10:35:53Z</time>
      </trkpt>
      <trkpt lat="46.55593" lon="-1.81496">
        <ele>9.3</ele>
        <time>2020-03-11T10:35:53Z</time>
      </trkpt>
      <trkpt lat="46.55582" lon="-1.81521">
        <ele>8.4</ele>
        <time>2020-03-11T10:35:53Z</time>
      </trkpt>
      <trkpt lat="46.55552" lon="-1.81568">
        <ele>8.2</ele>
        <time>2020-03-11T10:35:53Z</time>
      </trkpt>
      <trkpt lat="46.55514" lon="-1.81608">
        <ele>7.4</ele>
        <time>2020-03-11T10:35:53Z</time>
      </trkpt>
      <trkpt lat="46.55492" lon="-1.81621">
        <ele>6.7</ele>
        <time>2020-03-11T10:35:53Z</time>
      </trkpt>
      <trkpt lat="46.55476" lon="-1.81601">
        <ele>5.1</ele>
        <time>2020-03-11T10:35:53Z</time>
      </trkpt>
      <trkpt lat="46.55464" lon="-1.8156">
        <ele>5</ele>
        <time>2020-03-11T10:35:53Z</time>
      </trkpt>
      <trkpt lat="46.55453" lon="-1.81535">
        <ele>5</ele>
        <time>2020-03-11T10:35:53Z</time>
      </trkpt>
      <trkpt lat="46.55437" lon="-1.81502">
        <ele>4.7</ele>
        <time>2020-03-11T10:35:53Z</time>
      </trkpt>
      <trkpt lat="46.55416" lon="-1.81466">
        <ele>5</ele>
        <time>2020-03-11T10:35:53Z</time>
      </trkpt>
      <trkpt lat="46.55394" lon="-1.81434">
        <ele>5</ele>
        <time>2020-03-11T10:35:53Z</time>
      </trkpt>
      <trkpt lat="46.5537" lon="-1.81399">
        <ele>5</ele>
        <time>2020-03-11T10:35:53Z</time>
      </trkpt>
      <trkpt lat="46.55356" lon="-1.81376">
        <ele>5</ele>
        <time>2020-03-11T10:35:53Z</time>
      </trkpt>
      <trkpt lat="46.55333" lon="-1.81335">
        <ele>5</ele>
        <time>2020-03-11T10:35:53Z</time>
      </trkpt>
      <trkpt lat="46.55324" lon="-1.81301">
        <ele>4.7</ele>
        <time>2020-03-11T10:35:53Z</time>
      </trkpt>
      <trkpt lat="46.55315" lon="-1.81273">
        <ele>5</ele>
        <time>2020-03-11T10:35:53Z</time>
      </trkpt>
      <trkpt lat="46.55301" lon="-1.81244">
        <ele>4.8</ele>
        <time>2020-03-11T10:35:53Z</time>
      </trkpt>
      <trkpt lat="46.55286" lon="-1.81223">
        <ele>4.3</ele>
        <time>2020-03-11T10:35:53Z</time>
      </trkpt>
      <trkpt lat="46.5523" lon="-1.8118">
        <ele>4</ele>
        <time>2020-03-11T10:35:53Z</time>
      </trkpt>
      <trkpt lat="46.55193" lon="-1.81154">
        <ele>4.4</ele>
        <time>2020-03-11T10:35:53Z</time>
      </trkpt>
      <trkpt lat="46.5518" lon="-1.81131">
        <ele>4.5</ele>
        <time>2020-03-11T10:35:53Z</time>
      </trkpt>
      <trkpt lat="46.55152" lon="-1.81108">
        <ele>5</ele>
        <time>2020-03-11T10:35:53Z</time>
      </trkpt>
      <trkpt lat="46.55065" lon="-1.81012">
        <ele>6</ele>
        <time>2020-03-11T10:35:53Z</time>
      </trkpt>
      <trkpt lat="46.55047" lon="-1.80994">
        <ele>6</ele>
        <time>2020-03-11T10:35:53Z</time>
      </trkpt>
      <trkpt lat="46.55026" lon="-1.80998">
        <ele>6</ele>
        <time>2020-03-11T10:35:53Z</time>
      </trkpt>
      <trkpt lat="46.55003" lon="-1.81036">
        <ele>6</ele>
        <time>2020-03-11T10:35:53Z</time>
      </trkpt>
      <trkpt lat="46.54984" lon="-1.8104">
        <ele>6</ele>
        <time>2020-03-11T10:35:53Z</time>
      </trkpt>
      <trkpt lat="46.54959" lon="-1.81016">
        <ele>6</ele>
        <time>2020-03-11T10:35:53Z</time>
      </trkpt>
      <trkpt lat="46.54878" lon="-1.80937">
        <ele>6</ele>
        <time>2020-03-11T10:35:53Z</time>
      </trkpt>
      <trkpt lat="46.54824" lon="-1.80883">
        <ele>6</ele>
        <time>2020-03-11T10:35:53Z</time>
      </trkpt>
      <trkpt lat="46.54776" lon="-1.80989">
        <ele>5.4</ele>
        <time>2020-03-11T10:35:53Z</time>
      </trkpt>
      <trkpt lat="46.54758" lon="-1.81019">
        <ele>5</ele>
        <time>2020-03-11T10:35:53Z</time>
      </trkpt>
      <trkpt lat="46.54734" lon="-1.8108">
        <ele>4.5</ele>
        <time>2020-03-11T10:35:53Z</time>
      </trkpt>
      <trkpt lat="46.54724" lon="-1.81111">
        <ele>5</ele>
        <time>2020-03-11T10:35:53Z</time>
      </trkpt>
      <trkpt lat="46.5462" lon="-1.81067">
        <ele>4.6</ele>
        <time>2020-03-11T10:35:53Z</time>
      </trkpt>
      <trkpt lat="46.54584" lon="-1.81037">
        <ele>4</ele>
        <time>2020-03-11T10:35:53Z</time>
      </trkpt>
      <trkpt lat="46.54565" lon="-1.81023">
        <ele>4</ele>
        <time>2020-03-11T10:35:53Z</time>
      </trkpt>
      <trkpt lat="46.5455" lon="-1.81004">
        <ele>4</ele>
        <time>2020-03-11T10:35:53Z</time>
      </trkpt>
      <trkpt lat="46.54532" lon="-1.81021">
        <ele>4</ele>
        <time>2020-03-11T10:35:53Z</time>
      </trkpt>
      <trkpt lat="46.54511" lon="-1.81027">
        <ele>4</ele>
        <time>2020-03-11T10:35:53Z</time>
      </trkpt>
      <trkpt lat="46.5449" lon="-1.81023">
        <ele>4.3</ele>
        <time>2020-03-11T10:35:53Z</time>
      </trkpt>
      <trkpt lat="46.54464" lon="-1.81022">
        <ele>4.6</ele>
        <time>2020-03-11T10:35:53Z</time>
      </trkpt>
      <trkpt lat="46.54446" lon="-1.81026">
        <ele>4.1</ele>
        <time>2020-03-11T10:35:53Z</time>
      </trkpt>
      <trkpt lat="46.54422" lon="-1.81044">
        <ele>4.6</ele>
        <time>2020-03-11T10:35:53Z</time>
      </trkpt>
      <trkpt lat="46.54404" lon="-1.81055">
        <ele>4</ele>
        <time>2020-03-11T10:35:53Z</time>
      </trkpt>
      <trkpt lat="46.54389" lon="-1.81075">
        <ele>4.7</ele>
        <time>2020-03-11T10:35:53Z</time>
      </trkpt>
      <trkpt lat="46.54371" lon="-1.81107">
        <ele>5.9</ele>
        <time>2020-03-11T10:35:53Z</time>
      </trkpt>
      <trkpt lat="46.54358" lon="-1.81137">
        <ele>5.5</ele>
        <time>2020-03-11T10:35:53Z</time>
      </trkpt>
      <trkpt lat="46.54349" lon="-1.81163">
        <ele>6.2</ele>
        <time>2020-03-11T10:35:53Z</time>
      </trkpt>
      <trkpt lat="46.54333" lon="-1.81196">
        <ele>6.4</ele>
        <time>2020-03-11T10:35:53Z</time>
      </trkpt>
      <trkpt lat="46.54314" lon="-1.81222">
        <ele>6.7</ele>
        <time>2020-03-11T10:35:53Z</time>
      </trkpt>
      <trkpt lat="46.54296" lon="-1.81238">
        <ele>4.6</ele>
        <time>2020-03-11T10:35:53Z</time>
      </trkpt>
      <trkpt lat="46.54277" lon="-1.81243">
        <ele>4.9</ele>
        <time>2020-03-11T10:35:53Z</time>
      </trkpt>
      <trkpt lat="46.54245" lon="-1.81232">
        <ele>6.8</ele>
        <time>2020-03-11T10:35:53Z</time>
      </trkpt>
      <trkpt lat="46.5422" lon="-1.81231">
        <ele>6.5</ele>
        <time>2020-03-11T10:35:53Z</time>
      </trkpt>
      <trkpt lat="46.54196" lon="-1.81237">
        <ele>6.2</ele>
        <time>2020-03-11T10:35:53Z</time>
      </trkpt>
      <trkpt lat="46.54103" lon="-1.81271">
        <ele>5.3</ele>
        <time>2020-03-11T10:35:53Z</time>
      </trkpt>
      <trkpt lat="46.54085" lon="-1.81276">
        <ele>5</ele>
        <time>2020-03-11T10:35:53Z</time>
      </trkpt>
      <trkpt lat="46.54063" lon="-1.81274">
        <ele>5.5</ele>
        <time>2020-03-11T10:35:53Z</time>
      </trkpt>
      <trkpt lat="46.53947" lon="-1.81228">
        <ele>7.6</ele>
        <time>2020-03-11T10:35:53Z</time>
      </trkpt>
      <trkpt lat="46.53918" lon="-1.81218">
        <ele>7.4</ele>
        <time>2020-03-11T10:35:53Z</time>
      </trkpt>
      <trkpt lat="46.53893" lon="-1.8122">
        <ele>6.9</ele>
        <time>2020-03-11T10:35:53Z</time>
      </trkpt>
      <trkpt lat="46.53873" lon="-1.81223">
        <ele>7</ele>
        <time>2020-03-11T10:35:53Z</time>
      </trkpt>
      <trkpt lat="46.53852" lon="-1.81231">
        <ele>6.4</ele>
        <time>2020-03-11T10:35:53Z</time>
      </trkpt>
      <trkpt lat="46.53831" lon="-1.81245">
        <ele>5.7</ele>
        <time>2020-03-11T10:35:53Z</time>
      </trkpt>
      <trkpt lat="46.53812" lon="-1.81262">
        <ele>5.1</ele>
        <time>2020-03-11T10:35:53Z</time>
      </trkpt>
      <trkpt lat="46.53783" lon="-1.81284">
        <ele>4.8</ele>
        <time>2020-03-11T10:35:53Z</time>
      </trkpt>
      <trkpt lat="46.5376" lon="-1.8129">
        <ele>4.9</ele>
        <time>2020-03-11T10:35:53Z</time>
      </trkpt>
      <trkpt lat="46.53739" lon="-1.81291">
        <ele>5</ele>
        <time>2020-03-11T10:35:53Z</time>
      </trkpt>
      <trkpt lat="46.53719" lon="-1.8129">
        <ele>4.9</ele>
        <time>2020-03-11T10:35:53Z</time>
      </trkpt>
      <trkpt lat="46.53694" lon="-1.81286">
        <ele>4.9</ele>
        <time>2020-03-11T10:35:53Z</time>
      </trkpt>
      <trkpt lat="46.53642" lon="-1.81268">
        <ele>6.3</ele>
        <time>2020-03-11T10:35:53Z</time>
      </trkpt>
      <trkpt lat="46.53612" lon="-1.81264">
        <ele>6.5</ele>
        <time>2020-03-11T10:35:53Z</time>
      </trkpt>
      <trkpt lat="46.53583" lon="-1.81267">
        <ele>6.2</ele>
        <time>2020-03-11T10:35:53Z</time>
      </trkpt>
      <trkpt lat="46.53557" lon="-1.81273">
        <ele>5.9</ele>
        <time>2020-03-11T10:35:53Z</time>
      </trkpt>
      <trkpt lat="46.53532" lon="-1.81281">
        <ele>6</ele>
        <time>2020-03-11T10:35:53Z</time>
      </trkpt>
      <trkpt lat="46.53487" lon="-1.81314">
        <ele>5.7</ele>
        <time>2020-03-11T10:35:53Z</time>
      </trkpt>
      <trkpt lat="46.53464" lon="-1.81323">
        <ele>5.4</ele>
        <time>2020-03-11T10:35:53Z</time>
      </trkpt>
      <trkpt lat="46.53446" lon="-1.81325">
        <ele>5.7</ele>
        <time>2020-03-11T10:35:53Z</time>
      </trkpt>
      <trkpt lat="46.53427" lon="-1.81323">
        <ele>5.6</ele>
        <time>2020-03-11T10:35:53Z</time>
      </trkpt>
      <trkpt lat="46.53404" lon="-1.8131">
        <ele>6.2</ele>
        <time>2020-03-11T10:35:53Z</time>
      </trkpt>
      <trkpt lat="46.53383" lon="-1.81275">
        <ele>5.7</ele>
        <time>2020-03-11T10:35:53Z</time>
      </trkpt>
      <trkpt lat="46.53367" lon="-1.81258">
        <ele>5.8</ele>
        <time>2020-03-11T10:35:53Z</time>
      </trkpt>
      <trkpt lat="46.53345" lon="-1.81252">
        <ele>5.2</ele>
        <time>2020-03-11T10:35:53Z</time>
      </trkpt>
      <trkpt lat="46.53319" lon="-1.81258">
        <ele>5.2</ele>
        <time>2020-03-11T10:35:53Z</time>
      </trkpt>
      <trkpt lat="46.5329" lon="-1.81257">
        <ele>5.6</ele>
        <time>2020-03-11T10:35:53Z</time>
      </trkpt>
      <trkpt lat="46.53267" lon="-1.81253">
        <ele>6.2</ele>
        <time>2020-03-11T10:35:53Z</time>
      </trkpt>
      <trkpt lat="46.53244" lon="-1.81245">
        <ele>6</ele>
        <time>2020-03-11T10:35:53Z</time>
      </trkpt>
      <trkpt lat="46.53186" lon="-1.81219">
        <ele>5.5</ele>
        <time>2020-03-11T10:35:53Z</time>
      </trkpt>
      <trkpt lat="46.53162" lon="-1.81214">
        <ele>6.3</ele>
        <time>2020-03-11T10:35:53Z</time>
      </trkpt>
      <trkpt lat="46.53092" lon="-1.8121">
        <ele>4.7</ele>
        <time>2020-03-11T10:35:53Z</time>
      </trkpt>
      <trkpt lat="46.5307" lon="-1.81209">
        <ele>5</ele>
        <time>2020-03-11T10:35:53Z</time>
      </trkpt>
      <trkpt lat="46.52983" lon="-1.81211">
        <ele>5.6</ele>
        <time>2020-03-11T10:35:53Z</time>
      </trkpt>
      <trkpt lat="46.52958" lon="-1.81202">
        <ele>5.3</ele>
        <time>2020-03-11T10:35:53Z</time>
      </trkpt>
      <trkpt lat="46.52938" lon="-1.81186">
        <ele>4.8</ele>
        <time>2020-03-11T10:35:53Z</time>
      </trkpt>
      <trkpt lat="46.52907" lon="-1.81147">
        <ele>4.7</ele>
        <time>2020-03-11T10:35:53Z</time>
      </trkpt>
      <trkpt lat="46.52858" lon="-1.81096">
        <ele>4.7</ele>
        <time>2020-03-11T10:35:53Z</time>
      </trkpt>
      <trkpt lat="46.52831" lon="-1.81076">
        <ele>4.6</ele>
        <time>2020-03-11T10:35:53Z</time>
      </trkpt>
      <trkpt lat="46.52805" lon="-1.81063">
        <ele>5.5</ele>
        <time>2020-03-11T10:35:53Z</time>
      </trkpt>
      <trkpt lat="46.52771" lon="-1.81055">
        <ele>5</ele>
        <time>2020-03-11T10:35:53Z</time>
      </trkpt>
      <trkpt lat="46.52704" lon="-1.8106">
        <ele>4.2</ele>
        <time>2020-03-11T10:35:53Z</time>
      </trkpt>
      <trkpt lat="46.52645" lon="-1.81062">
        <ele>3.5</ele>
        <time>2020-03-11T10:35:53Z</time>
      </trkpt>
      <trkpt lat="46.52627" lon="-1.81062">
        <ele>3.2</ele>
        <time>2020-03-11T10:35:53Z</time>
      </trkpt>
      <trkpt lat="46.52604" lon="-1.81058">
        <ele>3.1</ele>
        <time>2020-03-11T10:35:53Z</time>
      </trkpt>
      <trkpt lat="46.52581" lon="-1.81054">
        <ele>3.1</ele>
        <time>2020-03-11T10:35:53Z</time>
      </trkpt>
      <trkpt lat="46.52557" lon="-1.81049">
        <ele>3.7</ele>
        <time>2020-03-11T10:35:53Z</time>
      </trkpt>
      <trkpt lat="46.52533" lon="-1.81047">
        <ele>3.7</ele>
        <time>2020-03-11T10:35:53Z</time>
      </trkpt>
      <trkpt lat="46.5249" lon="-1.81044">
        <ele>3.6</ele>
        <time>2020-03-11T10:35:53Z</time>
      </trkpt>
      <trkpt lat="46.52459" lon="-1.81036">
        <ele>3.8</ele>
        <time>2020-03-11T10:35:53Z</time>
      </trkpt>
      <trkpt lat="46.52432" lon="-1.81013">
        <ele>4.2</ele>
        <time>2020-03-11T10:35:53Z</time>
      </trkpt>
      <trkpt lat="46.52416" lon="-1.81066">
        <ele>5</ele>
        <time>2020-03-11T10:35:53Z</time>
      </trkpt>
      <trkpt lat="46.52414" lon="-1.81095">
        <ele>5.3</ele>
        <time>2020-03-11T10:35:53Z</time>
      </trkpt>
      <trkpt lat="46.52411" lon="-1.81124">
        <ele>6.5</ele>
        <time>2020-03-11T10:35:53Z</time>
      </trkpt>
      <trkpt lat="46.52396" lon="-1.81211">
        <ele>10</ele>
        <time>2020-03-11T10:35:53Z</time>
      </trkpt>
      <trkpt lat="46.52379" lon="-1.8132">
        <ele>11</ele>
        <time>2020-03-11T10:35:53Z</time>
      </trkpt>
      <trkpt lat="46.52363" lon="-1.81338">
        <ele>10.1</ele>
        <time>2020-03-11T10:35:53Z</time>
      </trkpt>
      <trkpt lat="46.52345" lon="-1.81343">
        <ele>11.2</ele>
        <time>2020-03-11T10:35:53Z</time>
      </trkpt>
      <trkpt lat="46.52318" lon="-1.81343">
        <ele>10.5</ele>
        <time>2020-03-11T10:35:53Z</time>
      </trkpt>
      <trkpt lat="46.52292" lon="-1.81336">
        <ele>9.1</ele>
        <time>2020-03-11T10:35:53Z</time>
      </trkpt>
      <trkpt lat="46.52263" lon="-1.81339">
        <ele>9.2</ele>
        <time>2020-03-11T10:35:53Z</time>
      </trkpt>
      <trkpt lat="46.52234" lon="-1.81347">
        <ele>10.2</ele>
        <time>2020-03-11T10:35:53Z</time>
      </trkpt>
      <trkpt lat="46.52212" lon="-1.81339">
        <ele>10.6</ele>
        <time>2020-03-11T10:35:53Z</time>
      </trkpt>
      <trkpt lat="46.522" lon="-1.81317">
        <ele>10.6</ele>
        <time>2020-03-11T10:35:53Z</time>
      </trkpt>
      <trkpt lat="46.52185" lon="-1.81296">
        <ele>10.7</ele>
        <time>2020-03-11T10:35:53Z</time>
      </trkpt>
      <trkpt lat="46.52166" lon="-1.81284">
        <ele>12</ele>
        <time>2020-03-11T10:35:53Z</time>
      </trkpt>
      <trkpt lat="46.52143" lon="-1.81273">
        <ele>11</ele>
        <time>2020-03-11T10:35:53Z</time>
      </trkpt>
      <trkpt lat="46.52123" lon="-1.81252">
        <ele>12.4</ele>
        <time>2020-03-11T10:35:53Z</time>
      </trkpt>
      <trkpt lat="46.52096" lon="-1.81253">
        <ele>13.1</ele>
        <time>2020-03-11T10:35:53Z</time>
      </trkpt>
      <trkpt lat="46.52064" lon="-1.81288">
        <ele>11.6</ele>
        <time>2020-03-11T10:35:53Z</time>
      </trkpt>
      <trkpt lat="46.52031" lon="-1.81291">
        <ele>9.1</ele>
        <time>2020-03-11T10:35:53Z</time>
      </trkpt>
      <trkpt lat="46.51997" lon="-1.81297">
        <ele>11.1</ele>
        <time>2020-03-11T10:35:53Z</time>
      </trkpt>
      <trkpt lat="46.51966" lon="-1.81305">
        <ele>11.1</ele>
        <time>2020-03-11T10:35:53Z</time>
      </trkpt>
      <trkpt lat="46.51937" lon="-1.81306">
        <ele>11.3</ele>
        <time>2020-03-11T10:35:53Z</time>
      </trkpt>
      <trkpt lat="46.51913" lon="-1.81296">
        <ele>11.9</ele>
        <time>2020-03-11T10:35:53Z</time>
      </trkpt>
      <trkpt lat="46.51861" lon="-1.81232">
        <ele>13.4</ele>
        <time>2020-03-11T10:35:53Z</time>
      </trkpt>
      <trkpt lat="46.51844" lon="-1.81164">
        <ele>13.4</ele>
        <time>2020-03-11T10:35:53Z</time>
      </trkpt>
      <trkpt lat="46.51826" lon="-1.81131">
        <ele>14</ele>
        <time>2020-03-11T10:35:53Z</time>
      </trkpt>
      <trkpt lat="46.51806" lon="-1.81086">
        <ele>14</ele>
        <time>2020-03-11T10:35:53Z</time>
      </trkpt>
      <trkpt lat="46.518" lon="-1.81049">
        <ele>14.5</ele>
        <time>2020-03-11T10:35:53Z</time>
      </trkpt>
      <trkpt lat="46.51792" lon="-1.8102">
        <ele>15.7</ele>
        <time>2020-03-11T10:35:53Z</time>
      </trkpt>
      <trkpt lat="46.51775" lon="-1.80995">
        <ele>15.7</ele>
        <time>2020-03-11T10:35:53Z</time>
      </trkpt>
      <trkpt lat="46.51752" lon="-1.80981">
        <ele>14.9</ele>
        <time>2020-03-11T10:35:53Z</time>
      </trkpt>
      <trkpt lat="46.51723" lon="-1.80967">
        <ele>12.7</ele>
        <time>2020-03-11T10:35:53Z</time>
      </trkpt>
      <trkpt lat="46.51702" lon="-1.8097">
        <ele>10.7</ele>
        <time>2020-03-11T10:35:53Z</time>
      </trkpt>
      <trkpt lat="46.51684" lon="-1.80976">
        <ele>10.4</ele>
        <time>2020-03-11T10:35:53Z</time>
      </trkpt>
      <trkpt lat="46.51657" lon="-1.80976">
        <ele>9.6</ele>
        <time>2020-03-11T10:35:53Z</time>
      </trkpt>
      <trkpt lat="46.51637" lon="-1.80994">
        <ele>9.6</ele>
        <time>2020-03-11T10:35:53Z</time>
      </trkpt>
      <trkpt lat="46.51605" lon="-1.81003">
        <ele>10.4</ele>
        <time>2020-03-11T10:35:53Z</time>
      </trkpt>
      <trkpt lat="46.51579" lon="-1.81">
        <ele>11.2</ele>
        <time>2020-03-11T10:35:53Z</time>
      </trkpt>
      <trkpt lat="46.51556" lon="-1.80988">
        <ele>11.5</ele>
        <time>2020-03-11T10:35:53Z</time>
      </trkpt>
      <trkpt lat="46.51532" lon="-1.80976">
        <ele>12.9</ele>
        <time>2020-03-11T10:35:53Z</time>
      </trkpt>
      <trkpt lat="46.51507" lon="-1.80989">
        <ele>15.3</ele>
        <time>2020-03-11T10:35:53Z</time>
      </trkpt>
      <trkpt lat="46.51489" lon="-1.81016">
        <ele>15.5</ele>
        <time>2020-03-11T10:35:53Z</time>
      </trkpt>
      <trkpt lat="46.51465" lon="-1.81042">
        <ele>13.7</ele>
        <time>2020-03-11T10:35:53Z</time>
      </trkpt>
      <trkpt lat="46.51446" lon="-1.81066">
        <ele>13.4</ele>
        <time>2020-03-11T10:35:53Z</time>
      </trkpt>
      <trkpt lat="46.51434" lon="-1.81094">
        <ele>13.2</ele>
        <time>2020-03-11T10:35:53Z</time>
      </trkpt>
      <trkpt lat="46.51425" lon="-1.81118">
        <ele>12.8</ele>
        <time>2020-03-11T10:35:53Z</time>
      </trkpt>
      <trkpt lat="46.51414" lon="-1.81154">
        <ele>13.4</ele>
        <time>2020-03-11T10:35:53Z</time>
      </trkpt>
      <trkpt lat="46.51375" lon="-1.81216">
        <ele>13.5</ele>
        <time>2020-03-11T10:35:53Z</time>
      </trkpt>
      <trkpt lat="46.5134" lon="-1.81272">
        <ele>14</ele>
        <time>2020-03-11T10:35:53Z</time>
      </trkpt>
      <trkpt lat="46.51316" lon="-1.81296">
        <ele>13.3</ele>
        <time>2020-03-11T10:35:53Z</time>
      </trkpt>
      <trkpt lat="46.51299" lon="-1.81308">
        <ele>13.3</ele>
        <time>2020-03-11T10:35:53Z</time>
      </trkpt>
      <trkpt lat="46.51223" lon="-1.81364">
        <ele>16</ele>
        <time>2020-03-11T10:35:53Z</time>
      </trkpt>
      <trkpt lat="46.51206" lon="-1.8138">
        <ele>16.6</ele>
        <time>2020-03-11T10:35:53Z</time>
      </trkpt>
      <trkpt lat="46.51186" lon="-1.81367">
        <ele>17.7</ele>
        <time>2020-03-11T10:35:53Z</time>
      </trkpt>
      <trkpt lat="46.51167" lon="-1.8135">
        <ele>18.6</ele>
        <time>2020-03-11T10:35:53Z</time>
      </trkpt>
      <trkpt lat="46.5115" lon="-1.81335">
        <ele>17.5</ele>
        <time>2020-03-11T10:35:53Z</time>
      </trkpt>
      <trkpt lat="46.51132" lon="-1.81344">
        <ele>17.3</ele>
        <time>2020-03-11T10:35:53Z</time>
      </trkpt>
      <trkpt lat="46.5112" lon="-1.81375">
        <ele>17.3</ele>
        <time>2020-03-11T10:35:53Z</time>
      </trkpt>
      <trkpt lat="46.51115" lon="-1.81401">
        <ele>17.1</ele>
        <time>2020-03-11T10:35:53Z</time>
      </trkpt>
      <trkpt lat="46.5111" lon="-1.81448">
        <ele>16.8</ele>
        <time>2020-03-11T10:35:53Z</time>
      </trkpt>
      <trkpt lat="46.51106" lon="-1.81474">
        <ele>15.9</ele>
        <time>2020-03-11T10:35:53Z</time>
      </trkpt>
      <trkpt lat="46.511" lon="-1.81508">
        <ele>15.1</ele>
        <time>2020-03-11T10:35:53Z</time>
      </trkpt>
      <trkpt lat="46.51097" lon="-1.81536">
        <ele>15.3</ele>
        <time>2020-03-11T10:35:53Z</time>
      </trkpt>
      <trkpt lat="46.51094" lon="-1.81562">
        <ele>15.9</ele>
        <time>2020-03-11T10:35:53Z</time>
      </trkpt>
      <trkpt lat="46.51079" lon="-1.8159">
        <ele>14.7</ele>
        <time>2020-03-11T10:35:53Z</time>
      </trkpt>
      <trkpt lat="46.51068" lon="-1.81611">
        <ele>13.8</ele>
        <time>2020-03-11T10:35:53Z</time>
      </trkpt>
      <trkpt lat="46.5106" lon="-1.81635">
        <ele>12.5</ele>
        <time>2020-03-11T10:35:53Z</time>
      </trkpt>
      <trkpt lat="46.5105" lon="-1.81688">
        <ele>11.6</ele>
        <time>2020-03-11T10:35:53Z</time>
      </trkpt>
      <trkpt lat="46.51043" lon="-1.81722">
        <ele>11.5</ele>
        <time>2020-03-11T10:35:53Z</time>
      </trkpt>
      <trkpt lat="46.51037" lon="-1.81756">
        <ele>11</ele>
        <time>2020-03-11T10:35:53Z</time>
      </trkpt>
      <trkpt lat="46.51035" lon="-1.81835">
        <ele>8</ele>
        <time>2020-03-11T10:35:53Z</time>
      </trkpt>
      <trkpt lat="46.51021" lon="-1.81855">
        <ele>8</ele>
        <time>2020-03-11T10:35:53Z</time>
      </trkpt>
      <trkpt lat="46.50994" lon="-1.81847">
        <ele>7.6</ele>
        <time>2020-03-11T10:35:53Z</time>
      </trkpt>
      <trkpt lat="46.50965" lon="-1.81829">
        <ele>6.1</ele>
        <time>2020-03-11T10:35:53Z</time>
      </trkpt>
      <trkpt lat="46.50946" lon="-1.81817">
        <ele>5.1</ele>
        <time>2020-03-11T10:35:53Z</time>
      </trkpt>
      <trkpt lat="46.50928" lon="-1.81808">
        <ele>5.5</ele>
        <time>2020-03-11T10:35:53Z</time>
      </trkpt>
      <trkpt lat="46.50908" lon="-1.81801">
        <ele>5.2</ele>
        <time>2020-03-11T10:35:53Z</time>
      </trkpt>
      <trkpt lat="46.50888" lon="-1.81792">
        <ele>5.4</ele>
        <time>2020-03-11T10:35:53Z</time>
      </trkpt>
      <trkpt lat="46.50851" lon="-1.81759">
        <ele>4.9</ele>
        <time>2020-03-11T10:35:53Z</time>
      </trkpt>
      <trkpt lat="46.50829" lon="-1.81742">
        <ele>5.1</ele>
        <time>2020-03-11T10:35:53Z</time>
      </trkpt>
      <trkpt lat="46.5079" lon="-1.81727">
        <ele>5.4</ele>
        <time>2020-03-11T10:35:53Z</time>
      </trkpt>
      <trkpt lat="46.50762" lon="-1.81721">
        <ele>6</ele>
        <time>2020-03-11T10:35:53Z</time>
      </trkpt>
      <trkpt lat="46.5074" lon="-1.8172">
        <ele>5.7</ele>
        <time>2020-03-11T10:35:53Z</time>
      </trkpt>
      <trkpt lat="46.50722" lon="-1.81712">
        <ele>5.7</ele>
        <time>2020-03-11T10:35:53Z</time>
      </trkpt>
      <trkpt lat="46.50687" lon="-1.81699">
        <ele>5.9</ele>
        <time>2020-03-11T10:35:53Z</time>
      </trkpt>
      <trkpt lat="46.50664" lon="-1.81692">
        <ele>5</ele>
        <time>2020-03-11T10:35:53Z</time>
      </trkpt>
      <trkpt lat="46.50646" lon="-1.81687">
        <ele>4.9</ele>
        <time>2020-03-11T10:35:53Z</time>
      </trkpt>
      <trkpt lat="46.50623" lon="-1.8169">
        <ele>5.4</ele>
        <time>2020-03-11T10:35:53Z</time>
      </trkpt>
      <trkpt lat="46.50605" lon="-1.81686">
        <ele>5.6</ele>
        <time>2020-03-11T10:35:53Z</time>
      </trkpt>
      <trkpt lat="46.50579" lon="-1.81649">
        <ele>6.4</ele>
        <time>2020-03-11T10:35:53Z</time>
      </trkpt>
      <trkpt lat="46.50554" lon="-1.81626">
        <ele>6.8</ele>
        <time>2020-03-11T10:35:53Z</time>
      </trkpt>
      <trkpt lat="46.50535" lon="-1.81606">
        <ele>7.4</ele>
        <time>2020-03-11T10:35:53Z</time>
      </trkpt>
      <trkpt lat="46.50521" lon="-1.81587">
        <ele>7.9</ele>
        <time>2020-03-11T10:35:53Z</time>
      </trkpt>
      <trkpt lat="46.50505" lon="-1.81573">
        <ele>7.9</ele>
        <time>2020-03-11T10:35:53Z</time>
      </trkpt>
      <trkpt lat="46.50479" lon="-1.81554">
        <ele>8</ele>
        <time>2020-03-11T10:35:53Z</time>
      </trkpt>
      <trkpt lat="46.5046" lon="-1.81539">
        <ele>8</ele>
        <time>2020-03-11T10:35:53Z</time>
      </trkpt>
      <trkpt lat="46.50437" lon="-1.81514">
        <ele>7.9</ele>
        <time>2020-03-11T10:35:53Z</time>
      </trkpt>
      <trkpt lat="46.50413" lon="-1.8148">
        <ele>8</ele>
        <time>2020-03-11T10:35:53Z</time>
      </trkpt>
      <trkpt lat="46.50376" lon="-1.81413">
        <ele>8.1</ele>
        <time>2020-03-11T10:35:53Z</time>
      </trkpt>
      <trkpt lat="46.50357" lon="-1.81396">
        <ele>7.9</ele>
        <time>2020-03-11T10:35:53Z</time>
      </trkpt>
      <trkpt lat="46.50345" lon="-1.8137">
        <ele>7.8</ele>
        <time>2020-03-11T10:35:53Z</time>
      </trkpt>
      <trkpt lat="46.50328" lon="-1.813">
        <ele>8.6</ele>
        <time>2020-03-11T10:35:53Z</time>
      </trkpt>
      <trkpt lat="46.50324" lon="-1.81267">
        <ele>8.4</ele>
        <time>2020-03-11T10:35:53Z</time>
      </trkpt>
      <trkpt lat="46.50314" lon="-1.81224">
        <ele>10.2</ele>
        <time>2020-03-11T10:35:53Z</time>
      </trkpt>
      <trkpt lat="46.50305" lon="-1.81184">
        <ele>10.7</ele>
        <time>2020-03-11T10:35:53Z</time>
      </trkpt>
      <trkpt lat="46.50296" lon="-1.81156">
        <ele>11.1</ele>
        <time>2020-03-11T10:35:53Z</time>
      </trkpt>
      <trkpt lat="46.5029" lon="-1.81124">
        <ele>10.4</ele>
        <time>2020-03-11T10:35:53Z</time>
      </trkpt>
      <trkpt lat="46.50284" lon="-1.81098">
        <ele>10.4</ele>
        <time>2020-03-11T10:35:53Z</time>
      </trkpt>
      <trkpt lat="46.50277" lon="-1.81067">
        <ele>11.5</ele>
        <time>2020-03-11T10:35:53Z</time>
      </trkpt>
      <trkpt lat="46.50275" lon="-1.8104">
        <ele>13.2</ele>
        <time>2020-03-11T10:35:53Z</time>
      </trkpt>
      <trkpt lat="46.50265" lon="-1.81004">
        <ele>12.6</ele>
        <time>2020-03-11T10:35:53Z</time>
      </trkpt>
      <trkpt lat="46.50256" lon="-1.80952">
        <ele>14.2</ele>
        <time>2020-03-11T10:35:53Z</time>
      </trkpt>
      <trkpt lat="46.50249" lon="-1.80897">
        <ele>14</ele>
        <time>2020-03-11T10:35:53Z</time>
      </trkpt>
      <trkpt lat="46.50241" lon="-1.80866">
        <ele>14.6</ele>
        <time>2020-03-11T10:35:53Z</time>
      </trkpt>
      <trkpt lat="46.50232" lon="-1.80839">
        <ele>14.4</ele>
        <time>2020-03-11T10:35:53Z</time>
      </trkpt>
      <trkpt lat="46.50226" lon="-1.80805">
        <ele>13.9</ele>
        <time>2020-03-11T10:35:53Z</time>
      </trkpt>
      <trkpt lat="46.50224" lon="-1.80773">
        <ele>14</ele>
        <time>2020-03-11T10:35:53Z</time>
      </trkpt>
      <trkpt lat="46.50222" lon="-1.80742">
        <ele>14</ele>
        <time>2020-03-11T10:35:53Z</time>
      </trkpt>
      <trkpt lat="46.50224" lon="-1.80704">
        <ele>14</ele>
        <time>2020-03-11T10:35:53Z</time>
      </trkpt>
      <trkpt lat="46.50222" lon="-1.80672">
        <ele>14</ele>
        <time>2020-03-11T10:35:53Z</time>
      </trkpt>
      <trkpt lat="46.50215" lon="-1.80641">
        <ele>13.3</ele>
        <time>2020-03-11T10:35:53Z</time>
      </trkpt>
      <trkpt lat="46.50202" lon="-1.80611">
        <ele>13.5</ele>
        <time>2020-03-11T10:35:53Z</time>
      </trkpt>
      <trkpt lat="46.50191" lon="-1.80586">
        <ele>13.1</ele>
        <time>2020-03-11T10:35:53Z</time>
      </trkpt>
      <trkpt lat="46.50179" lon="-1.80561">
        <ele>13</ele>
        <time>2020-03-11T10:35:53Z</time>
      </trkpt>
      <trkpt lat="46.50176" lon="-1.80535">
        <ele>13</ele>
        <time>2020-03-11T10:35:53Z</time>
      </trkpt>
      <trkpt lat="46.50191" lon="-1.80482">
        <ele>12</ele>
        <time>2020-03-11T10:35:53Z</time>
      </trkpt>
      <trkpt lat="46.50207" lon="-1.80419">
        <ele>10.6</ele>
        <time>2020-03-11T10:35:53Z</time>
      </trkpt>
      <trkpt lat="46.50221" lon="-1.80367">
        <ele>10</ele>
        <time>2020-03-11T10:35:53Z</time>
      </trkpt>
      <trkpt lat="46.50227" lon="-1.80337">
        <ele>10</ele>
        <time>2020-03-11T10:35:53Z</time>
      </trkpt>
      <trkpt lat="46.5023" lon="-1.80301">
        <ele>10</ele>
        <time>2020-03-11T10:35:53Z</time>
      </trkpt>
      <trkpt lat="46.50234" lon="-1.80259">
        <ele>10.7</ele>
        <time>2020-03-11T10:35:53Z</time>
      </trkpt>
      <trkpt lat="46.50238" lon="-1.80219">
        <ele>11</ele>
        <time>2020-03-11T10:35:53Z</time>
      </trkpt>
      <trkpt lat="46.50247" lon="-1.80107">
        <ele>9.9</ele>
        <time>2020-03-11T10:35:53Z</time>
      </trkpt>
      <trkpt lat="46.5025" lon="-1.8008">
        <ele>8.9</ele>
        <time>2020-03-11T10:35:53Z</time>
      </trkpt>
      <trkpt lat="46.50264" lon="-1.79993">
        <ele>5.4</ele>
        <time>2020-03-11T10:35:53Z</time>
      </trkpt>
      <trkpt lat="46.50274" lon="-1.79939">
        <ele>4.1</ele>
        <time>2020-03-11T10:35:53Z</time>
      </trkpt>
      <trkpt lat="46.5028" lon="-1.79912">
        <ele>3.8</ele>
        <time>2020-03-11T10:35:53Z</time>
      </trkpt>
      <trkpt lat="46.50278" lon="-1.79881">
        <ele>3.3</ele>
        <time>2020-03-11T10:35:53Z</time>
      </trkpt>
      <trkpt lat="46.50264" lon="-1.79863">
        <ele>3.5</ele>
        <time>2020-03-11T10:35:53Z</time>
      </trkpt>
      <trkpt lat="46.50265" lon="-1.79834">
        <ele>3.5</ele>
        <time>2020-03-11T10:35:53Z</time>
      </trkpt>
      <trkpt lat="46.5028" lon="-1.79814">
        <ele>4</ele>
        <time>2020-03-11T10:35:53Z</time>
      </trkpt>
      <trkpt lat="46.50291" lon="-1.79783">
        <ele>4</ele>
        <time>2020-03-11T10:35:53Z</time>
      </trkpt>
      <trkpt lat="46.50301" lon="-1.79739">
        <ele>4</ele>
        <time>2020-03-11T10:35:53Z</time>
      </trkpt>
      <trkpt lat="46.50313" lon="-1.79696">
        <ele>4.3</ele>
        <time>2020-03-11T10:35:53Z</time>
      </trkpt>
      <trkpt lat="46.50339" lon="-1.79633">
        <ele>5</ele>
        <time>2020-03-11T10:35:53Z</time>
      </trkpt>
      <trkpt lat="46.50348" lon="-1.79609">
        <ele>5</ele>
        <time>2020-03-11T10:35:53Z</time>
      </trkpt>
      <trkpt lat="46.50376" lon="-1.79532">
        <ele>6</ele>
        <time>2020-03-11T10:35:53Z</time>
      </trkpt>
      <trkpt lat="46.50413" lon="-1.79427">
        <ele>5.7</ele>
        <time>2020-03-11T10:35:53Z</time>
      </trkpt>
      <trkpt lat="46.50422" lon="-1.79401">
        <ele>5.7</ele>
        <time>2020-03-11T10:35:53Z</time>
      </trkpt>
      <trkpt lat="46.5043" lon="-1.79376">
        <ele>5.5</ele>
        <time>2020-03-11T10:35:53Z</time>
      </trkpt>
      <trkpt lat="46.50455" lon="-1.79282">
        <ele>5.4</ele>
        <time>2020-03-11T10:35:53Z</time>
      </trkpt>
      <trkpt lat="46.50477" lon="-1.79201">
        <ele>4.4</ele>
        <time>2020-03-11T10:35:53Z</time>
      </trkpt>
      <trkpt lat="46.50485" lon="-1.7917">
        <ele>5</ele>
        <time>2020-03-11T10:35:53Z</time>
      </trkpt>
      <trkpt lat="46.50496" lon="-1.79123">
        <ele>5</ele>
        <time>2020-03-11T10:35:53Z</time>
      </trkpt>
      <trkpt lat="46.50504" lon="-1.79082">
        <ele>4.6</ele>
        <time>2020-03-11T10:35:53Z</time>
      </trkpt>
      <trkpt lat="46.5051" lon="-1.79048">
        <ele>4.5</ele>
        <time>2020-03-11T10:35:53Z</time>
      </trkpt>
      <trkpt lat="46.50514" lon="-1.79019">
        <ele>5</ele>
        <time>2020-03-11T10:35:53Z</time>
      </trkpt>
      <trkpt lat="46.50515" lon="-1.78988">
        <ele>5</ele>
        <time>2020-03-11T10:35:53Z</time>
      </trkpt>
      <trkpt lat="46.50506" lon="-1.78959">
        <ele>4.5</ele>
        <time>2020-03-11T10:35:53Z</time>
      </trkpt>
      <trkpt lat="46.50486" lon="-1.78934">
        <ele>4</ele>
        <time>2020-03-11T10:35:53Z</time>
      </trkpt>
      <trkpt lat="46.50463" lon="-1.78909">
        <ele>4</ele>
        <time>2020-03-11T10:35:53Z</time>
      </trkpt>
      <trkpt lat="46.50447" lon="-1.78891">
        <ele>4</ele>
        <time>2020-03-11T10:35:53Z</time>
      </trkpt>
      <trkpt lat="46.50358" lon="-1.78794">
        <ele>4</ele>
        <time>2020-03-11T10:35:53Z</time>
      </trkpt>
      <trkpt lat="46.50302" lon="-1.78734">
        <ele>4</ele>
        <time>2020-03-11T10:35:53Z</time>
      </trkpt>
      <trkpt lat="46.50279" lon="-1.78709">
        <ele>4</ele>
        <time>2020-03-11T10:35:53Z</time>
      </trkpt>
      <trkpt lat="46.50262" lon="-1.78692">
        <ele>4</ele>
        <time>2020-03-11T10:35:53Z</time>
      </trkpt>
      <trkpt lat="46.50231" lon="-1.78663">
        <ele>4</ele>
        <time>2020-03-11T10:35:53Z</time>
      </trkpt>
      <trkpt lat="46.50201" lon="-1.78635">
        <ele>4</ele>
        <time>2020-03-11T10:35:53Z</time>
      </trkpt>
      <trkpt lat="46.50178" lon="-1.78617">
        <ele>4</ele>
        <time>2020-03-11T10:35:53Z</time>
      </trkpt>
      <trkpt lat="46.50145" lon="-1.786">
        <ele>4</ele>
        <time>2020-03-11T10:35:53Z</time>
      </trkpt>
      <trkpt lat="46.50124" lon="-1.78593">
        <ele>4</ele>
        <time>2020-03-11T10:35:53Z</time>
      </trkpt>
      <trkpt lat="46.50098" lon="-1.78589">
        <ele>4</ele>
        <time>2020-03-11T10:35:53Z</time>
      </trkpt>
      <trkpt lat="46.5008" lon="-1.78588">
        <ele>4.1</ele>
        <time>2020-03-11T10:35:53Z</time>
      </trkpt>
      <trkpt lat="46.50055" lon="-1.78615">
        <ele>4</ele>
        <time>2020-03-11T10:35:53Z</time>
      </trkpt>
      <trkpt lat="46.50033" lon="-1.78615">
        <ele>4.8</ele>
        <time>2020-03-11T10:35:53Z</time>
      </trkpt>
      <trkpt lat="46.50015" lon="-1.78583">
        <ele>5</ele>
        <time>2020-03-11T10:35:53Z</time>
      </trkpt>
      <trkpt lat="46.49976" lon="-1.78542">
        <ele>5</ele>
        <time>2020-03-11T10:35:53Z</time>
      </trkpt>
      <trkpt lat="46.49958" lon="-1.7852">
        <ele>4.6</ele>
        <time>2020-03-11T10:35:53Z</time>
      </trkpt>
      <trkpt lat="46.49942" lon="-1.78506">
        <ele>4.8</ele>
        <time>2020-03-11T10:35:53Z</time>
      </trkpt>
      <trkpt lat="46.49896" lon="-1.78494">
        <ele>4.4</ele>
        <time>2020-03-11T10:35:53Z</time>
      </trkpt>
      <trkpt lat="46.49878" lon="-1.78495">
        <ele>4.1</ele>
        <time>2020-03-11T10:35:53Z</time>
      </trkpt>
      <trkpt lat="46.49864" lon="-1.78514">
        <ele>4</ele>
        <time>2020-03-11T10:35:53Z</time>
      </trkpt>
      <trkpt lat="46.49848" lon="-1.78499">
        <ele>4</ele>
        <time>2020-03-11T10:35:53Z</time>
      </trkpt>
      <trkpt lat="46.49831" lon="-1.78514">
        <ele>4</ele>
        <time>2020-03-11T10:35:53Z</time>
      </trkpt>
      <trkpt lat="46.49817" lon="-1.78583">
        <ele>4</ele>
        <time>2020-03-11T10:35:53Z</time>
      </trkpt>
      <trkpt lat="46.49807" lon="-1.78609">
        <ele>4</ele>
        <time>2020-03-11T10:35:53Z</time>
      </trkpt>
      <trkpt lat="46.49781" lon="-1.78591">
        <ele>4</ele>
        <time>2020-03-11T10:35:53Z</time>
      </trkpt>
      <trkpt lat="46.49763" lon="-1.78599">
        <ele>4</ele>
        <time>2020-03-11T10:35:53Z</time>
      </trkpt>
      <trkpt lat="46.49746" lon="-1.7865">
        <ele>4</ele>
        <time>2020-03-11T10:35:53Z</time>
      </trkpt>
      <trkpt lat="46.49734" lon="-1.78688">
        <ele>4</ele>
        <time>2020-03-11T10:35:53Z</time>
      </trkpt>
      <trkpt lat="46.49688" lon="-1.78796">
        <ele>4.2</ele>
        <time>2020-03-11T10:35:53Z</time>
      </trkpt>
      <trkpt lat="46.49657" lon="-1.78869">
        <ele>4</ele>
        <time>2020-03-11T10:35:53Z</time>
      </trkpt>
      <trkpt lat="46.49631" lon="-1.78929">
        <ele>3</ele>
        <time>2020-03-11T10:35:53Z</time>
      </trkpt>
      <trkpt lat="46.4962" lon="-1.7898">
        <ele>3.3</ele>
        <time>2020-03-11T10:35:53Z</time>
      </trkpt>
      <trkpt lat="46.49615" lon="-1.79012">
        <ele>3.6</ele>
        <time>2020-03-11T10:35:53Z</time>
      </trkpt>
      <trkpt lat="46.4961" lon="-1.79042">
        <ele>4</ele>
        <time>2020-03-11T10:35:53Z</time>
      </trkpt>
      <trkpt lat="46.49613" lon="-1.79099">
        <ele>3.8</ele>
        <time>2020-03-11T10:35:53Z</time>
      </trkpt>
      <trkpt lat="46.4962" lon="-1.79165">
        <ele>3</ele>
        <time>2020-03-11T10:35:53Z</time>
      </trkpt>
      <trkpt lat="46.49628" lon="-1.7924">
        <ele>3</ele>
        <time>2020-03-11T10:35:53Z</time>
      </trkpt>
      <trkpt lat="46.49633" lon="-1.79316">
        <ele>3.7</ele>
        <time>2020-03-11T10:35:53Z</time>
      </trkpt>
      <trkpt lat="46.49635" lon="-1.79359">
        <ele>3.9</ele>
        <time>2020-03-11T10:35:53Z</time>
      </trkpt>
      <trkpt lat="46.49623" lon="-1.79433">
        <ele>3.5</ele>
        <time>2020-03-11T10:35:53Z</time>
      </trkpt>
      <trkpt lat="46.49615" lon="-1.79457">
        <ele>4.4</ele>
        <time>2020-03-11T10:35:53Z</time>
      </trkpt>
      <trkpt lat="46.49605" lon="-1.79482">
        <ele>4.2</ele>
        <time>2020-03-11T10:35:53Z</time>
      </trkpt>
      <trkpt lat="46.49587" lon="-1.79483">
        <ele>4.8</ele>
        <time>2020-03-11T10:35:53Z</time>
      </trkpt>
      <trkpt lat="46.49563" lon="-1.7948">
        <ele>4.8</ele>
        <time>2020-03-11T10:35:53Z</time>
      </trkpt>
      <trkpt lat="46.49535" lon="-1.79469">
        <ele>5</ele>
        <time>2020-03-11T10:35:53Z</time>
      </trkpt>
      <trkpt lat="46.49517" lon="-1.7946">
        <ele>4.8</ele>
        <time>2020-03-11T10:35:53Z</time>
      </trkpt>
      <trkpt lat="46.49501" lon="-1.79448">
        <ele>4.9</ele>
        <time>2020-03-11T10:35:53Z</time>
      </trkpt>
      <trkpt lat="46.49481" lon="-1.79442">
        <ele>4.9</ele>
        <time>2020-03-11T10:35:53Z</time>
      </trkpt>
      <trkpt lat="46.49455" lon="-1.79433">
        <ele>4.8</ele>
        <time>2020-03-11T10:35:53Z</time>
      </trkpt>
      <trkpt lat="46.49439" lon="-1.79421">
        <ele>4.6</ele>
        <time>2020-03-11T10:35:53Z</time>
      </trkpt>
      <trkpt lat="46.49414" lon="-1.79386">
        <ele>5.7</ele>
        <time>2020-03-11T10:35:53Z</time>
      </trkpt>
      <trkpt lat="46.49391" lon="-1.79349">
        <ele>6</ele>
        <time>2020-03-11T10:35:53Z</time>
      </trkpt>
      <trkpt lat="46.49374" lon="-1.79322">
        <ele>6</ele>
        <time>2020-03-11T10:35:53Z</time>
      </trkpt>
      <trkpt lat="46.49363" lon="-1.79298">
        <ele>6</ele>
        <time>2020-03-11T10:35:53Z</time>
      </trkpt>
      <trkpt lat="46.49351" lon="-1.79275">
        <ele>5.9</ele>
        <time>2020-03-11T10:35:53Z</time>
      </trkpt>
      <trkpt lat="46.4941" lon="-1.79199">
        <ele>5.8</ele>
        <time>2020-03-11T10:35:53Z</time>
      </trkpt>
      <trkpt lat="46.49462" lon="-1.79133">
        <ele>5.9</ele>
        <time>2020-03-11T10:35:53Z</time>
      </trkpt>
      <trkpt lat="46.49465" lon="-1.79052">
        <ele>5.9</ele>
        <time>2020-03-11T10:35:53Z</time>
      </trkpt>
      <trkpt lat="46.49466" lon="-1.7897">
        <ele>5.3</ele>
        <time>2020-03-11T10:35:53Z</time>
      </trkpt>
      <trkpt lat="46.49469" lon="-1.78837">
        <ele>5.5</ele>
        <time>2020-03-11T10:35:53Z</time>
      </trkpt>
      <trkpt lat="46.49471" lon="-1.78713">
        <ele>5.8</ele>
        <time>2020-03-11T10:35:53Z</time>
      </trkpt>
      <trkpt lat="46.49473" lon="-1.78618">
        <ele>6.1</ele>
        <time>2020-03-11T10:35:53Z</time>
      </trkpt>
      <trkpt lat="46.49474" lon="-1.78525">
        <ele>6.1</ele>
        <time>2020-03-11T10:35:53Z</time>
      </trkpt>
      <trkpt lat="46.49476" lon="-1.78452">
        <ele>6.4</ele>
        <time>2020-03-11T10:35:53Z</time>
      </trkpt>
      <trkpt lat="46.49476" lon="-1.7841">
        <ele>6.5</ele>
        <time>2020-03-11T10:35:53Z</time>
      </trkpt>
      <trkpt lat="46.49474" lon="-1.78367">
        <ele>7.1</ele>
        <time>2020-03-11T10:35:53Z</time>
      </trkpt>
      <trkpt lat="46.49468" lon="-1.78338">
        <ele>5.5</ele>
        <time>2020-03-11T10:35:53Z</time>
      </trkpt>
      <trkpt lat="46.49458" lon="-1.7828">
        <ele>5.4</ele>
        <time>2020-03-11T10:35:53Z</time>
      </trkpt>
      <trkpt lat="46.49452" lon="-1.78243">
        <ele>6.3</ele>
        <time>2020-03-11T10:35:53Z</time>
      </trkpt>
      <trkpt lat="46.49438" lon="-1.78152">
        <ele>6.1</ele>
        <time>2020-03-11T10:35:53Z</time>
      </trkpt>
      <trkpt lat="46.49428" lon="-1.78104">
        <ele>6.1</ele>
        <time>2020-03-11T10:35:53Z</time>
      </trkpt>
      <trkpt lat="46.49393" lon="-1.77993">
        <ele>6.4</ele>
        <time>2020-03-11T10:35:53Z</time>
      </trkpt>
      <trkpt lat="46.49347" lon="-1.77865">
        <ele>5.8</ele>
        <time>2020-03-11T10:35:53Z</time>
      </trkpt>
      <trkpt lat="46.49322" lon="-1.77792">
        <ele>5.2</ele>
        <time>2020-03-11T10:35:53Z</time>
      </trkpt>
      <trkpt lat="46.49304" lon="-1.77742">
        <ele>5.8</ele>
        <time>2020-03-11T10:35:53Z</time>
      </trkpt>
      <trkpt lat="46.4926" lon="-1.77658">
        <ele>5.6</ele>
        <time>2020-03-11T10:35:53Z</time>
      </trkpt>
      <trkpt lat="46.49232" lon="-1.77618">
        <ele>5</ele>
        <time>2020-03-11T10:35:53Z</time>
      </trkpt>
      <trkpt lat="46.49192" lon="-1.7756">
        <ele>5.2</ele>
        <time>2020-03-11T10:35:53Z</time>
      </trkpt>
      <trkpt lat="46.49155" lon="-1.77511">
        <ele>4.6</ele>
        <time>2020-03-11T10:35:53Z</time>
      </trkpt>
      <trkpt lat="46.49121" lon="-1.77463">
        <ele>4.4</ele>
        <time>2020-03-11T10:35:53Z</time>
      </trkpt>
      <trkpt lat="46.49091" lon="-1.77393">
        <ele>5.1</ele>
        <time>2020-03-11T10:35:53Z</time>
      </trkpt>
      <trkpt lat="46.49053" lon="-1.773">
        <ele>6.5</ele>
        <time>2020-03-11T10:35:53Z</time>
      </trkpt>
      <trkpt lat="46.49037" lon="-1.77264">
        <ele>5</ele>
        <time>2020-03-11T10:35:53Z</time>
      </trkpt>
      <trkpt lat="46.48992" lon="-1.77157">
        <ele>5.8</ele>
        <time>2020-03-11T10:35:53Z</time>
      </trkpt>
      <trkpt lat="46.48964" lon="-1.77091">
        <ele>5.7</ele>
        <time>2020-03-11T10:35:53Z</time>
      </trkpt>
      <trkpt lat="46.48953" lon="-1.77067">
        <ele>5.5</ele>
        <time>2020-03-11T10:35:53Z</time>
      </trkpt>
      <trkpt lat="46.48923" lon="-1.76998">
        <ele>7</ele>
        <time>2020-03-11T10:35:53Z</time>
      </trkpt>
      <trkpt lat="46.4891" lon="-1.76976">
        <ele>7.1</ele>
        <time>2020-03-11T10:35:53Z</time>
      </trkpt>
      <trkpt lat="46.48894" lon="-1.76955">
        <ele>7.8</ele>
        <time>2020-03-11T10:35:53Z</time>
      </trkpt>
      <trkpt lat="46.4887" lon="-1.76933">
        <ele>8.8</ele>
        <time>2020-03-11T10:35:53Z</time>
      </trkpt>
      <trkpt lat="46.48839" lon="-1.76899">
        <ele>9.7</ele>
        <time>2020-03-11T10:35:53Z</time>
      </trkpt>
      <trkpt lat="46.48816" lon="-1.76877">
        <ele>10</ele>
        <time>2020-03-11T10:35:53Z</time>
      </trkpt>
      <trkpt lat="46.48774" lon="-1.76837">
        <ele>9.9</ele>
        <time>2020-03-11T10:35:53Z</time>
      </trkpt>
      <trkpt lat="46.48758" lon="-1.76822">
        <ele>10.1</ele>
        <time>2020-03-11T10:35:53Z</time>
      </trkpt>
      <trkpt lat="46.48737" lon="-1.76802">
        <ele>10.1</ele>
        <time>2020-03-11T10:35:53Z</time>
      </trkpt>
      <trkpt lat="46.48695" lon="-1.76761">
        <ele>9.6</ele>
        <time>2020-03-11T10:35:53Z</time>
      </trkpt>
      <trkpt lat="46.48676" lon="-1.76743">
        <ele>10.1</ele>
        <time>2020-03-11T10:35:53Z</time>
      </trkpt>
      <trkpt lat="46.4865" lon="-1.76718">
        <ele>9</ele>
        <time>2020-03-11T10:35:53Z</time>
      </trkpt>
      <trkpt lat="46.4862" lon="-1.7669">
        <ele>9.5</ele>
        <time>2020-03-11T10:35:53Z</time>
      </trkpt>
      <trkpt lat="46.48552" lon="-1.76626">
        <ele>8.9</ele>
        <time>2020-03-11T10:35:53Z</time>
      </trkpt>
      <trkpt lat="46.48524" lon="-1.76599">
        <ele>8</ele>
        <time>2020-03-11T10:35:53Z</time>
      </trkpt>
      <trkpt lat="46.48495" lon="-1.76571">
        <ele>7.9</ele>
        <time>2020-03-11T10:35:53Z</time>
      </trkpt>
      <trkpt lat="46.48479" lon="-1.76556">
        <ele>8.9</ele>
        <time>2020-03-11T10:35:53Z</time>
      </trkpt>
      <trkpt lat="46.48461" lon="-1.76539">
        <ele>7.8</ele>
        <time>2020-03-11T10:35:53Z</time>
      </trkpt>
      <trkpt lat="46.48445" lon="-1.76523">
        <ele>8</ele>
        <time>2020-03-11T10:35:53Z</time>
      </trkpt>
      <trkpt lat="46.48369" lon="-1.76435">
        <ele>6.1</ele>
        <time>2020-03-11T10:35:53Z</time>
      </trkpt>
      <trkpt lat="46.48336" lon="-1.76395">
        <ele>7</ele>
        <time>2020-03-11T10:35:53Z</time>
      </trkpt>
      <trkpt lat="46.48306" lon="-1.76361">
        <ele>8</ele>
        <time>2020-03-11T10:35:53Z</time>
      </trkpt>
      <trkpt lat="46.48217" lon="-1.76256">
        <ele>6.6</ele>
        <time>2020-03-11T10:35:53Z</time>
      </trkpt>
      <trkpt lat="46.48163" lon="-1.76192">
        <ele>7.5</ele>
        <time>2020-03-11T10:35:53Z</time>
      </trkpt>
      <trkpt lat="46.48125" lon="-1.76147">
        <ele>6.9</ele>
        <time>2020-03-11T10:35:53Z</time>
      </trkpt>
      <trkpt lat="46.48097" lon="-1.76118">
        <ele>7.9</ele>
        <time>2020-03-11T10:35:53Z</time>
      </trkpt>
      <trkpt lat="46.48073" lon="-1.76095">
        <ele>7.5</ele>
        <time>2020-03-11T10:35:53Z</time>
      </trkpt>
      <trkpt lat="46.48052" lon="-1.76081">
        <ele>7.9</ele>
        <time>2020-03-11T10:35:53Z</time>
      </trkpt>
      <trkpt lat="46.48028" lon="-1.76072">
        <ele>7.8</ele>
        <time>2020-03-11T10:35:53Z</time>
      </trkpt>
      <trkpt lat="46.48002" lon="-1.76065">
        <ele>7.7</ele>
        <time>2020-03-11T10:35:53Z</time>
      </trkpt>
      <trkpt lat="46.47979" lon="-1.76055">
        <ele>9</ele>
        <time>2020-03-11T10:35:53Z</time>
      </trkpt>
      <trkpt lat="46.4795" lon="-1.76046">
        <ele>9.3</ele>
        <time>2020-03-11T10:35:53Z</time>
      </trkpt>
      <trkpt lat="46.47924" lon="-1.76045">
        <ele>8.7</ele>
        <time>2020-03-11T10:35:53Z</time>
      </trkpt>
      <trkpt lat="46.47875" lon="-1.76031">
        <ele>10.2</ele>
        <time>2020-03-11T10:35:53Z</time>
      </trkpt>
      <trkpt lat="46.47849" lon="-1.76032">
        <ele>9.4</ele>
        <time>2020-03-11T10:35:53Z</time>
      </trkpt>
      <trkpt lat="46.47829" lon="-1.76026">
        <ele>9.4</ele>
        <time>2020-03-11T10:35:53Z</time>
      </trkpt>
      <trkpt lat="46.47809" lon="-1.76006">
        <ele>9.2</ele>
        <time>2020-03-11T10:35:53Z</time>
      </trkpt>
      <trkpt lat="46.47793" lon="-1.75994">
        <ele>9.1</ele>
        <time>2020-03-11T10:35:53Z</time>
      </trkpt>
      <trkpt lat="46.47773" lon="-1.75974">
        <ele>9.1</ele>
        <time>2020-03-11T10:35:53Z</time>
      </trkpt>
      <trkpt lat="46.4776" lon="-1.75942">
        <ele>7</ele>
        <time>2020-03-11T10:35:53Z</time>
      </trkpt>
      <trkpt lat="46.4775" lon="-1.7591">
        <ele>9.2</ele>
        <time>2020-03-11T10:35:53Z</time>
      </trkpt>
      <trkpt lat="46.4771" lon="-1.75847">
        <ele>8</ele>
        <time>2020-03-11T10:35:53Z</time>
      </trkpt>
      <trkpt lat="46.47683" lon="-1.75805">
        <ele>9.6</ele>
        <time>2020-03-11T10:35:53Z</time>
      </trkpt>
      <trkpt lat="46.47656" lon="-1.75778">
        <ele>9.2</ele>
        <time>2020-03-11T10:35:53Z</time>
      </trkpt>
      <trkpt lat="46.47634" lon="-1.7576">
        <ele>9.9</ele>
        <time>2020-03-11T10:35:53Z</time>
      </trkpt>
      <trkpt lat="46.47614" lon="-1.75731">
        <ele>11.6</ele>
        <time>2020-03-11T10:35:53Z</time>
      </trkpt>
      <trkpt lat="46.476" lon="-1.7571">
        <ele>10.9</ele>
        <time>2020-03-11T10:35:53Z</time>
      </trkpt>
      <trkpt lat="46.47587" lon="-1.75691">
        <ele>11.1</ele>
        <time>2020-03-11T10:35:53Z</time>
      </trkpt>
      <trkpt lat="46.47568" lon="-1.75669">
        <ele>10.3</ele>
        <time>2020-03-11T10:35:53Z</time>
      </trkpt>
      <trkpt lat="46.47548" lon="-1.75645">
        <ele>10</ele>
        <time>2020-03-11T10:35:53Z</time>
      </trkpt>
      <trkpt lat="46.47528" lon="-1.75613">
        <ele>9.9</ele>
        <time>2020-03-11T10:35:53Z</time>
      </trkpt>
      <trkpt lat="46.47512" lon="-1.75573">
        <ele>10</ele>
        <time>2020-03-11T10:35:53Z</time>
      </trkpt>
      <trkpt lat="46.47506" lon="-1.75532">
        <ele>10.8</ele>
        <time>2020-03-11T10:35:53Z</time>
      </trkpt>
      <trkpt lat="46.47503" lon="-1.75497">
        <ele>10</ele>
        <time>2020-03-11T10:35:53Z</time>
      </trkpt>
      <trkpt lat="46.47497" lon="-1.75467">
        <ele>9.9</ele>
        <time>2020-03-11T10:35:53Z</time>
      </trkpt>
      <trkpt lat="46.47492" lon="-1.75439">
        <ele>9.5</ele>
        <time>2020-03-11T10:35:53Z</time>
      </trkpt>
      <trkpt lat="46.47485" lon="-1.75411">
        <ele>8.3</ele>
        <time>2020-03-11T10:35:53Z</time>
      </trkpt>
      <trkpt lat="46.4747" lon="-1.75376">
        <ele>7.1</ele>
        <time>2020-03-11T10:35:53Z</time>
      </trkpt>
      <trkpt lat="46.47464" lon="-1.75349">
        <ele>7.8</ele>
        <time>2020-03-11T10:35:53Z</time>
      </trkpt>
      <trkpt lat="46.47446" lon="-1.75311">
        <ele>9</ele>
        <time>2020-03-11T10:35:53Z</time>
      </trkpt>
      <trkpt lat="46.47444" lon="-1.75283">
        <ele>9.7</ele>
        <time>2020-03-11T10:35:53Z</time>
      </trkpt>
      <trkpt lat="46.47436" lon="-1.7524">
        <ele>8.7</ele>
        <time>2020-03-11T10:35:53Z</time>
      </trkpt>
      <trkpt lat="46.47438" lon="-1.75207">
        <ele>9.6</ele>
        <time>2020-03-11T10:35:53Z</time>
      </trkpt>
      <trkpt lat="46.47419" lon="-1.75067">
        <ele>12.1</ele>
        <time>2020-03-11T10:35:53Z</time>
      </trkpt>
      <trkpt lat="46.47395" lon="-1.74952">
        <ele>12.2</ele>
        <time>2020-03-11T10:35:53Z</time>
      </trkpt>
      <trkpt lat="46.47386" lon="-1.74908">
        <ele>12.1</ele>
        <time>2020-03-11T10:35:53Z</time>
      </trkpt>
      <trkpt lat="46.47376" lon="-1.74866">
        <ele>12.1</ele>
        <time>2020-03-11T10:35:53Z</time>
      </trkpt>
      <trkpt lat="46.47363" lon="-1.74826">
        <ele>12.1</ele>
        <time>2020-03-11T10:35:53Z</time>
      </trkpt>
      <trkpt lat="46.4735" lon="-1.74792">
        <ele>11.9</ele>
        <time>2020-03-11T10:35:53Z</time>
      </trkpt>
      <trkpt lat="46.47338" lon="-1.74768">
        <ele>12.2</ele>
        <time>2020-03-11T10:35:53Z</time>
      </trkpt>
      <trkpt lat="46.47321" lon="-1.74737">
        <ele>12</ele>
        <time>2020-03-11T10:35:53Z</time>
      </trkpt>
      <trkpt lat="46.47305" lon="-1.74715">
        <ele>12.2</ele>
        <time>2020-03-11T10:35:53Z</time>
      </trkpt>
      <trkpt lat="46.47251" lon="-1.74633">
        <ele>12.3</ele>
        <time>2020-03-11T10:35:53Z</time>
      </trkpt>
      <trkpt lat="46.47238" lon="-1.74613">
        <ele>12.5</ele>
        <time>2020-03-11T10:35:53Z</time>
      </trkpt>
      <trkpt lat="46.47213" lon="-1.74567">
        <ele>12.1</ele>
        <time>2020-03-11T10:35:53Z</time>
      </trkpt>
      <trkpt lat="46.47172" lon="-1.74482">
        <ele>12</ele>
        <time>2020-03-11T10:35:53Z</time>
      </trkpt>
      <trkpt lat="46.4716" lon="-1.74458">
        <ele>12.3</ele>
        <time>2020-03-11T10:35:53Z</time>
      </trkpt>
      <trkpt lat="46.47146" lon="-1.74435">
        <ele>12.3</ele>
        <time>2020-03-11T10:35:53Z</time>
      </trkpt>
      <trkpt lat="46.47129" lon="-1.74406">
        <ele>12</ele>
        <time>2020-03-11T10:35:53Z</time>
      </trkpt>
      <trkpt lat="46.47076" lon="-1.7432">
        <ele>12.2</ele>
        <time>2020-03-11T10:35:53Z</time>
      </trkpt>
      <trkpt lat="46.47032" lon="-1.74256">
        <ele>12.1</ele>
        <time>2020-03-11T10:35:53Z</time>
      </trkpt>
      <trkpt lat="46.47015" lon="-1.74231">
        <ele>12.7</ele>
        <time>2020-03-11T10:35:53Z</time>
      </trkpt>
      <trkpt lat="46.46995" lon="-1.74207">
        <ele>12.7</ele>
        <time>2020-03-11T10:35:53Z</time>
      </trkpt>
      <trkpt lat="46.46971" lon="-1.74189">
        <ele>12.4</ele>
        <time>2020-03-11T10:35:53Z</time>
      </trkpt>
      <trkpt lat="46.46947" lon="-1.74177">
        <ele>12.7</ele>
        <time>2020-03-11T10:35:53Z</time>
      </trkpt>
      <trkpt lat="46.46924" lon="-1.74165">
        <ele>11.6</ele>
        <time>2020-03-11T10:35:53Z</time>
      </trkpt>
      <trkpt lat="46.46907" lon="-1.74154">
        <ele>10.4</ele>
        <time>2020-03-11T10:35:53Z</time>
      </trkpt>
      <trkpt lat="46.46889" lon="-1.74136">
        <ele>12</ele>
        <time>2020-03-11T10:35:53Z</time>
      </trkpt>
      <trkpt lat="46.46873" lon="-1.74112">
        <ele>10.2</ele>
        <time>2020-03-11T10:35:53Z</time>
      </trkpt>
      <trkpt lat="46.46862" lon="-1.74087">
        <ele>12.5</ele>
        <time>2020-03-11T10:35:53Z</time>
      </trkpt>
      <trkpt lat="46.46851" lon="-1.74044">
        <ele>9.5</ele>
        <time>2020-03-11T10:35:53Z</time>
      </trkpt>
      <trkpt lat="46.46847" lon="-1.74001">
        <ele>12.4</ele>
        <time>2020-03-11T10:35:53Z</time>
      </trkpt>
      <trkpt lat="46.46845" lon="-1.73966">
        <ele>12.2</ele>
        <time>2020-03-11T10:35:53Z</time>
      </trkpt>
      <trkpt lat="46.46841" lon="-1.73935">
        <ele>11</ele>
        <time>2020-03-11T10:35:53Z</time>
      </trkpt>
      <trkpt lat="46.46833" lon="-1.73904">
        <ele>10.4</ele>
        <time>2020-03-11T10:35:53Z</time>
      </trkpt>
      <trkpt lat="46.46828" lon="-1.73874">
        <ele>9.3</ele>
        <time>2020-03-11T10:35:53Z</time>
      </trkpt>
      <trkpt lat="46.4683" lon="-1.73844">
        <ele>9.1</ele>
        <time>2020-03-11T10:35:53Z</time>
      </trkpt>
      <trkpt lat="46.46839" lon="-1.73807">
        <ele>7.7</ele>
        <time>2020-03-11T10:35:53Z</time>
      </trkpt>
      <trkpt lat="46.46846" lon="-1.73774">
        <ele>5.3</ele>
        <time>2020-03-11T10:35:53Z</time>
      </trkpt>
      <trkpt lat="46.46844" lon="-1.73743">
        <ele>4.9</ele>
        <time>2020-03-11T10:35:53Z</time>
      </trkpt>
      <trkpt lat="46.46834" lon="-1.73717">
        <ele>4.4</ele>
        <time>2020-03-11T10:35:53Z</time>
      </trkpt>
      <trkpt lat="46.46821" lon="-1.73698">
        <ele>4.4</ele>
        <time>2020-03-11T10:35:53Z</time>
      </trkpt>
      <trkpt lat="46.46802" lon="-1.73687">
        <ele>4.8</ele>
        <time>2020-03-11T10:35:53Z</time>
      </trkpt>
      <trkpt lat="46.4678" lon="-1.73688">
        <ele>7.4</ele>
        <time>2020-03-11T10:35:53Z</time>
      </trkpt>
      <trkpt lat="46.46759" lon="-1.73686">
        <ele>8.9</ele>
        <time>2020-03-11T10:35:53Z</time>
      </trkpt>
      <trkpt lat="46.46737" lon="-1.73663">
        <ele>8.4</ele>
        <time>2020-03-11T10:35:53Z</time>
      </trkpt>
      <trkpt lat="46.46724" lon="-1.73642">
        <ele>9.6</ele>
        <time>2020-03-11T10:35:53Z</time>
      </trkpt>
      <trkpt lat="46.46691" lon="-1.73583">
        <ele>11.6</ele>
        <time>2020-03-11T10:35:53Z</time>
      </trkpt>
      <trkpt lat="46.46679" lon="-1.73561">
        <ele>11.2</ele>
        <time>2020-03-11T10:35:53Z</time>
      </trkpt>
      <trkpt lat="46.46665" lon="-1.73522">
        <ele>11.6</ele>
        <time>2020-03-11T10:35:53Z</time>
      </trkpt>
      <trkpt lat="46.46652" lon="-1.73458">
        <ele>11.7</ele>
        <time>2020-03-11T10:35:53Z</time>
      </trkpt>
      <trkpt lat="46.46636" lon="-1.73393">
        <ele>11.8</ele>
        <time>2020-03-11T10:35:53Z</time>
      </trkpt>
      <trkpt lat="46.46617" lon="-1.73308">
        <ele>12</ele>
        <time>2020-03-11T10:35:53Z</time>
      </trkpt>
      <trkpt lat="46.46603" lon="-1.73248">
        <ele>11.4</ele>
        <time>2020-03-11T10:35:53Z</time>
      </trkpt>
      <trkpt lat="46.46596" lon="-1.73222">
        <ele>12.9</ele>
        <time>2020-03-11T10:35:53Z</time>
      </trkpt>
      <trkpt lat="46.46582" lon="-1.73199">
        <ele>12.8</ele>
        <time>2020-03-11T10:35:53Z</time>
      </trkpt>
      <trkpt lat="46.46562" lon="-1.73188">
        <ele>13</ele>
        <time>2020-03-11T10:35:53Z</time>
      </trkpt>
      <trkpt lat="46.46544" lon="-1.73181">
        <ele>11.9</ele>
        <time>2020-03-11T10:35:53Z</time>
      </trkpt>
      <trkpt lat="46.46522" lon="-1.73167">
        <ele>11.8</ele>
        <time>2020-03-11T10:35:53Z</time>
      </trkpt>
      <trkpt lat="46.46486" lon="-1.73158">
        <ele>10.8</ele>
        <time>2020-03-11T10:35:53Z</time>
      </trkpt>
      <trkpt lat="46.46466" lon="-1.73148">
        <ele>10.7</ele>
        <time>2020-03-11T10:35:53Z</time>
      </trkpt>
      <trkpt lat="46.46453" lon="-1.73123">
        <ele>11.6</ele>
        <time>2020-03-11T10:35:53Z</time>
      </trkpt>
      <trkpt lat="46.46444" lon="-1.73099">
        <ele>12</ele>
        <time>2020-03-11T10:35:53Z</time>
      </trkpt>
      <trkpt lat="46.46425" lon="-1.73063">
        <ele>12.7</ele>
        <time>2020-03-11T10:35:53Z</time>
      </trkpt>
      <trkpt lat="46.46412" lon="-1.72995">
        <ele>14</ele>
        <time>2020-03-11T10:35:53Z</time>
      </trkpt>
      <trkpt lat="46.46381" lon="-1.7286">
        <ele>17</ele>
        <time>2020-03-11T10:35:53Z</time>
      </trkpt>
      <trkpt lat="46.46374" lon="-1.72825">
        <ele>18.1</ele>
        <time>2020-03-11T10:35:53Z</time>
      </trkpt>
      <trkpt lat="46.46372" lon="-1.7279">
        <ele>19</ele>
        <time>2020-03-11T10:35:53Z</time>
      </trkpt>
      <trkpt lat="46.46374" lon="-1.72757">
        <ele>20.6</ele>
        <time>2020-03-11T10:35:53Z</time>
      </trkpt>
      <trkpt lat="46.46378" lon="-1.7271">
        <ele>21.4</ele>
        <time>2020-03-11T10:35:53Z</time>
      </trkpt>
      <trkpt lat="46.46381" lon="-1.72677">
        <ele>22</ele>
        <time>2020-03-11T10:35:53Z</time>
      </trkpt>
      <trkpt lat="46.46378" lon="-1.72624">
        <ele>22.3</ele>
        <time>2020-03-11T10:35:53Z</time>
      </trkpt>
      <trkpt lat="46.46374" lon="-1.7258">
        <ele>23</ele>
        <time>2020-03-11T10:35:53Z</time>
      </trkpt>
      <trkpt lat="46.46369" lon="-1.7253">
        <ele>23</ele>
        <time>2020-03-11T10:35:53Z</time>
      </trkpt>
      <trkpt lat="46.46364" lon="-1.72479">
        <ele>23</ele>
        <time>2020-03-11T10:35:53Z</time>
      </trkpt>
      <trkpt lat="46.46359" lon="-1.72384">
        <ele>23.1</ele>
        <time>2020-03-11T10:35:53Z</time>
      </trkpt>
      <trkpt lat="46.46356" lon="-1.72356">
        <ele>23.2</ele>
        <time>2020-03-11T10:35:53Z</time>
      </trkpt>
      <trkpt lat="46.46347" lon="-1.72293">
        <ele>23</ele>
        <time>2020-03-11T10:35:53Z</time>
      </trkpt>
      <trkpt lat="46.46337" lon="-1.72246">
        <ele>23</ele>
        <time>2020-03-11T10:35:53Z</time>
      </trkpt>
      <trkpt lat="46.4631" lon="-1.72107">
        <ele>22</ele>
        <time>2020-03-11T10:35:53Z</time>
      </trkpt>
      <trkpt lat="46.46302" lon="-1.72069">
        <ele>22.1</ele>
        <time>2020-03-11T10:35:53Z</time>
      </trkpt>
      <trkpt lat="46.46274" lon="-1.72001">
        <ele>21.2</ele>
        <time>2020-03-11T10:35:53Z</time>
      </trkpt>
      <trkpt lat="46.46231" lon="-1.71906">
        <ele>21.7</ele>
        <time>2020-03-11T10:35:53Z</time>
      </trkpt>
      <trkpt lat="46.46215" lon="-1.7188">
        <ele>22</ele>
        <time>2020-03-11T10:35:53Z</time>
      </trkpt>
      <trkpt lat="46.46176" lon="-1.71841">
        <ele>21.8</ele>
        <time>2020-03-11T10:35:53Z</time>
      </trkpt>
      <trkpt lat="46.46137" lon="-1.71808">
        <ele>20.9</ele>
        <time>2020-03-11T10:35:53Z</time>
      </trkpt>
      <trkpt lat="46.46113" lon="-1.71791">
        <ele>20.6</ele>
        <time>2020-03-11T10:35:53Z</time>
      </trkpt>
      <trkpt lat="46.46089" lon="-1.71768">
        <ele>20.1</ele>
        <time>2020-03-11T10:35:53Z</time>
      </trkpt>
      <trkpt lat="46.46071" lon="-1.71743">
        <ele>19.6</ele>
        <time>2020-03-11T10:35:53Z</time>
      </trkpt>
      <trkpt lat="46.46053" lon="-1.71705">
        <ele>18.9</ele>
        <time>2020-03-11T10:35:53Z</time>
      </trkpt>
      <trkpt lat="46.4603" lon="-1.71671">
        <ele>18</ele>
        <time>2020-03-11T10:35:53Z</time>
      </trkpt>
      <trkpt lat="46.4601" lon="-1.71647">
        <ele>16.7</ele>
        <time>2020-03-11T10:35:53Z</time>
      </trkpt>
      <trkpt lat="46.45992" lon="-1.71619">
        <ele>15.8</ele>
        <time>2020-03-11T10:35:53Z</time>
      </trkpt>
      <trkpt lat="46.45979" lon="-1.71593">
        <ele>15.2</ele>
        <time>2020-03-11T10:35:53Z</time>
      </trkpt>
      <trkpt lat="46.45963" lon="-1.71561">
        <ele>14.7</ele>
        <time>2020-03-11T10:35:53Z</time>
      </trkpt>
      <trkpt lat="46.45949" lon="-1.71536">
        <ele>14</ele>
        <time>2020-03-11T10:35:53Z</time>
      </trkpt>
      <trkpt lat="46.45929" lon="-1.71512">
        <ele>12.3</ele>
        <time>2020-03-11T10:35:53Z</time>
      </trkpt>
      <trkpt lat="46.45917" lon="-1.7149">
        <ele>10.7</ele>
        <time>2020-03-11T10:35:53Z</time>
      </trkpt>
      <trkpt lat="46.45909" lon="-1.71463">
        <ele>7.3</ele>
        <time>2020-03-11T10:35:53Z</time>
      </trkpt>
      <trkpt lat="46.45902" lon="-1.71432">
        <ele>5.1</ele>
        <time>2020-03-11T10:35:53Z</time>
      </trkpt>
      <trkpt lat="46.45891" lon="-1.71406">
        <ele>5.6</ele>
        <time>2020-03-11T10:35:53Z</time>
      </trkpt>
      <trkpt lat="46.4587" lon="-1.71389">
        <ele>6.3</ele>
        <time>2020-03-11T10:35:53Z</time>
      </trkpt>
      <trkpt lat="46.45849" lon="-1.71377">
        <ele>6.5</ele>
        <time>2020-03-11T10:35:53Z</time>
      </trkpt>
      <trkpt lat="46.45817" lon="-1.71358">
        <ele>10.9</ele>
        <time>2020-03-11T10:35:53Z</time>
      </trkpt>
      <trkpt lat="46.45781" lon="-1.7133">
        <ele>13</ele>
        <time>2020-03-11T10:35:53Z</time>
      </trkpt>
      <trkpt lat="46.45757" lon="-1.71309">
        <ele>13.1</ele>
        <time>2020-03-11T10:35:53Z</time>
      </trkpt>
      <trkpt lat="46.45737" lon="-1.71308">
        <ele>12.2</ele>
        <time>2020-03-11T10:35:53Z</time>
      </trkpt>
      <trkpt lat="46.45724" lon="-1.71286">
        <ele>14.2</ele>
        <time>2020-03-11T10:35:53Z</time>
      </trkpt>
      <trkpt lat="46.45701" lon="-1.7126">
        <ele>14.1</ele>
        <time>2020-03-11T10:35:53Z</time>
      </trkpt>
      <trkpt lat="46.45681" lon="-1.71243">
        <ele>15.4</ele>
        <time>2020-03-11T10:35:53Z</time>
      </trkpt>
      <trkpt lat="46.45663" lon="-1.71229">
        <ele>15.4</ele>
        <time>2020-03-11T10:35:53Z</time>
      </trkpt>
      <trkpt lat="46.45643" lon="-1.71217">
        <ele>15.3</ele>
        <time>2020-03-11T10:35:53Z</time>
      </trkpt>
      <trkpt lat="46.45614" lon="-1.71206">
        <ele>14.3</ele>
        <time>2020-03-11T10:35:53Z</time>
      </trkpt>
      <trkpt lat="46.45593" lon="-1.71208">
        <ele>12.4</ele>
        <time>2020-03-11T10:35:53Z</time>
      </trkpt>
      <trkpt lat="46.45569" lon="-1.71202">
        <ele>12.1</ele>
        <time>2020-03-11T10:35:53Z</time>
      </trkpt>
      <trkpt lat="46.45551" lon="-1.71195">
        <ele>13.6</ele>
        <time>2020-03-11T10:35:53Z</time>
      </trkpt>
      <trkpt lat="46.4553" lon="-1.71187">
        <ele>13.3</ele>
        <time>2020-03-11T10:35:53Z</time>
      </trkpt>
      <trkpt lat="46.45487" lon="-1.71178">
        <ele>12.6</ele>
        <time>2020-03-11T10:35:53Z</time>
      </trkpt>
      <trkpt lat="46.45466" lon="-1.71177">
        <ele>12.5</ele>
        <time>2020-03-11T10:35:53Z</time>
      </trkpt>
      <trkpt lat="46.45442" lon="-1.71173">
        <ele>11.8</ele>
        <time>2020-03-11T10:35:53Z</time>
      </trkpt>
      <trkpt lat="46.45421" lon="-1.71153">
        <ele>11.6</ele>
        <time>2020-03-11T10:35:53Z</time>
      </trkpt>
      <trkpt lat="46.4541" lon="-1.71128">
        <ele>10.5</ele>
        <time>2020-03-11T10:35:53Z</time>
      </trkpt>
      <trkpt lat="46.45401" lon="-1.71101">
        <ele>10.7</ele>
        <time>2020-03-11T10:35:53Z</time>
      </trkpt>
      <trkpt lat="46.45389" lon="-1.7108">
        <ele>10</ele>
        <time>2020-03-11T10:35:53Z</time>
      </trkpt>
      <trkpt lat="46.45354" lon="-1.71035">
        <ele>12</ele>
        <time>2020-03-11T10:35:53Z</time>
      </trkpt>
      <trkpt lat="46.45335" lon="-1.71023">
        <ele>13</ele>
        <time>2020-03-11T10:35:53Z</time>
      </trkpt>
      <trkpt lat="46.45322" lon="-1.7093">
        <ele>14.7</ele>
        <time>2020-03-11T10:35:53Z</time>
      </trkpt>
      <trkpt lat="46.45286" lon="-1.70703">
        <ele>16.9</ele>
        <time>2020-03-11T10:35:53Z</time>
      </trkpt>
      <trkpt lat="46.4526" lon="-1.70554">
        <ele>17.4</ele>
        <time>2020-03-11T10:35:53Z</time>
      </trkpt>
      <trkpt lat="46.45246" lon="-1.70484">
        <ele>18.5</ele>
        <time>2020-03-11T10:35:53Z</time>
      </trkpt>
      <trkpt lat="46.45209" lon="-1.70298">
        <ele>19.5</ele>
        <time>2020-03-11T10:35:53Z</time>
      </trkpt>
      <trkpt lat="46.45231" lon="-1.70278">
        <ele>20.3</ele>
        <time>2020-03-11T10:35:53Z</time>
      </trkpt>
      <trkpt lat="46.45249" lon="-1.70256">
        <ele>21</ele>
        <time>2020-03-11T10:35:53Z</time>
      </trkpt>
      <trkpt lat="46.45243" lon="-1.70227">
        <ele>21</ele>
        <time>2020-03-11T10:35:53Z</time>
      </trkpt>
      <trkpt lat="46.45239" lon="-1.70199">
        <ele>21</ele>
        <time>2020-03-11T10:35:53Z</time>
      </trkpt>
      <trkpt lat="46.45229" lon="-1.70177">
        <ele>21.6</ele>
        <time>2020-03-11T10:35:53Z</time>
      </trkpt>
      <trkpt lat="46.45202" lon="-1.70169">
        <ele>20.6</ele>
        <time>2020-03-11T10:35:53Z</time>
      </trkpt>
      <trkpt lat="46.45193" lon="-1.70119">
        <ele>20.6</ele>
        <time>2020-03-11T10:35:53Z</time>
      </trkpt>
      <trkpt lat="46.45207" lon="-1.69937">
        <ele>18.6</ele>
        <time>2020-03-11T10:35:53Z</time>
      </trkpt>
      <trkpt lat="46.45214" lon="-1.69892">
        <ele>17.8</ele>
        <time>2020-03-11T10:35:53Z</time>
      </trkpt>
      <trkpt lat="46.45217" lon="-1.69858">
        <ele>16.7</ele>
        <time>2020-03-11T10:35:53Z</time>
      </trkpt>
      <trkpt lat="46.45224" lon="-1.69805">
        <ele>15.1</ele>
        <time>2020-03-11T10:35:53Z</time>
      </trkpt>
      <trkpt lat="46.45235" lon="-1.69777">
        <ele>15.4</ele>
        <time>2020-03-11T10:35:53Z</time>
      </trkpt>
      <trkpt lat="46.45254" lon="-1.69747">
        <ele>15.4</ele>
        <time>2020-03-11T10:35:53Z</time>
      </trkpt>
      <trkpt lat="46.45265" lon="-1.69713">
        <ele>15.7</ele>
        <time>2020-03-11T10:35:53Z</time>
      </trkpt>
      <trkpt lat="46.45263" lon="-1.69678">
        <ele>14.9</ele>
        <time>2020-03-11T10:35:53Z</time>
      </trkpt>
      <trkpt lat="46.45253" lon="-1.69656">
        <ele>14.2</ele>
        <time>2020-03-11T10:35:53Z</time>
      </trkpt>
      <trkpt lat="46.45238" lon="-1.69635">
        <ele>13.6</ele>
        <time>2020-03-11T10:35:53Z</time>
      </trkpt>
      <trkpt lat="46.45238" lon="-1.69607">
        <ele>13.5</ele>
        <time>2020-03-11T10:35:53Z</time>
      </trkpt>
      <trkpt lat="46.45254" lon="-1.69589">
        <ele>14</ele>
        <time>2020-03-11T10:35:53Z</time>
      </trkpt>
      <trkpt lat="46.45252" lon="-1.6955">
        <ele>13.1</ele>
        <time>2020-03-11T10:35:53Z</time>
      </trkpt>
      <trkpt lat="46.45242" lon="-1.69509">
        <ele>12.7</ele>
        <time>2020-03-11T10:35:53Z</time>
      </trkpt>
      <trkpt lat="46.45232" lon="-1.69469">
        <ele>12.4</ele>
        <time>2020-03-11T10:35:53Z</time>
      </trkpt>
      <trkpt lat="46.45124" lon="-1.69004">
        <ele>13.4</ele>
        <time>2020-03-11T10:35:53Z</time>
      </trkpt>
      <trkpt lat="46.45092" lon="-1.68868">
        <ele>14.8</ele>
        <time>2020-03-11T10:35:53Z</time>
      </trkpt>
      <trkpt lat="46.45074" lon="-1.68778">
        <ele>16</ele>
        <time>2020-03-11T10:35:53Z</time>
      </trkpt>
      <trkpt lat="46.45067" lon="-1.687">
        <ele>17</ele>
        <time>2020-03-11T10:35:53Z</time>
      </trkpt>
      <trkpt lat="46.45051" lon="-1.68682">
        <ele>17.4</ele>
        <time>2020-03-11T10:35:53Z</time>
      </trkpt>
      <trkpt lat="46.45007" lon="-1.68614">
        <ele>18.7</ele>
        <time>2020-03-11T10:35:53Z</time>
      </trkpt>
      <trkpt lat="46.44898" lon="-1.68516">
        <ele>21</ele>
        <time>2020-03-11T10:35:53Z</time>
      </trkpt>
      <trkpt lat="46.44803" lon="-1.68425">
        <ele>20.9</ele>
        <time>2020-03-11T10:35:53Z</time>
      </trkpt>
      <trkpt lat="46.44787" lon="-1.68402">
        <ele>21</ele>
        <time>2020-03-11T10:35:53Z</time>
      </trkpt>
      <trkpt lat="46.44769" lon="-1.68377">
        <ele>21.4</ele>
        <time>2020-03-11T10:35:53Z</time>
      </trkpt>
      <trkpt lat="46.4476" lon="-1.68346">
        <ele>22.4</ele>
        <time>2020-03-11T10:35:53Z</time>
      </trkpt>
      <trkpt lat="46.44745" lon="-1.68291">
        <ele>23.2</ele>
        <time>2020-03-11T10:35:53Z</time>
      </trkpt>
      <trkpt lat="46.44726" lon="-1.6821">
        <ele>23.7</ele>
        <time>2020-03-11T10:35:53Z</time>
      </trkpt>
      <trkpt lat="46.44717" lon="-1.68151">
        <ele>23.6</ele>
        <time>2020-03-11T10:35:53Z</time>
      </trkpt>
      <trkpt lat="46.44713" lon="-1.68096">
        <ele>23.5</ele>
        <time>2020-03-11T10:35:53Z</time>
      </trkpt>
      <trkpt lat="46.44706" lon="-1.68067">
        <ele>22.8</ele>
        <time>2020-03-11T10:35:53Z</time>
      </trkpt>
      <trkpt lat="46.44703" lon="-1.68014">
        <ele>22.1</ele>
        <time>2020-03-11T10:35:53Z</time>
      </trkpt>
      <trkpt lat="46.44705" lon="-1.67973">
        <ele>21.4</ele>
        <time>2020-03-11T10:35:53Z</time>
      </trkpt>
      <trkpt lat="46.44708" lon="-1.67941">
        <ele>21.4</ele>
        <time>2020-03-11T10:35:53Z</time>
      </trkpt>
      <trkpt lat="46.44693" lon="-1.67918">
        <ele>20</ele>
        <time>2020-03-11T10:35:53Z</time>
      </trkpt>
      <trkpt lat="46.44694" lon="-1.67891">
        <ele>20</ele>
        <time>2020-03-11T10:35:53Z</time>
      </trkpt>
      <trkpt lat="46.44701" lon="-1.67853">
        <ele>20</ele>
        <time>2020-03-11T10:35:53Z</time>
      </trkpt>
      <trkpt lat="46.44706" lon="-1.67807">
        <ele>19.8</ele>
        <time>2020-03-11T10:35:53Z</time>
      </trkpt>
      <trkpt lat="46.44707" lon="-1.67766">
        <ele>19.9</ele>
        <time>2020-03-11T10:35:53Z</time>
      </trkpt>
      <trkpt lat="46.44705" lon="-1.67728">
        <ele>19.8</ele>
        <time>2020-03-11T10:35:53Z</time>
      </trkpt>
      <trkpt lat="46.44699" lon="-1.67689">
        <ele>19.5</ele>
        <time>2020-03-11T10:35:53Z</time>
      </trkpt>
      <trkpt lat="46.44693" lon="-1.67661">
        <ele>19.7</ele>
        <time>2020-03-11T10:35:53Z</time>
      </trkpt>
      <trkpt lat="46.44685" lon="-1.67625">
        <ele>19</ele>
        <time>2020-03-11T10:35:53Z</time>
      </trkpt>
      <trkpt lat="46.44675" lon="-1.67597">
        <ele>18.6</ele>
        <time>2020-03-11T10:35:53Z</time>
      </trkpt>
      <trkpt lat="46.44662" lon="-1.67568">
        <ele>17.9</ele>
        <time>2020-03-11T10:35:53Z</time>
      </trkpt>
      <trkpt lat="46.44585" lon="-1.67409">
        <ele>16.1</ele>
        <time>2020-03-11T10:35:53Z</time>
      </trkpt>
      <trkpt lat="46.44572" lon="-1.67382">
        <ele>15.4</ele>
        <time>2020-03-11T10:35:53Z</time>
      </trkpt>
      <trkpt lat="46.44554" lon="-1.67371">
        <ele>15</ele>
        <time>2020-03-11T10:35:53Z</time>
      </trkpt>
      <trkpt lat="46.44533" lon="-1.67357">
        <ele>14.3</ele>
        <time>2020-03-11T10:35:53Z</time>
      </trkpt>
      <trkpt lat="46.44515" lon="-1.67333">
        <ele>14.5</ele>
        <time>2020-03-11T10:35:53Z</time>
      </trkpt>
      <trkpt lat="46.44511" lon="-1.67305">
        <ele>14.8</ele>
        <time>2020-03-11T10:35:53Z</time>
      </trkpt>
      <trkpt lat="46.4451" lon="-1.67273">
        <ele>14.3</ele>
        <time>2020-03-11T10:35:53Z</time>
      </trkpt>
      <trkpt lat="46.44501" lon="-1.67244">
        <ele>14</ele>
        <time>2020-03-11T10:35:53Z</time>
      </trkpt>
      <trkpt lat="46.44487" lon="-1.67214">
        <ele>13.7</ele>
        <time>2020-03-11T10:35:53Z</time>
      </trkpt>
      <trkpt lat="46.4446" lon="-1.67149">
        <ele>14</ele>
        <time>2020-03-11T10:35:53Z</time>
      </trkpt>
      <trkpt lat="46.44451" lon="-1.67124">
        <ele>14</ele>
        <time>2020-03-11T10:35:53Z</time>
      </trkpt>
      <trkpt lat="46.44442" lon="-1.67075">
        <ele>13.7</ele>
        <time>2020-03-11T10:35:53Z</time>
      </trkpt>
      <trkpt lat="46.44439" lon="-1.67047">
        <ele>13.1</ele>
        <time>2020-03-11T10:35:53Z</time>
      </trkpt>
      <trkpt lat="46.44436" lon="-1.6702">
        <ele>13</ele>
        <time>2020-03-11T10:35:53Z</time>
      </trkpt>
      <trkpt lat="46.44428" lon="-1.66992">
        <ele>13.2</ele>
        <time>2020-03-11T10:35:53Z</time>
      </trkpt>
      <trkpt lat="46.44433" lon="-1.66965">
        <ele>13.6</ele>
        <time>2020-03-11T10:35:53Z</time>
      </trkpt>
      <trkpt lat="46.44426" lon="-1.66929">
        <ele>14.2</ele>
        <time>2020-03-11T10:35:53Z</time>
      </trkpt>
      <trkpt lat="46.44345" lon="-1.66773">
        <ele>14</ele>
        <time>2020-03-11T10:35:53Z</time>
      </trkpt>
      <trkpt lat="46.44312" lon="-1.66721">
        <ele>13.2</ele>
        <time>2020-03-11T10:35:53Z</time>
      </trkpt>
      <trkpt lat="46.44275" lon="-1.66663">
        <ele>13</ele>
        <time>2020-03-11T10:35:53Z</time>
      </trkpt>
      <trkpt lat="46.44259" lon="-1.66633">
        <ele>12.3</ele>
        <time>2020-03-11T10:35:53Z</time>
      </trkpt>
      <trkpt lat="46.44247" lon="-1.66603">
        <ele>12</ele>
        <time>2020-03-11T10:35:53Z</time>
      </trkpt>
      <trkpt lat="46.44237" lon="-1.66516">
        <ele>11.5</ele>
        <time>2020-03-11T10:35:53Z</time>
      </trkpt>
      <trkpt lat="46.44238" lon="-1.66486">
        <ele>11.3</ele>
        <time>2020-03-11T10:35:53Z</time>
      </trkpt>
      <trkpt lat="46.44213" lon="-1.66454">
        <ele>10.7</ele>
        <time>2020-03-11T10:35:53Z</time>
      </trkpt>
      <trkpt lat="46.44197" lon="-1.66433">
        <ele>10.1</ele>
        <time>2020-03-11T10:35:53Z</time>
      </trkpt>
      <trkpt lat="46.44153" lon="-1.664">
        <ele>9.2</ele>
        <time>2020-03-11T10:35:53Z</time>
      </trkpt>
      <trkpt lat="46.44117" lon="-1.66372">
        <ele>8.1</ele>
        <time>2020-03-11T10:35:53Z</time>
      </trkpt>
      <trkpt lat="46.44096" lon="-1.66357">
        <ele>8</ele>
        <time>2020-03-11T10:35:53Z</time>
      </trkpt>
      <trkpt lat="46.44065" lon="-1.66333">
        <ele>7.3</ele>
        <time>2020-03-11T10:35:53Z</time>
      </trkpt>
      <trkpt lat="46.44047" lon="-1.66317">
        <ele>7.1</ele>
        <time>2020-03-11T10:35:53Z</time>
      </trkpt>
      <trkpt lat="46.44006" lon="-1.66271">
        <ele>8</ele>
        <time>2020-03-11T10:35:53Z</time>
      </trkpt>
      <trkpt lat="46.43998" lon="-1.66246">
        <ele>9</ele>
        <time>2020-03-11T10:35:53Z</time>
      </trkpt>
      <trkpt lat="46.4402" lon="-1.66138">
        <ele>8.6</ele>
        <time>2020-03-11T10:35:53Z</time>
      </trkpt>
      <trkpt lat="46.4404" lon="-1.66039">
        <ele>8.6</ele>
        <time>2020-03-11T10:35:53Z</time>
      </trkpt>
      <trkpt lat="46.44041" lon="-1.65997">
        <ele>8.6</ele>
        <time>2020-03-11T10:35:53Z</time>
      </trkpt>
      <trkpt lat="46.44036" lon="-1.65961">
        <ele>9.1</ele>
        <time>2020-03-11T10:35:53Z</time>
      </trkpt>
      <trkpt lat="46.44022" lon="-1.65904">
        <ele>10.2</ele>
        <time>2020-03-11T10:35:53Z</time>
      </trkpt>
      <trkpt lat="46.44014" lon="-1.65865">
        <ele>11.9</ele>
        <time>2020-03-11T10:35:53Z</time>
      </trkpt>
      <trkpt lat="46.44013" lon="-1.65805">
        <ele>11.5</ele>
        <time>2020-03-11T10:35:53Z</time>
      </trkpt>
      <trkpt lat="46.44009" lon="-1.65674">
        <ele>10.7</ele>
        <time>2020-03-11T10:35:53Z</time>
      </trkpt>
      <trkpt lat="46.44006" lon="-1.65594">
        <ele>12.1</ele>
        <time>2020-03-11T10:35:53Z</time>
      </trkpt>
      <trkpt lat="46.44008" lon="-1.65532">
        <ele>11.2</ele>
        <time>2020-03-11T10:35:53Z</time>
      </trkpt>
      <trkpt lat="46.44018" lon="-1.65475">
        <ele>10.1</ele>
        <time>2020-03-11T10:35:53Z</time>
      </trkpt>
      <trkpt lat="46.44028" lon="-1.65346">
        <ele>8</ele>
        <time>2020-03-11T10:35:53Z</time>
      </trkpt>
      <trkpt lat="46.44031" lon="-1.65272">
        <ele>7.7</ele>
        <time>2020-03-11T10:35:53Z</time>
      </trkpt>
      <trkpt lat="46.44076" lon="-1.65249">
        <ele>3.5</ele>
        <time>2020-03-11T10:35:53Z</time>
      </trkpt>
      <trkpt lat="46.44132" lon="-1.65204">
        <ele>2.2</ele>
        <time>2020-03-11T10:35:53Z</time>
      </trkpt>
      <trkpt lat="46.44161" lon="-1.65175">
        <ele>2.7</ele>
        <time>2020-03-11T10:35:53Z</time>
      </trkpt>
      <trkpt lat="46.44178" lon="-1.65159">
        <ele>3</ele>
        <time>2020-03-11T10:35:53Z</time>
      </trkpt>
      <trkpt lat="46.44216" lon="-1.65132">
        <ele>2.8</ele>
        <time>2020-03-11T10:35:53Z</time>
      </trkpt>
      <trkpt lat="46.44232" lon="-1.65097">
        <ele>2.7</ele>
        <time>2020-03-11T10:35:53Z</time>
      </trkpt>
      <trkpt lat="46.44246" lon="-1.6508">
        <ele>3.7</ele>
        <time>2020-03-11T10:35:53Z</time>
      </trkpt>
      <trkpt lat="46.4426" lon="-1.65062">
        <ele>4.1</ele>
        <time>2020-03-11T10:35:53Z</time>
      </trkpt>
      <trkpt lat="46.44263" lon="-1.65029">
        <ele>3.9</ele>
        <time>2020-03-11T10:35:53Z</time>
      </trkpt>
      <trkpt lat="46.44295" lon="-1.64939">
        <ele>3.7</ele>
        <time>2020-03-11T10:35:53Z</time>
      </trkpt>
      <trkpt lat="46.44309" lon="-1.64889">
        <ele>4.1</ele>
        <time>2020-03-11T10:35:53Z</time>
      </trkpt>
      <trkpt lat="46.4431" lon="-1.64827">
        <ele>3.1</ele>
        <time>2020-03-11T10:35:53Z</time>
      </trkpt>
      <trkpt lat="46.44322" lon="-1.64807">
        <ele>3</ele>
        <time>2020-03-11T10:35:53Z</time>
      </trkpt>
      <trkpt lat="46.44354" lon="-1.64816">
        <ele>3.4</ele>
        <time>2020-03-11T10:35:53Z</time>
      </trkpt>
      <trkpt lat="46.44374" lon="-1.64821">
        <ele>3.6</ele>
        <time>2020-03-11T10:35:53Z</time>
      </trkpt>
      <trkpt lat="46.44412" lon="-1.64832">
        <ele>4</ele>
        <time>2020-03-11T10:35:53Z</time>
      </trkpt>
      <trkpt lat="46.44459" lon="-1.64851">
        <ele>4.4</ele>
        <time>2020-03-11T10:35:53Z</time>
      </trkpt>
      <trkpt lat="46.44502" lon="-1.64867">
        <ele>4.2</ele>
        <time>2020-03-11T10:35:53Z</time>
      </trkpt>
      <trkpt lat="46.4453" lon="-1.64866">
        <ele>4.2</ele>
        <time>2020-03-11T10:35:53Z</time>
      </trkpt>
      <trkpt lat="46.44559" lon="-1.64864">
        <ele>4</ele>
        <time>2020-03-11T10:35:53Z</time>
      </trkpt>
      <trkpt lat="46.44589" lon="-1.64859">
        <ele>3.9</ele>
        <time>2020-03-11T10:35:53Z</time>
      </trkpt>
      <trkpt lat="46.44612" lon="-1.64859">
        <ele>4</ele>
        <time>2020-03-11T10:35:53Z</time>
      </trkpt>
      <trkpt lat="46.44635" lon="-1.64861">
        <ele>4.9</ele>
        <time>2020-03-11T10:35:53Z</time>
      </trkpt>
      <trkpt lat="46.4466" lon="-1.64854">
        <ele>4.3</ele>
        <time>2020-03-11T10:35:53Z</time>
      </trkpt>
      <trkpt lat="46.44666" lon="-1.64829">
        <ele>1.9</ele>
        <time>2020-03-11T10:35:53Z</time>
      </trkpt>
      <trkpt lat="46.44647" lon="-1.64815">
        <ele>2</ele>
        <time>2020-03-11T10:35:53Z</time>
      </trkpt>
      <trkpt lat="46.44631" lon="-1.64787">
        <ele>1.5</ele>
        <time>2020-03-11T10:35:53Z</time>
      </trkpt>
      <trkpt lat="46.44601" lon="-1.64736">
        <ele>2</ele>
        <time>2020-03-11T10:35:53Z</time>
      </trkpt>
      <trkpt lat="46.44589" lon="-1.64698">
        <ele>2</ele>
        <time>2020-03-11T10:35:53Z</time>
      </trkpt>
      <trkpt lat="46.44586" lon="-1.64656">
        <ele>2.9</ele>
        <time>2020-03-11T10:35:53Z</time>
      </trkpt>
      <trkpt lat="46.44587" lon="-1.64623">
        <ele>2.8</ele>
        <time>2020-03-11T10:35:53Z</time>
      </trkpt>
      <trkpt lat="46.44597" lon="-1.64585">
        <ele>2</ele>
        <time>2020-03-11T10:35:53Z</time>
      </trkpt>
      <trkpt lat="46.44609" lon="-1.6448">
        <ele>1.6</ele>
        <time>2020-03-11T10:35:53Z</time>
      </trkpt>
      <trkpt lat="46.44629" lon="-1.6444">
        <ele>3.2</ele>
        <time>2020-03-11T10:35:53Z</time>
      </trkpt>
      <trkpt lat="46.44658" lon="-1.6445">
        <ele>4.3</ele>
        <time>2020-03-11T10:35:53Z</time>
      </trkpt>
      <trkpt lat="46.44677" lon="-1.64445">
        <ele>5</ele>
        <time>2020-03-11T10:35:53Z</time>
      </trkpt>
      <trkpt lat="46.44675" lon="-1.64332">
        <ele>9.3</ele>
        <time>2020-03-11T10:35:53Z</time>
      </trkpt>
      <trkpt lat="46.44674" lon="-1.64251">
        <ele>11.3</ele>
        <time>2020-03-11T10:35:53Z</time>
      </trkpt>
      <trkpt lat="46.44673" lon="-1.64178">
        <ele>11.2</ele>
        <time>2020-03-11T10:35:53Z</time>
      </trkpt>
      <trkpt lat="46.44695" lon="-1.64169">
        <ele>12</ele>
        <time>2020-03-11T10:35:53Z</time>
      </trkpt>
      <trkpt lat="46.44801" lon="-1.63679">
        <ele>10.1</ele>
        <time>2020-03-11T10:35:53Z</time>
      </trkpt>
      <trkpt lat="46.44808" lon="-1.63647">
        <ele>10</ele>
        <time>2020-03-11T10:35:53Z</time>
      </trkpt>
      <trkpt lat="46.44815" lon="-1.63615">
        <ele>10</ele>
        <time>2020-03-11T10:35:53Z</time>
      </trkpt>
      <trkpt lat="46.44818" lon="-1.63577">
        <ele>9.7</ele>
        <time>2020-03-11T10:35:53Z</time>
      </trkpt>
      <trkpt lat="46.44813" lon="-1.63541">
        <ele>10</ele>
        <time>2020-03-11T10:35:53Z</time>
      </trkpt>
      <trkpt lat="46.44773" lon="-1.63396">
        <ele>8.8</ele>
        <time>2020-03-11T10:35:53Z</time>
      </trkpt>
      <trkpt lat="46.44738" lon="-1.63269">
        <ele>7</ele>
        <time>2020-03-11T10:35:53Z</time>
      </trkpt>
      <trkpt lat="46.44557" lon="-1.6324">
        <ele>3</ele>
        <time>2020-03-11T10:35:53Z</time>
      </trkpt>
      <trkpt lat="46.44551" lon="-1.63188">
        <ele>3</ele>
        <time>2020-03-11T10:35:53Z</time>
      </trkpt>
      <trkpt lat="46.44532" lon="-1.63152">
        <ele>3.1</ele>
        <time>2020-03-11T10:35:53Z</time>
      </trkpt>
      <trkpt lat="46.44489" lon="-1.63112">
        <ele>3.6</ele>
        <time>2020-03-11T10:35:53Z</time>
      </trkpt>
      <trkpt lat="46.44454" lon="-1.63078">
        <ele>3.3</ele>
        <time>2020-03-11T10:35:53Z</time>
      </trkpt>
      <trkpt lat="46.44439" lon="-1.63056">
        <ele>2.8</ele>
        <time>2020-03-11T10:35:53Z</time>
      </trkpt>
      <trkpt lat="46.4442" lon="-1.63012">
        <ele>3.1</ele>
        <time>2020-03-11T10:35:53Z</time>
      </trkpt>
      <trkpt lat="46.44403" lon="-1.62963">
        <ele>3.7</ele>
        <time>2020-03-11T10:35:53Z</time>
      </trkpt>
      <trkpt lat="46.44354" lon="-1.62961">
        <ele>3</ele>
        <time>2020-03-11T10:35:53Z</time>
      </trkpt>
      <trkpt lat="46.44314" lon="-1.62962">
        <ele>3.1</ele>
        <time>2020-03-11T10:35:53Z</time>
      </trkpt>
      <trkpt lat="46.44287" lon="-1.6296">
        <ele>2.9</ele>
        <time>2020-03-11T10:35:53Z</time>
      </trkpt>
      <trkpt lat="46.44255" lon="-1.62942">
        <ele>2.4</ele>
        <time>2020-03-11T10:35:53Z</time>
      </trkpt>
      <trkpt lat="46.44199" lon="-1.62937">
        <ele>3.3</ele>
        <time>2020-03-11T10:35:53Z</time>
      </trkpt>
      <trkpt lat="46.44176" lon="-1.62932">
        <ele>3.2</ele>
        <time>2020-03-11T10:35:53Z</time>
      </trkpt>
      <trkpt lat="46.44158" lon="-1.62854">
        <ele>4</ele>
        <time>2020-03-11T10:35:53Z</time>
      </trkpt>
      <trkpt lat="46.44156" lon="-1.62809">
        <ele>4</ele>
        <time>2020-03-11T10:35:53Z</time>
      </trkpt>
      <trkpt lat="46.44178" lon="-1.62772">
        <ele>4.1</ele>
        <time>2020-03-11T10:35:53Z</time>
      </trkpt>
      <trkpt lat="46.44198" lon="-1.62751">
        <ele>4.3</ele>
        <time>2020-03-11T10:35:53Z</time>
      </trkpt>
      <trkpt lat="46.44207" lon="-1.62712">
        <ele>4</ele>
        <time>2020-03-11T10:35:53Z</time>
      </trkpt>
      <trkpt lat="46.44203" lon="-1.62666">
        <ele>3.9</ele>
        <time>2020-03-11T10:35:53Z</time>
      </trkpt>
      <trkpt lat="46.442" lon="-1.62622">
        <ele>4.1</ele>
        <time>2020-03-11T10:35:53Z</time>
      </trkpt>
      <trkpt lat="46.44182" lon="-1.62536">
        <ele>4</ele>
        <time>2020-03-11T10:35:53Z</time>
      </trkpt>
      <trkpt lat="46.44168" lon="-1.62502">
        <ele>3.1</ele>
        <time>2020-03-11T10:35:53Z</time>
      </trkpt>
      <trkpt lat="46.44166" lon="-1.62467">
        <ele>3</ele>
        <time>2020-03-11T10:35:53Z</time>
      </trkpt>
      <trkpt lat="46.44183" lon="-1.62359">
        <ele>3.5</ele>
        <time>2020-03-11T10:35:53Z</time>
      </trkpt>
      <trkpt lat="46.44167" lon="-1.62307">
        <ele>3</ele>
        <time>2020-03-11T10:35:53Z</time>
      </trkpt>
      <trkpt lat="46.44148" lon="-1.62231">
        <ele>4</ele>
        <time>2020-03-11T10:35:53Z</time>
      </trkpt>
      <trkpt lat="46.44137" lon="-1.62173">
        <ele>5</ele>
        <time>2020-03-11T10:35:53Z</time>
      </trkpt>
      <trkpt lat="46.44091" lon="-1.62032">
        <ele>4</ele>
        <time>2020-03-11T10:35:53Z</time>
      </trkpt>
      <trkpt lat="46.44088" lon="-1.61988">
        <ele>3.1</ele>
        <time>2020-03-11T10:35:53Z</time>
      </trkpt>
      <trkpt lat="46.44098" lon="-1.61924">
        <ele>3</ele>
        <time>2020-03-11T10:35:53Z</time>
      </trkpt>
      <trkpt lat="46.44148" lon="-1.61665">
        <ele>5</ele>
        <time>2020-03-11T10:35:53Z</time>
      </trkpt>
      <trkpt lat="46.44161" lon="-1.61586">
        <ele>5</ele>
        <time>2020-03-11T10:35:53Z</time>
      </trkpt>
      <trkpt lat="46.44165" lon="-1.6156">
        <ele>5</ele>
        <time>2020-03-11T10:35:53Z</time>
      </trkpt>
      <trkpt lat="46.44166" lon="-1.61527">
        <ele>4</ele>
        <time>2020-03-11T10:35:53Z</time>
      </trkpt>
      <trkpt lat="46.44162" lon="-1.61497">
        <ele>4</ele>
        <time>2020-03-11T10:35:53Z</time>
      </trkpt>
      <trkpt lat="46.44149" lon="-1.61449">
        <ele>4</ele>
        <time>2020-03-11T10:35:53Z</time>
      </trkpt>
      <trkpt lat="46.44128" lon="-1.61388">
        <ele>3.6</ele>
        <time>2020-03-11T10:35:53Z</time>
      </trkpt>
      <trkpt lat="46.44117" lon="-1.61347">
        <ele>3.1</ele>
        <time>2020-03-11T10:35:53Z</time>
      </trkpt>
      <trkpt lat="46.44121" lon="-1.61305">
        <ele>3</ele>
        <time>2020-03-11T10:35:53Z</time>
      </trkpt>
      <trkpt lat="46.44129" lon="-1.61264">
        <ele>3</ele>
        <time>2020-03-11T10:35:53Z</time>
      </trkpt>
      <trkpt lat="46.44151" lon="-1.61226">
        <ele>3</ele>
        <time>2020-03-11T10:35:53Z</time>
      </trkpt>
      <trkpt lat="46.44171" lon="-1.61207">
        <ele>3</ele>
        <time>2020-03-11T10:35:53Z</time>
      </trkpt>
      <trkpt lat="46.44188" lon="-1.6119">
        <ele>3</ele>
        <time>2020-03-11T10:35:53Z</time>
      </trkpt>
      <trkpt lat="46.44193" lon="-1.61146">
        <ele>3.7</ele>
        <time>2020-03-11T10:35:53Z</time>
      </trkpt>
      <trkpt lat="46.44182" lon="-1.61056">
        <ele>4</ele>
        <time>2020-03-11T10:35:53Z</time>
      </trkpt>
      <trkpt lat="46.44168" lon="-1.60958">
        <ele>6</ele>
        <time>2020-03-11T10:35:53Z</time>
      </trkpt>
      <trkpt lat="46.44164" lon="-1.60877">
        <ele>6.9</ele>
        <time>2020-03-11T10:35:53Z</time>
      </trkpt>
      <trkpt lat="46.44172" lon="-1.60809">
        <ele>7.2</ele>
        <time>2020-03-11T10:35:53Z</time>
      </trkpt>
      <trkpt lat="46.44191" lon="-1.60678">
        <ele>5.4</ele>
        <time>2020-03-11T10:35:53Z</time>
      </trkpt>
      <trkpt lat="46.44176" lon="-1.60603">
        <ele>4</ele>
        <time>2020-03-11T10:35:53Z</time>
      </trkpt>
      <trkpt lat="46.44154" lon="-1.60523">
        <ele>3.1</ele>
        <time>2020-03-11T10:35:53Z</time>
      </trkpt>
      <trkpt lat="46.44111" lon="-1.60448">
        <ele>2.9</ele>
        <time>2020-03-11T10:35:53Z</time>
      </trkpt>
      <trkpt lat="46.44103" lon="-1.60418">
        <ele>2.7</ele>
        <time>2020-03-11T10:35:53Z</time>
      </trkpt>
      <trkpt lat="46.44097" lon="-1.60361">
        <ele>3</ele>
        <time>2020-03-11T10:35:53Z</time>
      </trkpt>
      <trkpt lat="46.44104" lon="-1.60251">
        <ele>3</ele>
        <time>2020-03-11T10:35:53Z</time>
      </trkpt>
      <trkpt lat="46.44091" lon="-1.60215">
        <ele>3</ele>
        <time>2020-03-11T10:35:53Z</time>
      </trkpt>
      <trkpt lat="46.44057" lon="-1.60209">
        <ele>2</ele>
        <time>2020-03-11T10:35:53Z</time>
      </trkpt>
      <trkpt lat="46.43927" lon="-1.60209">
        <ele>3</ele>
        <time>2020-03-11T10:35:53Z</time>
      </trkpt>
      <trkpt lat="46.43906" lon="-1.6022">
        <ele>3</ele>
        <time>2020-03-11T10:35:53Z</time>
      </trkpt>
      <trkpt lat="46.43864" lon="-1.60267">
        <ele>3</ele>
        <time>2020-03-11T10:35:53Z</time>
      </trkpt>
      <trkpt lat="46.43821" lon="-1.60326">
        <ele>2.6</ele>
        <time>2020-03-11T10:35:53Z</time>
      </trkpt>
      <trkpt lat="46.43805" lon="-1.60345">
        <ele>3</ele>
        <time>2020-03-11T10:35:53Z</time>
      </trkpt>
      <trkpt lat="46.43788" lon="-1.60363">
        <ele>2.9</ele>
        <time>2020-03-11T10:35:53Z</time>
      </trkpt>
      <trkpt lat="46.43765" lon="-1.60383">
        <ele>2.6</ele>
        <time>2020-03-11T10:35:53Z</time>
      </trkpt>
      <trkpt lat="46.43747" lon="-1.60389">
        <ele>3</ele>
        <time>2020-03-11T10:35:53Z</time>
      </trkpt>
      <trkpt lat="46.43727" lon="-1.60382">
        <ele>3</ele>
        <time>2020-03-11T10:35:53Z</time>
      </trkpt>
      <trkpt lat="46.43719" lon="-1.60347">
        <ele>3</ele>
        <time>2020-03-11T10:35:53Z</time>
      </trkpt>
      <trkpt lat="46.43721" lon="-1.60306">
        <ele>3</ele>
        <time>2020-03-11T10:35:53Z</time>
      </trkpt>
      <trkpt lat="46.43706" lon="-1.60288">
        <ele>3</ele>
        <time>2020-03-11T10:35:53Z</time>
      </trkpt>
      <trkpt lat="46.43686" lon="-1.60292">
        <ele>3</ele>
        <time>2020-03-11T10:35:53Z</time>
      </trkpt>
      <trkpt lat="46.43638" lon="-1.60295">
        <ele>2.4</ele>
        <time>2020-03-11T10:35:53Z</time>
      </trkpt>
      <trkpt lat="46.43568" lon="-1.60302">
        <ele>2.9</ele>
        <time>2020-03-11T10:35:53Z</time>
      </trkpt>
      <trkpt lat="46.4355" lon="-1.60277">
        <ele>3</ele>
        <time>2020-03-11T10:35:53Z</time>
      </trkpt>
      <trkpt lat="46.4353" lon="-1.60238">
        <ele>3</ele>
        <time>2020-03-11T10:35:53Z</time>
      </trkpt>
      <trkpt lat="46.43514" lon="-1.60215">
        <ele>2.6</ele>
        <time>2020-03-11T10:35:53Z</time>
      </trkpt>
      <trkpt lat="46.43495" lon="-1.6018">
        <ele>2.1</ele>
        <time>2020-03-11T10:35:53Z</time>
      </trkpt>
      <trkpt lat="46.43479" lon="-1.60167">
        <ele>2.5</ele>
        <time>2020-03-11T10:35:53Z</time>
      </trkpt>
      <trkpt lat="46.4346" lon="-1.60158">
        <ele>2.4</ele>
        <time>2020-03-11T10:35:53Z</time>
      </trkpt>
      <trkpt lat="46.43455" lon="-1.60132">
        <ele>2.1</ele>
        <time>2020-03-11T10:35:53Z</time>
      </trkpt>
      <trkpt lat="46.43452" lon="-1.60085">
        <ele>2.4</ele>
        <time>2020-03-11T10:35:53Z</time>
      </trkpt>
      <trkpt lat="46.43446" lon="-1.60039">
        <ele>3</ele>
        <time>2020-03-11T10:35:53Z</time>
      </trkpt>
      <trkpt lat="46.43436" lon="-1.6">
        <ele>2.7</ele>
        <time>2020-03-11T10:35:53Z</time>
      </trkpt>
      <trkpt lat="46.43418" lon="-1.59962">
        <ele>2.4</ele>
        <time>2020-03-11T10:35:53Z</time>
      </trkpt>
      <trkpt lat="46.43407" lon="-1.59926">
        <ele>2.7</ele>
        <time>2020-03-11T10:35:53Z</time>
      </trkpt>
      <trkpt lat="46.434" lon="-1.59887">
        <ele>2</ele>
        <time>2020-03-11T10:35:53Z</time>
      </trkpt>
      <trkpt lat="46.43397" lon="-1.59857">
        <ele>2.4</ele>
        <time>2020-03-11T10:35:53Z</time>
      </trkpt>
      <trkpt lat="46.43385" lon="-1.59821">
        <ele>3</ele>
        <time>2020-03-11T10:35:53Z</time>
      </trkpt>
      <trkpt lat="46.43368" lon="-1.59767">
        <ele>2.1</ele>
        <time>2020-03-11T10:35:53Z</time>
      </trkpt>
      <trkpt lat="46.43362" lon="-1.59732">
        <ele>2.7</ele>
        <time>2020-03-11T10:35:53Z</time>
      </trkpt>
      <trkpt lat="46.43355" lon="-1.59699">
        <ele>2.3</ele>
        <time>2020-03-11T10:35:53Z</time>
      </trkpt>
      <trkpt lat="46.43341" lon="-1.59666">
        <ele>3</ele>
        <time>2020-03-11T10:35:53Z</time>
      </trkpt>
      <trkpt lat="46.43328" lon="-1.59638">
        <ele>3</ele>
        <time>2020-03-11T10:35:53Z</time>
      </trkpt>
      <trkpt lat="46.43315" lon="-1.59614">
        <ele>2.7</ele>
        <time>2020-03-11T10:35:53Z</time>
      </trkpt>
      <trkpt lat="46.43292" lon="-1.59573">
        <ele>2.7</ele>
        <time>2020-03-11T10:35:53Z</time>
      </trkpt>
      <trkpt lat="46.4328" lon="-1.59551">
        <ele>3</ele>
        <time>2020-03-11T10:35:53Z</time>
      </trkpt>
      <trkpt lat="46.43253" lon="-1.59521">
        <ele>3</ele>
        <time>2020-03-11T10:35:53Z</time>
      </trkpt>
      <trkpt lat="46.4322" lon="-1.59478">
        <ele>2.2</ele>
        <time>2020-03-11T10:35:53Z</time>
      </trkpt>
      <trkpt lat="46.43202" lon="-1.59454">
        <ele>2.2</ele>
        <time>2020-03-11T10:35:53Z</time>
      </trkpt>
      <trkpt lat="46.43181" lon="-1.59419">
        <ele>2.9</ele>
        <time>2020-03-11T10:35:53Z</time>
      </trkpt>
      <trkpt lat="46.43155" lon="-1.5936">
        <ele>2.6</ele>
        <time>2020-03-11T10:35:53Z</time>
      </trkpt>
      <trkpt lat="46.43144" lon="-1.59339">
        <ele>2.7</ele>
        <time>2020-03-11T10:35:53Z</time>
      </trkpt>
      <trkpt lat="46.43125" lon="-1.5931">
        <ele>2.1</ele>
        <time>2020-03-11T10:35:53Z</time>
      </trkpt>
      <trkpt lat="46.43083" lon="-1.59263">
        <ele>2.5</ele>
        <time>2020-03-11T10:35:53Z</time>
      </trkpt>
      <trkpt lat="46.4306" lon="-1.59243">
        <ele>2.4</ele>
        <time>2020-03-11T10:35:53Z</time>
      </trkpt>
      <trkpt lat="46.43042" lon="-1.59227">
        <ele>2.8</ele>
        <time>2020-03-11T10:35:53Z</time>
      </trkpt>
      <trkpt lat="46.43026" lon="-1.59205">
        <ele>2.4</ele>
        <time>2020-03-11T10:35:53Z</time>
      </trkpt>
      <trkpt lat="46.43013" lon="-1.59177">
        <ele>2.8</ele>
        <time>2020-03-11T10:35:53Z</time>
      </trkpt>
      <trkpt lat="46.4301" lon="-1.59148">
        <ele>3</ele>
        <time>2020-03-11T10:35:53Z</time>
      </trkpt>
      <trkpt lat="46.43003" lon="-1.59122">
        <ele>3</ele>
        <time>2020-03-11T10:35:53Z</time>
      </trkpt>
      <trkpt lat="46.42986" lon="-1.59089">
        <ele>2.9</ele>
        <time>2020-03-11T10:35:53Z</time>
      </trkpt>
      <trkpt lat="46.42967" lon="-1.59066">
        <ele>2.9</ele>
        <time>2020-03-11T10:35:53Z</time>
      </trkpt>
      <trkpt lat="46.42953" lon="-1.59012">
        <ele>2.7</ele>
        <time>2020-03-11T10:35:53Z</time>
      </trkpt>
      <trkpt lat="46.42928" lon="-1.58966">
        <ele>4.3</ele>
        <time>2020-03-11T10:35:53Z</time>
      </trkpt>
      <trkpt lat="46.42915" lon="-1.58936">
        <ele>6.8</ele>
        <time>2020-03-11T10:35:53Z</time>
      </trkpt>
      <trkpt lat="46.42882" lon="-1.58906">
        <ele>10</ele>
        <time>2020-03-11T10:35:53Z</time>
      </trkpt>
      <trkpt lat="46.42852" lon="-1.58891">
        <ele>12.3</ele>
        <time>2020-03-11T10:35:53Z</time>
      </trkpt>
      <trkpt lat="46.42815" lon="-1.58878">
        <ele>13.7</ele>
        <time>2020-03-11T10:35:53Z</time>
      </trkpt>
      <trkpt lat="46.42743" lon="-1.58851">
        <ele>14</ele>
        <time>2020-03-11T10:35:53Z</time>
      </trkpt>
      <trkpt lat="46.42695" lon="-1.58995">
        <ele>14</ele>
        <time>2020-03-11T10:35:53Z</time>
      </trkpt>
      <trkpt lat="46.4267" lon="-1.59077">
        <ele>14</ele>
        <time>2020-03-11T10:35:53Z</time>
      </trkpt>
      <trkpt lat="46.4266" lon="-1.59103">
        <ele>14</ele>
        <time>2020-03-11T10:35:53Z</time>
      </trkpt>
      <trkpt lat="46.42642" lon="-1.59148">
        <ele>14</ele>
        <time>2020-03-11T10:35:53Z</time>
      </trkpt>
      <trkpt lat="46.42625" lon="-1.59186">
        <ele>14</ele>
        <time>2020-03-11T10:35:53Z</time>
      </trkpt>
      <trkpt lat="46.42611" lon="-1.5921">
        <ele>14</ele>
        <time>2020-03-11T10:35:53Z</time>
      </trkpt>
      <trkpt lat="46.42567" lon="-1.59275">
        <ele>14</ele>
        <time>2020-03-11T10:35:53Z</time>
      </trkpt>
      <trkpt lat="46.42519" lon="-1.59341">
        <ele>14</ele>
        <time>2020-03-11T10:35:53Z</time>
      </trkpt>
      <trkpt lat="46.42479" lon="-1.59394">
        <ele>14</ele>
        <time>2020-03-11T10:35:53Z</time>
      </trkpt>
      <trkpt lat="46.42438" lon="-1.59445">
        <ele>13.8</ele>
        <time>2020-03-11T10:35:53Z</time>
      </trkpt>
      <trkpt lat="46.42381" lon="-1.59508">
        <ele>13</ele>
        <time>2020-03-11T10:35:53Z</time>
      </trkpt>
      <trkpt lat="46.42346" lon="-1.59546">
        <ele>13</ele>
        <time>2020-03-11T10:35:53Z</time>
      </trkpt>
      <trkpt lat="46.42329" lon="-1.59574">
        <ele>13</ele>
        <time>2020-03-11T10:35:53Z</time>
      </trkpt>
      <trkpt lat="46.42311" lon="-1.59617">
        <ele>12.8</ele>
        <time>2020-03-11T10:35:53Z</time>
      </trkpt>
      <trkpt lat="46.42322" lon="-1.59653">
        <ele>11.7</ele>
        <time>2020-03-11T10:35:53Z</time>
      </trkpt>
      <trkpt lat="46.42331" lon="-1.59677">
        <ele>10.7</ele>
        <time>2020-03-11T10:35:53Z</time>
      </trkpt>
      <trkpt lat="46.42323" lon="-1.5971">
        <ele>9.5</ele>
        <time>2020-03-11T10:35:53Z</time>
      </trkpt>
      <trkpt lat="46.42308" lon="-1.59739">
        <ele>8.6</ele>
        <time>2020-03-11T10:35:53Z</time>
      </trkpt>
      <trkpt lat="46.42294" lon="-1.59772">
        <ele>8.4</ele>
        <time>2020-03-11T10:35:53Z</time>
      </trkpt>
      <trkpt lat="46.42278" lon="-1.59829">
        <ele>8.1</ele>
        <time>2020-03-11T10:35:53Z</time>
      </trkpt>
      <trkpt lat="46.42274" lon="-1.59858">
        <ele>8.3</ele>
        <time>2020-03-11T10:35:53Z</time>
      </trkpt>
      <trkpt lat="46.42272" lon="-1.59921">
        <ele>6.6</ele>
        <time>2020-03-11T10:35:53Z</time>
      </trkpt>
      <trkpt lat="46.42264" lon="-1.59964">
        <ele>7.1</ele>
        <time>2020-03-11T10:35:53Z</time>
      </trkpt>
      <trkpt lat="46.42256" lon="-1.59997">
        <ele>7.2</ele>
        <time>2020-03-11T10:35:53Z</time>
      </trkpt>
      <trkpt lat="46.4225" lon="-1.60041">
        <ele>7.5</ele>
        <time>2020-03-11T10:35:53Z</time>
      </trkpt>
      <trkpt lat="46.42243" lon="-1.60078">
        <ele>7.5</ele>
        <time>2020-03-11T10:35:53Z</time>
      </trkpt>
      <trkpt lat="46.42235" lon="-1.60112">
        <ele>7</ele>
        <time>2020-03-11T10:35:53Z</time>
      </trkpt>
      <trkpt lat="46.42227" lon="-1.60142">
        <ele>6.5</ele>
        <time>2020-03-11T10:35:53Z</time>
      </trkpt>
      <trkpt lat="46.42201" lon="-1.60196">
        <ele>6.4</ele>
        <time>2020-03-11T10:35:53Z</time>
      </trkpt>
      <trkpt lat="46.42188" lon="-1.60229">
        <ele>5.7</ele>
        <time>2020-03-11T10:35:53Z</time>
      </trkpt>
      <trkpt lat="46.42188" lon="-1.60261">
        <ele>5.6</ele>
        <time>2020-03-11T10:35:53Z</time>
      </trkpt>
      <trkpt lat="46.4218" lon="-1.60294">
        <ele>5.2</ele>
        <time>2020-03-11T10:35:53Z</time>
      </trkpt>
      <trkpt lat="46.42156" lon="-1.60302">
        <ele>7.2</ele>
        <time>2020-03-11T10:35:53Z</time>
      </trkpt>
      <trkpt lat="46.42126" lon="-1.60281">
        <ele>9.9</ele>
        <time>2020-03-11T10:35:53Z</time>
      </trkpt>
      <trkpt lat="46.42094" lon="-1.6025">
        <ele>11.6</ele>
        <time>2020-03-11T10:35:53Z</time>
      </trkpt>
      <trkpt lat="46.42077" lon="-1.60228">
        <ele>12.2</ele>
        <time>2020-03-11T10:35:53Z</time>
      </trkpt>
      <trkpt lat="46.42067" lon="-1.6017">
        <ele>12.6</ele>
        <time>2020-03-11T10:35:53Z</time>
      </trkpt>
      <trkpt lat="46.42059" lon="-1.60136">
        <ele>13</ele>
        <time>2020-03-11T10:35:53Z</time>
      </trkpt>
      <trkpt lat="46.42042" lon="-1.60057">
        <ele>13</ele>
        <time>2020-03-11T10:35:53Z</time>
      </trkpt>
      <trkpt lat="46.42024" lon="-1.6002">
        <ele>12.8</ele>
        <time>2020-03-11T10:35:53Z</time>
      </trkpt>
      <trkpt lat="46.41981" lon="-1.59978">
        <ele>12.7</ele>
        <time>2020-03-11T10:35:53Z</time>
      </trkpt>
      <trkpt lat="46.41965" lon="-1.5996">
        <ele>12.7</ele>
        <time>2020-03-11T10:35:53Z</time>
      </trkpt>
      <trkpt lat="46.41951" lon="-1.59937">
        <ele>12.2</ele>
        <time>2020-03-11T10:35:53Z</time>
      </trkpt>
      <trkpt lat="46.41938" lon="-1.59911">
        <ele>12.2</ele>
        <time>2020-03-11T10:35:53Z</time>
      </trkpt>
      <trkpt lat="46.41924" lon="-1.59865">
        <ele>12</ele>
        <time>2020-03-11T10:35:53Z</time>
      </trkpt>
      <trkpt lat="46.41917" lon="-1.59829">
        <ele>12</ele>
        <time>2020-03-11T10:35:53Z</time>
      </trkpt>
      <trkpt lat="46.41911" lon="-1.59791">
        <ele>11.9</ele>
        <time>2020-03-11T10:35:53Z</time>
      </trkpt>
      <trkpt lat="46.41908" lon="-1.59743">
        <ele>11.5</ele>
        <time>2020-03-11T10:35:53Z</time>
      </trkpt>
      <trkpt lat="46.41909" lon="-1.59704">
        <ele>11.2</ele>
        <time>2020-03-11T10:35:53Z</time>
      </trkpt>
      <trkpt lat="46.41914" lon="-1.59647">
        <ele>11.7</ele>
        <time>2020-03-11T10:35:53Z</time>
      </trkpt>
      <trkpt lat="46.41925" lon="-1.59569">
        <ele>11.7</ele>
        <time>2020-03-11T10:35:53Z</time>
      </trkpt>
      <trkpt lat="46.41927" lon="-1.59525">
        <ele>12</ele>
        <time>2020-03-11T10:35:53Z</time>
      </trkpt>
      <trkpt lat="46.41927" lon="-1.59484">
        <ele>11.6</ele>
        <time>2020-03-11T10:35:53Z</time>
      </trkpt>
      <trkpt lat="46.41925" lon="-1.59442">
        <ele>12</ele>
        <time>2020-03-11T10:35:53Z</time>
      </trkpt>
      <trkpt lat="46.41921" lon="-1.59386">
        <ele>11.8</ele>
        <time>2020-03-11T10:35:53Z</time>
      </trkpt>
      <trkpt lat="46.41916" lon="-1.59342">
        <ele>12</ele>
        <time>2020-03-11T10:35:53Z</time>
      </trkpt>
      <trkpt lat="46.41908" lon="-1.59298">
        <ele>12</ele>
        <time>2020-03-11T10:35:53Z</time>
      </trkpt>
      <trkpt lat="46.419" lon="-1.59258">
        <ele>12.4</ele>
        <time>2020-03-11T10:35:53Z</time>
      </trkpt>
      <trkpt lat="46.41884" lon="-1.59177">
        <ele>12.2</ele>
        <time>2020-03-11T10:35:53Z</time>
      </trkpt>
      <trkpt lat="46.41876" lon="-1.5912">
        <ele>12.5</ele>
        <time>2020-03-11T10:35:53Z</time>
      </trkpt>
      <trkpt lat="46.4187" lon="-1.59081">
        <ele>12.6</ele>
        <time>2020-03-11T10:35:53Z</time>
      </trkpt>
      <trkpt lat="46.41865" lon="-1.59045">
        <ele>12</ele>
        <time>2020-03-11T10:35:53Z</time>
      </trkpt>
      <trkpt lat="46.41857" lon="-1.58983">
        <ele>12.1</ele>
        <time>2020-03-11T10:35:53Z</time>
      </trkpt>
      <trkpt lat="46.41854" lon="-1.58947">
        <ele>12.3</ele>
        <time>2020-03-11T10:35:53Z</time>
      </trkpt>
      <trkpt lat="46.41852" lon="-1.58905">
        <ele>12.3</ele>
        <time>2020-03-11T10:35:53Z</time>
      </trkpt>
      <trkpt lat="46.41851" lon="-1.58861">
        <ele>12.4</ele>
        <time>2020-03-11T10:35:53Z</time>
      </trkpt>
      <trkpt lat="46.41852" lon="-1.58783">
        <ele>12.2</ele>
        <time>2020-03-11T10:35:53Z</time>
      </trkpt>
      <trkpt lat="46.41853" lon="-1.58743">
        <ele>11.8</ele>
        <time>2020-03-11T10:35:53Z</time>
      </trkpt>
      <trkpt lat="46.41855" lon="-1.5869">
        <ele>11.2</ele>
        <time>2020-03-11T10:35:53Z</time>
      </trkpt>
      <trkpt lat="46.41862" lon="-1.58662">
        <ele>11</ele>
        <time>2020-03-11T10:35:53Z</time>
      </trkpt>
      <trkpt lat="46.41875" lon="-1.58642">
        <ele>11</ele>
        <time>2020-03-11T10:35:53Z</time>
      </trkpt>
      <trkpt lat="46.41883" lon="-1.58555">
        <ele>10</ele>
        <time>2020-03-11T10:35:53Z</time>
      </trkpt>
      <trkpt lat="46.41884" lon="-1.58502">
        <ele>10</ele>
        <time>2020-03-11T10:35:53Z</time>
      </trkpt>
      <trkpt lat="46.41883" lon="-1.58411">
        <ele>10</ele>
        <time>2020-03-11T10:35:53Z</time>
      </trkpt>
      <trkpt lat="46.41883" lon="-1.58353">
        <ele>10.4</ele>
        <time>2020-03-11T10:35:53Z</time>
      </trkpt>
      <trkpt lat="46.41882" lon="-1.58322">
        <ele>11</ele>
        <time>2020-03-11T10:35:53Z</time>
      </trkpt>
      <trkpt lat="46.41877" lon="-1.58296">
        <ele>11</ele>
        <time>2020-03-11T10:35:53Z</time>
      </trkpt>
      <trkpt lat="46.41928" lon="-1.58259">
        <ele>10.5</ele>
        <time>2020-03-11T10:35:53Z</time>
      </trkpt>
      <trkpt lat="46.41948" lon="-1.58244">
        <ele>11</ele>
        <time>2020-03-11T10:35:53Z</time>
      </trkpt>
      <trkpt lat="46.42012" lon="-1.58217">
        <ele>11</ele>
        <time>2020-03-11T10:35:53Z</time>
      </trkpt>
      <trkpt lat="46.42025" lon="-1.58191">
        <ele>11</ele>
        <time>2020-03-11T10:35:53Z</time>
      </trkpt>
      <trkpt lat="46.42036" lon="-1.58071">
        <ele>11</ele>
        <time>2020-03-11T10:35:53Z</time>
      </trkpt>
      <trkpt lat="46.42038" lon="-1.58028">
        <ele>11</ele>
        <time>2020-03-11T10:35:53Z</time>
      </trkpt>
      <trkpt lat="46.42043" lon="-1.57943">
        <ele>12</ele>
        <time>2020-03-11T10:35:53Z</time>
      </trkpt>
      <trkpt lat="46.42045" lon="-1.57903">
        <ele>12</ele>
        <time>2020-03-11T10:35:53Z</time>
      </trkpt>
      <trkpt lat="46.42047" lon="-1.57859">
        <ele>11.7</ele>
        <time>2020-03-11T10:35:53Z</time>
      </trkpt>
      <trkpt lat="46.42051" lon="-1.57815">
        <ele>12</ele>
        <time>2020-03-11T10:35:53Z</time>
      </trkpt>
      <trkpt lat="46.42054" lon="-1.57774">
        <ele>12</ele>
        <time>2020-03-11T10:35:53Z</time>
      </trkpt>
      <trkpt lat="46.42055" lon="-1.57745">
        <ele>12</ele>
        <time>2020-03-11T10:35:53Z</time>
      </trkpt>
      <trkpt lat="46.42054" lon="-1.57702">
        <ele>12</ele>
        <time>2020-03-11T10:35:53Z</time>
      </trkpt>
      <trkpt lat="46.42051" lon="-1.57658">
        <ele>12</ele>
        <time>2020-03-11T10:35:53Z</time>
      </trkpt>
      <trkpt lat="46.42046" lon="-1.5759">
        <ele>11.2</ele>
        <time>2020-03-11T10:35:53Z</time>
      </trkpt>
      <trkpt lat="46.42044" lon="-1.57563">
        <ele>10.7</ele>
        <time>2020-03-11T10:35:53Z</time>
      </trkpt>
      <trkpt lat="46.4204" lon="-1.57531">
        <ele>10.9</ele>
        <time>2020-03-11T10:35:53Z</time>
      </trkpt>
      <trkpt lat="46.42037" lon="-1.57503">
        <ele>11</ele>
        <time>2020-03-11T10:35:53Z</time>
      </trkpt>
      <trkpt lat="46.42033" lon="-1.57476">
        <ele>11.9</ele>
        <time>2020-03-11T10:35:53Z</time>
      </trkpt>
      <trkpt lat="46.42029" lon="-1.5745">
        <ele>12</ele>
        <time>2020-03-11T10:35:53Z</time>
      </trkpt>
      <trkpt lat="46.42007" lon="-1.57443">
        <ele>12.1</ele>
        <time>2020-03-11T10:35:53Z</time>
      </trkpt>
      <trkpt lat="46.41987" lon="-1.57455">
        <ele>11.6</ele>
        <time>2020-03-11T10:35:53Z</time>
      </trkpt>
      <trkpt lat="46.41961" lon="-1.57468">
        <ele>11.1</ele>
        <time>2020-03-11T10:35:53Z</time>
      </trkpt>
      <trkpt lat="46.41932" lon="-1.57488">
        <ele>11</ele>
        <time>2020-03-11T10:35:53Z</time>
      </trkpt>
      <trkpt lat="46.4191" lon="-1.57504">
        <ele>11</ele>
        <time>2020-03-11T10:35:53Z</time>
      </trkpt>
      <trkpt lat="46.41891" lon="-1.57515">
        <ele>11</ele>
        <time>2020-03-11T10:35:53Z</time>
      </trkpt>
      <trkpt lat="46.41861" lon="-1.5753">
        <ele>11</ele>
        <time>2020-03-11T10:35:53Z</time>
      </trkpt>
      <trkpt lat="46.41832" lon="-1.57543">
        <ele>11</ele>
        <time>2020-03-11T10:35:53Z</time>
      </trkpt>
      <trkpt lat="46.41801" lon="-1.57554">
        <ele>11</ele>
        <time>2020-03-11T10:35:53Z</time>
      </trkpt>
      <trkpt lat="46.41783" lon="-1.57559">
        <ele>11</ele>
        <time>2020-03-11T10:35:53Z</time>
      </trkpt>
      <trkpt lat="46.41775" lon="-1.57518">
        <ele>11</ele>
        <time>2020-03-11T10:35:53Z</time>
      </trkpt>
      <trkpt lat="46.4177" lon="-1.57484">
        <ele>11</ele>
        <time>2020-03-11T10:35:53Z</time>
      </trkpt>
      <trkpt lat="46.41751" lon="-1.57487">
        <ele>11</ele>
        <time>2020-03-11T10:35:53Z</time>
      </trkpt>
      <trkpt lat="46.41727" lon="-1.57436">
        <ele>11</ele>
        <time>2020-03-11T10:35:53Z</time>
      </trkpt>
      <trkpt lat="46.41713" lon="-1.57406">
        <ele>10.9</ele>
        <time>2020-03-11T10:35:53Z</time>
      </trkpt>
      <trkpt lat="46.41707" lon="-1.57378">
        <ele>10.3</ele>
        <time>2020-03-11T10:35:53Z</time>
      </trkpt>
      <trkpt lat="46.41698" lon="-1.57345">
        <ele>10</ele>
        <time>2020-03-11T10:35:53Z</time>
      </trkpt>
      <trkpt lat="46.41684" lon="-1.57303">
        <ele>9.9</ele>
        <time>2020-03-11T10:35:53Z</time>
      </trkpt>
      <trkpt lat="46.41668" lon="-1.57258">
        <ele>10</ele>
        <time>2020-03-11T10:35:53Z</time>
      </trkpt>
      <trkpt lat="46.41658" lon="-1.57231">
        <ele>9.5</ele>
        <time>2020-03-11T10:35:53Z</time>
      </trkpt>
      <trkpt lat="46.41674" lon="-1.57206">
        <ele>9</ele>
        <time>2020-03-11T10:35:53Z</time>
      </trkpt>
      <trkpt lat="46.41679" lon="-1.57172">
        <ele>9</ele>
        <time>2020-03-11T10:35:53Z</time>
      </trkpt>
      <trkpt lat="46.41671" lon="-1.57127">
        <ele>9</ele>
        <time>2020-03-11T10:35:53Z</time>
      </trkpt>
      <trkpt lat="46.41663" lon="-1.57099">
        <ele>9.1</ele>
        <time>2020-03-11T10:35:53Z</time>
      </trkpt>
      <trkpt lat="46.41655" lon="-1.57071">
        <ele>9</ele>
        <time>2020-03-11T10:35:53Z</time>
      </trkpt>
      <trkpt lat="46.41645" lon="-1.57046">
        <ele>9</ele>
        <time>2020-03-11T10:35:53Z</time>
      </trkpt>
      <trkpt lat="46.41634" lon="-1.57021">
        <ele>9.2</ele>
        <time>2020-03-11T10:35:53Z</time>
      </trkpt>
      <trkpt lat="46.4162" lon="-1.56993">
        <ele>9.7</ele>
        <time>2020-03-11T10:35:53Z</time>
      </trkpt>
      <trkpt lat="46.41605" lon="-1.56967">
        <ele>10.2</ele>
        <time>2020-03-11T10:35:53Z</time>
      </trkpt>
      <trkpt lat="46.41579" lon="-1.56921">
        <ele>10.2</ele>
        <time>2020-03-11T10:35:53Z</time>
      </trkpt>
      <trkpt lat="46.41566" lon="-1.56892">
        <ele>10.6</ele>
        <time>2020-03-11T10:35:53Z</time>
      </trkpt>
      <trkpt lat="46.41547" lon="-1.56834">
        <ele>11</ele>
        <time>2020-03-11T10:35:53Z</time>
      </trkpt>
      <trkpt lat="46.41537" lon="-1.56796">
        <ele>11</ele>
        <time>2020-03-11T10:35:53Z</time>
      </trkpt>
      <trkpt lat="46.41529" lon="-1.56757">
        <ele>11</ele>
        <time>2020-03-11T10:35:53Z</time>
      </trkpt>
      <trkpt lat="46.41524" lon="-1.56729">
        <ele>11.1</ele>
        <time>2020-03-11T10:35:53Z</time>
      </trkpt>
      <trkpt lat="46.4152" lon="-1.56701">
        <ele>11.3</ele>
        <time>2020-03-11T10:35:53Z</time>
      </trkpt>
      <trkpt lat="46.41513" lon="-1.56654">
        <ele>11.5</ele>
        <time>2020-03-11T10:35:53Z</time>
      </trkpt>
      <trkpt lat="46.41507" lon="-1.56601">
        <ele>11.7</ele>
        <time>2020-03-11T10:35:53Z</time>
      </trkpt>
      <trkpt lat="46.41502" lon="-1.56557">
        <ele>11.9</ele>
        <time>2020-03-11T10:35:53Z</time>
      </trkpt>
      <trkpt lat="46.41498" lon="-1.56518">
        <ele>11.1</ele>
        <time>2020-03-11T10:35:53Z</time>
      </trkpt>
      <trkpt lat="46.41494" lon="-1.56483">
        <ele>11.3</ele>
        <time>2020-03-11T10:35:53Z</time>
      </trkpt>
      <trkpt lat="46.41492" lon="-1.56445">
        <ele>11.3</ele>
        <time>2020-03-11T10:35:53Z</time>
      </trkpt>
      <trkpt lat="46.4149" lon="-1.56407">
        <ele>11.4</ele>
        <time>2020-03-11T10:35:53Z</time>
      </trkpt>
      <trkpt lat="46.41492" lon="-1.56376">
        <ele>11.3</ele>
        <time>2020-03-11T10:35:53Z</time>
      </trkpt>
      <trkpt lat="46.41496" lon="-1.56319">
        <ele>11.7</ele>
        <time>2020-03-11T10:35:53Z</time>
      </trkpt>
      <trkpt lat="46.41501" lon="-1.56259">
        <ele>12</ele>
        <time>2020-03-11T10:35:53Z</time>
      </trkpt>
      <trkpt lat="46.41505" lon="-1.56218">
        <ele>11.8</ele>
        <time>2020-03-11T10:35:53Z</time>
      </trkpt>
      <trkpt lat="46.41516" lon="-1.56114">
        <ele>11.4</ele>
        <time>2020-03-11T10:35:53Z</time>
      </trkpt>
      <trkpt lat="46.41521" lon="-1.56068">
        <ele>11.2</ele>
        <time>2020-03-11T10:35:53Z</time>
      </trkpt>
      <trkpt lat="46.41527" lon="-1.56017">
        <ele>11.4</ele>
        <time>2020-03-11T10:35:53Z</time>
      </trkpt>
      <trkpt lat="46.41532" lon="-1.55971">
        <ele>11.7</ele>
        <time>2020-03-11T10:35:53Z</time>
      </trkpt>
      <trkpt lat="46.41534" lon="-1.55924">
        <ele>11</ele>
        <time>2020-03-11T10:35:53Z</time>
      </trkpt>
      <trkpt lat="46.41534" lon="-1.55885">
        <ele>10.7</ele>
        <time>2020-03-11T10:35:53Z</time>
      </trkpt>
      <trkpt lat="46.41531" lon="-1.55854">
        <ele>9.7</ele>
        <time>2020-03-11T10:35:53Z</time>
      </trkpt>
      <trkpt lat="46.41525" lon="-1.55794">
        <ele>9.2</ele>
        <time>2020-03-11T10:35:53Z</time>
      </trkpt>
      <trkpt lat="46.41517" lon="-1.55715">
        <ele>9.4</ele>
        <time>2020-03-11T10:35:53Z</time>
      </trkpt>
      <trkpt lat="46.41511" lon="-1.55664">
        <ele>10.1</ele>
        <time>2020-03-11T10:35:53Z</time>
      </trkpt>
      <trkpt lat="46.41508" lon="-1.55636">
        <ele>10.7</ele>
        <time>2020-03-11T10:35:53Z</time>
      </trkpt>
      <trkpt lat="46.41505" lon="-1.556">
        <ele>11</ele>
        <time>2020-03-11T10:35:53Z</time>
      </trkpt>
      <trkpt lat="46.415" lon="-1.55563">
        <ele>11.7</ele>
        <time>2020-03-11T10:35:53Z</time>
      </trkpt>
      <trkpt lat="46.41493" lon="-1.55516">
        <ele>11.7</ele>
        <time>2020-03-11T10:35:53Z</time>
      </trkpt>
      <trkpt lat="46.41487" lon="-1.55475">
        <ele>11.5</ele>
        <time>2020-03-11T10:35:53Z</time>
      </trkpt>
      <trkpt lat="46.41478" lon="-1.55417">
        <ele>11.8</ele>
        <time>2020-03-11T10:35:53Z</time>
      </trkpt>
      <trkpt lat="46.41468" lon="-1.55352">
        <ele>11.8</ele>
        <time>2020-03-11T10:35:53Z</time>
      </trkpt>
      <trkpt lat="46.41452" lon="-1.55267">
        <ele>11.3</ele>
        <time>2020-03-11T10:35:53Z</time>
      </trkpt>
      <trkpt lat="46.41444" lon="-1.55216">
        <ele>10</ele>
        <time>2020-03-11T10:35:53Z</time>
      </trkpt>
      <trkpt lat="46.41436" lon="-1.55183">
        <ele>10</ele>
        <time>2020-03-11T10:35:53Z</time>
      </trkpt>
      <trkpt lat="46.41431" lon="-1.55123">
        <ele>9.7</ele>
        <time>2020-03-11T10:35:53Z</time>
      </trkpt>
      <trkpt lat="46.41423" lon="-1.55083">
        <ele>9</ele>
        <time>2020-03-11T10:35:53Z</time>
      </trkpt>
      <trkpt lat="46.41421" lon="-1.55037">
        <ele>9.2</ele>
        <time>2020-03-11T10:35:53Z</time>
      </trkpt>
      <trkpt lat="46.41419" lon="-1.54997">
        <ele>10</ele>
        <time>2020-03-11T10:35:53Z</time>
      </trkpt>
      <trkpt lat="46.4142" lon="-1.54917">
        <ele>9.9</ele>
        <time>2020-03-11T10:35:53Z</time>
      </trkpt>
      <trkpt lat="46.41415" lon="-1.54879">
        <ele>8.6</ele>
        <time>2020-03-11T10:35:53Z</time>
      </trkpt>
      <trkpt lat="46.41392" lon="-1.54878">
        <ele>8.1</ele>
        <time>2020-03-11T10:35:53Z</time>
      </trkpt>
      <trkpt lat="46.4137" lon="-1.54884">
        <ele>7.2</ele>
        <time>2020-03-11T10:35:53Z</time>
      </trkpt>
      <trkpt lat="46.4134" lon="-1.54895">
        <ele>6.3</ele>
        <time>2020-03-11T10:35:53Z</time>
      </trkpt>
      <trkpt lat="46.41302" lon="-1.54912">
        <ele>5</ele>
        <time>2020-03-11T10:35:53Z</time>
      </trkpt>
      <trkpt lat="46.41233" lon="-1.5493">
        <ele>6.3</ele>
        <time>2020-03-11T10:35:53Z</time>
      </trkpt>
      <trkpt lat="46.41199" lon="-1.54939">
        <ele>6.8</ele>
        <time>2020-03-11T10:35:53Z</time>
      </trkpt>
      <trkpt lat="46.41178" lon="-1.54948">
        <ele>7</ele>
        <time>2020-03-11T10:35:53Z</time>
      </trkpt>
      <trkpt lat="46.41163" lon="-1.54933">
        <ele>6.9</ele>
        <time>2020-03-11T10:35:53Z</time>
      </trkpt>
      <trkpt lat="46.41133" lon="-1.54869">
        <ele>6</ele>
        <time>2020-03-11T10:35:53Z</time>
      </trkpt>
      <trkpt lat="46.41125" lon="-1.54843">
        <ele>6</ele>
        <time>2020-03-11T10:35:53Z</time>
      </trkpt>
      <trkpt lat="46.41113" lon="-1.54817">
        <ele>6</ele>
        <time>2020-03-11T10:35:53Z</time>
      </trkpt>
      <trkpt lat="46.41101" lon="-1.5479">
        <ele>5.3</ele>
        <time>2020-03-11T10:35:53Z</time>
      </trkpt>
      <trkpt lat="46.41084" lon="-1.5474">
        <ele>5</ele>
        <time>2020-03-11T10:35:53Z</time>
      </trkpt>
      <trkpt lat="46.41065" lon="-1.547">
        <ele>5</ele>
        <time>2020-03-11T10:35:53Z</time>
      </trkpt>
      <trkpt lat="46.41041" lon="-1.54659">
        <ele>4.9</ele>
        <time>2020-03-11T10:35:53Z</time>
      </trkpt>
      <trkpt lat="46.41024" lon="-1.54626">
        <ele>4.5</ele>
        <time>2020-03-11T10:35:53Z</time>
      </trkpt>
      <trkpt lat="46.41011" lon="-1.54605">
        <ele>4</ele>
        <time>2020-03-11T10:35:53Z</time>
      </trkpt>
      <trkpt lat="46.40974" lon="-1.5456">
        <ele>3.9</ele>
        <time>2020-03-11T10:35:53Z</time>
      </trkpt>
      <trkpt lat="46.4095" lon="-1.54529">
        <ele>3.8</ele>
        <time>2020-03-11T10:35:53Z</time>
      </trkpt>
      <trkpt lat="46.40935" lon="-1.54489">
        <ele>4</ele>
        <time>2020-03-11T10:35:53Z</time>
      </trkpt>
      <trkpt lat="46.4093" lon="-1.54435">
        <ele>4.5</ele>
        <time>2020-03-11T10:35:53Z</time>
      </trkpt>
      <trkpt lat="46.40929" lon="-1.54407">
        <ele>4.6</ele>
        <time>2020-03-11T10:35:53Z</time>
      </trkpt>
      <trkpt lat="46.40932" lon="-1.54381">
        <ele>4.2</ele>
        <time>2020-03-11T10:35:53Z</time>
      </trkpt>
      <trkpt lat="46.40942" lon="-1.54348">
        <ele>3.5</ele>
        <time>2020-03-11T10:35:53Z</time>
      </trkpt>
      <trkpt lat="46.40956" lon="-1.54311">
        <ele>3.9</ele>
        <time>2020-03-11T10:35:53Z</time>
      </trkpt>
      <trkpt lat="46.40977" lon="-1.54262">
        <ele>3.8</ele>
        <time>2020-03-11T10:35:53Z</time>
      </trkpt>
      <trkpt lat="46.40986" lon="-1.54235">
        <ele>4</ele>
        <time>2020-03-11T10:35:53Z</time>
      </trkpt>
      <trkpt lat="46.41015" lon="-1.54115">
        <ele>4.4</ele>
        <time>2020-03-11T10:35:53Z</time>
      </trkpt>
      <trkpt lat="46.41034" lon="-1.54048">
        <ele>3.8</ele>
        <time>2020-03-11T10:35:53Z</time>
      </trkpt>
      <trkpt lat="46.41051" lon="-1.53969">
        <ele>4.1</ele>
        <time>2020-03-11T10:35:53Z</time>
      </trkpt>
      <trkpt lat="46.41071" lon="-1.53859">
        <ele>5.4</ele>
        <time>2020-03-11T10:35:53Z</time>
      </trkpt>
      <trkpt lat="46.41088" lon="-1.53761">
        <ele>6</ele>
        <time>2020-03-11T10:35:53Z</time>
      </trkpt>
      <trkpt lat="46.41099" lon="-1.53674">
        <ele>5.6</ele>
        <time>2020-03-11T10:35:53Z</time>
      </trkpt>
      <trkpt lat="46.41112" lon="-1.53602">
        <ele>6</ele>
        <time>2020-03-11T10:35:53Z</time>
      </trkpt>
      <trkpt lat="46.41129" lon="-1.53501">
        <ele>6.4</ele>
        <time>2020-03-11T10:35:53Z</time>
      </trkpt>
      <trkpt lat="46.41137" lon="-1.53455">
        <ele>7</ele>
        <time>2020-03-11T10:35:53Z</time>
      </trkpt>
      <trkpt lat="46.41147" lon="-1.5342">
        <ele>7.6</ele>
        <time>2020-03-11T10:35:53Z</time>
      </trkpt>
      <trkpt lat="46.41159" lon="-1.53391">
        <ele>8.2</ele>
        <time>2020-03-11T10:35:53Z</time>
      </trkpt>
      <trkpt lat="46.41171" lon="-1.53371">
        <ele>8.6</ele>
        <time>2020-03-11T10:35:53Z</time>
      </trkpt>
      <trkpt lat="46.41191" lon="-1.53335">
        <ele>9.1</ele>
        <time>2020-03-11T10:35:53Z</time>
      </trkpt>
      <trkpt lat="46.41207" lon="-1.53303">
        <ele>10</ele>
        <time>2020-03-11T10:35:53Z</time>
      </trkpt>
      <trkpt lat="46.41218" lon="-1.53277">
        <ele>10</ele>
        <time>2020-03-11T10:35:53Z</time>
      </trkpt>
      <trkpt lat="46.41227" lon="-1.53249">
        <ele>10.2</ele>
        <time>2020-03-11T10:35:53Z</time>
      </trkpt>
      <trkpt lat="46.41233" lon="-1.53223">
        <ele>10.4</ele>
        <time>2020-03-11T10:35:53Z</time>
      </trkpt>
      <trkpt lat="46.41237" lon="-1.53196">
        <ele>11</ele>
        <time>2020-03-11T10:35:53Z</time>
      </trkpt>
      <trkpt lat="46.41241" lon="-1.5314">
        <ele>11</ele>
        <time>2020-03-11T10:35:53Z</time>
      </trkpt>
      <trkpt lat="46.41244" lon="-1.53097">
        <ele>11</ele>
        <time>2020-03-11T10:35:53Z</time>
      </trkpt>
      <trkpt lat="46.41247" lon="-1.53068">
        <ele>11</ele>
        <time>2020-03-11T10:35:53Z</time>
      </trkpt>
      <trkpt lat="46.41249" lon="-1.53039">
        <ele>11.6</ele>
        <time>2020-03-11T10:35:53Z</time>
      </trkpt>
      <trkpt lat="46.41251" lon="-1.52999">
        <ele>12</ele>
        <time>2020-03-11T10:35:53Z</time>
      </trkpt>
      <trkpt lat="46.4125" lon="-1.52961">
        <ele>12</ele>
        <time>2020-03-11T10:35:53Z</time>
      </trkpt>
      <trkpt lat="46.41254" lon="-1.52859">
        <ele>12.1</ele>
        <time>2020-03-11T10:35:53Z</time>
      </trkpt>
      <trkpt lat="46.41255" lon="-1.5283">
        <ele>12.8</ele>
        <time>2020-03-11T10:35:53Z</time>
      </trkpt>
      <trkpt lat="46.41256" lon="-1.52764">
        <ele>12.8</ele>
        <time>2020-03-11T10:35:53Z</time>
      </trkpt>
      <trkpt lat="46.41258" lon="-1.52728">
        <ele>12.7</ele>
        <time>2020-03-11T10:35:53Z</time>
      </trkpt>
      <trkpt lat="46.41266" lon="-1.52697">
        <ele>12.4</ele>
        <time>2020-03-11T10:35:53Z</time>
      </trkpt>
      <trkpt lat="46.41274" lon="-1.52671">
        <ele>12.3</ele>
        <time>2020-03-11T10:35:53Z</time>
      </trkpt>
      <trkpt lat="46.41297" lon="-1.52608">
        <ele>12.3</ele>
        <time>2020-03-11T10:35:53Z</time>
      </trkpt>
      <trkpt lat="46.41302" lon="-1.52581">
        <ele>12.1</ele>
        <time>2020-03-11T10:35:53Z</time>
      </trkpt>
      <trkpt lat="46.41304" lon="-1.5244">
        <ele>10.2</ele>
        <time>2020-03-11T10:35:53Z</time>
      </trkpt>
      <trkpt lat="46.41307" lon="-1.52406">
        <ele>9.6</ele>
        <time>2020-03-11T10:35:53Z</time>
      </trkpt>
      <trkpt lat="46.41311" lon="-1.5238">
        <ele>8.9</ele>
        <time>2020-03-11T10:35:53Z</time>
      </trkpt>
      <trkpt lat="46.4132" lon="-1.52329">
        <ele>10.1</ele>
        <time>2020-03-11T10:35:53Z</time>
      </trkpt>
      <trkpt lat="46.41328" lon="-1.52269">
        <ele>11.3</ele>
        <time>2020-03-11T10:35:53Z</time>
      </trkpt>
      <trkpt lat="46.41331" lon="-1.52235">
        <ele>12</ele>
        <time>2020-03-11T10:35:53Z</time>
      </trkpt>
      <trkpt lat="46.41334" lon="-1.52198">
        <ele>12.9</ele>
        <time>2020-03-11T10:35:53Z</time>
      </trkpt>
      <trkpt lat="46.41343" lon="-1.52096">
        <ele>13</ele>
        <time>2020-03-11T10:35:53Z</time>
      </trkpt>
      <trkpt lat="46.41353" lon="-1.52013">
        <ele>13.7</ele>
        <time>2020-03-11T10:35:53Z</time>
      </trkpt>
      <trkpt lat="46.4137" lon="-1.51868">
        <ele>13.5</ele>
        <time>2020-03-11T10:35:53Z</time>
      </trkpt>
      <trkpt lat="46.41373" lon="-1.51832">
        <ele>14</ele>
        <time>2020-03-11T10:35:53Z</time>
      </trkpt>
      <trkpt lat="46.41374" lon="-1.51805">
        <ele>14</ele>
        <time>2020-03-11T10:35:53Z</time>
      </trkpt>
      <trkpt lat="46.41372" lon="-1.51776">
        <ele>14</ele>
        <time>2020-03-11T10:35:53Z</time>
      </trkpt>
      <trkpt lat="46.41368" lon="-1.51735">
        <ele>14.8</ele>
        <time>2020-03-11T10:35:53Z</time>
      </trkpt>
      <trkpt lat="46.41344" lon="-1.51512">
        <ele>15.6</ele>
        <time>2020-03-11T10:35:53Z</time>
      </trkpt>
      <trkpt lat="46.4133" lon="-1.51489">
        <ele>16.6</ele>
        <time>2020-03-11T10:35:53Z</time>
      </trkpt>
      <trkpt lat="46.41323" lon="-1.5143">
        <ele>17.8</ele>
        <time>2020-03-11T10:35:53Z</time>
      </trkpt>
      <trkpt lat="46.41315" lon="-1.51374">
        <ele>16</ele>
        <time>2020-03-11T10:35:53Z</time>
      </trkpt>
      <trkpt lat="46.41258" lon="-1.5132">
        <ele>19.6</ele>
        <time>2020-03-11T10:35:53Z</time>
      </trkpt>
      <trkpt lat="46.41227" lon="-1.5128">
        <ele>21.4</ele>
        <time>2020-03-11T10:35:53Z</time>
      </trkpt>
      <trkpt lat="46.412" lon="-1.51243">
        <ele>22.8</ele>
        <time>2020-03-11T10:35:53Z</time>
      </trkpt>
      <trkpt lat="46.4117" lon="-1.51192">
        <ele>22</ele>
        <time>2020-03-11T10:35:53Z</time>
      </trkpt>
      <trkpt lat="46.41151" lon="-1.51162">
        <ele>21.7</ele>
        <time>2020-03-11T10:35:53Z</time>
      </trkpt>
      <trkpt lat="46.41139" lon="-1.51089">
        <ele>21.4</ele>
        <time>2020-03-11T10:35:53Z</time>
      </trkpt>
      <trkpt lat="46.41101" lon="-1.51053">
        <ele>22</ele>
        <time>2020-03-11T10:35:53Z</time>
      </trkpt>
      <trkpt lat="46.41087" lon="-1.51022">
        <ele>21</ele>
        <time>2020-03-11T10:35:53Z</time>
      </trkpt>
      <trkpt lat="46.41078" lon="-1.50991">
        <ele>19.5</ele>
        <time>2020-03-11T10:35:53Z</time>
      </trkpt>
      <trkpt lat="46.41075" lon="-1.50921">
        <ele>16.9</ele>
        <time>2020-03-11T10:35:53Z</time>
      </trkpt>
      <trkpt lat="46.41098" lon="-1.50876">
        <ele>16.5</ele>
        <time>2020-03-11T10:35:53Z</time>
      </trkpt>
      <trkpt lat="46.41111" lon="-1.5084">
        <ele>17</ele>
        <time>2020-03-11T10:35:53Z</time>
      </trkpt>
      <trkpt lat="46.41105" lon="-1.50806">
        <ele>17.8</ele>
        <time>2020-03-11T10:35:53Z</time>
      </trkpt>
      <trkpt lat="46.41098" lon="-1.50744">
        <ele>20.1</ele>
        <time>2020-03-11T10:35:53Z</time>
      </trkpt>
      <trkpt lat="46.41095" lon="-1.507">
        <ele>17.6</ele>
        <time>2020-03-11T10:35:53Z</time>
      </trkpt>
      <trkpt lat="46.41088" lon="-1.50573">
        <ele>15.8</ele>
        <time>2020-03-11T10:35:53Z</time>
      </trkpt>
      <trkpt lat="46.41085" lon="-1.50534">
        <ele>15.2</ele>
        <time>2020-03-11T10:35:53Z</time>
      </trkpt>
      <trkpt lat="46.41074" lon="-1.50502">
        <ele>17</ele>
        <time>2020-03-11T10:35:53Z</time>
      </trkpt>
      <trkpt lat="46.41046" lon="-1.50479">
        <ele>18.3</ele>
        <time>2020-03-11T10:35:53Z</time>
      </trkpt>
      <trkpt lat="46.41031" lon="-1.5045">
        <ele>16.6</ele>
        <time>2020-03-11T10:35:53Z</time>
      </trkpt>
      <trkpt lat="46.41021" lon="-1.50419">
        <ele>15.8</ele>
        <time>2020-03-11T10:35:53Z</time>
      </trkpt>
      <trkpt lat="46.4101" lon="-1.50385">
        <ele>16</ele>
        <time>2020-03-11T10:35:53Z</time>
      </trkpt>
      <trkpt lat="46.41006" lon="-1.50341">
        <ele>16</ele>
        <time>2020-03-11T10:35:53Z</time>
      </trkpt>
      <trkpt lat="46.41021" lon="-1.50315">
        <ele>16.7</ele>
        <time>2020-03-11T10:35:53Z</time>
      </trkpt>
      <trkpt lat="46.41055" lon="-1.50286">
        <ele>16.3</ele>
        <time>2020-03-11T10:35:53Z</time>
      </trkpt>
      <trkpt lat="46.41043" lon="-1.50223">
        <ele>16</ele>
        <time>2020-03-11T10:35:53Z</time>
      </trkpt>
      <trkpt lat="46.40984" lon="-1.5024">
        <ele>17</ele>
        <time>2020-03-11T10:35:53Z</time>
      </trkpt>
      <trkpt lat="46.40836" lon="-1.50322">
        <ele>14.1</ele>
        <time>2020-03-11T10:35:53Z</time>
      </trkpt>
      <trkpt lat="46.40695" lon="-1.50402">
        <ele>12</ele>
        <time>2020-03-11T10:35:53Z</time>
      </trkpt>
      <trkpt lat="46.40677" lon="-1.50401">
        <ele>12.6</ele>
        <time>2020-03-11T10:35:53Z</time>
      </trkpt>
      <trkpt lat="46.40654" lon="-1.50379">
        <ele>12.4</ele>
        <time>2020-03-11T10:35:53Z</time>
      </trkpt>
      <trkpt lat="46.40608" lon="-1.50315">
        <ele>14.4</ele>
        <time>2020-03-11T10:35:53Z</time>
      </trkpt>
      <trkpt lat="46.40538" lon="-1.50247">
        <ele>16.9</ele>
        <time>2020-03-11T10:35:53Z</time>
      </trkpt>
      <trkpt lat="46.40518" lon="-1.5023">
        <ele>15.4</ele>
        <time>2020-03-11T10:35:53Z</time>
      </trkpt>
      <trkpt lat="46.40442" lon="-1.50152">
        <ele>10.4</ele>
        <time>2020-03-11T10:35:53Z</time>
      </trkpt>
      <trkpt lat="46.40332" lon="-1.50054">
        <ele>9.8</ele>
        <time>2020-03-11T10:35:53Z</time>
      </trkpt>
      <trkpt lat="46.40391" lon="-1.4989">
        <ele>7</ele>
        <time>2020-03-11T10:35:53Z</time>
      </trkpt>
      <trkpt lat="46.40428" lon="-1.49812">
        <ele>6.2</ele>
        <time>2020-03-11T10:35:53Z</time>
      </trkpt>
      <trkpt lat="46.40471" lon="-1.49733">
        <ele>6</ele>
        <time>2020-03-11T10:35:53Z</time>
      </trkpt>
      <trkpt lat="46.40556" lon="-1.49589">
        <ele>7</ele>
        <time>2020-03-11T10:35:53Z</time>
      </trkpt>
      <trkpt lat="46.40646" lon="-1.49459">
        <ele>7.9</ele>
        <time>2020-03-11T10:35:53Z</time>
      </trkpt>
      <trkpt lat="46.40693" lon="-1.49406">
        <ele>8.1</ele>
        <time>2020-03-11T10:35:53Z</time>
      </trkpt>
      <trkpt lat="46.40753" lon="-1.49349">
        <ele>9.5</ele>
        <time>2020-03-11T10:35:53Z</time>
      </trkpt>
      <trkpt lat="46.40755" lon="-1.49309">
        <ele>9.2</ele>
        <time>2020-03-11T10:35:53Z</time>
      </trkpt>
      <trkpt lat="46.40759" lon="-1.49269">
        <ele>9</ele>
        <time>2020-03-11T10:35:53Z</time>
      </trkpt>
      <trkpt lat="46.40757" lon="-1.49241">
        <ele>8</ele>
        <time>2020-03-11T10:35:53Z</time>
      </trkpt>
      <trkpt lat="46.40747" lon="-1.49218">
        <ele>6.8</ele>
        <time>2020-03-11T10:35:53Z</time>
      </trkpt>
      <trkpt lat="46.40724" lon="-1.49213">
        <ele>6.7</ele>
        <time>2020-03-11T10:35:53Z</time>
      </trkpt>
      <trkpt lat="46.40687" lon="-1.49176">
        <ele>5.7</ele>
        <time>2020-03-11T10:35:53Z</time>
      </trkpt>
      <trkpt lat="46.40664" lon="-1.49149">
        <ele>6.1</ele>
        <time>2020-03-11T10:35:53Z</time>
      </trkpt>
      <trkpt lat="46.40598" lon="-1.49083">
        <ele>4.5</ele>
        <time>2020-03-11T10:35:53Z</time>
      </trkpt>
      <trkpt lat="46.40583" lon="-1.49067">
        <ele>4.6</ele>
        <time>2020-03-11T10:35:53Z</time>
      </trkpt>
      <trkpt lat="46.40568" lon="-1.49051">
        <ele>4.9</ele>
        <time>2020-03-11T10:35:53Z</time>
      </trkpt>
      <trkpt lat="46.40545" lon="-1.49035">
        <ele>4.2</ele>
        <time>2020-03-11T10:35:53Z</time>
      </trkpt>
      <trkpt lat="46.40522" lon="-1.49021">
        <ele>4</ele>
        <time>2020-03-11T10:35:53Z</time>
      </trkpt>
      <trkpt lat="46.40489" lon="-1.48985">
        <ele>4.7</ele>
        <time>2020-03-11T10:35:53Z</time>
      </trkpt>
      <trkpt lat="46.40476" lon="-1.48961">
        <ele>5</ele>
        <time>2020-03-11T10:35:53Z</time>
      </trkpt>
      <trkpt lat="46.40463" lon="-1.48942">
        <ele>4.7</ele>
        <time>2020-03-11T10:35:53Z</time>
      </trkpt>
      <trkpt lat="46.40446" lon="-1.48965">
        <ele>4.1</ele>
        <time>2020-03-11T10:35:53Z</time>
      </trkpt>
      <trkpt lat="46.40436" lon="-1.48996">
        <ele>4</ele>
        <time>2020-03-11T10:35:53Z</time>
      </trkpt>
      <trkpt lat="46.40426" lon="-1.49019">
        <ele>4.5</ele>
        <time>2020-03-11T10:35:53Z</time>
      </trkpt>
      <trkpt lat="46.40414" lon="-1.49042">
        <ele>4.5</ele>
        <time>2020-03-11T10:35:53Z</time>
      </trkpt>
      <trkpt lat="46.40398" lon="-1.49063">
        <ele>5.1</ele>
        <time>2020-03-11T10:35:53Z</time>
      </trkpt>
      <trkpt lat="46.4038" lon="-1.49065">
        <ele>5.9</ele>
        <time>2020-03-11T10:35:53Z</time>
      </trkpt>
      <trkpt lat="46.40363" lon="-1.4905">
        <ele>5.7</ele>
        <time>2020-03-11T10:35:53Z</time>
      </trkpt>
      <trkpt lat="46.40342" lon="-1.49006">
        <ele>5.7</ele>
        <time>2020-03-11T10:35:53Z</time>
      </trkpt>
      <trkpt lat="46.40331" lon="-1.48979">
        <ele>5.3</ele>
        <time>2020-03-11T10:35:53Z</time>
      </trkpt>
      <trkpt lat="46.40318" lon="-1.48955">
        <ele>5.5</ele>
        <time>2020-03-11T10:35:53Z</time>
      </trkpt>
      <trkpt lat="46.40298" lon="-1.48934">
        <ele>5.5</ele>
        <time>2020-03-11T10:35:53Z</time>
      </trkpt>
      <trkpt lat="46.40286" lon="-1.48906">
        <ele>6.7</ele>
        <time>2020-03-11T10:35:53Z</time>
      </trkpt>
      <trkpt lat="46.40281" lon="-1.48879">
        <ele>8.5</ele>
        <time>2020-03-11T10:35:53Z</time>
      </trkpt>
      <trkpt lat="46.40274" lon="-1.48851">
        <ele>9.3</ele>
        <time>2020-03-11T10:35:53Z</time>
      </trkpt>
      <trkpt lat="46.40266" lon="-1.48825">
        <ele>9.6</ele>
        <time>2020-03-11T10:35:53Z</time>
      </trkpt>
      <trkpt lat="46.4025" lon="-1.48795">
        <ele>9.4</ele>
        <time>2020-03-11T10:35:53Z</time>
      </trkpt>
      <trkpt lat="46.40236" lon="-1.48773">
        <ele>9.3</ele>
        <time>2020-03-11T10:35:53Z</time>
      </trkpt>
      <trkpt lat="46.40216" lon="-1.48757">
        <ele>9.7</ele>
        <time>2020-03-11T10:35:53Z</time>
      </trkpt>
      <trkpt lat="46.4019" lon="-1.48748">
        <ele>11</ele>
        <time>2020-03-11T10:35:53Z</time>
      </trkpt>
      <trkpt lat="46.4017" lon="-1.48735">
        <ele>10.1</ele>
        <time>2020-03-11T10:35:53Z</time>
      </trkpt>
      <trkpt lat="46.40165" lon="-1.48705">
        <ele>7.8</ele>
        <time>2020-03-11T10:35:53Z</time>
      </trkpt>
      <trkpt lat="46.40159" lon="-1.4868">
        <ele>6.4</ele>
        <time>2020-03-11T10:35:53Z</time>
      </trkpt>
      <trkpt lat="46.40148" lon="-1.48653">
        <ele>5</ele>
        <time>2020-03-11T10:35:53Z</time>
      </trkpt>
      <trkpt lat="46.40127" lon="-1.48639">
        <ele>4.9</ele>
        <time>2020-03-11T10:35:53Z</time>
      </trkpt>
      <trkpt lat="46.40112" lon="-1.48621">
        <ele>5.3</ele>
        <time>2020-03-11T10:35:53Z</time>
      </trkpt>
      <trkpt lat="46.40098" lon="-1.48599">
        <ele>5.3</ele>
        <time>2020-03-11T10:35:53Z</time>
      </trkpt>
      <trkpt lat="46.40078" lon="-1.4859">
        <ele>5.5</ele>
        <time>2020-03-11T10:35:53Z</time>
      </trkpt>
      <trkpt lat="46.40056" lon="-1.48596">
        <ele>6.1</ele>
        <time>2020-03-11T10:35:53Z</time>
      </trkpt>
      <trkpt lat="46.40033" lon="-1.48608">
        <ele>7</ele>
        <time>2020-03-11T10:35:53Z</time>
      </trkpt>
      <trkpt lat="46.4001" lon="-1.48609">
        <ele>9.2</ele>
        <time>2020-03-11T10:35:53Z</time>
      </trkpt>
      <trkpt lat="46.39987" lon="-1.48612">
        <ele>9.5</ele>
        <time>2020-03-11T10:35:53Z</time>
      </trkpt>
      <trkpt lat="46.3995" lon="-1.4866">
        <ele>7.6</ele>
        <time>2020-03-11T10:35:53Z</time>
      </trkpt>
      <trkpt lat="46.39927" lon="-1.48688">
        <ele>6.5</ele>
        <time>2020-03-11T10:35:53Z</time>
      </trkpt>
      <trkpt lat="46.39906" lon="-1.48699">
        <ele>7.4</ele>
        <time>2020-03-11T10:35:53Z</time>
      </trkpt>
      <trkpt lat="46.39888" lon="-1.48729">
        <ele>6.8</ele>
        <time>2020-03-11T10:35:53Z</time>
      </trkpt>
      <trkpt lat="46.39879" lon="-1.48755">
        <ele>6.7</ele>
        <time>2020-03-11T10:35:53Z</time>
      </trkpt>
      <trkpt lat="46.39873" lon="-1.48782">
        <ele>7.2</ele>
        <time>2020-03-11T10:35:53Z</time>
      </trkpt>
      <trkpt lat="46.39847" lon="-1.48825">
        <ele>7</ele>
        <time>2020-03-11T10:35:53Z</time>
      </trkpt>
      <trkpt lat="46.39827" lon="-1.48844">
        <ele>7.5</ele>
        <time>2020-03-11T10:35:53Z</time>
      </trkpt>
      <trkpt lat="46.39799" lon="-1.48849">
        <ele>6.5</ele>
        <time>2020-03-11T10:35:53Z</time>
      </trkpt>
      <trkpt lat="46.39766" lon="-1.48843">
        <ele>6.2</ele>
        <time>2020-03-11T10:35:53Z</time>
      </trkpt>
      <trkpt lat="46.39739" lon="-1.48844">
        <ele>6.2</ele>
        <time>2020-03-11T10:35:53Z</time>
      </trkpt>
      <trkpt lat="46.39718" lon="-1.48866">
        <ele>6</ele>
        <time>2020-03-11T10:35:53Z</time>
      </trkpt>
      <trkpt lat="46.39703" lon="-1.489">
        <ele>6</ele>
        <time>2020-03-11T10:35:53Z</time>
      </trkpt>
      <trkpt lat="46.39683" lon="-1.48926">
        <ele>6</ele>
        <time>2020-03-11T10:35:53Z</time>
      </trkpt>
      <trkpt lat="46.39645" lon="-1.48946">
        <ele>6.1</ele>
        <time>2020-03-11T10:35:53Z</time>
      </trkpt>
      <trkpt lat="46.39624" lon="-1.48967">
        <ele>7.2</ele>
        <time>2020-03-11T10:35:53Z</time>
      </trkpt>
      <trkpt lat="46.39586" lon="-1.48983">
        <ele>6.2</ele>
        <time>2020-03-11T10:35:53Z</time>
      </trkpt>
      <trkpt lat="46.39553" lon="-1.4896">
        <ele>7.5</ele>
        <time>2020-03-11T10:35:53Z</time>
      </trkpt>
      <trkpt lat="46.39528" lon="-1.48932">
        <ele>8.5</ele>
        <time>2020-03-11T10:35:53Z</time>
      </trkpt>
      <trkpt lat="46.39519" lon="-1.48891">
        <ele>9.6</ele>
        <time>2020-03-11T10:35:53Z</time>
      </trkpt>
      <trkpt lat="46.39502" lon="-1.48869">
        <ele>8.1</ele>
        <time>2020-03-11T10:35:53Z</time>
      </trkpt>
      <trkpt lat="46.39468" lon="-1.48859">
        <ele>6.9</ele>
        <time>2020-03-11T10:35:53Z</time>
      </trkpt>
      <trkpt lat="46.39441" lon="-1.48861">
        <ele>7.2</ele>
        <time>2020-03-11T10:35:53Z</time>
      </trkpt>
      <trkpt lat="46.39418" lon="-1.48869">
        <ele>8.6</ele>
        <time>2020-03-11T10:35:53Z</time>
      </trkpt>
      <trkpt lat="46.39398" lon="-1.4886">
        <ele>7.1</ele>
        <time>2020-03-11T10:35:53Z</time>
      </trkpt>
      <trkpt lat="46.39368" lon="-1.48825">
        <ele>7.3</ele>
        <time>2020-03-11T10:35:53Z</time>
      </trkpt>
      <trkpt lat="46.39348" lon="-1.48816">
        <ele>7.2</ele>
        <time>2020-03-11T10:35:53Z</time>
      </trkpt>
      <trkpt lat="46.39318" lon="-1.48814">
        <ele>7.9</ele>
        <time>2020-03-11T10:35:53Z</time>
      </trkpt>
      <trkpt lat="46.39295" lon="-1.48786">
        <ele>12.1</ele>
        <time>2020-03-11T10:35:53Z</time>
      </trkpt>
      <trkpt lat="46.39274" lon="-1.48739">
        <ele>11</ele>
        <time>2020-03-11T10:35:53Z</time>
      </trkpt>
      <trkpt lat="46.3928" lon="-1.48664">
        <ele>8.7</ele>
        <time>2020-03-11T10:35:53Z</time>
      </trkpt>
      <trkpt lat="46.39278" lon="-1.48634">
        <ele>7.8</ele>
        <time>2020-03-11T10:35:53Z</time>
      </trkpt>
      <trkpt lat="46.39272" lon="-1.486">
        <ele>7.8</ele>
        <time>2020-03-11T10:35:53Z</time>
      </trkpt>
      <trkpt lat="46.39258" lon="-1.48559">
        <ele>7.8</ele>
        <time>2020-03-11T10:35:53Z</time>
      </trkpt>
      <trkpt lat="46.39223" lon="-1.48547">
        <ele>11.3</ele>
        <time>2020-03-11T10:35:53Z</time>
      </trkpt>
      <trkpt lat="46.39195" lon="-1.4855">
        <ele>13.2</ele>
        <time>2020-03-11T10:35:53Z</time>
      </trkpt>
      <trkpt lat="46.39168" lon="-1.48557">
        <ele>15</ele>
        <time>2020-03-11T10:35:53Z</time>
      </trkpt>
      <trkpt lat="46.39146" lon="-1.4858">
        <ele>12.7</ele>
        <time>2020-03-11T10:35:53Z</time>
      </trkpt>
      <trkpt lat="46.39129" lon="-1.48609">
        <ele>10.5</ele>
        <time>2020-03-11T10:35:53Z</time>
      </trkpt>
      <trkpt lat="46.3909" lon="-1.48679">
        <ele>8</ele>
        <time>2020-03-11T10:35:53Z</time>
      </trkpt>
      <trkpt lat="46.39071" lon="-1.48715">
        <ele>9.6</ele>
        <time>2020-03-11T10:35:53Z</time>
      </trkpt>
      <trkpt lat="46.39061" lon="-1.48745">
        <ele>10.4</ele>
        <time>2020-03-11T10:35:53Z</time>
      </trkpt>
      <trkpt lat="46.39037" lon="-1.48813">
        <ele>10.9</ele>
        <time>2020-03-11T10:35:53Z</time>
      </trkpt>
      <trkpt lat="46.38959" lon="-1.49028">
        <ele>9.7</ele>
        <time>2020-03-11T10:35:53Z</time>
      </trkpt>
      <trkpt lat="46.38915" lon="-1.49137">
        <ele>6.1</ele>
        <time>2020-03-11T10:35:53Z</time>
      </trkpt>
      <trkpt lat="46.38889" lon="-1.49079">
        <ele>6.2</ele>
        <time>2020-03-11T10:35:53Z</time>
      </trkpt>
      <trkpt lat="46.38856" lon="-1.48986">
        <ele>5.2</ele>
        <time>2020-03-11T10:35:53Z</time>
      </trkpt>
      <trkpt lat="46.38851" lon="-1.48959">
        <ele>6.2</ele>
        <time>2020-03-11T10:35:53Z</time>
      </trkpt>
      <trkpt lat="46.38851" lon="-1.48875">
        <ele>6</ele>
        <time>2020-03-11T10:35:53Z</time>
      </trkpt>
      <trkpt lat="46.38849" lon="-1.48842">
        <ele>6.3</ele>
        <time>2020-03-11T10:35:53Z</time>
      </trkpt>
      <trkpt lat="46.38847" lon="-1.4881">
        <ele>8.6</ele>
        <time>2020-03-11T10:35:53Z</time>
      </trkpt>
      <trkpt lat="46.38843" lon="-1.48756">
        <ele>7.7</ele>
        <time>2020-03-11T10:35:53Z</time>
      </trkpt>
      <trkpt lat="46.3884" lon="-1.48716">
        <ele>8</ele>
        <time>2020-03-11T10:35:53Z</time>
      </trkpt>
      <trkpt lat="46.38835" lon="-1.4866">
        <ele>8.2</ele>
        <time>2020-03-11T10:35:53Z</time>
      </trkpt>
      <trkpt lat="46.3883" lon="-1.48617">
        <ele>10.1</ele>
        <time>2020-03-11T10:35:53Z</time>
      </trkpt>
      <trkpt lat="46.38825" lon="-1.48571">
        <ele>11.1</ele>
        <time>2020-03-11T10:35:53Z</time>
      </trkpt>
      <trkpt lat="46.38787" lon="-1.48505">
        <ele>8.1</ele>
        <time>2020-03-11T10:35:53Z</time>
      </trkpt>
      <trkpt lat="46.38753" lon="-1.4846">
        <ele>8.5</ele>
        <time>2020-03-11T10:35:53Z</time>
      </trkpt>
      <trkpt lat="46.38735" lon="-1.48423">
        <ele>8.2</ele>
        <time>2020-03-11T10:35:53Z</time>
      </trkpt>
      <trkpt lat="46.38725" lon="-1.4837">
        <ele>7.3</ele>
        <time>2020-03-11T10:35:53Z</time>
      </trkpt>
      <trkpt lat="46.38714" lon="-1.48341">
        <ele>7.8</ele>
        <time>2020-03-11T10:35:53Z</time>
      </trkpt>
      <trkpt lat="46.38699" lon="-1.48318">
        <ele>8.4</ele>
        <time>2020-03-11T10:35:53Z</time>
      </trkpt>
      <trkpt lat="46.38667" lon="-1.48287">
        <ele>7.3</ele>
        <time>2020-03-11T10:35:53Z</time>
      </trkpt>
      <trkpt lat="46.3863" lon="-1.48253">
        <ele>6.3</ele>
        <time>2020-03-11T10:35:53Z</time>
      </trkpt>
      <trkpt lat="46.38576" lon="-1.48206">
        <ele>6.3</ele>
        <time>2020-03-11T10:35:53Z</time>
      </trkpt>
      <trkpt lat="46.38556" lon="-1.48189">
        <ele>7.2</ele>
        <time>2020-03-11T10:35:53Z</time>
      </trkpt>
      <trkpt lat="46.38525" lon="-1.48167">
        <ele>7.2</ele>
        <time>2020-03-11T10:35:53Z</time>
      </trkpt>
      <trkpt lat="46.38484" lon="-1.48149">
        <ele>7.7</ele>
        <time>2020-03-11T10:35:53Z</time>
      </trkpt>
      <trkpt lat="46.38449" lon="-1.48135">
        <ele>8.7</ele>
        <time>2020-03-11T10:35:53Z</time>
      </trkpt>
      <trkpt lat="46.38452" lon="-1.47806">
        <ele>7</ele>
        <time>2020-03-11T10:35:53Z</time>
      </trkpt>
      <trkpt lat="46.38453" lon="-1.47774">
        <ele>7</ele>
        <time>2020-03-11T10:35:53Z</time>
      </trkpt>
      <trkpt lat="46.38458" lon="-1.47731">
        <ele>7.1</ele>
        <time>2020-03-11T10:35:53Z</time>
      </trkpt>
      <trkpt lat="46.38467" lon="-1.47694">
        <ele>7</ele>
        <time>2020-03-11T10:35:53Z</time>
      </trkpt>
      <trkpt lat="46.38489" lon="-1.47602">
        <ele>8.3</ele>
        <time>2020-03-11T10:35:53Z</time>
      </trkpt>
      <trkpt lat="46.38495" lon="-1.47561">
        <ele>8.4</ele>
        <time>2020-03-11T10:35:53Z</time>
      </trkpt>
      <trkpt lat="46.385" lon="-1.47519">
        <ele>9.3</ele>
        <time>2020-03-11T10:35:53Z</time>
      </trkpt>
      <trkpt lat="46.38506" lon="-1.47463">
        <ele>13.9</ele>
        <time>2020-03-11T10:35:53Z</time>
      </trkpt>
      <trkpt lat="46.38509" lon="-1.47401">
        <ele>17</ele>
        <time>2020-03-11T10:35:53Z</time>
      </trkpt>
      <trkpt lat="46.38512" lon="-1.47214">
        <ele>6.9</ele>
        <time>2020-03-11T10:35:53Z</time>
      </trkpt>
      <trkpt lat="46.38513" lon="-1.47185">
        <ele>6.5</ele>
        <time>2020-03-11T10:35:53Z</time>
      </trkpt>
      <trkpt lat="46.38495" lon="-1.47171">
        <ele>7</ele>
        <time>2020-03-11T10:35:53Z</time>
      </trkpt>
      <trkpt lat="46.38495" lon="-1.47143">
        <ele>7</ele>
        <time>2020-03-11T10:35:53Z</time>
      </trkpt>
      <trkpt lat="46.38495" lon="-1.47115">
        <ele>6.8</ele>
        <time>2020-03-11T10:35:53Z</time>
      </trkpt>
      <trkpt lat="46.38494" lon="-1.47081">
        <ele>7</ele>
        <time>2020-03-11T10:35:53Z</time>
      </trkpt>
      <trkpt lat="46.38492" lon="-1.47055">
        <ele>7</ele>
        <time>2020-03-11T10:35:53Z</time>
      </trkpt>
      <trkpt lat="46.38469" lon="-1.47042">
        <ele>6.4</ele>
        <time>2020-03-11T10:35:53Z</time>
      </trkpt>
      <trkpt lat="46.38377" lon="-1.47007">
        <ele>8</ele>
        <time>2020-03-11T10:35:53Z</time>
      </trkpt>
      <trkpt lat="46.38376" lon="-1.4698">
        <ele>7.7</ele>
        <time>2020-03-11T10:35:53Z</time>
      </trkpt>
      <trkpt lat="46.38374" lon="-1.46947">
        <ele>5.2</ele>
        <time>2020-03-11T10:35:53Z</time>
      </trkpt>
      <trkpt lat="46.3837" lon="-1.46916">
        <ele>5.7</ele>
        <time>2020-03-11T10:35:53Z</time>
      </trkpt>
      <trkpt lat="46.38366" lon="-1.46883">
        <ele>5.2</ele>
        <time>2020-03-11T10:35:53Z</time>
      </trkpt>
      <trkpt lat="46.38359" lon="-1.46858">
        <ele>6</ele>
        <time>2020-03-11T10:35:53Z</time>
      </trkpt>
      <trkpt lat="46.38348" lon="-1.46834">
        <ele>6.5</ele>
        <time>2020-03-11T10:35:53Z</time>
      </trkpt>
      <trkpt lat="46.38332" lon="-1.46804">
        <ele>6</ele>
        <time>2020-03-11T10:35:53Z</time>
      </trkpt>
      <trkpt lat="46.38318" lon="-1.46775">
        <ele>6</ele>
        <time>2020-03-11T10:35:53Z</time>
      </trkpt>
      <trkpt lat="46.38294" lon="-1.46723">
        <ele>7.7</ele>
        <time>2020-03-11T10:35:53Z</time>
      </trkpt>
      <trkpt lat="46.38273" lon="-1.46679">
        <ele>7.3</ele>
        <time>2020-03-11T10:35:53Z</time>
      </trkpt>
      <trkpt lat="46.3826" lon="-1.46655">
        <ele>7.1</ele>
        <time>2020-03-11T10:35:53Z</time>
      </trkpt>
      <trkpt lat="46.38249" lon="-1.46627">
        <ele>6.1</ele>
        <time>2020-03-11T10:35:53Z</time>
      </trkpt>
      <trkpt lat="46.38198" lon="-1.46612">
        <ele>7</ele>
        <time>2020-03-11T10:35:53Z</time>
      </trkpt>
      <trkpt lat="46.38176" lon="-1.46612">
        <ele>5.7</ele>
        <time>2020-03-11T10:35:53Z</time>
      </trkpt>
      <trkpt lat="46.38114" lon="-1.4661">
        <ele>5</ele>
        <time>2020-03-11T10:35:53Z</time>
      </trkpt>
      <trkpt lat="46.38067" lon="-1.46608">
        <ele>4.9</ele>
        <time>2020-03-11T10:35:53Z</time>
      </trkpt>
      <trkpt lat="46.38044" lon="-1.466">
        <ele>4.6</ele>
        <time>2020-03-11T10:35:53Z</time>
      </trkpt>
      <trkpt lat="46.38012" lon="-1.46585">
        <ele>4</ele>
        <time>2020-03-11T10:35:53Z</time>
      </trkpt>
      <trkpt lat="46.37986" lon="-1.4661">
        <ele>4.5</ele>
        <time>2020-03-11T10:35:53Z</time>
      </trkpt>
      <trkpt lat="46.37969" lon="-1.46626">
        <ele>8.6</ele>
        <time>2020-03-11T10:35:53Z</time>
      </trkpt>
      <trkpt lat="46.37931" lon="-1.46613">
        <ele>10.3</ele>
        <time>2020-03-11T10:35:53Z</time>
      </trkpt>
      <trkpt lat="46.37904" lon="-1.46608">
        <ele>10.3</ele>
        <time>2020-03-11T10:35:53Z</time>
      </trkpt>
      <trkpt lat="46.37886" lon="-1.46612">
        <ele>10.3</ele>
        <time>2020-03-11T10:35:53Z</time>
      </trkpt>
      <trkpt lat="46.37868" lon="-1.46611">
        <ele>11.5</ele>
        <time>2020-03-11T10:35:53Z</time>
      </trkpt>
      <trkpt lat="46.37839" lon="-1.46587">
        <ele>10.3</ele>
        <time>2020-03-11T10:35:53Z</time>
      </trkpt>
      <trkpt lat="46.3782" lon="-1.46564">
        <ele>9.4</ele>
        <time>2020-03-11T10:35:53Z</time>
      </trkpt>
      <trkpt lat="46.37803" lon="-1.46542">
        <ele>9.6</ele>
        <time>2020-03-11T10:35:53Z</time>
      </trkpt>
      <trkpt lat="46.37775" lon="-1.4652">
        <ele>9.5</ele>
        <time>2020-03-11T10:35:53Z</time>
      </trkpt>
      <trkpt lat="46.37748" lon="-1.46513">
        <ele>9.3</ele>
        <time>2020-03-11T10:35:53Z</time>
      </trkpt>
      <trkpt lat="46.37717" lon="-1.46513">
        <ele>8.2</ele>
        <time>2020-03-11T10:35:53Z</time>
      </trkpt>
      <trkpt lat="46.37698" lon="-1.46528">
        <ele>7.4</ele>
        <time>2020-03-11T10:35:53Z</time>
      </trkpt>
      <trkpt lat="46.3768" lon="-1.46547">
        <ele>6.7</ele>
        <time>2020-03-11T10:35:53Z</time>
      </trkpt>
      <trkpt lat="46.37582" lon="-1.46572">
        <ele>5</ele>
        <time>2020-03-11T10:35:53Z</time>
      </trkpt>
      <trkpt lat="46.37541" lon="-1.4658">
        <ele>5.9</ele>
        <time>2020-03-11T10:35:53Z</time>
      </trkpt>
      <trkpt lat="46.37525" lon="-1.4662">
        <ele>6</ele>
        <time>2020-03-11T10:35:53Z</time>
      </trkpt>
      <trkpt lat="46.37504" lon="-1.46645">
        <ele>6</ele>
        <time>2020-03-11T10:35:53Z</time>
      </trkpt>
      <trkpt lat="46.37484" lon="-1.46652">
        <ele>6</ele>
        <time>2020-03-11T10:35:53Z</time>
      </trkpt>
      <trkpt lat="46.3745" lon="-1.46659">
        <ele>6</ele>
        <time>2020-03-11T10:35:53Z</time>
      </trkpt>
      <trkpt lat="46.37415" lon="-1.46678">
        <ele>6.1</ele>
        <time>2020-03-11T10:35:53Z</time>
      </trkpt>
      <trkpt lat="46.37382" lon="-1.46673">
        <ele>8.5</ele>
        <time>2020-03-11T10:35:53Z</time>
      </trkpt>
      <trkpt lat="46.37387" lon="-1.46603">
        <ele>7.8</ele>
        <time>2020-03-11T10:35:53Z</time>
      </trkpt>
      <trkpt lat="46.37385" lon="-1.4656">
        <ele>8.1</ele>
        <time>2020-03-11T10:35:53Z</time>
      </trkpt>
      <trkpt lat="46.37373" lon="-1.46523">
        <ele>8.3</ele>
        <time>2020-03-11T10:35:53Z</time>
      </trkpt>
      <trkpt lat="46.37371" lon="-1.46472">
        <ele>7.1</ele>
        <time>2020-03-11T10:35:53Z</time>
      </trkpt>
      <trkpt lat="46.37368" lon="-1.46421">
        <ele>7.5</ele>
        <time>2020-03-11T10:35:53Z</time>
      </trkpt>
      <trkpt lat="46.37358" lon="-1.46385">
        <ele>7.3</ele>
        <time>2020-03-11T10:35:53Z</time>
      </trkpt>
      <trkpt lat="46.37348" lon="-1.46329">
        <ele>8.8</ele>
        <time>2020-03-11T10:35:53Z</time>
      </trkpt>
      <trkpt lat="46.37341" lon="-1.46259">
        <ele>8.1</ele>
        <time>2020-03-11T10:35:53Z</time>
      </trkpt>
      <trkpt lat="46.37326" lon="-1.46236">
        <ele>8</ele>
        <time>2020-03-11T10:35:53Z</time>
      </trkpt>
      <trkpt lat="46.37296" lon="-1.46227">
        <ele>6.8</ele>
        <time>2020-03-11T10:35:53Z</time>
      </trkpt>
      <trkpt lat="46.37275" lon="-1.46214">
        <ele>6.9</ele>
        <time>2020-03-11T10:35:53Z</time>
      </trkpt>
      <trkpt lat="46.37239" lon="-1.46192">
        <ele>6.1</ele>
        <time>2020-03-11T10:35:53Z</time>
      </trkpt>
      <trkpt lat="46.37155" lon="-1.46109">
        <ele>9.8</ele>
        <time>2020-03-11T10:35:53Z</time>
      </trkpt>
      <trkpt lat="46.37124" lon="-1.46077">
        <ele>10.6</ele>
        <time>2020-03-11T10:35:53Z</time>
      </trkpt>
      <trkpt lat="46.36988" lon="-1.45994">
        <ele>9.9</ele>
        <time>2020-03-11T10:35:53Z</time>
      </trkpt>
      <trkpt lat="46.36941" lon="-1.45981">
        <ele>9.3</ele>
        <time>2020-03-11T10:35:53Z</time>
      </trkpt>
      <trkpt lat="46.36907" lon="-1.45962">
        <ele>8.1</ele>
        <time>2020-03-11T10:35:53Z</time>
      </trkpt>
      <trkpt lat="46.36888" lon="-1.45943">
        <ele>7</ele>
        <time>2020-03-11T10:35:53Z</time>
      </trkpt>
      <trkpt lat="46.36871" lon="-1.45921">
        <ele>6.6</ele>
        <time>2020-03-11T10:35:53Z</time>
      </trkpt>
      <trkpt lat="46.3685" lon="-1.45902">
        <ele>6.3</ele>
        <time>2020-03-11T10:35:53Z</time>
      </trkpt>
      <trkpt lat="46.36676" lon="-1.4579">
        <ele>5</ele>
        <time>2020-03-11T10:35:53Z</time>
      </trkpt>
      <trkpt lat="46.36627" lon="-1.45756">
        <ele>4.1</ele>
        <time>2020-03-11T10:35:53Z</time>
      </trkpt>
      <trkpt lat="46.36589" lon="-1.45728">
        <ele>3.8</ele>
        <time>2020-03-11T10:35:53Z</time>
      </trkpt>
      <trkpt lat="46.36547" lon="-1.45689">
        <ele>4</ele>
        <time>2020-03-11T10:35:53Z</time>
      </trkpt>
      <trkpt lat="46.36508" lon="-1.45649">
        <ele>4</ele>
        <time>2020-03-11T10:35:53Z</time>
      </trkpt>
      <trkpt lat="46.36414" lon="-1.45521">
        <ele>3.2</ele>
        <time>2020-03-11T10:35:53Z</time>
      </trkpt>
      <trkpt lat="46.36395" lon="-1.45491">
        <ele>3.4</ele>
        <time>2020-03-11T10:35:53Z</time>
      </trkpt>
      <trkpt lat="46.36355" lon="-1.45419">
        <ele>3.7</ele>
        <time>2020-03-11T10:35:53Z</time>
      </trkpt>
      <trkpt lat="46.36205" lon="-1.4518">
        <ele>3.5</ele>
        <time>2020-03-11T10:35:53Z</time>
      </trkpt>
      <trkpt lat="46.36181" lon="-1.45167">
        <ele>3.5</ele>
        <time>2020-03-11T10:35:53Z</time>
      </trkpt>
      <trkpt lat="46.3615" lon="-1.45168">
        <ele>3</ele>
        <time>2020-03-11T10:35:53Z</time>
      </trkpt>
      <trkpt lat="46.36162" lon="-1.45142">
        <ele>2.9</ele>
        <time>2020-03-11T10:35:53Z</time>
      </trkpt>
      <trkpt lat="46.36163" lon="-1.45113">
        <ele>3.7</ele>
        <time>2020-03-11T10:35:53Z</time>
      </trkpt>
      <trkpt lat="46.35989" lon="-1.44817">
        <ele>2.8</ele>
        <time>2020-03-11T10:35:53Z</time>
      </trkpt>
      <trkpt lat="46.35774" lon="-1.44448">
        <ele>3.8</ele>
        <time>2020-03-11T10:35:53Z</time>
      </trkpt>
      <trkpt lat="46.35752" lon="-1.44406">
        <ele>3.4</ele>
        <time>2020-03-11T10:35:53Z</time>
      </trkpt>
      <trkpt lat="46.3573" lon="-1.44362">
        <ele>3.7</ele>
        <time>2020-03-11T10:35:53Z</time>
      </trkpt>
      <trkpt lat="46.3571" lon="-1.44318">
        <ele>3.3</ele>
        <time>2020-03-11T10:35:53Z</time>
      </trkpt>
      <trkpt lat="46.3569" lon="-1.44272">
        <ele>3.5</ele>
        <time>2020-03-11T10:35:53Z</time>
      </trkpt>
      <trkpt lat="46.35658" lon="-1.44184">
        <ele>3.1</ele>
        <time>2020-03-11T10:35:53Z</time>
      </trkpt>
      <trkpt lat="46.35545" lon="-1.43862">
        <ele>2.6</ele>
        <time>2020-03-11T10:35:53Z</time>
      </trkpt>
      <trkpt lat="46.3549" lon="-1.437">
        <ele>3.1</ele>
        <time>2020-03-11T10:35:53Z</time>
      </trkpt>
      <trkpt lat="46.35481" lon="-1.43676">
        <ele>2.8</ele>
        <time>2020-03-11T10:35:53Z</time>
      </trkpt>
      <trkpt lat="46.35434" lon="-1.43539">
        <ele>2.9</ele>
        <time>2020-03-11T10:35:53Z</time>
      </trkpt>
      <trkpt lat="46.35405" lon="-1.43463">
        <ele>3.1</ele>
        <time>2020-03-11T10:35:53Z</time>
      </trkpt>
      <trkpt lat="46.35376" lon="-1.43389">
        <ele>2.5</ele>
        <time>2020-03-11T10:35:53Z</time>
      </trkpt>
      <trkpt lat="46.35345" lon="-1.43317">
        <ele>3.2</ele>
        <time>2020-03-11T10:35:53Z</time>
      </trkpt>
      <trkpt lat="46.35318" lon="-1.43263">
        <ele>3.2</ele>
        <time>2020-03-11T10:35:53Z</time>
      </trkpt>
      <trkpt lat="46.35272" lon="-1.4316">
        <ele>3.2</ele>
        <time>2020-03-11T10:35:53Z</time>
      </trkpt>
      <trkpt lat="46.3526" lon="-1.4313">
        <ele>3.2</ele>
        <time>2020-03-11T10:35:53Z</time>
      </trkpt>
      <trkpt lat="46.35196" lon="-1.42977">
        <ele>3</ele>
        <time>2020-03-11T10:35:53Z</time>
      </trkpt>
      <trkpt lat="46.35194" lon="-1.4295">
        <ele>3</ele>
        <time>2020-03-11T10:35:53Z</time>
      </trkpt>
      <trkpt lat="46.35175" lon="-1.4295">
        <ele>3</ele>
        <time>2020-03-11T10:35:53Z</time>
      </trkpt>
      <trkpt lat="46.35154" lon="-1.42924">
        <ele>3</ele>
        <time>2020-03-11T10:35:53Z</time>
      </trkpt>
      <trkpt lat="46.35149" lon="-1.42889">
        <ele>3.4</ele>
        <time>2020-03-11T10:35:53Z</time>
      </trkpt>
      <trkpt lat="46.35161" lon="-1.4286">
        <ele>3</ele>
        <time>2020-03-11T10:35:53Z</time>
      </trkpt>
      <trkpt lat="46.35181" lon="-1.4285">
        <ele>3.2</ele>
        <time>2020-03-11T10:35:53Z</time>
      </trkpt>
      <trkpt lat="46.35203" lon="-1.42842">
        <ele>3.2</ele>
        <time>2020-03-11T10:35:53Z</time>
      </trkpt>
      <trkpt lat="46.35226" lon="-1.42821">
        <ele>3.5</ele>
        <time>2020-03-11T10:35:53Z</time>
      </trkpt>
      <trkpt lat="46.35241" lon="-1.42806">
        <ele>3.7</ele>
        <time>2020-03-11T10:35:53Z</time>
      </trkpt>
      <trkpt lat="46.35262" lon="-1.42775">
        <ele>3</ele>
        <time>2020-03-11T10:35:53Z</time>
      </trkpt>
      <trkpt lat="46.35275" lon="-1.4275">
        <ele>3</ele>
        <time>2020-03-11T10:35:53Z</time>
      </trkpt>
      <trkpt lat="46.35304" lon="-1.42691">
        <ele>2.8</ele>
        <time>2020-03-11T10:35:53Z</time>
      </trkpt>
      <trkpt lat="46.35345" lon="-1.42603">
        <ele>2.5</ele>
        <time>2020-03-11T10:35:53Z</time>
      </trkpt>
      <trkpt lat="46.35377" lon="-1.42534">
        <ele>2.6</ele>
        <time>2020-03-11T10:35:53Z</time>
      </trkpt>
      <trkpt lat="46.35388" lon="-1.42501">
        <ele>3.9</ele>
        <time>2020-03-11T10:35:53Z</time>
      </trkpt>
      <trkpt lat="46.35372" lon="-1.42466">
        <ele>3</ele>
        <time>2020-03-11T10:35:53Z</time>
      </trkpt>
      <trkpt lat="46.35362" lon="-1.42435">
        <ele>2.7</ele>
        <time>2020-03-11T10:35:53Z</time>
      </trkpt>
      <trkpt lat="46.35377" lon="-1.42414">
        <ele>2.6</ele>
        <time>2020-03-11T10:35:53Z</time>
      </trkpt>
      <trkpt lat="46.3539" lon="-1.42389">
        <ele>3</ele>
        <time>2020-03-11T10:35:53Z</time>
      </trkpt>
      <trkpt lat="46.35391" lon="-1.42362">
        <ele>3</ele>
        <time>2020-03-11T10:35:53Z</time>
      </trkpt>
      <trkpt lat="46.35386" lon="-1.42315">
        <ele>3.5</ele>
        <time>2020-03-11T10:35:53Z</time>
      </trkpt>
      <trkpt lat="46.3538" lon="-1.42255">
        <ele>3.5</ele>
        <time>2020-03-11T10:35:53Z</time>
      </trkpt>
      <trkpt lat="46.35376" lon="-1.42197">
        <ele>3</ele>
        <time>2020-03-11T10:35:53Z</time>
      </trkpt>
      <trkpt lat="46.35373" lon="-1.42047">
        <ele>2.6</ele>
        <time>2020-03-11T10:35:53Z</time>
      </trkpt>
      <trkpt lat="46.35368" lon="-1.41801">
        <ele>2.2</ele>
        <time>2020-03-11T10:35:53Z</time>
      </trkpt>
      <trkpt lat="46.35364" lon="-1.41608">
        <ele>3</ele>
        <time>2020-03-11T10:35:53Z</time>
      </trkpt>
      <trkpt lat="46.35363" lon="-1.41518">
        <ele>3</ele>
        <time>2020-03-11T10:35:53Z</time>
      </trkpt>
      <trkpt lat="46.3536" lon="-1.41387">
        <ele>3</ele>
        <time>2020-03-11T10:35:53Z</time>
      </trkpt>
      <trkpt lat="46.35358" lon="-1.41233">
        <ele>3.4</ele>
        <time>2020-03-11T10:35:53Z</time>
      </trkpt>
      <trkpt lat="46.35357" lon="-1.41144">
        <ele>2.4</ele>
        <time>2020-03-11T10:35:53Z</time>
      </trkpt>
      <trkpt lat="46.3535" lon="-1.40813">
        <ele>3.4</ele>
        <time>2020-03-11T10:35:53Z</time>
      </trkpt>
      <trkpt lat="46.35344" lon="-1.40593">
        <ele>2.4</ele>
        <time>2020-03-11T10:35:53Z</time>
      </trkpt>
      <trkpt lat="46.35343" lon="-1.40555">
        <ele>2.4</ele>
        <time>2020-03-11T10:35:53Z</time>
      </trkpt>
      <trkpt lat="46.35338" lon="-1.40491">
        <ele>3.2</ele>
        <time>2020-03-11T10:35:53Z</time>
      </trkpt>
      <trkpt lat="46.35331" lon="-1.4041">
        <ele>3.6</ele>
        <time>2020-03-11T10:35:53Z</time>
      </trkpt>
      <trkpt lat="46.35328" lon="-1.40373">
        <ele>2.8</ele>
        <time>2020-03-11T10:35:53Z</time>
      </trkpt>
      <trkpt lat="46.35336" lon="-1.40335">
        <ele>3</ele>
        <time>2020-03-11T10:35:53Z</time>
      </trkpt>
      <trkpt lat="46.35337" lon="-1.40293">
        <ele>3</ele>
        <time>2020-03-11T10:35:53Z</time>
      </trkpt>
      <trkpt lat="46.35329" lon="-1.40085">
        <ele>3.6</ele>
        <time>2020-03-11T10:35:53Z</time>
      </trkpt>
      <trkpt lat="46.35328" lon="-1.40049">
        <ele>4.2</ele>
        <time>2020-03-11T10:35:53Z</time>
      </trkpt>
      <trkpt lat="46.35322" lon="-1.39993">
        <ele>2.7</ele>
        <time>2020-03-11T10:35:53Z</time>
      </trkpt>
      <trkpt lat="46.35318" lon="-1.39907">
        <ele>2.4</ele>
        <time>2020-03-11T10:35:53Z</time>
      </trkpt>
      <trkpt lat="46.35312" lon="-1.39826">
        <ele>2.2</ele>
        <time>2020-03-11T10:35:53Z</time>
      </trkpt>
      <trkpt lat="46.35311" lon="-1.39731">
        <ele>3</ele>
        <time>2020-03-11T10:35:53Z</time>
      </trkpt>
      <trkpt lat="46.35312" lon="-1.39661">
        <ele>2.8</ele>
        <time>2020-03-11T10:35:53Z</time>
      </trkpt>
      <trkpt lat="46.35319" lon="-1.39491">
        <ele>3.1</ele>
        <time>2020-03-11T10:35:53Z</time>
      </trkpt>
      <trkpt lat="46.35324" lon="-1.39439">
        <ele>4.5</ele>
        <time>2020-03-11T10:35:53Z</time>
      </trkpt>
      <trkpt lat="46.35335" lon="-1.39327">
        <ele>2.8</ele>
        <time>2020-03-11T10:35:53Z</time>
      </trkpt>
      <trkpt lat="46.35349" lon="-1.39273">
        <ele>2.6</ele>
        <time>2020-03-11T10:35:53Z</time>
      </trkpt>
      <trkpt lat="46.35393" lon="-1.38962">
        <ele>2.1</ele>
        <time>2020-03-11T10:35:53Z</time>
      </trkpt>
      <trkpt lat="46.35425" lon="-1.38734">
        <ele>3</ele>
        <time>2020-03-11T10:35:53Z</time>
      </trkpt>
      <trkpt lat="46.3543" lon="-1.38667">
        <ele>3</ele>
        <time>2020-03-11T10:35:53Z</time>
      </trkpt>
      <trkpt lat="46.35437" lon="-1.38565">
        <ele>2.7</ele>
        <time>2020-03-11T10:35:53Z</time>
      </trkpt>
      <trkpt lat="46.35438" lon="-1.38443">
        <ele>3</ele>
        <time>2020-03-11T10:35:53Z</time>
      </trkpt>
      <trkpt lat="46.35437" lon="-1.38367">
        <ele>3</ele>
        <time>2020-03-11T10:35:53Z</time>
      </trkpt>
      <trkpt lat="46.35432" lon="-1.38302">
        <ele>3.6</ele>
        <time>2020-03-11T10:35:53Z</time>
      </trkpt>
      <trkpt lat="46.35428" lon="-1.38229">
        <ele>3.4</ele>
        <time>2020-03-11T10:35:53Z</time>
      </trkpt>
      <trkpt lat="46.35423" lon="-1.38181">
        <ele>3</ele>
        <time>2020-03-11T10:35:53Z</time>
      </trkpt>
      <trkpt lat="46.35406" lon="-1.38071">
        <ele>3.3</ele>
        <time>2020-03-11T10:35:53Z</time>
      </trkpt>
      <trkpt lat="46.35352" lon="-1.37737">
        <ele>3.3</ele>
        <time>2020-03-11T10:35:53Z</time>
      </trkpt>
      <trkpt lat="46.35279" lon="-1.37298">
        <ele>3</ele>
        <time>2020-03-11T10:35:53Z</time>
      </trkpt>
      <trkpt lat="46.35227" lon="-1.36973">
        <ele>3</ele>
        <time>2020-03-11T10:35:53Z</time>
      </trkpt>
      <trkpt lat="46.35218" lon="-1.36903">
        <ele>3</ele>
        <time>2020-03-11T10:35:53Z</time>
      </trkpt>
      <trkpt lat="46.35212" lon="-1.36856">
        <ele>3.6</ele>
        <time>2020-03-11T10:35:53Z</time>
      </trkpt>
      <trkpt lat="46.35195" lon="-1.36827">
        <ele>3.2</ele>
        <time>2020-03-11T10:35:53Z</time>
      </trkpt>
      <trkpt lat="46.35184" lon="-1.36803">
        <ele>3.6</ele>
        <time>2020-03-11T10:35:53Z</time>
      </trkpt>
      <trkpt lat="46.35158" lon="-1.36785">
        <ele>3</ele>
        <time>2020-03-11T10:35:53Z</time>
      </trkpt>
      <trkpt lat="46.35039" lon="-1.36722">
        <ele>3</ele>
        <time>2020-03-11T10:35:53Z</time>
      </trkpt>
      <trkpt lat="46.35003" lon="-1.36705">
        <ele>3.6</ele>
        <time>2020-03-11T10:35:53Z</time>
      </trkpt>
      <trkpt lat="46.34977" lon="-1.36702">
        <ele>4.6</ele>
        <time>2020-03-11T10:35:53Z</time>
      </trkpt>
      <trkpt lat="46.34959" lon="-1.36712">
        <ele>4.7</ele>
        <time>2020-03-11T10:35:53Z</time>
      </trkpt>
      <trkpt lat="46.34939" lon="-1.36717">
        <ele>4.7</ele>
        <time>2020-03-11T10:35:53Z</time>
      </trkpt>
      <trkpt lat="46.3493" lon="-1.36686">
        <ele>5</ele>
        <time>2020-03-11T10:35:53Z</time>
      </trkpt>
      <trkpt lat="46.34913" lon="-1.3665">
        <ele>4.6</ele>
        <time>2020-03-11T10:35:53Z</time>
      </trkpt>
      <trkpt lat="46.34905" lon="-1.36619">
        <ele>3.3</ele>
        <time>2020-03-11T10:35:53Z</time>
      </trkpt>
      <trkpt lat="46.34901" lon="-1.36582">
        <ele>3.6</ele>
        <time>2020-03-11T10:35:53Z</time>
      </trkpt>
      <trkpt lat="46.34898" lon="-1.36478">
        <ele>3.7</ele>
        <time>2020-03-11T10:35:53Z</time>
      </trkpt>
      <trkpt lat="46.34897" lon="-1.36402">
        <ele>3.7</ele>
        <time>2020-03-11T10:35:53Z</time>
      </trkpt>
      <trkpt lat="46.34892" lon="-1.36254">
        <ele>3.9</ele>
        <time>2020-03-11T10:35:53Z</time>
      </trkpt>
      <trkpt lat="46.3489" lon="-1.36159">
        <ele>4</ele>
        <time>2020-03-11T10:35:53Z</time>
      </trkpt>
      <trkpt lat="46.34888" lon="-1.36114">
        <ele>4.1</ele>
        <time>2020-03-11T10:35:53Z</time>
      </trkpt>
      <trkpt lat="46.34886" lon="-1.36065">
        <ele>4.5</ele>
        <time>2020-03-11T10:35:53Z</time>
      </trkpt>
      <trkpt lat="46.34882" lon="-1.36014">
        <ele>4.9</ele>
        <time>2020-03-11T10:35:53Z</time>
      </trkpt>
      <trkpt lat="46.34879" lon="-1.35977">
        <ele>5.1</ele>
        <time>2020-03-11T10:35:53Z</time>
      </trkpt>
      <trkpt lat="46.34874" lon="-1.35915">
        <ele>4</ele>
        <time>2020-03-11T10:35:53Z</time>
      </trkpt>
      <trkpt lat="46.34868" lon="-1.35882">
        <ele>3.8</ele>
        <time>2020-03-11T10:35:53Z</time>
      </trkpt>
      <trkpt lat="46.34862" lon="-1.35857">
        <ele>4</ele>
        <time>2020-03-11T10:35:53Z</time>
      </trkpt>
      <trkpt lat="46.34827" lon="-1.35728">
        <ele>3.8</ele>
        <time>2020-03-11T10:35:53Z</time>
      </trkpt>
      <trkpt lat="46.3481" lon="-1.35666">
        <ele>3.8</ele>
        <time>2020-03-11T10:35:53Z</time>
      </trkpt>
      <trkpt lat="46.34796" lon="-1.35617">
        <ele>3.8</ele>
        <time>2020-03-11T10:35:53Z</time>
      </trkpt>
      <trkpt lat="46.34789" lon="-1.35591">
        <ele>3.8</ele>
        <time>2020-03-11T10:35:53Z</time>
      </trkpt>
      <trkpt lat="46.34774" lon="-1.35535">
        <ele>4.3</ele>
        <time>2020-03-11T10:35:53Z</time>
      </trkpt>
      <trkpt lat="46.34707" lon="-1.35291">
        <ele>4.8</ele>
        <time>2020-03-11T10:35:53Z</time>
      </trkpt>
      <trkpt lat="46.34695" lon="-1.35258">
        <ele>5</ele>
        <time>2020-03-11T10:35:53Z</time>
      </trkpt>
      <trkpt lat="46.34681" lon="-1.35225">
        <ele>4.1</ele>
        <time>2020-03-11T10:35:53Z</time>
      </trkpt>
      <trkpt lat="46.34664" lon="-1.35193">
        <ele>4</ele>
        <time>2020-03-11T10:35:53Z</time>
      </trkpt>
      <trkpt lat="46.34611" lon="-1.35096">
        <ele>4</ele>
        <time>2020-03-11T10:35:53Z</time>
      </trkpt>
      <trkpt lat="46.34583" lon="-1.35044">
        <ele>4.6</ele>
        <time>2020-03-11T10:35:53Z</time>
      </trkpt>
      <trkpt lat="46.34565" lon="-1.3501">
        <ele>4</ele>
        <time>2020-03-11T10:35:53Z</time>
      </trkpt>
      <trkpt lat="46.34533" lon="-1.3495">
        <ele>3.8</ele>
        <time>2020-03-11T10:35:53Z</time>
      </trkpt>
      <trkpt lat="46.345" lon="-1.3489">
        <ele>4</ele>
        <time>2020-03-11T10:35:53Z</time>
      </trkpt>
      <trkpt lat="46.34469" lon="-1.34831">
        <ele>4.1</ele>
        <time>2020-03-11T10:35:53Z</time>
      </trkpt>
      <trkpt lat="46.34454" lon="-1.34802">
        <ele>4.6</ele>
        <time>2020-03-11T10:35:53Z</time>
      </trkpt>
      <trkpt lat="46.34439" lon="-1.34772">
        <ele>4.2</ele>
        <time>2020-03-11T10:35:53Z</time>
      </trkpt>
      <trkpt lat="46.34427" lon="-1.34743">
        <ele>4</ele>
        <time>2020-03-11T10:35:53Z</time>
      </trkpt>
      <trkpt lat="46.34417" lon="-1.34714">
        <ele>4</ele>
        <time>2020-03-11T10:35:53Z</time>
      </trkpt>
      <trkpt lat="46.34408" lon="-1.34685">
        <ele>4.2</ele>
        <time>2020-03-11T10:35:53Z</time>
      </trkpt>
      <trkpt lat="46.344" lon="-1.3465">
        <ele>3.8</ele>
        <time>2020-03-11T10:35:53Z</time>
      </trkpt>
      <trkpt lat="46.34391" lon="-1.3461">
        <ele>3</ele>
        <time>2020-03-11T10:35:53Z</time>
      </trkpt>
      <trkpt lat="46.34385" lon="-1.34584">
        <ele>3</ele>
        <time>2020-03-11T10:35:53Z</time>
      </trkpt>
      <trkpt lat="46.34364" lon="-1.34481">
        <ele>3</ele>
        <time>2020-03-11T10:35:53Z</time>
      </trkpt>
      <trkpt lat="46.34357" lon="-1.34448">
        <ele>3</ele>
        <time>2020-03-11T10:35:53Z</time>
      </trkpt>
      <trkpt lat="46.34349" lon="-1.34419">
        <ele>3</ele>
        <time>2020-03-11T10:35:53Z</time>
      </trkpt>
      <trkpt lat="46.34341" lon="-1.34394">
        <ele>3</ele>
        <time>2020-03-11T10:35:53Z</time>
      </trkpt>
      <trkpt lat="46.34324" lon="-1.34355">
        <ele>3.9</ele>
        <time>2020-03-11T10:35:53Z</time>
      </trkpt>
      <trkpt lat="46.34311" lon="-1.34332">
        <ele>3.8</ele>
        <time>2020-03-11T10:35:53Z</time>
      </trkpt>
      <trkpt lat="46.34237" lon="-1.34214">
        <ele>3.5</ele>
        <time>2020-03-11T10:35:53Z</time>
      </trkpt>
      <trkpt lat="46.34195" lon="-1.34144">
        <ele>3.8</ele>
        <time>2020-03-11T10:35:53Z</time>
      </trkpt>
      <trkpt lat="46.34114" lon="-1.34008">
        <ele>3.6</ele>
        <time>2020-03-11T10:35:53Z</time>
      </trkpt>
      <trkpt lat="46.341" lon="-1.33984">
        <ele>3.3</ele>
        <time>2020-03-11T10:35:53Z</time>
      </trkpt>
      <trkpt lat="46.34082" lon="-1.33959">
        <ele>3</ele>
        <time>2020-03-11T10:35:53Z</time>
      </trkpt>
      <trkpt lat="46.34062" lon="-1.33935">
        <ele>3</ele>
        <time>2020-03-11T10:35:53Z</time>
      </trkpt>
      <trkpt lat="46.34027" lon="-1.33893">
        <ele>3</ele>
        <time>2020-03-11T10:35:53Z</time>
      </trkpt>
      <trkpt lat="46.33934" lon="-1.33778">
        <ele>3</ele>
        <time>2020-03-11T10:35:53Z</time>
      </trkpt>
      <trkpt lat="46.3379" lon="-1.33607">
        <ele>2.9</ele>
        <time>2020-03-11T10:35:53Z</time>
      </trkpt>
      <trkpt lat="46.33716" lon="-1.33508">
        <ele>3</ele>
        <time>2020-03-11T10:35:53Z</time>
      </trkpt>
      <trkpt lat="46.33681" lon="-1.3346">
        <ele>3</ele>
        <time>2020-03-11T10:35:53Z</time>
      </trkpt>
      <trkpt lat="46.3362" lon="-1.33377">
        <ele>3</ele>
        <time>2020-03-11T10:35:53Z</time>
      </trkpt>
      <trkpt lat="46.33605" lon="-1.3335">
        <ele>3</ele>
        <time>2020-03-11T10:35:53Z</time>
      </trkpt>
      <trkpt lat="46.33586" lon="-1.33334">
        <ele>3</ele>
        <time>2020-03-11T10:35:53Z</time>
      </trkpt>
      <trkpt lat="46.33594" lon="-1.33306">
        <ele>3</ele>
        <time>2020-03-11T10:35:53Z</time>
      </trkpt>
      <trkpt lat="46.33596" lon="-1.3327">
        <ele>3</ele>
        <time>2020-03-11T10:35:53Z</time>
      </trkpt>
      <trkpt lat="46.33608" lon="-1.33189">
        <ele>3</ele>
        <time>2020-03-11T10:35:53Z</time>
      </trkpt>
      <trkpt lat="46.33618" lon="-1.33124">
        <ele>3</ele>
        <time>2020-03-11T10:35:53Z</time>
      </trkpt>
      <trkpt lat="46.33627" lon="-1.33066">
        <ele>3</ele>
        <time>2020-03-11T10:35:53Z</time>
      </trkpt>
      <trkpt lat="46.33629" lon="-1.33027">
        <ele>3</ele>
        <time>2020-03-11T10:35:53Z</time>
      </trkpt>
      <trkpt lat="46.33626" lon="-1.32998">
        <ele>3</ele>
        <time>2020-03-11T10:35:53Z</time>
      </trkpt>
      <trkpt lat="46.33618" lon="-1.32964">
        <ele>3</ele>
        <time>2020-03-11T10:35:53Z</time>
      </trkpt>
      <trkpt lat="46.33604" lon="-1.32932">
        <ele>3</ele>
        <time>2020-03-11T10:35:53Z</time>
      </trkpt>
      <trkpt lat="46.33533" lon="-1.32773">
        <ele>3</ele>
        <time>2020-03-11T10:35:53Z</time>
      </trkpt>
      <trkpt lat="46.33498" lon="-1.32697">
        <ele>3</ele>
        <time>2020-03-11T10:35:53Z</time>
      </trkpt>
      <trkpt lat="46.33478" lon="-1.32654">
        <ele>3</ele>
        <time>2020-03-11T10:35:53Z</time>
      </trkpt>
      <trkpt lat="46.33446" lon="-1.32584">
        <ele>3</ele>
        <time>2020-03-11T10:35:53Z</time>
      </trkpt>
      <trkpt lat="46.33425" lon="-1.32538">
        <ele>2.7</ele>
        <time>2020-03-11T10:35:53Z</time>
      </trkpt>
      <trkpt lat="46.33399" lon="-1.32482">
        <ele>2.8</ele>
        <time>2020-03-11T10:35:53Z</time>
      </trkpt>
      <trkpt lat="46.33359" lon="-1.32395">
        <ele>3</ele>
        <time>2020-03-11T10:35:53Z</time>
      </trkpt>
      <trkpt lat="46.3331" lon="-1.32287">
        <ele>3</ele>
        <time>2020-03-11T10:35:53Z</time>
      </trkpt>
      <trkpt lat="46.33293" lon="-1.32249">
        <ele>3</ele>
        <time>2020-03-11T10:35:53Z</time>
      </trkpt>
      <trkpt lat="46.33284" lon="-1.3222">
        <ele>3</ele>
        <time>2020-03-11T10:35:53Z</time>
      </trkpt>
      <trkpt lat="46.33269" lon="-1.32193">
        <ele>3</ele>
        <time>2020-03-11T10:35:53Z</time>
      </trkpt>
      <trkpt lat="46.33277" lon="-1.32169">
        <ele>3</ele>
        <time>2020-03-11T10:35:53Z</time>
      </trkpt>
      <trkpt lat="46.33287" lon="-1.32137">
        <ele>3</ele>
        <time>2020-03-11T10:35:53Z</time>
      </trkpt>
      <trkpt lat="46.3331" lon="-1.3207">
        <ele>3</ele>
        <time>2020-03-11T10:35:53Z</time>
      </trkpt>
      <trkpt lat="46.33322" lon="-1.32037">
        <ele>3.3</ele>
        <time>2020-03-11T10:35:53Z</time>
      </trkpt>
      <trkpt lat="46.3333" lon="-1.32009">
        <ele>3.8</ele>
        <time>2020-03-11T10:35:53Z</time>
      </trkpt>
      <trkpt lat="46.33335" lon="-1.31978">
        <ele>4</ele>
        <time>2020-03-11T10:35:53Z</time>
      </trkpt>
      <trkpt lat="46.3333" lon="-1.31951">
        <ele>4</ele>
        <time>2020-03-11T10:35:53Z</time>
      </trkpt>
      <trkpt lat="46.33346" lon="-1.31932">
        <ele>4.3</ele>
        <time>2020-03-11T10:35:53Z</time>
      </trkpt>
      <trkpt lat="46.33363" lon="-1.31918">
        <ele>4</ele>
        <time>2020-03-11T10:35:53Z</time>
      </trkpt>
      <trkpt lat="46.3338" lon="-1.31893">
        <ele>4.5</ele>
        <time>2020-03-11T10:35:53Z</time>
      </trkpt>
      <trkpt lat="46.33448" lon="-1.31749">
        <ele>4.7</ele>
        <time>2020-03-11T10:35:53Z</time>
      </trkpt>
      <trkpt lat="46.33524" lon="-1.31586">
        <ele>4.2</ele>
        <time>2020-03-11T10:35:53Z</time>
      </trkpt>
      <trkpt lat="46.33541" lon="-1.31551">
        <ele>4.1</ele>
        <time>2020-03-11T10:35:53Z</time>
      </trkpt>
      <trkpt lat="46.33563" lon="-1.31502">
        <ele>4.1</ele>
        <time>2020-03-11T10:35:53Z</time>
      </trkpt>
      <trkpt lat="46.33568" lon="-1.31476">
        <ele>4.4</ele>
        <time>2020-03-11T10:35:53Z</time>
      </trkpt>
      <trkpt lat="46.33569" lon="-1.31435">
        <ele>4.3</ele>
        <time>2020-03-11T10:35:53Z</time>
      </trkpt>
      <trkpt lat="46.33565" lon="-1.31398">
        <ele>3.8</ele>
        <time>2020-03-11T10:35:53Z</time>
      </trkpt>
      <trkpt lat="46.33507" lon="-1.31284">
        <ele>4</ele>
        <time>2020-03-11T10:35:53Z</time>
      </trkpt>
      <trkpt lat="46.33496" lon="-1.31257">
        <ele>4</ele>
        <time>2020-03-11T10:35:53Z</time>
      </trkpt>
      <trkpt lat="46.33481" lon="-1.31201">
        <ele>4</ele>
        <time>2020-03-11T10:35:53Z</time>
      </trkpt>
      <trkpt lat="46.33473" lon="-1.31171">
        <ele>4</ele>
        <time>2020-03-11T10:35:53Z</time>
      </trkpt>
      <trkpt lat="46.33463" lon="-1.31134">
        <ele>3.7</ele>
        <time>2020-03-11T10:35:53Z</time>
      </trkpt>
      <trkpt lat="46.33449" lon="-1.31095">
        <ele>4</ele>
        <time>2020-03-11T10:35:53Z</time>
      </trkpt>
      <trkpt lat="46.33435" lon="-1.31064">
        <ele>3.9</ele>
        <time>2020-03-11T10:35:53Z</time>
      </trkpt>
      <trkpt lat="46.3342" lon="-1.31035">
        <ele>4</ele>
        <time>2020-03-11T10:35:53Z</time>
      </trkpt>
      <trkpt lat="46.33391" lon="-1.30978">
        <ele>4</ele>
        <time>2020-03-11T10:35:53Z</time>
      </trkpt>
      <trkpt lat="46.33348" lon="-1.30898">
        <ele>4</ele>
        <time>2020-03-11T10:35:53Z</time>
      </trkpt>
      <trkpt lat="46.33326" lon="-1.30846">
        <ele>4</ele>
        <time>2020-03-11T10:35:53Z</time>
      </trkpt>
      <trkpt lat="46.33281" lon="-1.30752">
        <ele>4</ele>
        <time>2020-03-11T10:35:53Z</time>
      </trkpt>
      <trkpt lat="46.33268" lon="-1.3073">
        <ele>4</ele>
        <time>2020-03-11T10:35:53Z</time>
      </trkpt>
      <trkpt lat="46.33256" lon="-1.3071">
        <ele>4</ele>
        <time>2020-03-11T10:35:53Z</time>
      </trkpt>
      <trkpt lat="46.3323" lon="-1.30665">
        <ele>4</ele>
        <time>2020-03-11T10:35:53Z</time>
      </trkpt>
      <trkpt lat="46.33203" lon="-1.30621">
        <ele>4</ele>
        <time>2020-03-11T10:35:53Z</time>
      </trkpt>
      <trkpt lat="46.33171" lon="-1.3057">
        <ele>4</ele>
        <time>2020-03-11T10:35:53Z</time>
      </trkpt>
      <trkpt lat="46.33135" lon="-1.30507">
        <ele>4</ele>
        <time>2020-03-11T10:35:53Z</time>
      </trkpt>
      <trkpt lat="46.33058" lon="-1.30408">
        <ele>4</ele>
        <time>2020-03-11T10:35:53Z</time>
      </trkpt>
      <trkpt lat="46.32993" lon="-1.30325">
        <ele>4</ele>
        <time>2020-03-11T10:35:53Z</time>
      </trkpt>
      <trkpt lat="46.32936" lon="-1.30211">
        <ele>4</ele>
        <time>2020-03-11T10:35:53Z</time>
      </trkpt>
      <trkpt lat="46.32919" lon="-1.30184">
        <ele>4</ele>
        <time>2020-03-11T10:35:53Z</time>
      </trkpt>
      <trkpt lat="46.32907" lon="-1.30159">
        <ele>4</ele>
        <time>2020-03-11T10:35:53Z</time>
      </trkpt>
      <trkpt lat="46.32893" lon="-1.30127">
        <ele>4</ele>
        <time>2020-03-11T10:35:53Z</time>
      </trkpt>
      <trkpt lat="46.32807" lon="-1.3">
        <ele>4</ele>
        <time>2020-03-11T10:35:53Z</time>
      </trkpt>
      <trkpt lat="46.3275" lon="-1.29914">
        <ele>4</ele>
        <time>2020-03-11T10:35:53Z</time>
      </trkpt>
      <trkpt lat="46.32731" lon="-1.29904">
        <ele>4</ele>
        <time>2020-03-11T10:35:53Z</time>
      </trkpt>
      <trkpt lat="46.32692" lon="-1.29861">
        <ele>3.9</ele>
        <time>2020-03-11T10:35:53Z</time>
      </trkpt>
      <trkpt lat="46.32639" lon="-1.29802">
        <ele>4</ele>
        <time>2020-03-11T10:35:53Z</time>
      </trkpt>
      <trkpt lat="46.32564" lon="-1.29734">
        <ele>4</ele>
        <time>2020-03-11T10:35:53Z</time>
      </trkpt>
      <trkpt lat="46.32429" lon="-1.29601">
        <ele>4</ele>
        <time>2020-03-11T10:35:53Z</time>
      </trkpt>
      <trkpt lat="46.32393" lon="-1.29558">
        <ele>3.9</ele>
        <time>2020-03-11T10:35:53Z</time>
      </trkpt>
      <trkpt lat="46.32301" lon="-1.2944">
        <ele>4.1</ele>
        <time>2020-03-11T10:35:53Z</time>
      </trkpt>
      <trkpt lat="46.32259" lon="-1.29391">
        <ele>4.3</ele>
        <time>2020-03-11T10:35:53Z</time>
      </trkpt>
      <trkpt lat="46.32227" lon="-1.29366">
        <ele>3.9</ele>
        <time>2020-03-11T10:35:53Z</time>
      </trkpt>
      <trkpt lat="46.32122" lon="-1.29301">
        <ele>3.5</ele>
        <time>2020-03-11T10:35:53Z</time>
      </trkpt>
      <trkpt lat="46.32057" lon="-1.29261">
        <ele>4</ele>
        <time>2020-03-11T10:35:53Z</time>
      </trkpt>
      <trkpt lat="46.32035" lon="-1.29249">
        <ele>4</ele>
        <time>2020-03-11T10:35:53Z</time>
      </trkpt>
      <trkpt lat="46.32015" lon="-1.29236">
        <ele>4</ele>
        <time>2020-03-11T10:35:53Z</time>
      </trkpt>
      <trkpt lat="46.32" lon="-1.29217">
        <ele>4</ele>
        <time>2020-03-11T10:35:53Z</time>
      </trkpt>
      <trkpt lat="46.31914" lon="-1.29143">
        <ele>4</ele>
        <time>2020-03-11T10:35:53Z</time>
      </trkpt>
      <trkpt lat="46.31898" lon="-1.29121">
        <ele>4</ele>
        <time>2020-03-11T10:35:53Z</time>
      </trkpt>
      <trkpt lat="46.31872" lon="-1.2908">
        <ele>4</ele>
        <time>2020-03-11T10:35:53Z</time>
      </trkpt>
      <trkpt lat="46.31828" lon="-1.29022">
        <ele>4</ele>
        <time>2020-03-11T10:35:53Z</time>
      </trkpt>
      <trkpt lat="46.31782" lon="-1.2896">
        <ele>4.5</ele>
        <time>2020-03-11T10:35:53Z</time>
      </trkpt>
      <trkpt lat="46.31748" lon="-1.2891">
        <ele>4.7</ele>
        <time>2020-03-11T10:35:53Z</time>
      </trkpt>
      <trkpt lat="46.31724" lon="-1.28882">
        <ele>4.7</ele>
        <time>2020-03-11T10:35:53Z</time>
      </trkpt>
      <trkpt lat="46.31671" lon="-1.28815">
        <ele>4.6</ele>
        <time>2020-03-11T10:35:53Z</time>
      </trkpt>
      <trkpt lat="46.31651" lon="-1.28788">
        <ele>4.2</ele>
        <time>2020-03-11T10:35:53Z</time>
      </trkpt>
      <trkpt lat="46.3159" lon="-1.28706">
        <ele>3.5</ele>
        <time>2020-03-11T10:35:53Z</time>
      </trkpt>
      <trkpt lat="46.31552" lon="-1.28655">
        <ele>3.9</ele>
        <time>2020-03-11T10:35:53Z</time>
      </trkpt>
      <trkpt lat="46.31526" lon="-1.28621">
        <ele>4</ele>
        <time>2020-03-11T10:35:53Z</time>
      </trkpt>
      <trkpt lat="46.31501" lon="-1.28583">
        <ele>4</ele>
        <time>2020-03-11T10:35:53Z</time>
      </trkpt>
      <trkpt lat="46.31485" lon="-1.28563">
        <ele>3.3</ele>
        <time>2020-03-11T10:35:53Z</time>
      </trkpt>
      <trkpt lat="46.3146" lon="-1.28537">
        <ele>3.1</ele>
        <time>2020-03-11T10:35:53Z</time>
      </trkpt>
      <trkpt lat="46.31495" lon="-1.28449">
        <ele>3</ele>
        <time>2020-03-11T10:35:53Z</time>
      </trkpt>
      <trkpt lat="46.31459" lon="-1.28381">
        <ele>2.9</ele>
        <time>2020-03-11T10:35:53Z</time>
      </trkpt>
      <trkpt lat="46.31414" lon="-1.28316">
        <ele>3</ele>
        <time>2020-03-11T10:35:53Z</time>
      </trkpt>
      <trkpt lat="46.31384" lon="-1.28275">
        <ele>3</ele>
        <time>2020-03-11T10:35:53Z</time>
      </trkpt>
      <trkpt lat="46.31363" lon="-1.28251">
        <ele>3.9</ele>
        <time>2020-03-11T10:35:53Z</time>
      </trkpt>
      <trkpt lat="46.31343" lon="-1.28229">
        <ele>3.2</ele>
        <time>2020-03-11T10:35:53Z</time>
      </trkpt>
      <trkpt lat="46.31322" lon="-1.2821">
        <ele>3</ele>
        <time>2020-03-11T10:35:53Z</time>
      </trkpt>
      <trkpt lat="46.31302" lon="-1.28193">
        <ele>3.1</ele>
        <time>2020-03-11T10:35:53Z</time>
      </trkpt>
      <trkpt lat="46.31275" lon="-1.28168">
        <ele>3.1</ele>
        <time>2020-03-11T10:35:53Z</time>
      </trkpt>
      <trkpt lat="46.31251" lon="-1.28148">
        <ele>3.3</ele>
        <time>2020-03-11T10:35:53Z</time>
      </trkpt>
      <trkpt lat="46.31228" lon="-1.28131">
        <ele>3.6</ele>
        <time>2020-03-11T10:35:53Z</time>
      </trkpt>
      <trkpt lat="46.31188" lon="-1.28105">
        <ele>3.8</ele>
        <time>2020-03-11T10:35:53Z</time>
      </trkpt>
      <trkpt lat="46.31154" lon="-1.28087">
        <ele>3.5</ele>
        <time>2020-03-11T10:35:53Z</time>
      </trkpt>
      <trkpt lat="46.31134" lon="-1.2808">
        <ele>3.7</ele>
        <time>2020-03-11T10:35:53Z</time>
      </trkpt>
      <trkpt lat="46.31095" lon="-1.28068">
        <ele>3</ele>
        <time>2020-03-11T10:35:53Z</time>
      </trkpt>
      <trkpt lat="46.31047" lon="-1.28057">
        <ele>3.3</ele>
        <time>2020-03-11T10:35:53Z</time>
      </trkpt>
      <trkpt lat="46.31009" lon="-1.28047">
        <ele>3.7</ele>
        <time>2020-03-11T10:35:53Z</time>
      </trkpt>
      <trkpt lat="46.30991" lon="-1.28034">
        <ele>3.7</ele>
        <time>2020-03-11T10:35:53Z</time>
      </trkpt>
      <trkpt lat="46.30975" lon="-1.28016">
        <ele>4.4</ele>
        <time>2020-03-11T10:35:53Z</time>
      </trkpt>
      <trkpt lat="46.30961" lon="-1.27996">
        <ele>3.6</ele>
        <time>2020-03-11T10:35:53Z</time>
      </trkpt>
      <trkpt lat="46.30947" lon="-1.27972">
        <ele>3.9</ele>
        <time>2020-03-11T10:35:53Z</time>
      </trkpt>
      <trkpt lat="46.30922" lon="-1.27914">
        <ele>3.8</ele>
        <time>2020-03-11T10:35:53Z</time>
      </trkpt>
      <trkpt lat="46.30861" lon="-1.27757">
        <ele>5</ele>
        <time>2020-03-11T10:35:53Z</time>
      </trkpt>
      <trkpt lat="46.30827" lon="-1.27675">
        <ele>4.3</ele>
        <time>2020-03-11T10:35:53Z</time>
      </trkpt>
      <trkpt lat="46.30809" lon="-1.27637">
        <ele>4.7</ele>
        <time>2020-03-11T10:35:53Z</time>
      </trkpt>
      <trkpt lat="46.30788" lon="-1.27608">
        <ele>4.5</ele>
        <time>2020-03-11T10:35:53Z</time>
      </trkpt>
      <trkpt lat="46.30761" lon="-1.27586">
        <ele>4.5</ele>
        <time>2020-03-11T10:35:53Z</time>
      </trkpt>
      <trkpt lat="46.307" lon="-1.27546">
        <ele>3.9</ele>
        <time>2020-03-11T10:35:53Z</time>
      </trkpt>
      <trkpt lat="46.30637" lon="-1.27506">
        <ele>4</ele>
        <time>2020-03-11T10:35:53Z</time>
      </trkpt>
      <trkpt lat="46.30621" lon="-1.27484">
        <ele>3.8</ele>
        <time>2020-03-11T10:35:53Z</time>
      </trkpt>
      <trkpt lat="46.30604" lon="-1.27453">
        <ele>3.3</ele>
        <time>2020-03-11T10:35:53Z</time>
      </trkpt>
      <trkpt lat="46.30586" lon="-1.27424">
        <ele>3.8</ele>
        <time>2020-03-11T10:35:53Z</time>
      </trkpt>
      <trkpt lat="46.3053" lon="-1.27335">
        <ele>3.8</ele>
        <time>2020-03-11T10:35:53Z</time>
      </trkpt>
      <trkpt lat="46.3047" lon="-1.27237">
        <ele>4.4</ele>
        <time>2020-03-11T10:35:53Z</time>
      </trkpt>
      <trkpt lat="46.3043" lon="-1.27168">
        <ele>4</ele>
        <time>2020-03-11T10:35:53Z</time>
      </trkpt>
      <trkpt lat="46.30393" lon="-1.27108">
        <ele>3.8</ele>
        <time>2020-03-11T10:35:53Z</time>
      </trkpt>
      <trkpt lat="46.30338" lon="-1.2702">
        <ele>4.2</ele>
        <time>2020-03-11T10:35:53Z</time>
      </trkpt>
      <trkpt lat="46.3027" lon="-1.26909">
        <ele>3.6</ele>
        <time>2020-03-11T10:35:53Z</time>
      </trkpt>
      <trkpt lat="46.30193" lon="-1.26784">
        <ele>3.4</ele>
        <time>2020-03-11T10:35:53Z</time>
      </trkpt>
      <trkpt lat="46.30151" lon="-1.26716">
        <ele>3.5</ele>
        <time>2020-03-11T10:35:53Z</time>
      </trkpt>
      <trkpt lat="46.30119" lon="-1.26662">
        <ele>3.9</ele>
        <time>2020-03-11T10:35:53Z</time>
      </trkpt>
      <trkpt lat="46.30061" lon="-1.26568">
        <ele>4.1</ele>
        <time>2020-03-11T10:35:53Z</time>
      </trkpt>
      <trkpt lat="46.30022" lon="-1.26504">
        <ele>3.3</ele>
        <time>2020-03-11T10:35:53Z</time>
      </trkpt>
      <trkpt lat="46.29983" lon="-1.26441">
        <ele>4.3</ele>
        <time>2020-03-11T10:35:53Z</time>
      </trkpt>
      <trkpt lat="46.29946" lon="-1.2638">
        <ele>4.2</ele>
        <time>2020-03-11T10:35:53Z</time>
      </trkpt>
      <trkpt lat="46.29901" lon="-1.26306">
        <ele>3.7</ele>
        <time>2020-03-11T10:35:53Z</time>
      </trkpt>
      <trkpt lat="46.29854" lon="-1.26224">
        <ele>3</ele>
        <time>2020-03-11T10:35:53Z</time>
      </trkpt>
      <trkpt lat="46.29825" lon="-1.26171">
        <ele>3.4</ele>
        <time>2020-03-11T10:35:53Z</time>
      </trkpt>
      <trkpt lat="46.29778" lon="-1.26079">
        <ele>3.8</ele>
        <time>2020-03-11T10:35:53Z</time>
      </trkpt>
      <trkpt lat="46.2977" lon="-1.26055">
        <ele>3.6</ele>
        <time>2020-03-11T10:35:53Z</time>
      </trkpt>
      <trkpt lat="46.29763" lon="-1.25871">
        <ele>2</ele>
        <time>2020-03-11T10:35:53Z</time>
      </trkpt>
      <trkpt lat="46.29765" lon="-1.25833">
        <ele>2</ele>
        <time>2020-03-11T10:35:53Z</time>
      </trkpt>
      <trkpt lat="46.29782" lon="-1.25804">
        <ele>3.8</ele>
        <time>2020-03-11T10:35:53Z</time>
      </trkpt>
      <trkpt lat="46.29807" lon="-1.25794">
        <ele>2.6</ele>
        <time>2020-03-11T10:35:53Z</time>
      </trkpt>
      <trkpt lat="46.29847" lon="-1.25786">
        <ele>2.2</ele>
        <time>2020-03-11T10:35:53Z</time>
      </trkpt>
      <trkpt lat="46.29865" lon="-1.25781">
        <ele>2.6</ele>
        <time>2020-03-11T10:35:53Z</time>
      </trkpt>
      <trkpt lat="46.29891" lon="-1.25766">
        <ele>2</ele>
        <time>2020-03-11T10:35:53Z</time>
      </trkpt>
      <trkpt lat="46.29918" lon="-1.25746">
        <ele>2.8</ele>
        <time>2020-03-11T10:35:53Z</time>
      </trkpt>
      <trkpt lat="46.29967" lon="-1.2571">
        <ele>2.6</ele>
        <time>2020-03-11T10:35:53Z</time>
      </trkpt>
      <trkpt lat="46.3005" lon="-1.25644">
        <ele>2.9</ele>
        <time>2020-03-11T10:35:53Z</time>
      </trkpt>
      <trkpt lat="46.30086" lon="-1.25617">
        <ele>1.3</ele>
        <time>2020-03-11T10:35:53Z</time>
      </trkpt>
      <trkpt lat="46.30192" lon="-1.25533">
        <ele>1.8</ele>
        <time>2020-03-11T10:35:53Z</time>
      </trkpt>
      <trkpt lat="46.30301" lon="-1.25446">
        <ele>2.9</ele>
        <time>2020-03-11T10:35:53Z</time>
      </trkpt>
      <trkpt lat="46.30304" lon="-1.25414">
        <ele>3.3</ele>
        <time>2020-03-11T10:35:53Z</time>
      </trkpt>
      <trkpt lat="46.30285" lon="-1.25328">
        <ele>4.1</ele>
        <time>2020-03-11T10:35:53Z</time>
      </trkpt>
      <trkpt lat="46.3028" lon="-1.25292">
        <ele>3</ele>
        <time>2020-03-11T10:35:53Z</time>
      </trkpt>
      <trkpt lat="46.30277" lon="-1.25254">
        <ele>2</ele>
        <time>2020-03-11T10:35:53Z</time>
      </trkpt>
      <trkpt lat="46.30272" lon="-1.24985">
        <ele>2.3</ele>
        <time>2020-03-11T10:35:53Z</time>
      </trkpt>
      <trkpt lat="46.30271" lon="-1.24952">
        <ele>2.2</ele>
        <time>2020-03-11T10:35:53Z</time>
      </trkpt>
      <trkpt lat="46.30269" lon="-1.2485">
        <ele>2</ele>
        <time>2020-03-11T10:35:53Z</time>
      </trkpt>
      <trkpt lat="46.30268" lon="-1.24761">
        <ele>2</ele>
        <time>2020-03-11T10:35:53Z</time>
      </trkpt>
      <trkpt lat="46.30268" lon="-1.24727">
        <ele>2</ele>
        <time>2020-03-11T10:35:53Z</time>
      </trkpt>
      <trkpt lat="46.3027" lon="-1.24695">
        <ele>2</ele>
        <time>2020-03-11T10:35:53Z</time>
      </trkpt>
      <trkpt lat="46.30281" lon="-1.24589">
        <ele>5.4</ele>
        <time>2020-03-11T10:35:53Z</time>
      </trkpt>
      <trkpt lat="46.30297" lon="-1.2444">
        <ele>4.8</ele>
        <time>2020-03-11T10:35:53Z</time>
      </trkpt>
      <trkpt lat="46.30299" lon="-1.24346">
        <ele>3.9</ele>
        <time>2020-03-11T10:35:53Z</time>
      </trkpt>
      <trkpt lat="46.30302" lon="-1.24312">
        <ele>3.1</ele>
        <time>2020-03-11T10:35:53Z</time>
      </trkpt>
      <trkpt lat="46.30309" lon="-1.24268">
        <ele>3.6</ele>
        <time>2020-03-11T10:35:53Z</time>
      </trkpt>
      <trkpt lat="46.30318" lon="-1.24232">
        <ele>5</ele>
        <time>2020-03-11T10:35:53Z</time>
      </trkpt>
      <trkpt lat="46.30336" lon="-1.2419">
        <ele>3.5</ele>
        <time>2020-03-11T10:35:53Z</time>
      </trkpt>
      <trkpt lat="46.30357" lon="-1.24147">
        <ele>4.1</ele>
        <time>2020-03-11T10:35:53Z</time>
      </trkpt>
      <trkpt lat="46.30385" lon="-1.24111">
        <ele>2.9</ele>
        <time>2020-03-11T10:35:53Z</time>
      </trkpt>
      <trkpt lat="46.304" lon="-1.24089">
        <ele>4.4</ele>
        <time>2020-03-11T10:35:53Z</time>
      </trkpt>
      <trkpt lat="46.30416" lon="-1.24064">
        <ele>3.5</ele>
        <time>2020-03-11T10:35:53Z</time>
      </trkpt>
      <trkpt lat="46.30435" lon="-1.24043">
        <ele>4</ele>
        <time>2020-03-11T10:35:53Z</time>
      </trkpt>
      <trkpt lat="46.30465" lon="-1.24023">
        <ele>3.8</ele>
        <time>2020-03-11T10:35:53Z</time>
      </trkpt>
      <trkpt lat="46.30495" lon="-1.23988">
        <ele>3.9</ele>
        <time>2020-03-11T10:35:53Z</time>
      </trkpt>
      <trkpt lat="46.30518" lon="-1.23953">
        <ele>4.1</ele>
        <time>2020-03-11T10:35:53Z</time>
      </trkpt>
      <trkpt lat="46.30532" lon="-1.23929">
        <ele>3.4</ele>
        <time>2020-03-11T10:35:53Z</time>
      </trkpt>
      <trkpt lat="46.30542" lon="-1.23906">
        <ele>4</ele>
        <time>2020-03-11T10:35:53Z</time>
      </trkpt>
      <trkpt lat="46.30559" lon="-1.23856">
        <ele>2.8</ele>
        <time>2020-03-11T10:35:53Z</time>
      </trkpt>
      <trkpt lat="46.30571" lon="-1.23831">
        <ele>2.6</ele>
        <time>2020-03-11T10:35:53Z</time>
      </trkpt>
      <trkpt lat="46.30593" lon="-1.23823">
        <ele>3.2</ele>
        <time>2020-03-11T10:35:53Z</time>
      </trkpt>
      <trkpt lat="46.30619" lon="-1.23828">
        <ele>3.5</ele>
        <time>2020-03-11T10:35:53Z</time>
      </trkpt>
      <trkpt lat="46.30637" lon="-1.23831">
        <ele>3</ele>
        <time>2020-03-11T10:35:53Z</time>
      </trkpt>
      <trkpt lat="46.30665" lon="-1.23841">
        <ele>1.8</ele>
        <time>2020-03-11T10:35:53Z</time>
      </trkpt>
      <trkpt lat="46.30722" lon="-1.2389">
        <ele>2</ele>
        <time>2020-03-11T10:35:53Z</time>
      </trkpt>
      <trkpt lat="46.30746" lon="-1.23906">
        <ele>1.9</ele>
        <time>2020-03-11T10:35:53Z</time>
      </trkpt>
      <trkpt lat="46.30757" lon="-1.23933">
        <ele>1.6</ele>
        <time>2020-03-11T10:35:53Z</time>
      </trkpt>
      <trkpt lat="46.30783" lon="-1.2396">
        <ele>1.5</ele>
        <time>2020-03-11T10:35:53Z</time>
      </trkpt>
      <trkpt lat="46.30827" lon="-1.24016">
        <ele>1.3</ele>
        <time>2020-03-11T10:35:53Z</time>
      </trkpt>
      <trkpt lat="46.30969" lon="-1.243">
        <ele>1</ele>
        <time>2020-03-11T10:35:53Z</time>
      </trkpt>
      <trkpt lat="46.31005" lon="-1.24325">
        <ele>1</ele>
        <time>2020-03-11T10:35:53Z</time>
      </trkpt>
      <trkpt lat="46.31556" lon="-1.24467">
        <ele>1</ele>
        <time>2020-03-11T10:35:53Z</time>
      </trkpt>
      <trkpt lat="46.32602" lon="-1.24579">
        <ele>2</ele>
        <time>2020-03-11T10:35:53Z</time>
      </trkpt>
      <trkpt lat="46.32797" lon="-1.24395">
        <ele>2</ele>
        <time>2020-03-11T10:35:53Z</time>
      </trkpt>
      <trkpt lat="46.32841" lon="-1.24347">
        <ele>2</ele>
        <time>2020-03-11T10:35:53Z</time>
      </trkpt>
      <trkpt lat="46.32857" lon="-1.24329">
        <ele>2</ele>
        <time>2020-03-11T10:35:53Z</time>
      </trkpt>
      <trkpt lat="46.32902" lon="-1.24249">
        <ele>2</ele>
        <time>2020-03-11T10:35:53Z</time>
      </trkpt>
      <trkpt lat="46.32916" lon="-1.24227">
        <ele>2</ele>
        <time>2020-03-11T10:35:53Z</time>
      </trkpt>
      <trkpt lat="46.32934" lon="-1.24246">
        <ele>1.9</ele>
        <time>2020-03-11T10:35:53Z</time>
      </trkpt>
      <trkpt lat="46.3295" lon="-1.2426">
        <ele>2</ele>
        <time>2020-03-11T10:35:53Z</time>
      </trkpt>
      <trkpt lat="46.32967" lon="-1.2427">
        <ele>2</ele>
        <time>2020-03-11T10:35:53Z</time>
      </trkpt>
      <trkpt lat="46.33002" lon="-1.24285">
        <ele>2</ele>
        <time>2020-03-11T10:35:53Z</time>
      </trkpt>
      <trkpt lat="46.33059" lon="-1.24304">
        <ele>2</ele>
        <time>2020-03-11T10:35:53Z</time>
      </trkpt>
      <trkpt lat="46.33244" lon="-1.24372">
        <ele>2</ele>
        <time>2020-03-11T10:35:53Z</time>
      </trkpt>
      <trkpt lat="46.33518" lon="-1.24469">
        <ele>2</ele>
        <time>2020-03-11T10:35:53Z</time>
      </trkpt>
      <trkpt lat="46.33676" lon="-1.24526">
        <ele>2.3</ele>
        <time>2020-03-11T10:35:53Z</time>
      </trkpt>
      <trkpt lat="46.33745" lon="-1.24551">
        <ele>2</ele>
        <time>2020-03-11T10:35:53Z</time>
      </trkpt>
      <trkpt lat="46.33825" lon="-1.24578">
        <ele>2.6</ele>
        <time>2020-03-11T10:35:53Z</time>
      </trkpt>
      <trkpt lat="46.33945" lon="-1.24621">
        <ele>3</ele>
        <time>2020-03-11T10:35:53Z</time>
      </trkpt>
      <trkpt lat="46.34104" lon="-1.24678">
        <ele>2.2</ele>
        <time>2020-03-11T10:35:53Z</time>
      </trkpt>
      <trkpt lat="46.34266" lon="-1.24735">
        <ele>2.2</ele>
        <time>2020-03-11T10:35:53Z</time>
      </trkpt>
      <trkpt lat="46.34401" lon="-1.24783">
        <ele>2.9</ele>
        <time>2020-03-11T10:35:53Z</time>
      </trkpt>
      <trkpt lat="46.34425" lon="-1.24792">
        <ele>2.6</ele>
        <time>2020-03-11T10:35:53Z</time>
      </trkpt>
      <trkpt lat="46.34457" lon="-1.24799">
        <ele>3</ele>
        <time>2020-03-11T10:35:53Z</time>
      </trkpt>
      <trkpt lat="46.34489" lon="-1.24803">
        <ele>3</ele>
        <time>2020-03-11T10:35:53Z</time>
      </trkpt>
      <trkpt lat="46.3451" lon="-1.24804">
        <ele>3</ele>
        <time>2020-03-11T10:35:53Z</time>
      </trkpt>
      <trkpt lat="46.34533" lon="-1.24804">
        <ele>3</ele>
        <time>2020-03-11T10:35:53Z</time>
      </trkpt>
      <trkpt lat="46.34581" lon="-1.24801">
        <ele>3</ele>
        <time>2020-03-11T10:35:53Z</time>
      </trkpt>
      <trkpt lat="46.34621" lon="-1.248">
        <ele>3</ele>
        <time>2020-03-11T10:35:53Z</time>
      </trkpt>
      <trkpt lat="46.34665" lon="-1.24798">
        <ele>3</ele>
        <time>2020-03-11T10:35:53Z</time>
      </trkpt>
      <trkpt lat="46.34708" lon="-1.24797">
        <ele>3.3</ele>
        <time>2020-03-11T10:35:53Z</time>
      </trkpt>
      <trkpt lat="46.34849" lon="-1.2479">
        <ele>2.8</ele>
        <time>2020-03-11T10:35:53Z</time>
      </trkpt>
      <trkpt lat="46.34901" lon="-1.24787">
        <ele>3.2</ele>
        <time>2020-03-11T10:35:53Z</time>
      </trkpt>
      <trkpt lat="46.34991" lon="-1.24783">
        <ele>3</ele>
        <time>2020-03-11T10:35:53Z</time>
      </trkpt>
      <trkpt lat="46.35091" lon="-1.24776">
        <ele>3</ele>
        <time>2020-03-11T10:35:53Z</time>
      </trkpt>
      <trkpt lat="46.35089" lon="-1.24743">
        <ele>3.1</ele>
        <time>2020-03-11T10:35:53Z</time>
      </trkpt>
      <trkpt lat="46.35119" lon="-1.24622">
        <ele>3</ele>
        <time>2020-03-11T10:35:53Z</time>
      </trkpt>
      <trkpt lat="46.35143" lon="-1.24538">
        <ele>3</ele>
        <time>2020-03-11T10:35:53Z</time>
      </trkpt>
      <trkpt lat="46.35151" lon="-1.2451">
        <ele>3</ele>
        <time>2020-03-11T10:35:53Z</time>
      </trkpt>
      <trkpt lat="46.35164" lon="-1.24465">
        <ele>3</ele>
        <time>2020-03-11T10:35:53Z</time>
      </trkpt>
      <trkpt lat="46.35222" lon="-1.24243">
        <ele>3</ele>
        <time>2020-03-11T10:35:53Z</time>
      </trkpt>
      <trkpt lat="46.3525" lon="-1.24152">
        <ele>3</ele>
        <time>2020-03-11T10:35:53Z</time>
      </trkpt>
      <trkpt lat="46.35264" lon="-1.24091">
        <ele>3</ele>
        <time>2020-03-11T10:35:53Z</time>
      </trkpt>
      <trkpt lat="46.35267" lon="-1.23989">
        <ele>2.8</ele>
        <time>2020-03-11T10:35:53Z</time>
      </trkpt>
      <trkpt lat="46.35274" lon="-1.23942">
        <ele>3</ele>
        <time>2020-03-11T10:35:53Z</time>
      </trkpt>
      <trkpt lat="46.35382" lon="-1.23581">
        <ele>2.3</ele>
        <time>2020-03-11T10:35:53Z</time>
      </trkpt>
      <trkpt lat="46.35402" lon="-1.23511">
        <ele>3</ele>
        <time>2020-03-11T10:35:53Z</time>
      </trkpt>
      <trkpt lat="46.35426" lon="-1.23463">
        <ele>2.7</ele>
        <time>2020-03-11T10:35:53Z</time>
      </trkpt>
      <trkpt lat="46.35475" lon="-1.23313">
        <ele>2.9</ele>
        <time>2020-03-11T10:35:53Z</time>
      </trkpt>
      <trkpt lat="46.35484" lon="-1.23287">
        <ele>2.6</ele>
        <time>2020-03-11T10:35:53Z</time>
      </trkpt>
      <trkpt lat="46.3556" lon="-1.2299">
        <ele>2.8</ele>
        <time>2020-03-11T10:35:53Z</time>
      </trkpt>
      <trkpt lat="46.35629" lon="-1.22751">
        <ele>3</ele>
        <time>2020-03-11T10:35:53Z</time>
      </trkpt>
      <trkpt lat="46.35636" lon="-1.22716">
        <ele>3</ele>
        <time>2020-03-11T10:35:53Z</time>
      </trkpt>
      <trkpt lat="46.35652" lon="-1.22668">
        <ele>3</ele>
        <time>2020-03-11T10:35:53Z</time>
      </trkpt>
      <trkpt lat="46.35739" lon="-1.2237">
        <ele>2.4</ele>
        <time>2020-03-11T10:35:53Z</time>
      </trkpt>
      <trkpt lat="46.35771" lon="-1.22249">
        <ele>3</ele>
        <time>2020-03-11T10:35:53Z</time>
      </trkpt>
      <trkpt lat="46.35798" lon="-1.22181">
        <ele>2.6</ele>
        <time>2020-03-11T10:35:53Z</time>
      </trkpt>
      <trkpt lat="46.35836" lon="-1.22082">
        <ele>2.9</ele>
        <time>2020-03-11T10:35:53Z</time>
      </trkpt>
      <trkpt lat="46.35865" lon="-1.22004">
        <ele>2.2</ele>
        <time>2020-03-11T10:35:53Z</time>
      </trkpt>
      <trkpt lat="46.35883" lon="-1.21945">
        <ele>3</ele>
        <time>2020-03-11T10:35:53Z</time>
      </trkpt>
      <trkpt lat="46.35906" lon="-1.21892">
        <ele>2.6</ele>
        <time>2020-03-11T10:35:53Z</time>
      </trkpt>
      <trkpt lat="46.35924" lon="-1.21872">
        <ele>3.2</ele>
        <time>2020-03-11T10:35:53Z</time>
      </trkpt>
      <trkpt lat="46.35849" lon="-1.2174">
        <ele>2.7</ele>
        <time>2020-03-11T10:35:53Z</time>
      </trkpt>
      <trkpt lat="46.35836" lon="-1.21718">
        <ele>3.5</ele>
        <time>2020-03-11T10:35:53Z</time>
      </trkpt>
      <trkpt lat="46.35817" lon="-1.217">
        <ele>3.2</ele>
        <time>2020-03-11T10:35:53Z</time>
      </trkpt>
      <trkpt lat="46.35785" lon="-1.21676">
        <ele>3.4</ele>
        <time>2020-03-11T10:35:53Z</time>
      </trkpt>
      <trkpt lat="46.35801" lon="-1.2163">
        <ele>3.1</ele>
        <time>2020-03-11T10:35:53Z</time>
      </trkpt>
      <trkpt lat="46.35858" lon="-1.21657">
        <ele>3.3</ele>
        <time>2020-03-11T10:35:53Z</time>
      </trkpt>
      <trkpt lat="46.35953" lon="-1.21694">
        <ele>3</ele>
        <time>2020-03-11T10:35:53Z</time>
      </trkpt>
      <trkpt lat="46.3597" lon="-1.21678">
        <ele>3</ele>
        <time>2020-03-11T10:35:53Z</time>
      </trkpt>
      <trkpt lat="46.35971" lon="-1.21606">
        <ele>3</ele>
        <time>2020-03-11T10:35:53Z</time>
      </trkpt>
      <trkpt lat="46.35965" lon="-1.2148">
        <ele>2</ele>
        <time>2020-03-11T10:35:53Z</time>
      </trkpt>
      <trkpt lat="46.35957" lon="-1.21358">
        <ele>2.1</ele>
        <time>2020-03-11T10:35:53Z</time>
      </trkpt>
      <trkpt lat="46.35918" lon="-1.20678">
        <ele>3</ele>
        <time>2020-03-11T10:35:53Z</time>
      </trkpt>
      <trkpt lat="46.35918" lon="-1.2063">
        <ele>3</ele>
        <time>2020-03-11T10:35:53Z</time>
      </trkpt>
      <trkpt lat="46.35926" lon="-1.20539">
        <ele>2.3</ele>
        <time>2020-03-11T10:35:53Z</time>
      </trkpt>
      <trkpt lat="46.35965" lon="-1.20134">
        <ele>3</ele>
        <time>2020-03-11T10:35:53Z</time>
      </trkpt>
      <trkpt lat="46.35981" lon="-1.19914">
        <ele>3</ele>
        <time>2020-03-11T10:35:53Z</time>
      </trkpt>
      <trkpt lat="46.35991" lon="-1.19832">
        <ele>2</ele>
        <time>2020-03-11T10:35:53Z</time>
      </trkpt>
      <trkpt lat="46.36009" lon="-1.19646">
        <ele>2.8</ele>
        <time>2020-03-11T10:35:53Z</time>
      </trkpt>
      <trkpt lat="46.36018" lon="-1.19622">
        <ele>2.4</ele>
        <time>2020-03-11T10:35:53Z</time>
      </trkpt>
      <trkpt lat="46.36018" lon="-1.19579">
        <ele>2.1</ele>
        <time>2020-03-11T10:35:53Z</time>
      </trkpt>
      <trkpt lat="46.36033" lon="-1.19439">
        <ele>2.8</ele>
        <time>2020-03-11T10:35:53Z</time>
      </trkpt>
      <trkpt lat="46.36038" lon="-1.19372">
        <ele>2.6</ele>
        <time>2020-03-11T10:35:53Z</time>
      </trkpt>
      <trkpt lat="46.3606" lon="-1.19176">
        <ele>3.1</ele>
        <time>2020-03-11T10:35:53Z</time>
      </trkpt>
      <trkpt lat="46.36095" lon="-1.18851">
        <ele>2.4</ele>
        <time>2020-03-11T10:35:53Z</time>
      </trkpt>
      <trkpt lat="46.36121" lon="-1.18685">
        <ele>2.1</ele>
        <time>2020-03-11T10:35:53Z</time>
      </trkpt>
      <trkpt lat="46.36139" lon="-1.18562">
        <ele>3.8</ele>
        <time>2020-03-11T10:35:53Z</time>
      </trkpt>
      <trkpt lat="46.36143" lon="-1.18529">
        <ele>3</ele>
        <time>2020-03-11T10:35:53Z</time>
      </trkpt>
      <trkpt lat="46.36146" lon="-1.18488">
        <ele>2</ele>
        <time>2020-03-11T10:35:53Z</time>
      </trkpt>
      <trkpt lat="46.36143" lon="-1.18447">
        <ele>2.8</ele>
        <time>2020-03-11T10:35:53Z</time>
      </trkpt>
      <trkpt lat="46.36116" lon="-1.18221">
        <ele>3.6</ele>
        <time>2020-03-11T10:35:53Z</time>
      </trkpt>
      <trkpt lat="46.36108" lon="-1.18141">
        <ele>3.1</ele>
        <time>2020-03-11T10:35:53Z</time>
      </trkpt>
      <trkpt lat="46.36104" lon="-1.18114">
        <ele>3</ele>
        <time>2020-03-11T10:35:53Z</time>
      </trkpt>
      <trkpt lat="46.36098" lon="-1.18026">
        <ele>2</ele>
        <time>2020-03-11T10:35:53Z</time>
      </trkpt>
      <trkpt lat="46.36096" lon="-1.17988">
        <ele>2.5</ele>
        <time>2020-03-11T10:35:53Z</time>
      </trkpt>
      <trkpt lat="46.36094" lon="-1.17913">
        <ele>2</ele>
        <time>2020-03-11T10:35:53Z</time>
      </trkpt>
      <trkpt lat="46.36093" lon="-1.17743">
        <ele>2</ele>
        <time>2020-03-11T10:35:53Z</time>
      </trkpt>
      <trkpt lat="46.36094" lon="-1.177">
        <ele>2.5</ele>
        <time>2020-03-11T10:35:53Z</time>
      </trkpt>
      <trkpt lat="46.361" lon="-1.17526">
        <ele>2.4</ele>
        <time>2020-03-11T10:35:53Z</time>
      </trkpt>
      <trkpt lat="46.36103" lon="-1.17409">
        <ele>2.7</ele>
        <time>2020-03-11T10:35:53Z</time>
      </trkpt>
      <trkpt lat="46.36107" lon="-1.17283">
        <ele>3</ele>
        <time>2020-03-11T10:35:53Z</time>
      </trkpt>
      <trkpt lat="46.36107" lon="-1.17249">
        <ele>3.8</ele>
        <time>2020-03-11T10:35:53Z</time>
      </trkpt>
      <trkpt lat="46.35884" lon="-1.16941">
        <ele>2.9</ele>
        <time>2020-03-11T10:35:53Z</time>
      </trkpt>
      <trkpt lat="46.35854" lon="-1.16901">
        <ele>2.4</ele>
        <time>2020-03-11T10:35:53Z</time>
      </trkpt>
      <trkpt lat="46.3583" lon="-1.16861">
        <ele>3</ele>
        <time>2020-03-11T10:35:53Z</time>
      </trkpt>
      <trkpt lat="46.35814" lon="-1.1683">
        <ele>2</ele>
        <time>2020-03-11T10:35:53Z</time>
      </trkpt>
      <trkpt lat="46.35813" lon="-1.16796">
        <ele>2</ele>
        <time>2020-03-11T10:35:53Z</time>
      </trkpt>
      <trkpt lat="46.35835" lon="-1.1666">
        <ele>2.8</ele>
        <time>2020-03-11T10:35:53Z</time>
      </trkpt>
      <trkpt lat="46.35682" lon="-1.16635">
        <ele>2.9</ele>
        <time>2020-03-11T10:35:53Z</time>
      </trkpt>
      <trkpt lat="46.35653" lon="-1.16632">
        <ele>2.8</ele>
        <time>2020-03-11T10:35:53Z</time>
      </trkpt>
      <trkpt lat="46.35631" lon="-1.16625">
        <ele>2.5</ele>
        <time>2020-03-11T10:35:53Z</time>
      </trkpt>
      <trkpt lat="46.35573" lon="-1.16617">
        <ele>2.1</ele>
        <time>2020-03-11T10:35:53Z</time>
      </trkpt>
      <trkpt lat="46.35578" lon="-1.16574">
        <ele>2.9</ele>
        <time>2020-03-11T10:35:53Z</time>
      </trkpt>
      <trkpt lat="46.35553" lon="-1.16568">
        <ele>2.6</ele>
        <time>2020-03-11T10:35:53Z</time>
      </trkpt>
      <trkpt lat="46.35516" lon="-1.1656">
        <ele>2.8</ele>
        <time>2020-03-11T10:35:53Z</time>
      </trkpt>
      <trkpt lat="46.35475" lon="-1.1645">
        <ele>2.8</ele>
        <time>2020-03-11T10:35:53Z</time>
      </trkpt>
      <trkpt lat="46.35469" lon="-1.16377">
        <ele>2.9</ele>
        <time>2020-03-11T10:35:53Z</time>
      </trkpt>
      <trkpt lat="46.35458" lon="-1.16285">
        <ele>2.7</ele>
        <time>2020-03-11T10:35:53Z</time>
      </trkpt>
      <trkpt lat="46.35449" lon="-1.1625">
        <ele>3</ele>
        <time>2020-03-11T10:35:53Z</time>
      </trkpt>
      <trkpt lat="46.35433" lon="-1.16216">
        <ele>2.5</ele>
        <time>2020-03-11T10:35:53Z</time>
      </trkpt>
      <trkpt lat="46.3542" lon="-1.16183">
        <ele>2.5</ele>
        <time>2020-03-11T10:35:53Z</time>
      </trkpt>
      <trkpt lat="46.35403" lon="-1.16144">
        <ele>2</ele>
        <time>2020-03-11T10:35:53Z</time>
      </trkpt>
      <trkpt lat="46.3536" lon="-1.16056">
        <ele>2.9</ele>
        <time>2020-03-11T10:35:53Z</time>
      </trkpt>
      <trkpt lat="46.35196" lon="-1.15716">
        <ele>2.7</ele>
        <time>2020-03-11T10:35:53Z</time>
      </trkpt>
      <trkpt lat="46.35048" lon="-1.15408">
        <ele>2.6</ele>
        <time>2020-03-11T10:35:53Z</time>
      </trkpt>
      <trkpt lat="46.35016" lon="-1.1534">
        <ele>2.5</ele>
        <time>2020-03-11T10:35:53Z</time>
      </trkpt>
      <trkpt lat="46.34959" lon="-1.15221">
        <ele>2</ele>
        <time>2020-03-11T10:35:53Z</time>
      </trkpt>
      <trkpt lat="46.34936" lon="-1.15186">
        <ele>2.6</ele>
        <time>2020-03-11T10:35:53Z</time>
      </trkpt>
      <trkpt lat="46.34851" lon="-1.15116">
        <ele>2.4</ele>
        <time>2020-03-11T10:35:53Z</time>
      </trkpt>
      <trkpt lat="46.348" lon="-1.15079">
        <ele>2.7</ele>
        <time>2020-03-11T10:35:53Z</time>
      </trkpt>
      <trkpt lat="46.34777" lon="-1.15065">
        <ele>2.7</ele>
        <time>2020-03-11T10:35:53Z</time>
      </trkpt>
      <trkpt lat="46.34737" lon="-1.15061">
        <ele>2.8</ele>
        <time>2020-03-11T10:35:53Z</time>
      </trkpt>
      <trkpt lat="46.34626" lon="-1.15086">
        <ele>2.9</ele>
        <time>2020-03-11T10:35:53Z</time>
      </trkpt>
      <trkpt lat="46.3459" lon="-1.15057">
        <ele>2.7</ele>
        <time>2020-03-11T10:35:53Z</time>
      </trkpt>
      <trkpt lat="46.34282" lon="-1.14441">
        <ele>2.8</ele>
        <time>2020-03-11T10:35:53Z</time>
      </trkpt>
      <trkpt lat="46.34094" lon="-1.14062">
        <ele>2.6</ele>
        <time>2020-03-11T10:35:53Z</time>
      </trkpt>
      <trkpt lat="46.34067" lon="-1.1401">
        <ele>2.5</ele>
        <time>2020-03-11T10:35:53Z</time>
      </trkpt>
      <trkpt lat="46.33932" lon="-1.13801">
        <ele>2.1</ele>
        <time>2020-03-11T10:35:53Z</time>
      </trkpt>
      <trkpt lat="46.33896" lon="-1.13745">
        <ele>2.7</ele>
        <time>2020-03-11T10:35:53Z</time>
      </trkpt>
      <trkpt lat="46.33705" lon="-1.13444">
        <ele>2.6</ele>
        <time>2020-03-11T10:35:53Z</time>
      </trkpt>
      <trkpt lat="46.3364" lon="-1.1334">
        <ele>2.7</ele>
        <time>2020-03-11T10:35:53Z</time>
      </trkpt>
      <trkpt lat="46.33595" lon="-1.1327">
        <ele>2.2</ele>
        <time>2020-03-11T10:35:53Z</time>
      </trkpt>
      <trkpt lat="46.33577" lon="-1.13241">
        <ele>2.5</ele>
        <time>2020-03-11T10:35:53Z</time>
      </trkpt>
      <trkpt lat="46.33467" lon="-1.13068">
        <ele>2.4</ele>
        <time>2020-03-11T10:35:53Z</time>
      </trkpt>
      <trkpt lat="46.33049" lon="-1.12434">
        <ele>2.5</ele>
        <time>2020-03-11T10:35:53Z</time>
      </trkpt>
      <trkpt lat="46.33004" lon="-1.12361">
        <ele>2.9</ele>
        <time>2020-03-11T10:35:53Z</time>
      </trkpt>
      <trkpt lat="46.3297" lon="-1.12308">
        <ele>2.8</ele>
        <time>2020-03-11T10:35:53Z</time>
      </trkpt>
      <trkpt lat="46.32961" lon="-1.12247">
        <ele>2</ele>
        <time>2020-03-11T10:35:53Z</time>
      </trkpt>
      <trkpt lat="46.32948" lon="-1.12118">
        <ele>2.7</ele>
        <time>2020-03-11T10:35:53Z</time>
      </trkpt>
      <trkpt lat="46.32933" lon="-1.1197">
        <ele>1.5</ele>
        <time>2020-03-11T10:35:53Z</time>
      </trkpt>
      <trkpt lat="46.32913" lon="-1.11792">
        <ele>2</ele>
        <time>2020-03-11T10:35:53Z</time>
      </trkpt>
      <trkpt lat="46.32906" lon="-1.11728">
        <ele>2.7</ele>
        <time>2020-03-11T10:35:53Z</time>
      </trkpt>
      <trkpt lat="46.32907" lon="-1.11695">
        <ele>1.7</ele>
        <time>2020-03-11T10:35:53Z</time>
      </trkpt>
      <trkpt lat="46.32926" lon="-1.11522">
        <ele>3.2</ele>
        <time>2020-03-11T10:35:53Z</time>
      </trkpt>
      <trkpt lat="46.32925" lon="-1.11494">
        <ele>2.6</ele>
        <time>2020-03-11T10:35:53Z</time>
      </trkpt>
      <trkpt lat="46.32919" lon="-1.11466">
        <ele>2.5</ele>
        <time>2020-03-11T10:35:53Z</time>
      </trkpt>
      <trkpt lat="46.32928" lon="-1.11405">
        <ele>3.4</ele>
        <time>2020-03-11T10:35:53Z</time>
      </trkpt>
      <trkpt lat="46.32934" lon="-1.11307">
        <ele>2.4</ele>
        <time>2020-03-11T10:35:53Z</time>
      </trkpt>
      <trkpt lat="46.32944" lon="-1.11162">
        <ele>3</ele>
        <time>2020-03-11T10:35:53Z</time>
      </trkpt>
      <trkpt lat="46.32958" lon="-1.11106">
        <ele>2.1</ele>
        <time>2020-03-11T10:35:53Z</time>
      </trkpt>
      <trkpt lat="46.32971" lon="-1.11079">
        <ele>3.1</ele>
        <time>2020-03-11T10:35:53Z</time>
      </trkpt>
      <trkpt lat="46.33112" lon="-1.1082">
        <ele>3.4</ele>
        <time>2020-03-11T10:35:53Z</time>
      </trkpt>
      <trkpt lat="46.33208" lon="-1.10634">
        <ele>3</ele>
        <time>2020-03-11T10:35:53Z</time>
      </trkpt>
      <trkpt lat="46.33215" lon="-1.10606">
        <ele>2.9</ele>
        <time>2020-03-11T10:35:53Z</time>
      </trkpt>
      <trkpt lat="46.33213" lon="-1.10566">
        <ele>2.3</ele>
        <time>2020-03-11T10:35:53Z</time>
      </trkpt>
      <trkpt lat="46.33164" lon="-1.10248">
        <ele>3</ele>
        <time>2020-03-11T10:35:53Z</time>
      </trkpt>
      <trkpt lat="46.33165" lon="-1.10214">
        <ele>2.8</ele>
        <time>2020-03-11T10:35:53Z</time>
      </trkpt>
      <trkpt lat="46.32974" lon="-1.10116">
        <ele>2.8</ele>
        <time>2020-03-11T10:35:53Z</time>
      </trkpt>
      <trkpt lat="46.32946" lon="-1.10098">
        <ele>2.5</ele>
        <time>2020-03-11T10:35:53Z</time>
      </trkpt>
      <trkpt lat="46.32924" lon="-1.10072">
        <ele>2.7</ele>
        <time>2020-03-11T10:35:53Z</time>
      </trkpt>
      <trkpt lat="46.32809" lon="-1.09962">
        <ele>3</ele>
        <time>2020-03-11T10:35:53Z</time>
      </trkpt>
      <trkpt lat="46.32794" lon="-1.09946">
        <ele>3.4</ele>
        <time>2020-03-11T10:35:53Z</time>
      </trkpt>
      <trkpt lat="46.32723" lon="-1.09864">
        <ele>3.8</ele>
        <time>2020-03-11T10:35:53Z</time>
      </trkpt>
      <trkpt lat="46.32651" lon="-1.09774">
        <ele>3.1</ele>
        <time>2020-03-11T10:35:53Z</time>
      </trkpt>
      <trkpt lat="46.32514" lon="-1.09613">
        <ele>3</ele>
        <time>2020-03-11T10:35:53Z</time>
      </trkpt>
      <trkpt lat="46.32385" lon="-1.09446">
        <ele>3</ele>
        <time>2020-03-11T10:35:53Z</time>
      </trkpt>
      <trkpt lat="46.32284" lon="-1.09311">
        <ele>2.8</ele>
        <time>2020-03-11T10:35:53Z</time>
      </trkpt>
      <trkpt lat="46.32254" lon="-1.09282">
        <ele>3.6</ele>
        <time>2020-03-11T10:35:53Z</time>
      </trkpt>
      <trkpt lat="46.32196" lon="-1.09226">
        <ele>3</ele>
        <time>2020-03-11T10:35:53Z</time>
      </trkpt>
      <trkpt lat="46.32122" lon="-1.09152">
        <ele>3.1</ele>
        <time>2020-03-11T10:35:53Z</time>
      </trkpt>
      <trkpt lat="46.3204" lon="-1.09061">
        <ele>3.1</ele>
        <time>2020-03-11T10:35:53Z</time>
      </trkpt>
      <trkpt lat="46.31979" lon="-1.08987">
        <ele>3.1</ele>
        <time>2020-03-11T10:35:53Z</time>
      </trkpt>
      <trkpt lat="46.31964" lon="-1.0896">
        <ele>3.4</ele>
        <time>2020-03-11T10:35:53Z</time>
      </trkpt>
      <trkpt lat="46.31871" lon="-1.08856">
        <ele>3.2</ele>
        <time>2020-03-11T10:35:53Z</time>
      </trkpt>
      <trkpt lat="46.31832" lon="-1.08637">
        <ele>4.8</ele>
        <time>2020-03-11T10:35:53Z</time>
      </trkpt>
      <trkpt lat="46.31818" lon="-1.08597">
        <ele>3.5</ele>
        <time>2020-03-11T10:35:53Z</time>
      </trkpt>
      <trkpt lat="46.31768" lon="-1.08477">
        <ele>2.4</ele>
        <time>2020-03-11T10:35:53Z</time>
      </trkpt>
      <trkpt lat="46.31756" lon="-1.08446">
        <ele>2.9</ele>
        <time>2020-03-11T10:35:53Z</time>
      </trkpt>
      <trkpt lat="46.31753" lon="-1.08418">
        <ele>4.7</ele>
        <time>2020-03-11T10:35:53Z</time>
      </trkpt>
      <trkpt lat="46.31765" lon="-1.08305">
        <ele>3</ele>
        <time>2020-03-11T10:35:53Z</time>
      </trkpt>
      <trkpt lat="46.31789" lon="-1.08296">
        <ele>3.7</ele>
        <time>2020-03-11T10:35:53Z</time>
      </trkpt>
      <trkpt lat="46.31789" lon="-1.08261">
        <ele>4.2</ele>
        <time>2020-03-11T10:35:53Z</time>
      </trkpt>
      <trkpt lat="46.31808" lon="-1.0825">
        <ele>3</ele>
        <time>2020-03-11T10:35:53Z</time>
      </trkpt>
      <trkpt lat="46.31836" lon="-1.08251">
        <ele>2.9</ele>
        <time>2020-03-11T10:35:53Z</time>
      </trkpt>
      <trkpt lat="46.31856" lon="-1.08249">
        <ele>2.2</ele>
        <time>2020-03-11T10:35:53Z</time>
      </trkpt>
      <trkpt lat="46.31875" lon="-1.08245">
        <ele>2.6</ele>
        <time>2020-03-11T10:35:53Z</time>
      </trkpt>
      <trkpt lat="46.31895" lon="-1.08241">
        <ele>2.9</ele>
        <time>2020-03-11T10:35:53Z</time>
      </trkpt>
      <trkpt lat="46.31915" lon="-1.08239">
        <ele>2.6</ele>
        <time>2020-03-11T10:35:53Z</time>
      </trkpt>
      <trkpt lat="46.32017" lon="-1.0823">
        <ele>3</ele>
        <time>2020-03-11T10:35:53Z</time>
      </trkpt>
      <trkpt lat="46.32107" lon="-1.08221">
        <ele>3</ele>
        <time>2020-03-11T10:35:53Z</time>
      </trkpt>
      <trkpt lat="46.32129" lon="-1.08217">
        <ele>3.2</ele>
        <time>2020-03-11T10:35:53Z</time>
      </trkpt>
      <trkpt lat="46.32106" lon="-1.08202">
        <ele>3.7</ele>
        <time>2020-03-11T10:35:53Z</time>
      </trkpt>
      <trkpt lat="46.32086" lon="-1.08182">
        <ele>3.6</ele>
        <time>2020-03-11T10:35:53Z</time>
      </trkpt>
      <trkpt lat="46.32072" lon="-1.08154">
        <ele>3</ele>
        <time>2020-03-11T10:35:53Z</time>
      </trkpt>
      <trkpt lat="46.31985" lon="-1.07933">
        <ele>3</ele>
        <time>2020-03-11T10:35:53Z</time>
      </trkpt>
      <trkpt lat="46.31946" lon="-1.07834">
        <ele>3</ele>
        <time>2020-03-11T10:35:53Z</time>
      </trkpt>
      <trkpt lat="46.31907" lon="-1.07734">
        <ele>3</ele>
        <time>2020-03-11T10:35:53Z</time>
      </trkpt>
      <trkpt lat="46.31902" lon="-1.07701">
        <ele>3</ele>
        <time>2020-03-11T10:35:53Z</time>
      </trkpt>
      <trkpt lat="46.31902" lon="-1.07668">
        <ele>3</ele>
        <time>2020-03-11T10:35:53Z</time>
      </trkpt>
      <trkpt lat="46.31916" lon="-1.07573">
        <ele>4.6</ele>
        <time>2020-03-11T10:35:53Z</time>
      </trkpt>
      <trkpt lat="46.31921" lon="-1.07532">
        <ele>3</ele>
        <time>2020-03-11T10:35:53Z</time>
      </trkpt>
      <trkpt lat="46.31935" lon="-1.07424">
        <ele>2.7</ele>
        <time>2020-03-11T10:35:53Z</time>
      </trkpt>
      <trkpt lat="46.31937" lon="-1.07374">
        <ele>4.3</ele>
        <time>2020-03-11T10:35:53Z</time>
      </trkpt>
      <trkpt lat="46.31891" lon="-1.07237">
        <ele>4</ele>
        <time>2020-03-11T10:35:53Z</time>
      </trkpt>
      <trkpt lat="46.31864" lon="-1.07169">
        <ele>4</ele>
        <time>2020-03-11T10:35:53Z</time>
      </trkpt>
      <trkpt lat="46.31849" lon="-1.07145">
        <ele>4</ele>
        <time>2020-03-11T10:35:53Z</time>
      </trkpt>
      <trkpt lat="46.31829" lon="-1.07137">
        <ele>3.9</ele>
        <time>2020-03-11T10:35:53Z</time>
      </trkpt>
      <trkpt lat="46.31788" lon="-1.0714">
        <ele>2.7</ele>
        <time>2020-03-11T10:35:53Z</time>
      </trkpt>
      <trkpt lat="46.3175" lon="-1.07148">
        <ele>3.7</ele>
        <time>2020-03-11T10:35:53Z</time>
      </trkpt>
      <trkpt lat="46.3173" lon="-1.07056">
        <ele>2.4</ele>
        <time>2020-03-11T10:35:53Z</time>
      </trkpt>
      <trkpt lat="46.31724" lon="-1.0699">
        <ele>3.5</ele>
        <time>2020-03-11T10:35:53Z</time>
      </trkpt>
      <trkpt lat="46.31722" lon="-1.0695">
        <ele>3</ele>
        <time>2020-03-11T10:35:53Z</time>
      </trkpt>
      <trkpt lat="46.31729" lon="-1.06924">
        <ele>3.1</ele>
        <time>2020-03-11T10:35:53Z</time>
      </trkpt>
      <trkpt lat="46.31707" lon="-1.06502">
        <ele>3.1</ele>
        <time>2020-03-11T10:35:53Z</time>
      </trkpt>
      <trkpt lat="46.31654" lon="-1.05716">
        <ele>2.9</ele>
        <time>2020-03-11T10:35:53Z</time>
      </trkpt>
      <trkpt lat="46.31615" lon="-1.05074">
        <ele>3.7</ele>
        <time>2020-03-11T10:35:53Z</time>
      </trkpt>
      <trkpt lat="46.31588" lon="-1.04648">
        <ele>3.7</ele>
        <time>2020-03-11T10:35:53Z</time>
      </trkpt>
      <trkpt lat="46.31574" lon="-1.04401">
        <ele>2.7</ele>
        <time>2020-03-11T10:35:53Z</time>
      </trkpt>
      <trkpt lat="46.31558" lon="-1.04128">
        <ele>2.9</ele>
        <time>2020-03-11T10:35:53Z</time>
      </trkpt>
      <trkpt lat="46.31549" lon="-1.03977">
        <ele>2.4</ele>
        <time>2020-03-11T10:35:53Z</time>
      </trkpt>
      <trkpt lat="46.31524" lon="-1.03577">
        <ele>3</ele>
        <time>2020-03-11T10:35:53Z</time>
      </trkpt>
      <trkpt lat="46.31505" lon="-1.03269">
        <ele>3.6</ele>
        <time>2020-03-11T10:35:53Z</time>
      </trkpt>
      <trkpt lat="46.31476" lon="-1.02881">
        <ele>3.7</ele>
        <time>2020-03-11T10:35:53Z</time>
      </trkpt>
      <trkpt lat="46.31464" lon="-1.02834">
        <ele>3.3</ele>
        <time>2020-03-11T10:35:53Z</time>
      </trkpt>
      <trkpt lat="46.31451" lon="-1.02753">
        <ele>3.5</ele>
        <time>2020-03-11T10:35:53Z</time>
      </trkpt>
      <trkpt lat="46.31447" lon="-1.02692">
        <ele>3.8</ele>
        <time>2020-03-11T10:35:53Z</time>
      </trkpt>
      <trkpt lat="46.31451" lon="-1.02644">
        <ele>3.5</ele>
        <time>2020-03-11T10:35:53Z</time>
      </trkpt>
      <trkpt lat="46.31459" lon="-1.02619">
        <ele>3</ele>
        <time>2020-03-11T10:35:53Z</time>
      </trkpt>
      <trkpt lat="46.31453" lon="-1.0251">
        <ele>3.4</ele>
        <time>2020-03-11T10:35:53Z</time>
      </trkpt>
      <trkpt lat="46.31429" lon="-1.02168">
        <ele>3.6</ele>
        <time>2020-03-11T10:35:53Z</time>
      </trkpt>
      <trkpt lat="46.31414" lon="-1.01876">
        <ele>3.5</ele>
        <time>2020-03-11T10:35:53Z</time>
      </trkpt>
      <trkpt lat="46.31398" lon="-1.01601">
        <ele>3.3</ele>
        <time>2020-03-11T10:35:53Z</time>
      </trkpt>
      <trkpt lat="46.31389" lon="-1.01314">
        <ele>3</ele>
        <time>2020-03-11T10:35:53Z</time>
      </trkpt>
      <trkpt lat="46.31389" lon="-1.01196">
        <ele>4</ele>
        <time>2020-03-11T10:35:53Z</time>
      </trkpt>
      <trkpt lat="46.31399" lon="-1.01128">
        <ele>3.3</ele>
        <time>2020-03-11T10:35:53Z</time>
      </trkpt>
      <trkpt lat="46.31414" lon="-1.01067">
        <ele>3.1</ele>
        <time>2020-03-11T10:35:53Z</time>
      </trkpt>
      <trkpt lat="46.31439" lon="-1.00965">
        <ele>2.6</ele>
        <time>2020-03-11T10:35:53Z</time>
      </trkpt>
      <trkpt lat="46.31456" lon="-1.00874">
        <ele>2.6</ele>
        <time>2020-03-11T10:35:53Z</time>
      </trkpt>
      <trkpt lat="46.31469" lon="-1.0079">
        <ele>2.9</ele>
        <time>2020-03-11T10:35:53Z</time>
      </trkpt>
      <trkpt lat="46.3147" lon="-1.00619">
        <ele>3.1</ele>
        <time>2020-03-11T10:35:53Z</time>
      </trkpt>
      <trkpt lat="46.31454" lon="-1.00491">
        <ele>2.7</ele>
        <time>2020-03-11T10:35:53Z</time>
      </trkpt>
      <trkpt lat="46.31442" lon="-1.00452">
        <ele>3.1</ele>
        <time>2020-03-11T10:35:53Z</time>
      </trkpt>
      <trkpt lat="46.31424" lon="-1.00436">
        <ele>3.7</ele>
        <time>2020-03-11T10:35:53Z</time>
      </trkpt>
      <trkpt lat="46.31412" lon="-1.00458">
        <ele>3.3</ele>
        <time>2020-03-11T10:35:53Z</time>
      </trkpt>
      <trkpt lat="46.31286" lon="-1.00875">
        <ele>2.6</ele>
        <time>2020-03-11T10:35:53Z</time>
      </trkpt>
      <trkpt lat="46.31148" lon="-1.01344">
        <ele>2.3</ele>
        <time>2020-03-11T10:35:53Z</time>
      </trkpt>
      <trkpt lat="46.30999" lon="-1.01841">
        <ele>3</ele>
        <time>2020-03-11T10:35:53Z</time>
      </trkpt>
      <trkpt lat="46.30959" lon="-1.01963">
        <ele>2.2</ele>
        <time>2020-03-11T10:35:53Z</time>
      </trkpt>
      <trkpt lat="46.30907" lon="-1.02088">
        <ele>2.7</ele>
        <time>2020-03-11T10:35:53Z</time>
      </trkpt>
      <trkpt lat="46.3084" lon="-1.02187">
        <ele>2.8</ele>
        <time>2020-03-11T10:35:53Z</time>
      </trkpt>
      <trkpt lat="46.30781" lon="-1.02253">
        <ele>2</ele>
        <time>2020-03-11T10:35:53Z</time>
      </trkpt>
      <trkpt lat="46.30718" lon="-1.023">
        <ele>2.1</ele>
        <time>2020-03-11T10:35:53Z</time>
      </trkpt>
      <trkpt lat="46.30645" lon="-1.02337">
        <ele>2.8</ele>
        <time>2020-03-11T10:35:53Z</time>
      </trkpt>
      <trkpt lat="46.30285" lon="-1.02461">
        <ele>2.4</ele>
        <time>2020-03-11T10:35:53Z</time>
      </trkpt>
      <trkpt lat="46.30266" lon="-1.02468">
        <ele>2.8</ele>
        <time>2020-03-11T10:35:53Z</time>
      </trkpt>
      <trkpt lat="46.30246" lon="-1.02474">
        <ele>3.4</ele>
        <time>2020-03-11T10:35:53Z</time>
      </trkpt>
      <trkpt lat="46.30222" lon="-1.02471">
        <ele>6</ele>
        <time>2020-03-11T10:35:53Z</time>
      </trkpt>
      <trkpt lat="46.30208" lon="-1.02494">
        <ele>4</ele>
        <time>2020-03-11T10:35:53Z</time>
      </trkpt>
      <trkpt lat="46.30175" lon="-1.02509">
        <ele>2.2</ele>
        <time>2020-03-11T10:35:53Z</time>
      </trkpt>
      <trkpt lat="46.30116" lon="-1.02529">
        <ele>3</ele>
        <time>2020-03-11T10:35:53Z</time>
      </trkpt>
      <trkpt lat="46.301" lon="-1.02517">
        <ele>2.2</ele>
        <time>2020-03-11T10:35:53Z</time>
      </trkpt>
      <trkpt lat="46.30076" lon="-1.02525">
        <ele>2</ele>
        <time>2020-03-11T10:35:53Z</time>
      </trkpt>
      <trkpt lat="46.30054" lon="-1.02558">
        <ele>2.9</ele>
        <time>2020-03-11T10:35:53Z</time>
      </trkpt>
      <trkpt lat="46.30014" lon="-1.02571">
        <ele>2</ele>
        <time>2020-03-11T10:35:53Z</time>
      </trkpt>
      <trkpt lat="46.29996" lon="-1.02576">
        <ele>2.1</ele>
        <time>2020-03-11T10:35:53Z</time>
      </trkpt>
      <trkpt lat="46.2995" lon="-1.02593">
        <ele>2.1</ele>
        <time>2020-03-11T10:35:53Z</time>
      </trkpt>
      <trkpt lat="46.2993" lon="-1.02592">
        <ele>2</ele>
        <time>2020-03-11T10:35:53Z</time>
      </trkpt>
      <trkpt lat="46.29902" lon="-1.02589">
        <ele>2.1</ele>
        <time>2020-03-11T10:35:53Z</time>
      </trkpt>
      <trkpt lat="46.29892" lon="-1.02613">
        <ele>2.8</ele>
        <time>2020-03-11T10:35:53Z</time>
      </trkpt>
      <trkpt lat="46.29836" lon="-1.02637">
        <ele>2</ele>
        <time>2020-03-11T10:35:53Z</time>
      </trkpt>
      <trkpt lat="46.29773" lon="-1.02657">
        <ele>2</ele>
        <time>2020-03-11T10:35:53Z</time>
      </trkpt>
      <trkpt lat="46.29642" lon="-1.02705">
        <ele>2</ele>
        <time>2020-03-11T10:35:53Z</time>
      </trkpt>
      <trkpt lat="46.29465" lon="-1.02772">
        <ele>2.2</ele>
        <time>2020-03-11T10:35:53Z</time>
      </trkpt>
      <trkpt lat="46.29281" lon="-1.02846">
        <ele>3.4</ele>
        <time>2020-03-11T10:35:53Z</time>
      </trkpt>
      <trkpt lat="46.28991" lon="-1.02949">
        <ele>2.6</ele>
        <time>2020-03-11T10:35:53Z</time>
      </trkpt>
      <trkpt lat="46.28874" lon="-1.02994">
        <ele>2.4</ele>
        <time>2020-03-11T10:35:53Z</time>
      </trkpt>
      <trkpt lat="46.28837" lon="-1.02995">
        <ele>2.8</ele>
        <time>2020-03-11T10:35:53Z</time>
      </trkpt>
      <trkpt lat="46.28792" lon="-1.03008">
        <ele>2.5</ele>
        <time>2020-03-11T10:35:53Z</time>
      </trkpt>
      <trkpt lat="46.28613" lon="-1.03075">
        <ele>2.7</ele>
        <time>2020-03-11T10:35:53Z</time>
      </trkpt>
      <trkpt lat="46.28404" lon="-1.03156">
        <ele>2.6</ele>
        <time>2020-03-11T10:35:53Z</time>
      </trkpt>
      <trkpt lat="46.28281" lon="-1.03198">
        <ele>3</ele>
        <time>2020-03-11T10:35:53Z</time>
      </trkpt>
      <trkpt lat="46.28179" lon="-1.03241">
        <ele>2.7</ele>
        <time>2020-03-11T10:35:53Z</time>
      </trkpt>
      <trkpt lat="46.28159" lon="-1.03252">
        <ele>2.9</ele>
        <time>2020-03-11T10:35:53Z</time>
      </trkpt>
      <trkpt lat="46.28103" lon="-1.03276">
        <ele>3.6</ele>
        <time>2020-03-11T10:35:53Z</time>
      </trkpt>
      <trkpt lat="46.2798" lon="-1.03322">
        <ele>2.7</ele>
        <time>2020-03-11T10:35:53Z</time>
      </trkpt>
      <trkpt lat="46.27518" lon="-1.03492">
        <ele>3</ele>
        <time>2020-03-11T10:35:53Z</time>
      </trkpt>
      <trkpt lat="46.2724" lon="-1.03595">
        <ele>2.4</ele>
        <time>2020-03-11T10:35:53Z</time>
      </trkpt>
      <trkpt lat="46.26762" lon="-1.03772">
        <ele>2.9</ele>
        <time>2020-03-11T10:35:53Z</time>
      </trkpt>
      <trkpt lat="46.26738" lon="-1.03782">
        <ele>3.1</ele>
        <time>2020-03-11T10:35:53Z</time>
      </trkpt>
      <trkpt lat="46.267" lon="-1.03798">
        <ele>3.3</ele>
        <time>2020-03-11T10:35:53Z</time>
      </trkpt>
      <trkpt lat="46.2668" lon="-1.03793">
        <ele>2.5</ele>
        <time>2020-03-11T10:35:53Z</time>
      </trkpt>
      <trkpt lat="46.2666" lon="-1.03801">
        <ele>2.2</ele>
        <time>2020-03-11T10:35:53Z</time>
      </trkpt>
      <trkpt lat="46.26644" lon="-1.03815">
        <ele>2.9</ele>
        <time>2020-03-11T10:35:53Z</time>
      </trkpt>
      <trkpt lat="46.26623" lon="-1.03823">
        <ele>2.8</ele>
        <time>2020-03-11T10:35:53Z</time>
      </trkpt>
      <trkpt lat="46.26467" lon="-1.03878">
        <ele>2.6</ele>
        <time>2020-03-11T10:35:53Z</time>
      </trkpt>
      <trkpt lat="46.26324" lon="-1.03932">
        <ele>2.6</ele>
        <time>2020-03-11T10:35:53Z</time>
      </trkpt>
      <trkpt lat="46.26142" lon="-1.04001">
        <ele>3</ele>
        <time>2020-03-11T10:35:53Z</time>
      </trkpt>
      <trkpt lat="46.26084" lon="-1.04024">
        <ele>3.7</ele>
        <time>2020-03-11T10:35:53Z</time>
      </trkpt>
      <trkpt lat="46.2606" lon="-1.04027">
        <ele>2.3</ele>
        <time>2020-03-11T10:35:53Z</time>
      </trkpt>
      <trkpt lat="46.25827" lon="-1.04116">
        <ele>3.4</ele>
        <time>2020-03-11T10:35:53Z</time>
      </trkpt>
      <trkpt lat="46.25564" lon="-1.04214">
        <ele>2.7</ele>
        <time>2020-03-11T10:35:53Z</time>
      </trkpt>
      <trkpt lat="46.25218" lon="-1.04346">
        <ele>2.9</ele>
        <time>2020-03-11T10:35:53Z</time>
      </trkpt>
      <trkpt lat="46.24923" lon="-1.04455">
        <ele>2.5</ele>
        <time>2020-03-11T10:35:53Z</time>
      </trkpt>
      <trkpt lat="46.24836" lon="-1.04488">
        <ele>3.5</ele>
        <time>2020-03-11T10:35:53Z</time>
      </trkpt>
      <trkpt lat="46.24813" lon="-1.04475">
        <ele>5.1</ele>
        <time>2020-03-11T10:35:53Z</time>
      </trkpt>
      <trkpt lat="46.24791" lon="-1.0449">
        <ele>3.9</ele>
        <time>2020-03-11T10:35:53Z</time>
      </trkpt>
      <trkpt lat="46.24777" lon="-1.04507">
        <ele>3</ele>
        <time>2020-03-11T10:35:53Z</time>
      </trkpt>
      <trkpt lat="46.24743" lon="-1.04519">
        <ele>2.7</ele>
        <time>2020-03-11T10:35:53Z</time>
      </trkpt>
      <trkpt lat="46.24725" lon="-1.04522">
        <ele>2.8</ele>
        <time>2020-03-11T10:35:53Z</time>
      </trkpt>
      <trkpt lat="46.24703" lon="-1.04531">
        <ele>3</ele>
        <time>2020-03-11T10:35:53Z</time>
      </trkpt>
      <trkpt lat="46.24666" lon="-1.04549">
        <ele>2.8</ele>
        <time>2020-03-11T10:35:53Z</time>
      </trkpt>
      <trkpt lat="46.24609" lon="-1.04571">
        <ele>2.6</ele>
        <time>2020-03-11T10:35:53Z</time>
      </trkpt>
      <trkpt lat="46.24553" lon="-1.04591">
        <ele>2.9</ele>
        <time>2020-03-11T10:35:53Z</time>
      </trkpt>
      <trkpt lat="46.24496" lon="-1.04613">
        <ele>2.9</ele>
        <time>2020-03-11T10:35:53Z</time>
      </trkpt>
      <trkpt lat="46.2444" lon="-1.04633">
        <ele>2.8</ele>
        <time>2020-03-11T10:35:53Z</time>
      </trkpt>
      <trkpt lat="46.24384" lon="-1.04654">
        <ele>2.6</ele>
        <time>2020-03-11T10:35:53Z</time>
      </trkpt>
      <trkpt lat="46.24327" lon="-1.04675">
        <ele>3</ele>
        <time>2020-03-11T10:35:53Z</time>
      </trkpt>
      <trkpt lat="46.2427" lon="-1.04697">
        <ele>3</ele>
        <time>2020-03-11T10:35:53Z</time>
      </trkpt>
      <trkpt lat="46.24214" lon="-1.04717">
        <ele>2.8</ele>
        <time>2020-03-11T10:35:53Z</time>
      </trkpt>
      <trkpt lat="46.24157" lon="-1.04738">
        <ele>2.8</ele>
        <time>2020-03-11T10:35:53Z</time>
      </trkpt>
      <trkpt lat="46.24101" lon="-1.04759">
        <ele>2.8</ele>
        <time>2020-03-11T10:35:53Z</time>
      </trkpt>
      <trkpt lat="46.24039" lon="-1.04783">
        <ele>3.3</ele>
        <time>2020-03-11T10:35:53Z</time>
      </trkpt>
      <trkpt lat="46.23978" lon="-1.04804">
        <ele>3.7</ele>
        <time>2020-03-11T10:35:53Z</time>
      </trkpt>
      <trkpt lat="46.23926" lon="-1.04824">
        <ele>2.7</ele>
        <time>2020-03-11T10:35:53Z</time>
      </trkpt>
      <trkpt lat="46.23875" lon="-1.04843">
        <ele>3</ele>
        <time>2020-03-11T10:35:53Z</time>
      </trkpt>
      <trkpt lat="46.2382" lon="-1.04863">
        <ele>3</ele>
        <time>2020-03-11T10:35:53Z</time>
      </trkpt>
      <trkpt lat="46.23761" lon="-1.04885">
        <ele>2.9</ele>
        <time>2020-03-11T10:35:53Z</time>
      </trkpt>
      <trkpt lat="46.23724" lon="-1.049">
        <ele>3</ele>
        <time>2020-03-11T10:35:53Z</time>
      </trkpt>
      <trkpt lat="46.23686" lon="-1.04913">
        <ele>2.9</ele>
        <time>2020-03-11T10:35:53Z</time>
      </trkpt>
      <trkpt lat="46.23648" lon="-1.04927">
        <ele>3</ele>
        <time>2020-03-11T10:35:53Z</time>
      </trkpt>
      <trkpt lat="46.23592" lon="-1.04948">
        <ele>3</ele>
        <time>2020-03-11T10:35:53Z</time>
      </trkpt>
      <trkpt lat="46.23535" lon="-1.04968">
        <ele>2.8</ele>
        <time>2020-03-11T10:35:53Z</time>
      </trkpt>
      <trkpt lat="46.23479" lon="-1.0499">
        <ele>2.7</ele>
        <time>2020-03-11T10:35:53Z</time>
      </trkpt>
      <trkpt lat="46.23422" lon="-1.0501">
        <ele>2.2</ele>
        <time>2020-03-11T10:35:53Z</time>
      </trkpt>
      <trkpt lat="46.23366" lon="-1.05032">
        <ele>3</ele>
        <time>2020-03-11T10:35:53Z</time>
      </trkpt>
      <trkpt lat="46.23309" lon="-1.05052">
        <ele>3.6</ele>
        <time>2020-03-11T10:35:53Z</time>
      </trkpt>
      <trkpt lat="46.23253" lon="-1.05074">
        <ele>2.7</ele>
        <time>2020-03-11T10:35:53Z</time>
      </trkpt>
      <trkpt lat="46.23196" lon="-1.05094">
        <ele>3</ele>
        <time>2020-03-11T10:35:53Z</time>
      </trkpt>
      <trkpt lat="46.23139" lon="-1.05116">
        <ele>3.6</ele>
        <time>2020-03-11T10:35:53Z</time>
      </trkpt>
      <trkpt lat="46.23083" lon="-1.05136">
        <ele>2.9</ele>
        <time>2020-03-11T10:35:53Z</time>
      </trkpt>
      <trkpt lat="46.23031" lon="-1.05155">
        <ele>2.6</ele>
        <time>2020-03-11T10:35:53Z</time>
      </trkpt>
      <trkpt lat="46.23005" lon="-1.05164">
        <ele>3.6</ele>
        <time>2020-03-11T10:35:53Z</time>
      </trkpt>
      <trkpt lat="46.22979" lon="-1.05172">
        <ele>3.2</ele>
        <time>2020-03-11T10:35:53Z</time>
      </trkpt>
      <trkpt lat="46.2295" lon="-1.05177">
        <ele>3</ele>
        <time>2020-03-11T10:35:53Z</time>
      </trkpt>
      <trkpt lat="46.2292" lon="-1.05178">
        <ele>3</ele>
        <time>2020-03-11T10:35:53Z</time>
      </trkpt>
      <trkpt lat="46.22892" lon="-1.05176">
        <ele>3</ele>
        <time>2020-03-11T10:35:53Z</time>
      </trkpt>
      <trkpt lat="46.22854" lon="-1.05169">
        <ele>3</ele>
        <time>2020-03-11T10:35:53Z</time>
      </trkpt>
      <trkpt lat="46.22806" lon="-1.0515">
        <ele>3</ele>
        <time>2020-03-11T10:35:53Z</time>
      </trkpt>
      <trkpt lat="46.22776" lon="-1.05136">
        <ele>3.7</ele>
        <time>2020-03-11T10:35:53Z</time>
      </trkpt>
      <trkpt lat="46.22749" lon="-1.05118">
        <ele>3</ele>
        <time>2020-03-11T10:35:53Z</time>
      </trkpt>
      <trkpt lat="46.21431" lon="-1.04574">
        <ele>3.8</ele>
        <time>2020-03-11T10:35:53Z</time>
      </trkpt>
      <trkpt lat="46.21402" lon="-1.04563">
        <ele>3.1</ele>
        <time>2020-03-11T10:35:53Z</time>
      </trkpt>
      <trkpt lat="46.21374" lon="-1.04549">
        <ele>3.2</ele>
        <time>2020-03-11T10:35:53Z</time>
      </trkpt>
      <trkpt lat="46.21342" lon="-1.04547">
        <ele>3.4</ele>
        <time>2020-03-11T10:35:53Z</time>
      </trkpt>
      <trkpt lat="46.21295" lon="-1.04546">
        <ele>3.6</ele>
        <time>2020-03-11T10:35:53Z</time>
      </trkpt>
      <trkpt lat="46.21272" lon="-1.04546">
        <ele>4</ele>
        <time>2020-03-11T10:35:53Z</time>
      </trkpt>
      <trkpt lat="46.21248" lon="-1.04551">
        <ele>4.5</ele>
        <time>2020-03-11T10:35:53Z</time>
      </trkpt>
      <trkpt lat="46.21212" lon="-1.04558">
        <ele>4.6</ele>
        <time>2020-03-11T10:35:53Z</time>
      </trkpt>
      <trkpt lat="46.21176" lon="-1.04568">
        <ele>3.6</ele>
        <time>2020-03-11T10:35:53Z</time>
      </trkpt>
      <trkpt lat="46.2115" lon="-1.04582">
        <ele>6</ele>
        <time>2020-03-11T10:35:53Z</time>
      </trkpt>
      <trkpt lat="46.21125" lon="-1.04595">
        <ele>5</ele>
        <time>2020-03-11T10:35:53Z</time>
      </trkpt>
      <trkpt lat="46.21071" lon="-1.04635">
        <ele>5.7</ele>
        <time>2020-03-11T10:35:53Z</time>
      </trkpt>
      <trkpt lat="46.21018" lon="-1.04672">
        <ele>5.5</ele>
        <time>2020-03-11T10:35:53Z</time>
      </trkpt>
      <trkpt lat="46.20978" lon="-1.04702">
        <ele>4.8</ele>
        <time>2020-03-11T10:35:53Z</time>
      </trkpt>
      <trkpt lat="46.20935" lon="-1.04729">
        <ele>5.5</ele>
        <time>2020-03-11T10:35:53Z</time>
      </trkpt>
      <trkpt lat="46.20837" lon="-1.04807">
        <ele>7.6</ele>
        <time>2020-03-11T10:35:53Z</time>
      </trkpt>
      <trkpt lat="46.20817" lon="-1.04822">
        <ele>5.1</ele>
        <time>2020-03-11T10:35:53Z</time>
      </trkpt>
      <trkpt lat="46.20798" lon="-1.04832">
        <ele>5</ele>
        <time>2020-03-11T10:35:53Z</time>
      </trkpt>
      <trkpt lat="46.20738" lon="-1.0488">
        <ele>6.3</ele>
        <time>2020-03-11T10:35:53Z</time>
      </trkpt>
      <trkpt lat="46.20706" lon="-1.04915">
        <ele>7.5</ele>
        <time>2020-03-11T10:35:53Z</time>
      </trkpt>
      <trkpt lat="46.20709" lon="-1.04946">
        <ele>7</ele>
        <time>2020-03-11T10:35:53Z</time>
      </trkpt>
      <trkpt lat="46.20697" lon="-1.04972">
        <ele>7</ele>
        <time>2020-03-11T10:35:53Z</time>
      </trkpt>
      <trkpt lat="46.20676" lon="-1.04992">
        <ele>7.7</ele>
        <time>2020-03-11T10:35:53Z</time>
      </trkpt>
      <trkpt lat="46.20644" lon="-1.05017">
        <ele>7.8</ele>
        <time>2020-03-11T10:35:53Z</time>
      </trkpt>
      <trkpt lat="46.20599" lon="-1.05053">
        <ele>7.9</ele>
        <time>2020-03-11T10:35:53Z</time>
      </trkpt>
      <trkpt lat="46.20547" lon="-1.05106">
        <ele>7.6</ele>
        <time>2020-03-11T10:35:53Z</time>
      </trkpt>
      <trkpt lat="46.20473" lon="-1.05179">
        <ele>7.4</ele>
        <time>2020-03-11T10:35:53Z</time>
      </trkpt>
      <trkpt lat="46.20432" lon="-1.05246">
        <ele>7.6</ele>
        <time>2020-03-11T10:35:53Z</time>
      </trkpt>
      <trkpt lat="46.20432" lon="-1.05296">
        <ele>8</ele>
        <time>2020-03-11T10:35:53Z</time>
      </trkpt>
      <trkpt lat="46.20449" lon="-1.05387">
        <ele>8.9</ele>
        <time>2020-03-11T10:35:53Z</time>
      </trkpt>
      <trkpt lat="46.20372" lon="-1.05452">
        <ele>9</ele>
        <time>2020-03-11T10:35:53Z</time>
      </trkpt>
      <trkpt lat="46.20248" lon="-1.05535">
        <ele>11.1</ele>
        <time>2020-03-11T10:35:53Z</time>
      </trkpt>
      <trkpt lat="46.20232" lon="-1.05547">
        <ele>11.6</ele>
        <time>2020-03-11T10:35:53Z</time>
      </trkpt>
      <trkpt lat="46.20196" lon="-1.05577">
        <ele>12.9</ele>
        <time>2020-03-11T10:35:53Z</time>
      </trkpt>
      <trkpt lat="46.20012" lon="-1.05657">
        <ele>15.4</ele>
        <time>2020-03-11T10:35:53Z</time>
      </trkpt>
      <trkpt lat="46.19972" lon="-1.05708">
        <ele>14</ele>
        <time>2020-03-11T10:35:53Z</time>
      </trkpt>
      <trkpt lat="46.19921" lon="-1.05842">
        <ele>12.4</ele>
        <time>2020-03-11T10:35:53Z</time>
      </trkpt>
      <trkpt lat="46.1989" lon="-1.05893">
        <ele>13</ele>
        <time>2020-03-11T10:35:53Z</time>
      </trkpt>
      <trkpt lat="46.19819" lon="-1.05954">
        <ele>13</ele>
        <time>2020-03-11T10:35:53Z</time>
      </trkpt>
      <trkpt lat="46.19782" lon="-1.05989">
        <ele>13.4</ele>
        <time>2020-03-11T10:35:53Z</time>
      </trkpt>
      <trkpt lat="46.19653" lon="-1.0603">
        <ele>17.4</ele>
        <time>2020-03-11T10:35:53Z</time>
      </trkpt>
      <trkpt lat="46.19576" lon="-1.06075">
        <ele>20</ele>
        <time>2020-03-11T10:35:53Z</time>
      </trkpt>
      <trkpt lat="46.19527" lon="-1.061">
        <ele>19.3</ele>
        <time>2020-03-11T10:35:53Z</time>
      </trkpt>
      <trkpt lat="46.19475" lon="-1.06133">
        <ele>22.2</ele>
        <time>2020-03-11T10:35:53Z</time>
      </trkpt>
      <trkpt lat="46.19423" lon="-1.06163">
        <ele>23</ele>
        <time>2020-03-11T10:35:53Z</time>
      </trkpt>
      <trkpt lat="46.19447" lon="-1.06127">
        <ele>22.6</ele>
        <time>2020-03-11T10:35:53Z</time>
      </trkpt>
      <trkpt lat="46.19455" lon="-1.06103">
        <ele>22</ele>
        <time>2020-03-11T10:35:53Z</time>
      </trkpt>
      <trkpt lat="46.19474" lon="-1.06085">
        <ele>21.6</ele>
        <time>2020-03-11T10:35:53Z</time>
      </trkpt>
      <trkpt lat="46.19483" lon="-1.0606">
        <ele>20.3</ele>
        <time>2020-03-11T10:35:53Z</time>
      </trkpt>
      <trkpt lat="46.19483" lon="-1.06032">
        <ele>20.9</ele>
        <time>2020-03-11T10:35:53Z</time>
      </trkpt>
      <trkpt lat="46.19494" lon="-1.05982">
        <ele>21</ele>
        <time>2020-03-11T10:35:53Z</time>
      </trkpt>
      <trkpt lat="46.19505" lon="-1.0594">
        <ele>19.5</ele>
        <time>2020-03-11T10:35:53Z</time>
      </trkpt>
      <trkpt lat="46.1952" lon="-1.05907">
        <ele>19.3</ele>
        <time>2020-03-11T10:35:53Z</time>
      </trkpt>
      <trkpt lat="46.1953" lon="-1.05878">
        <ele>18.6</ele>
        <time>2020-03-11T10:35:53Z</time>
      </trkpt>
      <trkpt lat="46.19532" lon="-1.05846">
        <ele>18.2</ele>
        <time>2020-03-11T10:35:53Z</time>
      </trkpt>
      <trkpt lat="46.19497" lon="-1.05718">
        <ele>18</ele>
        <time>2020-03-11T10:35:53Z</time>
      </trkpt>
      <trkpt lat="46.19485" lon="-1.05671">
        <ele>16.7</ele>
        <time>2020-03-11T10:35:53Z</time>
      </trkpt>
      <trkpt lat="46.19465" lon="-1.05564">
        <ele>14.5</ele>
        <time>2020-03-11T10:35:53Z</time>
      </trkpt>
      <trkpt lat="46.19475" lon="-1.05534">
        <ele>13.9</ele>
        <time>2020-03-11T10:35:53Z</time>
      </trkpt>
      <trkpt lat="46.19493" lon="-1.05517">
        <ele>13.4</ele>
        <time>2020-03-11T10:35:53Z</time>
      </trkpt>
      <trkpt lat="46.19433" lon="-1.05522">
        <ele>14.4</ele>
        <time>2020-03-11T10:35:53Z</time>
      </trkpt>
      <trkpt lat="46.1937" lon="-1.05518">
        <ele>14.9</ele>
        <time>2020-03-11T10:35:53Z</time>
      </trkpt>
      <trkpt lat="46.19002" lon="-1.05444">
        <ele>13.2</ele>
        <time>2020-03-11T10:35:53Z</time>
      </trkpt>
      <trkpt lat="46.1878" lon="-1.05395">
        <ele>16.6</ele>
        <time>2020-03-11T10:35:53Z</time>
      </trkpt>
      <trkpt lat="46.18744" lon="-1.05393">
        <ele>15.9</ele>
        <time>2020-03-11T10:35:53Z</time>
      </trkpt>
      <trkpt lat="46.18706" lon="-1.054">
        <ele>16.7</ele>
        <time>2020-03-11T10:35:53Z</time>
      </trkpt>
      <trkpt lat="46.18685" lon="-1.05398">
        <ele>18.6</ele>
        <time>2020-03-11T10:35:53Z</time>
      </trkpt>
      <trkpt lat="46.18571" lon="-1.05506">
        <ele>19.1</ele>
        <time>2020-03-11T10:35:53Z</time>
      </trkpt>
      <trkpt lat="46.18311" lon="-1.05751">
        <ele>17.2</ele>
        <time>2020-03-11T10:35:53Z</time>
      </trkpt>
      <trkpt lat="46.18218" lon="-1.05843">
        <ele>20.2</ele>
        <time>2020-03-11T10:35:53Z</time>
      </trkpt>
      <trkpt lat="46.18022" lon="-1.0619">
        <ele>23</ele>
        <time>2020-03-11T10:35:53Z</time>
      </trkpt>
      <trkpt lat="46.17837" lon="-1.06523">
        <ele>28</ele>
        <time>2020-03-11T10:35:53Z</time>
      </trkpt>
      <trkpt lat="46.1781" lon="-1.06571">
        <ele>29.4</ele>
        <time>2020-03-11T10:35:53Z</time>
      </trkpt>
      <trkpt lat="46.17799" lon="-1.06592">
        <ele>30</ele>
        <time>2020-03-11T10:35:53Z</time>
      </trkpt>
      <trkpt lat="46.1769" lon="-1.06793">
        <ele>33</ele>
        <time>2020-03-11T10:35:53Z</time>
      </trkpt>
      <trkpt lat="46.17544" lon="-1.07027">
        <ele>33</ele>
        <time>2020-03-11T10:35:53Z</time>
      </trkpt>
      <trkpt lat="46.17489" lon="-1.07002">
        <ele>32</ele>
        <time>2020-03-11T10:35:53Z</time>
      </trkpt>
      <trkpt lat="46.17471" lon="-1.07005">
        <ele>32</ele>
        <time>2020-03-11T10:35:53Z</time>
      </trkpt>
      <trkpt lat="46.17433" lon="-1.07007">
        <ele>31.4</ele>
        <time>2020-03-11T10:35:53Z</time>
      </trkpt>
      <trkpt lat="46.17404" lon="-1.07052">
        <ele>30.5</ele>
        <time>2020-03-11T10:35:53Z</time>
      </trkpt>
      <trkpt lat="46.17377" lon="-1.07104">
        <ele>29.6</ele>
        <time>2020-03-11T10:35:53Z</time>
      </trkpt>
      <trkpt lat="46.17368" lon="-1.07129">
        <ele>28.8</ele>
        <time>2020-03-11T10:35:53Z</time>
      </trkpt>
      <trkpt lat="46.17362" lon="-1.07154">
        <ele>28</ele>
        <time>2020-03-11T10:35:53Z</time>
      </trkpt>
      <trkpt lat="46.17344" lon="-1.07178">
        <ele>26.8</ele>
        <time>2020-03-11T10:35:53Z</time>
      </trkpt>
      <trkpt lat="46.17322" lon="-1.07224">
        <ele>23.8</ele>
        <time>2020-03-11T10:35:53Z</time>
      </trkpt>
      <trkpt lat="46.17241" lon="-1.07345">
        <ele>20.6</ele>
        <time>2020-03-11T10:35:53Z</time>
      </trkpt>
      <trkpt lat="46.17158" lon="-1.0748">
        <ele>20.7</ele>
        <time>2020-03-11T10:35:53Z</time>
      </trkpt>
      <trkpt lat="46.17068" lon="-1.07632">
        <ele>19</ele>
        <time>2020-03-11T10:35:53Z</time>
      </trkpt>
      <trkpt lat="46.17039" lon="-1.07681">
        <ele>19.2</ele>
        <time>2020-03-11T10:35:53Z</time>
      </trkpt>
      <trkpt lat="46.17016" lon="-1.07721">
        <ele>15.2</ele>
        <time>2020-03-11T10:35:53Z</time>
      </trkpt>
      <trkpt lat="46.17006" lon="-1.07761">
        <ele>17.6</ele>
        <time>2020-03-11T10:35:53Z</time>
      </trkpt>
      <trkpt lat="46.16994" lon="-1.07837">
        <ele>16.4</ele>
        <time>2020-03-11T10:35:53Z</time>
      </trkpt>
      <trkpt lat="46.16952" lon="-1.08099">
        <ele>15.6</ele>
        <time>2020-03-11T10:35:53Z</time>
      </trkpt>
      <trkpt lat="46.1694" lon="-1.08176">
        <ele>15.2</ele>
        <time>2020-03-11T10:35:53Z</time>
      </trkpt>
      <trkpt lat="46.1689" lon="-1.08483">
        <ele>16.3</ele>
        <time>2020-03-11T10:35:53Z</time>
      </trkpt>
      <trkpt lat="46.16881" lon="-1.08535">
        <ele>13.9</ele>
        <time>2020-03-11T10:35:53Z</time>
      </trkpt>
      <trkpt lat="46.16876" lon="-1.08569">
        <ele>12.9</ele>
        <time>2020-03-11T10:35:53Z</time>
      </trkpt>
      <trkpt lat="46.16841" lon="-1.0879">
        <ele>10.8</ele>
        <time>2020-03-11T10:35:53Z</time>
      </trkpt>
      <trkpt lat="46.16834" lon="-1.08836">
        <ele>14.2</ele>
        <time>2020-03-11T10:35:53Z</time>
      </trkpt>
      <trkpt lat="46.16828" lon="-1.0888">
        <ele>12.6</ele>
        <time>2020-03-11T10:35:53Z</time>
      </trkpt>
      <trkpt lat="46.16818" lon="-1.08955">
        <ele>10.3</ele>
        <time>2020-03-11T10:35:53Z</time>
      </trkpt>
      <trkpt lat="46.16801" lon="-1.09043">
        <ele>11.6</ele>
        <time>2020-03-11T10:35:53Z</time>
      </trkpt>
      <trkpt lat="46.16791" lon="-1.09106">
        <ele>8.2</ele>
        <time>2020-03-11T10:35:53Z</time>
      </trkpt>
      <trkpt lat="46.16791" lon="-1.09136">
        <ele>8.7</ele>
        <time>2020-03-11T10:35:53Z</time>
      </trkpt>
      <trkpt lat="46.16797" lon="-1.09198">
        <ele>10</ele>
        <time>2020-03-11T10:35:53Z</time>
      </trkpt>
      <trkpt lat="46.16839" lon="-1.0944">
        <ele>9.7</ele>
        <time>2020-03-11T10:35:53Z</time>
      </trkpt>
      <trkpt lat="46.16892" lon="-1.09756">
        <ele>8.9</ele>
        <time>2020-03-11T10:35:53Z</time>
      </trkpt>
      <trkpt lat="46.16906" lon="-1.09839">
        <ele>8.1</ele>
        <time>2020-03-11T10:35:53Z</time>
      </trkpt>
      <trkpt lat="46.16925" lon="-1.09945">
        <ele>7.7</ele>
        <time>2020-03-11T10:35:53Z</time>
      </trkpt>
      <trkpt lat="46.16939" lon="-1.10024">
        <ele>9.5</ele>
        <time>2020-03-11T10:35:53Z</time>
      </trkpt>
      <trkpt lat="46.16957" lon="-1.10145">
        <ele>6.9</ele>
        <time>2020-03-11T10:35:53Z</time>
      </trkpt>
      <trkpt lat="46.16961" lon="-1.10174">
        <ele>7.8</ele>
        <time>2020-03-11T10:35:53Z</time>
      </trkpt>
      <trkpt lat="46.16965" lon="-1.10229">
        <ele>8.7</ele>
        <time>2020-03-11T10:35:53Z</time>
      </trkpt>
      <trkpt lat="46.16967" lon="-1.10265">
        <ele>9.3</ele>
        <time>2020-03-11T10:35:53Z</time>
      </trkpt>
      <trkpt lat="46.16961" lon="-1.10326">
        <ele>8</ele>
        <time>2020-03-11T10:35:53Z</time>
      </trkpt>
      <trkpt lat="46.1695" lon="-1.10404">
        <ele>7.3</ele>
        <time>2020-03-11T10:35:53Z</time>
      </trkpt>
      <trkpt lat="46.16938" lon="-1.1045">
        <ele>7.7</ele>
        <time>2020-03-11T10:35:53Z</time>
      </trkpt>
      <trkpt lat="46.16913" lon="-1.10524">
        <ele>8.6</ele>
        <time>2020-03-11T10:35:53Z</time>
      </trkpt>
      <trkpt lat="46.16883" lon="-1.10582">
        <ele>7.4</ele>
        <time>2020-03-11T10:35:53Z</time>
      </trkpt>
      <trkpt lat="46.16814" lon="-1.1071">
        <ele>5.8</ele>
        <time>2020-03-11T10:35:53Z</time>
      </trkpt>
      <trkpt lat="46.16737" lon="-1.10853">
        <ele>5.6</ele>
        <time>2020-03-11T10:35:53Z</time>
      </trkpt>
      <trkpt lat="46.16711" lon="-1.10903">
        <ele>6.4</ele>
        <time>2020-03-11T10:35:53Z</time>
      </trkpt>
      <trkpt lat="46.16601" lon="-1.11134">
        <ele>4.6</ele>
        <time>2020-03-11T10:35:53Z</time>
      </trkpt>
      <trkpt lat="46.16572" lon="-1.11183">
        <ele>4.5</ele>
        <time>2020-03-11T10:35:53Z</time>
      </trkpt>
      <trkpt lat="46.16471" lon="-1.11378">
        <ele>3.9</ele>
        <time>2020-03-11T10:35:53Z</time>
      </trkpt>
      <trkpt lat="46.16454" lon="-1.11421">
        <ele>3.5</ele>
        <time>2020-03-11T10:35:53Z</time>
      </trkpt>
      <trkpt lat="46.16396" lon="-1.11564">
        <ele>3</ele>
        <time>2020-03-11T10:35:53Z</time>
      </trkpt>
      <trkpt lat="46.16376" lon="-1.1163">
        <ele>2.9</ele>
        <time>2020-03-11T10:35:53Z</time>
      </trkpt>
      <trkpt lat="46.1636" lon="-1.11618">
        <ele>2</ele>
        <time>2020-03-11T10:35:53Z</time>
      </trkpt>
      <trkpt lat="46.16346" lon="-1.11641">
        <ele>5.3</ele>
        <time>2020-03-11T10:35:53Z</time>
      </trkpt>
      <trkpt lat="46.16316" lon="-1.11731">
        <ele>5.5</ele>
        <time>2020-03-11T10:35:53Z</time>
      </trkpt>
      <trkpt lat="46.16154" lon="-1.12312">
        <ele>4.1</ele>
        <time>2020-03-11T10:35:53Z</time>
      </trkpt>
      <trkpt lat="46.16169" lon="-1.1234">
        <ele>3.3</ele>
        <time>2020-03-11T10:35:53Z</time>
      </trkpt>
      <trkpt lat="46.16159" lon="-1.1238">
        <ele>3.8</ele>
        <time>2020-03-11T10:35:53Z</time>
      </trkpt>
      <trkpt lat="46.16159" lon="-1.1241">
        <ele>3.3</ele>
        <time>2020-03-11T10:35:53Z</time>
      </trkpt>
      <trkpt lat="46.16092" lon="-1.12649">
        <ele>2.9</ele>
        <time>2020-03-11T10:35:53Z</time>
      </trkpt>
      <trkpt lat="46.16029" lon="-1.12873">
        <ele>3.4</ele>
        <time>2020-03-11T10:35:53Z</time>
      </trkpt>
      <trkpt lat="46.16023" lon="-1.12905">
        <ele>3</ele>
        <time>2020-03-11T10:35:53Z</time>
      </trkpt>
      <trkpt lat="46.16012" lon="-1.1293">
        <ele>2.1</ele>
        <time>2020-03-11T10:35:53Z</time>
      </trkpt>
      <trkpt lat="46.15918" lon="-1.13263">
        <ele>2.5</ele>
        <time>2020-03-11T10:35:53Z</time>
      </trkpt>
      <trkpt lat="46.15896" lon="-1.13342">
        <ele>2.1</ele>
        <time>2020-03-11T10:35:53Z</time>
      </trkpt>
      <trkpt lat="46.1587" lon="-1.1343">
        <ele>1.8</ele>
        <time>2020-03-11T10:35:53Z</time>
      </trkpt>
      <trkpt lat="46.15834" lon="-1.13563">
        <ele>3</ele>
        <time>2020-03-11T10:35:53Z</time>
      </trkpt>
      <trkpt lat="46.1581" lon="-1.13647">
        <ele>2.4</ele>
        <time>2020-03-11T10:35:53Z</time>
      </trkpt>
      <trkpt lat="46.15766" lon="-1.13802">
        <ele>2.7</ele>
        <time>2020-03-11T10:35:53Z</time>
      </trkpt>
      <trkpt lat="46.15718" lon="-1.13971">
        <ele>4.5</ele>
        <time>2020-03-11T10:35:53Z</time>
      </trkpt>
      <trkpt lat="46.15689" lon="-1.14064">
        <ele>3.4</ele>
        <time>2020-03-11T10:35:53Z</time>
      </trkpt>
      <trkpt lat="46.15665" lon="-1.14159">
        <ele>3.8</ele>
        <time>2020-03-11T10:35:53Z</time>
      </trkpt>
      <trkpt lat="46.15688" lon="-1.14268">
        <ele>4.5</ele>
        <time>2020-03-11T10:35:53Z</time>
      </trkpt>
      <trkpt lat="46.15674" lon="-1.1429">
        <ele>5.2</ele>
        <time>2020-03-11T10:35:53Z</time>
      </trkpt>
      <trkpt lat="46.15653" lon="-1.14288">
        <ele>3</ele>
        <time>2020-03-11T10:35:53Z</time>
      </trkpt>
      <trkpt lat="46.15617" lon="-1.14302">
        <ele>3.1</ele>
        <time>2020-03-11T10:35:53Z</time>
      </trkpt>
      <trkpt lat="46.15604" lon="-1.14327">
        <ele>2.1</ele>
        <time>2020-03-11T10:35:53Z</time>
      </trkpt>
      <trkpt lat="46.15573" lon="-1.14424">
        <ele>2.4</ele>
        <time>2020-03-11T10:35:53Z</time>
      </trkpt>
      <trkpt lat="46.15545" lon="-1.14436">
        <ele>4</ele>
        <time>2020-03-11T10:35:53Z</time>
      </trkpt>
      <trkpt lat="46.15516" lon="-1.14484">
        <ele>4</ele>
        <time>2020-03-11T10:35:53Z</time>
      </trkpt>
      <trkpt lat="46.15493" lon="-1.14523">
        <ele>4</ele>
        <time>2020-03-11T10:35:53Z</time>
      </trkpt>
      <trkpt lat="46.15443" lon="-1.14607">
        <ele>4</ele>
        <time>2020-03-11T10:35:53Z</time>
      </trkpt>
      <trkpt lat="46.1542" lon="-1.14648">
        <ele>5</ele>
        <time>2020-03-11T10:35:53Z</time>
      </trkpt>
      <trkpt lat="46.15402" lon="-1.1468">
        <ele>5</ele>
        <time>2020-03-11T10:35:53Z</time>
      </trkpt>
      <trkpt lat="46.15407" lon="-1.14708">
        <ele>4.5</ele>
        <time>2020-03-11T10:35:53Z</time>
      </trkpt>
      <trkpt lat="46.15496" lon="-1.14821">
        <ele>5</ele>
        <time>2020-03-11T10:35:53Z</time>
      </trkpt>
      <trkpt lat="46.15536" lon="-1.1487">
        <ele>4.5</ele>
        <time>2020-03-11T10:35:53Z</time>
      </trkpt>
      <trkpt lat="46.15554" lon="-1.14892">
        <ele>4</ele>
        <time>2020-03-11T10:35:53Z</time>
      </trkpt>
      <trkpt lat="46.1558" lon="-1.14926">
        <ele>4</ele>
        <time>2020-03-11T10:35:53Z</time>
      </trkpt>
      <trkpt lat="46.15592" lon="-1.14956">
        <ele>4</ele>
        <time>2020-03-11T10:35:53Z</time>
      </trkpt>
      <trkpt lat="46.15572" lon="-1.14959">
        <ele>4</ele>
        <time>2020-03-11T10:35:53Z</time>
      </trkpt>
      <trkpt lat="46.15536" lon="-1.14956">
        <ele>4</ele>
        <time>2020-03-11T10:35:53Z</time>
      </trkpt>
      <trkpt lat="46.15506" lon="-1.14955">
        <ele>4.5</ele>
        <time>2020-03-11T10:35:53Z</time>
      </trkpt>
      <trkpt lat="46.15493" lon="-1.14984">
        <ele>4</ele>
        <time>2020-03-11T10:35:53Z</time>
      </trkpt>
      <trkpt lat="46.15492" lon="-1.15044">
        <ele>4</ele>
        <time>2020-03-11T10:35:53Z</time>
      </trkpt>
      <trkpt lat="46.15488" lon="-1.1512">
        <ele>4</ele>
        <time>2020-03-11T10:35:53Z</time>
      </trkpt>
      <trkpt lat="46.15487" lon="-1.15179">
        <ele>4</ele>
        <time>2020-03-11T10:35:53Z</time>
      </trkpt>
      <trkpt lat="46.15484" lon="-1.15227">
        <ele>4</ele>
        <time>2020-03-11T10:35:53Z</time>
      </trkpt>
      <trkpt lat="46.15481" lon="-1.15268">
        <ele>4</ele>
        <time>2020-03-11T10:35:53Z</time>
      </trkpt>
      <trkpt lat="46.15459" lon="-1.15265">
        <ele>4</ele>
        <time>2020-03-11T10:35:53Z</time>
      </trkpt>
      <trkpt lat="46.15438" lon="-1.15263">
        <ele>4.5</ele>
        <time>2020-03-11T10:35:53Z</time>
      </trkpt>
      <trkpt lat="46.15417" lon="-1.15261">
        <ele>4.6</ele>
        <time>2020-03-11T10:35:53Z</time>
      </trkpt>
      <trkpt lat="46.15405" lon="-1.15342">
        <ele>4.7</ele>
        <time>2020-03-11T10:35:53Z</time>
      </trkpt>
      <trkpt lat="46.15397" lon="-1.15395">
        <ele>4</ele>
        <time>2020-03-11T10:35:53Z</time>
      </trkpt>
      <trkpt lat="46.15392" lon="-1.15424">
        <ele>4</ele>
        <time>2020-03-11T10:35:53Z</time>
      </trkpt>
      <trkpt lat="46.15374" lon="-1.1555">
        <ele>2.9</ele>
        <time>2020-03-11T10:35:53Z</time>
      </trkpt>
      <trkpt lat="46.15369" lon="-1.15589">
        <ele>3.6</ele>
        <time>2020-03-11T10:35:53Z</time>
      </trkpt>
      <trkpt lat="46.15361" lon="-1.15637">
        <ele>4</ele>
        <time>2020-03-11T10:35:53Z</time>
      </trkpt>
      <trkpt lat="46.15305" lon="-1.15775">
        <ele>4</ele>
        <time>2020-03-11T10:35:53Z</time>
      </trkpt>
      <trkpt lat="46.15268" lon="-1.15863">
        <ele>3.4</ele>
        <time>2020-03-11T10:35:53Z</time>
      </trkpt>
      <trkpt lat="46.15226" lon="-1.15968">
        <ele>4</ele>
        <time>2020-03-11T10:35:53Z</time>
      </trkpt>
      <trkpt lat="46.15188" lon="-1.15987">
        <ele>3.1</ele>
        <time>2020-03-11T10:35:53Z</time>
      </trkpt>
      <trkpt lat="46.15021" lon="-1.1604">
        <ele>3.4</ele>
        <time>2020-03-11T10:35:53Z</time>
      </trkpt>
      <trkpt lat="46.14872" lon="-1.16088">
        <ele>4.2</ele>
        <time>2020-03-11T10:35:53Z</time>
      </trkpt>
      <trkpt lat="46.14834" lon="-1.16098">
        <ele>5</ele>
        <time>2020-03-11T10:35:53Z</time>
      </trkpt>
      <trkpt lat="46.14816" lon="-1.16104">
        <ele>4.5</ele>
        <time>2020-03-11T10:35:53Z</time>
      </trkpt>
      <trkpt lat="46.14691" lon="-1.16145">
        <ele>4.2</ele>
        <time>2020-03-11T10:35:53Z</time>
      </trkpt>
      <trkpt lat="46.14687" lon="-1.16117">
        <ele>4.2</ele>
        <time>2020-03-11T10:35:53Z</time>
      </trkpt>
      <trkpt lat="46.14638" lon="-1.16134">
        <ele>4.8</ele>
        <time>2020-03-11T10:35:53Z</time>
      </trkpt>
      <trkpt lat="46.14626" lon="-1.16166">
        <ele>5</ele>
        <time>2020-03-11T10:35:53Z</time>
      </trkpt>
      <trkpt lat="46.14565" lon="-1.16186">
        <ele>4.8</ele>
        <time>2020-03-11T10:35:53Z</time>
      </trkpt>
      <trkpt lat="46.14507" lon="-1.16206">
        <ele>4</ele>
        <time>2020-03-11T10:35:53Z</time>
      </trkpt>
      <trkpt lat="46.14472" lon="-1.16217">
        <ele>5.8</ele>
        <time>2020-03-11T10:35:53Z</time>
      </trkpt>
      <trkpt lat="46.14399" lon="-1.16241">
        <ele>4.8</ele>
        <time>2020-03-11T10:35:53Z</time>
      </trkpt>
      <trkpt lat="46.14381" lon="-1.16246">
        <ele>5</ele>
        <time>2020-03-11T10:35:53Z</time>
      </trkpt>
      <trkpt lat="46.14353" lon="-1.16308">
        <ele>3.58</ele>
        <time>2020-03-11T10:35:53Z</time>
      </trkpt>
      <trkpt lat="46.14318" lon="-1.16319">
        <ele>3.5</ele>
        <time>2020-03-11T10:35:53Z</time>
      </trkpt>
      <trkpt lat="46.14283" lon="-1.16331">
        <ele>3.7</ele>
        <time>2020-03-11T10:35:53Z</time>
      </trkpt>
      <trkpt lat="46.14248" lon="-1.16343">
        <ele>4</ele>
        <time>2020-03-11T10:35:53Z</time>
      </trkpt>
      <trkpt lat="46.1421" lon="-1.16356">
        <ele>3.2</ele>
        <time>2020-03-11T10:35:53Z</time>
      </trkpt>
      <trkpt lat="46.14186" lon="-1.16352">
        <ele>4</ele>
        <time>2020-03-11T10:35:53Z</time>
      </trkpt>
      <trkpt lat="46.14181" lon="-1.16319">
        <ele>4</ele>
        <time>2020-03-11T10:35:53Z</time>
      </trkpt>
      <trkpt lat="46.14177" lon="-1.1629">
        <ele>3.7</ele>
        <time>2020-03-11T10:35:53Z</time>
      </trkpt>
      <trkpt lat="46.14142" lon="-1.16272">
        <ele>5.1</ele>
        <time>2020-03-11T10:35:53Z</time>
      </trkpt>
      <trkpt lat="46.14087" lon="-1.16268">
        <ele>6</ele>
        <time>2020-03-11T10:35:53Z</time>
      </trkpt>
      <trkpt lat="46.14068" lon="-1.16264">
        <ele>6.6</ele>
        <time>2020-03-11T10:35:53Z</time>
      </trkpt>
      <trkpt lat="46.13957" lon="-1.16244">
        <ele>9.5</ele>
        <time>2020-03-11T10:35:53Z</time>
      </trkpt>
      <trkpt lat="46.13894" lon="-1.16216">
        <ele>10</ele>
        <time>2020-03-11T10:35:53Z</time>
      </trkpt>
      <trkpt lat="46.13843" lon="-1.16192">
        <ele>10</ele>
        <time>2020-03-11T10:35:53Z</time>
      </trkpt>
      <trkpt lat="46.1382" lon="-1.16178">
        <ele>9.7</ele>
        <time>2020-03-11T10:35:53Z</time>
      </trkpt>
      <trkpt lat="46.13792" lon="-1.16153">
        <ele>9.2</ele>
        <time>2020-03-11T10:35:53Z</time>
      </trkpt>
      <trkpt lat="46.13766" lon="-1.16132">
        <ele>9.2</ele>
        <time>2020-03-11T10:35:53Z</time>
      </trkpt>
      <trkpt lat="46.13749" lon="-1.16117">
        <ele>8.2</ele>
        <time>2020-03-11T10:35:53Z</time>
      </trkpt>
      <trkpt lat="46.1375" lon="-1.16075">
        <ele>6.8</ele>
        <time>2020-03-11T10:35:53Z</time>
      </trkpt>
      <trkpt lat="46.13758" lon="-1.16051">
        <ele>4.9</ele>
        <time>2020-03-11T10:35:53Z</time>
      </trkpt>
      <trkpt lat="46.13766" lon="-1.16012">
        <ele>5.5</ele>
        <time>2020-03-11T10:35:53Z</time>
      </trkpt>
      <trkpt lat="46.13776" lon="-1.15946">
        <ele>7.6</ele>
        <time>2020-03-11T10:35:53Z</time>
      </trkpt>
      <trkpt lat="46.1378" lon="-1.15917">
        <ele>7.1</ele>
        <time>2020-03-11T10:35:53Z</time>
      </trkpt>
      <trkpt lat="46.13783" lon="-1.15878">
        <ele>6.1</ele>
        <time>2020-03-11T10:35:53Z</time>
      </trkpt>
      <trkpt lat="46.13788" lon="-1.15846">
        <ele>6.1</ele>
        <time>2020-03-11T10:35:53Z</time>
      </trkpt>
      <trkpt lat="46.13787" lon="-1.15806">
        <ele>6</ele>
        <time>2020-03-11T10:35:53Z</time>
      </trkpt>
      <trkpt lat="46.13788" lon="-1.15764">
        <ele>7.2</ele>
        <time>2020-03-11T10:35:53Z</time>
      </trkpt>
      <trkpt lat="46.13784" lon="-1.15731">
        <ele>7</ele>
        <time>2020-03-11T10:35:53Z</time>
      </trkpt>
      <trkpt lat="46.13784" lon="-1.15688">
        <ele>6.8</ele>
        <time>2020-03-11T10:35:53Z</time>
      </trkpt>
      <trkpt lat="46.1378" lon="-1.15621">
        <ele>5.5</ele>
        <time>2020-03-11T10:35:53Z</time>
      </trkpt>
      <trkpt lat="46.13779" lon="-1.15594">
        <ele>5.7</ele>
        <time>2020-03-11T10:35:53Z</time>
      </trkpt>
      <trkpt lat="46.13773" lon="-1.15565">
        <ele>5.1</ele>
        <time>2020-03-11T10:35:53Z</time>
      </trkpt>
      <trkpt lat="46.1377" lon="-1.15525">
        <ele>4.6</ele>
        <time>2020-03-11T10:35:53Z</time>
      </trkpt>
      <trkpt lat="46.13763" lon="-1.15487">
        <ele>3.7</ele>
        <time>2020-03-11T10:35:53Z</time>
      </trkpt>
      <trkpt lat="46.13747" lon="-1.15417">
        <ele>4.7</ele>
        <time>2020-03-11T10:35:53Z</time>
      </trkpt>
      <trkpt lat="46.13738" lon="-1.15388">
        <ele>4.2</ele>
        <time>2020-03-11T10:35:53Z</time>
      </trkpt>
      <trkpt lat="46.13728" lon="-1.15365">
        <ele>4.8</ele>
        <time>2020-03-11T10:35:53Z</time>
      </trkpt>
      <trkpt lat="46.13715" lon="-1.15343">
        <ele>4</ele>
        <time>2020-03-11T10:35:53Z</time>
      </trkpt>
      <trkpt lat="46.137" lon="-1.15322">
        <ele>4.3</ele>
        <time>2020-03-11T10:35:53Z</time>
      </trkpt>
      <trkpt lat="46.13685" lon="-1.15305">
        <ele>4.3</ele>
        <time>2020-03-11T10:35:53Z</time>
      </trkpt>
      <trkpt lat="46.13657" lon="-1.15276">
        <ele>4.6</ele>
        <time>2020-03-11T10:35:53Z</time>
      </trkpt>
      <trkpt lat="46.1364" lon="-1.1526">
        <ele>4.6</ele>
        <time>2020-03-11T10:35:53Z</time>
      </trkpt>
      <trkpt lat="46.13583" lon="-1.15211">
        <ele>4</ele>
        <time>2020-03-11T10:35:53Z</time>
      </trkpt>
      <trkpt lat="46.13557" lon="-1.15189">
        <ele>4.8</ele>
        <time>2020-03-11T10:35:53Z</time>
      </trkpt>
      <trkpt lat="46.13531" lon="-1.15166">
        <ele>4.9</ele>
        <time>2020-03-11T10:35:53Z</time>
      </trkpt>
      <trkpt lat="46.13509" lon="-1.15148">
        <ele>4.3</ele>
        <time>2020-03-11T10:35:53Z</time>
      </trkpt>
      <trkpt lat="46.13453" lon="-1.15113">
        <ele>4.6</ele>
        <time>2020-03-11T10:35:53Z</time>
      </trkpt>
      <trkpt lat="46.1342" lon="-1.15076">
        <ele>4</ele>
        <time>2020-03-11T10:35:53Z</time>
      </trkpt>
      <trkpt lat="46.13404" lon="-1.15053">
        <ele>3.6</ele>
        <time>2020-03-11T10:35:53Z</time>
      </trkpt>
      <trkpt lat="46.13389" lon="-1.15027">
        <ele>5</ele>
        <time>2020-03-11T10:35:53Z</time>
      </trkpt>
      <trkpt lat="46.1336" lon="-1.14976">
        <ele>4.8</ele>
        <time>2020-03-11T10:35:53Z</time>
      </trkpt>
      <trkpt lat="46.13332" lon="-1.14927">
        <ele>4.5</ele>
        <time>2020-03-11T10:35:53Z</time>
      </trkpt>
      <trkpt lat="46.13287" lon="-1.14875">
        <ele>4.7</ele>
        <time>2020-03-11T10:35:53Z</time>
      </trkpt>
      <trkpt lat="46.13268" lon="-1.14858">
        <ele>5.7</ele>
        <time>2020-03-11T10:35:53Z</time>
      </trkpt>
      <trkpt lat="46.13245" lon="-1.14846">
        <ele>4</ele>
        <time>2020-03-11T10:35:53Z</time>
      </trkpt>
      <trkpt lat="46.13183" lon="-1.14831">
        <ele>4.9</ele>
        <time>2020-03-11T10:35:53Z</time>
      </trkpt>
      <trkpt lat="46.13154" lon="-1.14829">
        <ele>4.4</ele>
        <time>2020-03-11T10:35:53Z</time>
      </trkpt>
      <trkpt lat="46.13122" lon="-1.1483">
        <ele>3.9</ele>
        <time>2020-03-11T10:35:53Z</time>
      </trkpt>
      <trkpt lat="46.13101" lon="-1.14844">
        <ele>3.8</ele>
        <time>2020-03-11T10:35:53Z</time>
      </trkpt>
      <trkpt lat="46.13083" lon="-1.14811">
        <ele>4</ele>
        <time>2020-03-11T10:35:53Z</time>
      </trkpt>
      <trkpt lat="46.13074" lon="-1.14783">
        <ele>4.6</ele>
        <time>2020-03-11T10:35:53Z</time>
      </trkpt>
      <trkpt lat="46.13067" lon="-1.14758">
        <ele>5.1</ele>
        <time>2020-03-11T10:35:53Z</time>
      </trkpt>
      <trkpt lat="46.13077" lon="-1.14688">
        <ele>6</ele>
        <time>2020-03-11T10:35:53Z</time>
      </trkpt>
      <trkpt lat="46.13087" lon="-1.14616">
        <ele>4.9</ele>
        <time>2020-03-11T10:35:53Z</time>
      </trkpt>
      <trkpt lat="46.1311" lon="-1.14475">
        <ele>4</ele>
        <time>2020-03-11T10:35:53Z</time>
      </trkpt>
      <trkpt lat="46.13119" lon="-1.14415">
        <ele>4.4</ele>
        <time>2020-03-11T10:35:53Z</time>
      </trkpt>
      <trkpt lat="46.13124" lon="-1.14376">
        <ele>4.5</ele>
        <time>2020-03-11T10:35:53Z</time>
      </trkpt>
      <trkpt lat="46.1313" lon="-1.14333">
        <ele>4.6</ele>
        <time>2020-03-11T10:35:53Z</time>
      </trkpt>
      <trkpt lat="46.13141" lon="-1.14262">
        <ele>4.4</ele>
        <time>2020-03-11T10:35:53Z</time>
      </trkpt>
      <trkpt lat="46.13151" lon="-1.14191">
        <ele>4.6</ele>
        <time>2020-03-11T10:35:53Z</time>
      </trkpt>
      <trkpt lat="46.13154" lon="-1.14163">
        <ele>4.6</ele>
        <time>2020-03-11T10:35:53Z</time>
      </trkpt>
      <trkpt lat="46.13153" lon="-1.14127">
        <ele>5.5</ele>
        <time>2020-03-11T10:35:53Z</time>
      </trkpt>
      <trkpt lat="46.13152" lon="-1.14089">
        <ele>5.5</ele>
        <time>2020-03-11T10:35:53Z</time>
      </trkpt>
      <trkpt lat="46.13152" lon="-1.14051">
        <ele>6.1</ele>
        <time>2020-03-11T10:35:53Z</time>
      </trkpt>
      <trkpt lat="46.13157" lon="-1.14003">
        <ele>6.9</ele>
        <time>2020-03-11T10:35:53Z</time>
      </trkpt>
      <trkpt lat="46.13166" lon="-1.13946">
        <ele>7</ele>
        <time>2020-03-11T10:35:53Z</time>
      </trkpt>
      <trkpt lat="46.13174" lon="-1.13888">
        <ele>8</ele>
        <time>2020-03-11T10:35:53Z</time>
      </trkpt>
      <trkpt lat="46.13177" lon="-1.1386">
        <ele>8.4</ele>
        <time>2020-03-11T10:35:53Z</time>
      </trkpt>
      <trkpt lat="46.13174" lon="-1.13832">
        <ele>9</ele>
        <time>2020-03-11T10:35:53Z</time>
      </trkpt>
      <trkpt lat="46.13177" lon="-1.13802">
        <ele>9</ele>
        <time>2020-03-11T10:35:53Z</time>
      </trkpt>
      <trkpt lat="46.13191" lon="-1.13784">
        <ele>9</ele>
        <time>2020-03-11T10:35:53Z</time>
      </trkpt>
      <trkpt lat="46.13181" lon="-1.1375">
        <ele>8.5</ele>
        <time>2020-03-11T10:35:53Z</time>
      </trkpt>
      <trkpt lat="46.13203" lon="-1.13741">
        <ele>9</ele>
        <time>2020-03-11T10:35:53Z</time>
      </trkpt>
      <trkpt lat="46.13198" lon="-1.13711">
        <ele>10.1</ele>
        <time>2020-03-11T10:35:53Z</time>
      </trkpt>
      <trkpt lat="46.13184" lon="-1.13663">
        <ele>10</ele>
        <time>2020-03-11T10:35:53Z</time>
      </trkpt>
      <trkpt lat="46.13176" lon="-1.13616">
        <ele>10.3</ele>
        <time>2020-03-11T10:35:53Z</time>
      </trkpt>
      <trkpt lat="46.13171" lon="-1.13568">
        <ele>10</ele>
        <time>2020-03-11T10:35:53Z</time>
      </trkpt>
      <trkpt lat="46.13162" lon="-1.13501">
        <ele>8.9</ele>
        <time>2020-03-11T10:35:53Z</time>
      </trkpt>
      <trkpt lat="46.13154" lon="-1.13434">
        <ele>7.8</ele>
        <time>2020-03-11T10:35:53Z</time>
      </trkpt>
      <trkpt lat="46.13148" lon="-1.13388">
        <ele>7</ele>
        <time>2020-03-11T10:35:53Z</time>
      </trkpt>
      <trkpt lat="46.13141" lon="-1.1334">
        <ele>6.3</ele>
        <time>2020-03-11T10:35:53Z</time>
      </trkpt>
      <trkpt lat="46.13134" lon="-1.13285">
        <ele>5.2</ele>
        <time>2020-03-11T10:35:53Z</time>
      </trkpt>
      <trkpt lat="46.13126" lon="-1.13231">
        <ele>4.7</ele>
        <time>2020-03-11T10:35:53Z</time>
      </trkpt>
      <trkpt lat="46.13118" lon="-1.13181">
        <ele>3.5</ele>
        <time>2020-03-11T10:35:53Z</time>
      </trkpt>
      <trkpt lat="46.13112" lon="-1.13132">
        <ele>3</ele>
        <time>2020-03-11T10:35:53Z</time>
      </trkpt>
      <trkpt lat="46.13093" lon="-1.13129">
        <ele>3</ele>
        <time>2020-03-11T10:35:53Z</time>
      </trkpt>
      <trkpt lat="46.13069" lon="-1.13142">
        <ele>3</ele>
        <time>2020-03-11T10:35:53Z</time>
      </trkpt>
      <trkpt lat="46.13045" lon="-1.13152">
        <ele>3</ele>
        <time>2020-03-11T10:35:53Z</time>
      </trkpt>
      <trkpt lat="46.13025" lon="-1.13137">
        <ele>2.9</ele>
        <time>2020-03-11T10:35:53Z</time>
      </trkpt>
      <trkpt lat="46.12993" lon="-1.13101">
        <ele>2.8</ele>
        <time>2020-03-11T10:35:53Z</time>
      </trkpt>
      <trkpt lat="46.12997" lon="-1.13058">
        <ele>3</ele>
        <time>2020-03-11T10:35:53Z</time>
      </trkpt>
      <trkpt lat="46.12979" lon="-1.13058">
        <ele>3</ele>
        <time>2020-03-11T10:35:53Z</time>
      </trkpt>
      <trkpt lat="46.12959" lon="-1.13051">
        <ele>2.5</ele>
        <time>2020-03-11T10:35:53Z</time>
      </trkpt>
      <trkpt lat="46.12944" lon="-1.13028">
        <ele>3</ele>
        <time>2020-03-11T10:35:53Z</time>
      </trkpt>
      <trkpt lat="46.12945" lon="-1.13">
        <ele>3</ele>
        <time>2020-03-11T10:35:53Z</time>
      </trkpt>
      <trkpt lat="46.12935" lon="-1.1297">
        <ele>2.3</ele>
        <time>2020-03-11T10:35:53Z</time>
      </trkpt>
      <trkpt lat="46.1293" lon="-1.12929">
        <ele>2.5</ele>
        <time>2020-03-11T10:35:53Z</time>
      </trkpt>
      <trkpt lat="46.12943" lon="-1.12899">
        <ele>2.1</ele>
        <time>2020-03-11T10:35:53Z</time>
      </trkpt>
      <trkpt lat="46.12957" lon="-1.12869">
        <ele>2.4</ele>
        <time>2020-03-11T10:35:53Z</time>
      </trkpt>
      <trkpt lat="46.12973" lon="-1.12851">
        <ele>2.4</ele>
        <time>2020-03-11T10:35:53Z</time>
      </trkpt>
      <trkpt lat="46.12949" lon="-1.12816">
        <ele>3</ele>
        <time>2020-03-11T10:35:53Z</time>
      </trkpt>
      <trkpt lat="46.12915" lon="-1.12791">
        <ele>3</ele>
        <time>2020-03-11T10:35:53Z</time>
      </trkpt>
      <trkpt lat="46.12874" lon="-1.12756">
        <ele>3</ele>
        <time>2020-03-11T10:35:53Z</time>
      </trkpt>
      <trkpt lat="46.12859" lon="-1.128">
        <ele>3</ele>
        <time>2020-03-11T10:35:53Z</time>
      </trkpt>
      <trkpt lat="46.12825" lon="-1.12824">
        <ele>3</ele>
        <time>2020-03-11T10:35:53Z</time>
      </trkpt>
      <trkpt lat="46.12801" lon="-1.12844">
        <ele>3.2</ele>
        <time>2020-03-11T10:35:53Z</time>
      </trkpt>
      <trkpt lat="46.12786" lon="-1.1286">
        <ele>4.4</ele>
        <time>2020-03-11T10:35:53Z</time>
      </trkpt>
      <trkpt lat="46.12772" lon="-1.12836">
        <ele>4.3</ele>
        <time>2020-03-11T10:35:53Z</time>
      </trkpt>
      <trkpt lat="46.12753" lon="-1.12857">
        <ele>5</ele>
        <time>2020-03-11T10:35:53Z</time>
      </trkpt>
      <trkpt lat="46.12726" lon="-1.12821">
        <ele>4.5</ele>
        <time>2020-03-11T10:35:53Z</time>
      </trkpt>
      <trkpt lat="46.12686" lon="-1.1278">
        <ele>4.6</ele>
        <time>2020-03-11T10:35:53Z</time>
      </trkpt>
      <trkpt lat="46.12649" lon="-1.12747">
        <ele>5</ele>
        <time>2020-03-11T10:35:53Z</time>
      </trkpt>
      <trkpt lat="46.12613" lon="-1.12717">
        <ele>5</ele>
        <time>2020-03-11T10:35:53Z</time>
      </trkpt>
      <trkpt lat="46.12568" lon="-1.1268">
        <ele>5</ele>
        <time>2020-03-11T10:35:53Z</time>
      </trkpt>
      <trkpt lat="46.12519" lon="-1.12647">
        <ele>5.2</ele>
        <time>2020-03-11T10:35:53Z</time>
      </trkpt>
      <trkpt lat="46.12498" lon="-1.12632">
        <ele>5.7</ele>
        <time>2020-03-11T10:35:53Z</time>
      </trkpt>
      <trkpt lat="46.12443" lon="-1.12598">
        <ele>5.5</ele>
        <time>2020-03-11T10:35:53Z</time>
      </trkpt>
      <trkpt lat="46.12399" lon="-1.12571">
        <ele>4.9</ele>
        <time>2020-03-11T10:35:53Z</time>
      </trkpt>
      <trkpt lat="46.12353" lon="-1.1254">
        <ele>4.6</ele>
        <time>2020-03-11T10:35:53Z</time>
      </trkpt>
      <trkpt lat="46.12321" lon="-1.1252">
        <ele>4.2</ele>
        <time>2020-03-11T10:35:53Z</time>
      </trkpt>
      <trkpt lat="46.12296" lon="-1.12503">
        <ele>3.3</ele>
        <time>2020-03-11T10:35:53Z</time>
      </trkpt>
      <trkpt lat="46.12237" lon="-1.12466">
        <ele>3.1</ele>
        <time>2020-03-11T10:35:53Z</time>
      </trkpt>
      <trkpt lat="46.12192" lon="-1.1244">
        <ele>3.1</ele>
        <time>2020-03-11T10:35:53Z</time>
      </trkpt>
      <trkpt lat="46.12124" lon="-1.12399">
        <ele>3</ele>
        <time>2020-03-11T10:35:53Z</time>
      </trkpt>
      <trkpt lat="46.12098" lon="-1.12387">
        <ele>3</ele>
        <time>2020-03-11T10:35:53Z</time>
      </trkpt>
      <trkpt lat="46.12033" lon="-1.12368">
        <ele>2.2</ele>
        <time>2020-03-11T10:35:53Z</time>
      </trkpt>
      <trkpt lat="46.11983" lon="-1.12347">
        <ele>2</ele>
        <time>2020-03-11T10:35:53Z</time>
      </trkpt>
      <trkpt lat="46.11953" lon="-1.12332">
        <ele>2</ele>
        <time>2020-03-11T10:35:53Z</time>
      </trkpt>
      <trkpt lat="46.11882" lon="-1.12308">
        <ele>2</ele>
        <time>2020-03-11T10:35:53Z</time>
      </trkpt>
      <trkpt lat="46.11854" lon="-1.123">
        <ele>2</ele>
        <time>2020-03-11T10:35:53Z</time>
      </trkpt>
      <trkpt lat="46.11849" lon="-1.12326">
        <ele>2</ele>
        <time>2020-03-11T10:35:53Z</time>
      </trkpt>
      <trkpt lat="46.11842" lon="-1.12351">
        <ele>2.6</ele>
        <time>2020-03-11T10:35:53Z</time>
      </trkpt>
      <trkpt lat="46.1173" lon="-1.12327">
        <ele>2</ele>
        <time>2020-03-11T10:35:53Z</time>
      </trkpt>
      <trkpt lat="46.11649" lon="-1.12319">
        <ele>2</ele>
        <time>2020-03-11T10:35:53Z</time>
      </trkpt>
      <trkpt lat="46.11621" lon="-1.12324">
        <ele>2</ele>
        <time>2020-03-11T10:35:53Z</time>
      </trkpt>
      <trkpt lat="46.11607" lon="-1.12344">
        <ele>3.5</ele>
        <time>2020-03-11T10:35:53Z</time>
      </trkpt>
      <trkpt lat="46.11568" lon="-1.1234">
        <ele>2.7</ele>
        <time>2020-03-11T10:35:53Z</time>
      </trkpt>
      <trkpt lat="46.11511" lon="-1.12349">
        <ele>3.7</ele>
        <time>2020-03-11T10:35:53Z</time>
      </trkpt>
      <trkpt lat="46.11477" lon="-1.12349">
        <ele>4.1</ele>
        <time>2020-03-11T10:35:53Z</time>
      </trkpt>
      <trkpt lat="46.11454" lon="-1.12355">
        <ele>4.8</ele>
        <time>2020-03-11T10:35:53Z</time>
      </trkpt>
      <trkpt lat="46.1143" lon="-1.12362">
        <ele>5</ele>
        <time>2020-03-11T10:35:53Z</time>
      </trkpt>
      <trkpt lat="46.11398" lon="-1.12373">
        <ele>4.6</ele>
        <time>2020-03-11T10:35:53Z</time>
      </trkpt>
      <trkpt lat="46.11364" lon="-1.12384">
        <ele>4.2</ele>
        <time>2020-03-11T10:35:53Z</time>
      </trkpt>
      <trkpt lat="46.11319" lon="-1.12343">
        <ele>4</ele>
        <time>2020-03-11T10:35:53Z</time>
      </trkpt>
      <trkpt lat="46.11285" lon="-1.12291">
        <ele>3.5</ele>
        <time>2020-03-11T10:35:53Z</time>
      </trkpt>
      <trkpt lat="46.11269" lon="-1.12278">
        <ele>3.3</ele>
        <time>2020-03-11T10:35:53Z</time>
      </trkpt>
      <trkpt lat="46.11264" lon="-1.12244">
        <ele>2.9</ele>
        <time>2020-03-11T10:35:53Z</time>
      </trkpt>
      <trkpt lat="46.11193" lon="-1.12132">
        <ele>3</ele>
        <time>2020-03-11T10:35:53Z</time>
      </trkpt>
      <trkpt lat="46.11168" lon="-1.12108">
        <ele>3</ele>
        <time>2020-03-11T10:35:53Z</time>
      </trkpt>
      <trkpt lat="46.11146" lon="-1.12103">
        <ele>3</ele>
        <time>2020-03-11T10:35:53Z</time>
      </trkpt>
      <trkpt lat="46.11114" lon="-1.12105">
        <ele>3</ele>
        <time>2020-03-11T10:35:53Z</time>
      </trkpt>
      <trkpt lat="46.11088" lon="-1.12095">
        <ele>3</ele>
        <time>2020-03-11T10:35:53Z</time>
      </trkpt>
      <trkpt lat="46.11059" lon="-1.12065">
        <ele>3</ele>
        <time>2020-03-11T10:35:53Z</time>
      </trkpt>
      <trkpt lat="46.11039" lon="-1.12033">
        <ele>2.5</ele>
        <time>2020-03-11T10:35:53Z</time>
      </trkpt>
      <trkpt lat="46.11029" lon="-1.11995">
        <ele>3</ele>
        <time>2020-03-11T10:35:53Z</time>
      </trkpt>
      <trkpt lat="46.11025" lon="-1.11957">
        <ele>2.9</ele>
        <time>2020-03-11T10:35:53Z</time>
      </trkpt>
      <trkpt lat="46.11023" lon="-1.1193">
        <ele>2.9</ele>
        <time>2020-03-11T10:35:53Z</time>
      </trkpt>
      <trkpt lat="46.11018" lon="-1.11905">
        <ele>3</ele>
        <time>2020-03-11T10:35:53Z</time>
      </trkpt>
      <trkpt lat="46.11005" lon="-1.11871">
        <ele>3.1</ele>
        <time>2020-03-11T10:35:53Z</time>
      </trkpt>
      <trkpt lat="46.10982" lon="-1.11835">
        <ele>3.3</ele>
        <time>2020-03-11T10:35:53Z</time>
      </trkpt>
      <trkpt lat="46.10956" lon="-1.11799">
        <ele>2.5</ele>
        <time>2020-03-11T10:35:53Z</time>
      </trkpt>
      <trkpt lat="46.10947" lon="-1.11766">
        <ele>3.1</ele>
        <time>2020-03-11T10:35:53Z</time>
      </trkpt>
      <trkpt lat="46.10931" lon="-1.11741">
        <ele>3.2</ele>
        <time>2020-03-11T10:35:53Z</time>
      </trkpt>
      <trkpt lat="46.10909" lon="-1.11739">
        <ele>2.8</ele>
        <time>2020-03-11T10:35:53Z</time>
      </trkpt>
      <trkpt lat="46.1089" lon="-1.11743">
        <ele>2.3</ele>
        <time>2020-03-11T10:35:53Z</time>
      </trkpt>
      <trkpt lat="46.10871" lon="-1.11747">
        <ele>2.1</ele>
        <time>2020-03-11T10:35:53Z</time>
      </trkpt>
      <trkpt lat="46.1085" lon="-1.11748">
        <ele>2.4</ele>
        <time>2020-03-11T10:35:53Z</time>
      </trkpt>
      <trkpt lat="46.10832" lon="-1.11727">
        <ele>3</ele>
        <time>2020-03-11T10:35:53Z</time>
      </trkpt>
      <trkpt lat="46.10821" lon="-1.11706">
        <ele>3</ele>
        <time>2020-03-11T10:35:53Z</time>
      </trkpt>
      <trkpt lat="46.10814" lon="-1.11681">
        <ele>3</ele>
        <time>2020-03-11T10:35:53Z</time>
      </trkpt>
      <trkpt lat="46.10808" lon="-1.11655">
        <ele>3</ele>
        <time>2020-03-11T10:35:53Z</time>
      </trkpt>
      <trkpt lat="46.10787" lon="-1.11628">
        <ele>3</ele>
        <time>2020-03-11T10:35:53Z</time>
      </trkpt>
      <trkpt lat="46.1077" lon="-1.11607">
        <ele>3.1</ele>
        <time>2020-03-11T10:35:53Z</time>
      </trkpt>
      <trkpt lat="46.10751" lon="-1.11611">
        <ele>3</ele>
        <time>2020-03-11T10:35:53Z</time>
      </trkpt>
      <trkpt lat="46.10725" lon="-1.11602">
        <ele>3</ele>
        <time>2020-03-11T10:35:53Z</time>
      </trkpt>
      <trkpt lat="46.10708" lon="-1.11584">
        <ele>3</ele>
        <time>2020-03-11T10:35:53Z</time>
      </trkpt>
      <trkpt lat="46.10691" lon="-1.11573">
        <ele>3</ele>
        <time>2020-03-11T10:35:53Z</time>
      </trkpt>
      <trkpt lat="46.10666" lon="-1.11572">
        <ele>3</ele>
        <time>2020-03-11T10:35:53Z</time>
      </trkpt>
      <trkpt lat="46.10632" lon="-1.11623">
        <ele>3</ele>
        <time>2020-03-11T10:35:53Z</time>
      </trkpt>
      <trkpt lat="46.10608" lon="-1.11661">
        <ele>3</ele>
        <time>2020-03-11T10:35:53Z</time>
      </trkpt>
      <trkpt lat="46.10592" lon="-1.11691">
        <ele>3</ele>
        <time>2020-03-11T10:35:53Z</time>
      </trkpt>
      <trkpt lat="46.10583" lon="-1.11722">
        <ele>3</ele>
        <time>2020-03-11T10:35:53Z</time>
      </trkpt>
      <trkpt lat="46.10571" lon="-1.11765">
        <ele>3</ele>
        <time>2020-03-11T10:35:53Z</time>
      </trkpt>
      <trkpt lat="46.10563" lon="-1.118">
        <ele>3</ele>
        <time>2020-03-11T10:35:53Z</time>
      </trkpt>
      <trkpt lat="46.10552" lon="-1.11842">
        <ele>3</ele>
        <time>2020-03-11T10:35:53Z</time>
      </trkpt>
      <trkpt lat="46.1054" lon="-1.11875">
        <ele>3</ele>
        <time>2020-03-11T10:35:53Z</time>
      </trkpt>
      <trkpt lat="46.1052" lon="-1.11889">
        <ele>3</ele>
        <time>2020-03-11T10:35:53Z</time>
      </trkpt>
      <trkpt lat="46.10497" lon="-1.1189">
        <ele>3</ele>
        <time>2020-03-11T10:35:53Z</time>
      </trkpt>
      <trkpt lat="46.10479" lon="-1.11889">
        <ele>3</ele>
        <time>2020-03-11T10:35:53Z</time>
      </trkpt>
      <trkpt lat="46.10478" lon="-1.11863">
        <ele>3</ele>
        <time>2020-03-11T10:35:53Z</time>
      </trkpt>
      <trkpt lat="46.10437" lon="-1.11836">
        <ele>4.2</ele>
        <time>2020-03-11T10:35:53Z</time>
      </trkpt>
      <trkpt lat="46.10404" lon="-1.11835">
        <ele>5</ele>
        <time>2020-03-11T10:35:53Z</time>
      </trkpt>
      <trkpt lat="46.10361" lon="-1.11832">
        <ele>6</ele>
        <time>2020-03-11T10:35:53Z</time>
      </trkpt>
      <trkpt lat="46.10313" lon="-1.1183">
        <ele>5.4</ele>
        <time>2020-03-11T10:35:53Z</time>
      </trkpt>
      <trkpt lat="46.10308" lon="-1.11801">
        <ele>6.1</ele>
        <time>2020-03-11T10:35:53Z</time>
      </trkpt>
      <trkpt lat="46.10313" lon="-1.11767">
        <ele>6.4</ele>
        <time>2020-03-11T10:35:53Z</time>
      </trkpt>
      <trkpt lat="46.1032" lon="-1.11738">
        <ele>6.2</ele>
        <time>2020-03-11T10:35:53Z</time>
      </trkpt>
      <trkpt lat="46.10348" lon="-1.11645">
        <ele>6.5</ele>
        <time>2020-03-11T10:35:53Z</time>
      </trkpt>
      <trkpt lat="46.10358" lon="-1.11599">
        <ele>6.5</ele>
        <time>2020-03-11T10:35:53Z</time>
      </trkpt>
      <trkpt lat="46.10366" lon="-1.11539">
        <ele>6.8</ele>
        <time>2020-03-11T10:35:53Z</time>
      </trkpt>
      <trkpt lat="46.10376" lon="-1.11469">
        <ele>6</ele>
        <time>2020-03-11T10:35:53Z</time>
      </trkpt>
      <trkpt lat="46.1038" lon="-1.11442">
        <ele>6.1</ele>
        <time>2020-03-11T10:35:53Z</time>
      </trkpt>
      <trkpt lat="46.10384" lon="-1.1141">
        <ele>6.9</ele>
        <time>2020-03-11T10:35:53Z</time>
      </trkpt>
      <trkpt lat="46.10308" lon="-1.1134">
        <ele>7</ele>
        <time>2020-03-11T10:35:53Z</time>
      </trkpt>
      <trkpt lat="46.10217" lon="-1.11266">
        <ele>6.7</ele>
        <time>2020-03-11T10:35:53Z</time>
      </trkpt>
      <trkpt lat="46.10182" lon="-1.11236">
        <ele>8</ele>
        <time>2020-03-11T10:35:53Z</time>
      </trkpt>
      <trkpt lat="46.10151" lon="-1.11202">
        <ele>8.7</ele>
        <time>2020-03-11T10:35:53Z</time>
      </trkpt>
      <trkpt lat="46.10118" lon="-1.11165">
        <ele>9.1</ele>
        <time>2020-03-11T10:35:53Z</time>
      </trkpt>
      <trkpt lat="46.10085" lon="-1.11116">
        <ele>9.8</ele>
        <time>2020-03-11T10:35:53Z</time>
      </trkpt>
      <trkpt lat="46.10058" lon="-1.11075">
        <ele>9.3</ele>
        <time>2020-03-11T10:35:53Z</time>
      </trkpt>
      <trkpt lat="46.10035" lon="-1.11031">
        <ele>9.9</ele>
        <time>2020-03-11T10:35:53Z</time>
      </trkpt>
      <trkpt lat="46.09994" lon="-1.10954">
        <ele>10.5</ele>
        <time>2020-03-11T10:35:53Z</time>
      </trkpt>
      <trkpt lat="46.09969" lon="-1.10907">
        <ele>11.2</ele>
        <time>2020-03-11T10:35:53Z</time>
      </trkpt>
      <trkpt lat="46.09952" lon="-1.10875">
        <ele>11.1</ele>
        <time>2020-03-11T10:35:53Z</time>
      </trkpt>
      <trkpt lat="46.09924" lon="-1.10854">
        <ele>11.3</ele>
        <time>2020-03-11T10:35:53Z</time>
      </trkpt>
      <trkpt lat="46.09908" lon="-1.10824">
        <ele>12.1</ele>
        <time>2020-03-11T10:35:53Z</time>
      </trkpt>
      <trkpt lat="46.09901" lon="-1.10791">
        <ele>12.3</ele>
        <time>2020-03-11T10:35:53Z</time>
      </trkpt>
      <trkpt lat="46.09852" lon="-1.10695">
        <ele>13</ele>
        <time>2020-03-11T10:35:53Z</time>
      </trkpt>
      <trkpt lat="46.09784" lon="-1.10569">
        <ele>12.1</ele>
        <time>2020-03-11T10:35:53Z</time>
      </trkpt>
      <trkpt lat="46.09753" lon="-1.1051">
        <ele>12</ele>
        <time>2020-03-11T10:35:53Z</time>
      </trkpt>
      <trkpt lat="46.0971" lon="-1.10427">
        <ele>10.8</ele>
        <time>2020-03-11T10:35:53Z</time>
      </trkpt>
      <trkpt lat="46.09689" lon="-1.10387">
        <ele>11</ele>
        <time>2020-03-11T10:35:53Z</time>
      </trkpt>
      <trkpt lat="46.09647" lon="-1.10314">
        <ele>11</ele>
        <time>2020-03-11T10:35:53Z</time>
      </trkpt>
      <trkpt lat="46.09608" lon="-1.10287">
        <ele>10</ele>
        <time>2020-03-11T10:35:53Z</time>
      </trkpt>
      <trkpt lat="46.09587" lon="-1.10268">
        <ele>10</ele>
        <time>2020-03-11T10:35:53Z</time>
      </trkpt>
      <trkpt lat="46.09562" lon="-1.10223">
        <ele>8.2</ele>
        <time>2020-03-11T10:35:53Z</time>
      </trkpt>
      <trkpt lat="46.09529" lon="-1.10167">
        <ele>7.1</ele>
        <time>2020-03-11T10:35:53Z</time>
      </trkpt>
      <trkpt lat="46.09511" lon="-1.10139">
        <ele>6.2</ele>
        <time>2020-03-11T10:35:53Z</time>
      </trkpt>
      <trkpt lat="46.09492" lon="-1.10134">
        <ele>4.6</ele>
        <time>2020-03-11T10:35:53Z</time>
      </trkpt>
      <trkpt lat="46.09474" lon="-1.101">
        <ele>4.5</ele>
        <time>2020-03-11T10:35:53Z</time>
      </trkpt>
      <trkpt lat="46.09479" lon="-1.10058">
        <ele>5.6</ele>
        <time>2020-03-11T10:35:53Z</time>
      </trkpt>
      <trkpt lat="46.09481" lon="-1.1003">
        <ele>5.1</ele>
        <time>2020-03-11T10:35:53Z</time>
      </trkpt>
      <trkpt lat="46.09465" lon="-1.10009">
        <ele>4.8</ele>
        <time>2020-03-11T10:35:53Z</time>
      </trkpt>
      <trkpt lat="46.09443" lon="-1.10011">
        <ele>4.4</ele>
        <time>2020-03-11T10:35:53Z</time>
      </trkpt>
      <trkpt lat="46.09413" lon="-1.09999">
        <ele>4</ele>
        <time>2020-03-11T10:35:53Z</time>
      </trkpt>
      <trkpt lat="46.0939" lon="-1.09988">
        <ele>4</ele>
        <time>2020-03-11T10:35:53Z</time>
      </trkpt>
      <trkpt lat="46.0937" lon="-1.0998">
        <ele>4.6</ele>
        <time>2020-03-11T10:35:53Z</time>
      </trkpt>
      <trkpt lat="46.09353" lon="-1.0997">
        <ele>4.1</ele>
        <time>2020-03-11T10:35:53Z</time>
      </trkpt>
      <trkpt lat="46.09329" lon="-1.09961">
        <ele>4.4</ele>
        <time>2020-03-11T10:35:53Z</time>
      </trkpt>
      <trkpt lat="46.09222" lon="-1.09941">
        <ele>5</ele>
        <time>2020-03-11T10:35:53Z</time>
      </trkpt>
      <trkpt lat="46.09193" lon="-1.09932">
        <ele>5</ele>
        <time>2020-03-11T10:35:53Z</time>
      </trkpt>
      <trkpt lat="46.09127" lon="-1.0991">
        <ele>5.3</ele>
        <time>2020-03-11T10:35:53Z</time>
      </trkpt>
      <trkpt lat="46.09076" lon="-1.09894">
        <ele>5</ele>
        <time>2020-03-11T10:35:53Z</time>
      </trkpt>
      <trkpt lat="46.09055" lon="-1.09888">
        <ele>5</ele>
        <time>2020-03-11T10:35:53Z</time>
      </trkpt>
      <trkpt lat="46.09027" lon="-1.09879">
        <ele>5</ele>
        <time>2020-03-11T10:35:53Z</time>
      </trkpt>
      <trkpt lat="46.09" lon="-1.09869">
        <ele>5.3</ele>
        <time>2020-03-11T10:35:53Z</time>
      </trkpt>
      <trkpt lat="46.08973" lon="-1.09855">
        <ele>5</ele>
        <time>2020-03-11T10:35:53Z</time>
      </trkpt>
      <trkpt lat="46.08954" lon="-1.09841">
        <ele>5</ele>
        <time>2020-03-11T10:35:53Z</time>
      </trkpt>
      <trkpt lat="46.08936" lon="-1.09824">
        <ele>5.2</ele>
        <time>2020-03-11T10:35:53Z</time>
      </trkpt>
      <trkpt lat="46.08914" lon="-1.098">
        <ele>5</ele>
        <time>2020-03-11T10:35:53Z</time>
      </trkpt>
      <trkpt lat="46.08855" lon="-1.09723">
        <ele>5</ele>
        <time>2020-03-11T10:35:53Z</time>
      </trkpt>
      <trkpt lat="46.08803" lon="-1.09658">
        <ele>4.7</ele>
        <time>2020-03-11T10:35:53Z</time>
      </trkpt>
      <trkpt lat="46.08765" lon="-1.09618">
        <ele>4.5</ele>
        <time>2020-03-11T10:35:53Z</time>
      </trkpt>
      <trkpt lat="46.08634" lon="-1.09499">
        <ele>5</ele>
        <time>2020-03-11T10:35:53Z</time>
      </trkpt>
      <trkpt lat="46.0858" lon="-1.09449">
        <ele>4.7</ele>
        <time>2020-03-11T10:35:53Z</time>
      </trkpt>
      <trkpt lat="46.08541" lon="-1.09415">
        <ele>4</ele>
        <time>2020-03-11T10:35:53Z</time>
      </trkpt>
      <trkpt lat="46.08463" lon="-1.09344">
        <ele>3.9</ele>
        <time>2020-03-11T10:35:53Z</time>
      </trkpt>
      <trkpt lat="46.08447" lon="-1.09331">
        <ele>4</ele>
        <time>2020-03-11T10:35:53Z</time>
      </trkpt>
      <trkpt lat="46.08425" lon="-1.0932">
        <ele>3.6</ele>
        <time>2020-03-11T10:35:53Z</time>
      </trkpt>
      <trkpt lat="46.08406" lon="-1.09321">
        <ele>3.8</ele>
        <time>2020-03-11T10:35:53Z</time>
      </trkpt>
      <trkpt lat="46.08387" lon="-1.09332">
        <ele>4</ele>
        <time>2020-03-11T10:35:53Z</time>
      </trkpt>
      <trkpt lat="46.08371" lon="-1.09348">
        <ele>4.3</ele>
        <time>2020-03-11T10:35:53Z</time>
      </trkpt>
      <trkpt lat="46.08358" lon="-1.09372">
        <ele>4.7</ele>
        <time>2020-03-11T10:35:53Z</time>
      </trkpt>
      <trkpt lat="46.08343" lon="-1.09405">
        <ele>4.9</ele>
        <time>2020-03-11T10:35:53Z</time>
      </trkpt>
      <trkpt lat="46.08333" lon="-1.09436">
        <ele>5</ele>
        <time>2020-03-11T10:35:53Z</time>
      </trkpt>
      <trkpt lat="46.08325" lon="-1.09464">
        <ele>5.5</ele>
        <time>2020-03-11T10:35:53Z</time>
      </trkpt>
      <trkpt lat="46.08328" lon="-1.09494">
        <ele>5.8</ele>
        <time>2020-03-11T10:35:53Z</time>
      </trkpt>
      <trkpt lat="46.08318" lon="-1.0956">
        <ele>5</ele>
        <time>2020-03-11T10:35:53Z</time>
      </trkpt>
      <trkpt lat="46.08305" lon="-1.09641">
        <ele>5</ele>
        <time>2020-03-11T10:35:53Z</time>
      </trkpt>
      <trkpt lat="46.08287" lon="-1.09657">
        <ele>5</ele>
        <time>2020-03-11T10:35:53Z</time>
      </trkpt>
      <trkpt lat="46.08265" lon="-1.09646">
        <ele>4.8</ele>
        <time>2020-03-11T10:35:53Z</time>
      </trkpt>
      <trkpt lat="46.08202" lon="-1.09613">
        <ele>4.9</ele>
        <time>2020-03-11T10:35:53Z</time>
      </trkpt>
      <trkpt lat="46.08112" lon="-1.09565">
        <ele>4.7</ele>
        <time>2020-03-11T10:35:53Z</time>
      </trkpt>
      <trkpt lat="46.08038" lon="-1.09526">
        <ele>5</ele>
        <time>2020-03-11T10:35:53Z</time>
      </trkpt>
      <trkpt lat="46.07994" lon="-1.09506">
        <ele>4.7</ele>
        <time>2020-03-11T10:35:53Z</time>
      </trkpt>
      <trkpt lat="46.07949" lon="-1.09485">
        <ele>4.6</ele>
        <time>2020-03-11T10:35:53Z</time>
      </trkpt>
      <trkpt lat="46.07913" lon="-1.09468">
        <ele>5</ele>
        <time>2020-03-11T10:35:53Z</time>
      </trkpt>
      <trkpt lat="46.07889" lon="-1.09457">
        <ele>5</ele>
        <time>2020-03-11T10:35:53Z</time>
      </trkpt>
      <trkpt lat="46.07851" lon="-1.0944">
        <ele>5</ele>
        <time>2020-03-11T10:35:53Z</time>
      </trkpt>
      <trkpt lat="46.07807" lon="-1.09419">
        <ele>4.9</ele>
        <time>2020-03-11T10:35:53Z</time>
      </trkpt>
      <trkpt lat="46.07787" lon="-1.09414">
        <ele>5.7</ele>
        <time>2020-03-11T10:35:53Z</time>
      </trkpt>
      <trkpt lat="46.07745" lon="-1.09403">
        <ele>5.6</ele>
        <time>2020-03-11T10:35:53Z</time>
      </trkpt>
      <trkpt lat="46.07699" lon="-1.09394">
        <ele>6.6</ele>
        <time>2020-03-11T10:35:53Z</time>
      </trkpt>
      <trkpt lat="46.07663" lon="-1.09387">
        <ele>6.1</ele>
        <time>2020-03-11T10:35:53Z</time>
      </trkpt>
      <trkpt lat="46.07642" lon="-1.09382">
        <ele>6.2</ele>
        <time>2020-03-11T10:35:53Z</time>
      </trkpt>
      <trkpt lat="46.07623" lon="-1.09379">
        <ele>6</ele>
        <time>2020-03-11T10:35:53Z</time>
      </trkpt>
      <trkpt lat="46.07601" lon="-1.09375">
        <ele>6</ele>
        <time>2020-03-11T10:35:53Z</time>
      </trkpt>
      <trkpt lat="46.07513" lon="-1.09356">
        <ele>5</ele>
        <time>2020-03-11T10:35:53Z</time>
      </trkpt>
      <trkpt lat="46.0747" lon="-1.09349">
        <ele>5</ele>
        <time>2020-03-11T10:35:53Z</time>
      </trkpt>
      <trkpt lat="46.07424" lon="-1.09341">
        <ele>4.8</ele>
        <time>2020-03-11T10:35:53Z</time>
      </trkpt>
      <trkpt lat="46.07386" lon="-1.09333">
        <ele>5</ele>
        <time>2020-03-11T10:35:53Z</time>
      </trkpt>
      <trkpt lat="46.07334" lon="-1.09324">
        <ele>5</ele>
        <time>2020-03-11T10:35:53Z</time>
      </trkpt>
      <trkpt lat="46.07313" lon="-1.09321">
        <ele>5.3</ele>
        <time>2020-03-11T10:35:53Z</time>
      </trkpt>
      <trkpt lat="46.07273" lon="-1.09315">
        <ele>5</ele>
        <time>2020-03-11T10:35:53Z</time>
      </trkpt>
      <trkpt lat="46.0723" lon="-1.09311">
        <ele>4.9</ele>
        <time>2020-03-11T10:35:53Z</time>
      </trkpt>
      <trkpt lat="46.072" lon="-1.09308">
        <ele>4.9</ele>
        <time>2020-03-11T10:35:53Z</time>
      </trkpt>
      <trkpt lat="46.07129" lon="-1.09301">
        <ele>4.9</ele>
        <time>2020-03-11T10:35:53Z</time>
      </trkpt>
      <trkpt lat="46.071" lon="-1.09299">
        <ele>5</ele>
        <time>2020-03-11T10:35:53Z</time>
      </trkpt>
      <trkpt lat="46.07073" lon="-1.09295">
        <ele>5</ele>
        <time>2020-03-11T10:35:53Z</time>
      </trkpt>
      <trkpt lat="46.07038" lon="-1.09293">
        <ele>4.7</ele>
        <time>2020-03-11T10:35:53Z</time>
      </trkpt>
      <trkpt lat="46.07006" lon="-1.0929">
        <ele>4.9</ele>
        <time>2020-03-11T10:35:53Z</time>
      </trkpt>
      <trkpt lat="46.06985" lon="-1.09288">
        <ele>5</ele>
        <time>2020-03-11T10:35:53Z</time>
      </trkpt>
      <trkpt lat="46.06944" lon="-1.09285">
        <ele>4.7</ele>
        <time>2020-03-11T10:35:53Z</time>
      </trkpt>
      <trkpt lat="46.0688" lon="-1.09285">
        <ele>4.9</ele>
        <time>2020-03-11T10:35:53Z</time>
      </trkpt>
      <trkpt lat="46.06859" lon="-1.09285">
        <ele>4.8</ele>
        <time>2020-03-11T10:35:53Z</time>
      </trkpt>
      <trkpt lat="46.06777" lon="-1.09288">
        <ele>5</ele>
        <time>2020-03-11T10:35:53Z</time>
      </trkpt>
      <trkpt lat="46.06714" lon="-1.09287">
        <ele>5</ele>
        <time>2020-03-11T10:35:53Z</time>
      </trkpt>
      <trkpt lat="46.06596" lon="-1.09288">
        <ele>4.8</ele>
        <time>2020-03-11T10:35:53Z</time>
      </trkpt>
      <trkpt lat="46.06549" lon="-1.09289">
        <ele>5.1</ele>
        <time>2020-03-11T10:35:53Z</time>
      </trkpt>
      <trkpt lat="46.06476" lon="-1.09293">
        <ele>6.7</ele>
        <time>2020-03-11T10:35:53Z</time>
      </trkpt>
      <trkpt lat="46.0642" lon="-1.09297">
        <ele>6.2</ele>
        <time>2020-03-11T10:35:53Z</time>
      </trkpt>
      <trkpt lat="46.0638" lon="-1.09298">
        <ele>5.7</ele>
        <time>2020-03-11T10:35:53Z</time>
      </trkpt>
      <trkpt lat="46.06227" lon="-1.093">
        <ele>4.2</ele>
        <time>2020-03-11T10:35:53Z</time>
      </trkpt>
      <trkpt lat="46.06228" lon="-1.09256">
        <ele>5</ele>
        <time>2020-03-11T10:35:53Z</time>
      </trkpt>
      <trkpt lat="46.06229" lon="-1.09229">
        <ele>4.4</ele>
        <time>2020-03-11T10:35:53Z</time>
      </trkpt>
      <trkpt lat="46.06273" lon="-1.09161">
        <ele>4</ele>
        <time>2020-03-11T10:35:53Z</time>
      </trkpt>
      <trkpt lat="46.06235" lon="-1.09149">
        <ele>4.6</ele>
        <time>2020-03-11T10:35:53Z</time>
      </trkpt>
      <trkpt lat="46.06152" lon="-1.09133">
        <ele>5</ele>
        <time>2020-03-11T10:35:53Z</time>
      </trkpt>
      <trkpt lat="46.06125" lon="-1.09105">
        <ele>6.1</ele>
        <time>2020-03-11T10:35:53Z</time>
      </trkpt>
      <trkpt lat="46.06092" lon="-1.09057">
        <ele>9</ele>
        <time>2020-03-11T10:35:53Z</time>
      </trkpt>
      <trkpt lat="46.06069" lon="-1.09031">
        <ele>10.3</ele>
        <time>2020-03-11T10:35:53Z</time>
      </trkpt>
      <trkpt lat="46.06041" lon="-1.09006">
        <ele>12.5</ele>
        <time>2020-03-11T10:35:53Z</time>
      </trkpt>
      <trkpt lat="46.06024" lon="-1.08995">
        <ele>13.8</ele>
        <time>2020-03-11T10:35:53Z</time>
      </trkpt>
      <trkpt lat="46.05994" lon="-1.08979">
        <ele>14.4</ele>
        <time>2020-03-11T10:35:53Z</time>
      </trkpt>
      <trkpt lat="46.05966" lon="-1.08969">
        <ele>14.8</ele>
        <time>2020-03-11T10:35:53Z</time>
      </trkpt>
      <trkpt lat="46.05942" lon="-1.08957">
        <ele>14.3</ele>
        <time>2020-03-11T10:35:53Z</time>
      </trkpt>
      <trkpt lat="46.05926" lon="-1.08935">
        <ele>14.4</ele>
        <time>2020-03-11T10:35:53Z</time>
      </trkpt>
      <trkpt lat="46.05911" lon="-1.0889">
        <ele>14.8</ele>
        <time>2020-03-11T10:35:53Z</time>
      </trkpt>
      <trkpt lat="46.05903" lon="-1.08866">
        <ele>14.9</ele>
        <time>2020-03-11T10:35:53Z</time>
      </trkpt>
      <trkpt lat="46.05894" lon="-1.08841">
        <ele>16.3</ele>
        <time>2020-03-11T10:35:53Z</time>
      </trkpt>
      <trkpt lat="46.0588" lon="-1.08802">
        <ele>17.1</ele>
        <time>2020-03-11T10:35:53Z</time>
      </trkpt>
      <trkpt lat="46.05868" lon="-1.08765">
        <ele>18.5</ele>
        <time>2020-03-11T10:35:53Z</time>
      </trkpt>
      <trkpt lat="46.05858" lon="-1.08737">
        <ele>18.9</ele>
        <time>2020-03-11T10:35:53Z</time>
      </trkpt>
      <trkpt lat="46.05849" lon="-1.0869">
        <ele>18.9</ele>
        <time>2020-03-11T10:35:53Z</time>
      </trkpt>
      <trkpt lat="46.05833" lon="-1.08676">
        <ele>18.3</ele>
        <time>2020-03-11T10:35:53Z</time>
      </trkpt>
      <trkpt lat="46.05768" lon="-1.08694">
        <ele>16.6</ele>
        <time>2020-03-11T10:35:53Z</time>
      </trkpt>
      <trkpt lat="46.05723" lon="-1.08703">
        <ele>14.3</ele>
        <time>2020-03-11T10:35:53Z</time>
      </trkpt>
      <trkpt lat="46.05689" lon="-1.08708">
        <ele>13.2</ele>
        <time>2020-03-11T10:35:53Z</time>
      </trkpt>
      <trkpt lat="46.05666" lon="-1.08712">
        <ele>12</ele>
        <time>2020-03-11T10:35:53Z</time>
      </trkpt>
      <trkpt lat="46.0562" lon="-1.0872">
        <ele>11.3</ele>
        <time>2020-03-11T10:35:53Z</time>
      </trkpt>
      <trkpt lat="46.05588" lon="-1.08726">
        <ele>11</ele>
        <time>2020-03-11T10:35:53Z</time>
      </trkpt>
      <trkpt lat="46.05548" lon="-1.08732">
        <ele>10.5</ele>
        <time>2020-03-11T10:35:53Z</time>
      </trkpt>
      <trkpt lat="46.05522" lon="-1.08737">
        <ele>9.8</ele>
        <time>2020-03-11T10:35:53Z</time>
      </trkpt>
      <trkpt lat="46.05488" lon="-1.08743">
        <ele>8.9</ele>
        <time>2020-03-11T10:35:53Z</time>
      </trkpt>
      <trkpt lat="46.05449" lon="-1.08751">
        <ele>7.3</ele>
        <time>2020-03-11T10:35:53Z</time>
      </trkpt>
      <trkpt lat="46.05368" lon="-1.08763">
        <ele>4.5</ele>
        <time>2020-03-11T10:35:53Z</time>
      </trkpt>
      <trkpt lat="46.05352" lon="-1.08669">
        <ele>3.6</ele>
        <time>2020-03-11T10:35:53Z</time>
      </trkpt>
      <trkpt lat="46.05334" lon="-1.08624">
        <ele>4</ele>
        <time>2020-03-11T10:35:53Z</time>
      </trkpt>
      <trkpt lat="46.05324" lon="-1.08475">
        <ele>4</ele>
        <time>2020-03-11T10:35:53Z</time>
      </trkpt>
      <trkpt lat="46.05323" lon="-1.08449">
        <ele>4</ele>
        <time>2020-03-11T10:35:53Z</time>
      </trkpt>
      <trkpt lat="46.05321" lon="-1.08378">
        <ele>4</ele>
        <time>2020-03-11T10:35:53Z</time>
      </trkpt>
      <trkpt lat="46.05339" lon="-1.08352">
        <ele>3.8</ele>
        <time>2020-03-11T10:35:53Z</time>
      </trkpt>
      <trkpt lat="46.05345" lon="-1.08151">
        <ele>3.8</ele>
        <time>2020-03-11T10:35:53Z</time>
      </trkpt>
      <trkpt lat="46.05351" lon="-1.08118">
        <ele>3.2</ele>
        <time>2020-03-11T10:35:53Z</time>
      </trkpt>
      <trkpt lat="46.05364" lon="-1.08088">
        <ele>3.8</ele>
        <time>2020-03-11T10:35:53Z</time>
      </trkpt>
      <trkpt lat="46.05398" lon="-1.08037">
        <ele>3.7</ele>
        <time>2020-03-11T10:35:53Z</time>
      </trkpt>
      <trkpt lat="46.0544" lon="-1.07977">
        <ele>4</ele>
        <time>2020-03-11T10:35:53Z</time>
      </trkpt>
      <trkpt lat="46.05465" lon="-1.07943">
        <ele>4</ele>
        <time>2020-03-11T10:35:53Z</time>
      </trkpt>
      <trkpt lat="46.055" lon="-1.07892">
        <ele>4</ele>
        <time>2020-03-11T10:35:53Z</time>
      </trkpt>
      <trkpt lat="46.05515" lon="-1.0787">
        <ele>4</ele>
        <time>2020-03-11T10:35:53Z</time>
      </trkpt>
      <trkpt lat="46.05528" lon="-1.0785">
        <ele>4</ele>
        <time>2020-03-11T10:35:53Z</time>
      </trkpt>
      <trkpt lat="46.05564" lon="-1.07801">
        <ele>3.6</ele>
        <time>2020-03-11T10:35:53Z</time>
      </trkpt>
      <trkpt lat="46.05608" lon="-1.07736">
        <ele>3.1</ele>
        <time>2020-03-11T10:35:53Z</time>
      </trkpt>
      <trkpt lat="46.05646" lon="-1.07682">
        <ele>3</ele>
        <time>2020-03-11T10:35:53Z</time>
      </trkpt>
      <trkpt lat="46.0566" lon="-1.07659">
        <ele>3</ele>
        <time>2020-03-11T10:35:53Z</time>
      </trkpt>
      <trkpt lat="46.05677" lon="-1.0762">
        <ele>3</ele>
        <time>2020-03-11T10:35:53Z</time>
      </trkpt>
      <trkpt lat="46.05763" lon="-1.07496">
        <ele>4</ele>
        <time>2020-03-11T10:35:53Z</time>
      </trkpt>
      <trkpt lat="46.05796" lon="-1.07449">
        <ele>3.3</ele>
        <time>2020-03-11T10:35:53Z</time>
      </trkpt>
      <trkpt lat="46.05825" lon="-1.07409">
        <ele>3</ele>
        <time>2020-03-11T10:35:53Z</time>
      </trkpt>
      <trkpt lat="46.05852" lon="-1.07368">
        <ele>3.8</ele>
        <time>2020-03-11T10:35:53Z</time>
      </trkpt>
      <trkpt lat="46.05865" lon="-1.07329">
        <ele>3.9</ele>
        <time>2020-03-11T10:35:53Z</time>
      </trkpt>
      <trkpt lat="46.05865" lon="-1.07296">
        <ele>3.9</ele>
        <time>2020-03-11T10:35:53Z</time>
      </trkpt>
      <trkpt lat="46.05862" lon="-1.07216">
        <ele>4</ele>
        <time>2020-03-11T10:35:53Z</time>
      </trkpt>
      <trkpt lat="46.0586" lon="-1.07163">
        <ele>4</ele>
        <time>2020-03-11T10:35:53Z</time>
      </trkpt>
      <trkpt lat="46.05857" lon="-1.07092">
        <ele>4</ele>
        <time>2020-03-11T10:35:53Z</time>
      </trkpt>
      <trkpt lat="46.05855" lon="-1.07041">
        <ele>4</ele>
        <time>2020-03-11T10:35:53Z</time>
      </trkpt>
      <trkpt lat="46.05851" lon="-1.06941">
        <ele>3.4</ele>
        <time>2020-03-11T10:35:53Z</time>
      </trkpt>
      <trkpt lat="46.0584" lon="-1.06865">
        <ele>3.8</ele>
        <time>2020-03-11T10:35:53Z</time>
      </trkpt>
      <trkpt lat="46.05801" lon="-1.06637">
        <ele>4</ele>
        <time>2020-03-11T10:35:53Z</time>
      </trkpt>
      <trkpt lat="46.05786" lon="-1.06532">
        <ele>3.7</ele>
        <time>2020-03-11T10:35:53Z</time>
      </trkpt>
      <trkpt lat="46.05776" lon="-1.0642">
        <ele>3.9</ele>
        <time>2020-03-11T10:35:53Z</time>
      </trkpt>
      <trkpt lat="46.05751" lon="-1.0625">
        <ele>4</ele>
        <time>2020-03-11T10:35:53Z</time>
      </trkpt>
      <trkpt lat="46.05747" lon="-1.06222">
        <ele>4</ele>
        <time>2020-03-11T10:35:53Z</time>
      </trkpt>
      <trkpt lat="46.05743" lon="-1.06189">
        <ele>3.8</ele>
        <time>2020-03-11T10:35:53Z</time>
      </trkpt>
      <trkpt lat="46.05739" lon="-1.06157">
        <ele>3.2</ele>
        <time>2020-03-11T10:35:53Z</time>
      </trkpt>
      <trkpt lat="46.05732" lon="-1.06118">
        <ele>3.1</ele>
        <time>2020-03-11T10:35:53Z</time>
      </trkpt>
      <trkpt lat="46.05726" lon="-1.0607">
        <ele>3</ele>
        <time>2020-03-11T10:35:53Z</time>
      </trkpt>
      <trkpt lat="46.05721" lon="-1.06039">
        <ele>3</ele>
        <time>2020-03-11T10:35:53Z</time>
      </trkpt>
      <trkpt lat="46.05717" lon="-1.06013">
        <ele>3</ele>
        <time>2020-03-11T10:35:53Z</time>
      </trkpt>
      <trkpt lat="46.05707" lon="-1.05943">
        <ele>3.5</ele>
        <time>2020-03-11T10:35:53Z</time>
      </trkpt>
      <trkpt lat="46.05703" lon="-1.05914">
        <ele>3</ele>
        <time>2020-03-11T10:35:53Z</time>
      </trkpt>
      <trkpt lat="46.05698" lon="-1.05877">
        <ele>3.4</ele>
        <time>2020-03-11T10:35:53Z</time>
      </trkpt>
      <trkpt lat="46.05691" lon="-1.05826">
        <ele>3.7</ele>
        <time>2020-03-11T10:35:53Z</time>
      </trkpt>
      <trkpt lat="46.05667" lon="-1.05783">
        <ele>3</ele>
        <time>2020-03-11T10:35:53Z</time>
      </trkpt>
      <trkpt lat="46.05647" lon="-1.05747">
        <ele>3</ele>
        <time>2020-03-11T10:35:53Z</time>
      </trkpt>
      <trkpt lat="46.05627" lon="-1.057">
        <ele>2.9</ele>
        <time>2020-03-11T10:35:53Z</time>
      </trkpt>
      <trkpt lat="46.0561" lon="-1.05672">
        <ele>3</ele>
        <time>2020-03-11T10:35:53Z</time>
      </trkpt>
      <trkpt lat="46.05561" lon="-1.05637">
        <ele>3.1</ele>
        <time>2020-03-11T10:35:53Z</time>
      </trkpt>
      <trkpt lat="46.05486" lon="-1.05578">
        <ele>3.1</ele>
        <time>2020-03-11T10:35:53Z</time>
      </trkpt>
      <trkpt lat="46.05438" lon="-1.05538">
        <ele>3</ele>
        <time>2020-03-11T10:35:53Z</time>
      </trkpt>
      <trkpt lat="46.05282" lon="-1.05415">
        <ele>3</ele>
        <time>2020-03-11T10:35:53Z</time>
      </trkpt>
      <trkpt lat="46.05156" lon="-1.05312">
        <ele>3</ele>
        <time>2020-03-11T10:35:53Z</time>
      </trkpt>
      <trkpt lat="46.05018" lon="-1.05199">
        <ele>2.9</ele>
        <time>2020-03-11T10:35:53Z</time>
      </trkpt>
      <trkpt lat="46.04992" lon="-1.05177">
        <ele>2.9</ele>
        <time>2020-03-11T10:35:53Z</time>
      </trkpt>
      <trkpt lat="46.04939" lon="-1.05133">
        <ele>3.2</ele>
        <time>2020-03-11T10:35:53Z</time>
      </trkpt>
      <trkpt lat="46.04919" lon="-1.05112">
        <ele>3.1</ele>
        <time>2020-03-11T10:35:53Z</time>
      </trkpt>
      <trkpt lat="46.04887" lon="-1.0507">
        <ele>3</ele>
        <time>2020-03-11T10:35:53Z</time>
      </trkpt>
      <trkpt lat="46.04871" lon="-1.05048">
        <ele>3.1</ele>
        <time>2020-03-11T10:35:53Z</time>
      </trkpt>
      <trkpt lat="46.04807" lon="-1.04993">
        <ele>3</ele>
        <time>2020-03-11T10:35:53Z</time>
      </trkpt>
      <trkpt lat="46.04745" lon="-1.04943">
        <ele>3</ele>
        <time>2020-03-11T10:35:53Z</time>
      </trkpt>
      <trkpt lat="46.04484" lon="-1.04731">
        <ele>3.3</ele>
        <time>2020-03-11T10:35:53Z</time>
      </trkpt>
      <trkpt lat="46.04455" lon="-1.04708">
        <ele>3</ele>
        <time>2020-03-11T10:35:53Z</time>
      </trkpt>
      <trkpt lat="46.04365" lon="-1.04631">
        <ele>3.3</ele>
        <time>2020-03-11T10:35:53Z</time>
      </trkpt>
      <trkpt lat="46.04341" lon="-1.04623">
        <ele>4.3</ele>
        <time>2020-03-11T10:35:53Z</time>
      </trkpt>
      <trkpt lat="46.04303" lon="-1.04642">
        <ele>4</ele>
        <time>2020-03-11T10:35:53Z</time>
      </trkpt>
      <trkpt lat="46.04261" lon="-1.04667">
        <ele>4</ele>
        <time>2020-03-11T10:35:53Z</time>
      </trkpt>
      <trkpt lat="46.04241" lon="-1.04668">
        <ele>4</ele>
        <time>2020-03-11T10:35:53Z</time>
      </trkpt>
      <trkpt lat="46.04228" lon="-1.04641">
        <ele>5.1</ele>
        <time>2020-03-11T10:35:53Z</time>
      </trkpt>
      <trkpt lat="46.0422" lon="-1.04581">
        <ele>3.1</ele>
        <time>2020-03-11T10:35:53Z</time>
      </trkpt>
      <trkpt lat="46.04223" lon="-1.0452">
        <ele>3.3</ele>
        <time>2020-03-11T10:35:53Z</time>
      </trkpt>
      <trkpt lat="46.04231" lon="-1.04445">
        <ele>3.3</ele>
        <time>2020-03-11T10:35:53Z</time>
      </trkpt>
      <trkpt lat="46.04241" lon="-1.04336">
        <ele>3.1</ele>
        <time>2020-03-11T10:35:53Z</time>
      </trkpt>
      <trkpt lat="46.0425" lon="-1.04312">
        <ele>3</ele>
        <time>2020-03-11T10:35:53Z</time>
      </trkpt>
      <trkpt lat="46.04247" lon="-1.0425">
        <ele>3.9</ele>
        <time>2020-03-11T10:35:53Z</time>
      </trkpt>
      <trkpt lat="46.04257" lon="-1.04152">
        <ele>3</ele>
        <time>2020-03-11T10:35:53Z</time>
      </trkpt>
      <trkpt lat="46.04264" lon="-1.04062">
        <ele>3</ele>
        <time>2020-03-11T10:35:53Z</time>
      </trkpt>
      <trkpt lat="46.04271" lon="-1.03985">
        <ele>3.8</ele>
        <time>2020-03-11T10:35:53Z</time>
      </trkpt>
      <trkpt lat="46.04272" lon="-1.03957">
        <ele>3.5</ele>
        <time>2020-03-11T10:35:53Z</time>
      </trkpt>
      <trkpt lat="46.04238" lon="-1.03977">
        <ele>3</ele>
        <time>2020-03-11T10:35:53Z</time>
      </trkpt>
      <trkpt lat="46.04213" lon="-1.03995">
        <ele>3</ele>
        <time>2020-03-11T10:35:53Z</time>
      </trkpt>
      <trkpt lat="46.04191" lon="-1.04017">
        <ele>3.1</ele>
        <time>2020-03-11T10:35:53Z</time>
      </trkpt>
      <trkpt lat="46.04166" lon="-1.04043">
        <ele>3.5</ele>
        <time>2020-03-11T10:35:53Z</time>
      </trkpt>
      <trkpt lat="46.04145" lon="-1.04066">
        <ele>3.8</ele>
        <time>2020-03-11T10:35:53Z</time>
      </trkpt>
      <trkpt lat="46.04112" lon="-1.04102">
        <ele>3.7</ele>
        <time>2020-03-11T10:35:53Z</time>
      </trkpt>
      <trkpt lat="46.04075" lon="-1.04141">
        <ele>3.6</ele>
        <time>2020-03-11T10:35:53Z</time>
      </trkpt>
      <trkpt lat="46.04039" lon="-1.04179">
        <ele>3</ele>
        <time>2020-03-11T10:35:53Z</time>
      </trkpt>
      <trkpt lat="46.03965" lon="-1.04249">
        <ele>3</ele>
        <time>2020-03-11T10:35:53Z</time>
      </trkpt>
      <trkpt lat="46.03868" lon="-1.04344">
        <ele>3</ele>
        <time>2020-03-11T10:35:53Z</time>
      </trkpt>
      <trkpt lat="46.03808" lon="-1.04416">
        <ele>3</ele>
        <time>2020-03-11T10:35:53Z</time>
      </trkpt>
      <trkpt lat="46.03794" lon="-1.04433">
        <ele>3</ele>
        <time>2020-03-11T10:35:53Z</time>
      </trkpt>
      <trkpt lat="46.03694" lon="-1.04537">
        <ele>3.3</ele>
        <time>2020-03-11T10:35:53Z</time>
      </trkpt>
      <trkpt lat="46.03656" lon="-1.04564">
        <ele>3.3</ele>
        <time>2020-03-11T10:35:53Z</time>
      </trkpt>
      <trkpt lat="46.03628" lon="-1.04582">
        <ele>3.6</ele>
        <time>2020-03-11T10:35:53Z</time>
      </trkpt>
      <trkpt lat="46.03419" lon="-1.04667">
        <ele>3</ele>
        <time>2020-03-11T10:35:53Z</time>
      </trkpt>
      <trkpt lat="46.03259" lon="-1.04733">
        <ele>3</ele>
        <time>2020-03-11T10:35:53Z</time>
      </trkpt>
      <trkpt lat="46.03136" lon="-1.04784">
        <ele>2.9</ele>
        <time>2020-03-11T10:35:53Z</time>
      </trkpt>
      <trkpt lat="46.03051" lon="-1.04808">
        <ele>2.9</ele>
        <time>2020-03-11T10:35:53Z</time>
      </trkpt>
      <trkpt lat="46.02993" lon="-1.04818">
        <ele>2.4</ele>
        <time>2020-03-11T10:35:53Z</time>
      </trkpt>
      <trkpt lat="46.02935" lon="-1.04821">
        <ele>2.6</ele>
        <time>2020-03-11T10:35:53Z</time>
      </trkpt>
      <trkpt lat="46.02827" lon="-1.04813">
        <ele>3.2</ele>
        <time>2020-03-11T10:35:53Z</time>
      </trkpt>
      <trkpt lat="46.02755" lon="-1.04798">
        <ele>3.5</ele>
        <time>2020-03-11T10:35:53Z</time>
      </trkpt>
      <trkpt lat="46.02511" lon="-1.0472">
        <ele>2.9</ele>
        <time>2020-03-11T10:35:53Z</time>
      </trkpt>
      <trkpt lat="46.02297" lon="-1.04651">
        <ele>3</ele>
        <time>2020-03-11T10:35:53Z</time>
      </trkpt>
      <trkpt lat="46.02189" lon="-1.04619">
        <ele>3.3</ele>
        <time>2020-03-11T10:35:53Z</time>
      </trkpt>
      <trkpt lat="46.02127" lon="-1.04595">
        <ele>3.7</ele>
        <time>2020-03-11T10:35:53Z</time>
      </trkpt>
      <trkpt lat="46.02099" lon="-1.04563">
        <ele>3.7</ele>
        <time>2020-03-11T10:35:53Z</time>
      </trkpt>
      <trkpt lat="46.02077" lon="-1.04556">
        <ele>4.2</ele>
        <time>2020-03-11T10:35:53Z</time>
      </trkpt>
      <trkpt lat="46.02071" lon="-1.04584">
        <ele>5</ele>
        <time>2020-03-11T10:35:53Z</time>
      </trkpt>
      <trkpt lat="46.02069" lon="-1.04615">
        <ele>5.5</ele>
        <time>2020-03-11T10:35:53Z</time>
      </trkpt>
      <trkpt lat="46.02061" lon="-1.04643">
        <ele>5.8</ele>
        <time>2020-03-11T10:35:53Z</time>
      </trkpt>
      <trkpt lat="46.02042" lon="-1.04654">
        <ele>6.5</ele>
        <time>2020-03-11T10:35:53Z</time>
      </trkpt>
      <trkpt lat="46.02035" lon="-1.04686">
        <ele>7.3</ele>
        <time>2020-03-11T10:35:53Z</time>
      </trkpt>
      <trkpt lat="46.02037" lon="-1.04727">
        <ele>6.6</ele>
        <time>2020-03-11T10:35:53Z</time>
      </trkpt>
      <trkpt lat="46.0204" lon="-1.04771">
        <ele>5.7</ele>
        <time>2020-03-11T10:35:53Z</time>
      </trkpt>
      <trkpt lat="46.02015" lon="-1.0478">
        <ele>6</ele>
        <time>2020-03-11T10:35:53Z</time>
      </trkpt>
      <trkpt lat="46.01991" lon="-1.04783">
        <ele>6.5</ele>
        <time>2020-03-11T10:35:53Z</time>
      </trkpt>
      <trkpt lat="46.01957" lon="-1.04781">
        <ele>7.6</ele>
        <time>2020-03-11T10:35:53Z</time>
      </trkpt>
      <trkpt lat="46.01925" lon="-1.04768">
        <ele>8</ele>
        <time>2020-03-11T10:35:53Z</time>
      </trkpt>
      <trkpt lat="46.01892" lon="-1.04762">
        <ele>8.9</ele>
        <time>2020-03-11T10:35:53Z</time>
      </trkpt>
      <trkpt lat="46.01869" lon="-1.04759">
        <ele>9</ele>
        <time>2020-03-11T10:35:53Z</time>
      </trkpt>
      <trkpt lat="46.01836" lon="-1.04772">
        <ele>9</ele>
        <time>2020-03-11T10:35:53Z</time>
      </trkpt>
      <trkpt lat="46.01806" lon="-1.04794">
        <ele>9.6</ele>
        <time>2020-03-11T10:35:53Z</time>
      </trkpt>
      <trkpt lat="46.01789" lon="-1.04809">
        <ele>10.1</ele>
        <time>2020-03-11T10:35:53Z</time>
      </trkpt>
      <trkpt lat="46.01755" lon="-1.04838">
        <ele>10.2</ele>
        <time>2020-03-11T10:35:53Z</time>
      </trkpt>
      <trkpt lat="46.01718" lon="-1.04869">
        <ele>10.2</ele>
        <time>2020-03-11T10:35:53Z</time>
      </trkpt>
      <trkpt lat="46.01691" lon="-1.04888">
        <ele>10</ele>
        <time>2020-03-11T10:35:53Z</time>
      </trkpt>
      <trkpt lat="46.01648" lon="-1.04918">
        <ele>9.4</ele>
        <time>2020-03-11T10:35:53Z</time>
      </trkpt>
      <trkpt lat="46.0163" lon="-1.04929">
        <ele>9.2</ele>
        <time>2020-03-11T10:35:53Z</time>
      </trkpt>
      <trkpt lat="46.0159" lon="-1.04901">
        <ele>9.2</ele>
        <time>2020-03-11T10:35:53Z</time>
      </trkpt>
      <trkpt lat="46.01529" lon="-1.04887">
        <ele>10</ele>
        <time>2020-03-11T10:35:53Z</time>
      </trkpt>
      <trkpt lat="46.01504" lon="-1.04883">
        <ele>10</ele>
        <time>2020-03-11T10:35:53Z</time>
      </trkpt>
      <trkpt lat="46.01479" lon="-1.0489">
        <ele>10</ele>
        <time>2020-03-11T10:35:53Z</time>
      </trkpt>
      <trkpt lat="46.01439" lon="-1.04914">
        <ele>9.7</ele>
        <time>2020-03-11T10:35:53Z</time>
      </trkpt>
      <trkpt lat="46.0141" lon="-1.04928">
        <ele>9.3</ele>
        <time>2020-03-11T10:35:53Z</time>
      </trkpt>
      <trkpt lat="46.01382" lon="-1.04933">
        <ele>8.8</ele>
        <time>2020-03-11T10:35:53Z</time>
      </trkpt>
      <trkpt lat="46.01352" lon="-1.04927">
        <ele>7.6</ele>
        <time>2020-03-11T10:35:53Z</time>
      </trkpt>
      <trkpt lat="46.01302" lon="-1.04906">
        <ele>6.5</ele>
        <time>2020-03-11T10:35:53Z</time>
      </trkpt>
      <trkpt lat="46.01221" lon="-1.04868">
        <ele>4.2</ele>
        <time>2020-03-11T10:35:53Z</time>
      </trkpt>
      <trkpt lat="46.01168" lon="-1.04841">
        <ele>4</ele>
        <time>2020-03-11T10:35:53Z</time>
      </trkpt>
      <trkpt lat="46.01144" lon="-1.04824">
        <ele>3.9</ele>
        <time>2020-03-11T10:35:53Z</time>
      </trkpt>
      <trkpt lat="46.01129" lon="-1.04754">
        <ele>3</ele>
        <time>2020-03-11T10:35:53Z</time>
      </trkpt>
      <trkpt lat="46.01114" lon="-1.04656">
        <ele>3</ele>
        <time>2020-03-11T10:35:53Z</time>
      </trkpt>
      <trkpt lat="46.01095" lon="-1.04631">
        <ele>3</ele>
        <time>2020-03-11T10:35:53Z</time>
      </trkpt>
      <trkpt lat="46.01071" lon="-1.04645">
        <ele>3</ele>
        <time>2020-03-11T10:35:53Z</time>
      </trkpt>
      <trkpt lat="46.01053" lon="-1.04665">
        <ele>3</ele>
        <time>2020-03-11T10:35:53Z</time>
      </trkpt>
      <trkpt lat="46.01015" lon="-1.04694">
        <ele>3</ele>
        <time>2020-03-11T10:35:53Z</time>
      </trkpt>
      <trkpt lat="46.00984" lon="-1.04715">
        <ele>2.5</ele>
        <time>2020-03-11T10:35:53Z</time>
      </trkpt>
      <trkpt lat="46.00955" lon="-1.0472">
        <ele>2.9</ele>
        <time>2020-03-11T10:35:53Z</time>
      </trkpt>
      <trkpt lat="46.00929" lon="-1.0471">
        <ele>2.8</ele>
        <time>2020-03-11T10:35:53Z</time>
      </trkpt>
      <trkpt lat="46.00878" lon="-1.04682">
        <ele>3.2</ele>
        <time>2020-03-11T10:35:53Z</time>
      </trkpt>
      <trkpt lat="46.00839" lon="-1.04663">
        <ele>2.9</ele>
        <time>2020-03-11T10:35:53Z</time>
      </trkpt>
      <trkpt lat="46.00677" lon="-1.04578">
        <ele>2.9</ele>
        <time>2020-03-11T10:35:53Z</time>
      </trkpt>
      <trkpt lat="46.00422" lon="-1.04442">
        <ele>3</ele>
        <time>2020-03-11T10:35:53Z</time>
      </trkpt>
      <trkpt lat="46.00315" lon="-1.04386">
        <ele>3.9</ele>
        <time>2020-03-11T10:35:53Z</time>
      </trkpt>
      <trkpt lat="46.00118" lon="-1.04281">
        <ele>3.1</ele>
        <time>2020-03-11T10:35:53Z</time>
      </trkpt>
      <trkpt lat="45.99975" lon="-1.04201">
        <ele>6.9</ele>
        <time>2020-03-11T10:35:53Z</time>
      </trkpt>
      <trkpt lat="45.9992" lon="-1.04173">
        <ele>7.7</ele>
        <time>2020-03-11T10:35:53Z</time>
      </trkpt>
      <trkpt lat="45.99854" lon="-1.0414">
        <ele>6</ele>
        <time>2020-03-11T10:35:53Z</time>
      </trkpt>
      <trkpt lat="45.99808" lon="-1.04116">
        <ele>6</ele>
        <time>2020-03-11T10:35:53Z</time>
      </trkpt>
      <trkpt lat="45.99771" lon="-1.04093">
        <ele>6.5</ele>
        <time>2020-03-11T10:35:53Z</time>
      </trkpt>
      <trkpt lat="45.9975" lon="-1.04081">
        <ele>7</ele>
        <time>2020-03-11T10:35:53Z</time>
      </trkpt>
      <trkpt lat="45.99706" lon="-1.04065">
        <ele>6.7</ele>
        <time>2020-03-11T10:35:53Z</time>
      </trkpt>
      <trkpt lat="45.9968" lon="-1.04044">
        <ele>7.3</ele>
        <time>2020-03-11T10:35:53Z</time>
      </trkpt>
      <trkpt lat="45.9966" lon="-1.04025">
        <ele>7.2</ele>
        <time>2020-03-11T10:35:53Z</time>
      </trkpt>
      <trkpt lat="45.99645" lon="-1.04005">
        <ele>7.8</ele>
        <time>2020-03-11T10:35:53Z</time>
      </trkpt>
      <trkpt lat="45.99621" lon="-1.03988">
        <ele>8.6</ele>
        <time>2020-03-11T10:35:53Z</time>
      </trkpt>
      <trkpt lat="45.99604" lon="-1.03964">
        <ele>9.5</ele>
        <time>2020-03-11T10:35:53Z</time>
      </trkpt>
      <trkpt lat="45.99585" lon="-1.03908">
        <ele>9.9</ele>
        <time>2020-03-11T10:35:53Z</time>
      </trkpt>
      <trkpt lat="45.99563" lon="-1.03855">
        <ele>10.5</ele>
        <time>2020-03-11T10:35:53Z</time>
      </trkpt>
      <trkpt lat="45.99542" lon="-1.03799">
        <ele>9.9</ele>
        <time>2020-03-11T10:35:53Z</time>
      </trkpt>
      <trkpt lat="45.99526" lon="-1.03743">
        <ele>10</ele>
        <time>2020-03-11T10:35:53Z</time>
      </trkpt>
      <trkpt lat="45.99508" lon="-1.03654">
        <ele>8.7</ele>
        <time>2020-03-11T10:35:53Z</time>
      </trkpt>
      <trkpt lat="45.99499" lon="-1.03599">
        <ele>7.6</ele>
        <time>2020-03-11T10:35:53Z</time>
      </trkpt>
      <trkpt lat="45.99487" lon="-1.03556">
        <ele>6.5</ele>
        <time>2020-03-11T10:35:53Z</time>
      </trkpt>
      <trkpt lat="45.99465" lon="-1.03504">
        <ele>5.1</ele>
        <time>2020-03-11T10:35:53Z</time>
      </trkpt>
      <trkpt lat="45.99434" lon="-1.03457">
        <ele>4.7</ele>
        <time>2020-03-11T10:35:53Z</time>
      </trkpt>
      <trkpt lat="45.9941" lon="-1.0342">
        <ele>5</ele>
        <time>2020-03-11T10:35:53Z</time>
      </trkpt>
      <trkpt lat="45.99394" lon="-1.03389">
        <ele>4.8</ele>
        <time>2020-03-11T10:35:53Z</time>
      </trkpt>
      <trkpt lat="45.99383" lon="-1.03368">
        <ele>4.4</ele>
        <time>2020-03-11T10:35:53Z</time>
      </trkpt>
      <trkpt lat="45.99371" lon="-1.03346">
        <ele>4.6</ele>
        <time>2020-03-11T10:35:53Z</time>
      </trkpt>
      <trkpt lat="45.99359" lon="-1.03317">
        <ele>5</ele>
        <time>2020-03-11T10:35:53Z</time>
      </trkpt>
      <trkpt lat="45.99351" lon="-1.03289">
        <ele>5</ele>
        <time>2020-03-11T10:35:53Z</time>
      </trkpt>
      <trkpt lat="45.99342" lon="-1.03247">
        <ele>5.7</ele>
        <time>2020-03-11T10:35:53Z</time>
      </trkpt>
      <trkpt lat="45.99336" lon="-1.03196">
        <ele>5.9</ele>
        <time>2020-03-11T10:35:53Z</time>
      </trkpt>
      <trkpt lat="45.9933" lon="-1.03127">
        <ele>6.1</ele>
        <time>2020-03-11T10:35:53Z</time>
      </trkpt>
      <trkpt lat="45.99322" lon="-1.03038">
        <ele>5.6</ele>
        <time>2020-03-11T10:35:53Z</time>
      </trkpt>
      <trkpt lat="45.99318" lon="-1.0298">
        <ele>5.4</ele>
        <time>2020-03-11T10:35:53Z</time>
      </trkpt>
      <trkpt lat="45.99312" lon="-1.02923">
        <ele>5</ele>
        <time>2020-03-11T10:35:53Z</time>
      </trkpt>
      <trkpt lat="45.99305" lon="-1.02865">
        <ele>6</ele>
        <time>2020-03-11T10:35:53Z</time>
      </trkpt>
      <trkpt lat="45.99297" lon="-1.02839">
        <ele>6</ele>
        <time>2020-03-11T10:35:53Z</time>
      </trkpt>
      <trkpt lat="45.99285" lon="-1.02815">
        <ele>5.8</ele>
        <time>2020-03-11T10:35:53Z</time>
      </trkpt>
      <trkpt lat="45.99253" lon="-1.02758">
        <ele>5.9</ele>
        <time>2020-03-11T10:35:53Z</time>
      </trkpt>
      <trkpt lat="45.9924" lon="-1.02734">
        <ele>6</ele>
        <time>2020-03-11T10:35:53Z</time>
      </trkpt>
      <trkpt lat="45.99219" lon="-1.02753">
        <ele>6.1</ele>
        <time>2020-03-11T10:35:53Z</time>
      </trkpt>
      <trkpt lat="45.99207" lon="-1.02776">
        <ele>6.4</ele>
        <time>2020-03-11T10:35:53Z</time>
      </trkpt>
      <trkpt lat="45.99191" lon="-1.02798">
        <ele>6.7</ele>
        <time>2020-03-11T10:35:53Z</time>
      </trkpt>
      <trkpt lat="45.99175" lon="-1.02818">
        <ele>7.3</ele>
        <time>2020-03-11T10:35:53Z</time>
      </trkpt>
      <trkpt lat="45.99153" lon="-1.02825">
        <ele>7.4</ele>
        <time>2020-03-11T10:35:53Z</time>
      </trkpt>
      <trkpt lat="45.99084" lon="-1.02863">
        <ele>5</ele>
        <time>2020-03-11T10:35:53Z</time>
      </trkpt>
      <trkpt lat="45.99054" lon="-1.02867">
        <ele>4.2</ele>
        <time>2020-03-11T10:35:53Z</time>
      </trkpt>
      <trkpt lat="45.99021" lon="-1.02881">
        <ele>4.3</ele>
        <time>2020-03-11T10:35:53Z</time>
      </trkpt>
      <trkpt lat="45.99003" lon="-1.02885">
        <ele>4</ele>
        <time>2020-03-11T10:35:53Z</time>
      </trkpt>
      <trkpt lat="45.98983" lon="-1.02891">
        <ele>3.5</ele>
        <time>2020-03-11T10:35:53Z</time>
      </trkpt>
      <trkpt lat="45.9895" lon="-1.02905">
        <ele>3.7</ele>
        <time>2020-03-11T10:35:53Z</time>
      </trkpt>
      <trkpt lat="45.98931" lon="-1.02918">
        <ele>3.6</ele>
        <time>2020-03-11T10:35:53Z</time>
      </trkpt>
      <trkpt lat="45.98913" lon="-1.02931">
        <ele>3.4</ele>
        <time>2020-03-11T10:35:53Z</time>
      </trkpt>
      <trkpt lat="45.98889" lon="-1.02953">
        <ele>3.6</ele>
        <time>2020-03-11T10:35:53Z</time>
      </trkpt>
      <trkpt lat="45.98868" lon="-1.02975">
        <ele>3.6</ele>
        <time>2020-03-11T10:35:53Z</time>
      </trkpt>
      <trkpt lat="45.98854" lon="-1.02993">
        <ele>3.7</ele>
        <time>2020-03-11T10:35:53Z</time>
      </trkpt>
      <trkpt lat="45.98828" lon="-1.03028">
        <ele>4.8</ele>
        <time>2020-03-11T10:35:53Z</time>
      </trkpt>
      <trkpt lat="45.988" lon="-1.03054">
        <ele>4.8</ele>
        <time>2020-03-11T10:35:53Z</time>
      </trkpt>
      <trkpt lat="45.98784" lon="-1.03069">
        <ele>4.7</ele>
        <time>2020-03-11T10:35:53Z</time>
      </trkpt>
      <trkpt lat="45.98767" lon="-1.03083">
        <ele>5.4</ele>
        <time>2020-03-11T10:35:53Z</time>
      </trkpt>
      <trkpt lat="45.98753" lon="-1.031">
        <ele>6.5</ele>
        <time>2020-03-11T10:35:53Z</time>
      </trkpt>
      <trkpt lat="45.98718" lon="-1.03138">
        <ele>8.9</ele>
        <time>2020-03-11T10:35:53Z</time>
      </trkpt>
      <trkpt lat="45.98701" lon="-1.03153">
        <ele>8.5</ele>
        <time>2020-03-11T10:35:53Z</time>
      </trkpt>
      <trkpt lat="45.98683" lon="-1.03119">
        <ele>8.9</ele>
        <time>2020-03-11T10:35:53Z</time>
      </trkpt>
      <trkpt lat="45.98677" lon="-1.03093">
        <ele>8.4</ele>
        <time>2020-03-11T10:35:53Z</time>
      </trkpt>
      <trkpt lat="45.98664" lon="-1.03047">
        <ele>7</ele>
        <time>2020-03-11T10:35:53Z</time>
      </trkpt>
      <trkpt lat="45.9864" lon="-1.02975">
        <ele>5.3</ele>
        <time>2020-03-11T10:35:53Z</time>
      </trkpt>
      <trkpt lat="45.98609" lon="-1.02872">
        <ele>3.6</ele>
        <time>2020-03-11T10:35:53Z</time>
      </trkpt>
      <trkpt lat="45.98598" lon="-1.02837">
        <ele>3.5</ele>
        <time>2020-03-11T10:35:53Z</time>
      </trkpt>
      <trkpt lat="45.98578" lon="-1.02775">
        <ele>3.1</ele>
        <time>2020-03-11T10:35:53Z</time>
      </trkpt>
      <trkpt lat="45.98491" lon="-1.02531">
        <ele>3.6</ele>
        <time>2020-03-11T10:35:53Z</time>
      </trkpt>
      <trkpt lat="45.98222" lon="-1.01793">
        <ele>3</ele>
        <time>2020-03-11T10:35:53Z</time>
      </trkpt>
      <trkpt lat="45.98178" lon="-1.01678">
        <ele>3.2</ele>
        <time>2020-03-11T10:35:53Z</time>
      </trkpt>
      <trkpt lat="45.98146" lon="-1.01587">
        <ele>3.3</ele>
        <time>2020-03-11T10:35:53Z</time>
      </trkpt>
      <trkpt lat="45.98122" lon="-1.01519">
        <ele>3.4</ele>
        <time>2020-03-11T10:35:53Z</time>
      </trkpt>
      <trkpt lat="45.98107" lon="-1.01466">
        <ele>3.2</ele>
        <time>2020-03-11T10:35:53Z</time>
      </trkpt>
      <trkpt lat="45.98092" lon="-1.01407">
        <ele>3.3</ele>
        <time>2020-03-11T10:35:53Z</time>
      </trkpt>
      <trkpt lat="45.98082" lon="-1.01356">
        <ele>3</ele>
        <time>2020-03-11T10:35:53Z</time>
      </trkpt>
      <trkpt lat="45.9807" lon="-1.01285">
        <ele>3.5</ele>
        <time>2020-03-11T10:35:53Z</time>
      </trkpt>
      <trkpt lat="45.9806" lon="-1.01213">
        <ele>3.2</ele>
        <time>2020-03-11T10:35:53Z</time>
      </trkpt>
      <trkpt lat="45.98053" lon="-1.01154">
        <ele>3</ele>
        <time>2020-03-11T10:35:53Z</time>
      </trkpt>
      <trkpt lat="45.98047" lon="-1.0107">
        <ele>3.7</ele>
        <time>2020-03-11T10:35:53Z</time>
      </trkpt>
      <trkpt lat="45.98044" lon="-1.01009">
        <ele>3.6</ele>
        <time>2020-03-11T10:35:53Z</time>
      </trkpt>
      <trkpt lat="45.98031" lon="-1.00692">
        <ele>3.1</ele>
        <time>2020-03-11T10:35:53Z</time>
      </trkpt>
      <trkpt lat="45.98026" lon="-1.00657">
        <ele>3</ele>
        <time>2020-03-11T10:35:53Z</time>
      </trkpt>
      <trkpt lat="45.98016" lon="-1.00467">
        <ele>4.7</ele>
        <time>2020-03-11T10:35:53Z</time>
      </trkpt>
      <trkpt lat="45.98014" lon="-1.00432">
        <ele>5</ele>
        <time>2020-03-11T10:35:53Z</time>
      </trkpt>
      <trkpt lat="45.98015" lon="-1.00401">
        <ele>4.8</ele>
        <time>2020-03-11T10:35:53Z</time>
      </trkpt>
      <trkpt lat="45.98019" lon="-1.00332">
        <ele>5.4</ele>
        <time>2020-03-11T10:35:53Z</time>
      </trkpt>
      <trkpt lat="45.98021" lon="-1.00302">
        <ele>4.9</ele>
        <time>2020-03-11T10:35:53Z</time>
      </trkpt>
      <trkpt lat="45.9802" lon="-1.00262">
        <ele>4.2</ele>
        <time>2020-03-11T10:35:53Z</time>
      </trkpt>
      <trkpt lat="45.98018" lon="-1.00228">
        <ele>3.8</ele>
        <time>2020-03-11T10:35:53Z</time>
      </trkpt>
      <trkpt lat="45.98016" lon="-1.00171">
        <ele>3.6</ele>
        <time>2020-03-11T10:35:53Z</time>
      </trkpt>
      <trkpt lat="45.97994" lon="-1.00048">
        <ele>3.8</ele>
        <time>2020-03-11T10:35:53Z</time>
      </trkpt>
      <trkpt lat="45.97981" lon="-1.00004">
        <ele>3.3</ele>
        <time>2020-03-11T10:35:53Z</time>
      </trkpt>
      <trkpt lat="45.97855" lon="-0.99713">
        <ele>3.3</ele>
        <time>2020-03-11T10:35:53Z</time>
      </trkpt>
      <trkpt lat="45.97805" lon="-0.99636">
        <ele>3.1</ele>
        <time>2020-03-11T10:35:53Z</time>
      </trkpt>
      <trkpt lat="45.97702" lon="-0.99471">
        <ele>3.3</ele>
        <time>2020-03-11T10:35:53Z</time>
      </trkpt>
      <trkpt lat="45.97603" lon="-0.9932">
        <ele>3.3</ele>
        <time>2020-03-11T10:35:53Z</time>
      </trkpt>
      <trkpt lat="45.97448" lon="-0.99075">
        <ele>3.4</ele>
        <time>2020-03-11T10:35:53Z</time>
      </trkpt>
      <trkpt lat="45.97326" lon="-0.98883">
        <ele>3.9</ele>
        <time>2020-03-11T10:35:53Z</time>
      </trkpt>
      <trkpt lat="45.97306" lon="-0.98876">
        <ele>3.5</ele>
        <time>2020-03-11T10:35:53Z</time>
      </trkpt>
      <trkpt lat="45.97284" lon="-0.98847">
        <ele>3.9</ele>
        <time>2020-03-11T10:35:53Z</time>
      </trkpt>
      <trkpt lat="45.9725" lon="-0.98792">
        <ele>4</ele>
        <time>2020-03-11T10:35:53Z</time>
      </trkpt>
      <trkpt lat="45.97231" lon="-0.98748">
        <ele>5.6</ele>
        <time>2020-03-11T10:35:53Z</time>
      </trkpt>
      <trkpt lat="45.97058" lon="-0.98558">
        <ele>8</ele>
        <time>2020-03-11T10:35:53Z</time>
      </trkpt>
      <trkpt lat="45.96956" lon="-0.98453">
        <ele>10.4</ele>
        <time>2020-03-11T10:35:53Z</time>
      </trkpt>
      <trkpt lat="45.96932" lon="-0.98426">
        <ele>11</ele>
        <time>2020-03-11T10:35:53Z</time>
      </trkpt>
      <trkpt lat="45.969" lon="-0.98383">
        <ele>11.8</ele>
        <time>2020-03-11T10:35:53Z</time>
      </trkpt>
      <trkpt lat="45.96855" lon="-0.98311">
        <ele>13</ele>
        <time>2020-03-11T10:35:53Z</time>
      </trkpt>
      <trkpt lat="45.96756" lon="-0.98344">
        <ele>14.5</ele>
        <time>2020-03-11T10:35:53Z</time>
      </trkpt>
      <trkpt lat="45.96722" lon="-0.98356">
        <ele>15</ele>
        <time>2020-03-11T10:35:53Z</time>
      </trkpt>
      <trkpt lat="45.96697" lon="-0.98365">
        <ele>15.6</ele>
        <time>2020-03-11T10:35:53Z</time>
      </trkpt>
      <trkpt lat="45.96678" lon="-0.98367">
        <ele>15.7</ele>
        <time>2020-03-11T10:35:53Z</time>
      </trkpt>
      <trkpt lat="45.96647" lon="-0.98353">
        <ele>17</ele>
        <time>2020-03-11T10:35:53Z</time>
      </trkpt>
      <trkpt lat="45.9659" lon="-0.98378">
        <ele>17.1</ele>
        <time>2020-03-11T10:35:53Z</time>
      </trkpt>
      <trkpt lat="45.96538" lon="-0.9842">
        <ele>17</ele>
        <time>2020-03-11T10:35:53Z</time>
      </trkpt>
      <trkpt lat="45.96521" lon="-0.98436">
        <ele>16.8</ele>
        <time>2020-03-11T10:35:53Z</time>
      </trkpt>
      <trkpt lat="45.96495" lon="-0.98469">
        <ele>16.7</ele>
        <time>2020-03-11T10:35:53Z</time>
      </trkpt>
      <trkpt lat="45.96458" lon="-0.98535">
        <ele>15.7</ele>
        <time>2020-03-11T10:35:53Z</time>
      </trkpt>
      <trkpt lat="45.96444" lon="-0.98552">
        <ele>15.9</ele>
        <time>2020-03-11T10:35:53Z</time>
      </trkpt>
      <trkpt lat="45.96421" lon="-0.98567">
        <ele>15.2</ele>
        <time>2020-03-11T10:35:53Z</time>
      </trkpt>
      <trkpt lat="45.96402" lon="-0.98573">
        <ele>14.5</ele>
        <time>2020-03-11T10:35:53Z</time>
      </trkpt>
      <trkpt lat="45.96362" lon="-0.98583">
        <ele>13</ele>
        <time>2020-03-11T10:35:53Z</time>
      </trkpt>
      <trkpt lat="45.96328" lon="-0.98593">
        <ele>12.5</ele>
        <time>2020-03-11T10:35:53Z</time>
      </trkpt>
      <trkpt lat="45.96282" lon="-0.98603">
        <ele>11.2</ele>
        <time>2020-03-11T10:35:53Z</time>
      </trkpt>
      <trkpt lat="45.96212" lon="-0.98626">
        <ele>8.6</ele>
        <time>2020-03-11T10:35:53Z</time>
      </trkpt>
      <trkpt lat="45.96194" lon="-0.98631">
        <ele>8</ele>
        <time>2020-03-11T10:35:53Z</time>
      </trkpt>
      <trkpt lat="45.96175" lon="-0.98636">
        <ele>7.3</ele>
        <time>2020-03-11T10:35:53Z</time>
      </trkpt>
      <trkpt lat="45.96154" lon="-0.98639">
        <ele>7</ele>
        <time>2020-03-11T10:35:53Z</time>
      </trkpt>
      <trkpt lat="45.96129" lon="-0.98641">
        <ele>7</ele>
        <time>2020-03-11T10:35:53Z</time>
      </trkpt>
      <trkpt lat="45.96108" lon="-0.9864">
        <ele>6.9</ele>
        <time>2020-03-11T10:35:53Z</time>
      </trkpt>
      <trkpt lat="45.96087" lon="-0.98639">
        <ele>6.1</ele>
        <time>2020-03-11T10:35:53Z</time>
      </trkpt>
      <trkpt lat="45.96066" lon="-0.98635">
        <ele>6</ele>
        <time>2020-03-11T10:35:53Z</time>
      </trkpt>
      <trkpt lat="45.96049" lon="-0.98625">
        <ele>5.9</ele>
        <time>2020-03-11T10:35:53Z</time>
      </trkpt>
      <trkpt lat="45.96031" lon="-0.98596">
        <ele>5.5</ele>
        <time>2020-03-11T10:35:53Z</time>
      </trkpt>
      <trkpt lat="45.96013" lon="-0.9859">
        <ele>5.1</ele>
        <time>2020-03-11T10:35:53Z</time>
      </trkpt>
      <trkpt lat="45.95977" lon="-0.98495">
        <ele>5</ele>
        <time>2020-03-11T10:35:53Z</time>
      </trkpt>
      <trkpt lat="45.95966" lon="-0.98452">
        <ele>5</ele>
        <time>2020-03-11T10:35:53Z</time>
      </trkpt>
      <trkpt lat="45.9595" lon="-0.984">
        <ele>5</ele>
        <time>2020-03-11T10:35:53Z</time>
      </trkpt>
      <trkpt lat="45.95934" lon="-0.98363">
        <ele>4</ele>
        <time>2020-03-11T10:35:53Z</time>
      </trkpt>
      <trkpt lat="45.95917" lon="-0.98329">
        <ele>4</ele>
        <time>2020-03-11T10:35:53Z</time>
      </trkpt>
      <trkpt lat="45.95893" lon="-0.98293">
        <ele>4</ele>
        <time>2020-03-11T10:35:53Z</time>
      </trkpt>
      <trkpt lat="45.95881" lon="-0.98273">
        <ele>4</ele>
        <time>2020-03-11T10:35:53Z</time>
      </trkpt>
      <trkpt lat="45.95868" lon="-0.98247">
        <ele>4</ele>
        <time>2020-03-11T10:35:53Z</time>
      </trkpt>
      <trkpt lat="45.95855" lon="-0.98214">
        <ele>3.8</ele>
        <time>2020-03-11T10:35:53Z</time>
      </trkpt>
      <trkpt lat="45.95842" lon="-0.98173">
        <ele>3.8</ele>
        <time>2020-03-11T10:35:53Z</time>
      </trkpt>
      <trkpt lat="45.95837" lon="-0.98131">
        <ele>4</ele>
        <time>2020-03-11T10:35:53Z</time>
      </trkpt>
      <trkpt lat="45.95847" lon="-0.98073">
        <ele>3.8</ele>
        <time>2020-03-11T10:35:53Z</time>
      </trkpt>
      <trkpt lat="45.95862" lon="-0.97995">
        <ele>4</ele>
        <time>2020-03-11T10:35:53Z</time>
      </trkpt>
      <trkpt lat="45.95817" lon="-0.97993">
        <ele>4</ele>
        <time>2020-03-11T10:35:53Z</time>
      </trkpt>
      <trkpt lat="45.95797" lon="-0.98003">
        <ele>4</ele>
        <time>2020-03-11T10:35:53Z</time>
      </trkpt>
      <trkpt lat="45.95749" lon="-0.98009">
        <ele>3.7</ele>
        <time>2020-03-11T10:35:53Z</time>
      </trkpt>
      <trkpt lat="45.95727" lon="-0.98024">
        <ele>4</ele>
        <time>2020-03-11T10:35:53Z</time>
      </trkpt>
      <trkpt lat="45.95697" lon="-0.98062">
        <ele>3.7</ele>
        <time>2020-03-11T10:35:53Z</time>
      </trkpt>
      <trkpt lat="45.95654" lon="-0.98109">
        <ele>3.9</ele>
        <time>2020-03-11T10:35:53Z</time>
      </trkpt>
      <trkpt lat="45.95578" lon="-0.98193">
        <ele>3.4</ele>
        <time>2020-03-11T10:35:53Z</time>
      </trkpt>
      <trkpt lat="45.95503" lon="-0.98271">
        <ele>3.4</ele>
        <time>2020-03-11T10:35:53Z</time>
      </trkpt>
      <trkpt lat="45.95463" lon="-0.98311">
        <ele>3.5</ele>
        <time>2020-03-11T10:35:53Z</time>
      </trkpt>
      <trkpt lat="45.95443" lon="-0.98333">
        <ele>3.1</ele>
        <time>2020-03-11T10:35:53Z</time>
      </trkpt>
      <trkpt lat="45.95398" lon="-0.98402">
        <ele>3</ele>
        <time>2020-03-11T10:35:53Z</time>
      </trkpt>
      <trkpt lat="45.95387" lon="-0.98425">
        <ele>3</ele>
        <time>2020-03-11T10:35:53Z</time>
      </trkpt>
      <trkpt lat="45.9538" lon="-0.98465">
        <ele>3</ele>
        <time>2020-03-11T10:35:53Z</time>
      </trkpt>
      <trkpt lat="45.95372" lon="-0.98491">
        <ele>3</ele>
        <time>2020-03-11T10:35:53Z</time>
      </trkpt>
      <trkpt lat="45.95356" lon="-0.98536">
        <ele>3.6</ele>
        <time>2020-03-11T10:35:53Z</time>
      </trkpt>
      <trkpt lat="45.95336" lon="-0.98575">
        <ele>3.6</ele>
        <time>2020-03-11T10:35:53Z</time>
      </trkpt>
      <trkpt lat="45.9532" lon="-0.98592">
        <ele>3.4</ele>
        <time>2020-03-11T10:35:53Z</time>
      </trkpt>
      <trkpt lat="45.95282" lon="-0.98591">
        <ele>3.6</ele>
        <time>2020-03-11T10:35:53Z</time>
      </trkpt>
      <trkpt lat="45.95172" lon="-0.98587">
        <ele>3.1</ele>
        <time>2020-03-11T10:35:53Z</time>
      </trkpt>
      <trkpt lat="45.95148" lon="-0.98588">
        <ele>3.7</ele>
        <time>2020-03-11T10:35:53Z</time>
      </trkpt>
      <trkpt lat="45.9511" lon="-0.98607">
        <ele>3.3</ele>
        <time>2020-03-11T10:35:53Z</time>
      </trkpt>
      <trkpt lat="45.95055" lon="-0.98644">
        <ele>3.8</ele>
        <time>2020-03-11T10:35:53Z</time>
      </trkpt>
      <trkpt lat="45.94984" lon="-0.9869">
        <ele>4.6</ele>
        <time>2020-03-11T10:35:53Z</time>
      </trkpt>
      <trkpt lat="45.94944" lon="-0.98713">
        <ele>5</ele>
        <time>2020-03-11T10:35:53Z</time>
      </trkpt>
      <trkpt lat="45.94852" lon="-0.98767">
        <ele>4.3</ele>
        <time>2020-03-11T10:35:53Z</time>
      </trkpt>
      <trkpt lat="45.94805" lon="-0.98795">
        <ele>4.4</ele>
        <time>2020-03-11T10:35:53Z</time>
      </trkpt>
      <trkpt lat="45.94773" lon="-0.98813">
        <ele>4.1</ele>
        <time>2020-03-11T10:35:53Z</time>
      </trkpt>
      <trkpt lat="45.94755" lon="-0.98822">
        <ele>4.3</ele>
        <time>2020-03-11T10:35:53Z</time>
      </trkpt>
      <trkpt lat="45.94769" lon="-0.98866">
        <ele>4</ele>
        <time>2020-03-11T10:35:53Z</time>
      </trkpt>
      <trkpt lat="45.94783" lon="-0.98893">
        <ele>4</ele>
        <time>2020-03-11T10:35:53Z</time>
      </trkpt>
      <trkpt lat="45.94801" lon="-0.98941">
        <ele>4</ele>
        <time>2020-03-11T10:35:53Z</time>
      </trkpt>
      <trkpt lat="45.94814" lon="-0.98981">
        <ele>4.5</ele>
        <time>2020-03-11T10:35:53Z</time>
      </trkpt>
      <trkpt lat="45.94853" lon="-0.99085">
        <ele>6</ele>
        <time>2020-03-11T10:35:53Z</time>
      </trkpt>
      <trkpt lat="45.94864" lon="-0.99113">
        <ele>5.9</ele>
        <time>2020-03-11T10:35:53Z</time>
      </trkpt>
      <trkpt lat="45.94898" lon="-0.99207">
        <ele>5</ele>
        <time>2020-03-11T10:35:53Z</time>
      </trkpt>
      <trkpt lat="45.94924" lon="-0.9928">
        <ele>4.7</ele>
        <time>2020-03-11T10:35:53Z</time>
      </trkpt>
      <trkpt lat="45.9494" lon="-0.99322">
        <ele>4.2</ele>
        <time>2020-03-11T10:35:53Z</time>
      </trkpt>
      <trkpt lat="45.94957" lon="-0.99369">
        <ele>4</ele>
        <time>2020-03-11T10:35:53Z</time>
      </trkpt>
      <trkpt lat="45.94968" lon="-0.99399">
        <ele>4</ele>
        <time>2020-03-11T10:35:53Z</time>
      </trkpt>
      <trkpt lat="45.94996" lon="-0.9948">
        <ele>4</ele>
        <time>2020-03-11T10:35:53Z</time>
      </trkpt>
      <trkpt lat="45.95012" lon="-0.99577">
        <ele>3.7</ele>
        <time>2020-03-11T10:35:53Z</time>
      </trkpt>
      <trkpt lat="45.94961" lon="-0.99605">
        <ele>2.8</ele>
        <time>2020-03-11T10:35:53Z</time>
      </trkpt>
      <trkpt lat="45.94921" lon="-0.99623">
        <ele>3.1</ele>
        <time>2020-03-11T10:35:53Z</time>
      </trkpt>
      <trkpt lat="45.94884" lon="-0.9964">
        <ele>3.1</ele>
        <time>2020-03-11T10:35:53Z</time>
      </trkpt>
      <trkpt lat="45.94821" lon="-0.99676">
        <ele>3</ele>
        <time>2020-03-11T10:35:53Z</time>
      </trkpt>
      <trkpt lat="45.94766" lon="-0.99708">
        <ele>3.5</ele>
        <time>2020-03-11T10:35:53Z</time>
      </trkpt>
      <trkpt lat="45.94735" lon="-0.99728">
        <ele>3</ele>
        <time>2020-03-11T10:35:53Z</time>
      </trkpt>
      <trkpt lat="45.94697" lon="-0.99759">
        <ele>2.8</ele>
        <time>2020-03-11T10:35:53Z</time>
      </trkpt>
      <trkpt lat="45.94658" lon="-0.99784">
        <ele>2.8</ele>
        <time>2020-03-11T10:35:53Z</time>
      </trkpt>
      <trkpt lat="45.94639" lon="-0.99795">
        <ele>2.1</ele>
        <time>2020-03-11T10:35:53Z</time>
      </trkpt>
      <trkpt lat="45.94622" lon="-0.99783">
        <ele>2.4</ele>
        <time>2020-03-11T10:35:53Z</time>
      </trkpt>
      <trkpt lat="45.94607" lon="-0.99759">
        <ele>3.4</ele>
        <time>2020-03-11T10:35:53Z</time>
      </trkpt>
      <trkpt lat="45.94588" lon="-0.99752">
        <ele>4</ele>
        <time>2020-03-11T10:35:53Z</time>
      </trkpt>
      <trkpt lat="45.94571" lon="-0.99762">
        <ele>3.6</ele>
        <time>2020-03-11T10:35:53Z</time>
      </trkpt>
      <trkpt lat="45.94535" lon="-0.998">
        <ele>3.2</ele>
        <time>2020-03-11T10:35:53Z</time>
      </trkpt>
      <trkpt lat="45.94416" lon="-0.99927">
        <ele>3.4</ele>
        <time>2020-03-11T10:35:53Z</time>
      </trkpt>
      <trkpt lat="45.94357" lon="-0.99992">
        <ele>3.6</ele>
        <time>2020-03-11T10:35:53Z</time>
      </trkpt>
      <trkpt lat="45.94299" lon="-1.00061">
        <ele>3.1</ele>
        <time>2020-03-11T10:35:53Z</time>
      </trkpt>
      <trkpt lat="45.94196" lon="-1.00179">
        <ele>3.1</ele>
        <time>2020-03-11T10:35:53Z</time>
      </trkpt>
      <trkpt lat="45.94093" lon="-1.00298">
        <ele>3.9</ele>
        <time>2020-03-11T10:35:53Z</time>
      </trkpt>
      <trkpt lat="45.94027" lon="-1.00368">
        <ele>3.2</ele>
        <time>2020-03-11T10:35:53Z</time>
      </trkpt>
      <trkpt lat="45.93983" lon="-1.00414">
        <ele>3.4</ele>
        <time>2020-03-11T10:35:53Z</time>
      </trkpt>
      <trkpt lat="45.9397" lon="-1.00445">
        <ele>3</ele>
        <time>2020-03-11T10:35:53Z</time>
      </trkpt>
      <trkpt lat="45.93912" lon="-1.00502">
        <ele>3</ele>
        <time>2020-03-11T10:35:53Z</time>
      </trkpt>
      <trkpt lat="45.93869" lon="-1.00536">
        <ele>3.2</ele>
        <time>2020-03-11T10:35:53Z</time>
      </trkpt>
      <trkpt lat="45.93844" lon="-1.00557">
        <ele>3</ele>
        <time>2020-03-11T10:35:53Z</time>
      </trkpt>
      <trkpt lat="45.93825" lon="-1.00569">
        <ele>3.3</ele>
        <time>2020-03-11T10:35:53Z</time>
      </trkpt>
      <trkpt lat="45.93797" lon="-1.00584">
        <ele>3.7</ele>
        <time>2020-03-11T10:35:53Z</time>
      </trkpt>
      <trkpt lat="45.9376" lon="-1.00603">
        <ele>3.6</ele>
        <time>2020-03-11T10:35:53Z</time>
      </trkpt>
      <trkpt lat="45.93728" lon="-1.00618">
        <ele>3.2</ele>
        <time>2020-03-11T10:35:53Z</time>
      </trkpt>
      <trkpt lat="45.9371" lon="-1.00626">
        <ele>3</ele>
        <time>2020-03-11T10:35:53Z</time>
      </trkpt>
      <trkpt lat="45.93649" lon="-1.00645">
        <ele>2.8</ele>
        <time>2020-03-11T10:35:53Z</time>
      </trkpt>
      <trkpt lat="45.93623" lon="-1.00653">
        <ele>2.8</ele>
        <time>2020-03-11T10:35:53Z</time>
      </trkpt>
      <trkpt lat="45.93603" lon="-1.00655">
        <ele>3</ele>
        <time>2020-03-11T10:35:53Z</time>
      </trkpt>
      <trkpt lat="45.93553" lon="-1.00654">
        <ele>3</ele>
        <time>2020-03-11T10:35:53Z</time>
      </trkpt>
      <trkpt lat="45.93518" lon="-1.00651">
        <ele>2.4</ele>
        <time>2020-03-11T10:35:53Z</time>
      </trkpt>
      <trkpt lat="45.93484" lon="-1.00646">
        <ele>2.7</ele>
        <time>2020-03-11T10:35:53Z</time>
      </trkpt>
      <trkpt lat="45.9345" lon="-1.00638">
        <ele>3</ele>
        <time>2020-03-11T10:35:53Z</time>
      </trkpt>
      <trkpt lat="45.93421" lon="-1.00629">
        <ele>3.1</ele>
        <time>2020-03-11T10:35:53Z</time>
      </trkpt>
      <trkpt lat="45.93383" lon="-1.00614">
        <ele>3</ele>
        <time>2020-03-11T10:35:53Z</time>
      </trkpt>
      <trkpt lat="45.93365" lon="-1.00603">
        <ele>3</ele>
        <time>2020-03-11T10:35:53Z</time>
      </trkpt>
      <trkpt lat="45.93341" lon="-1.00583">
        <ele>3</ele>
        <time>2020-03-11T10:35:53Z</time>
      </trkpt>
      <trkpt lat="45.93302" lon="-1.00545">
        <ele>3</ele>
        <time>2020-03-11T10:35:53Z</time>
      </trkpt>
      <trkpt lat="45.93271" lon="-1.00516">
        <ele>3</ele>
        <time>2020-03-11T10:35:53Z</time>
      </trkpt>
      <trkpt lat="45.93246" lon="-1.00497">
        <ele>3.1</ele>
        <time>2020-03-11T10:35:53Z</time>
      </trkpt>
      <trkpt lat="45.93219" lon="-1.00477">
        <ele>3</ele>
        <time>2020-03-11T10:35:53Z</time>
      </trkpt>
      <trkpt lat="45.93178" lon="-1.00449">
        <ele>3</ele>
        <time>2020-03-11T10:35:53Z</time>
      </trkpt>
      <trkpt lat="45.93152" lon="-1.00445">
        <ele>3</ele>
        <time>2020-03-11T10:35:53Z</time>
      </trkpt>
      <trkpt lat="45.93123" lon="-1.00423">
        <ele>3</ele>
        <time>2020-03-11T10:35:53Z</time>
      </trkpt>
      <trkpt lat="45.93082" lon="-1.0032">
        <ele>3</ele>
        <time>2020-03-11T10:35:53Z</time>
      </trkpt>
      <trkpt lat="45.93048" lon="-1.00236">
        <ele>3.1</ele>
        <time>2020-03-11T10:35:53Z</time>
      </trkpt>
      <trkpt lat="45.93017" lon="-1.00146">
        <ele>3</ele>
        <time>2020-03-11T10:35:53Z</time>
      </trkpt>
      <trkpt lat="45.92995" lon="-1.00077">
        <ele>3</ele>
        <time>2020-03-11T10:35:53Z</time>
      </trkpt>
      <trkpt lat="45.92972" lon="-0.99995">
        <ele>3</ele>
        <time>2020-03-11T10:35:53Z</time>
      </trkpt>
      <trkpt lat="45.92946" lon="-0.9991">
        <ele>3</ele>
        <time>2020-03-11T10:35:53Z</time>
      </trkpt>
      <trkpt lat="45.92931" lon="-0.99864">
        <ele>3</ele>
        <time>2020-03-11T10:35:53Z</time>
      </trkpt>
      <trkpt lat="45.92919" lon="-0.99829">
        <ele>3</ele>
        <time>2020-03-11T10:35:53Z</time>
      </trkpt>
      <trkpt lat="45.92883" lon="-0.99731">
        <ele>3</ele>
        <time>2020-03-11T10:35:53Z</time>
      </trkpt>
      <trkpt lat="45.92842" lon="-0.99643">
        <ele>3</ele>
        <time>2020-03-11T10:35:53Z</time>
      </trkpt>
      <trkpt lat="45.92797" lon="-0.99548">
        <ele>3.3</ele>
        <time>2020-03-11T10:35:53Z</time>
      </trkpt>
      <trkpt lat="45.92754" lon="-0.99475">
        <ele>3.9</ele>
        <time>2020-03-11T10:35:53Z</time>
      </trkpt>
      <trkpt lat="45.92698" lon="-0.99386">
        <ele>3.8</ele>
        <time>2020-03-11T10:35:53Z</time>
      </trkpt>
      <trkpt lat="45.92657" lon="-0.99324">
        <ele>3.1</ele>
        <time>2020-03-11T10:35:53Z</time>
      </trkpt>
      <trkpt lat="45.92598" lon="-0.99234">
        <ele>3.3</ele>
        <time>2020-03-11T10:35:53Z</time>
      </trkpt>
      <trkpt lat="45.92562" lon="-0.99187">
        <ele>3</ele>
        <time>2020-03-11T10:35:53Z</time>
      </trkpt>
      <trkpt lat="45.9248" lon="-0.99092">
        <ele>3</ele>
        <time>2020-03-11T10:35:53Z</time>
      </trkpt>
      <trkpt lat="45.9242" lon="-0.99022">
        <ele>3</ele>
        <time>2020-03-11T10:35:53Z</time>
      </trkpt>
      <trkpt lat="45.92372" lon="-0.98971">
        <ele>3.6</ele>
        <time>2020-03-11T10:35:53Z</time>
      </trkpt>
      <trkpt lat="45.92327" lon="-0.98924">
        <ele>3.2</ele>
        <time>2020-03-11T10:35:53Z</time>
      </trkpt>
      <trkpt lat="45.92295" lon="-0.98889">
        <ele>3.4</ele>
        <time>2020-03-11T10:35:53Z</time>
      </trkpt>
      <trkpt lat="45.92269" lon="-0.98853">
        <ele>3.2</ele>
        <time>2020-03-11T10:35:53Z</time>
      </trkpt>
      <trkpt lat="45.92242" lon="-0.98807">
        <ele>3</ele>
        <time>2020-03-11T10:35:53Z</time>
      </trkpt>
      <trkpt lat="45.92213" lon="-0.98759">
        <ele>3.2</ele>
        <time>2020-03-11T10:35:53Z</time>
      </trkpt>
      <trkpt lat="45.92187" lon="-0.98704">
        <ele>3</ele>
        <time>2020-03-11T10:35:53Z</time>
      </trkpt>
      <trkpt lat="45.92166" lon="-0.98644">
        <ele>3</ele>
        <time>2020-03-11T10:35:53Z</time>
      </trkpt>
      <trkpt lat="45.92145" lon="-0.98584">
        <ele>3</ele>
        <time>2020-03-11T10:35:53Z</time>
      </trkpt>
      <trkpt lat="45.92129" lon="-0.98521">
        <ele>3.3</ele>
        <time>2020-03-11T10:35:53Z</time>
      </trkpt>
      <trkpt lat="45.92121" lon="-0.9847">
        <ele>3</ele>
        <time>2020-03-11T10:35:53Z</time>
      </trkpt>
      <trkpt lat="45.9211" lon="-0.98374">
        <ele>4</ele>
        <time>2020-03-11T10:35:53Z</time>
      </trkpt>
      <trkpt lat="45.921" lon="-0.98262">
        <ele>3.4</ele>
        <time>2020-03-11T10:35:53Z</time>
      </trkpt>
      <trkpt lat="45.92095" lon="-0.98184">
        <ele>3.4</ele>
        <time>2020-03-11T10:35:53Z</time>
      </trkpt>
      <trkpt lat="45.92091" lon="-0.98131">
        <ele>3</ele>
        <time>2020-03-11T10:35:53Z</time>
      </trkpt>
      <trkpt lat="45.92089" lon="-0.98058">
        <ele>3.8</ele>
        <time>2020-03-11T10:35:53Z</time>
      </trkpt>
      <trkpt lat="45.92092" lon="-0.98003">
        <ele>3</ele>
        <time>2020-03-11T10:35:53Z</time>
      </trkpt>
      <trkpt lat="45.92099" lon="-0.97962">
        <ele>3.4</ele>
        <time>2020-03-11T10:35:53Z</time>
      </trkpt>
      <trkpt lat="45.92108" lon="-0.97926">
        <ele>3.7</ele>
        <time>2020-03-11T10:35:53Z</time>
      </trkpt>
      <trkpt lat="45.92126" lon="-0.97872">
        <ele>3.3</ele>
        <time>2020-03-11T10:35:53Z</time>
      </trkpt>
      <trkpt lat="45.92154" lon="-0.9782">
        <ele>3.5</ele>
        <time>2020-03-11T10:35:53Z</time>
      </trkpt>
      <trkpt lat="45.9219" lon="-0.97774">
        <ele>3.7</ele>
        <time>2020-03-11T10:35:53Z</time>
      </trkpt>
      <trkpt lat="45.92385" lon="-0.97572">
        <ele>3.1</ele>
        <time>2020-03-11T10:35:53Z</time>
      </trkpt>
      <trkpt lat="45.9242" lon="-0.97537">
        <ele>3</ele>
        <time>2020-03-11T10:35:53Z</time>
      </trkpt>
      <trkpt lat="45.92417" lon="-0.97502">
        <ele>3</ele>
        <time>2020-03-11T10:35:53Z</time>
      </trkpt>
      <trkpt lat="45.9241" lon="-0.9747">
        <ele>3</ele>
        <time>2020-03-11T10:35:53Z</time>
      </trkpt>
      <trkpt lat="45.92388" lon="-0.9744">
        <ele>3</ele>
        <time>2020-03-11T10:35:53Z</time>
      </trkpt>
      <trkpt lat="45.92322" lon="-0.97371">
        <ele>3</ele>
        <time>2020-03-11T10:35:53Z</time>
      </trkpt>
      <trkpt lat="45.92302" lon="-0.97349">
        <ele>3</ele>
        <time>2020-03-11T10:35:53Z</time>
      </trkpt>
      <trkpt lat="45.92287" lon="-0.97333">
        <ele>3</ele>
        <time>2020-03-11T10:35:53Z</time>
      </trkpt>
      <trkpt lat="45.92271" lon="-0.97317">
        <ele>3.1</ele>
        <time>2020-03-11T10:35:53Z</time>
      </trkpt>
      <trkpt lat="45.92253" lon="-0.97301">
        <ele>3</ele>
        <time>2020-03-11T10:35:53Z</time>
      </trkpt>
      <trkpt lat="45.92234" lon="-0.97275">
        <ele>3</ele>
        <time>2020-03-11T10:35:53Z</time>
      </trkpt>
      <trkpt lat="45.92222" lon="-0.97253">
        <ele>3</ele>
        <time>2020-03-11T10:35:53Z</time>
      </trkpt>
      <trkpt lat="45.92195" lon="-0.9722">
        <ele>3</ele>
        <time>2020-03-11T10:35:53Z</time>
      </trkpt>
      <trkpt lat="45.9217" lon="-0.97202">
        <ele>3</ele>
        <time>2020-03-11T10:35:53Z</time>
      </trkpt>
      <trkpt lat="45.92144" lon="-0.9719">
        <ele>3.2</ele>
        <time>2020-03-11T10:35:53Z</time>
      </trkpt>
      <trkpt lat="45.92113" lon="-0.97183">
        <ele>3</ele>
        <time>2020-03-11T10:35:53Z</time>
      </trkpt>
      <trkpt lat="45.92078" lon="-0.97172">
        <ele>3</ele>
        <time>2020-03-11T10:35:53Z</time>
      </trkpt>
      <trkpt lat="45.92053" lon="-0.97153">
        <ele>3</ele>
        <time>2020-03-11T10:35:53Z</time>
      </trkpt>
      <trkpt lat="45.92038" lon="-0.97137">
        <ele>3</ele>
        <time>2020-03-11T10:35:53Z</time>
      </trkpt>
      <trkpt lat="45.9201" lon="-0.97096">
        <ele>3</ele>
        <time>2020-03-11T10:35:53Z</time>
      </trkpt>
      <trkpt lat="45.91994" lon="-0.97067">
        <ele>3</ele>
        <time>2020-03-11T10:35:53Z</time>
      </trkpt>
      <trkpt lat="45.91972" lon="-0.97013">
        <ele>4</ele>
        <time>2020-03-11T10:35:53Z</time>
      </trkpt>
      <trkpt lat="45.91965" lon="-0.96975">
        <ele>3.3</ele>
        <time>2020-03-11T10:35:53Z</time>
      </trkpt>
      <trkpt lat="45.9196" lon="-0.96945">
        <ele>4</ele>
        <time>2020-03-11T10:35:53Z</time>
      </trkpt>
      <trkpt lat="45.91953" lon="-0.9691">
        <ele>3.5</ele>
        <time>2020-03-11T10:35:53Z</time>
      </trkpt>
      <trkpt lat="45.91944" lon="-0.96869">
        <ele>3.3</ele>
        <time>2020-03-11T10:35:53Z</time>
      </trkpt>
      <trkpt lat="45.91936" lon="-0.96842">
        <ele>3</ele>
        <time>2020-03-11T10:35:53Z</time>
      </trkpt>
      <trkpt lat="45.91927" lon="-0.96818">
        <ele>3.2</ele>
        <time>2020-03-11T10:35:53Z</time>
      </trkpt>
      <trkpt lat="45.91915" lon="-0.96793">
        <ele>3</ele>
        <time>2020-03-11T10:35:53Z</time>
      </trkpt>
      <trkpt lat="45.91914" lon="-0.96759">
        <ele>3.6</ele>
        <time>2020-03-11T10:35:53Z</time>
      </trkpt>
      <trkpt lat="45.91921" lon="-0.96674">
        <ele>3</ele>
        <time>2020-03-11T10:35:53Z</time>
      </trkpt>
      <trkpt lat="45.91924" lon="-0.96633">
        <ele>3.2</ele>
        <time>2020-03-11T10:35:53Z</time>
      </trkpt>
      <trkpt lat="45.91926" lon="-0.9659">
        <ele>4</ele>
        <time>2020-03-11T10:35:53Z</time>
      </trkpt>
      <trkpt lat="45.91931" lon="-0.96559">
        <ele>3.6</ele>
        <time>2020-03-11T10:35:53Z</time>
      </trkpt>
      <trkpt lat="45.91933" lon="-0.96522">
        <ele>3.6</ele>
        <time>2020-03-11T10:35:53Z</time>
      </trkpt>
      <trkpt lat="45.91921" lon="-0.96491">
        <ele>3.4</ele>
        <time>2020-03-11T10:35:53Z</time>
      </trkpt>
      <trkpt lat="45.91884" lon="-0.9646">
        <ele>3.4</ele>
        <time>2020-03-11T10:35:53Z</time>
      </trkpt>
      <trkpt lat="45.91863" lon="-0.96448">
        <ele>3.9</ele>
        <time>2020-03-11T10:35:53Z</time>
      </trkpt>
      <trkpt lat="45.91835" lon="-0.96433">
        <ele>3.4</ele>
        <time>2020-03-11T10:35:53Z</time>
      </trkpt>
      <trkpt lat="45.91814" lon="-0.96429">
        <ele>3.6</ele>
        <time>2020-03-11T10:35:53Z</time>
      </trkpt>
      <trkpt lat="45.9177" lon="-0.96417">
        <ele>4</ele>
        <time>2020-03-11T10:35:53Z</time>
      </trkpt>
      <trkpt lat="45.91763" lon="-0.96387">
        <ele>4</ele>
        <time>2020-03-11T10:35:53Z</time>
      </trkpt>
      <trkpt lat="45.91773" lon="-0.96228">
        <ele>3.1</ele>
        <time>2020-03-11T10:35:53Z</time>
      </trkpt>
      <trkpt lat="45.91778" lon="-0.96187">
        <ele>3.3</ele>
        <time>2020-03-11T10:35:53Z</time>
      </trkpt>
      <trkpt lat="45.91785" lon="-0.96156">
        <ele>3.5</ele>
        <time>2020-03-11T10:35:53Z</time>
      </trkpt>
      <trkpt lat="45.91753" lon="-0.96155">
        <ele>3.1</ele>
        <time>2020-03-11T10:35:53Z</time>
      </trkpt>
      <trkpt lat="45.91734" lon="-0.96156">
        <ele>3</ele>
        <time>2020-03-11T10:35:53Z</time>
      </trkpt>
      <trkpt lat="45.91716" lon="-0.96155">
        <ele>2.9</ele>
        <time>2020-03-11T10:35:53Z</time>
      </trkpt>
      <trkpt lat="45.91704" lon="-0.96126">
        <ele>2.8</ele>
        <time>2020-03-11T10:35:53Z</time>
      </trkpt>
      <trkpt lat="45.91692" lon="-0.96099">
        <ele>4.3</ele>
        <time>2020-03-11T10:35:53Z</time>
      </trkpt>
      <trkpt lat="45.91705" lon="-0.96077">
        <ele>4.5</ele>
        <time>2020-03-11T10:35:53Z</time>
      </trkpt>
      <trkpt lat="45.91717" lon="-0.9605">
        <ele>4</ele>
        <time>2020-03-11T10:35:53Z</time>
      </trkpt>
      <trkpt lat="45.91724" lon="-0.96026">
        <ele>3.8</ele>
        <time>2020-03-11T10:35:53Z</time>
      </trkpt>
      <trkpt lat="45.91728" lon="-0.95999">
        <ele>1.5</ele>
        <time>2020-03-11T10:35:53Z</time>
      </trkpt>
      <trkpt lat="45.91746" lon="-0.95992">
        <ele>2.8</ele>
        <time>2020-03-11T10:35:53Z</time>
      </trkpt>
      <trkpt lat="45.91774" lon="-0.95986">
        <ele>3.4</ele>
        <time>2020-03-11T10:35:53Z</time>
      </trkpt>
      <trkpt lat="45.91785" lon="-0.95953">
        <ele>3.7</ele>
        <time>2020-03-11T10:35:53Z</time>
      </trkpt>
      <trkpt lat="45.91787" lon="-0.95912">
        <ele>4</ele>
        <time>2020-03-11T10:35:53Z</time>
      </trkpt>
      <trkpt lat="45.91794" lon="-0.9585">
        <ele>3</ele>
        <time>2020-03-11T10:35:53Z</time>
      </trkpt>
      <trkpt lat="45.91802" lon="-0.95788">
        <ele>3</ele>
        <time>2020-03-11T10:35:53Z</time>
      </trkpt>
      <trkpt lat="45.91807" lon="-0.95763">
        <ele>3.5</ele>
        <time>2020-03-11T10:35:53Z</time>
      </trkpt>
      <trkpt lat="45.91826" lon="-0.95698">
        <ele>3</ele>
        <time>2020-03-11T10:35:53Z</time>
      </trkpt>
      <trkpt lat="45.91837" lon="-0.95667">
        <ele>4</ele>
        <time>2020-03-11T10:35:53Z</time>
      </trkpt>
      <trkpt lat="45.91862" lon="-0.95607">
        <ele>4</ele>
        <time>2020-03-11T10:35:53Z</time>
      </trkpt>
      <trkpt lat="45.91882" lon="-0.95566">
        <ele>3.8</ele>
        <time>2020-03-11T10:35:53Z</time>
      </trkpt>
      <trkpt lat="45.91909" lon="-0.95514">
        <ele>3.5</ele>
        <time>2020-03-11T10:35:53Z</time>
      </trkpt>
      <trkpt lat="45.91939" lon="-0.95473">
        <ele>3.2</ele>
        <time>2020-03-11T10:35:53Z</time>
      </trkpt>
      <trkpt lat="45.91972" lon="-0.95433">
        <ele>3.4</ele>
        <time>2020-03-11T10:35:53Z</time>
      </trkpt>
      <trkpt lat="45.92003" lon="-0.95398">
        <ele>3.6</ele>
        <time>2020-03-11T10:35:53Z</time>
      </trkpt>
      <trkpt lat="45.92074" lon="-0.95325">
        <ele>3.5</ele>
        <time>2020-03-11T10:35:53Z</time>
      </trkpt>
      <trkpt lat="45.92136" lon="-0.9526">
        <ele>3.1</ele>
        <time>2020-03-11T10:35:53Z</time>
      </trkpt>
      <trkpt lat="45.92185" lon="-0.95215">
        <ele>3.4</ele>
        <time>2020-03-11T10:35:53Z</time>
      </trkpt>
      <trkpt lat="45.92215" lon="-0.95192">
        <ele>3.3</ele>
        <time>2020-03-11T10:35:53Z</time>
      </trkpt>
      <trkpt lat="45.92253" lon="-0.95164">
        <ele>3.9</ele>
        <time>2020-03-11T10:35:53Z</time>
      </trkpt>
      <trkpt lat="45.92298" lon="-0.95137">
        <ele>3.3</ele>
        <time>2020-03-11T10:35:53Z</time>
      </trkpt>
      <trkpt lat="45.92321" lon="-0.95124">
        <ele>3</ele>
        <time>2020-03-11T10:35:53Z</time>
      </trkpt>
      <trkpt lat="45.92327" lon="-0.95098">
        <ele>3.4</ele>
        <time>2020-03-11T10:35:53Z</time>
      </trkpt>
      <trkpt lat="45.92307" lon="-0.95034">
        <ele>3.3</ele>
        <time>2020-03-11T10:35:53Z</time>
      </trkpt>
      <trkpt lat="45.92354" lon="-0.94989">
        <ele>3.4</ele>
        <time>2020-03-11T10:35:53Z</time>
      </trkpt>
      <trkpt lat="45.92391" lon="-0.94966">
        <ele>3.1</ele>
        <time>2020-03-11T10:35:53Z</time>
      </trkpt>
      <trkpt lat="45.92428" lon="-0.94943">
        <ele>3.4</ele>
        <time>2020-03-11T10:35:53Z</time>
      </trkpt>
      <trkpt lat="45.92448" lon="-0.94932">
        <ele>3.6</ele>
        <time>2020-03-11T10:35:53Z</time>
      </trkpt>
      <trkpt lat="45.92466" lon="-0.94928">
        <ele>3.9</ele>
        <time>2020-03-11T10:35:53Z</time>
      </trkpt>
      <trkpt lat="45.92505" lon="-0.94929">
        <ele>4.4</ele>
        <time>2020-03-11T10:35:53Z</time>
      </trkpt>
      <trkpt lat="45.92551" lon="-0.94929">
        <ele>4</ele>
        <time>2020-03-11T10:35:53Z</time>
      </trkpt>
      <trkpt lat="45.92578" lon="-0.94932">
        <ele>4</ele>
        <time>2020-03-11T10:35:53Z</time>
      </trkpt>
      <trkpt lat="45.92612" lon="-0.94934">
        <ele>4</ele>
        <time>2020-03-11T10:35:53Z</time>
      </trkpt>
      <trkpt lat="45.92633" lon="-0.94933">
        <ele>4</ele>
        <time>2020-03-11T10:35:53Z</time>
      </trkpt>
      <trkpt lat="45.92658" lon="-0.94932">
        <ele>4</ele>
        <time>2020-03-11T10:35:53Z</time>
      </trkpt>
      <trkpt lat="45.92677" lon="-0.9494">
        <ele>3.9</ele>
        <time>2020-03-11T10:35:53Z</time>
      </trkpt>
      <trkpt lat="45.92699" lon="-0.94979">
        <ele>4</ele>
        <time>2020-03-11T10:35:53Z</time>
      </trkpt>
      <trkpt lat="45.92717" lon="-0.94993">
        <ele>4</ele>
        <time>2020-03-11T10:35:53Z</time>
      </trkpt>
      <trkpt lat="45.92735" lon="-0.95004">
        <ele>4</ele>
        <time>2020-03-11T10:35:53Z</time>
      </trkpt>
      <trkpt lat="45.92756" lon="-0.95003">
        <ele>4</ele>
        <time>2020-03-11T10:35:53Z</time>
      </trkpt>
      <trkpt lat="45.9278" lon="-0.95008">
        <ele>4</ele>
        <time>2020-03-11T10:35:53Z</time>
      </trkpt>
      <trkpt lat="45.92802" lon="-0.95021">
        <ele>4</ele>
        <time>2020-03-11T10:35:53Z</time>
      </trkpt>
      <trkpt lat="45.9282" lon="-0.95032">
        <ele>4</ele>
        <time>2020-03-11T10:35:53Z</time>
      </trkpt>
      <trkpt lat="45.92837" lon="-0.95042">
        <ele>3.9</ele>
        <time>2020-03-11T10:35:53Z</time>
      </trkpt>
      <trkpt lat="45.92854" lon="-0.95053">
        <ele>3.9</ele>
        <time>2020-03-11T10:35:53Z</time>
      </trkpt>
      <trkpt lat="45.9288" lon="-0.95068">
        <ele>3.6</ele>
        <time>2020-03-11T10:35:53Z</time>
      </trkpt>
      <trkpt lat="45.92899" lon="-0.9507">
        <ele>3.5</ele>
        <time>2020-03-11T10:35:53Z</time>
      </trkpt>
      <trkpt lat="45.92918" lon="-0.95061">
        <ele>3.2</ele>
        <time>2020-03-11T10:35:53Z</time>
      </trkpt>
      <trkpt lat="45.92972" lon="-0.951">
        <ele>3.2</ele>
        <time>2020-03-11T10:35:53Z</time>
      </trkpt>
      <trkpt lat="45.92999" lon="-0.95121">
        <ele>3.4</ele>
        <time>2020-03-11T10:35:53Z</time>
      </trkpt>
      <trkpt lat="45.93037" lon="-0.95148">
        <ele>3.1</ele>
        <time>2020-03-11T10:35:53Z</time>
      </trkpt>
      <trkpt lat="45.93053" lon="-0.95162">
        <ele>3.7</ele>
        <time>2020-03-11T10:35:53Z</time>
      </trkpt>
      <trkpt lat="45.93056" lon="-0.95188">
        <ele>4</ele>
        <time>2020-03-11T10:35:53Z</time>
      </trkpt>
      <trkpt lat="45.93071" lon="-0.95206">
        <ele>4</ele>
        <time>2020-03-11T10:35:53Z</time>
      </trkpt>
      <trkpt lat="45.93091" lon="-0.95223">
        <ele>4</ele>
        <time>2020-03-11T10:35:53Z</time>
      </trkpt>
      <trkpt lat="45.93117" lon="-0.95224">
        <ele>3.8</ele>
        <time>2020-03-11T10:35:53Z</time>
      </trkpt>
      <trkpt lat="45.9315" lon="-0.95249">
        <ele>3.6</ele>
        <time>2020-03-11T10:35:53Z</time>
      </trkpt>
      <trkpt lat="45.93175" lon="-0.95267">
        <ele>3.4</ele>
        <time>2020-03-11T10:35:53Z</time>
      </trkpt>
      <trkpt lat="45.932" lon="-0.95298">
        <ele>3.6</ele>
        <time>2020-03-11T10:35:53Z</time>
      </trkpt>
      <trkpt lat="45.93243" lon="-0.95338">
        <ele>3.4</ele>
        <time>2020-03-11T10:35:53Z</time>
      </trkpt>
      <trkpt lat="45.93286" lon="-0.95381">
        <ele>3.7</ele>
        <time>2020-03-11T10:35:53Z</time>
      </trkpt>
      <trkpt lat="45.93322" lon="-0.95412">
        <ele>3.8</ele>
        <time>2020-03-11T10:35:53Z</time>
      </trkpt>
      <trkpt lat="45.93368" lon="-0.95471">
        <ele>4</ele>
        <time>2020-03-11T10:35:53Z</time>
      </trkpt>
      <trkpt lat="45.93403" lon="-0.95471">
        <ele>2.98</ele>
        <time>2020-03-11T10:35:53Z</time>
      </trkpt>
      <trkpt lat="45.93442" lon="-0.95509">
        <ele>3.4</ele>
        <time>2020-03-11T10:35:53Z</time>
      </trkpt>
      <trkpt lat="45.93468" lon="-0.9552">
        <ele>3.2</ele>
        <time>2020-03-11T10:35:53Z</time>
      </trkpt>
      <trkpt lat="45.93495" lon="-0.95529">
        <ele>4</ele>
        <time>2020-03-11T10:35:53Z</time>
      </trkpt>
      <trkpt lat="45.9352" lon="-0.95532">
        <ele>4</ele>
        <time>2020-03-11T10:35:53Z</time>
      </trkpt>
      <trkpt lat="45.93537" lon="-0.95551">
        <ele>3.9</ele>
        <time>2020-03-11T10:35:53Z</time>
      </trkpt>
      <trkpt lat="45.93557" lon="-0.95558">
        <ele>4.1</ele>
        <time>2020-03-11T10:35:53Z</time>
      </trkpt>
      <trkpt lat="45.93578" lon="-0.95566">
        <ele>3.2</ele>
        <time>2020-03-11T10:35:53Z</time>
      </trkpt>
      <trkpt lat="45.93591" lon="-0.95602">
        <ele>2.3</ele>
        <time>2020-03-11T10:35:53Z</time>
      </trkpt>
      <trkpt lat="45.93615" lon="-0.95581">
        <ele>3.8</ele>
        <time>2020-03-11T10:35:53Z</time>
      </trkpt>
      <trkpt lat="45.93638" lon="-0.95562">
        <ele>3.2</ele>
        <time>2020-03-11T10:35:53Z</time>
      </trkpt>
      <trkpt lat="45.93649" lon="-0.95586">
        <ele>3.7</ele>
        <time>2020-03-11T10:35:53Z</time>
      </trkpt>
      <trkpt lat="45.93634" lon="-0.95618">
        <ele>4</ele>
        <time>2020-03-11T10:35:53Z</time>
      </trkpt>
      <trkpt lat="45.9365" lon="-0.95638">
        <ele>5.9</ele>
        <time>2020-03-11T10:35:53Z</time>
      </trkpt>
      <trkpt lat="45.9368" lon="-0.95595">
        <ele>3.9</ele>
        <time>2020-03-11T10:35:53Z</time>
      </trkpt>
      <trkpt lat="45.93704" lon="-0.95576">
        <ele>3.5</ele>
        <time>2020-03-11T10:35:53Z</time>
      </trkpt>
      <trkpt lat="45.9372" lon="-0.95552">
        <ele>3.7</ele>
        <time>2020-03-11T10:35:53Z</time>
      </trkpt>
      <trkpt lat="45.93737" lon="-0.95535">
        <ele>3.3</ele>
        <time>2020-03-11T10:35:53Z</time>
      </trkpt>
      <trkpt lat="45.93755" lon="-0.95526">
        <ele>3.1</ele>
        <time>2020-03-11T10:35:53Z</time>
      </trkpt>
      <trkpt lat="45.93774" lon="-0.95518">
        <ele>3.2</ele>
        <time>2020-03-11T10:35:53Z</time>
      </trkpt>
      <trkpt lat="45.93797" lon="-0.95514">
        <ele>3.4</ele>
        <time>2020-03-11T10:35:53Z</time>
      </trkpt>
      <trkpt lat="45.93822" lon="-0.95508">
        <ele>3.3</ele>
        <time>2020-03-11T10:35:53Z</time>
      </trkpt>
      <trkpt lat="45.93843" lon="-0.95496">
        <ele>3.35</ele>
        <time>2020-03-11T10:35:53Z</time>
      </trkpt>
      <trkpt lat="45.93866" lon="-0.95492">
        <ele>3.4</ele>
        <time>2020-03-11T10:35:53Z</time>
      </trkpt>
      <trkpt lat="45.93903" lon="-0.95486">
        <ele>3.2</ele>
        <time>2020-03-11T10:35:53Z</time>
      </trkpt>
      <trkpt lat="45.93927" lon="-0.95471">
        <ele>3.3</ele>
        <time>2020-03-11T10:35:53Z</time>
      </trkpt>
      <trkpt lat="45.93945" lon="-0.95464">
        <ele>3.1</ele>
        <time>2020-03-11T10:35:53Z</time>
      </trkpt>
      <trkpt lat="45.93966" lon="-0.95462">
        <ele>3.2</ele>
        <time>2020-03-11T10:35:53Z</time>
      </trkpt>
      <trkpt lat="45.94006" lon="-0.95443">
        <ele>3.22</ele>
        <time>2020-03-11T10:35:53Z</time>
      </trkpt>
      <trkpt lat="45.9403" lon="-0.95436">
        <ele>3.4</ele>
        <time>2020-03-11T10:35:53Z</time>
      </trkpt>
      <trkpt lat="45.94069" lon="-0.95424">
        <ele>2.7</ele>
        <time>2020-03-11T10:35:53Z</time>
      </trkpt>
      <trkpt lat="45.94087" lon="-0.95422">
        <ele>2.6</ele>
        <time>2020-03-11T10:35:53Z</time>
      </trkpt>
      <trkpt lat="45.94113" lon="-0.95422">
        <ele>4</ele>
        <time>2020-03-11T10:35:53Z</time>
      </trkpt>
      <trkpt lat="45.94148" lon="-0.95415">
        <ele>4</ele>
        <time>2020-03-11T10:35:53Z</time>
      </trkpt>
      <trkpt lat="45.94192" lon="-0.95405">
        <ele>4</ele>
        <time>2020-03-11T10:35:53Z</time>
      </trkpt>
      <trkpt lat="45.9421" lon="-0.95399">
        <ele>4</ele>
        <time>2020-03-11T10:35:53Z</time>
      </trkpt>
      <trkpt lat="45.94226" lon="-0.95419">
        <ele>4</ele>
        <time>2020-03-11T10:35:53Z</time>
      </trkpt>
      <trkpt lat="45.94231" lon="-0.9547">
        <ele>4</ele>
        <time>2020-03-11T10:35:53Z</time>
      </trkpt>
      <trkpt lat="45.94255" lon="-0.95468">
        <ele>4</ele>
        <time>2020-03-11T10:35:53Z</time>
      </trkpt>
      <trkpt lat="45.94261" lon="-0.95443">
        <ele>4</ele>
        <time>2020-03-11T10:35:53Z</time>
      </trkpt>
      <trkpt lat="45.94263" lon="-0.95415">
        <ele>3.9</ele>
        <time>2020-03-11T10:35:53Z</time>
      </trkpt>
      <trkpt lat="45.94292" lon="-0.95394">
        <ele>3.6</ele>
        <time>2020-03-11T10:35:53Z</time>
      </trkpt>
      <trkpt lat="45.9434" lon="-0.95388">
        <ele>4</ele>
        <time>2020-03-11T10:35:53Z</time>
      </trkpt>
      <trkpt lat="45.94377" lon="-0.95384">
        <ele>4</ele>
        <time>2020-03-11T10:35:53Z</time>
      </trkpt>
      <trkpt lat="45.94396" lon="-0.95386">
        <ele>4</ele>
        <time>2020-03-11T10:35:53Z</time>
      </trkpt>
      <trkpt lat="45.94415" lon="-0.95388">
        <ele>4</ele>
        <time>2020-03-11T10:35:53Z</time>
      </trkpt>
      <trkpt lat="45.94436" lon="-0.95384">
        <ele>4</ele>
        <time>2020-03-11T10:35:53Z</time>
      </trkpt>
      <trkpt lat="45.94451" lon="-0.95399">
        <ele>3.8</ele>
        <time>2020-03-11T10:35:53Z</time>
      </trkpt>
      <trkpt lat="45.94474" lon="-0.95393">
        <ele>3.7</ele>
        <time>2020-03-11T10:35:53Z</time>
      </trkpt>
      <trkpt lat="45.94491" lon="-0.95382">
        <ele>4</ele>
        <time>2020-03-11T10:35:53Z</time>
      </trkpt>
      <trkpt lat="45.94504" lon="-0.95404">
        <ele>3.9</ele>
        <time>2020-03-11T10:35:53Z</time>
      </trkpt>
      <trkpt lat="45.94521" lon="-0.95413">
        <ele>3.9</ele>
        <time>2020-03-11T10:35:53Z</time>
      </trkpt>
      <trkpt lat="45.94537" lon="-0.95391">
        <ele>4.1</ele>
        <time>2020-03-11T10:35:53Z</time>
      </trkpt>
      <trkpt lat="45.94549" lon="-0.95371">
        <ele>4.5</ele>
        <time>2020-03-11T10:35:53Z</time>
      </trkpt>
      <trkpt lat="45.94571" lon="-0.9535">
        <ele>3.44</ele>
        <time>2020-03-11T10:35:53Z</time>
      </trkpt>
      <trkpt lat="45.94589" lon="-0.95352">
        <ele>3.2</ele>
        <time>2020-03-11T10:35:53Z</time>
      </trkpt>
      <trkpt lat="45.94596" lon="-0.95378">
        <ele>3.5</ele>
        <time>2020-03-11T10:35:53Z</time>
      </trkpt>
      <trkpt lat="45.94616" lon="-0.95403">
        <ele>4</ele>
        <time>2020-03-11T10:35:53Z</time>
      </trkpt>
      <trkpt lat="45.94641" lon="-0.95423">
        <ele>4</ele>
        <time>2020-03-11T10:35:53Z</time>
      </trkpt>
      <trkpt lat="45.94677" lon="-0.95368">
        <ele>3.5</ele>
        <time>2020-03-11T10:35:53Z</time>
      </trkpt>
      <trkpt lat="45.94699" lon="-0.95322">
        <ele>3.9</ele>
        <time>2020-03-11T10:35:53Z</time>
      </trkpt>
      <trkpt lat="45.94716" lon="-0.95284">
        <ele>3.1</ele>
        <time>2020-03-11T10:35:53Z</time>
      </trkpt>
      <trkpt lat="45.94733" lon="-0.95252">
        <ele>3.6</ele>
        <time>2020-03-11T10:35:53Z</time>
      </trkpt>
      <trkpt lat="45.94746" lon="-0.95212">
        <ele>2.8</ele>
        <time>2020-03-11T10:35:53Z</time>
      </trkpt>
      <trkpt lat="45.94759" lon="-0.95185">
        <ele>2.5</ele>
        <time>2020-03-11T10:35:53Z</time>
      </trkpt>
      <trkpt lat="45.94779" lon="-0.95156">
        <ele>2.6</ele>
        <time>2020-03-11T10:35:53Z</time>
      </trkpt>
      <trkpt lat="45.94796" lon="-0.95127">
        <ele>2.8</ele>
        <time>2020-03-11T10:35:53Z</time>
      </trkpt>
      <trkpt lat="45.9482" lon="-0.95085">
        <ele>2.6</ele>
        <time>2020-03-11T10:35:53Z</time>
      </trkpt>
      <trkpt lat="45.94847" lon="-0.95035">
        <ele>2.2</ele>
        <time>2020-03-11T10:35:53Z</time>
      </trkpt>
      <trkpt lat="45.9486" lon="-0.95006">
        <ele>3</ele>
        <time>2020-03-11T10:35:53Z</time>
      </trkpt>
      <trkpt lat="45.94889" lon="-0.94931">
        <ele>3</ele>
        <time>2020-03-11T10:35:53Z</time>
      </trkpt>
      <trkpt lat="45.94904" lon="-0.94897">
        <ele>3.2</ele>
        <time>2020-03-11T10:35:53Z</time>
      </trkpt>
      <trkpt lat="45.94928" lon="-0.94828">
        <ele>3.2</ele>
        <time>2020-03-11T10:35:53Z</time>
      </trkpt>
      <trkpt lat="45.94935" lon="-0.94796">
        <ele>3</ele>
        <time>2020-03-11T10:35:53Z</time>
      </trkpt>
      <trkpt lat="45.94942" lon="-0.94761">
        <ele>3.6</ele>
        <time>2020-03-11T10:35:53Z</time>
      </trkpt>
      <trkpt lat="45.94968" lon="-0.9467">
        <ele>3.9</ele>
        <time>2020-03-11T10:35:53Z</time>
      </trkpt>
      <trkpt lat="45.94974" lon="-0.94639">
        <ele>3.1</ele>
        <time>2020-03-11T10:35:53Z</time>
      </trkpt>
      <trkpt lat="45.9498" lon="-0.94588">
        <ele>3.2</ele>
        <time>2020-03-11T10:35:53Z</time>
      </trkpt>
      <trkpt lat="45.94985" lon="-0.94523">
        <ele>3.5</ele>
        <time>2020-03-11T10:35:53Z</time>
      </trkpt>
      <trkpt lat="45.94984" lon="-0.94476">
        <ele>3.9</ele>
        <time>2020-03-11T10:35:53Z</time>
      </trkpt>
      <trkpt lat="45.94982" lon="-0.94437">
        <ele>3.7</ele>
        <time>2020-03-11T10:35:53Z</time>
      </trkpt>
      <trkpt lat="45.94978" lon="-0.94385">
        <ele>3.3</ele>
        <time>2020-03-11T10:35:53Z</time>
      </trkpt>
      <trkpt lat="45.95035" lon="-0.94395">
        <ele>4</ele>
        <time>2020-03-11T10:35:53Z</time>
      </trkpt>
      <trkpt lat="45.95036" lon="-0.94365">
        <ele>4</ele>
        <time>2020-03-11T10:35:53Z</time>
      </trkpt>
      <trkpt lat="45.95036" lon="-0.94335">
        <ele>4</ele>
        <time>2020-03-11T10:35:53Z</time>
      </trkpt>
      <trkpt lat="45.95039" lon="-0.9428">
        <ele>4</ele>
        <time>2020-03-11T10:35:53Z</time>
      </trkpt>
      <trkpt lat="45.95042" lon="-0.9419">
        <ele>4.1</ele>
        <time>2020-03-11T10:35:53Z</time>
      </trkpt>
      <trkpt lat="45.95043" lon="-0.94164">
        <ele>4.4</ele>
        <time>2020-03-11T10:35:53Z</time>
      </trkpt>
      <trkpt lat="45.95045" lon="-0.94126">
        <ele>4</ele>
        <time>2020-03-11T10:35:53Z</time>
      </trkpt>
      <trkpt lat="45.95045" lon="-0.94054">
        <ele>4.6</ele>
        <time>2020-03-11T10:35:53Z</time>
      </trkpt>
      <trkpt lat="45.95044" lon="-0.94014">
        <ele>4</ele>
        <time>2020-03-11T10:35:53Z</time>
      </trkpt>
      <trkpt lat="45.95043" lon="-0.9397">
        <ele>4</ele>
        <time>2020-03-11T10:35:53Z</time>
      </trkpt>
      <trkpt lat="45.95044" lon="-0.93926">
        <ele>3.6</ele>
        <time>2020-03-11T10:35:53Z</time>
      </trkpt>
      <trkpt lat="45.95044" lon="-0.93875">
        <ele>3.6</ele>
        <time>2020-03-11T10:35:53Z</time>
      </trkpt>
      <trkpt lat="45.95043" lon="-0.9384">
        <ele>3.9</ele>
        <time>2020-03-11T10:35:53Z</time>
      </trkpt>
      <trkpt lat="45.95045" lon="-0.93784">
        <ele>3.6</ele>
        <time>2020-03-11T10:35:53Z</time>
      </trkpt>
      <trkpt lat="45.95048" lon="-0.9375">
        <ele>3.7</ele>
        <time>2020-03-11T10:35:53Z</time>
      </trkpt>
      <trkpt lat="45.95049" lon="-0.93708">
        <ele>4.3</ele>
        <time>2020-03-11T10:35:53Z</time>
      </trkpt>
      <trkpt lat="45.9505" lon="-0.93664">
        <ele>4.8</ele>
        <time>2020-03-11T10:35:53Z</time>
      </trkpt>
      <trkpt lat="45.9505" lon="-0.93586">
        <ele>4</ele>
        <time>2020-03-11T10:35:53Z</time>
      </trkpt>
      <trkpt lat="45.9505" lon="-0.93559">
        <ele>4.2</ele>
        <time>2020-03-11T10:35:53Z</time>
      </trkpt>
      <trkpt lat="45.95051" lon="-0.93506">
        <ele>4.2</ele>
        <time>2020-03-11T10:35:53Z</time>
      </trkpt>
      <trkpt lat="45.95052" lon="-0.93462">
        <ele>4.1</ele>
        <time>2020-03-11T10:35:53Z</time>
      </trkpt>
      <trkpt lat="45.95051" lon="-0.93381">
        <ele>4.4</ele>
        <time>2020-03-11T10:35:53Z</time>
      </trkpt>
      <trkpt lat="45.95053" lon="-0.93351">
        <ele>5.4</ele>
        <time>2020-03-11T10:35:53Z</time>
      </trkpt>
      <trkpt lat="45.95054" lon="-0.93289">
        <ele>6.1</ele>
        <time>2020-03-11T10:35:53Z</time>
      </trkpt>
      <trkpt lat="45.95056" lon="-0.93258">
        <ele>6</ele>
        <time>2020-03-11T10:35:53Z</time>
      </trkpt>
      <trkpt lat="45.95055" lon="-0.93172">
        <ele>6</ele>
        <time>2020-03-11T10:35:53Z</time>
      </trkpt>
      <trkpt lat="45.95056" lon="-0.93115">
        <ele>6</ele>
        <time>2020-03-11T10:35:53Z</time>
      </trkpt>
      <trkpt lat="45.95057" lon="-0.93084">
        <ele>6</ele>
        <time>2020-03-11T10:35:53Z</time>
      </trkpt>
      <trkpt lat="45.95056" lon="-0.9305">
        <ele>6</ele>
        <time>2020-03-11T10:35:53Z</time>
      </trkpt>
      <trkpt lat="45.95048" lon="-0.93021">
        <ele>6</ele>
        <time>2020-03-11T10:35:53Z</time>
      </trkpt>
      <trkpt lat="45.95057" lon="-0.92978">
        <ele>5.2</ele>
        <time>2020-03-11T10:35:53Z</time>
      </trkpt>
      <trkpt lat="45.95057" lon="-0.92934">
        <ele>4.9</ele>
        <time>2020-03-11T10:35:53Z</time>
      </trkpt>
      <trkpt lat="45.95051" lon="-0.92873">
        <ele>4</ele>
        <time>2020-03-11T10:35:53Z</time>
      </trkpt>
      <trkpt lat="45.95039" lon="-0.928">
        <ele>4</ele>
        <time>2020-03-11T10:35:53Z</time>
      </trkpt>
      <trkpt lat="45.95033" lon="-0.9274">
        <ele>4</ele>
        <time>2020-03-11T10:35:53Z</time>
      </trkpt>
      <trkpt lat="45.95028" lon="-0.92714">
        <ele>4</ele>
        <time>2020-03-11T10:35:53Z</time>
      </trkpt>
      <trkpt lat="45.95016" lon="-0.92675">
        <ele>4</ele>
        <time>2020-03-11T10:35:53Z</time>
      </trkpt>
      <trkpt lat="45.95018" lon="-0.92646">
        <ele>4.5</ele>
        <time>2020-03-11T10:35:53Z</time>
      </trkpt>
      <trkpt lat="45.95012" lon="-0.9261">
        <ele>4.5</ele>
        <time>2020-03-11T10:35:53Z</time>
      </trkpt>
      <trkpt lat="45.94998" lon="-0.92521">
        <ele>5.2</ele>
        <time>2020-03-11T10:35:53Z</time>
      </trkpt>
      <trkpt lat="45.94991" lon="-0.92476">
        <ele>5.7</ele>
        <time>2020-03-11T10:35:53Z</time>
      </trkpt>
      <trkpt lat="45.94985" lon="-0.92436">
        <ele>6</ele>
        <time>2020-03-11T10:35:53Z</time>
      </trkpt>
      <trkpt lat="45.9497" lon="-0.92336">
        <ele>6</ele>
        <time>2020-03-11T10:35:53Z</time>
      </trkpt>
      <trkpt lat="45.94966" lon="-0.9231">
        <ele>6.7</ele>
        <time>2020-03-11T10:35:53Z</time>
      </trkpt>
      <trkpt lat="45.94962" lon="-0.92281">
        <ele>7</ele>
        <time>2020-03-11T10:35:53Z</time>
      </trkpt>
      <trkpt lat="45.94937" lon="-0.92117">
        <ele>8.2</ele>
        <time>2020-03-11T10:35:53Z</time>
      </trkpt>
      <trkpt lat="45.94924" lon="-0.92054">
        <ele>9.8</ele>
        <time>2020-03-11T10:35:53Z</time>
      </trkpt>
      <trkpt lat="45.94912" lon="-0.91968">
        <ele>12.4</ele>
        <time>2020-03-11T10:35:53Z</time>
      </trkpt>
      <trkpt lat="45.94898" lon="-0.91875">
        <ele>14.7</ele>
        <time>2020-03-11T10:35:53Z</time>
      </trkpt>
      <trkpt lat="45.94891" lon="-0.91839">
        <ele>15.7</ele>
        <time>2020-03-11T10:35:53Z</time>
      </trkpt>
      <trkpt lat="45.94874" lon="-0.91729">
        <ele>18.4</ele>
        <time>2020-03-11T10:35:53Z</time>
      </trkpt>
      <trkpt lat="45.94866" lon="-0.91657">
        <ele>20.3</ele>
        <time>2020-03-11T10:35:53Z</time>
      </trkpt>
      <trkpt lat="45.94858" lon="-0.9162">
        <ele>21.1</ele>
        <time>2020-03-11T10:35:53Z</time>
      </trkpt>
      <trkpt lat="45.94852" lon="-0.9158">
        <ele>22</ele>
        <time>2020-03-11T10:35:53Z</time>
      </trkpt>
      <trkpt lat="45.94844" lon="-0.91523">
        <ele>22.7</ele>
        <time>2020-03-11T10:35:53Z</time>
      </trkpt>
      <trkpt lat="45.94834" lon="-0.91456">
        <ele>23</ele>
        <time>2020-03-11T10:35:53Z</time>
      </trkpt>
      <trkpt lat="45.94829" lon="-0.91427">
        <ele>23</ele>
        <time>2020-03-11T10:35:53Z</time>
      </trkpt>
      <trkpt lat="45.94824" lon="-0.91396">
        <ele>23.7</ele>
        <time>2020-03-11T10:35:53Z</time>
      </trkpt>
      <trkpt lat="45.94819" lon="-0.91361">
        <ele>24</ele>
        <time>2020-03-11T10:35:53Z</time>
      </trkpt>
      <trkpt lat="45.94808" lon="-0.91297">
        <ele>24.3</ele>
        <time>2020-03-11T10:35:53Z</time>
      </trkpt>
      <trkpt lat="45.94798" lon="-0.91231">
        <ele>25</ele>
        <time>2020-03-11T10:35:53Z</time>
      </trkpt>
      <trkpt lat="45.94786" lon="-0.91158">
        <ele>25</ele>
        <time>2020-03-11T10:35:53Z</time>
      </trkpt>
      <trkpt lat="45.9477" lon="-0.91055">
        <ele>25</ele>
        <time>2020-03-11T10:35:53Z</time>
      </trkpt>
      <trkpt lat="45.94764" lon="-0.91019">
        <ele>25.3</ele>
        <time>2020-03-11T10:35:53Z</time>
      </trkpt>
      <trkpt lat="45.94763" lon="-0.90992">
        <ele>25</ele>
        <time>2020-03-11T10:35:53Z</time>
      </trkpt>
      <trkpt lat="45.94756" lon="-0.90964">
        <ele>25</ele>
        <time>2020-03-11T10:35:53Z</time>
      </trkpt>
      <trkpt lat="45.94749" lon="-0.90918">
        <ele>25</ele>
        <time>2020-03-11T10:35:53Z</time>
      </trkpt>
      <trkpt lat="45.94742" lon="-0.90872">
        <ele>25</ele>
        <time>2020-03-11T10:35:53Z</time>
      </trkpt>
      <trkpt lat="45.94726" lon="-0.9078">
        <ele>25</ele>
        <time>2020-03-11T10:35:53Z</time>
      </trkpt>
      <trkpt lat="45.94717" lon="-0.90724">
        <ele>25</ele>
        <time>2020-03-11T10:35:53Z</time>
      </trkpt>
      <trkpt lat="45.94714" lon="-0.90684">
        <ele>25.7</ele>
        <time>2020-03-11T10:35:53Z</time>
      </trkpt>
      <trkpt lat="45.94697" lon="-0.9059">
        <ele>25.9</ele>
        <time>2020-03-11T10:35:53Z</time>
      </trkpt>
      <trkpt lat="45.94693" lon="-0.90555">
        <ele>26</ele>
        <time>2020-03-11T10:35:53Z</time>
      </trkpt>
      <trkpt lat="45.94679" lon="-0.90472">
        <ele>25.6</ele>
        <time>2020-03-11T10:35:53Z</time>
      </trkpt>
      <trkpt lat="45.94676" lon="-0.90433">
        <ele>25.6</ele>
        <time>2020-03-11T10:35:53Z</time>
      </trkpt>
      <trkpt lat="45.94657" lon="-0.90333">
        <ele>25</ele>
        <time>2020-03-11T10:35:53Z</time>
      </trkpt>
      <trkpt lat="45.94656" lon="-0.90302">
        <ele>25</ele>
        <time>2020-03-11T10:35:53Z</time>
      </trkpt>
      <trkpt lat="45.94623" lon="-0.90111">
        <ele>23</ele>
        <time>2020-03-11T10:35:53Z</time>
      </trkpt>
      <trkpt lat="45.9462" lon="-0.90075">
        <ele>22.8</ele>
        <time>2020-03-11T10:35:53Z</time>
      </trkpt>
      <trkpt lat="45.94613" lon="-0.9005">
        <ele>22.1</ele>
        <time>2020-03-11T10:35:53Z</time>
      </trkpt>
      <trkpt lat="45.94605" lon="-0.89996">
        <ele>21.6</ele>
        <time>2020-03-11T10:35:53Z</time>
      </trkpt>
      <trkpt lat="45.946" lon="-0.89965">
        <ele>20.5</ele>
        <time>2020-03-11T10:35:53Z</time>
      </trkpt>
      <trkpt lat="45.94595" lon="-0.89936">
        <ele>19.7</ele>
        <time>2020-03-11T10:35:53Z</time>
      </trkpt>
      <trkpt lat="45.94586" lon="-0.89891">
        <ele>19</ele>
        <time>2020-03-11T10:35:53Z</time>
      </trkpt>
      <trkpt lat="45.94576" lon="-0.89843">
        <ele>18.6</ele>
        <time>2020-03-11T10:35:53Z</time>
      </trkpt>
      <trkpt lat="45.94539" lon="-0.89726">
        <ele>16.3</ele>
        <time>2020-03-11T10:35:53Z</time>
      </trkpt>
      <trkpt lat="45.94527" lon="-0.89681">
        <ele>16</ele>
        <time>2020-03-11T10:35:53Z</time>
      </trkpt>
      <trkpt lat="45.94529" lon="-0.89654">
        <ele>16</ele>
        <time>2020-03-11T10:35:53Z</time>
      </trkpt>
      <trkpt lat="45.94501" lon="-0.8956">
        <ele>15</ele>
        <time>2020-03-11T10:35:53Z</time>
      </trkpt>
      <trkpt lat="45.9449" lon="-0.89524">
        <ele>14</ele>
        <time>2020-03-11T10:35:53Z</time>
      </trkpt>
      <trkpt lat="45.94482" lon="-0.89494">
        <ele>13.8</ele>
        <time>2020-03-11T10:35:53Z</time>
      </trkpt>
      <trkpt lat="45.94472" lon="-0.89462">
        <ele>12.6</ele>
        <time>2020-03-11T10:35:53Z</time>
      </trkpt>
      <trkpt lat="45.94462" lon="-0.89426">
        <ele>12.1</ele>
        <time>2020-03-11T10:35:53Z</time>
      </trkpt>
      <trkpt lat="45.94452" lon="-0.89389">
        <ele>11</ele>
        <time>2020-03-11T10:35:53Z</time>
      </trkpt>
      <trkpt lat="45.94442" lon="-0.89353">
        <ele>10.6</ele>
        <time>2020-03-11T10:35:53Z</time>
      </trkpt>
      <trkpt lat="45.94432" lon="-0.89309">
        <ele>8.7</ele>
        <time>2020-03-11T10:35:53Z</time>
      </trkpt>
      <trkpt lat="45.94421" lon="-0.89288">
        <ele>8.2</ele>
        <time>2020-03-11T10:35:53Z</time>
      </trkpt>
      <trkpt lat="45.94414" lon="-0.89258">
        <ele>7.2</ele>
        <time>2020-03-11T10:35:53Z</time>
      </trkpt>
      <trkpt lat="45.94395" lon="-0.89204">
        <ele>5.3</ele>
        <time>2020-03-11T10:35:53Z</time>
      </trkpt>
      <trkpt lat="45.94362" lon="-0.89114">
        <ele>4</ele>
        <time>2020-03-11T10:35:53Z</time>
      </trkpt>
      <trkpt lat="45.94336" lon="-0.89039">
        <ele>4</ele>
        <time>2020-03-11T10:35:53Z</time>
      </trkpt>
      <trkpt lat="45.94321" lon="-0.88996">
        <ele>4.1</ele>
        <time>2020-03-11T10:35:53Z</time>
      </trkpt>
      <trkpt lat="45.94284" lon="-0.88964">
        <ele>4.3</ele>
        <time>2020-03-11T10:35:53Z</time>
      </trkpt>
      <trkpt lat="45.94248" lon="-0.88949">
        <ele>4</ele>
        <time>2020-03-11T10:35:53Z</time>
      </trkpt>
      <trkpt lat="45.94231" lon="-0.88958">
        <ele>4</ele>
        <time>2020-03-11T10:35:53Z</time>
      </trkpt>
      <trkpt lat="45.94213" lon="-0.88971">
        <ele>4</ele>
        <time>2020-03-11T10:35:53Z</time>
      </trkpt>
      <trkpt lat="45.942" lon="-0.88952">
        <ele>2.8</ele>
        <time>2020-03-11T10:35:53Z</time>
      </trkpt>
      <trkpt lat="45.94182" lon="-0.88899">
        <ele>3.1</ele>
        <time>2020-03-11T10:35:53Z</time>
      </trkpt>
      <trkpt lat="45.94166" lon="-0.88856">
        <ele>4</ele>
        <time>2020-03-11T10:35:53Z</time>
      </trkpt>
      <trkpt lat="45.94144" lon="-0.88797">
        <ele>2.3</ele>
        <time>2020-03-11T10:35:53Z</time>
      </trkpt>
      <trkpt lat="45.94127" lon="-0.88758">
        <ele>3.1</ele>
        <time>2020-03-11T10:35:53Z</time>
      </trkpt>
      <trkpt lat="45.94104" lon="-0.88706">
        <ele>3.1</ele>
        <time>2020-03-11T10:35:53Z</time>
      </trkpt>
      <trkpt lat="45.94093" lon="-0.88681">
        <ele>2.7</ele>
        <time>2020-03-11T10:35:53Z</time>
      </trkpt>
      <trkpt lat="45.94071" lon="-0.88633">
        <ele>3.8</ele>
        <time>2020-03-11T10:35:53Z</time>
      </trkpt>
      <trkpt lat="45.94054" lon="-0.88595">
        <ele>3.6</ele>
        <time>2020-03-11T10:35:53Z</time>
      </trkpt>
      <trkpt lat="45.9404" lon="-0.88567">
        <ele>3.3</ele>
        <time>2020-03-11T10:35:53Z</time>
      </trkpt>
      <trkpt lat="45.94016" lon="-0.88511">
        <ele>4</ele>
        <time>2020-03-11T10:35:53Z</time>
      </trkpt>
      <trkpt lat="45.93987" lon="-0.88451">
        <ele>4</ele>
        <time>2020-03-11T10:35:53Z</time>
      </trkpt>
      <trkpt lat="45.93961" lon="-0.88392">
        <ele>4.2</ele>
        <time>2020-03-11T10:35:53Z</time>
      </trkpt>
      <trkpt lat="45.93941" lon="-0.88344">
        <ele>3.8</ele>
        <time>2020-03-11T10:35:53Z</time>
      </trkpt>
      <trkpt lat="45.93909" lon="-0.88259">
        <ele>4</ele>
        <time>2020-03-11T10:35:53Z</time>
      </trkpt>
      <trkpt lat="45.93977" lon="-0.88212">
        <ele>5.2</ele>
        <time>2020-03-11T10:35:53Z</time>
      </trkpt>
      <trkpt lat="45.93993" lon="-0.88183">
        <ele>6.2</ele>
        <time>2020-03-11T10:35:53Z</time>
      </trkpt>
      <trkpt lat="45.93995" lon="-0.88154">
        <ele>6.8</ele>
        <time>2020-03-11T10:35:53Z</time>
      </trkpt>
      <trkpt lat="45.93996" lon="-0.88118">
        <ele>7.6</ele>
        <time>2020-03-11T10:35:53Z</time>
      </trkpt>
      <trkpt lat="45.93988" lon="-0.88078">
        <ele>7</ele>
        <time>2020-03-11T10:35:53Z</time>
      </trkpt>
      <trkpt lat="45.93977" lon="-0.88043">
        <ele>7</ele>
        <time>2020-03-11T10:35:53Z</time>
      </trkpt>
      <trkpt lat="45.93955" lon="-0.87971">
        <ele>6.6</ele>
        <time>2020-03-11T10:35:53Z</time>
      </trkpt>
      <trkpt lat="45.93911" lon="-0.87927">
        <ele>5.5</ele>
        <time>2020-03-11T10:35:53Z</time>
      </trkpt>
      <trkpt lat="45.93892" lon="-0.87906">
        <ele>5.1</ele>
        <time>2020-03-11T10:35:53Z</time>
      </trkpt>
      <trkpt lat="45.93845" lon="-0.87852">
        <ele>5</ele>
        <time>2020-03-11T10:35:53Z</time>
      </trkpt>
      <trkpt lat="45.93808" lon="-0.87805">
        <ele>3.3</ele>
        <time>2020-03-11T10:35:53Z</time>
      </trkpt>
      <trkpt lat="45.93723" lon="-0.87702">
        <ele>4.8</ele>
        <time>2020-03-11T10:35:53Z</time>
      </trkpt>
      <trkpt lat="45.93602" lon="-0.87562">
        <ele>4</ele>
        <time>2020-03-11T10:35:53Z</time>
      </trkpt>
      <trkpt lat="45.9353" lon="-0.87479">
        <ele>3.8</ele>
        <time>2020-03-11T10:35:53Z</time>
      </trkpt>
      <trkpt lat="45.93505" lon="-0.87458">
        <ele>3.6</ele>
        <time>2020-03-11T10:35:53Z</time>
      </trkpt>
      <trkpt lat="45.93449" lon="-0.87403">
        <ele>3.6</ele>
        <time>2020-03-11T10:35:53Z</time>
      </trkpt>
      <trkpt lat="45.93372" lon="-0.8733">
        <ele>3.8</ele>
        <time>2020-03-11T10:35:53Z</time>
      </trkpt>
      <trkpt lat="45.93319" lon="-0.8728">
        <ele>3.9</ele>
        <time>2020-03-11T10:35:53Z</time>
      </trkpt>
      <trkpt lat="45.93294" lon="-0.87257">
        <ele>3.9</ele>
        <time>2020-03-11T10:35:53Z</time>
      </trkpt>
      <trkpt lat="45.93241" lon="-0.87206">
        <ele>4</ele>
        <time>2020-03-11T10:35:53Z</time>
      </trkpt>
      <trkpt lat="45.93217" lon="-0.87183">
        <ele>4.1</ele>
        <time>2020-03-11T10:35:53Z</time>
      </trkpt>
      <trkpt lat="45.93168" lon="-0.87137">
        <ele>4.1</ele>
        <time>2020-03-11T10:35:53Z</time>
      </trkpt>
      <trkpt lat="45.93122" lon="-0.87091">
        <ele>4.1</ele>
        <time>2020-03-11T10:35:53Z</time>
      </trkpt>
      <trkpt lat="45.93106" lon="-0.87075">
        <ele>4.1</ele>
        <time>2020-03-11T10:35:53Z</time>
      </trkpt>
      <trkpt lat="45.93086" lon="-0.87058">
        <ele>4</ele>
        <time>2020-03-11T10:35:53Z</time>
      </trkpt>
      <trkpt lat="45.93067" lon="-0.87036">
        <ele>4</ele>
        <time>2020-03-11T10:35:53Z</time>
      </trkpt>
      <trkpt lat="45.92984" lon="-0.86959">
        <ele>4.3</ele>
        <time>2020-03-11T10:35:53Z</time>
      </trkpt>
      <trkpt lat="45.92938" lon="-0.86917">
        <ele>4.8</ele>
        <time>2020-03-11T10:35:53Z</time>
      </trkpt>
      <trkpt lat="45.92881" lon="-0.86869">
        <ele>4.9</ele>
        <time>2020-03-11T10:35:53Z</time>
      </trkpt>
      <trkpt lat="45.92897" lon="-0.86847">
        <ele>6.2</ele>
        <time>2020-03-11T10:35:53Z</time>
      </trkpt>
      <trkpt lat="45.92926" lon="-0.86834">
        <ele>7.3</ele>
        <time>2020-03-11T10:35:53Z</time>
      </trkpt>
      <trkpt lat="45.9296" lon="-0.86832">
        <ele>8.1</ele>
        <time>2020-03-11T10:35:53Z</time>
      </trkpt>
      <trkpt lat="45.92986" lon="-0.86829">
        <ele>8.8</ele>
        <time>2020-03-11T10:35:53Z</time>
      </trkpt>
      <trkpt lat="45.93027" lon="-0.86822">
        <ele>10.4</ele>
        <time>2020-03-11T10:35:53Z</time>
      </trkpt>
      <trkpt lat="45.93049" lon="-0.86819">
        <ele>10.5</ele>
        <time>2020-03-11T10:35:53Z</time>
      </trkpt>
      <trkpt lat="45.93069" lon="-0.86815">
        <ele>10.7</ele>
        <time>2020-03-11T10:35:53Z</time>
      </trkpt>
      <trkpt lat="45.93105" lon="-0.86757">
        <ele>12.7</ele>
        <time>2020-03-11T10:35:53Z</time>
      </trkpt>
      <trkpt lat="45.93101" lon="-0.86728">
        <ele>13.8</ele>
        <time>2020-03-11T10:35:53Z</time>
      </trkpt>
      <trkpt lat="45.9309" lon="-0.86694">
        <ele>14.8</ele>
        <time>2020-03-11T10:35:53Z</time>
      </trkpt>
      <trkpt lat="45.93069" lon="-0.86642">
        <ele>15</ele>
        <time>2020-03-11T10:35:53Z</time>
      </trkpt>
      <trkpt lat="45.93054" lon="-0.86603">
        <ele>14.7</ele>
        <time>2020-03-11T10:35:53Z</time>
      </trkpt>
      <trkpt lat="45.93034" lon="-0.86559">
        <ele>14</ele>
        <time>2020-03-11T10:35:53Z</time>
      </trkpt>
      <trkpt lat="45.93011" lon="-0.86527">
        <ele>13.4</ele>
        <time>2020-03-11T10:35:53Z</time>
      </trkpt>
      <trkpt lat="45.92988" lon="-0.86504">
        <ele>13</ele>
        <time>2020-03-11T10:35:53Z</time>
      </trkpt>
      <trkpt lat="45.92954" lon="-0.86455">
        <ele>12.4</ele>
        <time>2020-03-11T10:35:53Z</time>
      </trkpt>
      <trkpt lat="45.92902" lon="-0.86358">
        <ele>9.9</ele>
        <time>2020-03-11T10:35:53Z</time>
      </trkpt>
      <trkpt lat="45.92875" lon="-0.86279">
        <ele>8</ele>
        <time>2020-03-11T10:35:53Z</time>
      </trkpt>
      <trkpt lat="45.92863" lon="-0.86246">
        <ele>7</ele>
        <time>2020-03-11T10:35:53Z</time>
      </trkpt>
      <trkpt lat="45.92838" lon="-0.86182">
        <ele>6</ele>
        <time>2020-03-11T10:35:53Z</time>
      </trkpt>
      <trkpt lat="45.9282" lon="-0.86136">
        <ele>4.9</ele>
        <time>2020-03-11T10:35:53Z</time>
      </trkpt>
      <trkpt lat="45.92806" lon="-0.86103">
        <ele>4.7</ele>
        <time>2020-03-11T10:35:53Z</time>
      </trkpt>
      <trkpt lat="45.92785" lon="-0.86053">
        <ele>3.7</ele>
        <time>2020-03-11T10:35:53Z</time>
      </trkpt>
      <trkpt lat="45.92749" lon="-0.85973">
        <ele>4</ele>
        <time>2020-03-11T10:35:53Z</time>
      </trkpt>
      <trkpt lat="45.92735" lon="-0.85949">
        <ele>5.4</ele>
        <time>2020-03-11T10:35:53Z</time>
      </trkpt>
      <trkpt lat="45.92705" lon="-0.85928">
        <ele>7.6</ele>
        <time>2020-03-11T10:35:53Z</time>
      </trkpt>
      <trkpt lat="45.92686" lon="-0.85916">
        <ele>9.6</ele>
        <time>2020-03-11T10:35:53Z</time>
      </trkpt>
      <trkpt lat="45.92664" lon="-0.85905">
        <ele>11</ele>
        <time>2020-03-11T10:35:53Z</time>
      </trkpt>
      <trkpt lat="45.9264" lon="-0.85884">
        <ele>12</ele>
        <time>2020-03-11T10:35:53Z</time>
      </trkpt>
      <trkpt lat="45.92611" lon="-0.8584">
        <ele>12</ele>
        <time>2020-03-11T10:35:53Z</time>
      </trkpt>
      <trkpt lat="45.92597" lon="-0.85819">
        <ele>12</ele>
        <time>2020-03-11T10:35:53Z</time>
      </trkpt>
      <trkpt lat="45.9258" lon="-0.85794">
        <ele>12</ele>
        <time>2020-03-11T10:35:53Z</time>
      </trkpt>
      <trkpt lat="45.92551" lon="-0.85752">
        <ele>11.8</ele>
        <time>2020-03-11T10:35:53Z</time>
      </trkpt>
      <trkpt lat="45.92522" lon="-0.85751">
        <ele>10.8</ele>
        <time>2020-03-11T10:35:53Z</time>
      </trkpt>
      <trkpt lat="45.92484" lon="-0.85778">
        <ele>10.4</ele>
        <time>2020-03-11T10:35:53Z</time>
      </trkpt>
      <trkpt lat="45.92462" lon="-0.85794">
        <ele>10.2</ele>
        <time>2020-03-11T10:35:53Z</time>
      </trkpt>
      <trkpt lat="45.9244" lon="-0.85812">
        <ele>9.8</ele>
        <time>2020-03-11T10:35:53Z</time>
      </trkpt>
      <trkpt lat="45.92424" lon="-0.85832">
        <ele>9.3</ele>
        <time>2020-03-11T10:35:53Z</time>
      </trkpt>
      <trkpt lat="45.92402" lon="-0.85858">
        <ele>8.9</ele>
        <time>2020-03-11T10:35:53Z</time>
      </trkpt>
      <trkpt lat="45.92376" lon="-0.85888">
        <ele>8</ele>
        <time>2020-03-11T10:35:53Z</time>
      </trkpt>
      <trkpt lat="45.92357" lon="-0.85905">
        <ele>8.5</ele>
        <time>2020-03-11T10:35:53Z</time>
      </trkpt>
      <trkpt lat="45.92341" lon="-0.85919">
        <ele>8.3</ele>
        <time>2020-03-11T10:35:53Z</time>
      </trkpt>
      <trkpt lat="45.92323" lon="-0.85928">
        <ele>7.7</ele>
        <time>2020-03-11T10:35:53Z</time>
      </trkpt>
      <trkpt lat="45.92302" lon="-0.85937">
        <ele>6.4</ele>
        <time>2020-03-11T10:35:53Z</time>
      </trkpt>
      <trkpt lat="45.92282" lon="-0.85956">
        <ele>4.8</ele>
        <time>2020-03-11T10:35:53Z</time>
      </trkpt>
      <trkpt lat="45.92262" lon="-0.85981">
        <ele>4</ele>
        <time>2020-03-11T10:35:53Z</time>
      </trkpt>
      <trkpt lat="45.92238" lon="-0.85996">
        <ele>3.9</ele>
        <time>2020-03-11T10:35:53Z</time>
      </trkpt>
      <trkpt lat="45.92214" lon="-0.85992">
        <ele>3.5</ele>
        <time>2020-03-11T10:35:53Z</time>
      </trkpt>
      <trkpt lat="45.92184" lon="-0.85968">
        <ele>3</ele>
        <time>2020-03-11T10:35:53Z</time>
      </trkpt>
      <trkpt lat="45.92164" lon="-0.85957">
        <ele>3.1</ele>
        <time>2020-03-11T10:35:53Z</time>
      </trkpt>
      <trkpt lat="45.92136" lon="-0.85953">
        <ele>3.7</ele>
        <time>2020-03-11T10:35:53Z</time>
      </trkpt>
      <trkpt lat="45.92096" lon="-0.85943">
        <ele>4.1</ele>
        <time>2020-03-11T10:35:53Z</time>
      </trkpt>
      <trkpt lat="45.92077" lon="-0.85941">
        <ele>4.3</ele>
        <time>2020-03-11T10:35:53Z</time>
      </trkpt>
      <trkpt lat="45.92055" lon="-0.85939">
        <ele>5</ele>
        <time>2020-03-11T10:35:53Z</time>
      </trkpt>
      <trkpt lat="45.92035" lon="-0.85943">
        <ele>4.3</ele>
        <time>2020-03-11T10:35:53Z</time>
      </trkpt>
      <trkpt lat="45.92016" lon="-0.85941">
        <ele>4.1</ele>
        <time>2020-03-11T10:35:53Z</time>
      </trkpt>
      <trkpt lat="45.91998" lon="-0.85938">
        <ele>3.9</ele>
        <time>2020-03-11T10:35:53Z</time>
      </trkpt>
      <trkpt lat="45.91974" lon="-0.85928">
        <ele>3.6</ele>
        <time>2020-03-11T10:35:53Z</time>
      </trkpt>
      <trkpt lat="45.91954" lon="-0.85912">
        <ele>4</ele>
        <time>2020-03-11T10:35:53Z</time>
      </trkpt>
      <trkpt lat="45.91934" lon="-0.8589">
        <ele>4</ele>
        <time>2020-03-11T10:35:53Z</time>
      </trkpt>
      <trkpt lat="45.91915" lon="-0.85918">
        <ele>4</ele>
        <time>2020-03-11T10:35:53Z</time>
      </trkpt>
      <trkpt lat="45.91899" lon="-0.85946">
        <ele>3</ele>
        <time>2020-03-11T10:35:53Z</time>
      </trkpt>
      <trkpt lat="45.91876" lon="-0.85958">
        <ele>3.7</ele>
        <time>2020-03-11T10:35:53Z</time>
      </trkpt>
      <trkpt lat="45.91857" lon="-0.85959">
        <ele>3.9</ele>
        <time>2020-03-11T10:35:53Z</time>
      </trkpt>
      <trkpt lat="45.91838" lon="-0.85966">
        <ele>3.8</ele>
        <time>2020-03-11T10:35:53Z</time>
      </trkpt>
      <trkpt lat="45.91813" lon="-0.85973">
        <ele>4</ele>
        <time>2020-03-11T10:35:53Z</time>
      </trkpt>
      <trkpt lat="45.91782" lon="-0.85967">
        <ele>3.8</ele>
        <time>2020-03-11T10:35:53Z</time>
      </trkpt>
      <trkpt lat="45.91736" lon="-0.85964">
        <ele>3</ele>
        <time>2020-03-11T10:35:53Z</time>
      </trkpt>
      <trkpt lat="45.91688" lon="-0.85965">
        <ele>3.2</ele>
        <time>2020-03-11T10:35:53Z</time>
      </trkpt>
      <trkpt lat="45.9166" lon="-0.85968">
        <ele>3.8</ele>
        <time>2020-03-11T10:35:53Z</time>
      </trkpt>
      <trkpt lat="45.91638" lon="-0.85972">
        <ele>4</ele>
        <time>2020-03-11T10:35:53Z</time>
      </trkpt>
      <trkpt lat="45.91582" lon="-0.85986">
        <ele>4</ele>
        <time>2020-03-11T10:35:53Z</time>
      </trkpt>
      <trkpt lat="45.91512" lon="-0.86014">
        <ele>3.5</ele>
        <time>2020-03-11T10:35:53Z</time>
      </trkpt>
      <trkpt lat="45.91443" lon="-0.86054">
        <ele>3.9</ele>
        <time>2020-03-11T10:35:53Z</time>
      </trkpt>
      <trkpt lat="45.91378" lon="-0.86104">
        <ele>3.4</ele>
        <time>2020-03-11T10:35:53Z</time>
      </trkpt>
      <trkpt lat="45.91318" lon="-0.86163">
        <ele>3.5</ele>
        <time>2020-03-11T10:35:53Z</time>
      </trkpt>
      <trkpt lat="45.91253" lon="-0.86245">
        <ele>4.6</ele>
        <time>2020-03-11T10:35:53Z</time>
      </trkpt>
      <trkpt lat="45.91147" lon="-0.86398">
        <ele>3.9</ele>
        <time>2020-03-11T10:35:53Z</time>
      </trkpt>
      <trkpt lat="45.91007" lon="-0.86601">
        <ele>6.4</ele>
        <time>2020-03-11T10:35:53Z</time>
      </trkpt>
      <trkpt lat="45.90991" lon="-0.86624">
        <ele>3.5</ele>
        <time>2020-03-11T10:35:53Z</time>
      </trkpt>
      <trkpt lat="45.90908" lon="-0.86744">
        <ele>3.7</ele>
        <time>2020-03-11T10:35:53Z</time>
      </trkpt>
      <trkpt lat="45.90885" lon="-0.86777">
        <ele>6.5</ele>
        <time>2020-03-11T10:35:53Z</time>
      </trkpt>
      <trkpt lat="45.90867" lon="-0.86804">
        <ele>6.3</ele>
        <time>2020-03-11T10:35:53Z</time>
      </trkpt>
      <trkpt lat="45.90837" lon="-0.86847">
        <ele>7.4</ele>
        <time>2020-03-11T10:35:53Z</time>
      </trkpt>
      <trkpt lat="45.90812" lon="-0.86883">
        <ele>8</ele>
        <time>2020-03-11T10:35:53Z</time>
      </trkpt>
      <trkpt lat="45.9077" lon="-0.86945">
        <ele>9.3</ele>
        <time>2020-03-11T10:35:53Z</time>
      </trkpt>
      <trkpt lat="45.90737" lon="-0.86994">
        <ele>8.9</ele>
        <time>2020-03-11T10:35:53Z</time>
      </trkpt>
      <trkpt lat="45.90725" lon="-0.87014">
        <ele>9.1</ele>
        <time>2020-03-11T10:35:53Z</time>
      </trkpt>
      <trkpt lat="45.90674" lon="-0.87085">
        <ele>9</ele>
        <time>2020-03-11T10:35:53Z</time>
      </trkpt>
      <trkpt lat="45.90646" lon="-0.87124">
        <ele>9</ele>
        <time>2020-03-11T10:35:53Z</time>
      </trkpt>
      <trkpt lat="45.90616" lon="-0.8717">
        <ele>9</ele>
        <time>2020-03-11T10:35:53Z</time>
      </trkpt>
      <trkpt lat="45.90585" lon="-0.87221">
        <ele>9</ele>
        <time>2020-03-11T10:35:53Z</time>
      </trkpt>
      <trkpt lat="45.90569" lon="-0.87248">
        <ele>8.6</ele>
        <time>2020-03-11T10:35:53Z</time>
      </trkpt>
      <trkpt lat="45.90548" lon="-0.87287">
        <ele>8</ele>
        <time>2020-03-11T10:35:53Z</time>
      </trkpt>
      <trkpt lat="45.90526" lon="-0.87335">
        <ele>7.9</ele>
        <time>2020-03-11T10:35:53Z</time>
      </trkpt>
      <trkpt lat="45.90509" lon="-0.87373">
        <ele>6.9</ele>
        <time>2020-03-11T10:35:53Z</time>
      </trkpt>
      <trkpt lat="45.90486" lon="-0.87433">
        <ele>5.4</ele>
        <time>2020-03-11T10:35:53Z</time>
      </trkpt>
      <trkpt lat="45.90452" lon="-0.87534">
        <ele>4.1</ele>
        <time>2020-03-11T10:35:53Z</time>
      </trkpt>
      <trkpt lat="45.90432" lon="-0.87595">
        <ele>4.2</ele>
        <time>2020-03-11T10:35:53Z</time>
      </trkpt>
      <trkpt lat="45.90415" lon="-0.87648">
        <ele>5.6</ele>
        <time>2020-03-11T10:35:53Z</time>
      </trkpt>
      <trkpt lat="45.90394" lon="-0.87708">
        <ele>6.3</ele>
        <time>2020-03-11T10:35:53Z</time>
      </trkpt>
      <trkpt lat="45.90376" lon="-0.87763">
        <ele>6.8</ele>
        <time>2020-03-11T10:35:53Z</time>
      </trkpt>
      <trkpt lat="45.90356" lon="-0.87817">
        <ele>7.8</ele>
        <time>2020-03-11T10:35:53Z</time>
      </trkpt>
      <trkpt lat="45.90346" lon="-0.87843">
        <ele>7.5</ele>
        <time>2020-03-11T10:35:53Z</time>
      </trkpt>
      <trkpt lat="45.90332" lon="-0.87875">
        <ele>7.6</ele>
        <time>2020-03-11T10:35:53Z</time>
      </trkpt>
      <trkpt lat="45.90312" lon="-0.87923">
        <ele>9</ele>
        <time>2020-03-11T10:35:53Z</time>
      </trkpt>
      <trkpt lat="45.90297" lon="-0.87961">
        <ele>9.3</ele>
        <time>2020-03-11T10:35:53Z</time>
      </trkpt>
      <trkpt lat="45.90289" lon="-0.88">
        <ele>9.6</ele>
        <time>2020-03-11T10:35:53Z</time>
      </trkpt>
      <trkpt lat="45.90287" lon="-0.88029">
        <ele>10</ele>
        <time>2020-03-11T10:35:53Z</time>
      </trkpt>
      <trkpt lat="45.90281" lon="-0.88054">
        <ele>9.2</ele>
        <time>2020-03-11T10:35:53Z</time>
      </trkpt>
      <trkpt lat="45.90269" lon="-0.88092">
        <ele>9.7</ele>
        <time>2020-03-11T10:35:53Z</time>
      </trkpt>
      <trkpt lat="45.90238" lon="-0.88184">
        <ele>9</ele>
        <time>2020-03-11T10:35:53Z</time>
      </trkpt>
      <trkpt lat="45.90206" lon="-0.88281">
        <ele>9.4</ele>
        <time>2020-03-11T10:35:53Z</time>
      </trkpt>
      <trkpt lat="45.90191" lon="-0.88332">
        <ele>9</ele>
        <time>2020-03-11T10:35:53Z</time>
      </trkpt>
      <trkpt lat="45.90176" lon="-0.88385">
        <ele>9.6</ele>
        <time>2020-03-11T10:35:53Z</time>
      </trkpt>
      <trkpt lat="45.90166" lon="-0.88423">
        <ele>9.2</ele>
        <time>2020-03-11T10:35:53Z</time>
      </trkpt>
      <trkpt lat="45.90153" lon="-0.88484">
        <ele>8.8</ele>
        <time>2020-03-11T10:35:53Z</time>
      </trkpt>
      <trkpt lat="45.90138" lon="-0.88573">
        <ele>9</ele>
        <time>2020-03-11T10:35:53Z</time>
      </trkpt>
      <trkpt lat="45.90129" lon="-0.88633">
        <ele>8.5</ele>
        <time>2020-03-11T10:35:53Z</time>
      </trkpt>
      <trkpt lat="45.90122" lon="-0.88695">
        <ele>8</ele>
        <time>2020-03-11T10:35:53Z</time>
      </trkpt>
      <trkpt lat="45.90118" lon="-0.88743">
        <ele>7.9</ele>
        <time>2020-03-11T10:35:53Z</time>
      </trkpt>
      <trkpt lat="45.90112" lon="-0.88818">
        <ele>9.9</ele>
        <time>2020-03-11T10:35:53Z</time>
      </trkpt>
      <trkpt lat="45.90111" lon="-0.8887">
        <ele>9.3</ele>
        <time>2020-03-11T10:35:53Z</time>
      </trkpt>
      <trkpt lat="45.90111" lon="-0.88933">
        <ele>11</ele>
        <time>2020-03-11T10:35:53Z</time>
      </trkpt>
      <trkpt lat="45.90113" lon="-0.88984">
        <ele>11.2</ele>
        <time>2020-03-11T10:35:53Z</time>
      </trkpt>
      <trkpt lat="45.90115" lon="-0.89034">
        <ele>11.6</ele>
        <time>2020-03-11T10:35:53Z</time>
      </trkpt>
      <trkpt lat="45.90118" lon="-0.89078">
        <ele>12.3</ele>
        <time>2020-03-11T10:35:53Z</time>
      </trkpt>
      <trkpt lat="45.9012" lon="-0.89114">
        <ele>12.7</ele>
        <time>2020-03-11T10:35:53Z</time>
      </trkpt>
      <trkpt lat="45.90124" lon="-0.89147">
        <ele>12.7</ele>
        <time>2020-03-11T10:35:53Z</time>
      </trkpt>
      <trkpt lat="45.9013" lon="-0.89205">
        <ele>13.7</ele>
        <time>2020-03-11T10:35:53Z</time>
      </trkpt>
      <trkpt lat="45.90139" lon="-0.89259">
        <ele>14</ele>
        <time>2020-03-11T10:35:53Z</time>
      </trkpt>
      <trkpt lat="45.9015" lon="-0.89325">
        <ele>13.2</ele>
        <time>2020-03-11T10:35:53Z</time>
      </trkpt>
      <trkpt lat="45.90172" lon="-0.89429">
        <ele>12.3</ele>
        <time>2020-03-11T10:35:53Z</time>
      </trkpt>
      <trkpt lat="45.90189" lon="-0.89504">
        <ele>14.4</ele>
        <time>2020-03-11T10:35:53Z</time>
      </trkpt>
      <trkpt lat="45.90211" lon="-0.89607">
        <ele>15.7</ele>
        <time>2020-03-11T10:35:53Z</time>
      </trkpt>
      <trkpt lat="45.90223" lon="-0.89674">
        <ele>15.2</ele>
        <time>2020-03-11T10:35:53Z</time>
      </trkpt>
      <trkpt lat="45.9023" lon="-0.89726">
        <ele>15.9</ele>
        <time>2020-03-11T10:35:53Z</time>
      </trkpt>
      <trkpt lat="45.90235" lon="-0.89767">
        <ele>17.2</ele>
        <time>2020-03-11T10:35:53Z</time>
      </trkpt>
      <trkpt lat="45.9024" lon="-0.89827">
        <ele>18.9</ele>
        <time>2020-03-11T10:35:53Z</time>
      </trkpt>
      <trkpt lat="45.90242" lon="-0.89866">
        <ele>19.3</ele>
        <time>2020-03-11T10:35:53Z</time>
      </trkpt>
      <trkpt lat="45.90244" lon="-0.89901">
        <ele>19.6</ele>
        <time>2020-03-11T10:35:53Z</time>
      </trkpt>
      <trkpt lat="45.90245" lon="-0.8995">
        <ele>20</ele>
        <time>2020-03-11T10:35:53Z</time>
      </trkpt>
      <trkpt lat="45.90244" lon="-0.90001">
        <ele>20</ele>
        <time>2020-03-11T10:35:53Z</time>
      </trkpt>
      <trkpt lat="45.90242" lon="-0.90068">
        <ele>19.9</ele>
        <time>2020-03-11T10:35:53Z</time>
      </trkpt>
      <trkpt lat="45.90239" lon="-0.90111">
        <ele>19.6</ele>
        <time>2020-03-11T10:35:53Z</time>
      </trkpt>
      <trkpt lat="45.90234" lon="-0.90154">
        <ele>18.4</ele>
        <time>2020-03-11T10:35:53Z</time>
      </trkpt>
      <trkpt lat="45.90228" lon="-0.90206">
        <ele>18.2</ele>
        <time>2020-03-11T10:35:53Z</time>
      </trkpt>
      <trkpt lat="45.90221" lon="-0.90263">
        <ele>18</ele>
        <time>2020-03-11T10:35:53Z</time>
      </trkpt>
      <trkpt lat="45.90208" lon="-0.90363">
        <ele>17.5</ele>
        <time>2020-03-11T10:35:53Z</time>
      </trkpt>
      <trkpt lat="45.90191" lon="-0.90494">
        <ele>16.9</ele>
        <time>2020-03-11T10:35:53Z</time>
      </trkpt>
      <trkpt lat="45.90179" lon="-0.90593">
        <ele>16.4</ele>
        <time>2020-03-11T10:35:53Z</time>
      </trkpt>
      <trkpt lat="45.90161" lon="-0.9074">
        <ele>14.3</ele>
        <time>2020-03-11T10:35:53Z</time>
      </trkpt>
      <trkpt lat="45.90151" lon="-0.90821">
        <ele>14.2</ele>
        <time>2020-03-11T10:35:53Z</time>
      </trkpt>
      <trkpt lat="45.90138" lon="-0.90914">
        <ele>15</ele>
        <time>2020-03-11T10:35:53Z</time>
      </trkpt>
      <trkpt lat="45.90128" lon="-0.90998">
        <ele>14</ele>
        <time>2020-03-11T10:35:53Z</time>
      </trkpt>
      <trkpt lat="45.90122" lon="-0.91049">
        <ele>14</ele>
        <time>2020-03-11T10:35:53Z</time>
      </trkpt>
      <trkpt lat="45.90116" lon="-0.91096">
        <ele>14.2</ele>
        <time>2020-03-11T10:35:53Z</time>
      </trkpt>
      <trkpt lat="45.90109" lon="-0.91129">
        <ele>14</ele>
        <time>2020-03-11T10:35:53Z</time>
      </trkpt>
      <trkpt lat="45.90098" lon="-0.9118">
        <ele>13.3</ele>
        <time>2020-03-11T10:35:53Z</time>
      </trkpt>
      <trkpt lat="45.9009" lon="-0.9121">
        <ele>13</ele>
        <time>2020-03-11T10:35:53Z</time>
      </trkpt>
      <trkpt lat="45.90068" lon="-0.91278">
        <ele>12.6</ele>
        <time>2020-03-11T10:35:53Z</time>
      </trkpt>
      <trkpt lat="45.90046" lon="-0.91326">
        <ele>14.8</ele>
        <time>2020-03-11T10:35:53Z</time>
      </trkpt>
      <trkpt lat="45.90009" lon="-0.91405">
        <ele>11.7</ele>
        <time>2020-03-11T10:35:53Z</time>
      </trkpt>
      <trkpt lat="45.89875" lon="-0.91631">
        <ele>9</ele>
        <time>2020-03-11T10:35:53Z</time>
      </trkpt>
      <trkpt lat="45.8983" lon="-0.91706">
        <ele>8.1</ele>
        <time>2020-03-11T10:35:53Z</time>
      </trkpt>
      <trkpt lat="45.89812" lon="-0.91735">
        <ele>7.6</ele>
        <time>2020-03-11T10:35:53Z</time>
      </trkpt>
      <trkpt lat="45.89796" lon="-0.91765">
        <ele>6.8</ele>
        <time>2020-03-11T10:35:53Z</time>
      </trkpt>
      <trkpt lat="45.89778" lon="-0.91794">
        <ele>5.8</ele>
        <time>2020-03-11T10:35:53Z</time>
      </trkpt>
      <trkpt lat="45.89751" lon="-0.9184">
        <ele>6.4</ele>
        <time>2020-03-11T10:35:53Z</time>
      </trkpt>
      <trkpt lat="45.8972" lon="-0.91902">
        <ele>5.3</ele>
        <time>2020-03-11T10:35:53Z</time>
      </trkpt>
      <trkpt lat="45.89679" lon="-0.91992">
        <ele>4.2</ele>
        <time>2020-03-11T10:35:53Z</time>
      </trkpt>
      <trkpt lat="45.89626" lon="-0.9212">
        <ele>4.2</ele>
        <time>2020-03-11T10:35:53Z</time>
      </trkpt>
      <trkpt lat="45.89602" lon="-0.92175">
        <ele>4.7</ele>
        <time>2020-03-11T10:35:53Z</time>
      </trkpt>
      <trkpt lat="45.89563" lon="-0.92266">
        <ele>7.4</ele>
        <time>2020-03-11T10:35:53Z</time>
      </trkpt>
      <trkpt lat="45.89466" lon="-0.92494">
        <ele>9.2</ele>
        <time>2020-03-11T10:35:53Z</time>
      </trkpt>
      <trkpt lat="45.89324" lon="-0.92826">
        <ele>9.4</ele>
        <time>2020-03-11T10:35:53Z</time>
      </trkpt>
      <trkpt lat="45.89294" lon="-0.9289">
        <ele>6.4</ele>
        <time>2020-03-11T10:35:53Z</time>
      </trkpt>
      <trkpt lat="45.89237" lon="-0.92993">
        <ele>3.8</ele>
        <time>2020-03-11T10:35:53Z</time>
      </trkpt>
      <trkpt lat="45.89118" lon="-0.9321">
        <ele>3.5</ele>
        <time>2020-03-11T10:35:53Z</time>
      </trkpt>
      <trkpt lat="45.89051" lon="-0.93335">
        <ele>3.9</ele>
        <time>2020-03-11T10:35:53Z</time>
      </trkpt>
      <trkpt lat="45.89037" lon="-0.9336">
        <ele>4</ele>
        <time>2020-03-11T10:35:53Z</time>
      </trkpt>
      <trkpt lat="45.88951" lon="-0.93516">
        <ele>3.4</ele>
        <time>2020-03-11T10:35:53Z</time>
      </trkpt>
      <trkpt lat="45.88895" lon="-0.93623">
        <ele>3.2</ele>
        <time>2020-03-11T10:35:53Z</time>
      </trkpt>
      <trkpt lat="45.88869" lon="-0.93664">
        <ele>4.1</ele>
        <time>2020-03-11T10:35:53Z</time>
      </trkpt>
      <trkpt lat="45.88842" lon="-0.93704">
        <ele>3.8</ele>
        <time>2020-03-11T10:35:53Z</time>
      </trkpt>
      <trkpt lat="45.88816" lon="-0.93737">
        <ele>3.9</ele>
        <time>2020-03-11T10:35:53Z</time>
      </trkpt>
      <trkpt lat="45.88788" lon="-0.93768">
        <ele>3.5</ele>
        <time>2020-03-11T10:35:53Z</time>
      </trkpt>
      <trkpt lat="45.88745" lon="-0.9381">
        <ele>3.9</ele>
        <time>2020-03-11T10:35:53Z</time>
      </trkpt>
      <trkpt lat="45.88692" lon="-0.93859">
        <ele>4</ele>
        <time>2020-03-11T10:35:53Z</time>
      </trkpt>
      <trkpt lat="45.88558" lon="-0.93988">
        <ele>3.8</ele>
        <time>2020-03-11T10:35:53Z</time>
      </trkpt>
      <trkpt lat="45.88297" lon="-0.94232">
        <ele>4.1</ele>
        <time>2020-03-11T10:35:53Z</time>
      </trkpt>
      <trkpt lat="45.88128" lon="-0.94393">
        <ele>3.8</ele>
        <time>2020-03-11T10:35:53Z</time>
      </trkpt>
      <trkpt lat="45.87975" lon="-0.94534">
        <ele>3.5</ele>
        <time>2020-03-11T10:35:53Z</time>
      </trkpt>
      <trkpt lat="45.87895" lon="-0.94615">
        <ele>3.7</ele>
        <time>2020-03-11T10:35:53Z</time>
      </trkpt>
      <trkpt lat="45.87868" lon="-0.94648">
        <ele>3.2</ele>
        <time>2020-03-11T10:35:53Z</time>
      </trkpt>
      <trkpt lat="45.8785" lon="-0.94673">
        <ele>3.7</ele>
        <time>2020-03-11T10:35:53Z</time>
      </trkpt>
      <trkpt lat="45.87833" lon="-0.94699">
        <ele>3.8</ele>
        <time>2020-03-11T10:35:53Z</time>
      </trkpt>
      <trkpt lat="45.87817" lon="-0.94726">
        <ele>4.1</ele>
        <time>2020-03-11T10:35:53Z</time>
      </trkpt>
      <trkpt lat="45.87798" lon="-0.94763">
        <ele>4.3</ele>
        <time>2020-03-11T10:35:53Z</time>
      </trkpt>
      <trkpt lat="45.8778" lon="-0.94804">
        <ele>3.9</ele>
        <time>2020-03-11T10:35:53Z</time>
      </trkpt>
      <trkpt lat="45.87772" lon="-0.94828">
        <ele>3.8</ele>
        <time>2020-03-11T10:35:53Z</time>
      </trkpt>
      <trkpt lat="45.87763" lon="-0.94853">
        <ele>3.5</ele>
        <time>2020-03-11T10:35:53Z</time>
      </trkpt>
      <trkpt lat="45.87755" lon="-0.9488">
        <ele>4.5</ele>
        <time>2020-03-11T10:35:53Z</time>
      </trkpt>
      <trkpt lat="45.87741" lon="-0.94933">
        <ele>5.5</ele>
        <time>2020-03-11T10:35:53Z</time>
      </trkpt>
      <trkpt lat="45.87716" lon="-0.951">
        <ele>6.3</ele>
        <time>2020-03-11T10:35:53Z</time>
      </trkpt>
      <trkpt lat="45.87707" lon="-0.95165">
        <ele>6.1</ele>
        <time>2020-03-11T10:35:53Z</time>
      </trkpt>
      <trkpt lat="45.87696" lon="-0.95229">
        <ele>5.9</ele>
        <time>2020-03-11T10:35:53Z</time>
      </trkpt>
      <trkpt lat="45.87677" lon="-0.9536">
        <ele>4.6</ele>
        <time>2020-03-11T10:35:53Z</time>
      </trkpt>
      <trkpt lat="45.8767" lon="-0.95409">
        <ele>5.7</ele>
        <time>2020-03-11T10:35:53Z</time>
      </trkpt>
      <trkpt lat="45.87663" lon="-0.95458">
        <ele>6</ele>
        <time>2020-03-11T10:35:53Z</time>
      </trkpt>
      <trkpt lat="45.87652" lon="-0.95536">
        <ele>4.9</ele>
        <time>2020-03-11T10:35:53Z</time>
      </trkpt>
      <trkpt lat="45.87644" lon="-0.95592">
        <ele>5</ele>
        <time>2020-03-11T10:35:53Z</time>
      </trkpt>
      <trkpt lat="45.87638" lon="-0.95641">
        <ele>5.9</ele>
        <time>2020-03-11T10:35:53Z</time>
      </trkpt>
      <trkpt lat="45.87628" lon="-0.957">
        <ele>5.5</ele>
        <time>2020-03-11T10:35:53Z</time>
      </trkpt>
      <trkpt lat="45.87619" lon="-0.9576">
        <ele>5.7</ele>
        <time>2020-03-11T10:35:53Z</time>
      </trkpt>
      <trkpt lat="45.87611" lon="-0.95811">
        <ele>6</ele>
        <time>2020-03-11T10:35:53Z</time>
      </trkpt>
      <trkpt lat="45.87602" lon="-0.95868">
        <ele>6</ele>
        <time>2020-03-11T10:35:53Z</time>
      </trkpt>
      <trkpt lat="45.87589" lon="-0.95937">
        <ele>6.8</ele>
        <time>2020-03-11T10:35:53Z</time>
      </trkpt>
      <trkpt lat="45.87578" lon="-0.96001">
        <ele>7.2</ele>
        <time>2020-03-11T10:35:53Z</time>
      </trkpt>
      <trkpt lat="45.87565" lon="-0.96073">
        <ele>7.9</ele>
        <time>2020-03-11T10:35:53Z</time>
      </trkpt>
      <trkpt lat="45.87545" lon="-0.96179">
        <ele>9.7</ele>
        <time>2020-03-11T10:35:53Z</time>
      </trkpt>
      <trkpt lat="45.87534" lon="-0.96244">
        <ele>8.8</ele>
        <time>2020-03-11T10:35:53Z</time>
      </trkpt>
      <trkpt lat="45.87524" lon="-0.96293">
        <ele>8.9</ele>
        <time>2020-03-11T10:35:53Z</time>
      </trkpt>
      <trkpt lat="45.87517" lon="-0.96329">
        <ele>9.1</ele>
        <time>2020-03-11T10:35:53Z</time>
      </trkpt>
      <trkpt lat="45.8751" lon="-0.96363">
        <ele>7</ele>
        <time>2020-03-11T10:35:53Z</time>
      </trkpt>
      <trkpt lat="45.87505" lon="-0.96403">
        <ele>5.7</ele>
        <time>2020-03-11T10:35:53Z</time>
      </trkpt>
      <trkpt lat="45.875" lon="-0.96466">
        <ele>6</ele>
        <time>2020-03-11T10:35:53Z</time>
      </trkpt>
      <trkpt lat="45.87494" lon="-0.96505">
        <ele>6</ele>
        <time>2020-03-11T10:35:53Z</time>
      </trkpt>
      <trkpt lat="45.87485" lon="-0.96547">
        <ele>5.3</ele>
        <time>2020-03-11T10:35:53Z</time>
      </trkpt>
      <trkpt lat="45.87477" lon="-0.96575">
        <ele>4.8</ele>
        <time>2020-03-11T10:35:53Z</time>
      </trkpt>
      <trkpt lat="45.87464" lon="-0.96609">
        <ele>5.7</ele>
        <time>2020-03-11T10:35:53Z</time>
      </trkpt>
      <trkpt lat="45.87459" lon="-0.96636">
        <ele>6</ele>
        <time>2020-03-11T10:35:53Z</time>
      </trkpt>
      <trkpt lat="45.87453" lon="-0.96663">
        <ele>5.1</ele>
        <time>2020-03-11T10:35:53Z</time>
      </trkpt>
      <trkpt lat="45.87446" lon="-0.96697">
        <ele>4.8</ele>
        <time>2020-03-11T10:35:53Z</time>
      </trkpt>
      <trkpt lat="45.87439" lon="-0.96732">
        <ele>5.3</ele>
        <time>2020-03-11T10:35:53Z</time>
      </trkpt>
      <trkpt lat="45.87426" lon="-0.96781">
        <ele>4.3</ele>
        <time>2020-03-11T10:35:53Z</time>
      </trkpt>
      <trkpt lat="45.87413" lon="-0.96816">
        <ele>4.8</ele>
        <time>2020-03-11T10:35:53Z</time>
      </trkpt>
      <trkpt lat="45.87391" lon="-0.96874">
        <ele>4.4</ele>
        <time>2020-03-11T10:35:53Z</time>
      </trkpt>
      <trkpt lat="45.87362" lon="-0.96929">
        <ele>3.5</ele>
        <time>2020-03-11T10:35:53Z</time>
      </trkpt>
      <trkpt lat="45.87324" lon="-0.97003">
        <ele>3</ele>
        <time>2020-03-11T10:35:53Z</time>
      </trkpt>
      <trkpt lat="45.87297" lon="-0.97059">
        <ele>3</ele>
        <time>2020-03-11T10:35:53Z</time>
      </trkpt>
      <trkpt lat="45.87274" lon="-0.97106">
        <ele>3.2</ele>
        <time>2020-03-11T10:35:53Z</time>
      </trkpt>
      <trkpt lat="45.87245" lon="-0.9716">
        <ele>3.3</ele>
        <time>2020-03-11T10:35:53Z</time>
      </trkpt>
      <trkpt lat="45.87216" lon="-0.97219">
        <ele>3.3</ele>
        <time>2020-03-11T10:35:53Z</time>
      </trkpt>
      <trkpt lat="45.87194" lon="-0.97265">
        <ele>3</ele>
        <time>2020-03-11T10:35:53Z</time>
      </trkpt>
      <trkpt lat="45.87166" lon="-0.97322">
        <ele>3.4</ele>
        <time>2020-03-11T10:35:53Z</time>
      </trkpt>
      <trkpt lat="45.87143" lon="-0.97366">
        <ele>2.9</ele>
        <time>2020-03-11T10:35:53Z</time>
      </trkpt>
      <trkpt lat="45.87118" lon="-0.97418">
        <ele>2.8</ele>
        <time>2020-03-11T10:35:53Z</time>
      </trkpt>
      <trkpt lat="45.87099" lon="-0.97458">
        <ele>2.9</ele>
        <time>2020-03-11T10:35:53Z</time>
      </trkpt>
      <trkpt lat="45.87073" lon="-0.97508">
        <ele>2.8</ele>
        <time>2020-03-11T10:35:53Z</time>
      </trkpt>
      <trkpt lat="45.87046" lon="-0.97564">
        <ele>3</ele>
        <time>2020-03-11T10:35:53Z</time>
      </trkpt>
      <trkpt lat="45.87021" lon="-0.97613">
        <ele>2.9</ele>
        <time>2020-03-11T10:35:53Z</time>
      </trkpt>
      <trkpt lat="45.86999" lon="-0.97658">
        <ele>3.7</ele>
        <time>2020-03-11T10:35:53Z</time>
      </trkpt>
      <trkpt lat="45.86977" lon="-0.97702">
        <ele>3.1</ele>
        <time>2020-03-11T10:35:53Z</time>
      </trkpt>
      <trkpt lat="45.86954" lon="-0.97749">
        <ele>2.7</ele>
        <time>2020-03-11T10:35:53Z</time>
      </trkpt>
      <trkpt lat="45.86933" lon="-0.97793">
        <ele>2.7</ele>
        <time>2020-03-11T10:35:53Z</time>
      </trkpt>
      <trkpt lat="45.86909" lon="-0.97841">
        <ele>3.3</ele>
        <time>2020-03-11T10:35:53Z</time>
      </trkpt>
      <trkpt lat="45.86888" lon="-0.97882">
        <ele>3</ele>
        <time>2020-03-11T10:35:53Z</time>
      </trkpt>
      <trkpt lat="45.86863" lon="-0.97932">
        <ele>3.5</ele>
        <time>2020-03-11T10:35:53Z</time>
      </trkpt>
      <trkpt lat="45.86838" lon="-0.97985">
        <ele>3.3</ele>
        <time>2020-03-11T10:35:53Z</time>
      </trkpt>
      <trkpt lat="45.86814" lon="-0.98032">
        <ele>2.7</ele>
        <time>2020-03-11T10:35:53Z</time>
      </trkpt>
      <trkpt lat="45.86791" lon="-0.9808">
        <ele>2.6</ele>
        <time>2020-03-11T10:35:53Z</time>
      </trkpt>
      <trkpt lat="45.86768" lon="-0.98123">
        <ele>2.7</ele>
        <time>2020-03-11T10:35:53Z</time>
      </trkpt>
      <trkpt lat="45.8675" lon="-0.9816">
        <ele>3</ele>
        <time>2020-03-11T10:35:53Z</time>
      </trkpt>
      <trkpt lat="45.86735" lon="-0.98191">
        <ele>2.6</ele>
        <time>2020-03-11T10:35:53Z</time>
      </trkpt>
      <trkpt lat="45.86716" lon="-0.9823">
        <ele>3.3</ele>
        <time>2020-03-11T10:35:53Z</time>
      </trkpt>
      <trkpt lat="45.86697" lon="-0.98268">
        <ele>3.6</ele>
        <time>2020-03-11T10:35:53Z</time>
      </trkpt>
      <trkpt lat="45.86678" lon="-0.98305">
        <ele>2.6</ele>
        <time>2020-03-11T10:35:53Z</time>
      </trkpt>
      <trkpt lat="45.86655" lon="-0.98351">
        <ele>2.8</ele>
        <time>2020-03-11T10:35:53Z</time>
      </trkpt>
      <trkpt lat="45.86636" lon="-0.9839">
        <ele>3.8</ele>
        <time>2020-03-11T10:35:53Z</time>
      </trkpt>
      <trkpt lat="45.86611" lon="-0.98442">
        <ele>3</ele>
        <time>2020-03-11T10:35:53Z</time>
      </trkpt>
      <trkpt lat="45.86594" lon="-0.98477">
        <ele>2.7</ele>
        <time>2020-03-11T10:35:53Z</time>
      </trkpt>
      <trkpt lat="45.86571" lon="-0.98521">
        <ele>2.6</ele>
        <time>2020-03-11T10:35:53Z</time>
      </trkpt>
      <trkpt lat="45.86551" lon="-0.98563">
        <ele>2.7</ele>
        <time>2020-03-11T10:35:53Z</time>
      </trkpt>
      <trkpt lat="45.86529" lon="-0.98607">
        <ele>3</ele>
        <time>2020-03-11T10:35:53Z</time>
      </trkpt>
      <trkpt lat="45.86508" lon="-0.98648">
        <ele>3</ele>
        <time>2020-03-11T10:35:53Z</time>
      </trkpt>
      <trkpt lat="45.8649" lon="-0.98685">
        <ele>2.7</ele>
        <time>2020-03-11T10:35:53Z</time>
      </trkpt>
      <trkpt lat="45.86468" lon="-0.9873">
        <ele>3.4</ele>
        <time>2020-03-11T10:35:53Z</time>
      </trkpt>
      <trkpt lat="45.86448" lon="-0.9877">
        <ele>3.6</ele>
        <time>2020-03-11T10:35:53Z</time>
      </trkpt>
      <trkpt lat="45.86424" lon="-0.98815">
        <ele>3</ele>
        <time>2020-03-11T10:35:53Z</time>
      </trkpt>
      <trkpt lat="45.86407" lon="-0.98851">
        <ele>2.8</ele>
        <time>2020-03-11T10:35:53Z</time>
      </trkpt>
      <trkpt lat="45.86386" lon="-0.98894">
        <ele>2.8</ele>
        <time>2020-03-11T10:35:53Z</time>
      </trkpt>
      <trkpt lat="45.86369" lon="-0.98928">
        <ele>3.1</ele>
        <time>2020-03-11T10:35:53Z</time>
      </trkpt>
      <trkpt lat="45.86354" lon="-0.98958">
        <ele>3.4</ele>
        <time>2020-03-11T10:35:53Z</time>
      </trkpt>
      <trkpt lat="45.86338" lon="-0.9899">
        <ele>3.4</ele>
        <time>2020-03-11T10:35:53Z</time>
      </trkpt>
      <trkpt lat="45.86316" lon="-0.99032">
        <ele>2.6</ele>
        <time>2020-03-11T10:35:53Z</time>
      </trkpt>
      <trkpt lat="45.86306" lon="-0.99055">
        <ele>3</ele>
        <time>2020-03-11T10:35:53Z</time>
      </trkpt>
      <trkpt lat="45.86294" lon="-0.9908">
        <ele>2.4</ele>
        <time>2020-03-11T10:35:53Z</time>
      </trkpt>
      <trkpt lat="45.86271" lon="-0.99126">
        <ele>2.9</ele>
        <time>2020-03-11T10:35:53Z</time>
      </trkpt>
      <trkpt lat="45.86256" lon="-0.99156">
        <ele>2.8</ele>
        <time>2020-03-11T10:35:53Z</time>
      </trkpt>
      <trkpt lat="45.86243" lon="-0.9918">
        <ele>2.6</ele>
        <time>2020-03-11T10:35:53Z</time>
      </trkpt>
      <trkpt lat="45.86229" lon="-0.9921">
        <ele>2.8</ele>
        <time>2020-03-11T10:35:53Z</time>
      </trkpt>
      <trkpt lat="45.8621" lon="-0.99246">
        <ele>2.9</ele>
        <time>2020-03-11T10:35:53Z</time>
      </trkpt>
      <trkpt lat="45.86195" lon="-0.99278">
        <ele>3</ele>
        <time>2020-03-11T10:35:53Z</time>
      </trkpt>
      <trkpt lat="45.86173" lon="-0.99322">
        <ele>2.6</ele>
        <time>2020-03-11T10:35:53Z</time>
      </trkpt>
      <trkpt lat="45.86152" lon="-0.99364">
        <ele>2.5</ele>
        <time>2020-03-11T10:35:53Z</time>
      </trkpt>
      <trkpt lat="45.86134" lon="-0.994">
        <ele>2.6</ele>
        <time>2020-03-11T10:35:53Z</time>
      </trkpt>
      <trkpt lat="45.86116" lon="-0.99435">
        <ele>2.8</ele>
        <time>2020-03-11T10:35:53Z</time>
      </trkpt>
      <trkpt lat="45.861" lon="-0.99469">
        <ele>2.4</ele>
        <time>2020-03-11T10:35:53Z</time>
      </trkpt>
      <trkpt lat="45.86087" lon="-0.99496">
        <ele>2.9</ele>
        <time>2020-03-11T10:35:53Z</time>
      </trkpt>
      <trkpt lat="45.86072" lon="-0.99525">
        <ele>3</ele>
        <time>2020-03-11T10:35:53Z</time>
      </trkpt>
      <trkpt lat="45.86059" lon="-0.99553">
        <ele>2.9</ele>
        <time>2020-03-11T10:35:53Z</time>
      </trkpt>
      <trkpt lat="45.8604" lon="-0.99589">
        <ele>2.9</ele>
        <time>2020-03-11T10:35:53Z</time>
      </trkpt>
      <trkpt lat="45.86028" lon="-0.99612">
        <ele>3</ele>
        <time>2020-03-11T10:35:53Z</time>
      </trkpt>
      <trkpt lat="45.86007" lon="-0.99655">
        <ele>2.7</ele>
        <time>2020-03-11T10:35:53Z</time>
      </trkpt>
      <trkpt lat="45.85988" lon="-0.99694">
        <ele>2.6</ele>
        <time>2020-03-11T10:35:53Z</time>
      </trkpt>
      <trkpt lat="45.85962" lon="-0.99744">
        <ele>2.4</ele>
        <time>2020-03-11T10:35:53Z</time>
      </trkpt>
      <trkpt lat="45.85948" lon="-0.99775">
        <ele>2.9</ele>
        <time>2020-03-11T10:35:53Z</time>
      </trkpt>
      <trkpt lat="45.85928" lon="-0.99815">
        <ele>2.6</ele>
        <time>2020-03-11T10:35:53Z</time>
      </trkpt>
      <trkpt lat="45.85907" lon="-0.99857">
        <ele>2.4</ele>
        <time>2020-03-11T10:35:53Z</time>
      </trkpt>
      <trkpt lat="45.85886" lon="-0.99899">
        <ele>2.7</ele>
        <time>2020-03-11T10:35:53Z</time>
      </trkpt>
      <trkpt lat="45.85869" lon="-0.99932">
        <ele>2.7</ele>
        <time>2020-03-11T10:35:53Z</time>
      </trkpt>
      <trkpt lat="45.85853" lon="-0.99968">
        <ele>2.4</ele>
        <time>2020-03-11T10:35:53Z</time>
      </trkpt>
      <trkpt lat="45.85828" lon="-1.00016">
        <ele>3</ele>
        <time>2020-03-11T10:35:53Z</time>
      </trkpt>
      <trkpt lat="45.85803" lon="-1.00067">
        <ele>2.6</ele>
        <time>2020-03-11T10:35:53Z</time>
      </trkpt>
      <trkpt lat="45.8578" lon="-1.00114">
        <ele>2.8</ele>
        <time>2020-03-11T10:35:53Z</time>
      </trkpt>
      <trkpt lat="45.85756" lon="-1.00161">
        <ele>2.8</ele>
        <time>2020-03-11T10:35:53Z</time>
      </trkpt>
      <trkpt lat="45.85737" lon="-1.00199">
        <ele>2.5</ele>
        <time>2020-03-11T10:35:53Z</time>
      </trkpt>
      <trkpt lat="45.85718" lon="-1.00237">
        <ele>2.5</ele>
        <time>2020-03-11T10:35:53Z</time>
      </trkpt>
      <trkpt lat="45.85697" lon="-1.00282">
        <ele>2.9</ele>
        <time>2020-03-11T10:35:53Z</time>
      </trkpt>
      <trkpt lat="45.85676" lon="-1.00322">
        <ele>2.8</ele>
        <time>2020-03-11T10:35:53Z</time>
      </trkpt>
      <trkpt lat="45.85659" lon="-1.00356">
        <ele>2.4</ele>
        <time>2020-03-11T10:35:53Z</time>
      </trkpt>
      <trkpt lat="45.85642" lon="-1.00389">
        <ele>2.9</ele>
        <time>2020-03-11T10:35:53Z</time>
      </trkpt>
      <trkpt lat="45.85627" lon="-1.00419">
        <ele>3</ele>
        <time>2020-03-11T10:35:53Z</time>
      </trkpt>
      <trkpt lat="45.85613" lon="-1.0044">
        <ele>2.9</ele>
        <time>2020-03-11T10:35:53Z</time>
      </trkpt>
      <trkpt lat="45.85599" lon="-1.00462">
        <ele>2.6</ele>
        <time>2020-03-11T10:35:53Z</time>
      </trkpt>
      <trkpt lat="45.85578" lon="-1.00491">
        <ele>3</ele>
        <time>2020-03-11T10:35:53Z</time>
      </trkpt>
      <trkpt lat="45.85547" lon="-1.00528">
        <ele>3</ele>
        <time>2020-03-11T10:35:53Z</time>
      </trkpt>
      <trkpt lat="45.85523" lon="-1.00555">
        <ele>3</ele>
        <time>2020-03-11T10:35:53Z</time>
      </trkpt>
      <trkpt lat="45.85497" lon="-1.00581">
        <ele>3</ele>
        <time>2020-03-11T10:35:53Z</time>
      </trkpt>
      <trkpt lat="45.8547" lon="-1.00605">
        <ele>3</ele>
        <time>2020-03-11T10:35:53Z</time>
      </trkpt>
      <trkpt lat="45.85441" lon="-1.00632">
        <ele>3</ele>
        <time>2020-03-11T10:35:53Z</time>
      </trkpt>
      <trkpt lat="45.85414" lon="-1.0066">
        <ele>2.3</ele>
        <time>2020-03-11T10:35:53Z</time>
      </trkpt>
      <trkpt lat="45.85382" lon="-1.00691">
        <ele>2.3</ele>
        <time>2020-03-11T10:35:53Z</time>
      </trkpt>
      <trkpt lat="45.85364" lon="-1.00711">
        <ele>2.9</ele>
        <time>2020-03-11T10:35:53Z</time>
      </trkpt>
      <trkpt lat="45.85329" lon="-1.00744">
        <ele>3</ele>
        <time>2020-03-11T10:35:53Z</time>
      </trkpt>
      <trkpt lat="45.85311" lon="-1.00762">
        <ele>2.6</ele>
        <time>2020-03-11T10:35:53Z</time>
      </trkpt>
      <trkpt lat="45.85281" lon="-1.00793">
        <ele>2.9</ele>
        <time>2020-03-11T10:35:53Z</time>
      </trkpt>
      <trkpt lat="45.85265" lon="-1.00808">
        <ele>3</ele>
        <time>2020-03-11T10:35:53Z</time>
      </trkpt>
      <trkpt lat="45.85243" lon="-1.00828">
        <ele>3</ele>
        <time>2020-03-11T10:35:53Z</time>
      </trkpt>
      <trkpt lat="45.85221" lon="-1.00851">
        <ele>2.4</ele>
        <time>2020-03-11T10:35:53Z</time>
      </trkpt>
      <trkpt lat="45.85204" lon="-1.00867">
        <ele>2.7</ele>
        <time>2020-03-11T10:35:53Z</time>
      </trkpt>
      <trkpt lat="45.85187" lon="-1.00884">
        <ele>3</ele>
        <time>2020-03-11T10:35:53Z</time>
      </trkpt>
      <trkpt lat="45.85156" lon="-1.00917">
        <ele>2.4</ele>
        <time>2020-03-11T10:35:53Z</time>
      </trkpt>
      <trkpt lat="45.85134" lon="-1.00937">
        <ele>3</ele>
        <time>2020-03-11T10:35:53Z</time>
      </trkpt>
      <trkpt lat="45.85105" lon="-1.00967">
        <ele>3</ele>
        <time>2020-03-11T10:35:53Z</time>
      </trkpt>
      <trkpt lat="45.85064" lon="-1.01007">
        <ele>2.5</ele>
        <time>2020-03-11T10:35:53Z</time>
      </trkpt>
      <trkpt lat="45.85036" lon="-1.01033">
        <ele>2.7</ele>
        <time>2020-03-11T10:35:53Z</time>
      </trkpt>
      <trkpt lat="45.85011" lon="-1.0106">
        <ele>2.9</ele>
        <time>2020-03-11T10:35:53Z</time>
      </trkpt>
      <trkpt lat="45.84988" lon="-1.01083">
        <ele>3</ele>
        <time>2020-03-11T10:35:53Z</time>
      </trkpt>
      <trkpt lat="45.84956" lon="-1.01114">
        <ele>2.6</ele>
        <time>2020-03-11T10:35:53Z</time>
      </trkpt>
      <trkpt lat="45.8492" lon="-1.0115">
        <ele>3</ele>
        <time>2020-03-11T10:35:53Z</time>
      </trkpt>
      <trkpt lat="45.84882" lon="-1.01188">
        <ele>2.4</ele>
        <time>2020-03-11T10:35:53Z</time>
      </trkpt>
      <trkpt lat="45.84846" lon="-1.01223">
        <ele>2.5</ele>
        <time>2020-03-11T10:35:53Z</time>
      </trkpt>
      <trkpt lat="45.84809" lon="-1.01259">
        <ele>2.6</ele>
        <time>2020-03-11T10:35:53Z</time>
      </trkpt>
      <trkpt lat="45.84778" lon="-1.01291">
        <ele>2.5</ele>
        <time>2020-03-11T10:35:53Z</time>
      </trkpt>
      <trkpt lat="45.84739" lon="-1.0133">
        <ele>2.5</ele>
        <time>2020-03-11T10:35:53Z</time>
      </trkpt>
      <trkpt lat="45.84695" lon="-1.01374">
        <ele>2.5</ele>
        <time>2020-03-11T10:35:53Z</time>
      </trkpt>
      <trkpt lat="45.84648" lon="-1.01421">
        <ele>2.8</ele>
        <time>2020-03-11T10:35:53Z</time>
      </trkpt>
      <trkpt lat="45.84607" lon="-1.01462">
        <ele>2.5</ele>
        <time>2020-03-11T10:35:53Z</time>
      </trkpt>
      <trkpt lat="45.84579" lon="-1.01485">
        <ele>3</ele>
        <time>2020-03-11T10:35:53Z</time>
      </trkpt>
      <trkpt lat="45.84566" lon="-1.01513">
        <ele>2.8</ele>
        <time>2020-03-11T10:35:53Z</time>
      </trkpt>
      <trkpt lat="45.84579" lon="-1.01537">
        <ele>2.4</ele>
        <time>2020-03-11T10:35:53Z</time>
      </trkpt>
      <trkpt lat="45.84578" lon="-1.01563">
        <ele>2.9</ele>
        <time>2020-03-11T10:35:53Z</time>
      </trkpt>
      <trkpt lat="45.84561" lon="-1.01582">
        <ele>3</ele>
        <time>2020-03-11T10:35:53Z</time>
      </trkpt>
      <trkpt lat="45.84529" lon="-1.01627">
        <ele>2.6</ele>
        <time>2020-03-11T10:35:53Z</time>
      </trkpt>
      <trkpt lat="45.84499" lon="-1.01669">
        <ele>2.9</ele>
        <time>2020-03-11T10:35:53Z</time>
      </trkpt>
      <trkpt lat="45.84476" lon="-1.01702">
        <ele>2.2</ele>
        <time>2020-03-11T10:35:53Z</time>
      </trkpt>
      <trkpt lat="45.8442" lon="-1.0178">
        <ele>2.2</ele>
        <time>2020-03-11T10:35:53Z</time>
      </trkpt>
      <trkpt lat="45.8433" lon="-1.01905">
        <ele>2.5</ele>
        <time>2020-03-11T10:35:53Z</time>
      </trkpt>
      <trkpt lat="45.84231" lon="-1.02045">
        <ele>2.7</ele>
        <time>2020-03-11T10:35:53Z</time>
      </trkpt>
      <trkpt lat="45.8416" lon="-1.02149">
        <ele>2.8</ele>
        <time>2020-03-11T10:35:53Z</time>
      </trkpt>
      <trkpt lat="45.84057" lon="-1.02297">
        <ele>2.7</ele>
        <time>2020-03-11T10:35:53Z</time>
      </trkpt>
      <trkpt lat="45.83959" lon="-1.02436">
        <ele>3</ele>
        <time>2020-03-11T10:35:53Z</time>
      </trkpt>
      <trkpt lat="45.83939" lon="-1.02468">
        <ele>2.8</ele>
        <time>2020-03-11T10:35:53Z</time>
      </trkpt>
      <trkpt lat="45.83957" lon="-1.02488">
        <ele>3</ele>
        <time>2020-03-11T10:35:53Z</time>
      </trkpt>
      <trkpt lat="45.83983" lon="-1.02537">
        <ele>3</ele>
        <time>2020-03-11T10:35:53Z</time>
      </trkpt>
      <trkpt lat="45.83998" lon="-1.02563">
        <ele>3</ele>
        <time>2020-03-11T10:35:53Z</time>
      </trkpt>
      <trkpt lat="45.84012" lon="-1.02584">
        <ele>3</ele>
        <time>2020-03-11T10:35:53Z</time>
      </trkpt>
      <trkpt lat="45.84029" lon="-1.02603">
        <ele>3</ele>
        <time>2020-03-11T10:35:53Z</time>
      </trkpt>
      <trkpt lat="45.84052" lon="-1.02622">
        <ele>3</ele>
        <time>2020-03-11T10:35:53Z</time>
      </trkpt>
      <trkpt lat="45.84094" lon="-1.02654">
        <ele>3</ele>
        <time>2020-03-11T10:35:53Z</time>
      </trkpt>
      <trkpt lat="45.84128" lon="-1.02682">
        <ele>3</ele>
        <time>2020-03-11T10:35:53Z</time>
      </trkpt>
      <trkpt lat="45.84145" lon="-1.02709">
        <ele>2.9</ele>
        <time>2020-03-11T10:35:53Z</time>
      </trkpt>
      <trkpt lat="45.84152" lon="-1.02734">
        <ele>3</ele>
        <time>2020-03-11T10:35:53Z</time>
      </trkpt>
      <trkpt lat="45.84162" lon="-1.02772">
        <ele>3</ele>
        <time>2020-03-11T10:35:53Z</time>
      </trkpt>
      <trkpt lat="45.84163" lon="-1.02815">
        <ele>3</ele>
        <time>2020-03-11T10:35:53Z</time>
      </trkpt>
      <trkpt lat="45.84173" lon="-1.02847">
        <ele>3</ele>
        <time>2020-03-11T10:35:53Z</time>
      </trkpt>
      <trkpt lat="45.84189" lon="-1.02861">
        <ele>3</ele>
        <time>2020-03-11T10:35:53Z</time>
      </trkpt>
      <trkpt lat="45.84214" lon="-1.02876">
        <ele>3</ele>
        <time>2020-03-11T10:35:53Z</time>
      </trkpt>
      <trkpt lat="45.84237" lon="-1.02891">
        <ele>3</ele>
        <time>2020-03-11T10:35:53Z</time>
      </trkpt>
      <trkpt lat="45.84252" lon="-1.02907">
        <ele>3</ele>
        <time>2020-03-11T10:35:53Z</time>
      </trkpt>
      <trkpt lat="45.84287" lon="-1.02959">
        <ele>3</ele>
        <time>2020-03-11T10:35:53Z</time>
      </trkpt>
      <trkpt lat="45.84301" lon="-1.02979">
        <ele>3</ele>
        <time>2020-03-11T10:35:53Z</time>
      </trkpt>
      <trkpt lat="45.84332" lon="-1.02999">
        <ele>3</ele>
        <time>2020-03-11T10:35:53Z</time>
      </trkpt>
      <trkpt lat="45.84356" lon="-1.03014">
        <ele>3</ele>
        <time>2020-03-11T10:35:53Z</time>
      </trkpt>
      <trkpt lat="45.84367" lon="-1.03038">
        <ele>2.9</ele>
        <time>2020-03-11T10:35:53Z</time>
      </trkpt>
      <trkpt lat="45.84375" lon="-1.03092">
        <ele>2.7</ele>
        <time>2020-03-11T10:35:53Z</time>
      </trkpt>
      <trkpt lat="45.84386" lon="-1.03126">
        <ele>3</ele>
        <time>2020-03-11T10:35:53Z</time>
      </trkpt>
      <trkpt lat="45.84407" lon="-1.03143">
        <ele>3</ele>
        <time>2020-03-11T10:35:53Z</time>
      </trkpt>
      <trkpt lat="45.8443" lon="-1.03163">
        <ele>2.9</ele>
        <time>2020-03-11T10:35:53Z</time>
      </trkpt>
      <trkpt lat="45.8445" lon="-1.03185">
        <ele>2.9</ele>
        <time>2020-03-11T10:35:53Z</time>
      </trkpt>
      <trkpt lat="45.84474" lon="-1.03198">
        <ele>2.9</ele>
        <time>2020-03-11T10:35:53Z</time>
      </trkpt>
      <trkpt lat="45.84498" lon="-1.03223">
        <ele>3</ele>
        <time>2020-03-11T10:35:53Z</time>
      </trkpt>
      <trkpt lat="45.8457" lon="-1.03311">
        <ele>2.6</ele>
        <time>2020-03-11T10:35:53Z</time>
      </trkpt>
      <trkpt lat="45.84595" lon="-1.03346">
        <ele>2.8</ele>
        <time>2020-03-11T10:35:53Z</time>
      </trkpt>
      <trkpt lat="45.84608" lon="-1.03379">
        <ele>3</ele>
        <time>2020-03-11T10:35:53Z</time>
      </trkpt>
      <trkpt lat="45.84593" lon="-1.03402">
        <ele>2.8</ele>
        <time>2020-03-11T10:35:53Z</time>
      </trkpt>
      <trkpt lat="45.84567" lon="-1.03423">
        <ele>2.9</ele>
        <time>2020-03-11T10:35:53Z</time>
      </trkpt>
      <trkpt lat="45.8451" lon="-1.03471">
        <ele>2.6</ele>
        <time>2020-03-11T10:35:53Z</time>
      </trkpt>
      <trkpt lat="45.84485" lon="-1.03492">
        <ele>2.7</ele>
        <time>2020-03-11T10:35:53Z</time>
      </trkpt>
      <trkpt lat="45.84461" lon="-1.03514">
        <ele>2.5</ele>
        <time>2020-03-11T10:35:53Z</time>
      </trkpt>
      <trkpt lat="45.8442" lon="-1.03552">
        <ele>2.8</ele>
        <time>2020-03-11T10:35:53Z</time>
      </trkpt>
      <trkpt lat="45.84389" lon="-1.0358">
        <ele>3</ele>
        <time>2020-03-11T10:35:53Z</time>
      </trkpt>
      <trkpt lat="45.84349" lon="-1.03632">
        <ele>2.9</ele>
        <time>2020-03-11T10:35:53Z</time>
      </trkpt>
      <trkpt lat="45.84324" lon="-1.03666">
        <ele>3</ele>
        <time>2020-03-11T10:35:53Z</time>
      </trkpt>
      <trkpt lat="45.84307" lon="-1.03685">
        <ele>3</ele>
        <time>2020-03-11T10:35:53Z</time>
      </trkpt>
      <trkpt lat="45.84293" lon="-1.03702">
        <ele>2.9</ele>
        <time>2020-03-11T10:35:53Z</time>
      </trkpt>
      <trkpt lat="45.84269" lon="-1.03714">
        <ele>2.9</ele>
        <time>2020-03-11T10:35:53Z</time>
      </trkpt>
      <trkpt lat="45.84241" lon="-1.03702">
        <ele>2.4</ele>
        <time>2020-03-11T10:35:53Z</time>
      </trkpt>
      <trkpt lat="45.84214" lon="-1.03679">
        <ele>3</ele>
        <time>2020-03-11T10:35:53Z</time>
      </trkpt>
      <trkpt lat="45.84196" lon="-1.03664">
        <ele>3</ele>
        <time>2020-03-11T10:35:53Z</time>
      </trkpt>
      <trkpt lat="45.84176" lon="-1.03657">
        <ele>3</ele>
        <time>2020-03-11T10:35:53Z</time>
      </trkpt>
      <trkpt lat="45.84152" lon="-1.03656">
        <ele>3</ele>
        <time>2020-03-11T10:35:53Z</time>
      </trkpt>
      <trkpt lat="45.8413" lon="-1.03663">
        <ele>3</ele>
        <time>2020-03-11T10:35:53Z</time>
      </trkpt>
      <trkpt lat="45.84113" lon="-1.03686">
        <ele>3</ele>
        <time>2020-03-11T10:35:53Z</time>
      </trkpt>
      <trkpt lat="45.841" lon="-1.03707">
        <ele>3</ele>
        <time>2020-03-11T10:35:53Z</time>
      </trkpt>
      <trkpt lat="45.84089" lon="-1.03755">
        <ele>2.8</ele>
        <time>2020-03-11T10:35:53Z</time>
      </trkpt>
      <trkpt lat="45.84078" lon="-1.0378">
        <ele>2.8</ele>
        <time>2020-03-11T10:35:53Z</time>
      </trkpt>
      <trkpt lat="45.8406" lon="-1.03804">
        <ele>3</ele>
        <time>2020-03-11T10:35:53Z</time>
      </trkpt>
      <trkpt lat="45.84057" lon="-1.03848">
        <ele>2.9</ele>
        <time>2020-03-11T10:35:53Z</time>
      </trkpt>
      <trkpt lat="45.84052" lon="-1.03877">
        <ele>2.9</ele>
        <time>2020-03-11T10:35:53Z</time>
      </trkpt>
      <trkpt lat="45.84038" lon="-1.03903">
        <ele>2.7</ele>
        <time>2020-03-11T10:35:53Z</time>
      </trkpt>
      <trkpt lat="45.84014" lon="-1.03919">
        <ele>3</ele>
        <time>2020-03-11T10:35:53Z</time>
      </trkpt>
      <trkpt lat="45.83994" lon="-1.03931">
        <ele>2.9</ele>
        <time>2020-03-11T10:35:53Z</time>
      </trkpt>
      <trkpt lat="45.83979" lon="-1.03947">
        <ele>3</ele>
        <time>2020-03-11T10:35:53Z</time>
      </trkpt>
      <trkpt lat="45.83962" lon="-1.03966">
        <ele>2.9</ele>
        <time>2020-03-11T10:35:53Z</time>
      </trkpt>
      <trkpt lat="45.83939" lon="-1.03995">
        <ele>2.8</ele>
        <time>2020-03-11T10:35:53Z</time>
      </trkpt>
      <trkpt lat="45.83927" lon="-1.04019">
        <ele>2.8</ele>
        <time>2020-03-11T10:35:53Z</time>
      </trkpt>
      <trkpt lat="45.83926" lon="-1.04059">
        <ele>3</ele>
        <time>2020-03-11T10:35:53Z</time>
      </trkpt>
      <trkpt lat="45.8393" lon="-1.04099">
        <ele>3</ele>
        <time>2020-03-11T10:35:53Z</time>
      </trkpt>
      <trkpt lat="45.83952" lon="-1.04129">
        <ele>3</ele>
        <time>2020-03-11T10:35:53Z</time>
      </trkpt>
      <trkpt lat="45.83978" lon="-1.0416">
        <ele>3</ele>
        <time>2020-03-11T10:35:53Z</time>
      </trkpt>
      <trkpt lat="45.8401" lon="-1.04195">
        <ele>2.6</ele>
        <time>2020-03-11T10:35:53Z</time>
      </trkpt>
      <trkpt lat="45.84034" lon="-1.04221">
        <ele>3</ele>
        <time>2020-03-11T10:35:53Z</time>
      </trkpt>
      <trkpt lat="45.84066" lon="-1.04256">
        <ele>3</ele>
        <time>2020-03-11T10:35:53Z</time>
      </trkpt>
      <trkpt lat="45.84103" lon="-1.04302">
        <ele>3</ele>
        <time>2020-03-11T10:35:53Z</time>
      </trkpt>
      <trkpt lat="45.84116" lon="-1.04323">
        <ele>3</ele>
        <time>2020-03-11T10:35:53Z</time>
      </trkpt>
      <trkpt lat="45.84128" lon="-1.04351">
        <ele>2.8</ele>
        <time>2020-03-11T10:35:53Z</time>
      </trkpt>
      <trkpt lat="45.84128" lon="-1.04379">
        <ele>2.9</ele>
        <time>2020-03-11T10:35:53Z</time>
      </trkpt>
      <trkpt lat="45.84096" lon="-1.04418">
        <ele>2.4</ele>
        <time>2020-03-11T10:35:53Z</time>
      </trkpt>
      <trkpt lat="45.84073" lon="-1.04436">
        <ele>2.3</ele>
        <time>2020-03-11T10:35:53Z</time>
      </trkpt>
      <trkpt lat="45.84044" lon="-1.04461">
        <ele>3</ele>
        <time>2020-03-11T10:35:53Z</time>
      </trkpt>
      <trkpt lat="45.84028" lon="-1.04483">
        <ele>3</ele>
        <time>2020-03-11T10:35:53Z</time>
      </trkpt>
      <trkpt lat="45.84015" lon="-1.04508">
        <ele>3</ele>
        <time>2020-03-11T10:35:53Z</time>
      </trkpt>
      <trkpt lat="45.84002" lon="-1.04541">
        <ele>3</ele>
        <time>2020-03-11T10:35:53Z</time>
      </trkpt>
      <trkpt lat="45.83994" lon="-1.04598">
        <ele>2.5</ele>
        <time>2020-03-11T10:35:53Z</time>
      </trkpt>
      <trkpt lat="45.83983" lon="-1.04641">
        <ele>3</ele>
        <time>2020-03-11T10:35:53Z</time>
      </trkpt>
      <trkpt lat="45.83963" lon="-1.04663">
        <ele>3</ele>
        <time>2020-03-11T10:35:53Z</time>
      </trkpt>
      <trkpt lat="45.83945" lon="-1.04667">
        <ele>3</ele>
        <time>2020-03-11T10:35:53Z</time>
      </trkpt>
      <trkpt lat="45.83923" lon="-1.04674">
        <ele>3</ele>
        <time>2020-03-11T10:35:53Z</time>
      </trkpt>
      <trkpt lat="45.83901" lon="-1.04677">
        <ele>3</ele>
        <time>2020-03-11T10:35:53Z</time>
      </trkpt>
      <trkpt lat="45.83874" lon="-1.04682">
        <ele>3</ele>
        <time>2020-03-11T10:35:53Z</time>
      </trkpt>
      <trkpt lat="45.83855" lon="-1.04686">
        <ele>3</ele>
        <time>2020-03-11T10:35:53Z</time>
      </trkpt>
      <trkpt lat="45.83811" lon="-1.0469">
        <ele>3</ele>
        <time>2020-03-11T10:35:53Z</time>
      </trkpt>
      <trkpt lat="45.83783" lon="-1.04691">
        <ele>3</ele>
        <time>2020-03-11T10:35:53Z</time>
      </trkpt>
      <trkpt lat="45.83763" lon="-1.04704">
        <ele>3</ele>
        <time>2020-03-11T10:35:53Z</time>
      </trkpt>
      <trkpt lat="45.8375" lon="-1.04727">
        <ele>3</ele>
        <time>2020-03-11T10:35:53Z</time>
      </trkpt>
      <trkpt lat="45.8374" lon="-1.04753">
        <ele>2.7</ele>
        <time>2020-03-11T10:35:53Z</time>
      </trkpt>
      <trkpt lat="45.83731" lon="-1.04781">
        <ele>3</ele>
        <time>2020-03-11T10:35:53Z</time>
      </trkpt>
      <trkpt lat="45.83711" lon="-1.04817">
        <ele>3</ele>
        <time>2020-03-11T10:35:53Z</time>
      </trkpt>
      <trkpt lat="45.83691" lon="-1.0484">
        <ele>3</ele>
        <time>2020-03-11T10:35:53Z</time>
      </trkpt>
      <trkpt lat="45.8367" lon="-1.0488">
        <ele>3</ele>
        <time>2020-03-11T10:35:53Z</time>
      </trkpt>
      <trkpt lat="45.83657" lon="-1.04909">
        <ele>2.9</ele>
        <time>2020-03-11T10:35:53Z</time>
      </trkpt>
      <trkpt lat="45.83641" lon="-1.04937">
        <ele>3</ele>
        <time>2020-03-11T10:35:53Z</time>
      </trkpt>
      <trkpt lat="45.83617" lon="-1.04972">
        <ele>3</ele>
        <time>2020-03-11T10:35:53Z</time>
      </trkpt>
      <trkpt lat="45.83587" lon="-1.04998">
        <ele>2.9</ele>
        <time>2020-03-11T10:35:53Z</time>
      </trkpt>
      <trkpt lat="45.83555" lon="-1.05043">
        <ele>3</ele>
        <time>2020-03-11T10:35:53Z</time>
      </trkpt>
      <trkpt lat="45.83536" lon="-1.0508">
        <ele>2.9</ele>
        <time>2020-03-11T10:35:53Z</time>
      </trkpt>
      <trkpt lat="45.83506" lon="-1.05142">
        <ele>3</ele>
        <time>2020-03-11T10:35:53Z</time>
      </trkpt>
      <trkpt lat="45.83462" lon="-1.05247">
        <ele>2.6</ele>
        <time>2020-03-11T10:35:53Z</time>
      </trkpt>
      <trkpt lat="45.83446" lon="-1.05282">
        <ele>2.9</ele>
        <time>2020-03-11T10:35:53Z</time>
      </trkpt>
      <trkpt lat="45.83436" lon="-1.05305">
        <ele>2.7</ele>
        <time>2020-03-11T10:35:53Z</time>
      </trkpt>
      <trkpt lat="45.83424" lon="-1.05325">
        <ele>2.6</ele>
        <time>2020-03-11T10:35:53Z</time>
      </trkpt>
      <trkpt lat="45.83403" lon="-1.05355">
        <ele>2.9</ele>
        <time>2020-03-11T10:35:53Z</time>
      </trkpt>
      <trkpt lat="45.83379" lon="-1.05374">
        <ele>3</ele>
        <time>2020-03-11T10:35:53Z</time>
      </trkpt>
      <trkpt lat="45.83369" lon="-1.05397">
        <ele>2.8</ele>
        <time>2020-03-11T10:35:53Z</time>
      </trkpt>
      <trkpt lat="45.83382" lon="-1.05417">
        <ele>2.8</ele>
        <time>2020-03-11T10:35:53Z</time>
      </trkpt>
      <trkpt lat="45.83404" lon="-1.0546">
        <ele>2.7</ele>
        <time>2020-03-11T10:35:53Z</time>
      </trkpt>
      <trkpt lat="45.83417" lon="-1.05486">
        <ele>3</ele>
        <time>2020-03-11T10:35:53Z</time>
      </trkpt>
      <trkpt lat="45.83432" lon="-1.05512">
        <ele>2.8</ele>
        <time>2020-03-11T10:35:53Z</time>
      </trkpt>
      <trkpt lat="45.83446" lon="-1.0554">
        <ele>3</ele>
        <time>2020-03-11T10:35:53Z</time>
      </trkpt>
      <trkpt lat="45.83452" lon="-1.05565">
        <ele>2.8</ele>
        <time>2020-03-11T10:35:53Z</time>
      </trkpt>
      <trkpt lat="45.8346" lon="-1.05594">
        <ele>2.6</ele>
        <time>2020-03-11T10:35:53Z</time>
      </trkpt>
      <trkpt lat="45.8347" lon="-1.05624">
        <ele>2.9</ele>
        <time>2020-03-11T10:35:53Z</time>
      </trkpt>
      <trkpt lat="45.83478" lon="-1.05649">
        <ele>2.6</ele>
        <time>2020-03-11T10:35:53Z</time>
      </trkpt>
      <trkpt lat="45.83495" lon="-1.05691">
        <ele>2.8</ele>
        <time>2020-03-11T10:35:53Z</time>
      </trkpt>
      <trkpt lat="45.83497" lon="-1.05717">
        <ele>2.9</ele>
        <time>2020-03-11T10:35:53Z</time>
      </trkpt>
      <trkpt lat="45.83491" lon="-1.05754">
        <ele>2.7</ele>
        <time>2020-03-11T10:35:53Z</time>
      </trkpt>
      <trkpt lat="45.83477" lon="-1.05789">
        <ele>3</ele>
        <time>2020-03-11T10:35:53Z</time>
      </trkpt>
      <trkpt lat="45.83463" lon="-1.05807">
        <ele>2.7</ele>
        <time>2020-03-11T10:35:53Z</time>
      </trkpt>
      <trkpt lat="45.83442" lon="-1.05818">
        <ele>2.6</ele>
        <time>2020-03-11T10:35:53Z</time>
      </trkpt>
      <trkpt lat="45.83419" lon="-1.05828">
        <ele>3.9</ele>
        <time>2020-03-11T10:35:53Z</time>
      </trkpt>
      <trkpt lat="45.83384" lon="-1.05801">
        <ele>5.5</ele>
        <time>2020-03-11T10:35:53Z</time>
      </trkpt>
      <trkpt lat="45.83352" lon="-1.05785">
        <ele>7.4</ele>
        <time>2020-03-11T10:35:53Z</time>
      </trkpt>
      <trkpt lat="45.83326" lon="-1.05778">
        <ele>8.5</ele>
        <time>2020-03-11T10:35:53Z</time>
      </trkpt>
      <trkpt lat="45.83299" lon="-1.05769">
        <ele>8.8</ele>
        <time>2020-03-11T10:35:53Z</time>
      </trkpt>
      <trkpt lat="45.83275" lon="-1.05774">
        <ele>8.2</ele>
        <time>2020-03-11T10:35:53Z</time>
      </trkpt>
      <trkpt lat="45.83255" lon="-1.05791">
        <ele>6.1</ele>
        <time>2020-03-11T10:35:53Z</time>
      </trkpt>
      <trkpt lat="45.83238" lon="-1.0581">
        <ele>4.9</ele>
        <time>2020-03-11T10:35:53Z</time>
      </trkpt>
      <trkpt lat="45.83203" lon="-1.0586">
        <ele>3</ele>
        <time>2020-03-11T10:35:53Z</time>
      </trkpt>
      <trkpt lat="45.83179" lon="-1.05882">
        <ele>2.5</ele>
        <time>2020-03-11T10:35:53Z</time>
      </trkpt>
      <trkpt lat="45.83157" lon="-1.05905">
        <ele>2.5</ele>
        <time>2020-03-11T10:35:53Z</time>
      </trkpt>
      <trkpt lat="45.83137" lon="-1.05921">
        <ele>2.8</ele>
        <time>2020-03-11T10:35:53Z</time>
      </trkpt>
      <trkpt lat="45.83104" lon="-1.0594">
        <ele>2.6</ele>
        <time>2020-03-11T10:35:53Z</time>
      </trkpt>
      <trkpt lat="45.83082" lon="-1.05952">
        <ele>2</ele>
        <time>2020-03-11T10:35:53Z</time>
      </trkpt>
      <trkpt lat="45.83057" lon="-1.05956">
        <ele>2</ele>
        <time>2020-03-11T10:35:53Z</time>
      </trkpt>
      <trkpt lat="45.83021" lon="-1.0597">
        <ele>2.7</ele>
        <time>2020-03-11T10:35:53Z</time>
      </trkpt>
      <trkpt lat="45.83001" lon="-1.05986">
        <ele>2</ele>
        <time>2020-03-11T10:35:53Z</time>
      </trkpt>
      <trkpt lat="45.82984" lon="-1.06002">
        <ele>2</ele>
        <time>2020-03-11T10:35:53Z</time>
      </trkpt>
      <trkpt lat="45.82967" lon="-1.06035">
        <ele>2</ele>
        <time>2020-03-11T10:35:53Z</time>
      </trkpt>
      <trkpt lat="45.82951" lon="-1.06062">
        <ele>2.2</ele>
        <time>2020-03-11T10:35:53Z</time>
      </trkpt>
      <trkpt lat="45.8291" lon="-1.06071">
        <ele>2</ele>
        <time>2020-03-11T10:35:53Z</time>
      </trkpt>
      <trkpt lat="45.82881" lon="-1.0607">
        <ele>2</ele>
        <time>2020-03-11T10:35:53Z</time>
      </trkpt>
      <trkpt lat="45.82848" lon="-1.06066">
        <ele>2.2</ele>
        <time>2020-03-11T10:35:53Z</time>
      </trkpt>
      <trkpt lat="45.82827" lon="-1.06083">
        <ele>2.8</ele>
        <time>2020-03-11T10:35:53Z</time>
      </trkpt>
      <trkpt lat="45.82813" lon="-1.0611">
        <ele>2.7</ele>
        <time>2020-03-11T10:35:53Z</time>
      </trkpt>
      <trkpt lat="45.828" lon="-1.0614">
        <ele>3</ele>
        <time>2020-03-11T10:35:53Z</time>
      </trkpt>
      <trkpt lat="45.82783" lon="-1.06174">
        <ele>2.8</ele>
        <time>2020-03-11T10:35:53Z</time>
      </trkpt>
      <trkpt lat="45.82851" lon="-1.06279">
        <ele>2.6</ele>
        <time>2020-03-11T10:35:53Z</time>
      </trkpt>
      <trkpt lat="45.82985" lon="-1.06486">
        <ele>2.7</ele>
        <time>2020-03-11T10:35:53Z</time>
      </trkpt>
      <trkpt lat="45.83164" lon="-1.06763">
        <ele>2.5</ele>
        <time>2020-03-11T10:35:53Z</time>
      </trkpt>
      <trkpt lat="45.83268" lon="-1.06922">
        <ele>2.6</ele>
        <time>2020-03-11T10:35:53Z</time>
      </trkpt>
      <trkpt lat="45.83343" lon="-1.0704">
        <ele>2.7</ele>
        <time>2020-03-11T10:35:53Z</time>
      </trkpt>
      <trkpt lat="45.8345" lon="-1.07208">
        <ele>2.5</ele>
        <time>2020-03-11T10:35:53Z</time>
      </trkpt>
      <trkpt lat="45.83433" lon="-1.07236">
        <ele>2.5</ele>
        <time>2020-03-11T10:35:53Z</time>
      </trkpt>
      <trkpt lat="45.83421" lon="-1.07262">
        <ele>2.5</ele>
        <time>2020-03-11T10:35:53Z</time>
      </trkpt>
      <trkpt lat="45.83326" lon="-1.07512">
        <ele>3</ele>
        <time>2020-03-11T10:35:53Z</time>
      </trkpt>
      <trkpt lat="45.83163" lon="-1.07942">
        <ele>3</ele>
        <time>2020-03-11T10:35:53Z</time>
      </trkpt>
      <trkpt lat="45.83104" lon="-1.08095">
        <ele>6</ele>
        <time>2020-03-11T10:35:53Z</time>
      </trkpt>
      <trkpt lat="45.83038" lon="-1.08268">
        <ele>6.6</ele>
        <time>2020-03-11T10:35:53Z</time>
      </trkpt>
      <trkpt lat="45.82988" lon="-1.08399">
        <ele>6</ele>
        <time>2020-03-11T10:35:53Z</time>
      </trkpt>
      <trkpt lat="45.82979" lon="-1.08425">
        <ele>6</ele>
        <time>2020-03-11T10:35:53Z</time>
      </trkpt>
      <trkpt lat="45.8297" lon="-1.08449">
        <ele>6</ele>
        <time>2020-03-11T10:35:53Z</time>
      </trkpt>
      <trkpt lat="45.82961" lon="-1.08495">
        <ele>6</ele>
        <time>2020-03-11T10:35:53Z</time>
      </trkpt>
      <trkpt lat="45.82935" lon="-1.0845">
        <ele>5.9</ele>
        <time>2020-03-11T10:35:53Z</time>
      </trkpt>
      <trkpt lat="45.82921" lon="-1.08423">
        <ele>5.3</ele>
        <time>2020-03-11T10:35:53Z</time>
      </trkpt>
      <trkpt lat="45.82897" lon="-1.08394">
        <ele>5</ele>
        <time>2020-03-11T10:35:53Z</time>
      </trkpt>
      <trkpt lat="45.82844" lon="-1.08468">
        <ele>5</ele>
        <time>2020-03-11T10:35:53Z</time>
      </trkpt>
      <trkpt lat="45.82817" lon="-1.08504">
        <ele>5</ele>
        <time>2020-03-11T10:35:53Z</time>
      </trkpt>
      <trkpt lat="45.82803" lon="-1.08524">
        <ele>5</ele>
        <time>2020-03-11T10:35:53Z</time>
      </trkpt>
      <trkpt lat="45.82767" lon="-1.08553">
        <ele>5.6</ele>
        <time>2020-03-11T10:35:53Z</time>
      </trkpt>
      <trkpt lat="45.82744" lon="-1.08565">
        <ele>5.3</ele>
        <time>2020-03-11T10:35:53Z</time>
      </trkpt>
      <trkpt lat="45.82681" lon="-1.08586">
        <ele>4.6</ele>
        <time>2020-03-11T10:35:53Z</time>
      </trkpt>
      <trkpt lat="45.82646" lon="-1.08602">
        <ele>4.7</ele>
        <time>2020-03-11T10:35:53Z</time>
      </trkpt>
      <trkpt lat="45.82622" lon="-1.08619">
        <ele>4.6</ele>
        <time>2020-03-11T10:35:53Z</time>
      </trkpt>
      <trkpt lat="45.82594" lon="-1.08642">
        <ele>5</ele>
        <time>2020-03-11T10:35:53Z</time>
      </trkpt>
      <trkpt lat="45.82576" lon="-1.08658">
        <ele>5</ele>
        <time>2020-03-11T10:35:53Z</time>
      </trkpt>
      <trkpt lat="45.82586" lon="-1.08682">
        <ele>5.5</ele>
        <time>2020-03-11T10:35:53Z</time>
      </trkpt>
      <trkpt lat="45.82604" lon="-1.08716">
        <ele>5.8</ele>
        <time>2020-03-11T10:35:53Z</time>
      </trkpt>
      <trkpt lat="45.82614" lon="-1.0874">
        <ele>6</ele>
        <time>2020-03-11T10:35:53Z</time>
      </trkpt>
      <trkpt lat="45.82639" lon="-1.08799">
        <ele>7</ele>
        <time>2020-03-11T10:35:53Z</time>
      </trkpt>
      <trkpt lat="45.82652" lon="-1.08835">
        <ele>8</ele>
        <time>2020-03-11T10:35:53Z</time>
      </trkpt>
      <trkpt lat="45.82657" lon="-1.08882">
        <ele>8.3</ele>
        <time>2020-03-11T10:35:53Z</time>
      </trkpt>
      <trkpt lat="45.82659" lon="-1.08928">
        <ele>9.3</ele>
        <time>2020-03-11T10:35:53Z</time>
      </trkpt>
      <trkpt lat="45.82665" lon="-1.08953">
        <ele>9.3</ele>
        <time>2020-03-11T10:35:53Z</time>
      </trkpt>
      <trkpt lat="45.82688" lon="-1.08996">
        <ele>10</ele>
        <time>2020-03-11T10:35:53Z</time>
      </trkpt>
      <trkpt lat="45.82722" lon="-1.09057">
        <ele>11.1</ele>
        <time>2020-03-11T10:35:53Z</time>
      </trkpt>
      <trkpt lat="45.82738" lon="-1.09086">
        <ele>12</ele>
        <time>2020-03-11T10:35:53Z</time>
      </trkpt>
      <trkpt lat="45.8277" lon="-1.09117">
        <ele>13.5</ele>
        <time>2020-03-11T10:35:53Z</time>
      </trkpt>
      <trkpt lat="45.82801" lon="-1.09142">
        <ele>14.7</ele>
        <time>2020-03-11T10:35:53Z</time>
      </trkpt>
      <trkpt lat="45.82856" lon="-1.0919">
        <ele>13.9</ele>
        <time>2020-03-11T10:35:53Z</time>
      </trkpt>
      <trkpt lat="45.8291" lon="-1.09219">
        <ele>14</ele>
        <time>2020-03-11T10:35:53Z</time>
      </trkpt>
      <trkpt lat="45.82946" lon="-1.09253">
        <ele>15</ele>
        <time>2020-03-11T10:35:53Z</time>
      </trkpt>
      <trkpt lat="45.83009" lon="-1.09325">
        <ele>15</ele>
        <time>2020-03-11T10:35:53Z</time>
      </trkpt>
      <trkpt lat="45.83041" lon="-1.09373">
        <ele>15.2</ele>
        <time>2020-03-11T10:35:53Z</time>
      </trkpt>
      <trkpt lat="45.83066" lon="-1.09412">
        <ele>15.5</ele>
        <time>2020-03-11T10:35:53Z</time>
      </trkpt>
      <trkpt lat="45.8312" lon="-1.09525">
        <ele>16</ele>
        <time>2020-03-11T10:35:53Z</time>
      </trkpt>
      <trkpt lat="45.83149" lon="-1.09585">
        <ele>17</ele>
        <time>2020-03-11T10:35:53Z</time>
      </trkpt>
      <trkpt lat="45.83167" lon="-1.09631">
        <ele>17</ele>
        <time>2020-03-11T10:35:53Z</time>
      </trkpt>
      <trkpt lat="45.83178" lon="-1.09705">
        <ele>17.4</ele>
        <time>2020-03-11T10:35:53Z</time>
      </trkpt>
      <trkpt lat="45.8321" lon="-1.09689">
        <ele>18</ele>
        <time>2020-03-11T10:35:53Z</time>
      </trkpt>
      <trkpt lat="45.83237" lon="-1.09673">
        <ele>18.5</ele>
        <time>2020-03-11T10:35:53Z</time>
      </trkpt>
      <trkpt lat="45.83259" lon="-1.09653">
        <ele>18.7</ele>
        <time>2020-03-11T10:35:53Z</time>
      </trkpt>
      <trkpt lat="45.83294" lon="-1.09715">
        <ele>19.4</ele>
        <time>2020-03-11T10:35:53Z</time>
      </trkpt>
      <trkpt lat="45.83307" lon="-1.09755">
        <ele>19.2</ele>
        <time>2020-03-11T10:35:53Z</time>
      </trkpt>
      <trkpt lat="45.83328" lon="-1.09804">
        <ele>20</ele>
        <time>2020-03-11T10:35:53Z</time>
      </trkpt>
      <trkpt lat="45.83339" lon="-1.09832">
        <ele>20</ele>
        <time>2020-03-11T10:35:53Z</time>
      </trkpt>
      <trkpt lat="45.83399" lon="-1.09799">
        <ele>21</ele>
        <time>2020-03-11T10:35:53Z</time>
      </trkpt>
      <trkpt lat="45.83408" lon="-1.09829">
        <ele>21</ele>
        <time>2020-03-11T10:35:53Z</time>
      </trkpt>
      <trkpt lat="45.83426" lon="-1.09878">
        <ele>21</ele>
        <time>2020-03-11T10:35:53Z</time>
      </trkpt>
      <trkpt lat="45.83439" lon="-1.09921">
        <ele>21</ele>
        <time>2020-03-11T10:35:53Z</time>
      </trkpt>
      <trkpt lat="45.83447" lon="-1.09952">
        <ele>20.9</ele>
        <time>2020-03-11T10:35:53Z</time>
      </trkpt>
      <trkpt lat="45.83455" lon="-1.0998">
        <ele>20.6</ele>
        <time>2020-03-11T10:35:53Z</time>
      </trkpt>
      <trkpt lat="45.83466" lon="-1.10003">
        <ele>20.3</ele>
        <time>2020-03-11T10:35:53Z</time>
      </trkpt>
      <trkpt lat="45.83485" lon="-1.1004">
        <ele>20.5</ele>
        <time>2020-03-11T10:35:53Z</time>
      </trkpt>
      <trkpt lat="45.83474" lon="-1.10077">
        <ele>20.9</ele>
        <time>2020-03-11T10:35:53Z</time>
      </trkpt>
      <trkpt lat="45.83511" lon="-1.10128">
        <ele>20.6</ele>
        <time>2020-03-11T10:35:53Z</time>
      </trkpt>
      <trkpt lat="45.83495" lon="-1.10151">
        <ele>20.5</ele>
        <time>2020-03-11T10:35:53Z</time>
      </trkpt>
      <trkpt lat="45.83475" lon="-1.1018">
        <ele>20</ele>
        <time>2020-03-11T10:35:53Z</time>
      </trkpt>
      <trkpt lat="45.83485" lon="-1.10222">
        <ele>19.5</ele>
        <time>2020-03-11T10:35:53Z</time>
      </trkpt>
      <trkpt lat="45.83504" lon="-1.10262">
        <ele>19</ele>
        <time>2020-03-11T10:35:53Z</time>
      </trkpt>
      <trkpt lat="45.83515" lon="-1.10283">
        <ele>19</ele>
        <time>2020-03-11T10:35:53Z</time>
      </trkpt>
      <trkpt lat="45.83525" lon="-1.10314">
        <ele>19</ele>
        <time>2020-03-11T10:35:53Z</time>
      </trkpt>
      <trkpt lat="45.83526" lon="-1.10357">
        <ele>18.9</ele>
        <time>2020-03-11T10:35:53Z</time>
      </trkpt>
      <trkpt lat="45.83525" lon="-1.10391">
        <ele>18</ele>
        <time>2020-03-11T10:35:53Z</time>
      </trkpt>
      <trkpt lat="45.83538" lon="-1.1043">
        <ele>18</ele>
        <time>2020-03-11T10:35:53Z</time>
      </trkpt>
      <trkpt lat="45.83559" lon="-1.10466">
        <ele>18</ele>
        <time>2020-03-11T10:35:53Z</time>
      </trkpt>
      <trkpt lat="45.83594" lon="-1.10527">
        <ele>17.6</ele>
        <time>2020-03-11T10:35:53Z</time>
      </trkpt>
      <trkpt lat="45.83608" lon="-1.10559">
        <ele>17</ele>
        <time>2020-03-11T10:35:53Z</time>
      </trkpt>
      <trkpt lat="45.83621" lon="-1.10595">
        <ele>17.3</ele>
        <time>2020-03-11T10:35:53Z</time>
      </trkpt>
      <trkpt lat="45.8363" lon="-1.10623">
        <ele>17.3</ele>
        <time>2020-03-11T10:35:53Z</time>
      </trkpt>
      <trkpt lat="45.83636" lon="-1.1065">
        <ele>17.5</ele>
        <time>2020-03-11T10:35:53Z</time>
      </trkpt>
      <trkpt lat="45.8365" lon="-1.10708">
        <ele>17.6</ele>
        <time>2020-03-11T10:35:53Z</time>
      </trkpt>
      <trkpt lat="45.83659" lon="-1.1076">
        <ele>17.2</ele>
        <time>2020-03-11T10:35:53Z</time>
      </trkpt>
      <trkpt lat="45.83675" lon="-1.10832">
        <ele>17.3</ele>
        <time>2020-03-11T10:35:53Z</time>
      </trkpt>
      <trkpt lat="45.83682" lon="-1.10895">
        <ele>17.4</ele>
        <time>2020-03-11T10:35:53Z</time>
      </trkpt>
      <trkpt lat="45.83685" lon="-1.10974">
        <ele>17</ele>
        <time>2020-03-11T10:35:53Z</time>
      </trkpt>
      <trkpt lat="45.83688" lon="-1.11021">
        <ele>17</ele>
        <time>2020-03-11T10:35:53Z</time>
      </trkpt>
      <trkpt lat="45.83698" lon="-1.11057">
        <ele>17</ele>
        <time>2020-03-11T10:35:53Z</time>
      </trkpt>
      <trkpt lat="45.83709" lon="-1.11086">
        <ele>17.1</ele>
        <time>2020-03-11T10:35:53Z</time>
      </trkpt>
      <trkpt lat="45.83726" lon="-1.11127">
        <ele>17.4</ele>
        <time>2020-03-11T10:35:53Z</time>
      </trkpt>
      <trkpt lat="45.83739" lon="-1.11211">
        <ele>17</ele>
        <time>2020-03-11T10:35:53Z</time>
      </trkpt>
      <trkpt lat="45.83743" lon="-1.11246">
        <ele>16.1</ele>
        <time>2020-03-11T10:35:53Z</time>
      </trkpt>
      <trkpt lat="45.83742" lon="-1.11282">
        <ele>16</ele>
        <time>2020-03-11T10:35:53Z</time>
      </trkpt>
      <trkpt lat="45.83743" lon="-1.11337">
        <ele>16</ele>
        <time>2020-03-11T10:35:53Z</time>
      </trkpt>
      <trkpt lat="45.83632" lon="-1.11322">
        <ele>14.6</ele>
        <time>2020-03-11T10:35:53Z</time>
      </trkpt>
      <trkpt lat="45.83538" lon="-1.11309">
        <ele>14</ele>
        <time>2020-03-11T10:35:53Z</time>
      </trkpt>
      <trkpt lat="45.83486" lon="-1.113">
        <ele>13</ele>
        <time>2020-03-11T10:35:53Z</time>
      </trkpt>
      <trkpt lat="45.83434" lon="-1.11292">
        <ele>12.6</ele>
        <time>2020-03-11T10:35:53Z</time>
      </trkpt>
      <trkpt lat="45.83416" lon="-1.11289">
        <ele>12</ele>
        <time>2020-03-11T10:35:53Z</time>
      </trkpt>
      <trkpt lat="45.83336" lon="-1.11278">
        <ele>10</ele>
        <time>2020-03-11T10:35:53Z</time>
      </trkpt>
      <trkpt lat="45.83304" lon="-1.11277">
        <ele>10</ele>
        <time>2020-03-11T10:35:53Z</time>
      </trkpt>
      <trkpt lat="45.83276" lon="-1.11283">
        <ele>9.9</ele>
        <time>2020-03-11T10:35:53Z</time>
      </trkpt>
      <trkpt lat="45.83234" lon="-1.11303">
        <ele>9.9</ele>
        <time>2020-03-11T10:35:53Z</time>
      </trkpt>
      <trkpt lat="45.83197" lon="-1.11334">
        <ele>10</ele>
        <time>2020-03-11T10:35:53Z</time>
      </trkpt>
      <trkpt lat="45.83177" lon="-1.1135">
        <ele>10</ele>
        <time>2020-03-11T10:35:53Z</time>
      </trkpt>
      <trkpt lat="45.83164" lon="-1.11371">
        <ele>10</ele>
        <time>2020-03-11T10:35:53Z</time>
      </trkpt>
      <trkpt lat="45.83148" lon="-1.11441">
        <ele>9.9</ele>
        <time>2020-03-11T10:35:53Z</time>
      </trkpt>
      <trkpt lat="45.83143" lon="-1.11471">
        <ele>10.1</ele>
        <time>2020-03-11T10:35:53Z</time>
      </trkpt>
      <trkpt lat="45.8312" lon="-1.11495">
        <ele>10</ele>
        <time>2020-03-11T10:35:53Z</time>
      </trkpt>
      <trkpt lat="45.83106" lon="-1.11514">
        <ele>10.2</ele>
        <time>2020-03-11T10:35:53Z</time>
      </trkpt>
      <trkpt lat="45.83102" lon="-1.11541">
        <ele>10.3</ele>
        <time>2020-03-11T10:35:53Z</time>
      </trkpt>
      <trkpt lat="45.8309" lon="-1.11729">
        <ele>13</ele>
        <time>2020-03-11T10:35:53Z</time>
      </trkpt>
      <trkpt lat="45.83083" lon="-1.11844">
        <ele>13</ele>
        <time>2020-03-11T10:35:53Z</time>
      </trkpt>
      <trkpt lat="45.83077" lon="-1.11887">
        <ele>13</ele>
        <time>2020-03-11T10:35:53Z</time>
      </trkpt>
      <trkpt lat="45.83073" lon="-1.1192">
        <ele>13</ele>
        <time>2020-03-11T10:35:53Z</time>
      </trkpt>
      <trkpt lat="45.83076" lon="-1.11991">
        <ele>12.3</ele>
        <time>2020-03-11T10:35:53Z</time>
      </trkpt>
      <trkpt lat="45.83079" lon="-1.12037">
        <ele>12</ele>
        <time>2020-03-11T10:35:53Z</time>
      </trkpt>
      <trkpt lat="45.83086" lon="-1.12078">
        <ele>12</ele>
        <time>2020-03-11T10:35:53Z</time>
      </trkpt>
      <trkpt lat="45.83069" lon="-1.12093">
        <ele>11.8</ele>
        <time>2020-03-11T10:35:53Z</time>
      </trkpt>
      <trkpt lat="45.83056" lon="-1.1207">
        <ele>12</ele>
        <time>2020-03-11T10:35:53Z</time>
      </trkpt>
      <trkpt lat="45.83039" lon="-1.12057">
        <ele>11.4</ele>
        <time>2020-03-11T10:35:53Z</time>
      </trkpt>
      <trkpt lat="45.83026" lon="-1.12034">
        <ele>11.7</ele>
        <time>2020-03-11T10:35:53Z</time>
      </trkpt>
      <trkpt lat="45.83014" lon="-1.12013">
        <ele>11.8</ele>
        <time>2020-03-11T10:35:53Z</time>
      </trkpt>
      <trkpt lat="45.82995" lon="-1.12011">
        <ele>11.5</ele>
        <time>2020-03-11T10:35:53Z</time>
      </trkpt>
      <trkpt lat="45.82976" lon="-1.12025">
        <ele>11</ele>
        <time>2020-03-11T10:35:53Z</time>
      </trkpt>
      <trkpt lat="45.82904" lon="-1.1209">
        <ele>8.9</ele>
        <time>2020-03-11T10:35:53Z</time>
      </trkpt>
      <trkpt lat="45.82809" lon="-1.12191">
        <ele>8</ele>
        <time>2020-03-11T10:35:53Z</time>
      </trkpt>
      <trkpt lat="45.82791" lon="-1.12206">
        <ele>7.6</ele>
        <time>2020-03-11T10:35:53Z</time>
      </trkpt>
      <trkpt lat="45.82751" lon="-1.12252">
        <ele>7</ele>
        <time>2020-03-11T10:35:53Z</time>
      </trkpt>
      <trkpt lat="45.82674" lon="-1.12327">
        <ele>6</ele>
        <time>2020-03-11T10:35:53Z</time>
      </trkpt>
      <trkpt lat="45.82646" lon="-1.12354">
        <ele>6</ele>
        <time>2020-03-11T10:35:53Z</time>
      </trkpt>
      <trkpt lat="45.82627" lon="-1.12365">
        <ele>6</ele>
        <time>2020-03-11T10:35:53Z</time>
      </trkpt>
      <trkpt lat="45.82602" lon="-1.12383">
        <ele>6</ele>
        <time>2020-03-11T10:35:53Z</time>
      </trkpt>
      <trkpt lat="45.82533" lon="-1.12443">
        <ele>5</ele>
        <time>2020-03-11T10:35:53Z</time>
      </trkpt>
      <trkpt lat="45.82465" lon="-1.12494">
        <ele>5</ele>
        <time>2020-03-11T10:35:53Z</time>
      </trkpt>
      <trkpt lat="45.8241" lon="-1.12546">
        <ele>4.4</ele>
        <time>2020-03-11T10:35:53Z</time>
      </trkpt>
      <trkpt lat="45.82389" lon="-1.12567">
        <ele>5</ele>
        <time>2020-03-11T10:35:53Z</time>
      </trkpt>
      <trkpt lat="45.82335" lon="-1.1264">
        <ele>4</ele>
        <time>2020-03-11T10:35:53Z</time>
      </trkpt>
      <trkpt lat="45.82297" lon="-1.12701">
        <ele>4</ele>
        <time>2020-03-11T10:35:53Z</time>
      </trkpt>
      <trkpt lat="45.82261" lon="-1.12765">
        <ele>3.8</ele>
        <time>2020-03-11T10:35:53Z</time>
      </trkpt>
      <trkpt lat="45.82252" lon="-1.12807">
        <ele>3.9</ele>
        <time>2020-03-11T10:35:53Z</time>
      </trkpt>
      <trkpt lat="45.82244" lon="-1.12834">
        <ele>4</ele>
        <time>2020-03-11T10:35:53Z</time>
      </trkpt>
      <trkpt lat="45.82226" lon="-1.12839">
        <ele>4</ele>
        <time>2020-03-11T10:35:53Z</time>
      </trkpt>
      <trkpt lat="45.82186" lon="-1.129">
        <ele>3.7</ele>
        <time>2020-03-11T10:35:53Z</time>
      </trkpt>
      <trkpt lat="45.82154" lon="-1.12946">
        <ele>3.5</ele>
        <time>2020-03-11T10:35:53Z</time>
      </trkpt>
      <trkpt lat="45.82138" lon="-1.12969">
        <ele>4</ele>
        <time>2020-03-11T10:35:53Z</time>
      </trkpt>
      <trkpt lat="45.82118" lon="-1.12991">
        <ele>3.8</ele>
        <time>2020-03-11T10:35:53Z</time>
      </trkpt>
      <trkpt lat="45.82097" lon="-1.13014">
        <ele>3.3</ele>
        <time>2020-03-11T10:35:53Z</time>
      </trkpt>
      <trkpt lat="45.82072" lon="-1.13037">
        <ele>3.6</ele>
        <time>2020-03-11T10:35:53Z</time>
      </trkpt>
      <trkpt lat="45.82033" lon="-1.13067">
        <ele>3.5</ele>
        <time>2020-03-11T10:35:53Z</time>
      </trkpt>
      <trkpt lat="45.81998" lon="-1.13087">
        <ele>3.7</ele>
        <time>2020-03-11T10:35:53Z</time>
      </trkpt>
      <trkpt lat="45.81965" lon="-1.13103">
        <ele>3.4</ele>
        <time>2020-03-11T10:35:53Z</time>
      </trkpt>
      <trkpt lat="45.81917" lon="-1.13121">
        <ele>3.6</ele>
        <time>2020-03-11T10:35:53Z</time>
      </trkpt>
      <trkpt lat="45.81863" lon="-1.13139">
        <ele>3.9</ele>
        <time>2020-03-11T10:35:53Z</time>
      </trkpt>
      <trkpt lat="45.81641" lon="-1.13214">
        <ele>3.7</ele>
        <time>2020-03-11T10:35:53Z</time>
      </trkpt>
      <trkpt lat="45.81549" lon="-1.13245">
        <ele>4</ele>
        <time>2020-03-11T10:35:53Z</time>
      </trkpt>
      <trkpt lat="45.81503" lon="-1.13262">
        <ele>4</ele>
        <time>2020-03-11T10:35:53Z</time>
      </trkpt>
      <trkpt lat="45.81483" lon="-1.13272">
        <ele>4</ele>
        <time>2020-03-11T10:35:53Z</time>
      </trkpt>
      <trkpt lat="45.81456" lon="-1.13282">
        <ele>4.2</ele>
        <time>2020-03-11T10:35:53Z</time>
      </trkpt>
      <trkpt lat="45.81417" lon="-1.13291">
        <ele>4</ele>
        <time>2020-03-11T10:35:53Z</time>
      </trkpt>
      <trkpt lat="45.81386" lon="-1.13301">
        <ele>4</ele>
        <time>2020-03-11T10:35:53Z</time>
      </trkpt>
      <trkpt lat="45.81376" lon="-1.13327">
        <ele>4.4</ele>
        <time>2020-03-11T10:35:53Z</time>
      </trkpt>
      <trkpt lat="45.81347" lon="-1.13332">
        <ele>4</ele>
        <time>2020-03-11T10:35:53Z</time>
      </trkpt>
      <trkpt lat="45.81327" lon="-1.13322">
        <ele>4</ele>
        <time>2020-03-11T10:35:53Z</time>
      </trkpt>
      <trkpt lat="45.81299" lon="-1.13328">
        <ele>4</ele>
        <time>2020-03-11T10:35:53Z</time>
      </trkpt>
      <trkpt lat="45.81266" lon="-1.13334">
        <ele>4</ele>
        <time>2020-03-11T10:35:53Z</time>
      </trkpt>
      <trkpt lat="45.81233" lon="-1.13336">
        <ele>4</ele>
        <time>2020-03-11T10:35:53Z</time>
      </trkpt>
      <trkpt lat="45.8119" lon="-1.13334">
        <ele>3.8</ele>
        <time>2020-03-11T10:35:53Z</time>
      </trkpt>
      <trkpt lat="45.81164" lon="-1.13329">
        <ele>3.2</ele>
        <time>2020-03-11T10:35:53Z</time>
      </trkpt>
      <trkpt lat="45.81134" lon="-1.13322">
        <ele>3.4</ele>
        <time>2020-03-11T10:35:53Z</time>
      </trkpt>
      <trkpt lat="45.81103" lon="-1.13316">
        <ele>3.6</ele>
        <time>2020-03-11T10:35:53Z</time>
      </trkpt>
      <trkpt lat="45.81077" lon="-1.1331">
        <ele>3.8</ele>
        <time>2020-03-11T10:35:53Z</time>
      </trkpt>
      <trkpt lat="45.81053" lon="-1.13305">
        <ele>4</ele>
        <time>2020-03-11T10:35:53Z</time>
      </trkpt>
      <trkpt lat="45.81021" lon="-1.13299">
        <ele>4</ele>
        <time>2020-03-11T10:35:53Z</time>
      </trkpt>
      <trkpt lat="45.8099" lon="-1.13291">
        <ele>4</ele>
        <time>2020-03-11T10:35:53Z</time>
      </trkpt>
      <trkpt lat="45.80964" lon="-1.13285">
        <ele>4</ele>
        <time>2020-03-11T10:35:53Z</time>
      </trkpt>
      <trkpt lat="45.80939" lon="-1.13281">
        <ele>4</ele>
        <time>2020-03-11T10:35:53Z</time>
      </trkpt>
      <trkpt lat="45.80912" lon="-1.13275">
        <ele>3.9</ele>
        <time>2020-03-11T10:35:53Z</time>
      </trkpt>
      <trkpt lat="45.80886" lon="-1.13269">
        <ele>3.9</ele>
        <time>2020-03-11T10:35:53Z</time>
      </trkpt>
      <trkpt lat="45.80846" lon="-1.13261">
        <ele>3.4</ele>
        <time>2020-03-11T10:35:53Z</time>
      </trkpt>
      <trkpt lat="45.80819" lon="-1.13255">
        <ele>3.5</ele>
        <time>2020-03-11T10:35:53Z</time>
      </trkpt>
      <trkpt lat="45.80787" lon="-1.13249">
        <ele>4</ele>
        <time>2020-03-11T10:35:53Z</time>
      </trkpt>
      <trkpt lat="45.80762" lon="-1.13246">
        <ele>4</ele>
        <time>2020-03-11T10:35:53Z</time>
      </trkpt>
      <trkpt lat="45.80743" lon="-1.1324">
        <ele>4</ele>
        <time>2020-03-11T10:35:53Z</time>
      </trkpt>
      <trkpt lat="45.80708" lon="-1.13235">
        <ele>3.8</ele>
        <time>2020-03-11T10:35:53Z</time>
      </trkpt>
      <trkpt lat="45.80687" lon="-1.1323">
        <ele>3.8</ele>
        <time>2020-03-11T10:35:53Z</time>
      </trkpt>
      <trkpt lat="45.80659" lon="-1.13221">
        <ele>4</ele>
        <time>2020-03-11T10:35:53Z</time>
      </trkpt>
      <trkpt lat="45.80639" lon="-1.13216">
        <ele>4</ele>
        <time>2020-03-11T10:35:53Z</time>
      </trkpt>
      <trkpt lat="45.80601" lon="-1.13209">
        <ele>4</ele>
        <time>2020-03-11T10:35:53Z</time>
      </trkpt>
      <trkpt lat="45.8058" lon="-1.13204">
        <ele>4</ele>
        <time>2020-03-11T10:35:53Z</time>
      </trkpt>
      <trkpt lat="45.80554" lon="-1.13199">
        <ele>3.8</ele>
        <time>2020-03-11T10:35:53Z</time>
      </trkpt>
      <trkpt lat="45.80524" lon="-1.13193">
        <ele>3</ele>
        <time>2020-03-11T10:35:53Z</time>
      </trkpt>
      <trkpt lat="45.805" lon="-1.13189">
        <ele>3.2</ele>
        <time>2020-03-11T10:35:53Z</time>
      </trkpt>
      <trkpt lat="45.80478" lon="-1.13188">
        <ele>3.8</ele>
        <time>2020-03-11T10:35:53Z</time>
      </trkpt>
      <trkpt lat="45.80459" lon="-1.13189">
        <ele>4</ele>
        <time>2020-03-11T10:35:53Z</time>
      </trkpt>
      <trkpt lat="45.8044" lon="-1.13191">
        <ele>4</ele>
        <time>2020-03-11T10:35:53Z</time>
      </trkpt>
      <trkpt lat="45.80409" lon="-1.13196">
        <ele>3.9</ele>
        <time>2020-03-11T10:35:53Z</time>
      </trkpt>
      <trkpt lat="45.80387" lon="-1.13202">
        <ele>3.7</ele>
        <time>2020-03-11T10:35:53Z</time>
      </trkpt>
      <trkpt lat="45.80365" lon="-1.13211">
        <ele>3.9</ele>
        <time>2020-03-11T10:35:53Z</time>
      </trkpt>
      <trkpt lat="45.80344" lon="-1.13222">
        <ele>4</ele>
        <time>2020-03-11T10:35:53Z</time>
      </trkpt>
      <trkpt lat="45.80321" lon="-1.13236">
        <ele>3.5</ele>
        <time>2020-03-11T10:35:53Z</time>
      </trkpt>
      <trkpt lat="45.80303" lon="-1.13249">
        <ele>4</ele>
        <time>2020-03-11T10:35:53Z</time>
      </trkpt>
      <trkpt lat="45.80283" lon="-1.13267">
        <ele>3.9</ele>
        <time>2020-03-11T10:35:53Z</time>
      </trkpt>
      <trkpt lat="45.80263" lon="-1.13286">
        <ele>3.7</ele>
        <time>2020-03-11T10:35:53Z</time>
      </trkpt>
      <trkpt lat="45.80243" lon="-1.13309">
        <ele>4.2</ele>
        <time>2020-03-11T10:35:53Z</time>
      </trkpt>
      <trkpt lat="45.80221" lon="-1.13342">
        <ele>4.7</ele>
        <time>2020-03-11T10:35:53Z</time>
      </trkpt>
      <trkpt lat="45.80202" lon="-1.13354">
        <ele>5.2</ele>
        <time>2020-03-11T10:35:53Z</time>
      </trkpt>
      <trkpt lat="45.80162" lon="-1.13426">
        <ele>3.6</ele>
        <time>2020-03-11T10:35:53Z</time>
      </trkpt>
      <trkpt lat="45.8002" lon="-1.1368">
        <ele>1</ele>
        <time>2020-03-11T10:35:53Z</time>
      </trkpt>
      <trkpt lat="45.79738" lon="-1.14188">
        <ele>1.3</ele>
        <time>2020-03-11T10:35:53Z</time>
      </trkpt>
      <trkpt lat="45.79684" lon="-1.14291">
        <ele>3.6</ele>
        <time>2020-03-11T10:35:53Z</time>
      </trkpt>
      <trkpt lat="45.79626" lon="-1.14395">
        <ele>7.7</ele>
        <time>2020-03-11T10:35:53Z</time>
      </trkpt>
      <trkpt lat="45.79593" lon="-1.14455">
        <ele>8.2</ele>
        <time>2020-03-11T10:35:53Z</time>
      </trkpt>
      <trkpt lat="45.79388" lon="-1.14825">
        <ele>6</ele>
        <time>2020-03-11T10:35:53Z</time>
      </trkpt>
      <trkpt lat="45.79341" lon="-1.14902">
        <ele>5.3</ele>
        <time>2020-03-11T10:35:53Z</time>
      </trkpt>
      <trkpt lat="45.79308" lon="-1.14964">
        <ele>5</ele>
        <time>2020-03-11T10:35:53Z</time>
      </trkpt>
      <trkpt lat="45.79298" lon="-1.14987">
        <ele>5</ele>
        <time>2020-03-11T10:35:53Z</time>
      </trkpt>
      <trkpt lat="45.79224" lon="-1.15078">
        <ele>5.2</ele>
        <time>2020-03-11T10:35:53Z</time>
      </trkpt>
      <trkpt lat="45.79201" lon="-1.15103">
        <ele>5.8</ele>
        <time>2020-03-11T10:35:53Z</time>
      </trkpt>
      <trkpt lat="45.7917" lon="-1.15134">
        <ele>6</ele>
        <time>2020-03-11T10:35:53Z</time>
      </trkpt>
      <trkpt lat="45.79131" lon="-1.15169">
        <ele>5.9</ele>
        <time>2020-03-11T10:35:53Z</time>
      </trkpt>
      <trkpt lat="45.79088" lon="-1.15204">
        <ele>5.9</ele>
        <time>2020-03-11T10:35:53Z</time>
      </trkpt>
      <trkpt lat="45.79049" lon="-1.15237">
        <ele>5.6</ele>
        <time>2020-03-11T10:35:53Z</time>
      </trkpt>
      <trkpt lat="45.78978" lon="-1.15301">
        <ele>6.2</ele>
        <time>2020-03-11T10:35:53Z</time>
      </trkpt>
      <trkpt lat="45.78918" lon="-1.15357">
        <ele>5</ele>
        <time>2020-03-11T10:35:53Z</time>
      </trkpt>
      <trkpt lat="45.78901" lon="-1.15373">
        <ele>5</ele>
        <time>2020-03-11T10:35:53Z</time>
      </trkpt>
      <trkpt lat="45.78856" lon="-1.15409">
        <ele>4.9</ele>
        <time>2020-03-11T10:35:53Z</time>
      </trkpt>
      <trkpt lat="45.78829" lon="-1.1543">
        <ele>4.8</ele>
        <time>2020-03-11T10:35:53Z</time>
      </trkpt>
      <trkpt lat="45.78795" lon="-1.1545">
        <ele>4.1</ele>
        <time>2020-03-11T10:35:53Z</time>
      </trkpt>
      <trkpt lat="45.78774" lon="-1.15466">
        <ele>4</ele>
        <time>2020-03-11T10:35:53Z</time>
      </trkpt>
      <trkpt lat="45.78744" lon="-1.15488">
        <ele>3.9</ele>
        <time>2020-03-11T10:35:53Z</time>
      </trkpt>
      <trkpt lat="45.78725" lon="-1.15507">
        <ele>3.7</ele>
        <time>2020-03-11T10:35:53Z</time>
      </trkpt>
      <trkpt lat="45.78689" lon="-1.15551">
        <ele>3</ele>
        <time>2020-03-11T10:35:53Z</time>
      </trkpt>
      <trkpt lat="45.78655" lon="-1.15597">
        <ele>3</ele>
        <time>2020-03-11T10:35:53Z</time>
      </trkpt>
      <trkpt lat="45.78628" lon="-1.15635">
        <ele>3.3</ele>
        <time>2020-03-11T10:35:53Z</time>
      </trkpt>
      <trkpt lat="45.78614" lon="-1.15654">
        <ele>3.4</ele>
        <time>2020-03-11T10:35:53Z</time>
      </trkpt>
      <trkpt lat="45.78594" lon="-1.15683">
        <ele>3.4</ele>
        <time>2020-03-11T10:35:53Z</time>
      </trkpt>
      <trkpt lat="45.78593" lon="-1.15719">
        <ele>4</ele>
        <time>2020-03-11T10:35:53Z</time>
      </trkpt>
      <trkpt lat="45.7861" lon="-1.15739">
        <ele>4.6</ele>
        <time>2020-03-11T10:35:53Z</time>
      </trkpt>
      <trkpt lat="45.78711" lon="-1.15789">
        <ele>6</ele>
        <time>2020-03-11T10:35:53Z</time>
      </trkpt>
      <trkpt lat="45.78731" lon="-1.158">
        <ele>6</ele>
        <time>2020-03-11T10:35:53Z</time>
      </trkpt>
      <trkpt lat="45.78775" lon="-1.15822">
        <ele>6</ele>
        <time>2020-03-11T10:35:53Z</time>
      </trkpt>
      <trkpt lat="45.78801" lon="-1.15837">
        <ele>6</ele>
        <time>2020-03-11T10:35:53Z</time>
      </trkpt>
      <trkpt lat="45.78845" lon="-1.15861">
        <ele>6</ele>
        <time>2020-03-11T10:35:53Z</time>
      </trkpt>
      <trkpt lat="45.78866" lon="-1.15873">
        <ele>6.1</ele>
        <time>2020-03-11T10:35:53Z</time>
      </trkpt>
      <trkpt lat="45.78925" lon="-1.15905">
        <ele>7</ele>
        <time>2020-03-11T10:35:53Z</time>
      </trkpt>
      <trkpt lat="45.78944" lon="-1.15915">
        <ele>7</ele>
        <time>2020-03-11T10:35:53Z</time>
      </trkpt>
      <trkpt lat="45.78987" lon="-1.15939">
        <ele>7.3</ele>
        <time>2020-03-11T10:35:53Z</time>
      </trkpt>
      <trkpt lat="45.79024" lon="-1.15959">
        <ele>7</ele>
        <time>2020-03-11T10:35:53Z</time>
      </trkpt>
      <trkpt lat="45.79051" lon="-1.15973">
        <ele>7</ele>
        <time>2020-03-11T10:35:53Z</time>
      </trkpt>
      <trkpt lat="45.79087" lon="-1.15993">
        <ele>7</ele>
        <time>2020-03-11T10:35:53Z</time>
      </trkpt>
      <trkpt lat="45.79134" lon="-1.1602">
        <ele>7.4</ele>
        <time>2020-03-11T10:35:53Z</time>
      </trkpt>
      <trkpt lat="45.79156" lon="-1.16031">
        <ele>7.9</ele>
        <time>2020-03-11T10:35:53Z</time>
      </trkpt>
      <trkpt lat="45.79175" lon="-1.16042">
        <ele>7.9</ele>
        <time>2020-03-11T10:35:53Z</time>
      </trkpt>
      <trkpt lat="45.79207" lon="-1.1606">
        <ele>9.8</ele>
        <time>2020-03-11T10:35:53Z</time>
      </trkpt>
      <trkpt lat="45.79236" lon="-1.16077">
        <ele>9</ele>
        <time>2020-03-11T10:35:53Z</time>
      </trkpt>
      <trkpt lat="45.7925" lon="-1.16096">
        <ele>8</ele>
        <time>2020-03-11T10:35:53Z</time>
      </trkpt>
      <trkpt lat="45.79257" lon="-1.16121">
        <ele>8</ele>
        <time>2020-03-11T10:35:53Z</time>
      </trkpt>
      <trkpt lat="45.7929" lon="-1.16169">
        <ele>6.6</ele>
        <time>2020-03-11T10:35:53Z</time>
      </trkpt>
      <trkpt lat="45.79293" lon="-1.16198">
        <ele>7.1</ele>
        <time>2020-03-11T10:35:53Z</time>
      </trkpt>
      <trkpt lat="45.79301" lon="-1.16243">
        <ele>8.2</ele>
        <time>2020-03-11T10:35:53Z</time>
      </trkpt>
      <trkpt lat="45.79311" lon="-1.16297">
        <ele>9</ele>
        <time>2020-03-11T10:35:53Z</time>
      </trkpt>
      <trkpt lat="45.7931" lon="-1.16336">
        <ele>9.4</ele>
        <time>2020-03-11T10:35:53Z</time>
      </trkpt>
      <trkpt lat="45.79304" lon="-1.1639">
        <ele>8.9</ele>
        <time>2020-03-11T10:35:53Z</time>
      </trkpt>
      <trkpt lat="45.79295" lon="-1.16419">
        <ele>8.7</ele>
        <time>2020-03-11T10:35:53Z</time>
      </trkpt>
      <trkpt lat="45.79279" lon="-1.16466">
        <ele>9.1</ele>
        <time>2020-03-11T10:35:53Z</time>
      </trkpt>
      <trkpt lat="45.79235" lon="-1.16595">
        <ele>9.3</ele>
        <time>2020-03-11T10:35:53Z</time>
      </trkpt>
      <trkpt lat="45.79218" lon="-1.16643">
        <ele>8.9</ele>
        <time>2020-03-11T10:35:53Z</time>
      </trkpt>
      <trkpt lat="45.79189" lon="-1.16719">
        <ele>8.2</ele>
        <time>2020-03-11T10:35:53Z</time>
      </trkpt>
      <trkpt lat="45.79156" lon="-1.16817">
        <ele>8.4</ele>
        <time>2020-03-11T10:35:53Z</time>
      </trkpt>
      <trkpt lat="45.79144" lon="-1.16854">
        <ele>8</ele>
        <time>2020-03-11T10:35:53Z</time>
      </trkpt>
      <trkpt lat="45.79134" lon="-1.16883">
        <ele>8.9</ele>
        <time>2020-03-11T10:35:53Z</time>
      </trkpt>
      <trkpt lat="45.79074" lon="-1.17051">
        <ele>7.7</ele>
        <time>2020-03-11T10:35:53Z</time>
      </trkpt>
      <trkpt lat="45.79055" lon="-1.17107">
        <ele>8</ele>
        <time>2020-03-11T10:35:53Z</time>
      </trkpt>
      <trkpt lat="45.79007" lon="-1.17243">
        <ele>11.2</ele>
        <time>2020-03-11T10:35:53Z</time>
      </trkpt>
      <trkpt lat="45.78956" lon="-1.17376">
        <ele>10.9</ele>
        <time>2020-03-11T10:35:53Z</time>
      </trkpt>
      <trkpt lat="45.7888" lon="-1.17602">
        <ele>13.8</ele>
        <time>2020-03-11T10:35:53Z</time>
      </trkpt>
      <trkpt lat="45.78865" lon="-1.17645">
        <ele>12.8</ele>
        <time>2020-03-11T10:35:53Z</time>
      </trkpt>
      <trkpt lat="45.78817" lon="-1.17778">
        <ele>15.4</ele>
        <time>2020-03-11T10:35:53Z</time>
      </trkpt>
      <trkpt lat="45.78781" lon="-1.17872">
        <ele>11.6</ele>
        <time>2020-03-11T10:35:53Z</time>
      </trkpt>
      <trkpt lat="45.78772" lon="-1.17896">
        <ele>10.9</ele>
        <time>2020-03-11T10:35:53Z</time>
      </trkpt>
      <trkpt lat="45.78761" lon="-1.17932">
        <ele>9.8</ele>
        <time>2020-03-11T10:35:53Z</time>
      </trkpt>
      <trkpt lat="45.78729" lon="-1.1802">
        <ele>8.9</ele>
        <time>2020-03-11T10:35:53Z</time>
      </trkpt>
      <trkpt lat="45.78703" lon="-1.18094">
        <ele>10</ele>
        <time>2020-03-11T10:35:53Z</time>
      </trkpt>
      <trkpt lat="45.78682" lon="-1.18153">
        <ele>8.8</ele>
        <time>2020-03-11T10:35:53Z</time>
      </trkpt>
      <trkpt lat="45.78655" lon="-1.18234">
        <ele>8.2</ele>
        <time>2020-03-11T10:35:53Z</time>
      </trkpt>
      <trkpt lat="45.78648" lon="-1.18259">
        <ele>8.7</ele>
        <time>2020-03-11T10:35:53Z</time>
      </trkpt>
      <trkpt lat="45.78639" lon="-1.18308">
        <ele>9</ele>
        <time>2020-03-11T10:35:53Z</time>
      </trkpt>
      <trkpt lat="45.78635" lon="-1.18357">
        <ele>9</ele>
        <time>2020-03-11T10:35:53Z</time>
      </trkpt>
      <trkpt lat="45.78635" lon="-1.18409">
        <ele>9.1</ele>
        <time>2020-03-11T10:35:53Z</time>
      </trkpt>
      <trkpt lat="45.78638" lon="-1.18442">
        <ele>9.1</ele>
        <time>2020-03-11T10:35:53Z</time>
      </trkpt>
      <trkpt lat="45.78643" lon="-1.18477">
        <ele>10.1</ele>
        <time>2020-03-11T10:35:53Z</time>
      </trkpt>
      <trkpt lat="45.78652" lon="-1.18516">
        <ele>10.2</ele>
        <time>2020-03-11T10:35:53Z</time>
      </trkpt>
      <trkpt lat="45.7866" lon="-1.18545">
        <ele>10.7</ele>
        <time>2020-03-11T10:35:53Z</time>
      </trkpt>
      <trkpt lat="45.78672" lon="-1.18578">
        <ele>11.8</ele>
        <time>2020-03-11T10:35:53Z</time>
      </trkpt>
      <trkpt lat="45.78687" lon="-1.1861">
        <ele>12.1</ele>
        <time>2020-03-11T10:35:53Z</time>
      </trkpt>
      <trkpt lat="45.78707" lon="-1.18643">
        <ele>11.1</ele>
        <time>2020-03-11T10:35:53Z</time>
      </trkpt>
      <trkpt lat="45.78727" lon="-1.18673">
        <ele>10.3</ele>
        <time>2020-03-11T10:35:53Z</time>
      </trkpt>
      <trkpt lat="45.78782" lon="-1.18752">
        <ele>9</ele>
        <time>2020-03-11T10:35:53Z</time>
      </trkpt>
      <trkpt lat="45.78813" lon="-1.18793">
        <ele>9.9</ele>
        <time>2020-03-11T10:35:53Z</time>
      </trkpt>
      <trkpt lat="45.78835" lon="-1.18828">
        <ele>10.1</ele>
        <time>2020-03-11T10:35:53Z</time>
      </trkpt>
      <trkpt lat="45.78849" lon="-1.18853">
        <ele>11.2</ele>
        <time>2020-03-11T10:35:53Z</time>
      </trkpt>
      <trkpt lat="45.78864" lon="-1.18884">
        <ele>10.1</ele>
        <time>2020-03-11T10:35:53Z</time>
      </trkpt>
      <trkpt lat="45.78876" lon="-1.18924">
        <ele>9.9</ele>
        <time>2020-03-11T10:35:53Z</time>
      </trkpt>
      <trkpt lat="45.7887" lon="-1.19177">
        <ele>6.2</ele>
        <time>2020-03-11T10:35:53Z</time>
      </trkpt>
      <trkpt lat="45.78869" lon="-1.19206">
        <ele>6.3</ele>
        <time>2020-03-11T10:35:53Z</time>
      </trkpt>
      <trkpt lat="45.78868" lon="-1.19254">
        <ele>6</ele>
        <time>2020-03-11T10:35:53Z</time>
      </trkpt>
      <trkpt lat="45.78867" lon="-1.19283">
        <ele>6.4</ele>
        <time>2020-03-11T10:35:53Z</time>
      </trkpt>
      <trkpt lat="45.78875" lon="-1.19315">
        <ele>7.3</ele>
        <time>2020-03-11T10:35:53Z</time>
      </trkpt>
      <trkpt lat="45.78874" lon="-1.194">
        <ele>9.7</ele>
        <time>2020-03-11T10:35:53Z</time>
      </trkpt>
      <trkpt lat="45.78874" lon="-1.19435">
        <ele>9.7</ele>
        <time>2020-03-11T10:35:53Z</time>
      </trkpt>
      <trkpt lat="45.78873" lon="-1.19522">
        <ele>9.3</ele>
        <time>2020-03-11T10:35:53Z</time>
      </trkpt>
      <trkpt lat="45.78875" lon="-1.19656">
        <ele>5.5</ele>
        <time>2020-03-11T10:35:53Z</time>
      </trkpt>
      <trkpt lat="45.78879" lon="-1.19684">
        <ele>5.8</ele>
        <time>2020-03-11T10:35:53Z</time>
      </trkpt>
      <trkpt lat="45.78897" lon="-1.19745">
        <ele>5.6</ele>
        <time>2020-03-11T10:35:53Z</time>
      </trkpt>
      <trkpt lat="45.78915" lon="-1.19801">
        <ele>6</ele>
        <time>2020-03-11T10:35:53Z</time>
      </trkpt>
      <trkpt lat="45.78934" lon="-1.19855">
        <ele>5.4</ele>
        <time>2020-03-11T10:35:53Z</time>
      </trkpt>
      <trkpt lat="45.78958" lon="-1.19925">
        <ele>4.5</ele>
        <time>2020-03-11T10:35:53Z</time>
      </trkpt>
      <trkpt lat="45.78969" lon="-1.19966">
        <ele>4.2</ele>
        <time>2020-03-11T10:35:53Z</time>
      </trkpt>
      <trkpt lat="45.78982" lon="-1.20009">
        <ele>4.6</ele>
        <time>2020-03-11T10:35:53Z</time>
      </trkpt>
      <trkpt lat="45.78995" lon="-1.20046">
        <ele>4.4</ele>
        <time>2020-03-11T10:35:53Z</time>
      </trkpt>
      <trkpt lat="45.79011" lon="-1.20137">
        <ele>5</ele>
        <time>2020-03-11T10:35:53Z</time>
      </trkpt>
      <trkpt lat="45.79019" lon="-1.20192">
        <ele>5</ele>
        <time>2020-03-11T10:35:53Z</time>
      </trkpt>
      <trkpt lat="45.79029" lon="-1.20261">
        <ele>5</ele>
        <time>2020-03-11T10:35:53Z</time>
      </trkpt>
      <trkpt lat="45.79038" lon="-1.20354">
        <ele>6</ele>
        <time>2020-03-11T10:35:53Z</time>
      </trkpt>
      <trkpt lat="45.79049" lon="-1.20433">
        <ele>5.1</ele>
        <time>2020-03-11T10:35:53Z</time>
      </trkpt>
      <trkpt lat="45.79054" lon="-1.20471">
        <ele>5.1</ele>
        <time>2020-03-11T10:35:53Z</time>
      </trkpt>
      <trkpt lat="45.79059" lon="-1.20499">
        <ele>5.8</ele>
        <time>2020-03-11T10:35:53Z</time>
      </trkpt>
      <trkpt lat="45.79068" lon="-1.20561">
        <ele>6.2</ele>
        <time>2020-03-11T10:35:53Z</time>
      </trkpt>
      <trkpt lat="45.79083" lon="-1.2068">
        <ele>6</ele>
        <time>2020-03-11T10:35:53Z</time>
      </trkpt>
      <trkpt lat="45.79089" lon="-1.20705">
        <ele>6.1</ele>
        <time>2020-03-11T10:35:53Z</time>
      </trkpt>
      <trkpt lat="45.79094" lon="-1.20787">
        <ele>6.4</ele>
        <time>2020-03-11T10:35:53Z</time>
      </trkpt>
      <trkpt lat="45.79097" lon="-1.20843">
        <ele>6.6</ele>
        <time>2020-03-11T10:35:53Z</time>
      </trkpt>
      <trkpt lat="45.79099" lon="-1.20895">
        <ele>5.9</ele>
        <time>2020-03-11T10:35:53Z</time>
      </trkpt>
      <trkpt lat="45.791" lon="-1.20946">
        <ele>5.6</ele>
        <time>2020-03-11T10:35:53Z</time>
      </trkpt>
      <trkpt lat="45.79099" lon="-1.20974">
        <ele>5.6</ele>
        <time>2020-03-11T10:35:53Z</time>
      </trkpt>
      <trkpt lat="45.79094" lon="-1.21059">
        <ele>5.3</ele>
        <time>2020-03-11T10:35:53Z</time>
      </trkpt>
      <trkpt lat="45.7909" lon="-1.21092">
        <ele>4.6</ele>
        <time>2020-03-11T10:35:53Z</time>
      </trkpt>
      <trkpt lat="45.79086" lon="-1.2112">
        <ele>5</ele>
        <time>2020-03-11T10:35:53Z</time>
      </trkpt>
      <trkpt lat="45.79081" lon="-1.21147">
        <ele>5.1</ele>
        <time>2020-03-11T10:35:53Z</time>
      </trkpt>
      <trkpt lat="45.79074" lon="-1.21176">
        <ele>5.2</ele>
        <time>2020-03-11T10:35:53Z</time>
      </trkpt>
      <trkpt lat="45.79067" lon="-1.21205">
        <ele>5.4</ele>
        <time>2020-03-11T10:35:53Z</time>
      </trkpt>
      <trkpt lat="45.79058" lon="-1.21252">
        <ele>5.2</ele>
        <time>2020-03-11T10:35:53Z</time>
      </trkpt>
      <trkpt lat="45.79053" lon="-1.21277">
        <ele>5.2</ele>
        <time>2020-03-11T10:35:53Z</time>
      </trkpt>
      <trkpt lat="45.79044" lon="-1.21327">
        <ele>5.9</ele>
        <time>2020-03-11T10:35:53Z</time>
      </trkpt>
      <trkpt lat="45.79033" lon="-1.21369">
        <ele>5</ele>
        <time>2020-03-11T10:35:53Z</time>
      </trkpt>
      <trkpt lat="45.79022" lon="-1.2141">
        <ele>4.2</ele>
        <time>2020-03-11T10:35:53Z</time>
      </trkpt>
      <trkpt lat="45.79012" lon="-1.21442">
        <ele>5.1</ele>
        <time>2020-03-11T10:35:53Z</time>
      </trkpt>
      <trkpt lat="45.79002" lon="-1.21474">
        <ele>4.1</ele>
        <time>2020-03-11T10:35:53Z</time>
      </trkpt>
      <trkpt lat="45.79003" lon="-1.21506">
        <ele>5</ele>
        <time>2020-03-11T10:35:53Z</time>
      </trkpt>
      <trkpt lat="45.78996" lon="-1.21533">
        <ele>5</ele>
        <time>2020-03-11T10:35:53Z</time>
      </trkpt>
      <trkpt lat="45.78981" lon="-1.21555">
        <ele>5</ele>
        <time>2020-03-11T10:35:53Z</time>
      </trkpt>
      <trkpt lat="45.78942" lon="-1.21634">
        <ele>4.1</ele>
        <time>2020-03-11T10:35:53Z</time>
      </trkpt>
      <trkpt lat="45.78927" lon="-1.21662">
        <ele>4.9</ele>
        <time>2020-03-11T10:35:53Z</time>
      </trkpt>
      <trkpt lat="45.78884" lon="-1.21741">
        <ele>6.6</ele>
        <time>2020-03-11T10:35:53Z</time>
      </trkpt>
      <trkpt lat="45.78861" lon="-1.21784">
        <ele>5.4</ele>
        <time>2020-03-11T10:35:53Z</time>
      </trkpt>
      <trkpt lat="45.78815" lon="-1.21866">
        <ele>6.3</ele>
        <time>2020-03-11T10:35:53Z</time>
      </trkpt>
      <trkpt lat="45.78803" lon="-1.21889">
        <ele>5.9</ele>
        <time>2020-03-11T10:35:53Z</time>
      </trkpt>
      <trkpt lat="45.78754" lon="-1.21978">
        <ele>5</ele>
        <time>2020-03-11T10:35:53Z</time>
      </trkpt>
      <trkpt lat="45.78737" lon="-1.22009">
        <ele>5.3</ele>
        <time>2020-03-11T10:35:53Z</time>
      </trkpt>
      <trkpt lat="45.78687" lon="-1.221">
        <ele>7</ele>
        <time>2020-03-11T10:35:53Z</time>
      </trkpt>
      <trkpt lat="45.78593" lon="-1.22273">
        <ele>6.3</ele>
        <time>2020-03-11T10:35:53Z</time>
      </trkpt>
      <trkpt lat="45.78571" lon="-1.2231">
        <ele>6.5</ele>
        <time>2020-03-11T10:35:53Z</time>
      </trkpt>
      <trkpt lat="45.7853" lon="-1.22384">
        <ele>8.8</ele>
        <time>2020-03-11T10:35:53Z</time>
      </trkpt>
      <trkpt lat="45.78514" lon="-1.22413">
        <ele>14</ele>
        <time>2020-03-11T10:35:53Z</time>
      </trkpt>
      <trkpt lat="45.78498" lon="-1.22443">
        <ele>11.5</ele>
        <time>2020-03-11T10:35:53Z</time>
      </trkpt>
      <trkpt lat="45.78473" lon="-1.22489">
        <ele>11.4</ele>
        <time>2020-03-11T10:35:53Z</time>
      </trkpt>
      <trkpt lat="45.78453" lon="-1.22525">
        <ele>10</ele>
        <time>2020-03-11T10:35:53Z</time>
      </trkpt>
      <trkpt lat="45.78411" lon="-1.2258">
        <ele>10.2</ele>
        <time>2020-03-11T10:35:53Z</time>
      </trkpt>
      <trkpt lat="45.78375" lon="-1.22622">
        <ele>9.6</ele>
        <time>2020-03-11T10:35:53Z</time>
      </trkpt>
      <trkpt lat="45.78356" lon="-1.22643">
        <ele>8.1</ele>
        <time>2020-03-11T10:35:53Z</time>
      </trkpt>
      <trkpt lat="45.783" lon="-1.22691">
        <ele>7</ele>
        <time>2020-03-11T10:35:53Z</time>
      </trkpt>
      <trkpt lat="45.78259" lon="-1.22721">
        <ele>7.7</ele>
        <time>2020-03-11T10:35:53Z</time>
      </trkpt>
      <trkpt lat="45.78188" lon="-1.22761">
        <ele>6.2</ele>
        <time>2020-03-11T10:35:53Z</time>
      </trkpt>
      <trkpt lat="45.78119" lon="-1.22787">
        <ele>6.2</ele>
        <time>2020-03-11T10:35:53Z</time>
      </trkpt>
      <trkpt lat="45.78086" lon="-1.22796">
        <ele>5.4</ele>
        <time>2020-03-11T10:35:53Z</time>
      </trkpt>
      <trkpt lat="45.78012" lon="-1.22809">
        <ele>5</ele>
        <time>2020-03-11T10:35:53Z</time>
      </trkpt>
      <trkpt lat="45.77984" lon="-1.22813">
        <ele>5</ele>
        <time>2020-03-11T10:35:53Z</time>
      </trkpt>
      <trkpt lat="45.77941" lon="-1.2282">
        <ele>4</ele>
        <time>2020-03-11T10:35:53Z</time>
      </trkpt>
      <trkpt lat="45.77762" lon="-1.22852">
        <ele>5.3</ele>
        <time>2020-03-11T10:35:53Z</time>
      </trkpt>
      <trkpt lat="45.77682" lon="-1.22866">
        <ele>5</ele>
        <time>2020-03-11T10:35:53Z</time>
      </trkpt>
      <trkpt lat="45.7758" lon="-1.22883">
        <ele>5</ele>
        <time>2020-03-11T10:35:53Z</time>
      </trkpt>
      <trkpt lat="45.77472" lon="-1.22901">
        <ele>5</ele>
        <time>2020-03-11T10:35:53Z</time>
      </trkpt>
      <trkpt lat="45.77402" lon="-1.22913">
        <ele>6.6</ele>
        <time>2020-03-11T10:35:53Z</time>
      </trkpt>
      <trkpt lat="45.77222" lon="-1.22945">
        <ele>6</ele>
        <time>2020-03-11T10:35:53Z</time>
      </trkpt>
      <trkpt lat="45.77117" lon="-1.22963">
        <ele>6</ele>
        <time>2020-03-11T10:35:53Z</time>
      </trkpt>
      <trkpt lat="45.77042" lon="-1.22976">
        <ele>6</ele>
        <time>2020-03-11T10:35:53Z</time>
      </trkpt>
      <trkpt lat="45.77019" lon="-1.22979">
        <ele>6</ele>
        <time>2020-03-11T10:35:53Z</time>
      </trkpt>
      <trkpt lat="45.76979" lon="-1.22987">
        <ele>5.6</ele>
        <time>2020-03-11T10:35:53Z</time>
      </trkpt>
      <trkpt lat="45.76941" lon="-1.22992">
        <ele>6.1</ele>
        <time>2020-03-11T10:35:53Z</time>
      </trkpt>
      <trkpt lat="45.76916" lon="-1.22994">
        <ele>7</ele>
        <time>2020-03-11T10:35:53Z</time>
      </trkpt>
      <trkpt lat="45.76893" lon="-1.22994">
        <ele>6.1</ele>
        <time>2020-03-11T10:35:53Z</time>
      </trkpt>
      <trkpt lat="45.76864" lon="-1.22991">
        <ele>6</ele>
        <time>2020-03-11T10:35:53Z</time>
      </trkpt>
      <trkpt lat="45.76727" lon="-1.22977">
        <ele>6.8</ele>
        <time>2020-03-11T10:35:53Z</time>
      </trkpt>
      <trkpt lat="45.76682" lon="-1.22969">
        <ele>7.4</ele>
        <time>2020-03-11T10:35:53Z</time>
      </trkpt>
      <trkpt lat="45.76501" lon="-1.22946">
        <ele>9.1</ele>
        <time>2020-03-11T10:35:53Z</time>
      </trkpt>
      <trkpt lat="45.76445" lon="-1.22939">
        <ele>9.2</ele>
        <time>2020-03-11T10:35:53Z</time>
      </trkpt>
      <trkpt lat="45.76394" lon="-1.22932">
        <ele>8.2</ele>
        <time>2020-03-11T10:35:53Z</time>
      </trkpt>
      <trkpt lat="45.76321" lon="-1.22923">
        <ele>9.3</ele>
        <time>2020-03-11T10:35:53Z</time>
      </trkpt>
      <trkpt lat="45.76262" lon="-1.22915">
        <ele>8.4</ele>
        <time>2020-03-11T10:35:53Z</time>
      </trkpt>
      <trkpt lat="45.76202" lon="-1.22907">
        <ele>8.3</ele>
        <time>2020-03-11T10:35:53Z</time>
      </trkpt>
      <trkpt lat="45.76143" lon="-1.229">
        <ele>7</ele>
        <time>2020-03-11T10:35:53Z</time>
      </trkpt>
      <trkpt lat="45.75962" lon="-1.22877">
        <ele>7</ele>
        <time>2020-03-11T10:35:53Z</time>
      </trkpt>
      <trkpt lat="45.75792" lon="-1.22855">
        <ele>7.7</ele>
        <time>2020-03-11T10:35:53Z</time>
      </trkpt>
      <trkpt lat="45.75746" lon="-1.2285">
        <ele>6.1</ele>
        <time>2020-03-11T10:35:53Z</time>
      </trkpt>
      <trkpt lat="45.75602" lon="-1.2283">
        <ele>8</ele>
        <time>2020-03-11T10:35:53Z</time>
      </trkpt>
      <trkpt lat="45.75554" lon="-1.22826">
        <ele>8.9</ele>
        <time>2020-03-11T10:35:53Z</time>
      </trkpt>
      <trkpt lat="45.75518" lon="-1.22828">
        <ele>7.9</ele>
        <time>2020-03-11T10:35:53Z</time>
      </trkpt>
      <trkpt lat="45.75472" lon="-1.22832">
        <ele>8</ele>
        <time>2020-03-11T10:35:53Z</time>
      </trkpt>
      <trkpt lat="45.75426" lon="-1.22837">
        <ele>8</ele>
        <time>2020-03-11T10:35:53Z</time>
      </trkpt>
      <trkpt lat="45.75364" lon="-1.22844">
        <ele>8.3</ele>
        <time>2020-03-11T10:35:53Z</time>
      </trkpt>
      <trkpt lat="45.753" lon="-1.22852">
        <ele>7.4</ele>
        <time>2020-03-11T10:35:53Z</time>
      </trkpt>
      <trkpt lat="45.75253" lon="-1.22856">
        <ele>8.1</ele>
        <time>2020-03-11T10:35:53Z</time>
      </trkpt>
      <trkpt lat="45.75234" lon="-1.22856">
        <ele>8</ele>
        <time>2020-03-11T10:35:53Z</time>
      </trkpt>
      <trkpt lat="45.75212" lon="-1.22855">
        <ele>8</ele>
        <time>2020-03-11T10:35:53Z</time>
      </trkpt>
      <trkpt lat="45.75129" lon="-1.22842">
        <ele>7.5</ele>
        <time>2020-03-11T10:35:53Z</time>
      </trkpt>
      <trkpt lat="45.7507" lon="-1.22832">
        <ele>8</ele>
        <time>2020-03-11T10:35:53Z</time>
      </trkpt>
      <trkpt lat="45.75002" lon="-1.22821">
        <ele>6.6</ele>
        <time>2020-03-11T10:35:53Z</time>
      </trkpt>
      <trkpt lat="45.74924" lon="-1.2281">
        <ele>8</ele>
        <time>2020-03-11T10:35:53Z</time>
      </trkpt>
      <trkpt lat="45.74888" lon="-1.22802">
        <ele>7</ele>
        <time>2020-03-11T10:35:53Z</time>
      </trkpt>
      <trkpt lat="45.74791" lon="-1.22787">
        <ele>7.4</ele>
        <time>2020-03-11T10:35:53Z</time>
      </trkpt>
      <trkpt lat="45.74732" lon="-1.22777">
        <ele>8</ele>
        <time>2020-03-11T10:35:53Z</time>
      </trkpt>
      <trkpt lat="45.74707" lon="-1.22774">
        <ele>9</ele>
        <time>2020-03-11T10:35:53Z</time>
      </trkpt>
      <trkpt lat="45.74672" lon="-1.22774">
        <ele>10</ele>
        <time>2020-03-11T10:35:53Z</time>
      </trkpt>
      <trkpt lat="45.74598" lon="-1.22776">
        <ele>8.1</ele>
        <time>2020-03-11T10:35:53Z</time>
      </trkpt>
      <trkpt lat="45.74529" lon="-1.22773">
        <ele>7.2</ele>
        <time>2020-03-11T10:35:53Z</time>
      </trkpt>
      <trkpt lat="45.74498" lon="-1.22771">
        <ele>7.1</ele>
        <time>2020-03-11T10:35:53Z</time>
      </trkpt>
      <trkpt lat="45.74434" lon="-1.22771">
        <ele>8.3</ele>
        <time>2020-03-11T10:35:53Z</time>
      </trkpt>
      <trkpt lat="45.74405" lon="-1.22774">
        <ele>7.9</ele>
        <time>2020-03-11T10:35:53Z</time>
      </trkpt>
      <trkpt lat="45.74369" lon="-1.22774">
        <ele>7.2</ele>
        <time>2020-03-11T10:35:53Z</time>
      </trkpt>
      <trkpt lat="45.74351" lon="-1.22774">
        <ele>7.4</ele>
        <time>2020-03-11T10:35:53Z</time>
      </trkpt>
      <trkpt lat="45.74172" lon="-1.22772">
        <ele>8.2</ele>
        <time>2020-03-11T10:35:53Z</time>
      </trkpt>
      <trkpt lat="45.74148" lon="-1.22772">
        <ele>8.4</ele>
        <time>2020-03-11T10:35:53Z</time>
      </trkpt>
      <trkpt lat="45.74117" lon="-1.22771">
        <ele>8.2</ele>
        <time>2020-03-11T10:35:53Z</time>
      </trkpt>
      <trkpt lat="45.74097" lon="-1.22758">
        <ele>8.4</ele>
        <time>2020-03-11T10:35:53Z</time>
      </trkpt>
      <trkpt lat="45.74071" lon="-1.22749">
        <ele>8.6</ele>
        <time>2020-03-11T10:35:53Z</time>
      </trkpt>
      <trkpt lat="45.74052" lon="-1.22727">
        <ele>10.2</ele>
        <time>2020-03-11T10:35:53Z</time>
      </trkpt>
      <trkpt lat="45.74042" lon="-1.22699">
        <ele>10.8</ele>
        <time>2020-03-11T10:35:53Z</time>
      </trkpt>
      <trkpt lat="45.74045" lon="-1.22655">
        <ele>10.2</ele>
        <time>2020-03-11T10:35:53Z</time>
      </trkpt>
      <trkpt lat="45.74041" lon="-1.22617">
        <ele>7.4</ele>
        <time>2020-03-11T10:35:53Z</time>
      </trkpt>
      <trkpt lat="45.74033" lon="-1.2259">
        <ele>7.8</ele>
        <time>2020-03-11T10:35:53Z</time>
      </trkpt>
      <trkpt lat="45.74025" lon="-1.22555">
        <ele>8</ele>
        <time>2020-03-11T10:35:53Z</time>
      </trkpt>
      <trkpt lat="45.74015" lon="-1.22506">
        <ele>8.2</ele>
        <time>2020-03-11T10:35:53Z</time>
      </trkpt>
      <trkpt lat="45.74001" lon="-1.22469">
        <ele>9</ele>
        <time>2020-03-11T10:35:53Z</time>
      </trkpt>
      <trkpt lat="45.73981" lon="-1.22444">
        <ele>9</ele>
        <time>2020-03-11T10:35:53Z</time>
      </trkpt>
      <trkpt lat="45.73806" lon="-1.22453">
        <ele>8</ele>
        <time>2020-03-11T10:35:53Z</time>
      </trkpt>
      <trkpt lat="45.73622" lon="-1.22464">
        <ele>8.1</ele>
        <time>2020-03-11T10:35:53Z</time>
      </trkpt>
      <trkpt lat="45.73448" lon="-1.22474">
        <ele>8</ele>
        <time>2020-03-11T10:35:53Z</time>
      </trkpt>
      <trkpt lat="45.73326" lon="-1.22481">
        <ele>7.3</ele>
        <time>2020-03-11T10:35:53Z</time>
      </trkpt>
      <trkpt lat="45.73282" lon="-1.22483">
        <ele>8</ele>
        <time>2020-03-11T10:35:53Z</time>
      </trkpt>
      <trkpt lat="45.73264" lon="-1.22502">
        <ele>7.5</ele>
        <time>2020-03-11T10:35:53Z</time>
      </trkpt>
      <trkpt lat="45.73255" lon="-1.22535">
        <ele>7</ele>
        <time>2020-03-11T10:35:53Z</time>
      </trkpt>
      <trkpt lat="45.73238" lon="-1.22578">
        <ele>7</ele>
        <time>2020-03-11T10:35:53Z</time>
      </trkpt>
      <trkpt lat="45.7323" lon="-1.22602">
        <ele>7</ele>
        <time>2020-03-11T10:35:53Z</time>
      </trkpt>
      <trkpt lat="45.73222" lon="-1.2263">
        <ele>7</ele>
        <time>2020-03-11T10:35:53Z</time>
      </trkpt>
      <trkpt lat="45.7321" lon="-1.22661">
        <ele>7</ele>
        <time>2020-03-11T10:35:53Z</time>
      </trkpt>
      <trkpt lat="45.73199" lon="-1.22693">
        <ele>7</ele>
        <time>2020-03-11T10:35:53Z</time>
      </trkpt>
      <trkpt lat="45.7319" lon="-1.22729">
        <ele>6</ele>
        <time>2020-03-11T10:35:53Z</time>
      </trkpt>
      <trkpt lat="45.73163" lon="-1.22768">
        <ele>7</ele>
        <time>2020-03-11T10:35:53Z</time>
      </trkpt>
      <trkpt lat="45.73146" lon="-1.22787">
        <ele>7</ele>
        <time>2020-03-11T10:35:53Z</time>
      </trkpt>
      <trkpt lat="45.73124" lon="-1.22803">
        <ele>7</ele>
        <time>2020-03-11T10:35:53Z</time>
      </trkpt>
      <trkpt lat="45.73106" lon="-1.22808">
        <ele>6.8</ele>
        <time>2020-03-11T10:35:53Z</time>
      </trkpt>
      <trkpt lat="45.73098" lon="-1.22844">
        <ele>7</ele>
        <time>2020-03-11T10:35:53Z</time>
      </trkpt>
      <trkpt lat="45.73092" lon="-1.22883">
        <ele>7.5</ele>
        <time>2020-03-11T10:35:53Z</time>
      </trkpt>
      <trkpt lat="45.73077" lon="-1.229">
        <ele>8.5</ele>
        <time>2020-03-11T10:35:53Z</time>
      </trkpt>
      <trkpt lat="45.7306" lon="-1.22913">
        <ele>7.6</ele>
        <time>2020-03-11T10:35:53Z</time>
      </trkpt>
      <trkpt lat="45.73023" lon="-1.22978">
        <ele>7</ele>
        <time>2020-03-11T10:35:53Z</time>
      </trkpt>
      <trkpt lat="45.73004" lon="-1.23007">
        <ele>6.7</ele>
        <time>2020-03-11T10:35:53Z</time>
      </trkpt>
      <trkpt lat="45.7299" lon="-1.23024">
        <ele>6.1</ele>
        <time>2020-03-11T10:35:53Z</time>
      </trkpt>
      <trkpt lat="45.72955" lon="-1.23056">
        <ele>6.4</ele>
        <time>2020-03-11T10:35:53Z</time>
      </trkpt>
      <trkpt lat="45.72922" lon="-1.23057">
        <ele>6.8</ele>
        <time>2020-03-11T10:35:53Z</time>
      </trkpt>
      <trkpt lat="45.72904" lon="-1.23059">
        <ele>6.9</ele>
        <time>2020-03-11T10:35:53Z</time>
      </trkpt>
      <trkpt lat="45.72872" lon="-1.23061">
        <ele>6.3</ele>
        <time>2020-03-11T10:35:53Z</time>
      </trkpt>
      <trkpt lat="45.72845" lon="-1.23061">
        <ele>6.1</ele>
        <time>2020-03-11T10:35:53Z</time>
      </trkpt>
      <trkpt lat="45.72821" lon="-1.2306">
        <ele>6.1</ele>
        <time>2020-03-11T10:35:53Z</time>
      </trkpt>
      <trkpt lat="45.72803" lon="-1.23063">
        <ele>6</ele>
        <time>2020-03-11T10:35:53Z</time>
      </trkpt>
      <trkpt lat="45.72786" lon="-1.23073">
        <ele>5.6</ele>
        <time>2020-03-11T10:35:53Z</time>
      </trkpt>
      <trkpt lat="45.72769" lon="-1.23094">
        <ele>5.5</ele>
        <time>2020-03-11T10:35:53Z</time>
      </trkpt>
      <trkpt lat="45.72747" lon="-1.23145">
        <ele>5.5</ele>
        <time>2020-03-11T10:35:53Z</time>
      </trkpt>
      <trkpt lat="45.72731" lon="-1.23162">
        <ele>6.2</ele>
        <time>2020-03-11T10:35:53Z</time>
      </trkpt>
      <trkpt lat="45.72565" lon="-1.23179">
        <ele>5.4</ele>
        <time>2020-03-11T10:35:53Z</time>
      </trkpt>
      <trkpt lat="45.72392" lon="-1.23188">
        <ele>6.1</ele>
        <time>2020-03-11T10:35:53Z</time>
      </trkpt>
      <trkpt lat="45.72342" lon="-1.2319">
        <ele>5.5</ele>
        <time>2020-03-11T10:35:53Z</time>
      </trkpt>
      <trkpt lat="45.72301" lon="-1.23194">
        <ele>6.2</ele>
        <time>2020-03-11T10:35:53Z</time>
      </trkpt>
      <trkpt lat="45.72213" lon="-1.23193">
        <ele>5.1</ele>
        <time>2020-03-11T10:35:53Z</time>
      </trkpt>
      <trkpt lat="45.72122" lon="-1.23204">
        <ele>7.1</ele>
        <time>2020-03-11T10:35:53Z</time>
      </trkpt>
      <trkpt lat="45.72076" lon="-1.23203">
        <ele>5.4</ele>
        <time>2020-03-11T10:35:53Z</time>
      </trkpt>
      <trkpt lat="45.72029" lon="-1.23209">
        <ele>5</ele>
        <time>2020-03-11T10:35:53Z</time>
      </trkpt>
      <trkpt lat="45.71851" lon="-1.23219">
        <ele>4.4</ele>
        <time>2020-03-11T10:35:53Z</time>
      </trkpt>
      <trkpt lat="45.7181" lon="-1.23223">
        <ele>5</ele>
        <time>2020-03-11T10:35:53Z</time>
      </trkpt>
      <trkpt lat="45.71773" lon="-1.23226">
        <ele>5</ele>
        <time>2020-03-11T10:35:53Z</time>
      </trkpt>
      <trkpt lat="45.71671" lon="-1.2323">
        <ele>4.8</ele>
        <time>2020-03-11T10:35:53Z</time>
      </trkpt>
      <trkpt lat="45.71579" lon="-1.23235">
        <ele>6.5</ele>
        <time>2020-03-11T10:35:53Z</time>
      </trkpt>
      <trkpt lat="45.71488" lon="-1.23239">
        <ele>5</ele>
        <time>2020-03-11T10:35:53Z</time>
      </trkpt>
      <trkpt lat="45.71399" lon="-1.23245">
        <ele>6.1</ele>
        <time>2020-03-11T10:35:53Z</time>
      </trkpt>
      <trkpt lat="45.71312" lon="-1.23249">
        <ele>5.3</ele>
        <time>2020-03-11T10:35:53Z</time>
      </trkpt>
      <trkpt lat="45.71224" lon="-1.23255">
        <ele>4.8</ele>
        <time>2020-03-11T10:35:53Z</time>
      </trkpt>
      <trkpt lat="45.71197" lon="-1.23254">
        <ele>4.9</ele>
        <time>2020-03-11T10:35:53Z</time>
      </trkpt>
      <trkpt lat="45.71171" lon="-1.23254">
        <ele>4.3</ele>
        <time>2020-03-11T10:35:53Z</time>
      </trkpt>
      <trkpt lat="45.71131" lon="-1.23257">
        <ele>4.6</ele>
        <time>2020-03-11T10:35:53Z</time>
      </trkpt>
      <trkpt lat="45.71109" lon="-1.23259">
        <ele>5.9</ele>
        <time>2020-03-11T10:35:53Z</time>
      </trkpt>
      <trkpt lat="45.71091" lon="-1.23262">
        <ele>5.3</ele>
        <time>2020-03-11T10:35:53Z</time>
      </trkpt>
      <trkpt lat="45.71065" lon="-1.23285">
        <ele>5</ele>
        <time>2020-03-11T10:35:53Z</time>
      </trkpt>
      <trkpt lat="45.7104" lon="-1.233">
        <ele>5</ele>
        <time>2020-03-11T10:35:53Z</time>
      </trkpt>
      <trkpt lat="45.7099" lon="-1.23306">
        <ele>4.4</ele>
        <time>2020-03-11T10:35:53Z</time>
      </trkpt>
      <trkpt lat="45.70952" lon="-1.23308">
        <ele>4.9</ele>
        <time>2020-03-11T10:35:53Z</time>
      </trkpt>
      <trkpt lat="45.70916" lon="-1.23312">
        <ele>4.8</ele>
        <time>2020-03-11T10:35:53Z</time>
      </trkpt>
      <trkpt lat="45.70891" lon="-1.23324">
        <ele>5.3</ele>
        <time>2020-03-11T10:35:53Z</time>
      </trkpt>
      <trkpt lat="45.70868" lon="-1.23352">
        <ele>5.7</ele>
        <time>2020-03-11T10:35:53Z</time>
      </trkpt>
      <trkpt lat="45.70841" lon="-1.23368">
        <ele>4.3</ele>
        <time>2020-03-11T10:35:53Z</time>
      </trkpt>
      <trkpt lat="45.70819" lon="-1.2338">
        <ele>4</ele>
        <time>2020-03-11T10:35:53Z</time>
      </trkpt>
      <trkpt lat="45.70787" lon="-1.23378">
        <ele>4</ele>
        <time>2020-03-11T10:35:53Z</time>
      </trkpt>
      <trkpt lat="45.70767" lon="-1.23372">
        <ele>4.2</ele>
        <time>2020-03-11T10:35:53Z</time>
      </trkpt>
      <trkpt lat="45.70745" lon="-1.23358">
        <ele>4.7</ele>
        <time>2020-03-11T10:35:53Z</time>
      </trkpt>
      <trkpt lat="45.70719" lon="-1.23339">
        <ele>4.1</ele>
        <time>2020-03-11T10:35:53Z</time>
      </trkpt>
      <trkpt lat="45.70688" lon="-1.23335">
        <ele>4.2</ele>
        <time>2020-03-11T10:35:53Z</time>
      </trkpt>
      <trkpt lat="45.70653" lon="-1.23334">
        <ele>4</ele>
        <time>2020-03-11T10:35:53Z</time>
      </trkpt>
      <trkpt lat="45.70626" lon="-1.23322">
        <ele>4</ele>
        <time>2020-03-11T10:35:53Z</time>
      </trkpt>
      <trkpt lat="45.70599" lon="-1.23307">
        <ele>4.4</ele>
        <time>2020-03-11T10:35:53Z</time>
      </trkpt>
      <trkpt lat="45.70582" lon="-1.23292">
        <ele>4.5</ele>
        <time>2020-03-11T10:35:53Z</time>
      </trkpt>
      <trkpt lat="45.70412" lon="-1.23297">
        <ele>4.6</ele>
        <time>2020-03-11T10:35:53Z</time>
      </trkpt>
      <trkpt lat="45.70344" lon="-1.23302">
        <ele>5</ele>
        <time>2020-03-11T10:35:53Z</time>
      </trkpt>
      <trkpt lat="45.70297" lon="-1.23305">
        <ele>4.7</ele>
        <time>2020-03-11T10:35:53Z</time>
      </trkpt>
      <trkpt lat="45.70231" lon="-1.23305">
        <ele>4</ele>
        <time>2020-03-11T10:35:53Z</time>
      </trkpt>
      <trkpt lat="45.70177" lon="-1.23308">
        <ele>4.1</ele>
        <time>2020-03-11T10:35:53Z</time>
      </trkpt>
      <trkpt lat="45.70157" lon="-1.2331">
        <ele>4.5</ele>
        <time>2020-03-11T10:35:53Z</time>
      </trkpt>
      <trkpt lat="45.70132" lon="-1.23307">
        <ele>5.1</ele>
        <time>2020-03-11T10:35:53Z</time>
      </trkpt>
      <trkpt lat="45.70115" lon="-1.23286">
        <ele>4.3</ele>
        <time>2020-03-11T10:35:53Z</time>
      </trkpt>
      <trkpt lat="45.70102" lon="-1.23254">
        <ele>5.3</ele>
        <time>2020-03-11T10:35:53Z</time>
      </trkpt>
      <trkpt lat="45.70088" lon="-1.23232">
        <ele>5.3</ele>
        <time>2020-03-11T10:35:53Z</time>
      </trkpt>
      <trkpt lat="45.70052" lon="-1.23198">
        <ele>4</ele>
        <time>2020-03-11T10:35:53Z</time>
      </trkpt>
      <trkpt lat="45.7003" lon="-1.23191">
        <ele>4</ele>
        <time>2020-03-11T10:35:53Z</time>
      </trkpt>
      <trkpt lat="45.6997" lon="-1.23194">
        <ele>7.2</ele>
        <time>2020-03-11T10:35:53Z</time>
      </trkpt>
      <trkpt lat="45.69908" lon="-1.23197">
        <ele>6.2</ele>
        <time>2020-03-11T10:35:53Z</time>
      </trkpt>
      <trkpt lat="45.69814" lon="-1.23204">
        <ele>5</ele>
        <time>2020-03-11T10:35:53Z</time>
      </trkpt>
      <trkpt lat="45.69782" lon="-1.23206">
        <ele>4.2</ele>
        <time>2020-03-11T10:35:53Z</time>
      </trkpt>
      <trkpt lat="45.69755" lon="-1.23208">
        <ele>4</ele>
        <time>2020-03-11T10:35:53Z</time>
      </trkpt>
      <trkpt lat="45.69739" lon="-1.23196">
        <ele>4</ele>
        <time>2020-03-11T10:35:53Z</time>
      </trkpt>
      <trkpt lat="45.69734" lon="-1.23158">
        <ele>4</ele>
        <time>2020-03-11T10:35:53Z</time>
      </trkpt>
      <trkpt lat="45.69729" lon="-1.23073">
        <ele>5.4</ele>
        <time>2020-03-11T10:35:53Z</time>
      </trkpt>
      <trkpt lat="45.6975" lon="-1.23063">
        <ele>6.3</ele>
        <time>2020-03-11T10:35:53Z</time>
      </trkpt>
      <trkpt lat="45.69759" lon="-1.23011">
        <ele>6</ele>
        <time>2020-03-11T10:35:53Z</time>
      </trkpt>
      <trkpt lat="45.69761" lon="-1.22982">
        <ele>5.4</ele>
        <time>2020-03-11T10:35:53Z</time>
      </trkpt>
      <trkpt lat="45.69764" lon="-1.22943">
        <ele>5</ele>
        <time>2020-03-11T10:35:53Z</time>
      </trkpt>
      <trkpt lat="45.69761" lon="-1.22903">
        <ele>5</ele>
        <time>2020-03-11T10:35:53Z</time>
      </trkpt>
      <trkpt lat="45.69752" lon="-1.22871">
        <ele>4.4</ele>
        <time>2020-03-11T10:35:53Z</time>
      </trkpt>
      <trkpt lat="45.69729" lon="-1.22844">
        <ele>4.8</ele>
        <time>2020-03-11T10:35:53Z</time>
      </trkpt>
      <trkpt lat="45.69713" lon="-1.22832">
        <ele>5</ele>
        <time>2020-03-11T10:35:53Z</time>
      </trkpt>
      <trkpt lat="45.69704" lon="-1.22722">
        <ele>8</ele>
        <time>2020-03-11T10:35:53Z</time>
      </trkpt>
      <trkpt lat="45.69702" lon="-1.22688">
        <ele>7.3</ele>
        <time>2020-03-11T10:35:53Z</time>
      </trkpt>
      <trkpt lat="45.69698" lon="-1.22622">
        <ele>6.3</ele>
        <time>2020-03-11T10:35:53Z</time>
      </trkpt>
      <trkpt lat="45.69676" lon="-1.22339">
        <ele>13.2</ele>
        <time>2020-03-11T10:35:53Z</time>
      </trkpt>
      <trkpt lat="45.69672" lon="-1.22222">
        <ele>13.7</ele>
        <time>2020-03-11T10:35:53Z</time>
      </trkpt>
      <trkpt lat="45.69676" lon="-1.22133">
        <ele>12.9</ele>
        <time>2020-03-11T10:35:53Z</time>
      </trkpt>
      <trkpt lat="45.69691" lon="-1.22082">
        <ele>7.7</ele>
        <time>2020-03-11T10:35:53Z</time>
      </trkpt>
      <trkpt lat="45.69708" lon="-1.2204">
        <ele>7.1</ele>
        <time>2020-03-11T10:35:53Z</time>
      </trkpt>
      <trkpt lat="45.69736" lon="-1.21961">
        <ele>8.1</ele>
        <time>2020-03-11T10:35:53Z</time>
      </trkpt>
      <trkpt lat="45.69784" lon="-1.21715">
        <ele>8.5</ele>
        <time>2020-03-11T10:35:53Z</time>
      </trkpt>
      <trkpt lat="45.69789" lon="-1.21677">
        <ele>8.3</ele>
        <time>2020-03-11T10:35:53Z</time>
      </trkpt>
      <trkpt lat="45.69781" lon="-1.2164">
        <ele>8</ele>
        <time>2020-03-11T10:35:53Z</time>
      </trkpt>
      <trkpt lat="45.69765" lon="-1.21585">
        <ele>9.5</ele>
        <time>2020-03-11T10:35:53Z</time>
      </trkpt>
      <trkpt lat="45.69747" lon="-1.21543">
        <ele>7.3</ele>
        <time>2020-03-11T10:35:53Z</time>
      </trkpt>
      <trkpt lat="45.69739" lon="-1.21509">
        <ele>6.6</ele>
        <time>2020-03-11T10:35:53Z</time>
      </trkpt>
      <trkpt lat="45.69739" lon="-1.21477">
        <ele>6.1</ele>
        <time>2020-03-11T10:35:53Z</time>
      </trkpt>
      <trkpt lat="45.69742" lon="-1.21446">
        <ele>5.5</ele>
        <time>2020-03-11T10:35:53Z</time>
      </trkpt>
      <trkpt lat="45.69752" lon="-1.21358">
        <ele>6.4</ele>
        <time>2020-03-11T10:35:53Z</time>
      </trkpt>
      <trkpt lat="45.69757" lon="-1.21322">
        <ele>7.5</ele>
        <time>2020-03-11T10:35:53Z</time>
      </trkpt>
      <trkpt lat="45.69761" lon="-1.21229">
        <ele>7.5</ele>
        <time>2020-03-11T10:35:53Z</time>
      </trkpt>
      <trkpt lat="45.69766" lon="-1.21064">
        <ele>7.3</ele>
        <time>2020-03-11T10:35:53Z</time>
      </trkpt>
      <trkpt lat="45.69766" lon="-1.2103">
        <ele>6.8</ele>
        <time>2020-03-11T10:35:53Z</time>
      </trkpt>
      <trkpt lat="45.69749" lon="-1.20946">
        <ele>4</ele>
        <time>2020-03-11T10:35:53Z</time>
      </trkpt>
      <trkpt lat="45.69748" lon="-1.20902">
        <ele>4.1</ele>
        <time>2020-03-11T10:35:53Z</time>
      </trkpt>
      <trkpt lat="45.69749" lon="-1.20873">
        <ele>4</ele>
        <time>2020-03-11T10:35:53Z</time>
      </trkpt>
      <trkpt lat="45.69746" lon="-1.20834">
        <ele>4.1</ele>
        <time>2020-03-11T10:35:53Z</time>
      </trkpt>
      <trkpt lat="45.69744" lon="-1.20769">
        <ele>4.2</ele>
        <time>2020-03-11T10:35:53Z</time>
      </trkpt>
      <trkpt lat="45.6974" lon="-1.20739">
        <ele>4.2</ele>
        <time>2020-03-11T10:35:53Z</time>
      </trkpt>
      <trkpt lat="45.69729" lon="-1.20687">
        <ele>4.7</ele>
        <time>2020-03-11T10:35:53Z</time>
      </trkpt>
      <trkpt lat="45.69722" lon="-1.20614">
        <ele>5</ele>
        <time>2020-03-11T10:35:53Z</time>
      </trkpt>
      <trkpt lat="45.69701" lon="-1.2056">
        <ele>4.8</ele>
        <time>2020-03-11T10:35:53Z</time>
      </trkpt>
      <trkpt lat="45.69681" lon="-1.20488">
        <ele>4.3</ele>
        <time>2020-03-11T10:35:53Z</time>
      </trkpt>
      <trkpt lat="45.69645" lon="-1.20401">
        <ele>5</ele>
        <time>2020-03-11T10:35:53Z</time>
      </trkpt>
      <trkpt lat="45.69611" lon="-1.20354">
        <ele>4.3</ele>
        <time>2020-03-11T10:35:53Z</time>
      </trkpt>
      <trkpt lat="45.69593" lon="-1.20318">
        <ele>3.9</ele>
        <time>2020-03-11T10:35:53Z</time>
      </trkpt>
      <trkpt lat="45.69565" lon="-1.20212">
        <ele>3.7</ele>
        <time>2020-03-11T10:35:53Z</time>
      </trkpt>
      <trkpt lat="45.69546" lon="-1.20152">
        <ele>3.2</ele>
        <time>2020-03-11T10:35:53Z</time>
      </trkpt>
      <trkpt lat="45.69524" lon="-1.20087">
        <ele>3</ele>
        <time>2020-03-11T10:35:53Z</time>
      </trkpt>
      <trkpt lat="45.695" lon="-1.20045">
        <ele>3</ele>
        <time>2020-03-11T10:35:53Z</time>
      </trkpt>
      <trkpt lat="45.69489" lon="-1.20018">
        <ele>3.2</ele>
        <time>2020-03-11T10:35:53Z</time>
      </trkpt>
      <trkpt lat="45.69483" lon="-1.1999">
        <ele>3.2</ele>
        <time>2020-03-11T10:35:53Z</time>
      </trkpt>
      <trkpt lat="45.69483" lon="-1.19962">
        <ele>3</ele>
        <time>2020-03-11T10:35:53Z</time>
      </trkpt>
      <trkpt lat="45.69486" lon="-1.19936">
        <ele>3.2</ele>
        <time>2020-03-11T10:35:53Z</time>
      </trkpt>
      <trkpt lat="45.69487" lon="-1.19909">
        <ele>3.4</ele>
        <time>2020-03-11T10:35:53Z</time>
      </trkpt>
      <trkpt lat="45.69494" lon="-1.19875">
        <ele>3.4</ele>
        <time>2020-03-11T10:35:53Z</time>
      </trkpt>
      <trkpt lat="45.69491" lon="-1.1984">
        <ele>3.4</ele>
        <time>2020-03-11T10:35:53Z</time>
      </trkpt>
      <trkpt lat="45.69483" lon="-1.19806">
        <ele>3.6</ele>
        <time>2020-03-11T10:35:53Z</time>
      </trkpt>
      <trkpt lat="45.69462" lon="-1.19733">
        <ele>4</ele>
        <time>2020-03-11T10:35:53Z</time>
      </trkpt>
      <trkpt lat="45.69461" lon="-1.19702">
        <ele>3.6</ele>
        <time>2020-03-11T10:35:53Z</time>
      </trkpt>
      <trkpt lat="45.6947" lon="-1.19663">
        <ele>3.2</ele>
        <time>2020-03-11T10:35:53Z</time>
      </trkpt>
      <trkpt lat="45.6948" lon="-1.19628">
        <ele>4</ele>
        <time>2020-03-11T10:35:53Z</time>
      </trkpt>
      <trkpt lat="45.69486" lon="-1.19585">
        <ele>4</ele>
        <time>2020-03-11T10:35:53Z</time>
      </trkpt>
      <trkpt lat="45.69486" lon="-1.19541">
        <ele>4</ele>
        <time>2020-03-11T10:35:53Z</time>
      </trkpt>
      <trkpt lat="45.69479" lon="-1.19509">
        <ele>4.2</ele>
        <time>2020-03-11T10:35:53Z</time>
      </trkpt>
      <trkpt lat="45.69464" lon="-1.19471">
        <ele>4</ele>
        <time>2020-03-11T10:35:53Z</time>
      </trkpt>
      <trkpt lat="45.69445" lon="-1.19415">
        <ele>4.1</ele>
        <time>2020-03-11T10:35:53Z</time>
      </trkpt>
      <trkpt lat="45.69433" lon="-1.19381">
        <ele>4.3</ele>
        <time>2020-03-11T10:35:53Z</time>
      </trkpt>
      <trkpt lat="45.6942" lon="-1.19352">
        <ele>4.1</ele>
        <time>2020-03-11T10:35:53Z</time>
      </trkpt>
      <trkpt lat="45.694" lon="-1.19315">
        <ele>4</ele>
        <time>2020-03-11T10:35:53Z</time>
      </trkpt>
      <trkpt lat="45.69384" lon="-1.19289">
        <ele>3.8</ele>
        <time>2020-03-11T10:35:53Z</time>
      </trkpt>
      <trkpt lat="45.69365" lon="-1.19264">
        <ele>3.1</ele>
        <time>2020-03-11T10:35:53Z</time>
      </trkpt>
      <trkpt lat="45.69341" lon="-1.19238">
        <ele>3.5</ele>
        <time>2020-03-11T10:35:53Z</time>
      </trkpt>
      <trkpt lat="45.69322" lon="-1.19217">
        <ele>3.3</ele>
        <time>2020-03-11T10:35:53Z</time>
      </trkpt>
      <trkpt lat="45.69298" lon="-1.19187">
        <ele>3</ele>
        <time>2020-03-11T10:35:53Z</time>
      </trkpt>
      <trkpt lat="45.69277" lon="-1.19161">
        <ele>3.2</ele>
        <time>2020-03-11T10:35:53Z</time>
      </trkpt>
      <trkpt lat="45.69261" lon="-1.19139">
        <ele>3.4</ele>
        <time>2020-03-11T10:35:53Z</time>
      </trkpt>
      <trkpt lat="45.69237" lon="-1.19106">
        <ele>4</ele>
        <time>2020-03-11T10:35:53Z</time>
      </trkpt>
      <trkpt lat="45.69217" lon="-1.19081">
        <ele>3.8</ele>
        <time>2020-03-11T10:35:53Z</time>
      </trkpt>
      <trkpt lat="45.69192" lon="-1.19055">
        <ele>3</ele>
        <time>2020-03-11T10:35:53Z</time>
      </trkpt>
      <trkpt lat="45.69168" lon="-1.19038">
        <ele>3.6</ele>
        <time>2020-03-11T10:35:53Z</time>
      </trkpt>
      <trkpt lat="45.69147" lon="-1.19033">
        <ele>3.9</ele>
        <time>2020-03-11T10:35:53Z</time>
      </trkpt>
      <trkpt lat="45.69126" lon="-1.19033">
        <ele>4</ele>
        <time>2020-03-11T10:35:53Z</time>
      </trkpt>
      <trkpt lat="45.69106" lon="-1.19032">
        <ele>4.2</ele>
        <time>2020-03-11T10:35:53Z</time>
      </trkpt>
      <trkpt lat="45.69092" lon="-1.19011">
        <ele>4.3</ele>
        <time>2020-03-11T10:35:53Z</time>
      </trkpt>
      <trkpt lat="45.6909" lon="-1.18982">
        <ele>4</ele>
        <time>2020-03-11T10:35:53Z</time>
      </trkpt>
      <trkpt lat="45.69064" lon="-1.18976">
        <ele>4</ele>
        <time>2020-03-11T10:35:53Z</time>
      </trkpt>
      <trkpt lat="45.69038" lon="-1.18951">
        <ele>4</ele>
        <time>2020-03-11T10:35:53Z</time>
      </trkpt>
      <trkpt lat="45.68905" lon="-1.19023">
        <ele>5.3</ele>
        <time>2020-03-11T10:35:53Z</time>
      </trkpt>
      <trkpt lat="45.68883" lon="-1.19034">
        <ele>4.7</ele>
        <time>2020-03-11T10:35:53Z</time>
      </trkpt>
      <trkpt lat="45.68856" lon="-1.19011">
        <ele>5.5</ele>
        <time>2020-03-11T10:35:53Z</time>
      </trkpt>
      <trkpt lat="45.68838" lon="-1.18979">
        <ele>5.5</ele>
        <time>2020-03-11T10:35:53Z</time>
      </trkpt>
      <trkpt lat="45.68816" lon="-1.18941">
        <ele>6.1</ele>
        <time>2020-03-11T10:35:53Z</time>
      </trkpt>
      <trkpt lat="45.68793" lon="-1.18901">
        <ele>5.5</ele>
        <time>2020-03-11T10:35:53Z</time>
      </trkpt>
      <trkpt lat="45.68778" lon="-1.18875">
        <ele>4.5</ele>
        <time>2020-03-11T10:35:53Z</time>
      </trkpt>
      <trkpt lat="45.68763" lon="-1.1884">
        <ele>6.7</ele>
        <time>2020-03-11T10:35:53Z</time>
      </trkpt>
      <trkpt lat="45.68728" lon="-1.1879">
        <ele>7</ele>
        <time>2020-03-11T10:35:53Z</time>
      </trkpt>
      <trkpt lat="45.68713" lon="-1.18768">
        <ele>6.1</ele>
        <time>2020-03-11T10:35:53Z</time>
      </trkpt>
      <trkpt lat="45.68692" lon="-1.18747">
        <ele>5.3</ele>
        <time>2020-03-11T10:35:53Z</time>
      </trkpt>
      <trkpt lat="45.68672" lon="-1.18715">
        <ele>6</ele>
        <time>2020-03-11T10:35:53Z</time>
      </trkpt>
      <trkpt lat="45.68655" lon="-1.18681">
        <ele>6.6</ele>
        <time>2020-03-11T10:35:53Z</time>
      </trkpt>
      <trkpt lat="45.68655" lon="-1.18649">
        <ele>6.7</ele>
        <time>2020-03-11T10:35:53Z</time>
      </trkpt>
      <trkpt lat="45.68665" lon="-1.186">
        <ele>5.7</ele>
        <time>2020-03-11T10:35:53Z</time>
      </trkpt>
      <trkpt lat="45.68661" lon="-1.18559">
        <ele>4.5</ele>
        <time>2020-03-11T10:35:53Z</time>
      </trkpt>
      <trkpt lat="45.68635" lon="-1.1851">
        <ele>5.2</ele>
        <time>2020-03-11T10:35:53Z</time>
      </trkpt>
      <trkpt lat="45.68617" lon="-1.18475">
        <ele>6</ele>
        <time>2020-03-11T10:35:53Z</time>
      </trkpt>
      <trkpt lat="45.68592" lon="-1.18431">
        <ele>6.3</ele>
        <time>2020-03-11T10:35:53Z</time>
      </trkpt>
      <trkpt lat="45.68572" lon="-1.18397">
        <ele>7.3</ele>
        <time>2020-03-11T10:35:53Z</time>
      </trkpt>
      <trkpt lat="45.68552" lon="-1.18368">
        <ele>7.4</ele>
        <time>2020-03-11T10:35:53Z</time>
      </trkpt>
      <trkpt lat="45.68538" lon="-1.18349">
        <ele>6.8</ele>
        <time>2020-03-11T10:35:53Z</time>
      </trkpt>
      <trkpt lat="45.68519" lon="-1.1831">
        <ele>5.8</ele>
        <time>2020-03-11T10:35:53Z</time>
      </trkpt>
      <trkpt lat="45.68504" lon="-1.18281">
        <ele>5.9</ele>
        <time>2020-03-11T10:35:53Z</time>
      </trkpt>
      <trkpt lat="45.68508" lon="-1.18247">
        <ele>6.1</ele>
        <time>2020-03-11T10:35:53Z</time>
      </trkpt>
      <trkpt lat="45.68509" lon="-1.18216">
        <ele>6.3</ele>
        <time>2020-03-11T10:35:53Z</time>
      </trkpt>
      <trkpt lat="45.68511" lon="-1.18146">
        <ele>4.8</ele>
        <time>2020-03-11T10:35:53Z</time>
      </trkpt>
      <trkpt lat="45.68514" lon="-1.18095">
        <ele>6</ele>
        <time>2020-03-11T10:35:53Z</time>
      </trkpt>
      <trkpt lat="45.68496" lon="-1.18063">
        <ele>6</ele>
        <time>2020-03-11T10:35:53Z</time>
      </trkpt>
      <trkpt lat="45.68471" lon="-1.18057">
        <ele>6</ele>
        <time>2020-03-11T10:35:53Z</time>
      </trkpt>
      <trkpt lat="45.68419" lon="-1.18062">
        <ele>5</ele>
        <time>2020-03-11T10:35:53Z</time>
      </trkpt>
      <trkpt lat="45.68397" lon="-1.18065">
        <ele>5.2</ele>
        <time>2020-03-11T10:35:53Z</time>
      </trkpt>
      <trkpt lat="45.68376" lon="-1.18066">
        <ele>5.7</ele>
        <time>2020-03-11T10:35:53Z</time>
      </trkpt>
      <trkpt lat="45.68355" lon="-1.18069">
        <ele>6.3</ele>
        <time>2020-03-11T10:35:53Z</time>
      </trkpt>
      <trkpt lat="45.68337" lon="-1.18113">
        <ele>8.4</ele>
        <time>2020-03-11T10:35:53Z</time>
      </trkpt>
      <trkpt lat="45.68326" lon="-1.18137">
        <ele>6.4</ele>
        <time>2020-03-11T10:35:53Z</time>
      </trkpt>
      <trkpt lat="45.68311" lon="-1.18119">
        <ele>7.8</ele>
        <time>2020-03-11T10:35:53Z</time>
      </trkpt>
      <trkpt lat="45.68301" lon="-1.18097">
        <ele>7.7</ele>
        <time>2020-03-11T10:35:53Z</time>
      </trkpt>
      <trkpt lat="45.68287" lon="-1.18079">
        <ele>6.8</ele>
        <time>2020-03-11T10:35:53Z</time>
      </trkpt>
      <trkpt lat="45.6828" lon="-1.18052">
        <ele>7.2</ele>
        <time>2020-03-11T10:35:53Z</time>
      </trkpt>
      <trkpt lat="45.68263" lon="-1.18036">
        <ele>7.2</ele>
        <time>2020-03-11T10:35:53Z</time>
      </trkpt>
      <trkpt lat="45.68237" lon="-1.18013">
        <ele>6.8</ele>
        <time>2020-03-11T10:35:53Z</time>
      </trkpt>
      <trkpt lat="45.68228" lon="-1.17989">
        <ele>7</ele>
        <time>2020-03-11T10:35:53Z</time>
      </trkpt>
      <trkpt lat="45.6821" lon="-1.17963">
        <ele>6.3</ele>
        <time>2020-03-11T10:35:53Z</time>
      </trkpt>
      <trkpt lat="45.68194" lon="-1.17929">
        <ele>7</ele>
        <time>2020-03-11T10:35:53Z</time>
      </trkpt>
      <trkpt lat="45.6817" lon="-1.17911">
        <ele>6.1</ele>
        <time>2020-03-11T10:35:53Z</time>
      </trkpt>
      <trkpt lat="45.68143" lon="-1.17868">
        <ele>5.5</ele>
        <time>2020-03-11T10:35:53Z</time>
      </trkpt>
      <trkpt lat="45.6813" lon="-1.17846">
        <ele>5.4</ele>
        <time>2020-03-11T10:35:53Z</time>
      </trkpt>
      <trkpt lat="45.68048" lon="-1.17714">
        <ele>5.8</ele>
        <time>2020-03-11T10:35:53Z</time>
      </trkpt>
      <trkpt lat="45.68018" lon="-1.17661">
        <ele>4.9</ele>
        <time>2020-03-11T10:35:53Z</time>
      </trkpt>
      <trkpt lat="45.67991" lon="-1.17611">
        <ele>4.7</ele>
        <time>2020-03-11T10:35:53Z</time>
      </trkpt>
      <trkpt lat="45.67962" lon="-1.17552">
        <ele>4.8</ele>
        <time>2020-03-11T10:35:53Z</time>
      </trkpt>
      <trkpt lat="45.67931" lon="-1.17491">
        <ele>5.7</ele>
        <time>2020-03-11T10:35:53Z</time>
      </trkpt>
      <trkpt lat="45.67904" lon="-1.17442">
        <ele>5.1</ele>
        <time>2020-03-11T10:35:53Z</time>
      </trkpt>
      <trkpt lat="45.67878" lon="-1.17391">
        <ele>5.2</ele>
        <time>2020-03-11T10:35:53Z</time>
      </trkpt>
      <trkpt lat="45.67855" lon="-1.17343">
        <ele>5.6</ele>
        <time>2020-03-11T10:35:53Z</time>
      </trkpt>
      <trkpt lat="45.67834" lon="-1.17292">
        <ele>6</ele>
        <time>2020-03-11T10:35:53Z</time>
      </trkpt>
      <trkpt lat="45.67823" lon="-1.17258">
        <ele>5.3</ele>
        <time>2020-03-11T10:35:53Z</time>
      </trkpt>
      <trkpt lat="45.67809" lon="-1.17227">
        <ele>5.9</ele>
        <time>2020-03-11T10:35:53Z</time>
      </trkpt>
      <trkpt lat="45.67801" lon="-1.17185">
        <ele>5.7</ele>
        <time>2020-03-11T10:35:53Z</time>
      </trkpt>
      <trkpt lat="45.67768" lon="-1.17107">
        <ele>5.3</ele>
        <time>2020-03-11T10:35:53Z</time>
      </trkpt>
      <trkpt lat="45.67743" lon="-1.17054">
        <ele>5.4</ele>
        <time>2020-03-11T10:35:53Z</time>
      </trkpt>
      <trkpt lat="45.67726" lon="-1.17021">
        <ele>5.6</ele>
        <time>2020-03-11T10:35:53Z</time>
      </trkpt>
      <trkpt lat="45.67711" lon="-1.17005">
        <ele>4.9</ele>
        <time>2020-03-11T10:35:53Z</time>
      </trkpt>
      <trkpt lat="45.67689" lon="-1.16959">
        <ele>4.8</ele>
        <time>2020-03-11T10:35:53Z</time>
      </trkpt>
      <trkpt lat="45.67658" lon="-1.16889">
        <ele>4.1</ele>
        <time>2020-03-11T10:35:53Z</time>
      </trkpt>
      <trkpt lat="45.67624" lon="-1.16812">
        <ele>4.5</ele>
        <time>2020-03-11T10:35:53Z</time>
      </trkpt>
      <trkpt lat="45.67589" lon="-1.16735">
        <ele>5.3</ele>
        <time>2020-03-11T10:35:53Z</time>
      </trkpt>
      <trkpt lat="45.67566" lon="-1.16687">
        <ele>4.3</ele>
        <time>2020-03-11T10:35:53Z</time>
      </trkpt>
      <trkpt lat="45.67546" lon="-1.16641">
        <ele>5</ele>
        <time>2020-03-11T10:35:53Z</time>
      </trkpt>
      <trkpt lat="45.67525" lon="-1.16595">
        <ele>6.3</ele>
        <time>2020-03-11T10:35:53Z</time>
      </trkpt>
      <trkpt lat="45.67507" lon="-1.16555">
        <ele>6.8</ele>
        <time>2020-03-11T10:35:53Z</time>
      </trkpt>
      <trkpt lat="45.67502" lon="-1.16527">
        <ele>7.2</ele>
        <time>2020-03-11T10:35:53Z</time>
      </trkpt>
      <trkpt lat="45.6751" lon="-1.16493">
        <ele>6</ele>
        <time>2020-03-11T10:35:53Z</time>
      </trkpt>
      <trkpt lat="45.67522" lon="-1.16472">
        <ele>5.6</ele>
        <time>2020-03-11T10:35:53Z</time>
      </trkpt>
      <trkpt lat="45.67537" lon="-1.16439">
        <ele>5</ele>
        <time>2020-03-11T10:35:53Z</time>
      </trkpt>
      <trkpt lat="45.67543" lon="-1.16411">
        <ele>4.3</ele>
        <time>2020-03-11T10:35:53Z</time>
      </trkpt>
      <trkpt lat="45.6756" lon="-1.16335">
        <ele>4.8</ele>
        <time>2020-03-11T10:35:53Z</time>
      </trkpt>
      <trkpt lat="45.67576" lon="-1.16264">
        <ele>4.8</ele>
        <time>2020-03-11T10:35:53Z</time>
      </trkpt>
      <trkpt lat="45.6759" lon="-1.162">
        <ele>5.2</ele>
        <time>2020-03-11T10:35:53Z</time>
      </trkpt>
      <trkpt lat="45.67603" lon="-1.16173">
        <ele>5.1</ele>
        <time>2020-03-11T10:35:53Z</time>
      </trkpt>
      <trkpt lat="45.67628" lon="-1.16151">
        <ele>5.7</ele>
        <time>2020-03-11T10:35:53Z</time>
      </trkpt>
      <trkpt lat="45.67656" lon="-1.16151">
        <ele>5.4</ele>
        <time>2020-03-11T10:35:53Z</time>
      </trkpt>
      <trkpt lat="45.67689" lon="-1.16164">
        <ele>5.2</ele>
        <time>2020-03-11T10:35:53Z</time>
      </trkpt>
      <trkpt lat="45.67712" lon="-1.16183">
        <ele>5</ele>
        <time>2020-03-11T10:35:53Z</time>
      </trkpt>
      <trkpt lat="45.67734" lon="-1.16192">
        <ele>5.4</ele>
        <time>2020-03-11T10:35:53Z</time>
      </trkpt>
      <trkpt lat="45.67864" lon="-1.16007">
        <ele>5.4</ele>
        <time>2020-03-11T10:35:53Z</time>
      </trkpt>
      <trkpt lat="45.6796" lon="-1.1587">
        <ele>5</ele>
        <time>2020-03-11T10:35:53Z</time>
      </trkpt>
      <trkpt lat="45.6801" lon="-1.15797">
        <ele>5.4</ele>
        <time>2020-03-11T10:35:53Z</time>
      </trkpt>
      <trkpt lat="45.67917" lon="-1.15645">
        <ele>5</ele>
        <time>2020-03-11T10:35:53Z</time>
      </trkpt>
      <trkpt lat="45.67894" lon="-1.15611">
        <ele>5</ele>
        <time>2020-03-11T10:35:53Z</time>
      </trkpt>
      <trkpt lat="45.67881" lon="-1.15589">
        <ele>5</ele>
        <time>2020-03-11T10:35:53Z</time>
      </trkpt>
      <trkpt lat="45.67848" lon="-1.15535">
        <ele>5</ele>
        <time>2020-03-11T10:35:53Z</time>
      </trkpt>
      <trkpt lat="45.67774" lon="-1.15411">
        <ele>5</ele>
        <time>2020-03-11T10:35:53Z</time>
      </trkpt>
      <trkpt lat="45.67751" lon="-1.15374">
        <ele>5</ele>
        <time>2020-03-11T10:35:53Z</time>
      </trkpt>
      <trkpt lat="45.67731" lon="-1.15345">
        <ele>5</ele>
        <time>2020-03-11T10:35:53Z</time>
      </trkpt>
      <trkpt lat="45.67703" lon="-1.1531">
        <ele>5</ele>
        <time>2020-03-11T10:35:53Z</time>
      </trkpt>
      <trkpt lat="45.67681" lon="-1.15285">
        <ele>5</ele>
        <time>2020-03-11T10:35:53Z</time>
      </trkpt>
      <trkpt lat="45.67656" lon="-1.15261">
        <ele>5.2</ele>
        <time>2020-03-11T10:35:53Z</time>
      </trkpt>
      <trkpt lat="45.67636" lon="-1.1524">
        <ele>5.9</ele>
        <time>2020-03-11T10:35:53Z</time>
      </trkpt>
      <trkpt lat="45.67601" lon="-1.15213">
        <ele>6</ele>
        <time>2020-03-11T10:35:53Z</time>
      </trkpt>
      <trkpt lat="45.67537" lon="-1.1516">
        <ele>6</ele>
        <time>2020-03-11T10:35:53Z</time>
      </trkpt>
      <trkpt lat="45.67504" lon="-1.15132">
        <ele>6</ele>
        <time>2020-03-11T10:35:53Z</time>
      </trkpt>
      <trkpt lat="45.67476" lon="-1.15107">
        <ele>6.2</ele>
        <time>2020-03-11T10:35:53Z</time>
      </trkpt>
      <trkpt lat="45.67439" lon="-1.15073">
        <ele>6</ele>
        <time>2020-03-11T10:35:53Z</time>
      </trkpt>
      <trkpt lat="45.67405" lon="-1.15045">
        <ele>6</ele>
        <time>2020-03-11T10:35:53Z</time>
      </trkpt>
      <trkpt lat="45.67316" lon="-1.14969">
        <ele>5</ele>
        <time>2020-03-11T10:35:53Z</time>
      </trkpt>
      <trkpt lat="45.67237" lon="-1.14902">
        <ele>5.3</ele>
        <time>2020-03-11T10:35:53Z</time>
      </trkpt>
      <trkpt lat="45.67161" lon="-1.14835">
        <ele>5</ele>
        <time>2020-03-11T10:35:53Z</time>
      </trkpt>
      <trkpt lat="45.67004" lon="-1.14699">
        <ele>5.3</ele>
        <time>2020-03-11T10:35:53Z</time>
      </trkpt>
      <trkpt lat="45.66846" lon="-1.14564">
        <ele>5.3</ele>
        <time>2020-03-11T10:35:53Z</time>
      </trkpt>
      <trkpt lat="45.66686" lon="-1.14425">
        <ele>5.1</ele>
        <time>2020-03-11T10:35:53Z</time>
      </trkpt>
      <trkpt lat="45.66615" lon="-1.14364">
        <ele>5.8</ele>
        <time>2020-03-11T10:35:53Z</time>
      </trkpt>
      <trkpt lat="45.6659" lon="-1.14343">
        <ele>5.2</ele>
        <time>2020-03-11T10:35:53Z</time>
      </trkpt>
      <trkpt lat="45.66554" lon="-1.1431">
        <ele>6</ele>
        <time>2020-03-11T10:35:53Z</time>
      </trkpt>
      <trkpt lat="45.66539" lon="-1.14293">
        <ele>6</ele>
        <time>2020-03-11T10:35:53Z</time>
      </trkpt>
      <trkpt lat="45.66534" lon="-1.14249">
        <ele>6.3</ele>
        <time>2020-03-11T10:35:53Z</time>
      </trkpt>
      <trkpt lat="45.66532" lon="-1.14207">
        <ele>7.1</ele>
        <time>2020-03-11T10:35:53Z</time>
      </trkpt>
      <trkpt lat="45.66529" lon="-1.1418">
        <ele>7.5</ele>
        <time>2020-03-11T10:35:53Z</time>
      </trkpt>
      <trkpt lat="45.66522" lon="-1.14155">
        <ele>9.1</ele>
        <time>2020-03-11T10:35:53Z</time>
      </trkpt>
      <trkpt lat="45.66501" lon="-1.1412">
        <ele>10.7</ele>
        <time>2020-03-11T10:35:53Z</time>
      </trkpt>
      <trkpt lat="45.66485" lon="-1.14103">
        <ele>9.5</ele>
        <time>2020-03-11T10:35:53Z</time>
      </trkpt>
      <trkpt lat="45.66467" lon="-1.1409">
        <ele>8.9</ele>
        <time>2020-03-11T10:35:53Z</time>
      </trkpt>
      <trkpt lat="45.66449" lon="-1.1408">
        <ele>10.1</ele>
        <time>2020-03-11T10:35:53Z</time>
      </trkpt>
      <trkpt lat="45.66411" lon="-1.14016">
        <ele>11.5</ele>
        <time>2020-03-11T10:35:53Z</time>
      </trkpt>
      <trkpt lat="45.66395" lon="-1.1399">
        <ele>10.7</ele>
        <time>2020-03-11T10:35:53Z</time>
      </trkpt>
      <trkpt lat="45.66379" lon="-1.13963">
        <ele>11.7</ele>
        <time>2020-03-11T10:35:53Z</time>
      </trkpt>
      <trkpt lat="45.66369" lon="-1.13925">
        <ele>13.2</ele>
        <time>2020-03-11T10:35:53Z</time>
      </trkpt>
      <trkpt lat="45.66367" lon="-1.13894">
        <ele>13</ele>
        <time>2020-03-11T10:35:53Z</time>
      </trkpt>
      <trkpt lat="45.66366" lon="-1.13863">
        <ele>12.1</ele>
        <time>2020-03-11T10:35:53Z</time>
      </trkpt>
      <trkpt lat="45.66351" lon="-1.13835">
        <ele>11.3</ele>
        <time>2020-03-11T10:35:53Z</time>
      </trkpt>
      <trkpt lat="45.66282" lon="-1.13735">
        <ele>12.5</ele>
        <time>2020-03-11T10:35:53Z</time>
      </trkpt>
      <trkpt lat="45.66258" lon="-1.13701">
        <ele>12.3</ele>
        <time>2020-03-11T10:35:53Z</time>
      </trkpt>
      <trkpt lat="45.66237" lon="-1.13671">
        <ele>14.2</ele>
        <time>2020-03-11T10:35:53Z</time>
      </trkpt>
      <trkpt lat="45.66218" lon="-1.13643">
        <ele>16.4</ele>
        <time>2020-03-11T10:35:53Z</time>
      </trkpt>
      <trkpt lat="45.66203" lon="-1.13622">
        <ele>14.5</ele>
        <time>2020-03-11T10:35:53Z</time>
      </trkpt>
      <trkpt lat="45.66176" lon="-1.13585">
        <ele>10</ele>
        <time>2020-03-11T10:35:53Z</time>
      </trkpt>
      <trkpt lat="45.66148" lon="-1.13545">
        <ele>9.9</ele>
        <time>2020-03-11T10:35:53Z</time>
      </trkpt>
      <trkpt lat="45.66128" lon="-1.13514">
        <ele>8.8</ele>
        <time>2020-03-11T10:35:53Z</time>
      </trkpt>
      <trkpt lat="45.66094" lon="-1.13464">
        <ele>8.4</ele>
        <time>2020-03-11T10:35:53Z</time>
      </trkpt>
      <trkpt lat="45.66003" lon="-1.13332">
        <ele>8</ele>
        <time>2020-03-11T10:35:53Z</time>
      </trkpt>
      <trkpt lat="45.65985" lon="-1.13306">
        <ele>10.5</ele>
        <time>2020-03-11T10:35:53Z</time>
      </trkpt>
      <trkpt lat="45.6597" lon="-1.13284">
        <ele>12.5</ele>
        <time>2020-03-11T10:35:53Z</time>
      </trkpt>
      <trkpt lat="45.65957" lon="-1.13263">
        <ele>11.9</ele>
        <time>2020-03-11T10:35:53Z</time>
      </trkpt>
      <trkpt lat="45.65939" lon="-1.13213">
        <ele>11.8</ele>
        <time>2020-03-11T10:35:53Z</time>
      </trkpt>
      <trkpt lat="45.65931" lon="-1.13185">
        <ele>11.2</ele>
        <time>2020-03-11T10:35:53Z</time>
      </trkpt>
      <trkpt lat="45.65929" lon="-1.13145">
        <ele>11.2</ele>
        <time>2020-03-11T10:35:53Z</time>
      </trkpt>
      <trkpt lat="45.65928" lon="-1.13119">
        <ele>11</ele>
        <time>2020-03-11T10:35:53Z</time>
      </trkpt>
      <trkpt lat="45.65923" lon="-1.13054">
        <ele>10</ele>
        <time>2020-03-11T10:35:53Z</time>
      </trkpt>
      <trkpt lat="45.65918" lon="-1.13022">
        <ele>10.3</ele>
        <time>2020-03-11T10:35:53Z</time>
      </trkpt>
      <trkpt lat="45.65899" lon="-1.12987">
        <ele>10.7</ele>
        <time>2020-03-11T10:35:53Z</time>
      </trkpt>
      <trkpt lat="45.65879" lon="-1.12928">
        <ele>8.7</ele>
        <time>2020-03-11T10:35:53Z</time>
      </trkpt>
      <trkpt lat="45.6587" lon="-1.12905">
        <ele>9.8</ele>
        <time>2020-03-11T10:35:53Z</time>
      </trkpt>
      <trkpt lat="45.65855" lon="-1.12871">
        <ele>12</ele>
        <time>2020-03-11T10:35:53Z</time>
      </trkpt>
      <trkpt lat="45.65845" lon="-1.12844">
        <ele>13.3</ele>
        <time>2020-03-11T10:35:53Z</time>
      </trkpt>
      <trkpt lat="45.65835" lon="-1.12812">
        <ele>13.8</ele>
        <time>2020-03-11T10:35:53Z</time>
      </trkpt>
      <trkpt lat="45.65827" lon="-1.12788">
        <ele>14.6</ele>
        <time>2020-03-11T10:35:53Z</time>
      </trkpt>
      <trkpt lat="45.65815" lon="-1.12767">
        <ele>14.7</ele>
        <time>2020-03-11T10:35:53Z</time>
      </trkpt>
      <trkpt lat="45.65817" lon="-1.12738">
        <ele>14.4</ele>
        <time>2020-03-11T10:35:53Z</time>
      </trkpt>
      <trkpt lat="45.65824" lon="-1.12698">
        <ele>15</ele>
        <time>2020-03-11T10:35:53Z</time>
      </trkpt>
      <trkpt lat="45.65834" lon="-1.12667">
        <ele>14.9</ele>
        <time>2020-03-11T10:35:53Z</time>
      </trkpt>
      <trkpt lat="45.65816" lon="-1.12618">
        <ele>15.8</ele>
        <time>2020-03-11T10:35:53Z</time>
      </trkpt>
      <trkpt lat="45.65793" lon="-1.12596">
        <ele>17</ele>
        <time>2020-03-11T10:35:53Z</time>
      </trkpt>
      <trkpt lat="45.65768" lon="-1.12575">
        <ele>18.5</ele>
        <time>2020-03-11T10:35:53Z</time>
      </trkpt>
      <trkpt lat="45.65751" lon="-1.12561">
        <ele>19</ele>
        <time>2020-03-11T10:35:53Z</time>
      </trkpt>
      <trkpt lat="45.65724" lon="-1.12537">
        <ele>18.7</ele>
        <time>2020-03-11T10:35:53Z</time>
      </trkpt>
      <trkpt lat="45.65707" lon="-1.12522">
        <ele>17.5</ele>
        <time>2020-03-11T10:35:53Z</time>
      </trkpt>
      <trkpt lat="45.65667" lon="-1.12486">
        <ele>15.5</ele>
        <time>2020-03-11T10:35:53Z</time>
      </trkpt>
      <trkpt lat="45.65638" lon="-1.1246">
        <ele>15.4</ele>
        <time>2020-03-11T10:35:53Z</time>
      </trkpt>
      <trkpt lat="45.65612" lon="-1.12439">
        <ele>15</ele>
        <time>2020-03-11T10:35:53Z</time>
      </trkpt>
      <trkpt lat="45.65589" lon="-1.12417">
        <ele>14.2</ele>
        <time>2020-03-11T10:35:53Z</time>
      </trkpt>
      <trkpt lat="45.65549" lon="-1.12383">
        <ele>14.6</ele>
        <time>2020-03-11T10:35:53Z</time>
      </trkpt>
      <trkpt lat="45.65482" lon="-1.12325">
        <ele>13.5</ele>
        <time>2020-03-11T10:35:53Z</time>
      </trkpt>
      <trkpt lat="45.65415" lon="-1.12267">
        <ele>13.2</ele>
        <time>2020-03-11T10:35:53Z</time>
      </trkpt>
      <trkpt lat="45.65381" lon="-1.12237">
        <ele>14.3</ele>
        <time>2020-03-11T10:35:53Z</time>
      </trkpt>
      <trkpt lat="45.65358" lon="-1.12217">
        <ele>14.3</ele>
        <time>2020-03-11T10:35:53Z</time>
      </trkpt>
      <trkpt lat="45.65338" lon="-1.12204">
        <ele>14.4</ele>
        <time>2020-03-11T10:35:53Z</time>
      </trkpt>
      <trkpt lat="45.65313" lon="-1.12193">
        <ele>14</ele>
        <time>2020-03-11T10:35:53Z</time>
      </trkpt>
      <trkpt lat="45.65294" lon="-1.12202">
        <ele>14</ele>
        <time>2020-03-11T10:35:53Z</time>
      </trkpt>
      <trkpt lat="45.65278" lon="-1.12231">
        <ele>14</ele>
        <time>2020-03-11T10:35:53Z</time>
      </trkpt>
      <trkpt lat="45.65262" lon="-1.12244">
        <ele>14.6</ele>
        <time>2020-03-11T10:35:53Z</time>
      </trkpt>
      <trkpt lat="45.65251" lon="-1.12275">
        <ele>15.1</ele>
        <time>2020-03-11T10:35:53Z</time>
      </trkpt>
      <trkpt lat="45.65255" lon="-1.12304">
        <ele>15.4</ele>
        <time>2020-03-11T10:35:53Z</time>
      </trkpt>
      <trkpt lat="45.65246" lon="-1.12335">
        <ele>14</ele>
        <time>2020-03-11T10:35:53Z</time>
      </trkpt>
      <trkpt lat="45.65228" lon="-1.12338">
        <ele>13.9</ele>
        <time>2020-03-11T10:35:53Z</time>
      </trkpt>
      <trkpt lat="45.65195" lon="-1.12377">
        <ele>13</ele>
        <time>2020-03-11T10:35:53Z</time>
      </trkpt>
      <trkpt lat="45.65176" lon="-1.12375">
        <ele>12</ele>
        <time>2020-03-11T10:35:53Z</time>
      </trkpt>
      <trkpt lat="45.65162" lon="-1.12345">
        <ele>12.5</ele>
        <time>2020-03-11T10:35:53Z</time>
      </trkpt>
      <trkpt lat="45.65155" lon="-1.12312">
        <ele>11.8</ele>
        <time>2020-03-11T10:35:53Z</time>
      </trkpt>
      <trkpt lat="45.65144" lon="-1.12284">
        <ele>12.5</ele>
        <time>2020-03-11T10:35:53Z</time>
      </trkpt>
      <trkpt lat="45.65133" lon="-1.12252">
        <ele>12.4</ele>
        <time>2020-03-11T10:35:53Z</time>
      </trkpt>
      <trkpt lat="45.65125" lon="-1.12225">
        <ele>10.4</ele>
        <time>2020-03-11T10:35:53Z</time>
      </trkpt>
      <trkpt lat="45.65115" lon="-1.12194">
        <ele>12.3</ele>
        <time>2020-03-11T10:35:53Z</time>
      </trkpt>
      <trkpt lat="45.65103" lon="-1.12164">
        <ele>12.4</ele>
        <time>2020-03-11T10:35:53Z</time>
      </trkpt>
      <trkpt lat="45.65091" lon="-1.12136">
        <ele>12.7</ele>
        <time>2020-03-11T10:35:53Z</time>
      </trkpt>
      <trkpt lat="45.65073" lon="-1.12097">
        <ele>12.1</ele>
        <time>2020-03-11T10:35:53Z</time>
      </trkpt>
      <trkpt lat="45.65056" lon="-1.12062">
        <ele>13.9</ele>
        <time>2020-03-11T10:35:53Z</time>
      </trkpt>
      <trkpt lat="45.65046" lon="-1.12039">
        <ele>13.1</ele>
        <time>2020-03-11T10:35:53Z</time>
      </trkpt>
      <trkpt lat="45.65033" lon="-1.12009">
        <ele>14.1</ele>
        <time>2020-03-11T10:35:53Z</time>
      </trkpt>
      <trkpt lat="45.65021" lon="-1.11989">
        <ele>13.6</ele>
        <time>2020-03-11T10:35:53Z</time>
      </trkpt>
      <trkpt lat="45.65006" lon="-1.11955">
        <ele>13.9</ele>
        <time>2020-03-11T10:35:53Z</time>
      </trkpt>
      <trkpt lat="45.64994" lon="-1.1193">
        <ele>13.8</ele>
        <time>2020-03-11T10:35:53Z</time>
      </trkpt>
      <trkpt lat="45.64979" lon="-1.11896">
        <ele>13.5</ele>
        <time>2020-03-11T10:35:53Z</time>
      </trkpt>
      <trkpt lat="45.64965" lon="-1.11866">
        <ele>13</ele>
        <time>2020-03-11T10:35:53Z</time>
      </trkpt>
      <trkpt lat="45.64952" lon="-1.11834">
        <ele>12.7</ele>
        <time>2020-03-11T10:35:53Z</time>
      </trkpt>
      <trkpt lat="45.64943" lon="-1.1181">
        <ele>13.3</ele>
        <time>2020-03-11T10:35:53Z</time>
      </trkpt>
      <trkpt lat="45.64929" lon="-1.11774">
        <ele>10.6</ele>
        <time>2020-03-11T10:35:53Z</time>
      </trkpt>
      <trkpt lat="45.64915" lon="-1.11741">
        <ele>11.9</ele>
        <time>2020-03-11T10:35:53Z</time>
      </trkpt>
      <trkpt lat="45.64901" lon="-1.11708">
        <ele>10.8</ele>
        <time>2020-03-11T10:35:53Z</time>
      </trkpt>
      <trkpt lat="45.64887" lon="-1.11678">
        <ele>12.1</ele>
        <time>2020-03-11T10:35:53Z</time>
      </trkpt>
      <trkpt lat="45.64874" lon="-1.11651">
        <ele>10.5</ele>
        <time>2020-03-11T10:35:53Z</time>
      </trkpt>
      <trkpt lat="45.64859" lon="-1.11618">
        <ele>12</ele>
        <time>2020-03-11T10:35:53Z</time>
      </trkpt>
      <trkpt lat="45.64849" lon="-1.11596">
        <ele>11.4</ele>
        <time>2020-03-11T10:35:53Z</time>
      </trkpt>
      <trkpt lat="45.64842" lon="-1.11572">
        <ele>12.6</ele>
        <time>2020-03-11T10:35:53Z</time>
      </trkpt>
      <trkpt lat="45.64834" lon="-1.11542">
        <ele>13</ele>
        <time>2020-03-11T10:35:53Z</time>
      </trkpt>
      <trkpt lat="45.64827" lon="-1.11506">
        <ele>13.6</ele>
        <time>2020-03-11T10:35:53Z</time>
      </trkpt>
      <trkpt lat="45.64824" lon="-1.1148">
        <ele>13.2</ele>
        <time>2020-03-11T10:35:53Z</time>
      </trkpt>
      <trkpt lat="45.64821" lon="-1.11451">
        <ele>13</ele>
        <time>2020-03-11T10:35:53Z</time>
      </trkpt>
      <trkpt lat="45.64816" lon="-1.11418">
        <ele>13</ele>
        <time>2020-03-11T10:35:53Z</time>
      </trkpt>
      <trkpt lat="45.64809" lon="-1.11384">
        <ele>13</ele>
        <time>2020-03-11T10:35:53Z</time>
      </trkpt>
      <trkpt lat="45.64802" lon="-1.11355">
        <ele>13</ele>
        <time>2020-03-11T10:35:53Z</time>
      </trkpt>
      <trkpt lat="45.64792" lon="-1.11294">
        <ele>11.3</ele>
        <time>2020-03-11T10:35:53Z</time>
      </trkpt>
      <trkpt lat="45.64788" lon="-1.11268">
        <ele>11.1</ele>
        <time>2020-03-11T10:35:53Z</time>
      </trkpt>
      <trkpt lat="45.64782" lon="-1.11242">
        <ele>11.3</ele>
        <time>2020-03-11T10:35:53Z</time>
      </trkpt>
      <trkpt lat="45.64756" lon="-1.11115">
        <ele>10.3</ele>
        <time>2020-03-11T10:35:53Z</time>
      </trkpt>
      <trkpt lat="45.6475" lon="-1.11082">
        <ele>10</ele>
        <time>2020-03-11T10:35:53Z</time>
      </trkpt>
      <trkpt lat="45.64742" lon="-1.11045">
        <ele>9.3</ele>
        <time>2020-03-11T10:35:53Z</time>
      </trkpt>
      <trkpt lat="45.64738" lon="-1.11017">
        <ele>8.5</ele>
        <time>2020-03-11T10:35:53Z</time>
      </trkpt>
      <trkpt lat="45.64734" lon="-1.10984">
        <ele>10</ele>
        <time>2020-03-11T10:35:53Z</time>
      </trkpt>
      <trkpt lat="45.6473" lon="-1.10954">
        <ele>11.2</ele>
        <time>2020-03-11T10:35:53Z</time>
      </trkpt>
      <trkpt lat="45.64726" lon="-1.1092">
        <ele>12.8</ele>
        <time>2020-03-11T10:35:53Z</time>
      </trkpt>
      <trkpt lat="45.64718" lon="-1.10875">
        <ele>13.9</ele>
        <time>2020-03-11T10:35:53Z</time>
      </trkpt>
      <trkpt lat="45.64711" lon="-1.10833">
        <ele>15.4</ele>
        <time>2020-03-11T10:35:53Z</time>
      </trkpt>
      <trkpt lat="45.64707" lon="-1.10804">
        <ele>16.1</ele>
        <time>2020-03-11T10:35:53Z</time>
      </trkpt>
      <trkpt lat="45.64703" lon="-1.10773">
        <ele>17</ele>
        <time>2020-03-11T10:35:53Z</time>
      </trkpt>
      <trkpt lat="45.64702" lon="-1.10737">
        <ele>17.5</ele>
        <time>2020-03-11T10:35:53Z</time>
      </trkpt>
      <trkpt lat="45.64698" lon="-1.1071">
        <ele>18.1</ele>
        <time>2020-03-11T10:35:53Z</time>
      </trkpt>
      <trkpt lat="45.64697" lon="-1.10646">
        <ele>19.7</ele>
        <time>2020-03-11T10:35:53Z</time>
      </trkpt>
      <trkpt lat="45.64696" lon="-1.10616">
        <ele>20</ele>
        <time>2020-03-11T10:35:53Z</time>
      </trkpt>
      <trkpt lat="45.64688" lon="-1.10586">
        <ele>20.7</ele>
        <time>2020-03-11T10:35:53Z</time>
      </trkpt>
      <trkpt lat="45.6469" lon="-1.10555">
        <ele>20</ele>
        <time>2020-03-11T10:35:53Z</time>
      </trkpt>
      <trkpt lat="45.64691" lon="-1.10526">
        <ele>20</ele>
        <time>2020-03-11T10:35:53Z</time>
      </trkpt>
      <trkpt lat="45.64686" lon="-1.10482">
        <ele>19.7</ele>
        <time>2020-03-11T10:35:53Z</time>
      </trkpt>
      <trkpt lat="45.64682" lon="-1.10445">
        <ele>19.6</ele>
        <time>2020-03-11T10:35:53Z</time>
      </trkpt>
      <trkpt lat="45.64677" lon="-1.10407">
        <ele>18.2</ele>
        <time>2020-03-11T10:35:53Z</time>
      </trkpt>
      <trkpt lat="45.64671" lon="-1.10369">
        <ele>17.2</ele>
        <time>2020-03-11T10:35:53Z</time>
      </trkpt>
      <trkpt lat="45.64667" lon="-1.1034">
        <ele>16.3</ele>
        <time>2020-03-11T10:35:53Z</time>
      </trkpt>
      <trkpt lat="45.64662" lon="-1.103">
        <ele>15.4</ele>
        <time>2020-03-11T10:35:53Z</time>
      </trkpt>
      <trkpt lat="45.64634" lon="-1.10246">
        <ele>13.8</ele>
        <time>2020-03-11T10:35:53Z</time>
      </trkpt>
      <trkpt lat="45.64625" lon="-1.10222">
        <ele>14</ele>
        <time>2020-03-11T10:35:53Z</time>
      </trkpt>
      <trkpt lat="45.64619" lon="-1.10195">
        <ele>14.5</ele>
        <time>2020-03-11T10:35:53Z</time>
      </trkpt>
      <trkpt lat="45.64607" lon="-1.10167">
        <ele>14.7</ele>
        <time>2020-03-11T10:35:53Z</time>
      </trkpt>
      <trkpt lat="45.64591" lon="-1.1013">
        <ele>14.8</ele>
        <time>2020-03-11T10:35:53Z</time>
      </trkpt>
      <trkpt lat="45.64586" lon="-1.10103">
        <ele>16.3</ele>
        <time>2020-03-11T10:35:53Z</time>
      </trkpt>
      <trkpt lat="45.64589" lon="-1.10075">
        <ele>17.5</ele>
        <time>2020-03-11T10:35:53Z</time>
      </trkpt>
      <trkpt lat="45.64633" lon="-1.09985">
        <ele>23.5</ele>
        <time>2020-03-11T10:35:53Z</time>
      </trkpt>
      <trkpt lat="45.64626" lon="-1.09946">
        <ele>24.5</ele>
        <time>2020-03-11T10:35:53Z</time>
      </trkpt>
      <trkpt lat="45.6461" lon="-1.09892">
        <ele>24.9</ele>
        <time>2020-03-11T10:35:53Z</time>
      </trkpt>
      <trkpt lat="45.64581" lon="-1.09786">
        <ele>25.1</ele>
        <time>2020-03-11T10:35:53Z</time>
      </trkpt>
      <trkpt lat="45.64571" lon="-1.09746">
        <ele>25</ele>
        <time>2020-03-11T10:35:53Z</time>
      </trkpt>
      <trkpt lat="45.64554" lon="-1.09684">
        <ele>24.1</ele>
        <time>2020-03-11T10:35:53Z</time>
      </trkpt>
      <trkpt lat="45.64532" lon="-1.0961">
        <ele>24</ele>
        <time>2020-03-11T10:35:53Z</time>
      </trkpt>
      <trkpt lat="45.64522" lon="-1.09572">
        <ele>24.2</ele>
        <time>2020-03-11T10:35:53Z</time>
      </trkpt>
      <trkpt lat="45.64499" lon="-1.0949">
        <ele>24</ele>
        <time>2020-03-11T10:35:53Z</time>
      </trkpt>
      <trkpt lat="45.64488" lon="-1.09455">
        <ele>23.6</ele>
        <time>2020-03-11T10:35:53Z</time>
      </trkpt>
      <trkpt lat="45.64472" lon="-1.09395">
        <ele>21.4</ele>
        <time>2020-03-11T10:35:53Z</time>
      </trkpt>
      <trkpt lat="45.64449" lon="-1.09307">
        <ele>18.4</ele>
        <time>2020-03-11T10:35:53Z</time>
      </trkpt>
      <trkpt lat="45.64449" lon="-1.09253">
        <ele>17.4</ele>
        <time>2020-03-11T10:35:53Z</time>
      </trkpt>
      <trkpt lat="45.6445" lon="-1.09192">
        <ele>15</ele>
        <time>2020-03-11T10:35:53Z</time>
      </trkpt>
      <trkpt lat="45.64444" lon="-1.09163">
        <ele>12.8</ele>
        <time>2020-03-11T10:35:53Z</time>
      </trkpt>
      <trkpt lat="45.64435" lon="-1.0914">
        <ele>11.4</ele>
        <time>2020-03-11T10:35:53Z</time>
      </trkpt>
      <trkpt lat="45.64422" lon="-1.09116">
        <ele>10.1</ele>
        <time>2020-03-11T10:35:53Z</time>
      </trkpt>
      <trkpt lat="45.64409" lon="-1.09087">
        <ele>9.8</ele>
        <time>2020-03-11T10:35:53Z</time>
      </trkpt>
      <trkpt lat="45.64397" lon="-1.09065">
        <ele>8.6</ele>
        <time>2020-03-11T10:35:53Z</time>
      </trkpt>
      <trkpt lat="45.64384" lon="-1.09038">
        <ele>8.5</ele>
        <time>2020-03-11T10:35:53Z</time>
      </trkpt>
      <trkpt lat="45.64374" lon="-1.09016">
        <ele>8.3</ele>
        <time>2020-03-11T10:35:53Z</time>
      </trkpt>
      <trkpt lat="45.64361" lon="-1.08991">
        <ele>8</ele>
        <time>2020-03-11T10:35:53Z</time>
      </trkpt>
      <trkpt lat="45.64341" lon="-1.08946">
        <ele>8</ele>
        <time>2020-03-11T10:35:53Z</time>
      </trkpt>
      <trkpt lat="45.64318" lon="-1.08896">
        <ele>7.6</ele>
        <time>2020-03-11T10:35:53Z</time>
      </trkpt>
      <trkpt lat="45.64298" lon="-1.08854">
        <ele>7.5</ele>
        <time>2020-03-11T10:35:53Z</time>
      </trkpt>
      <trkpt lat="45.64275" lon="-1.08806">
        <ele>7</ele>
        <time>2020-03-11T10:35:53Z</time>
      </trkpt>
      <trkpt lat="45.64261" lon="-1.08789">
        <ele>6.4</ele>
        <time>2020-03-11T10:35:53Z</time>
      </trkpt>
      <trkpt lat="45.64249" lon="-1.08758">
        <ele>6</ele>
        <time>2020-03-11T10:35:53Z</time>
      </trkpt>
      <trkpt lat="45.64245" lon="-1.08724">
        <ele>6</ele>
        <time>2020-03-11T10:35:53Z</time>
      </trkpt>
      <trkpt lat="45.64237" lon="-1.0869">
        <ele>6</ele>
        <time>2020-03-11T10:35:53Z</time>
      </trkpt>
      <trkpt lat="45.64229" lon="-1.08663">
        <ele>6.1</ele>
        <time>2020-03-11T10:35:53Z</time>
      </trkpt>
      <trkpt lat="45.64195" lon="-1.08617">
        <ele>7.8</ele>
        <time>2020-03-11T10:35:53Z</time>
      </trkpt>
      <trkpt lat="45.64174" lon="-1.08592">
        <ele>7.5</ele>
        <time>2020-03-11T10:35:53Z</time>
      </trkpt>
      <trkpt lat="45.64157" lon="-1.08573">
        <ele>8.4</ele>
        <time>2020-03-11T10:35:53Z</time>
      </trkpt>
      <trkpt lat="45.64136" lon="-1.08548">
        <ele>9.3</ele>
        <time>2020-03-11T10:35:53Z</time>
      </trkpt>
      <trkpt lat="45.64116" lon="-1.08544">
        <ele>9.4</ele>
        <time>2020-03-11T10:35:53Z</time>
      </trkpt>
      <trkpt lat="45.64063" lon="-1.08586">
        <ele>7.8</ele>
        <time>2020-03-11T10:35:53Z</time>
      </trkpt>
      <trkpt lat="45.64044" lon="-1.08601">
        <ele>7.4</ele>
        <time>2020-03-11T10:35:53Z</time>
      </trkpt>
      <trkpt lat="45.64" lon="-1.08636">
        <ele>9</ele>
        <time>2020-03-11T10:35:53Z</time>
      </trkpt>
      <trkpt lat="45.6392" lon="-1.08701">
        <ele>8.8</ele>
        <time>2020-03-11T10:35:53Z</time>
      </trkpt>
      <trkpt lat="45.63897" lon="-1.0872">
        <ele>8</ele>
        <time>2020-03-11T10:35:53Z</time>
      </trkpt>
      <trkpt lat="45.63861" lon="-1.08662">
        <ele>9</ele>
        <time>2020-03-11T10:35:53Z</time>
      </trkpt>
      <trkpt lat="45.63843" lon="-1.08618">
        <ele>8.5</ele>
        <time>2020-03-11T10:35:53Z</time>
      </trkpt>
      <trkpt lat="45.63828" lon="-1.08583">
        <ele>9.1</ele>
        <time>2020-03-11T10:35:53Z</time>
      </trkpt>
      <trkpt lat="45.63808" lon="-1.08533">
        <ele>9.8</ele>
        <time>2020-03-11T10:35:53Z</time>
      </trkpt>
      <trkpt lat="45.63797" lon="-1.08504">
        <ele>9.9</ele>
        <time>2020-03-11T10:35:53Z</time>
      </trkpt>
      <trkpt lat="45.63781" lon="-1.08467">
        <ele>10.5</ele>
        <time>2020-03-11T10:35:53Z</time>
      </trkpt>
      <trkpt lat="45.63769" lon="-1.08437">
        <ele>9.5</ele>
        <time>2020-03-11T10:35:53Z</time>
      </trkpt>
      <trkpt lat="45.63753" lon="-1.08388">
        <ele>10.2</ele>
        <time>2020-03-11T10:35:53Z</time>
      </trkpt>
      <trkpt lat="45.6373" lon="-1.08316">
        <ele>9</ele>
        <time>2020-03-11T10:35:53Z</time>
      </trkpt>
      <trkpt lat="45.63722" lon="-1.08289">
        <ele>9.6</ele>
        <time>2020-03-11T10:35:53Z</time>
      </trkpt>
      <trkpt lat="45.63703" lon="-1.08231">
        <ele>8.4</ele>
        <time>2020-03-11T10:35:53Z</time>
      </trkpt>
      <trkpt lat="45.63693" lon="-1.08197">
        <ele>8.7</ele>
        <time>2020-03-11T10:35:53Z</time>
      </trkpt>
      <trkpt lat="45.63684" lon="-1.08166">
        <ele>6.9</ele>
        <time>2020-03-11T10:35:53Z</time>
      </trkpt>
      <trkpt lat="45.63676" lon="-1.08138">
        <ele>4.7</ele>
        <time>2020-03-11T10:35:53Z</time>
      </trkpt>
      <trkpt lat="45.63716" lon="-1.08059">
        <ele>6.8</ele>
        <time>2020-03-11T10:35:53Z</time>
      </trkpt>
      <trkpt lat="45.63737" lon="-1.08024">
        <ele>5.9</ele>
        <time>2020-03-11T10:35:53Z</time>
      </trkpt>
      <trkpt lat="45.63755" lon="-1.07996">
        <ele>6.9</ele>
        <time>2020-03-11T10:35:53Z</time>
      </trkpt>
      <trkpt lat="45.63769" lon="-1.07978">
        <ele>6.6</ele>
        <time>2020-03-11T10:35:53Z</time>
      </trkpt>
      <trkpt lat="45.6379" lon="-1.07974">
        <ele>7.1</ele>
        <time>2020-03-11T10:35:53Z</time>
      </trkpt>
      <trkpt lat="45.63816" lon="-1.07981">
        <ele>7.7</ele>
        <time>2020-03-11T10:35:53Z</time>
      </trkpt>
      <trkpt lat="45.63835" lon="-1.08004">
        <ele>9.3</ele>
        <time>2020-03-11T10:35:53Z</time>
      </trkpt>
      <trkpt lat="45.63848" lon="-1.08025">
        <ele>10.3</ele>
        <time>2020-03-11T10:35:53Z</time>
      </trkpt>
      <trkpt lat="45.63868" lon="-1.08029">
        <ele>10.1</ele>
        <time>2020-03-11T10:35:53Z</time>
      </trkpt>
      <trkpt lat="45.63895" lon="-1.08018">
        <ele>9.3</ele>
        <time>2020-03-11T10:35:53Z</time>
      </trkpt>
      <trkpt lat="45.63903" lon="-1.07989">
        <ele>7.6</ele>
        <time>2020-03-11T10:35:53Z</time>
      </trkpt>
      <trkpt lat="45.63908" lon="-1.07964">
        <ele>6.5</ele>
        <time>2020-03-11T10:35:53Z</time>
      </trkpt>
      <trkpt lat="45.63914" lon="-1.07938">
        <ele>5.8</ele>
        <time>2020-03-11T10:35:53Z</time>
      </trkpt>
      <trkpt lat="45.63924" lon="-1.07905">
        <ele>5.4</ele>
        <time>2020-03-11T10:35:53Z</time>
      </trkpt>
      <trkpt lat="45.63934" lon="-1.07876">
        <ele>5.2</ele>
        <time>2020-03-11T10:35:53Z</time>
      </trkpt>
      <trkpt lat="45.63948" lon="-1.07836">
        <ele>5.7</ele>
        <time>2020-03-11T10:35:53Z</time>
      </trkpt>
      <trkpt lat="45.63959" lon="-1.07805">
        <ele>6.5</ele>
        <time>2020-03-11T10:35:53Z</time>
      </trkpt>
      <trkpt lat="45.63968" lon="-1.07779">
        <ele>7.8</ele>
        <time>2020-03-11T10:35:53Z</time>
      </trkpt>
      <trkpt lat="45.63975" lon="-1.07749">
        <ele>10.1</ele>
        <time>2020-03-11T10:35:53Z</time>
      </trkpt>
      <trkpt lat="45.63976" lon="-1.07711">
        <ele>11.5</ele>
        <time>2020-03-11T10:35:53Z</time>
      </trkpt>
      <trkpt lat="45.63974" lon="-1.07679">
        <ele>11</ele>
        <time>2020-03-11T10:35:53Z</time>
      </trkpt>
      <trkpt lat="45.63967" lon="-1.07642">
        <ele>10</ele>
        <time>2020-03-11T10:35:53Z</time>
      </trkpt>
      <trkpt lat="45.63962" lon="-1.07615">
        <ele>8.5</ele>
        <time>2020-03-11T10:35:53Z</time>
      </trkpt>
      <trkpt lat="45.63957" lon="-1.07589">
        <ele>7.5</ele>
        <time>2020-03-11T10:35:53Z</time>
      </trkpt>
      <trkpt lat="45.63949" lon="-1.07563">
        <ele>6.3</ele>
        <time>2020-03-11T10:35:53Z</time>
      </trkpt>
      <trkpt lat="45.63939" lon="-1.07495">
        <ele>6</ele>
        <time>2020-03-11T10:35:53Z</time>
      </trkpt>
      <trkpt lat="45.63931" lon="-1.0747">
        <ele>6.6</ele>
        <time>2020-03-11T10:35:53Z</time>
      </trkpt>
      <trkpt lat="45.63923" lon="-1.07445">
        <ele>7.8</ele>
        <time>2020-03-11T10:35:53Z</time>
      </trkpt>
      <trkpt lat="45.63915" lon="-1.0742">
        <ele>8</ele>
        <time>2020-03-11T10:35:53Z</time>
      </trkpt>
      <trkpt lat="45.63898" lon="-1.07386">
        <ele>9.9</ele>
        <time>2020-03-11T10:35:53Z</time>
      </trkpt>
      <trkpt lat="45.63885" lon="-1.07368">
        <ele>11.6</ele>
        <time>2020-03-11T10:35:53Z</time>
      </trkpt>
      <trkpt lat="45.63852" lon="-1.07333">
        <ele>14.7</ele>
        <time>2020-03-11T10:35:53Z</time>
      </trkpt>
      <trkpt lat="45.63825" lon="-1.07309">
        <ele>16.6</ele>
        <time>2020-03-11T10:35:53Z</time>
      </trkpt>
      <trkpt lat="45.63803" lon="-1.07285">
        <ele>18</ele>
        <time>2020-03-11T10:35:53Z</time>
      </trkpt>
      <trkpt lat="45.6379" lon="-1.07266">
        <ele>18.4</ele>
        <time>2020-03-11T10:35:53Z</time>
      </trkpt>
      <trkpt lat="45.63776" lon="-1.07243">
        <ele>19.2</ele>
        <time>2020-03-11T10:35:53Z</time>
      </trkpt>
      <trkpt lat="45.6374" lon="-1.07179">
        <ele>19.8</ele>
        <time>2020-03-11T10:35:53Z</time>
      </trkpt>
      <trkpt lat="45.63724" lon="-1.0715">
        <ele>20</ele>
        <time>2020-03-11T10:35:53Z</time>
      </trkpt>
      <trkpt lat="45.63711" lon="-1.07126">
        <ele>19.8</ele>
        <time>2020-03-11T10:35:53Z</time>
      </trkpt>
      <trkpt lat="45.637" lon="-1.07104">
        <ele>20</ele>
        <time>2020-03-11T10:35:53Z</time>
      </trkpt>
      <trkpt lat="45.63676" lon="-1.07064">
        <ele>19.3</ele>
        <time>2020-03-11T10:35:53Z</time>
      </trkpt>
      <trkpt lat="45.63664" lon="-1.07042">
        <ele>18.9</ele>
        <time>2020-03-11T10:35:53Z</time>
      </trkpt>
      <trkpt lat="45.63652" lon="-1.07019">
        <ele>18.5</ele>
        <time>2020-03-11T10:35:53Z</time>
      </trkpt>
      <trkpt lat="45.63635" lon="-1.06988">
        <ele>17.7</ele>
        <time>2020-03-11T10:35:53Z</time>
      </trkpt>
      <trkpt lat="45.63601" lon="-1.06934">
        <ele>16.6</ele>
        <time>2020-03-11T10:35:53Z</time>
      </trkpt>
      <trkpt lat="45.63582" lon="-1.06904">
        <ele>15.9</ele>
        <time>2020-03-11T10:35:53Z</time>
      </trkpt>
      <trkpt lat="45.63568" lon="-1.06884">
        <ele>15.1</ele>
        <time>2020-03-11T10:35:53Z</time>
      </trkpt>
      <trkpt lat="45.63551" lon="-1.06861">
        <ele>15.8</ele>
        <time>2020-03-11T10:35:53Z</time>
      </trkpt>
      <trkpt lat="45.63508" lon="-1.06803">
        <ele>16</ele>
        <time>2020-03-11T10:35:53Z</time>
      </trkpt>
      <trkpt lat="45.63479" lon="-1.06761">
        <ele>16.1</ele>
        <time>2020-03-11T10:35:53Z</time>
      </trkpt>
      <trkpt lat="45.63456" lon="-1.06733">
        <ele>16</ele>
        <time>2020-03-11T10:35:53Z</time>
      </trkpt>
      <trkpt lat="45.63436" lon="-1.06704">
        <ele>15.7</ele>
        <time>2020-03-11T10:35:53Z</time>
      </trkpt>
      <trkpt lat="45.63396" lon="-1.06652">
        <ele>16</ele>
        <time>2020-03-11T10:35:53Z</time>
      </trkpt>
      <trkpt lat="45.63376" lon="-1.06624">
        <ele>17</ele>
        <time>2020-03-11T10:35:53Z</time>
      </trkpt>
      <trkpt lat="45.63359" lon="-1.066">
        <ele>17.1</ele>
        <time>2020-03-11T10:35:53Z</time>
      </trkpt>
      <trkpt lat="45.63315" lon="-1.06536">
        <ele>18.1</ele>
        <time>2020-03-11T10:35:53Z</time>
      </trkpt>
      <trkpt lat="45.63273" lon="-1.06474">
        <ele>17.1</ele>
        <time>2020-03-11T10:35:53Z</time>
      </trkpt>
      <trkpt lat="45.63239" lon="-1.06425">
        <ele>15.9</ele>
        <time>2020-03-11T10:35:53Z</time>
      </trkpt>
      <trkpt lat="45.63224" lon="-1.06405">
        <ele>15.5</ele>
        <time>2020-03-11T10:35:53Z</time>
      </trkpt>
      <trkpt lat="45.63208" lon="-1.06381">
        <ele>14.8</ele>
        <time>2020-03-11T10:35:53Z</time>
      </trkpt>
      <trkpt lat="45.63193" lon="-1.06359">
        <ele>14.9</ele>
        <time>2020-03-11T10:35:53Z</time>
      </trkpt>
      <trkpt lat="45.6318" lon="-1.06341">
        <ele>14.3</ele>
        <time>2020-03-11T10:35:53Z</time>
      </trkpt>
      <trkpt lat="45.63156" lon="-1.06303">
        <ele>15.3</ele>
        <time>2020-03-11T10:35:53Z</time>
      </trkpt>
      <trkpt lat="45.63135" lon="-1.0627">
        <ele>15.9</ele>
        <time>2020-03-11T10:35:53Z</time>
      </trkpt>
      <trkpt lat="45.63115" lon="-1.06236">
        <ele>16.4</ele>
        <time>2020-03-11T10:35:53Z</time>
      </trkpt>
      <trkpt lat="45.63102" lon="-1.06215">
        <ele>17.1</ele>
        <time>2020-03-11T10:35:53Z</time>
      </trkpt>
      <trkpt lat="45.63088" lon="-1.06192">
        <ele>17.8</ele>
        <time>2020-03-11T10:35:53Z</time>
      </trkpt>
      <trkpt lat="45.63075" lon="-1.06171">
        <ele>18</ele>
        <time>2020-03-11T10:35:53Z</time>
      </trkpt>
      <trkpt lat="45.63046" lon="-1.06124">
        <ele>17.8</ele>
        <time>2020-03-11T10:35:53Z</time>
      </trkpt>
      <trkpt lat="45.63029" lon="-1.06098">
        <ele>18.5</ele>
        <time>2020-03-11T10:35:53Z</time>
      </trkpt>
      <trkpt lat="45.63013" lon="-1.06071">
        <ele>18.7</ele>
        <time>2020-03-11T10:35:53Z</time>
      </trkpt>
      <trkpt lat="45.62995" lon="-1.06044">
        <ele>18.9</ele>
        <time>2020-03-11T10:35:53Z</time>
      </trkpt>
      <trkpt lat="45.62976" lon="-1.0601">
        <ele>19</ele>
        <time>2020-03-11T10:35:53Z</time>
      </trkpt>
      <trkpt lat="45.6296" lon="-1.05983">
        <ele>19</ele>
        <time>2020-03-11T10:35:53Z</time>
      </trkpt>
      <trkpt lat="45.62944" lon="-1.05948">
        <ele>19</ele>
        <time>2020-03-11T10:35:53Z</time>
      </trkpt>
      <trkpt lat="45.62934" lon="-1.05906">
        <ele>17.9</ele>
        <time>2020-03-11T10:35:53Z</time>
      </trkpt>
      <trkpt lat="45.62928" lon="-1.05879">
        <ele>17.4</ele>
        <time>2020-03-11T10:35:53Z</time>
      </trkpt>
      <trkpt lat="45.62921" lon="-1.05845">
        <ele>17.2</ele>
        <time>2020-03-11T10:35:53Z</time>
      </trkpt>
      <trkpt lat="45.62914" lon="-1.05811">
        <ele>16.8</ele>
        <time>2020-03-11T10:35:53Z</time>
      </trkpt>
      <trkpt lat="45.62908" lon="-1.05778">
        <ele>17</ele>
        <time>2020-03-11T10:35:53Z</time>
      </trkpt>
      <trkpt lat="45.62896" lon="-1.05715">
        <ele>17.1</ele>
        <time>2020-03-11T10:35:53Z</time>
      </trkpt>
      <trkpt lat="45.62889" lon="-1.05679">
        <ele>17</ele>
        <time>2020-03-11T10:35:53Z</time>
      </trkpt>
      <trkpt lat="45.62883" lon="-1.05636">
        <ele>17.2</ele>
        <time>2020-03-11T10:35:53Z</time>
      </trkpt>
      <trkpt lat="45.62876" lon="-1.0561">
        <ele>17</ele>
        <time>2020-03-11T10:35:53Z</time>
      </trkpt>
      <trkpt lat="45.62878" lon="-1.05582">
        <ele>16.4</ele>
        <time>2020-03-11T10:35:53Z</time>
      </trkpt>
      <trkpt lat="45.62877" lon="-1.05552">
        <ele>16.4</ele>
        <time>2020-03-11T10:35:53Z</time>
      </trkpt>
      <trkpt lat="45.62876" lon="-1.05522">
        <ele>15.9</ele>
        <time>2020-03-11T10:35:53Z</time>
      </trkpt>
      <trkpt lat="45.62877" lon="-1.05437">
        <ele>13</ele>
        <time>2020-03-11T10:35:53Z</time>
      </trkpt>
      <trkpt lat="45.62878" lon="-1.05394">
        <ele>11.5</ele>
        <time>2020-03-11T10:35:53Z</time>
      </trkpt>
      <trkpt lat="45.62867" lon="-1.05358">
        <ele>9.9</ele>
        <time>2020-03-11T10:35:53Z</time>
      </trkpt>
      <trkpt lat="45.62845" lon="-1.05328">
        <ele>8.8</ele>
        <time>2020-03-11T10:35:53Z</time>
      </trkpt>
      <trkpt lat="45.62831" lon="-1.05311">
        <ele>8.1</ele>
        <time>2020-03-11T10:35:53Z</time>
      </trkpt>
      <trkpt lat="45.62813" lon="-1.05296">
        <ele>7.2</ele>
        <time>2020-03-11T10:35:53Z</time>
      </trkpt>
      <trkpt lat="45.62795" lon="-1.05276">
        <ele>7</ele>
        <time>2020-03-11T10:35:53Z</time>
      </trkpt>
      <trkpt lat="45.62774" lon="-1.05264">
        <ele>6.9</ele>
        <time>2020-03-11T10:35:53Z</time>
      </trkpt>
      <trkpt lat="45.62757" lon="-1.05242">
        <ele>6.5</ele>
        <time>2020-03-11T10:35:53Z</time>
      </trkpt>
      <trkpt lat="45.62746" lon="-1.05221">
        <ele>6.9</ele>
        <time>2020-03-11T10:35:53Z</time>
      </trkpt>
      <trkpt lat="45.62734" lon="-1.05201">
        <ele>6.4</ele>
        <time>2020-03-11T10:35:53Z</time>
      </trkpt>
      <trkpt lat="45.62715" lon="-1.05195">
        <ele>5.5</ele>
        <time>2020-03-11T10:35:53Z</time>
      </trkpt>
      <trkpt lat="45.627" lon="-1.0517">
        <ele>5.1</ele>
        <time>2020-03-11T10:35:53Z</time>
      </trkpt>
      <trkpt lat="45.62684" lon="-1.05139">
        <ele>5.9</ele>
        <time>2020-03-11T10:35:53Z</time>
      </trkpt>
      <trkpt lat="45.62665" lon="-1.05112">
        <ele>6.7</ele>
        <time>2020-03-11T10:35:53Z</time>
      </trkpt>
      <trkpt lat="45.62642" lon="-1.05085">
        <ele>6.8</ele>
        <time>2020-03-11T10:35:53Z</time>
      </trkpt>
      <trkpt lat="45.62605" lon="-1.05041">
        <ele>6.8</ele>
        <time>2020-03-11T10:35:53Z</time>
      </trkpt>
      <trkpt lat="45.62586" lon="-1.05017">
        <ele>7.5</ele>
        <time>2020-03-11T10:35:53Z</time>
      </trkpt>
      <trkpt lat="45.62567" lon="-1.05004">
        <ele>10.1</ele>
        <time>2020-03-11T10:35:53Z</time>
      </trkpt>
      <trkpt lat="45.62547" lon="-1.05004">
        <ele>10.5</ele>
        <time>2020-03-11T10:35:53Z</time>
      </trkpt>
      <trkpt lat="45.62514" lon="-1.05018">
        <ele>11.5</ele>
        <time>2020-03-11T10:35:53Z</time>
      </trkpt>
      <trkpt lat="45.62495" lon="-1.05033">
        <ele>12</ele>
        <time>2020-03-11T10:35:53Z</time>
      </trkpt>
      <trkpt lat="45.62476" lon="-1.05037">
        <ele>12.5</ele>
        <time>2020-03-11T10:35:53Z</time>
      </trkpt>
      <trkpt lat="45.62458" lon="-1.05036">
        <ele>12.2</ele>
        <time>2020-03-11T10:35:53Z</time>
      </trkpt>
      <trkpt lat="45.62395" lon="-1.05068">
        <ele>10.2</ele>
        <time>2020-03-11T10:35:53Z</time>
      </trkpt>
      <trkpt lat="45.62372" lon="-1.0508">
        <ele>9.6</ele>
        <time>2020-03-11T10:35:53Z</time>
      </trkpt>
      <trkpt lat="45.62353" lon="-1.05086">
        <ele>8.5</ele>
        <time>2020-03-11T10:35:53Z</time>
      </trkpt>
      <trkpt lat="45.62307" lon="-1.05142">
        <ele>7.6</ele>
        <time>2020-03-11T10:35:53Z</time>
      </trkpt>
      <trkpt lat="45.62292" lon="-1.05165">
        <ele>7.5</ele>
        <time>2020-03-11T10:35:53Z</time>
      </trkpt>
      <trkpt lat="45.62277" lon="-1.05183">
        <ele>8.6</ele>
        <time>2020-03-11T10:35:53Z</time>
      </trkpt>
      <trkpt lat="45.62257" lon="-1.0519">
        <ele>7.2</ele>
        <time>2020-03-11T10:35:53Z</time>
      </trkpt>
      <trkpt lat="45.62234" lon="-1.05186">
        <ele>6.4</ele>
        <time>2020-03-11T10:35:53Z</time>
      </trkpt>
      <trkpt lat="45.62218" lon="-1.05172">
        <ele>7.9</ele>
        <time>2020-03-11T10:35:53Z</time>
      </trkpt>
      <trkpt lat="45.62197" lon="-1.05136">
        <ele>8.3</ele>
        <time>2020-03-11T10:35:53Z</time>
      </trkpt>
      <trkpt lat="45.62183" lon="-1.05113">
        <ele>6.9</ele>
        <time>2020-03-11T10:35:53Z</time>
      </trkpt>
      <trkpt lat="45.62162" lon="-1.05072">
        <ele>7.6</ele>
        <time>2020-03-11T10:35:53Z</time>
      </trkpt>
      <trkpt lat="45.62151" lon="-1.05049">
        <ele>6.9</ele>
        <time>2020-03-11T10:35:53Z</time>
      </trkpt>
      <trkpt lat="45.62131" lon="-1.05007">
        <ele>8.3</ele>
        <time>2020-03-11T10:35:53Z</time>
      </trkpt>
      <trkpt lat="45.62111" lon="-1.04974">
        <ele>8.7</ele>
        <time>2020-03-11T10:35:53Z</time>
      </trkpt>
      <trkpt lat="45.62091" lon="-1.04941">
        <ele>7.4</ele>
        <time>2020-03-11T10:35:53Z</time>
      </trkpt>
      <trkpt lat="45.62077" lon="-1.04922">
        <ele>7.6</ele>
        <time>2020-03-11T10:35:53Z</time>
      </trkpt>
      <trkpt lat="45.62063" lon="-1.04901">
        <ele>6.5</ele>
        <time>2020-03-11T10:35:53Z</time>
      </trkpt>
      <trkpt lat="45.62058" lon="-1.04875">
        <ele>6.7</ele>
        <time>2020-03-11T10:35:53Z</time>
      </trkpt>
      <trkpt lat="45.62066" lon="-1.04848">
        <ele>6.9</ele>
        <time>2020-03-11T10:35:53Z</time>
      </trkpt>
      <trkpt lat="45.62087" lon="-1.04835">
        <ele>7.2</ele>
        <time>2020-03-11T10:35:53Z</time>
      </trkpt>
      <trkpt lat="45.62112" lon="-1.04826">
        <ele>8</ele>
        <time>2020-03-11T10:35:53Z</time>
      </trkpt>
      <trkpt lat="45.62133" lon="-1.04822">
        <ele>6.7</ele>
        <time>2020-03-11T10:35:53Z</time>
      </trkpt>
      <trkpt lat="45.62146" lon="-1.04803">
        <ele>5.3</ele>
        <time>2020-03-11T10:35:53Z</time>
      </trkpt>
      <trkpt lat="45.6218" lon="-1.0475">
        <ele>6.4</ele>
        <time>2020-03-11T10:35:53Z</time>
      </trkpt>
      <trkpt lat="45.62195" lon="-1.04726">
        <ele>9.2</ele>
        <time>2020-03-11T10:35:53Z</time>
      </trkpt>
      <trkpt lat="45.62207" lon="-1.04703">
        <ele>7.9</ele>
        <time>2020-03-11T10:35:53Z</time>
      </trkpt>
      <trkpt lat="45.62204" lon="-1.04676">
        <ele>6.7</ele>
        <time>2020-03-11T10:35:53Z</time>
      </trkpt>
      <trkpt lat="45.6219" lon="-1.04633">
        <ele>6.6</ele>
        <time>2020-03-11T10:35:53Z</time>
      </trkpt>
      <trkpt lat="45.62173" lon="-1.04618">
        <ele>7.4</ele>
        <time>2020-03-11T10:35:53Z</time>
      </trkpt>
      <trkpt lat="45.62155" lon="-1.04621">
        <ele>7.3</ele>
        <time>2020-03-11T10:35:53Z</time>
      </trkpt>
      <trkpt lat="45.62135" lon="-1.04622">
        <ele>7</ele>
        <time>2020-03-11T10:35:53Z</time>
      </trkpt>
      <trkpt lat="45.62115" lon="-1.04607">
        <ele>5.8</ele>
        <time>2020-03-11T10:35:53Z</time>
      </trkpt>
      <trkpt lat="45.62089" lon="-1.04598">
        <ele>9.4</ele>
        <time>2020-03-11T10:35:53Z</time>
      </trkpt>
      <trkpt lat="45.62071" lon="-1.04592">
        <ele>8.5</ele>
        <time>2020-03-11T10:35:53Z</time>
      </trkpt>
      <trkpt lat="45.6206" lon="-1.04568">
        <ele>9.9</ele>
        <time>2020-03-11T10:35:53Z</time>
      </trkpt>
      <trkpt lat="45.62055" lon="-1.04543">
        <ele>10.9</ele>
        <time>2020-03-11T10:35:53Z</time>
      </trkpt>
      <trkpt lat="45.62046" lon="-1.04503">
        <ele>7.9</ele>
        <time>2020-03-11T10:35:53Z</time>
      </trkpt>
      <trkpt lat="45.6204" lon="-1.04472">
        <ele>7.1</ele>
        <time>2020-03-11T10:35:53Z</time>
      </trkpt>
      <trkpt lat="45.6205" lon="-1.04444">
        <ele>9.6</ele>
        <time>2020-03-11T10:35:53Z</time>
      </trkpt>
      <trkpt lat="45.62064" lon="-1.04424">
        <ele>9.5</ele>
        <time>2020-03-11T10:35:53Z</time>
      </trkpt>
      <trkpt lat="45.62066" lon="-1.04398">
        <ele>9.8</ele>
        <time>2020-03-11T10:35:53Z</time>
      </trkpt>
      <trkpt lat="45.62048" lon="-1.04355">
        <ele>10.4</ele>
        <time>2020-03-11T10:35:53Z</time>
      </trkpt>
      <trkpt lat="45.62027" lon="-1.04311">
        <ele>10.7</ele>
        <time>2020-03-11T10:35:53Z</time>
      </trkpt>
      <trkpt lat="45.62034" lon="-1.04286">
        <ele>7.7</ele>
        <time>2020-03-11T10:35:53Z</time>
      </trkpt>
      <trkpt lat="45.62051" lon="-1.0427">
        <ele>9.5</ele>
        <time>2020-03-11T10:35:53Z</time>
      </trkpt>
      <trkpt lat="45.62066" lon="-1.04253">
        <ele>10.3</ele>
        <time>2020-03-11T10:35:53Z</time>
      </trkpt>
      <trkpt lat="45.62057" lon="-1.0423">
        <ele>11.2</ele>
        <time>2020-03-11T10:35:53Z</time>
      </trkpt>
      <trkpt lat="45.62021" lon="-1.04192">
        <ele>12.6</ele>
        <time>2020-03-11T10:35:53Z</time>
      </trkpt>
      <trkpt lat="45.61995" lon="-1.04202">
        <ele>11.6</ele>
        <time>2020-03-11T10:35:53Z</time>
      </trkpt>
      <trkpt lat="45.61971" lon="-1.04207">
        <ele>9.3</ele>
        <time>2020-03-11T10:35:53Z</time>
      </trkpt>
      <trkpt lat="45.61953" lon="-1.04206">
        <ele>9.2</ele>
        <time>2020-03-11T10:35:53Z</time>
      </trkpt>
      <trkpt lat="45.61928" lon="-1.0421">
        <ele>7.8</ele>
        <time>2020-03-11T10:35:53Z</time>
      </trkpt>
      <trkpt lat="45.61908" lon="-1.04208">
        <ele>9</ele>
        <time>2020-03-11T10:35:53Z</time>
      </trkpt>
      <trkpt lat="45.61888" lon="-1.04227">
        <ele>9.6</ele>
        <time>2020-03-11T10:35:53Z</time>
      </trkpt>
      <trkpt lat="45.61877" lon="-1.04252">
        <ele>9.3</ele>
        <time>2020-03-11T10:35:53Z</time>
      </trkpt>
      <trkpt lat="45.61858" lon="-1.04268">
        <ele>10.4</ele>
        <time>2020-03-11T10:35:53Z</time>
      </trkpt>
      <trkpt lat="45.61836" lon="-1.04261">
        <ele>11.6</ele>
        <time>2020-03-11T10:35:53Z</time>
      </trkpt>
      <trkpt lat="45.61808" lon="-1.04248">
        <ele>13.4</ele>
        <time>2020-03-11T10:35:53Z</time>
      </trkpt>
      <trkpt lat="45.61793" lon="-1.04233">
        <ele>11.9</ele>
        <time>2020-03-11T10:35:53Z</time>
      </trkpt>
      <trkpt lat="45.61781" lon="-1.04201">
        <ele>12.9</ele>
        <time>2020-03-11T10:35:53Z</time>
      </trkpt>
      <trkpt lat="45.6177" lon="-1.04166">
        <ele>11.9</ele>
        <time>2020-03-11T10:35:53Z</time>
      </trkpt>
      <trkpt lat="45.61763" lon="-1.04126">
        <ele>8.3</ele>
        <time>2020-03-11T10:35:53Z</time>
      </trkpt>
      <trkpt lat="45.61763" lon="-1.0409">
        <ele>7.5</ele>
        <time>2020-03-11T10:35:53Z</time>
      </trkpt>
      <trkpt lat="45.6178" lon="-1.04067">
        <ele>8.4</ele>
        <time>2020-03-11T10:35:53Z</time>
      </trkpt>
      <trkpt lat="45.6179" lon="-1.04036">
        <ele>7.8</ele>
        <time>2020-03-11T10:35:53Z</time>
      </trkpt>
      <trkpt lat="45.6178" lon="-1.04">
        <ele>6.2</ele>
        <time>2020-03-11T10:35:53Z</time>
      </trkpt>
      <trkpt lat="45.61794" lon="-1.0398">
        <ele>5.8</ele>
        <time>2020-03-11T10:35:53Z</time>
      </trkpt>
      <trkpt lat="45.61805" lon="-1.03949">
        <ele>6.2</ele>
        <time>2020-03-11T10:35:53Z</time>
      </trkpt>
      <trkpt lat="45.61805" lon="-1.03916">
        <ele>7.9</ele>
        <time>2020-03-11T10:35:53Z</time>
      </trkpt>
      <trkpt lat="45.61805" lon="-1.03887">
        <ele>7.9</ele>
        <time>2020-03-11T10:35:53Z</time>
      </trkpt>
      <trkpt lat="45.61806" lon="-1.0386">
        <ele>8.1</ele>
        <time>2020-03-11T10:35:53Z</time>
      </trkpt>
      <trkpt lat="45.61806" lon="-1.03791">
        <ele>10</ele>
        <time>2020-03-11T10:35:53Z</time>
      </trkpt>
      <trkpt lat="45.61802" lon="-1.03745">
        <ele>8.3</ele>
        <time>2020-03-11T10:35:53Z</time>
      </trkpt>
      <trkpt lat="45.618" lon="-1.03706">
        <ele>7.8</ele>
        <time>2020-03-11T10:35:53Z</time>
      </trkpt>
      <trkpt lat="45.61802" lon="-1.03674">
        <ele>7.3</ele>
        <time>2020-03-11T10:35:53Z</time>
      </trkpt>
      <trkpt lat="45.61839" lon="-1.03634">
        <ele>8.2</ele>
        <time>2020-03-11T10:35:53Z</time>
      </trkpt>
      <trkpt lat="45.61876" lon="-1.03605">
        <ele>9.3</ele>
        <time>2020-03-11T10:35:53Z</time>
      </trkpt>
      <trkpt lat="45.61899" lon="-1.03588">
        <ele>10.1</ele>
        <time>2020-03-11T10:35:53Z</time>
      </trkpt>
      <trkpt lat="45.61925" lon="-1.03569">
        <ele>10.4</ele>
        <time>2020-03-11T10:35:53Z</time>
      </trkpt>
      <trkpt lat="45.61942" lon="-1.03548">
        <ele>9.8</ele>
        <time>2020-03-11T10:35:53Z</time>
      </trkpt>
      <trkpt lat="45.6196" lon="-1.03533">
        <ele>10.1</ele>
        <time>2020-03-11T10:35:53Z</time>
      </trkpt>
      <trkpt lat="45.61979" lon="-1.03515">
        <ele>10.7</ele>
        <time>2020-03-11T10:35:53Z</time>
      </trkpt>
      <trkpt lat="45.61991" lon="-1.03487">
        <ele>10.4</ele>
        <time>2020-03-11T10:35:53Z</time>
      </trkpt>
      <trkpt lat="45.61995" lon="-1.03457">
        <ele>10.8</ele>
        <time>2020-03-11T10:35:53Z</time>
      </trkpt>
      <trkpt lat="45.61987" lon="-1.03425">
        <ele>9.4</ele>
        <time>2020-03-11T10:35:53Z</time>
      </trkpt>
      <trkpt lat="45.61974" lon="-1.03392">
        <ele>10.7</ele>
        <time>2020-03-11T10:35:53Z</time>
      </trkpt>
      <trkpt lat="45.61949" lon="-1.0332">
        <ele>9.3</ele>
        <time>2020-03-11T10:35:53Z</time>
      </trkpt>
      <trkpt lat="45.61931" lon="-1.03273">
        <ele>7.9</ele>
        <time>2020-03-11T10:35:53Z</time>
      </trkpt>
      <trkpt lat="45.61919" lon="-1.03247">
        <ele>8.4</ele>
        <time>2020-03-11T10:35:53Z</time>
      </trkpt>
      <trkpt lat="45.619" lon="-1.03194">
        <ele>8</ele>
        <time>2020-03-11T10:35:53Z</time>
      </trkpt>
      <trkpt lat="45.61885" lon="-1.03178">
        <ele>6.4</ele>
        <time>2020-03-11T10:35:53Z</time>
      </trkpt>
      <trkpt lat="45.61842" lon="-1.03194">
        <ele>6</ele>
        <time>2020-03-11T10:35:53Z</time>
      </trkpt>
      <trkpt lat="45.61813" lon="-1.03175">
        <ele>5.6</ele>
        <time>2020-03-11T10:35:53Z</time>
      </trkpt>
      <trkpt lat="45.61806" lon="-1.03138">
        <ele>5</ele>
        <time>2020-03-11T10:35:53Z</time>
      </trkpt>
      <trkpt lat="45.61822" lon="-1.03111">
        <ele>5</ele>
        <time>2020-03-11T10:35:53Z</time>
      </trkpt>
      <trkpt lat="45.61841" lon="-1.03098">
        <ele>4.9</ele>
        <time>2020-03-11T10:35:53Z</time>
      </trkpt>
      <trkpt lat="45.61885" lon="-1.03064">
        <ele>6.4</ele>
        <time>2020-03-11T10:35:53Z</time>
      </trkpt>
      <trkpt lat="45.61904" lon="-1.03065">
        <ele>6.5</ele>
        <time>2020-03-11T10:35:53Z</time>
      </trkpt>
      <trkpt lat="45.61953" lon="-1.03118">
        <ele>7.9</ele>
        <time>2020-03-11T10:35:53Z</time>
      </trkpt>
      <trkpt lat="45.6197" lon="-1.03138">
        <ele>9.5</ele>
        <time>2020-03-11T10:35:53Z</time>
      </trkpt>
      <trkpt lat="45.62007" lon="-1.03116">
        <ele>9.4</ele>
        <time>2020-03-11T10:35:53Z</time>
      </trkpt>
      <trkpt lat="45.62031" lon="-1.03097">
        <ele>9.6</ele>
        <time>2020-03-11T10:35:53Z</time>
      </trkpt>
      <trkpt lat="45.62053" lon="-1.0308">
        <ele>9.6</ele>
        <time>2020-03-11T10:35:53Z</time>
      </trkpt>
      <trkpt lat="45.62071" lon="-1.03063">
        <ele>8.9</ele>
        <time>2020-03-11T10:35:53Z</time>
      </trkpt>
      <trkpt lat="45.62093" lon="-1.03028">
        <ele>8</ele>
        <time>2020-03-11T10:35:53Z</time>
      </trkpt>
      <trkpt lat="45.62109" lon="-1.03005">
        <ele>6.2</ele>
        <time>2020-03-11T10:35:53Z</time>
      </trkpt>
      <trkpt lat="45.62126" lon="-1.02983">
        <ele>5.4</ele>
        <time>2020-03-11T10:35:53Z</time>
      </trkpt>
      <trkpt lat="45.62144" lon="-1.02977">
        <ele>6</ele>
        <time>2020-03-11T10:35:53Z</time>
      </trkpt>
      <trkpt lat="45.62144" lon="-1.02949">
        <ele>4.5</ele>
        <time>2020-03-11T10:35:53Z</time>
      </trkpt>
      <trkpt lat="45.62142" lon="-1.02915">
        <ele>3.9</ele>
        <time>2020-03-11T10:35:53Z</time>
      </trkpt>
      <trkpt lat="45.62157" lon="-1.02864">
        <ele>3.9</ele>
        <time>2020-03-11T10:35:53Z</time>
      </trkpt>
      <trkpt lat="45.62172" lon="-1.02819">
        <ele>4</ele>
        <time>2020-03-11T10:35:53Z</time>
      </trkpt>
      <trkpt lat="45.62181" lon="-1.02794">
        <ele>3.8</ele>
        <time>2020-03-11T10:35:53Z</time>
      </trkpt>
      <trkpt lat="45.62205" lon="-1.02727">
        <ele>2.4</ele>
        <time>2020-03-11T10:35:53Z</time>
      </trkpt>
      <trkpt lat="45.62214" lon="-1.02704">
        <ele>3.7</ele>
        <time>2020-03-11T10:35:53Z</time>
      </trkpt>
      <trkpt lat="45.62247" lon="-1.02728">
        <ele>3.3</ele>
        <time>2020-03-11T10:35:53Z</time>
      </trkpt>
      <trkpt lat="45.62276" lon="-1.02749">
        <ele>4</ele>
        <time>2020-03-11T10:35:53Z</time>
      </trkpt>
      <trkpt lat="45.62304" lon="-1.02772">
        <ele>3.8</ele>
        <time>2020-03-11T10:35:53Z</time>
      </trkpt>
      <trkpt lat="45.62333" lon="-1.02794">
        <ele>3.6</ele>
        <time>2020-03-11T10:35:53Z</time>
      </trkpt>
      <trkpt lat="45.62348" lon="-1.02778">
        <ele>3.5</ele>
        <time>2020-03-11T10:35:53Z</time>
      </trkpt>
      <trkpt lat="45.62363" lon="-1.02731">
        <ele>4</ele>
        <time>2020-03-11T10:35:53Z</time>
      </trkpt>
      <trkpt lat="45.62373" lon="-1.02696">
        <ele>3.5</ele>
        <time>2020-03-11T10:35:53Z</time>
      </trkpt>
      <trkpt lat="45.62387" lon="-1.02627">
        <ele>3.9</ele>
        <time>2020-03-11T10:35:53Z</time>
      </trkpt>
      <trkpt lat="45.62388" lon="-1.02577">
        <ele>4</ele>
        <time>2020-03-11T10:35:53Z</time>
      </trkpt>
      <trkpt lat="45.62371" lon="-1.02498">
        <ele>4.4</ele>
        <time>2020-03-11T10:35:53Z</time>
      </trkpt>
      <trkpt lat="45.6235" lon="-1.02436">
        <ele>4.3</ele>
        <time>2020-03-11T10:35:53Z</time>
      </trkpt>
      <trkpt lat="45.62342" lon="-1.02409">
        <ele>4.5</ele>
        <time>2020-03-11T10:35:53Z</time>
      </trkpt>
      <trkpt lat="45.62359" lon="-1.02379">
        <ele>5</ele>
        <time>2020-03-11T10:35:53Z</time>
      </trkpt>
      <trkpt lat="45.62344" lon="-1.02345">
        <ele>5</ele>
        <time>2020-03-11T10:35:53Z</time>
      </trkpt>
      <trkpt lat="45.62327" lon="-1.02301">
        <ele>5</ele>
        <time>2020-03-11T10:35:53Z</time>
      </trkpt>
      <trkpt lat="45.62301" lon="-1.02255">
        <ele>4.7</ele>
        <time>2020-03-11T10:35:53Z</time>
      </trkpt>
      <trkpt lat="45.62281" lon="-1.02219">
        <ele>4.2</ele>
        <time>2020-03-11T10:35:53Z</time>
      </trkpt>
      <trkpt lat="45.6227" lon="-1.02197">
        <ele>4.6</ele>
        <time>2020-03-11T10:35:53Z</time>
      </trkpt>
      <trkpt lat="45.62252" lon="-1.02172">
        <ele>4.8</ele>
        <time>2020-03-11T10:35:53Z</time>
      </trkpt>
      <trkpt lat="45.62228" lon="-1.02121">
        <ele>4.6</ele>
        <time>2020-03-11T10:35:53Z</time>
      </trkpt>
      <trkpt lat="45.62214" lon="-1.02095">
        <ele>4.7</ele>
        <time>2020-03-11T10:35:53Z</time>
      </trkpt>
      <trkpt lat="45.62201" lon="-1.02071">
        <ele>4.6</ele>
        <time>2020-03-11T10:35:53Z</time>
      </trkpt>
      <trkpt lat="45.62185" lon="-1.02043">
        <ele>4.8</ele>
        <time>2020-03-11T10:35:53Z</time>
      </trkpt>
      <trkpt lat="45.62175" lon="-1.02021">
        <ele>5.1</ele>
        <time>2020-03-11T10:35:53Z</time>
      </trkpt>
      <trkpt lat="45.62148" lon="-1.01983">
        <ele>4.7</ele>
        <time>2020-03-11T10:35:53Z</time>
      </trkpt>
      <trkpt lat="45.62128" lon="-1.01964">
        <ele>4.3</ele>
        <time>2020-03-11T10:35:53Z</time>
      </trkpt>
      <trkpt lat="45.62114" lon="-1.0194">
        <ele>4.2</ele>
        <time>2020-03-11T10:35:53Z</time>
      </trkpt>
      <trkpt lat="45.62096" lon="-1.01916">
        <ele>4.5</ele>
        <time>2020-03-11T10:35:53Z</time>
      </trkpt>
      <trkpt lat="45.62078" lon="-1.01903">
        <ele>4.2</ele>
        <time>2020-03-11T10:35:53Z</time>
      </trkpt>
      <trkpt lat="45.62057" lon="-1.01868">
        <ele>4.5</ele>
        <time>2020-03-11T10:35:53Z</time>
      </trkpt>
      <trkpt lat="45.62034" lon="-1.0184">
        <ele>4.6</ele>
        <time>2020-03-11T10:35:53Z</time>
      </trkpt>
      <trkpt lat="45.62012" lon="-1.01811">
        <ele>4.8</ele>
        <time>2020-03-11T10:35:53Z</time>
      </trkpt>
      <trkpt lat="45.61986" lon="-1.01778">
        <ele>4.5</ele>
        <time>2020-03-11T10:35:53Z</time>
      </trkpt>
      <trkpt lat="45.61972" lon="-1.01761">
        <ele>4.6</ele>
        <time>2020-03-11T10:35:53Z</time>
      </trkpt>
      <trkpt lat="45.61958" lon="-1.01742">
        <ele>4.3</ele>
        <time>2020-03-11T10:35:53Z</time>
      </trkpt>
      <trkpt lat="45.61944" lon="-1.01725">
        <ele>4.8</ele>
        <time>2020-03-11T10:35:53Z</time>
      </trkpt>
      <trkpt lat="45.61922" lon="-1.01697">
        <ele>4.9</ele>
        <time>2020-03-11T10:35:53Z</time>
      </trkpt>
      <trkpt lat="45.61896" lon="-1.01665">
        <ele>4.3</ele>
        <time>2020-03-11T10:35:53Z</time>
      </trkpt>
      <trkpt lat="45.61869" lon="-1.01631">
        <ele>4.6</ele>
        <time>2020-03-11T10:35:53Z</time>
      </trkpt>
      <trkpt lat="45.61844" lon="-1.01599">
        <ele>4.3</ele>
        <time>2020-03-11T10:35:53Z</time>
      </trkpt>
      <trkpt lat="45.61826" lon="-1.01576">
        <ele>4.5</ele>
        <time>2020-03-11T10:35:53Z</time>
      </trkpt>
      <trkpt lat="45.61799" lon="-1.01541">
        <ele>4.3</ele>
        <time>2020-03-11T10:35:53Z</time>
      </trkpt>
      <trkpt lat="45.61779" lon="-1.01517">
        <ele>4.4</ele>
        <time>2020-03-11T10:35:53Z</time>
      </trkpt>
      <trkpt lat="45.6173" lon="-1.01454">
        <ele>4.5</ele>
        <time>2020-03-11T10:35:53Z</time>
      </trkpt>
      <trkpt lat="45.61706" lon="-1.01424">
        <ele>4.7</ele>
        <time>2020-03-11T10:35:53Z</time>
      </trkpt>
      <trkpt lat="45.61682" lon="-1.01395">
        <ele>4.5</ele>
        <time>2020-03-11T10:35:53Z</time>
      </trkpt>
      <trkpt lat="45.61637" lon="-1.01344">
        <ele>4.5</ele>
        <time>2020-03-11T10:35:53Z</time>
      </trkpt>
      <trkpt lat="45.61622" lon="-1.01328">
        <ele>4.5</ele>
        <time>2020-03-11T10:35:53Z</time>
      </trkpt>
      <trkpt lat="45.61607" lon="-1.01311">
        <ele>4.7</ele>
        <time>2020-03-11T10:35:53Z</time>
      </trkpt>
      <trkpt lat="45.61581" lon="-1.01284">
        <ele>4.7</ele>
        <time>2020-03-11T10:35:53Z</time>
      </trkpt>
      <trkpt lat="45.61553" lon="-1.01256">
        <ele>4.7</ele>
        <time>2020-03-11T10:35:53Z</time>
      </trkpt>
      <trkpt lat="45.61535" lon="-1.01239">
        <ele>4.7</ele>
        <time>2020-03-11T10:35:53Z</time>
      </trkpt>
      <trkpt lat="45.61502" lon="-1.01208">
        <ele>4.6</ele>
        <time>2020-03-11T10:35:53Z</time>
      </trkpt>
      <trkpt lat="45.61466" lon="-1.01175">
        <ele>4.5</ele>
        <time>2020-03-11T10:35:53Z</time>
      </trkpt>
      <trkpt lat="45.61419" lon="-1.01134">
        <ele>4.3</ele>
        <time>2020-03-11T10:35:53Z</time>
      </trkpt>
      <trkpt lat="45.61399" lon="-1.01115">
        <ele>4.2</ele>
        <time>2020-03-11T10:35:53Z</time>
      </trkpt>
      <trkpt lat="45.61382" lon="-1.01099">
        <ele>4.3</ele>
        <time>2020-03-11T10:35:53Z</time>
      </trkpt>
      <trkpt lat="45.61362" lon="-1.01082">
        <ele>5</ele>
        <time>2020-03-11T10:35:53Z</time>
      </trkpt>
      <trkpt lat="45.61343" lon="-1.01065">
        <ele>4.6</ele>
        <time>2020-03-11T10:35:53Z</time>
      </trkpt>
      <trkpt lat="45.61324" lon="-1.01049">
        <ele>4.6</ele>
        <time>2020-03-11T10:35:53Z</time>
      </trkpt>
      <trkpt lat="45.61307" lon="-1.01035">
        <ele>4.5</ele>
        <time>2020-03-11T10:35:53Z</time>
      </trkpt>
      <trkpt lat="45.61291" lon="-1.01022">
        <ele>4.8</ele>
        <time>2020-03-11T10:35:53Z</time>
      </trkpt>
      <trkpt lat="45.61273" lon="-1.0101">
        <ele>5.1</ele>
        <time>2020-03-11T10:35:53Z</time>
      </trkpt>
      <trkpt lat="45.61251" lon="-1.00995">
        <ele>5</ele>
        <time>2020-03-11T10:35:53Z</time>
      </trkpt>
      <trkpt lat="45.61234" lon="-1.00984">
        <ele>4.5</ele>
        <time>2020-03-11T10:35:53Z</time>
      </trkpt>
      <trkpt lat="45.61215" lon="-1.00972">
        <ele>4.7</ele>
        <time>2020-03-11T10:35:53Z</time>
      </trkpt>
      <trkpt lat="45.61185" lon="-1.00957">
        <ele>4.5</ele>
        <time>2020-03-11T10:35:53Z</time>
      </trkpt>
      <trkpt lat="45.61154" lon="-1.00944">
        <ele>5</ele>
        <time>2020-03-11T10:35:53Z</time>
      </trkpt>
      <trkpt lat="45.61123" lon="-1.00931">
        <ele>4.7</ele>
        <time>2020-03-11T10:35:53Z</time>
      </trkpt>
      <trkpt lat="45.61098" lon="-1.00923">
        <ele>4.8</ele>
        <time>2020-03-11T10:35:53Z</time>
      </trkpt>
      <trkpt lat="45.61071" lon="-1.00915">
        <ele>5.1</ele>
        <time>2020-03-11T10:35:53Z</time>
      </trkpt>
      <trkpt lat="45.61046" lon="-1.00907">
        <ele>5.1</ele>
        <time>2020-03-11T10:35:53Z</time>
      </trkpt>
      <trkpt lat="45.61026" lon="-1.00902">
        <ele>5.1</ele>
        <time>2020-03-11T10:35:53Z</time>
      </trkpt>
      <trkpt lat="45.60997" lon="-1.00894">
        <ele>5.6</ele>
        <time>2020-03-11T10:35:53Z</time>
      </trkpt>
      <trkpt lat="45.60968" lon="-1.00887">
        <ele>5.9</ele>
        <time>2020-03-11T10:35:53Z</time>
      </trkpt>
      <trkpt lat="45.60891" lon="-1.00869">
        <ele>5.4</ele>
        <time>2020-03-11T10:35:53Z</time>
      </trkpt>
      <trkpt lat="45.60871" lon="-1.00863">
        <ele>5.9</ele>
        <time>2020-03-11T10:35:53Z</time>
      </trkpt>
      <trkpt lat="45.60848" lon="-1.00857">
        <ele>6.1</ele>
        <time>2020-03-11T10:35:53Z</time>
      </trkpt>
      <trkpt lat="45.60825" lon="-1.00851">
        <ele>6.2</ele>
        <time>2020-03-11T10:35:53Z</time>
      </trkpt>
      <trkpt lat="45.60806" lon="-1.00838">
        <ele>6.7</ele>
        <time>2020-03-11T10:35:53Z</time>
      </trkpt>
      <trkpt lat="45.60778" lon="-1.00785">
        <ele>7.7</ele>
        <time>2020-03-11T10:35:53Z</time>
      </trkpt>
      <trkpt lat="45.60737" lon="-1.0072">
        <ele>10.1</ele>
        <time>2020-03-11T10:35:53Z</time>
      </trkpt>
      <trkpt lat="45.60715" lon="-1.00687">
        <ele>12.3</ele>
        <time>2020-03-11T10:35:53Z</time>
      </trkpt>
      <trkpt lat="45.60684" lon="-1.00701">
        <ele>13.7</ele>
        <time>2020-03-11T10:35:53Z</time>
      </trkpt>
      <trkpt lat="45.60662" lon="-1.00723">
        <ele>15.4</ele>
        <time>2020-03-11T10:35:53Z</time>
      </trkpt>
      <trkpt lat="45.60629" lon="-1.00789">
        <ele>17.2</ele>
        <time>2020-03-11T10:35:53Z</time>
      </trkpt>
      <trkpt lat="45.60615" lon="-1.00819">
        <ele>17.7</ele>
        <time>2020-03-11T10:35:53Z</time>
      </trkpt>
      <trkpt lat="45.60603" lon="-1.00844">
        <ele>18</ele>
        <time>2020-03-11T10:35:53Z</time>
      </trkpt>
      <trkpt lat="45.60587" lon="-1.00879">
        <ele>18.7</ele>
        <time>2020-03-11T10:35:53Z</time>
      </trkpt>
      <trkpt lat="45.60576" lon="-1.00901">
        <ele>19.1</ele>
        <time>2020-03-11T10:35:53Z</time>
      </trkpt>
      <trkpt lat="45.60561" lon="-1.00934">
        <ele>18.9</ele>
        <time>2020-03-11T10:35:53Z</time>
      </trkpt>
      <trkpt lat="45.60549" lon="-1.00957">
        <ele>18.2</ele>
        <time>2020-03-11T10:35:53Z</time>
      </trkpt>
      <trkpt lat="45.60535" lon="-1.00983">
        <ele>17.3</ele>
        <time>2020-03-11T10:35:53Z</time>
      </trkpt>
      <trkpt lat="45.60522" lon="-1.01002">
        <ele>17.1</ele>
        <time>2020-03-11T10:35:53Z</time>
      </trkpt>
      <trkpt lat="45.60504" lon="-1.01033">
        <ele>15</ele>
        <time>2020-03-11T10:35:53Z</time>
      </trkpt>
      <trkpt lat="45.60493" lon="-1.01065">
        <ele>13.1</ele>
        <time>2020-03-11T10:35:53Z</time>
      </trkpt>
      <trkpt lat="45.60489" lon="-1.01101">
        <ele>11.4</ele>
        <time>2020-03-11T10:35:53Z</time>
      </trkpt>
      <trkpt lat="45.60485" lon="-1.01127">
        <ele>10.2</ele>
        <time>2020-03-11T10:35:53Z</time>
      </trkpt>
      <trkpt lat="45.60479" lon="-1.01158">
        <ele>8.6</ele>
        <time>2020-03-11T10:35:53Z</time>
      </trkpt>
      <trkpt lat="45.60467" lon="-1.01199">
        <ele>9.4</ele>
        <time>2020-03-11T10:35:53Z</time>
      </trkpt>
      <trkpt lat="45.60452" lon="-1.01229">
        <ele>9.7</ele>
        <time>2020-03-11T10:35:53Z</time>
      </trkpt>
      <trkpt lat="45.60423" lon="-1.01243">
        <ele>11.6</ele>
        <time>2020-03-11T10:35:53Z</time>
      </trkpt>
      <trkpt lat="45.60387" lon="-1.01241">
        <ele>12.7</ele>
        <time>2020-03-11T10:35:53Z</time>
      </trkpt>
      <trkpt lat="45.60355" lon="-1.01241">
        <ele>12.7</ele>
        <time>2020-03-11T10:35:53Z</time>
      </trkpt>
      <trkpt lat="45.60336" lon="-1.01248">
        <ele>13.8</ele>
        <time>2020-03-11T10:35:53Z</time>
      </trkpt>
      <trkpt lat="45.60324" lon="-1.0127">
        <ele>13.9</ele>
        <time>2020-03-11T10:35:53Z</time>
      </trkpt>
      <trkpt lat="45.60324" lon="-1.01306">
        <ele>13.7</ele>
        <time>2020-03-11T10:35:53Z</time>
      </trkpt>
      <trkpt lat="45.60319" lon="-1.01337">
        <ele>14.1</ele>
        <time>2020-03-11T10:35:53Z</time>
      </trkpt>
      <trkpt lat="45.60302" lon="-1.01348">
        <ele>14.5</ele>
        <time>2020-03-11T10:35:53Z</time>
      </trkpt>
      <trkpt lat="45.60279" lon="-1.01352">
        <ele>15</ele>
        <time>2020-03-11T10:35:53Z</time>
      </trkpt>
      <trkpt lat="45.60225" lon="-1.01324">
        <ele>15.3</ele>
        <time>2020-03-11T10:35:53Z</time>
      </trkpt>
      <trkpt lat="45.60192" lon="-1.01304">
        <ele>16.1</ele>
        <time>2020-03-11T10:35:53Z</time>
      </trkpt>
      <trkpt lat="45.60175" lon="-1.01293">
        <ele>16.8</ele>
        <time>2020-03-11T10:35:53Z</time>
      </trkpt>
      <trkpt lat="45.60158" lon="-1.01282">
        <ele>17.3</ele>
        <time>2020-03-11T10:35:53Z</time>
      </trkpt>
      <trkpt lat="45.60141" lon="-1.0127">
        <ele>17.9</ele>
        <time>2020-03-11T10:35:53Z</time>
      </trkpt>
      <trkpt lat="45.60119" lon="-1.01253">
        <ele>18</ele>
        <time>2020-03-11T10:35:53Z</time>
      </trkpt>
      <trkpt lat="45.60094" lon="-1.01232">
        <ele>17.8</ele>
        <time>2020-03-11T10:35:53Z</time>
      </trkpt>
      <trkpt lat="45.60065" lon="-1.01208">
        <ele>18.2</ele>
        <time>2020-03-11T10:35:53Z</time>
      </trkpt>
      <trkpt lat="45.60043" lon="-1.01181">
        <ele>18.5</ele>
        <time>2020-03-11T10:35:53Z</time>
      </trkpt>
      <trkpt lat="45.60027" lon="-1.01158">
        <ele>18.1</ele>
        <time>2020-03-11T10:35:53Z</time>
      </trkpt>
      <trkpt lat="45.59998" lon="-1.01111">
        <ele>17.9</ele>
        <time>2020-03-11T10:35:53Z</time>
      </trkpt>
      <trkpt lat="45.59977" lon="-1.01076">
        <ele>17</ele>
        <time>2020-03-11T10:35:53Z</time>
      </trkpt>
      <trkpt lat="45.59965" lon="-1.01056">
        <ele>15.2</ele>
        <time>2020-03-11T10:35:53Z</time>
      </trkpt>
      <trkpt lat="45.59945" lon="-1.01025">
        <ele>15.9</ele>
        <time>2020-03-11T10:35:53Z</time>
      </trkpt>
      <trkpt lat="45.59929" lon="-1.00991">
        <ele>14.2</ele>
        <time>2020-03-11T10:35:53Z</time>
      </trkpt>
      <trkpt lat="45.59914" lon="-1.00976">
        <ele>14.6</ele>
        <time>2020-03-11T10:35:53Z</time>
      </trkpt>
      <trkpt lat="45.59902" lon="-1.00954">
        <ele>14.2</ele>
        <time>2020-03-11T10:35:53Z</time>
      </trkpt>
      <trkpt lat="45.59891" lon="-1.00928">
        <ele>13.5</ele>
        <time>2020-03-11T10:35:53Z</time>
      </trkpt>
      <trkpt lat="45.59906" lon="-1.009">
        <ele>12.9</ele>
        <time>2020-03-11T10:35:53Z</time>
      </trkpt>
      <trkpt lat="45.59932" lon="-1.00862">
        <ele>11.5</ele>
        <time>2020-03-11T10:35:53Z</time>
      </trkpt>
      <trkpt lat="45.59948" lon="-1.00844">
        <ele>10.3</ele>
        <time>2020-03-11T10:35:53Z</time>
      </trkpt>
      <trkpt lat="45.59966" lon="-1.00832">
        <ele>9.1</ele>
        <time>2020-03-11T10:35:53Z</time>
      </trkpt>
      <trkpt lat="45.59989" lon="-1.00789">
        <ele>7</ele>
        <time>2020-03-11T10:35:53Z</time>
      </trkpt>
      <trkpt lat="45.59994" lon="-1.00764">
        <ele>7.5</ele>
        <time>2020-03-11T10:35:53Z</time>
      </trkpt>
      <trkpt lat="45.59978" lon="-1.00734">
        <ele>4.8</ele>
        <time>2020-03-11T10:35:53Z</time>
      </trkpt>
      <trkpt lat="45.59972" lon="-1.007">
        <ele>4</ele>
        <time>2020-03-11T10:35:53Z</time>
      </trkpt>
      <trkpt lat="45.59973" lon="-1.00668">
        <ele>4.2</ele>
        <time>2020-03-11T10:35:53Z</time>
      </trkpt>
      <trkpt lat="45.5998" lon="-1.00617">
        <ele>4.2</ele>
        <time>2020-03-11T10:35:53Z</time>
      </trkpt>
      <trkpt lat="45.59987" lon="-1.00575">
        <ele>4</ele>
        <time>2020-03-11T10:35:53Z</time>
      </trkpt>
      <trkpt lat="45.59983" lon="-1.00533">
        <ele>4.4</ele>
        <time>2020-03-11T10:35:53Z</time>
      </trkpt>
      <trkpt lat="45.59971" lon="-1.00488">
        <ele>4</ele>
        <time>2020-03-11T10:35:53Z</time>
      </trkpt>
      <trkpt lat="45.59968" lon="-1.00462">
        <ele>5.2</ele>
        <time>2020-03-11T10:35:53Z</time>
      </trkpt>
      <trkpt lat="45.59964" lon="-1.00426">
        <ele>6.7</ele>
        <time>2020-03-11T10:35:53Z</time>
      </trkpt>
      <trkpt lat="45.59957" lon="-1.00397">
        <ele>5.8</ele>
        <time>2020-03-11T10:35:53Z</time>
      </trkpt>
      <trkpt lat="45.59945" lon="-1.00367">
        <ele>4.5</ele>
        <time>2020-03-11T10:35:53Z</time>
      </trkpt>
      <trkpt lat="45.59932" lon="-1.00338">
        <ele>4.7</ele>
        <time>2020-03-11T10:35:53Z</time>
      </trkpt>
      <trkpt lat="45.59927" lon="-1.00313">
        <ele>4.1</ele>
        <time>2020-03-11T10:35:53Z</time>
      </trkpt>
      <trkpt lat="45.59939" lon="-1.00274">
        <ele>4.6</ele>
        <time>2020-03-11T10:35:53Z</time>
      </trkpt>
      <trkpt lat="45.59941" lon="-1.00247">
        <ele>4.5</ele>
        <time>2020-03-11T10:35:53Z</time>
      </trkpt>
      <trkpt lat="45.59944" lon="-1.00221">
        <ele>3.8</ele>
        <time>2020-03-11T10:35:53Z</time>
      </trkpt>
      <trkpt lat="45.5996" lon="-1.002">
        <ele>2.8</ele>
        <time>2020-03-11T10:35:53Z</time>
      </trkpt>
      <trkpt lat="45.59978" lon="-1.00202">
        <ele>4.2</ele>
        <time>2020-03-11T10:35:53Z</time>
      </trkpt>
      <trkpt lat="45.5999" lon="-1.00181">
        <ele>3.3</ele>
        <time>2020-03-11T10:35:53Z</time>
      </trkpt>
      <trkpt lat="45.60001" lon="-1.00148">
        <ele>2.7</ele>
        <time>2020-03-11T10:35:53Z</time>
      </trkpt>
      <trkpt lat="45.60021" lon="-1.00142">
        <ele>4.3</ele>
        <time>2020-03-11T10:35:53Z</time>
      </trkpt>
      <trkpt lat="45.60027" lon="-1.00107">
        <ele>4.7</ele>
        <time>2020-03-11T10:35:53Z</time>
      </trkpt>
      <trkpt lat="45.60038" lon="-1.00082">
        <ele>4.3</ele>
        <time>2020-03-11T10:35:53Z</time>
      </trkpt>
      <trkpt lat="45.60062" lon="-1.00059">
        <ele>4.4</ele>
        <time>2020-03-11T10:35:53Z</time>
      </trkpt>
      <trkpt lat="45.6009" lon="-1.00023">
        <ele>4.1</ele>
        <time>2020-03-11T10:35:53Z</time>
      </trkpt>
      <trkpt lat="45.60121" lon="-0.99995">
        <ele>4.6</ele>
        <time>2020-03-11T10:35:53Z</time>
      </trkpt>
      <trkpt lat="45.6014" lon="-0.99986">
        <ele>5.6</ele>
        <time>2020-03-11T10:35:53Z</time>
      </trkpt>
      <trkpt lat="45.60126" lon="-0.99938">
        <ele>5.1</ele>
        <time>2020-03-11T10:35:53Z</time>
      </trkpt>
      <trkpt lat="45.60118" lon="-0.9991">
        <ele>4.7</ele>
        <time>2020-03-11T10:35:53Z</time>
      </trkpt>
      <trkpt lat="45.6011" lon="-0.99877">
        <ele>5.4</ele>
        <time>2020-03-11T10:35:53Z</time>
      </trkpt>
      <trkpt lat="45.601" lon="-0.99835">
        <ele>5.2</ele>
        <time>2020-03-11T10:35:53Z</time>
      </trkpt>
      <trkpt lat="45.60087" lon="-0.99797">
        <ele>5.4</ele>
        <time>2020-03-11T10:35:53Z</time>
      </trkpt>
      <trkpt lat="45.60065" lon="-0.99735">
        <ele>5.7</ele>
        <time>2020-03-11T10:35:53Z</time>
      </trkpt>
      <trkpt lat="45.60042" lon="-0.9967">
        <ele>5.5</ele>
        <time>2020-03-11T10:35:53Z</time>
      </trkpt>
      <trkpt lat="45.60004" lon="-0.99577">
        <ele>6</ele>
        <time>2020-03-11T10:35:53Z</time>
      </trkpt>
      <trkpt lat="45.59973" lon="-0.99512">
        <ele>5.6</ele>
        <time>2020-03-11T10:35:53Z</time>
      </trkpt>
      <trkpt lat="45.59956" lon="-0.99486">
        <ele>5.7</ele>
        <time>2020-03-11T10:35:53Z</time>
      </trkpt>
      <trkpt lat="45.59939" lon="-0.99466">
        <ele>6</ele>
        <time>2020-03-11T10:35:53Z</time>
      </trkpt>
      <trkpt lat="45.59925" lon="-0.99448">
        <ele>6.2</ele>
        <time>2020-03-11T10:35:53Z</time>
      </trkpt>
      <trkpt lat="45.59899" lon="-0.9941">
        <ele>5.9</ele>
        <time>2020-03-11T10:35:53Z</time>
      </trkpt>
      <trkpt lat="45.59889" lon="-0.99382">
        <ele>6.3</ele>
        <time>2020-03-11T10:35:53Z</time>
      </trkpt>
      <trkpt lat="45.59869" lon="-0.99368">
        <ele>6</ele>
        <time>2020-03-11T10:35:53Z</time>
      </trkpt>
      <trkpt lat="45.59851" lon="-0.99346">
        <ele>5.8</ele>
        <time>2020-03-11T10:35:53Z</time>
      </trkpt>
      <trkpt lat="45.59822" lon="-0.99322">
        <ele>5.8</ele>
        <time>2020-03-11T10:35:53Z</time>
      </trkpt>
      <trkpt lat="45.59789" lon="-0.99301">
        <ele>6.2</ele>
        <time>2020-03-11T10:35:53Z</time>
      </trkpt>
      <trkpt lat="45.59736" lon="-0.99277">
        <ele>6.5</ele>
        <time>2020-03-11T10:35:53Z</time>
      </trkpt>
      <trkpt lat="45.59683" lon="-0.99255">
        <ele>6.6</ele>
        <time>2020-03-11T10:35:53Z</time>
      </trkpt>
      <trkpt lat="45.59601" lon="-0.99218">
        <ele>6.7</ele>
        <time>2020-03-11T10:35:53Z</time>
      </trkpt>
      <trkpt lat="45.59503" lon="-0.99174">
        <ele>6.5</ele>
        <time>2020-03-11T10:35:53Z</time>
      </trkpt>
      <trkpt lat="45.59478" lon="-0.99163">
        <ele>6.2</ele>
        <time>2020-03-11T10:35:53Z</time>
      </trkpt>
      <trkpt lat="45.59441" lon="-0.99146">
        <ele>5.7</ele>
        <time>2020-03-11T10:35:53Z</time>
      </trkpt>
      <trkpt lat="45.59419" lon="-0.99136">
        <ele>6</ele>
        <time>2020-03-11T10:35:53Z</time>
      </trkpt>
      <trkpt lat="45.59347" lon="-0.99104">
        <ele>5.6</ele>
        <time>2020-03-11T10:35:53Z</time>
      </trkpt>
      <trkpt lat="45.5931" lon="-0.99088">
        <ele>5.7</ele>
        <time>2020-03-11T10:35:53Z</time>
      </trkpt>
      <trkpt lat="45.5928" lon="-0.99075">
        <ele>5.4</ele>
        <time>2020-03-11T10:35:53Z</time>
      </trkpt>
      <trkpt lat="45.59163" lon="-0.99025">
        <ele>6.9</ele>
        <time>2020-03-11T10:35:53Z</time>
      </trkpt>
      <trkpt lat="45.59092" lon="-0.98995">
        <ele>7.4</ele>
        <time>2020-03-11T10:35:53Z</time>
      </trkpt>
      <trkpt lat="45.59046" lon="-0.98976">
        <ele>7.8</ele>
        <time>2020-03-11T10:35:53Z</time>
      </trkpt>
      <trkpt lat="45.58994" lon="-0.98956">
        <ele>7.5</ele>
        <time>2020-03-11T10:35:53Z</time>
      </trkpt>
      <trkpt lat="45.58966" lon="-0.98945">
        <ele>8.7</ele>
        <time>2020-03-11T10:35:53Z</time>
      </trkpt>
      <trkpt lat="45.58948" lon="-0.98933">
        <ele>8.5</ele>
        <time>2020-03-11T10:35:53Z</time>
      </trkpt>
      <trkpt lat="45.58934" lon="-0.98911">
        <ele>8.7</ele>
        <time>2020-03-11T10:35:53Z</time>
      </trkpt>
      <trkpt lat="45.58927" lon="-0.98876">
        <ele>9.3</ele>
        <time>2020-03-11T10:35:53Z</time>
      </trkpt>
      <trkpt lat="45.58931" lon="-0.98833">
        <ele>10.5</ele>
        <time>2020-03-11T10:35:53Z</time>
      </trkpt>
      <trkpt lat="45.58936" lon="-0.98793">
        <ele>11.2</ele>
        <time>2020-03-11T10:35:53Z</time>
      </trkpt>
      <trkpt lat="45.58938" lon="-0.9876">
        <ele>12.5</ele>
        <time>2020-03-11T10:35:53Z</time>
      </trkpt>
      <trkpt lat="45.58931" lon="-0.98726">
        <ele>13.5</ele>
        <time>2020-03-11T10:35:53Z</time>
      </trkpt>
      <trkpt lat="45.58924" lon="-0.98693">
        <ele>10.7</ele>
        <time>2020-03-11T10:35:53Z</time>
      </trkpt>
      <trkpt lat="45.58896" lon="-0.9865">
        <ele>10.6</ele>
        <time>2020-03-11T10:35:53Z</time>
      </trkpt>
      <trkpt lat="45.58869" lon="-0.98608">
        <ele>9.4</ele>
        <time>2020-03-11T10:35:53Z</time>
      </trkpt>
      <trkpt lat="45.58847" lon="-0.98579">
        <ele>10.2</ele>
        <time>2020-03-11T10:35:53Z</time>
      </trkpt>
      <trkpt lat="45.58801" lon="-0.98546">
        <ele>11.2</ele>
        <time>2020-03-11T10:35:53Z</time>
      </trkpt>
      <trkpt lat="45.58774" lon="-0.9853">
        <ele>11.4</ele>
        <time>2020-03-11T10:35:53Z</time>
      </trkpt>
      <trkpt lat="45.58749" lon="-0.98518">
        <ele>12.3</ele>
        <time>2020-03-11T10:35:53Z</time>
      </trkpt>
      <trkpt lat="45.58716" lon="-0.98512">
        <ele>11.8</ele>
        <time>2020-03-11T10:35:53Z</time>
      </trkpt>
      <trkpt lat="45.58689" lon="-0.98507">
        <ele>11.2</ele>
        <time>2020-03-11T10:35:53Z</time>
      </trkpt>
      <trkpt lat="45.58665" lon="-0.98515">
        <ele>11.1</ele>
        <time>2020-03-11T10:35:53Z</time>
      </trkpt>
      <trkpt lat="45.5863" lon="-0.98534">
        <ele>11.8</ele>
        <time>2020-03-11T10:35:53Z</time>
      </trkpt>
      <trkpt lat="45.58602" lon="-0.9855">
        <ele>11.5</ele>
        <time>2020-03-11T10:35:53Z</time>
      </trkpt>
      <trkpt lat="45.58579" lon="-0.98562">
        <ele>11.8</ele>
        <time>2020-03-11T10:35:53Z</time>
      </trkpt>
      <trkpt lat="45.58557" lon="-0.98566">
        <ele>10.8</ele>
        <time>2020-03-11T10:35:53Z</time>
      </trkpt>
      <trkpt lat="45.58536" lon="-0.98567">
        <ele>11.7</ele>
        <time>2020-03-11T10:35:53Z</time>
      </trkpt>
      <trkpt lat="45.58505" lon="-0.98563">
        <ele>12.2</ele>
        <time>2020-03-11T10:35:53Z</time>
      </trkpt>
      <trkpt lat="45.58481" lon="-0.98559">
        <ele>11.4</ele>
        <time>2020-03-11T10:35:53Z</time>
      </trkpt>
      <trkpt lat="45.58454" lon="-0.98556">
        <ele>11</ele>
        <time>2020-03-11T10:35:53Z</time>
      </trkpt>
      <trkpt lat="45.58409" lon="-0.9855">
        <ele>9.8</ele>
        <time>2020-03-11T10:35:53Z</time>
      </trkpt>
      <trkpt lat="45.5837" lon="-0.98544">
        <ele>9.3</ele>
        <time>2020-03-11T10:35:53Z</time>
      </trkpt>
      <trkpt lat="45.58339" lon="-0.98539">
        <ele>9.3</ele>
        <time>2020-03-11T10:35:53Z</time>
      </trkpt>
      <trkpt lat="45.58311" lon="-0.98535">
        <ele>9.9</ele>
        <time>2020-03-11T10:35:53Z</time>
      </trkpt>
      <trkpt lat="45.58268" lon="-0.98528">
        <ele>11.4</ele>
        <time>2020-03-11T10:35:53Z</time>
      </trkpt>
      <trkpt lat="45.58229" lon="-0.98524">
        <ele>13.5</ele>
        <time>2020-03-11T10:35:53Z</time>
      </trkpt>
      <trkpt lat="45.58207" lon="-0.98522">
        <ele>15.1</ele>
        <time>2020-03-11T10:35:53Z</time>
      </trkpt>
      <trkpt lat="45.58165" lon="-0.98522">
        <ele>18.3</ele>
        <time>2020-03-11T10:35:53Z</time>
      </trkpt>
      <trkpt lat="45.58146" lon="-0.98525">
        <ele>19.5</ele>
        <time>2020-03-11T10:35:53Z</time>
      </trkpt>
      <trkpt lat="45.58121" lon="-0.9853">
        <ele>21.2</ele>
        <time>2020-03-11T10:35:53Z</time>
      </trkpt>
      <trkpt lat="45.58077" lon="-0.98545">
        <ele>24.3</ele>
        <time>2020-03-11T10:35:53Z</time>
      </trkpt>
      <trkpt lat="45.58031" lon="-0.98566">
        <ele>27.3</ele>
        <time>2020-03-11T10:35:53Z</time>
      </trkpt>
      <trkpt lat="45.58008" lon="-0.98568">
        <ele>29.8</ele>
        <time>2020-03-11T10:35:53Z</time>
      </trkpt>
      <trkpt lat="45.57957" lon="-0.98607">
        <ele>34.3</ele>
        <time>2020-03-11T10:35:53Z</time>
      </trkpt>
      <trkpt lat="45.57953" lon="-0.98572">
        <ele>35.5</ele>
        <time>2020-03-11T10:35:53Z</time>
      </trkpt>
      <trkpt lat="45.57951" lon="-0.98545">
        <ele>35.2</ele>
        <time>2020-03-11T10:35:53Z</time>
      </trkpt>
      <trkpt lat="45.57954" lon="-0.98516">
        <ele>35.7</ele>
        <time>2020-03-11T10:35:53Z</time>
      </trkpt>
      <trkpt lat="45.57961" lon="-0.98463">
        <ele>35.7</ele>
        <time>2020-03-11T10:35:53Z</time>
      </trkpt>
      <trkpt lat="45.5797" lon="-0.98437">
        <ele>35.3</ele>
        <time>2020-03-11T10:35:53Z</time>
      </trkpt>
      <trkpt lat="45.57975" lon="-0.98358">
        <ele>34.1</ele>
        <time>2020-03-11T10:35:53Z</time>
      </trkpt>
      <trkpt lat="45.57976" lon="-0.98325">
        <ele>35.2</ele>
        <time>2020-03-11T10:35:53Z</time>
      </trkpt>
      <trkpt lat="45.57961" lon="-0.98239">
        <ele>38.1</ele>
        <time>2020-03-11T10:35:53Z</time>
      </trkpt>
      <trkpt lat="45.57955" lon="-0.98213">
        <ele>37.2</ele>
        <time>2020-03-11T10:35:53Z</time>
      </trkpt>
      <trkpt lat="45.57982" lon="-0.98121">
        <ele>35.9</ele>
        <time>2020-03-11T10:35:53Z</time>
      </trkpt>
      <trkpt lat="45.57984" lon="-0.98093">
        <ele>37.6</ele>
        <time>2020-03-11T10:35:53Z</time>
      </trkpt>
      <trkpt lat="45.57976" lon="-0.98064">
        <ele>39.1</ele>
        <time>2020-03-11T10:35:53Z</time>
      </trkpt>
      <trkpt lat="45.57969" lon="-0.9803">
        <ele>38.9</ele>
        <time>2020-03-11T10:35:53Z</time>
      </trkpt>
      <trkpt lat="45.57971" lon="-0.97999">
        <ele>38.1</ele>
        <time>2020-03-11T10:35:53Z</time>
      </trkpt>
      <trkpt lat="45.57934" lon="-0.97841">
        <ele>28.6</ele>
        <time>2020-03-11T10:35:53Z</time>
      </trkpt>
      <trkpt lat="45.57922" lon="-0.97795">
        <ele>26.5</ele>
        <time>2020-03-11T10:35:53Z</time>
      </trkpt>
      <trkpt lat="45.57913" lon="-0.97766">
        <ele>25.6</ele>
        <time>2020-03-11T10:35:53Z</time>
      </trkpt>
      <trkpt lat="45.57905" lon="-0.97738">
        <ele>25.4</ele>
        <time>2020-03-11T10:35:53Z</time>
      </trkpt>
      <trkpt lat="45.57895" lon="-0.97679">
        <ele>24.3</ele>
        <time>2020-03-11T10:35:53Z</time>
      </trkpt>
      <trkpt lat="45.57892" lon="-0.97616">
        <ele>23.2</ele>
        <time>2020-03-11T10:35:53Z</time>
      </trkpt>
      <trkpt lat="45.57893" lon="-0.97565">
        <ele>23.2</ele>
        <time>2020-03-11T10:35:53Z</time>
      </trkpt>
      <trkpt lat="45.57849" lon="-0.97542">
        <ele>22.5</ele>
        <time>2020-03-11T10:35:53Z</time>
      </trkpt>
      <trkpt lat="45.57825" lon="-0.97524">
        <ele>21.6</ele>
        <time>2020-03-11T10:35:53Z</time>
      </trkpt>
      <trkpt lat="45.57806" lon="-0.97518">
        <ele>21</ele>
        <time>2020-03-11T10:35:53Z</time>
      </trkpt>
      <trkpt lat="45.57774" lon="-0.97516">
        <ele>20.7</ele>
        <time>2020-03-11T10:35:53Z</time>
      </trkpt>
      <trkpt lat="45.57745" lon="-0.97485">
        <ele>19.5</ele>
        <time>2020-03-11T10:35:53Z</time>
      </trkpt>
      <trkpt lat="45.57728" lon="-0.97457">
        <ele>18.5</ele>
        <time>2020-03-11T10:35:53Z</time>
      </trkpt>
      <trkpt lat="45.57715" lon="-0.97429">
        <ele>17.6</ele>
        <time>2020-03-11T10:35:53Z</time>
      </trkpt>
      <trkpt lat="45.5767" lon="-0.97347">
        <ele>17.3</ele>
        <time>2020-03-11T10:35:53Z</time>
      </trkpt>
      <trkpt lat="45.57632" lon="-0.97259">
        <ele>17.1</ele>
        <time>2020-03-11T10:35:53Z</time>
      </trkpt>
      <trkpt lat="45.57611" lon="-0.97212">
        <ele>18.6</ele>
        <time>2020-03-11T10:35:53Z</time>
      </trkpt>
      <trkpt lat="45.57602" lon="-0.97188">
        <ele>18.9</ele>
        <time>2020-03-11T10:35:53Z</time>
      </trkpt>
      <trkpt lat="45.57582" lon="-0.97155">
        <ele>20.1</ele>
        <time>2020-03-11T10:35:53Z</time>
      </trkpt>
      <trkpt lat="45.57567" lon="-0.97139">
        <ele>21.8</ele>
        <time>2020-03-11T10:35:53Z</time>
      </trkpt>
      <trkpt lat="45.57544" lon="-0.97125">
        <ele>23.3</ele>
        <time>2020-03-11T10:35:53Z</time>
      </trkpt>
      <trkpt lat="45.57525" lon="-0.97115">
        <ele>24.5</ele>
        <time>2020-03-11T10:35:53Z</time>
      </trkpt>
      <trkpt lat="45.57504" lon="-0.97102">
        <ele>26.9</ele>
        <time>2020-03-11T10:35:53Z</time>
      </trkpt>
      <trkpt lat="45.57473" lon="-0.97069">
        <ele>27.4</ele>
        <time>2020-03-11T10:35:53Z</time>
      </trkpt>
      <trkpt lat="45.57458" lon="-0.97054">
        <ele>27.9</ele>
        <time>2020-03-11T10:35:53Z</time>
      </trkpt>
      <trkpt lat="45.57436" lon="-0.97027">
        <ele>27.6</ele>
        <time>2020-03-11T10:35:53Z</time>
      </trkpt>
      <trkpt lat="45.57422" lon="-0.97001">
        <ele>27.7</ele>
        <time>2020-03-11T10:35:53Z</time>
      </trkpt>
      <trkpt lat="45.57407" lon="-0.96973">
        <ele>27.4</ele>
        <time>2020-03-11T10:35:53Z</time>
      </trkpt>
      <trkpt lat="45.57392" lon="-0.96938">
        <ele>27.6</ele>
        <time>2020-03-11T10:35:53Z</time>
      </trkpt>
      <trkpt lat="45.57382" lon="-0.96912">
        <ele>27.2</ele>
        <time>2020-03-11T10:35:53Z</time>
      </trkpt>
      <trkpt lat="45.57373" lon="-0.96887">
        <ele>27.6</ele>
        <time>2020-03-11T10:35:53Z</time>
      </trkpt>
      <trkpt lat="45.57353" lon="-0.96833">
        <ele>27</ele>
        <time>2020-03-11T10:35:53Z</time>
      </trkpt>
      <trkpt lat="45.57328" lon="-0.96777">
        <ele>26.8</ele>
        <time>2020-03-11T10:35:53Z</time>
      </trkpt>
      <trkpt lat="45.57302" lon="-0.96718">
        <ele>25.8</ele>
        <time>2020-03-11T10:35:53Z</time>
      </trkpt>
      <trkpt lat="45.57272" lon="-0.96675">
        <ele>26.6</ele>
        <time>2020-03-11T10:35:53Z</time>
      </trkpt>
      <trkpt lat="45.57253" lon="-0.96638">
        <ele>26.1</ele>
        <time>2020-03-11T10:35:53Z</time>
      </trkpt>
      <trkpt lat="45.57231" lon="-0.96586">
        <ele>25.6</ele>
        <time>2020-03-11T10:35:53Z</time>
      </trkpt>
      <trkpt lat="45.57223" lon="-0.96561">
        <ele>26.6</ele>
        <time>2020-03-11T10:35:53Z</time>
      </trkpt>
      <trkpt lat="45.57205" lon="-0.96549">
        <ele>26.3</ele>
        <time>2020-03-11T10:35:53Z</time>
      </trkpt>
      <trkpt lat="45.57184" lon="-0.96538">
        <ele>26.6</ele>
        <time>2020-03-11T10:35:53Z</time>
      </trkpt>
      <trkpt lat="45.57156" lon="-0.96532">
        <ele>27.1</ele>
        <time>2020-03-11T10:35:53Z</time>
      </trkpt>
      <trkpt lat="45.57116" lon="-0.96498">
        <ele>27.3</ele>
        <time>2020-03-11T10:35:53Z</time>
      </trkpt>
      <trkpt lat="45.57093" lon="-0.96462">
        <ele>27.5</ele>
        <time>2020-03-11T10:35:53Z</time>
      </trkpt>
      <trkpt lat="45.57043" lon="-0.96434">
        <ele>26.9</ele>
        <time>2020-03-11T10:35:53Z</time>
      </trkpt>
      <trkpt lat="45.57019" lon="-0.96419">
        <ele>26.5</ele>
        <time>2020-03-11T10:35:53Z</time>
      </trkpt>
      <trkpt lat="45.5698" lon="-0.96396">
        <ele>27.1</ele>
        <time>2020-03-11T10:35:53Z</time>
      </trkpt>
      <trkpt lat="45.56931" lon="-0.96373">
        <ele>27.6</ele>
        <time>2020-03-11T10:35:53Z</time>
      </trkpt>
      <trkpt lat="45.56893" lon="-0.96353">
        <ele>28.9</ele>
        <time>2020-03-11T10:35:53Z</time>
      </trkpt>
      <trkpt lat="45.56868" lon="-0.96338">
        <ele>29.8</ele>
        <time>2020-03-11T10:35:53Z</time>
      </trkpt>
      <trkpt lat="45.56847" lon="-0.96326">
        <ele>30.5</ele>
        <time>2020-03-11T10:35:53Z</time>
      </trkpt>
      <trkpt lat="45.56815" lon="-0.96308">
        <ele>31.7</ele>
        <time>2020-03-11T10:35:53Z</time>
      </trkpt>
      <trkpt lat="45.56767" lon="-0.96279">
        <ele>34.4</ele>
        <time>2020-03-11T10:35:53Z</time>
      </trkpt>
      <trkpt lat="45.56735" lon="-0.96262">
        <ele>35.2</ele>
        <time>2020-03-11T10:35:53Z</time>
      </trkpt>
      <trkpt lat="45.56685" lon="-0.96232">
        <ele>35.1</ele>
        <time>2020-03-11T10:35:53Z</time>
      </trkpt>
      <trkpt lat="45.5666" lon="-0.96218">
        <ele>34</ele>
        <time>2020-03-11T10:35:53Z</time>
      </trkpt>
      <trkpt lat="45.56585" lon="-0.96163">
        <ele>29.9</ele>
        <time>2020-03-11T10:35:53Z</time>
      </trkpt>
      <trkpt lat="45.56561" lon="-0.96144">
        <ele>28.4</ele>
        <time>2020-03-11T10:35:53Z</time>
      </trkpt>
      <trkpt lat="45.56541" lon="-0.96153">
        <ele>28.3</ele>
        <time>2020-03-11T10:35:53Z</time>
      </trkpt>
      <trkpt lat="45.56533" lon="-0.96124">
        <ele>26.7</ele>
        <time>2020-03-11T10:35:53Z</time>
      </trkpt>
      <trkpt lat="45.56463" lon="-0.96074">
        <ele>22.6</ele>
        <time>2020-03-11T10:35:53Z</time>
      </trkpt>
      <trkpt lat="45.56444" lon="-0.9606">
        <ele>21.3</ele>
        <time>2020-03-11T10:35:53Z</time>
      </trkpt>
      <trkpt lat="45.56427" lon="-0.96049">
        <ele>20.2</ele>
        <time>2020-03-11T10:35:53Z</time>
      </trkpt>
      <trkpt lat="45.56411" lon="-0.96037">
        <ele>19.3</ele>
        <time>2020-03-11T10:35:53Z</time>
      </trkpt>
      <trkpt lat="45.56383" lon="-0.96017">
        <ele>18.5</ele>
        <time>2020-03-11T10:35:53Z</time>
      </trkpt>
      <trkpt lat="45.5635" lon="-0.95994">
        <ele>17.7</ele>
        <time>2020-03-11T10:35:53Z</time>
      </trkpt>
      <trkpt lat="45.56334" lon="-0.95982">
        <ele>18</ele>
        <time>2020-03-11T10:35:53Z</time>
      </trkpt>
      <trkpt lat="45.56313" lon="-0.95964">
        <ele>18.7</ele>
        <time>2020-03-11T10:35:53Z</time>
      </trkpt>
      <trkpt lat="45.56291" lon="-0.95946">
        <ele>19.5</ele>
        <time>2020-03-11T10:35:53Z</time>
      </trkpt>
      <trkpt lat="45.56274" lon="-0.95929">
        <ele>20.8</ele>
        <time>2020-03-11T10:35:53Z</time>
      </trkpt>
      <trkpt lat="45.56231" lon="-0.95888">
        <ele>22.7</ele>
        <time>2020-03-11T10:35:53Z</time>
      </trkpt>
      <trkpt lat="45.56201" lon="-0.95859">
        <ele>22.7</ele>
        <time>2020-03-11T10:35:53Z</time>
      </trkpt>
      <trkpt lat="45.56191" lon="-0.95817">
        <ele>22.1</ele>
        <time>2020-03-11T10:35:53Z</time>
      </trkpt>
      <trkpt lat="45.56188" lon="-0.95777">
        <ele>22.5</ele>
        <time>2020-03-11T10:35:53Z</time>
      </trkpt>
      <trkpt lat="45.56185" lon="-0.95734">
        <ele>22.1</ele>
        <time>2020-03-11T10:35:53Z</time>
      </trkpt>
      <trkpt lat="45.56176" lon="-0.95693">
        <ele>21.6</ele>
        <time>2020-03-11T10:35:53Z</time>
      </trkpt>
      <trkpt lat="45.56155" lon="-0.95667">
        <ele>20.9</ele>
        <time>2020-03-11T10:35:53Z</time>
      </trkpt>
      <trkpt lat="45.56133" lon="-0.95642">
        <ele>19.7</ele>
        <time>2020-03-11T10:35:53Z</time>
      </trkpt>
      <trkpt lat="45.56118" lon="-0.95618">
        <ele>18.6</ele>
        <time>2020-03-11T10:35:53Z</time>
      </trkpt>
      <trkpt lat="45.56102" lon="-0.95591">
        <ele>16.6</ele>
        <time>2020-03-11T10:35:53Z</time>
      </trkpt>
      <trkpt lat="45.56075" lon="-0.95586">
        <ele>16.2</ele>
        <time>2020-03-11T10:35:53Z</time>
      </trkpt>
      <trkpt lat="45.56055" lon="-0.95582">
        <ele>16.1</ele>
        <time>2020-03-11T10:35:53Z</time>
      </trkpt>
      <trkpt lat="45.56031" lon="-0.95592">
        <ele>16.6</ele>
        <time>2020-03-11T10:35:53Z</time>
      </trkpt>
      <trkpt lat="45.55988" lon="-0.95616">
        <ele>13.7</ele>
        <time>2020-03-11T10:35:53Z</time>
      </trkpt>
      <trkpt lat="45.55956" lon="-0.95636">
        <ele>12.4</ele>
        <time>2020-03-11T10:35:53Z</time>
      </trkpt>
      <trkpt lat="45.55933" lon="-0.9565">
        <ele>12</ele>
        <time>2020-03-11T10:35:53Z</time>
      </trkpt>
      <trkpt lat="45.55919" lon="-0.95601">
        <ele>11.1</ele>
        <time>2020-03-11T10:35:53Z</time>
      </trkpt>
      <trkpt lat="45.55911" lon="-0.95574">
        <ele>11.3</ele>
        <time>2020-03-11T10:35:53Z</time>
      </trkpt>
      <trkpt lat="45.55916" lon="-0.95531">
        <ele>12</ele>
        <time>2020-03-11T10:35:53Z</time>
      </trkpt>
      <trkpt lat="45.55913" lon="-0.95505">
        <ele>12.7</ele>
        <time>2020-03-11T10:35:53Z</time>
      </trkpt>
      <trkpt lat="45.55908" lon="-0.95479">
        <ele>13.2</ele>
        <time>2020-03-11T10:35:53Z</time>
      </trkpt>
      <trkpt lat="45.55898" lon="-0.95449">
        <ele>12.7</ele>
        <time>2020-03-11T10:35:53Z</time>
      </trkpt>
      <trkpt lat="45.55875" lon="-0.9541">
        <ele>11.9</ele>
        <time>2020-03-11T10:35:53Z</time>
      </trkpt>
      <trkpt lat="45.55863" lon="-0.9539">
        <ele>11.1</ele>
        <time>2020-03-11T10:35:53Z</time>
      </trkpt>
      <trkpt lat="45.55849" lon="-0.95363">
        <ele>9.2</ele>
        <time>2020-03-11T10:35:53Z</time>
      </trkpt>
      <trkpt lat="45.55837" lon="-0.95335">
        <ele>8.3</ele>
        <time>2020-03-11T10:35:53Z</time>
      </trkpt>
      <trkpt lat="45.55828" lon="-0.95312">
        <ele>7</ele>
        <time>2020-03-11T10:35:53Z</time>
      </trkpt>
      <trkpt lat="45.55812" lon="-0.9529">
        <ele>6.9</ele>
        <time>2020-03-11T10:35:53Z</time>
      </trkpt>
      <trkpt lat="45.55802" lon="-0.95266">
        <ele>7.2</ele>
        <time>2020-03-11T10:35:53Z</time>
      </trkpt>
      <trkpt lat="45.55795" lon="-0.95242">
        <ele>7.7</ele>
        <time>2020-03-11T10:35:53Z</time>
      </trkpt>
      <trkpt lat="45.55775" lon="-0.95253">
        <ele>6.6</ele>
        <time>2020-03-11T10:35:53Z</time>
      </trkpt>
      <trkpt lat="45.5573" lon="-0.95213">
        <ele>5.3</ele>
        <time>2020-03-11T10:35:53Z</time>
      </trkpt>
      <trkpt lat="45.55709" lon="-0.95196">
        <ele>4.6</ele>
        <time>2020-03-11T10:35:53Z</time>
      </trkpt>
      <trkpt lat="45.55685" lon="-0.9516">
        <ele>4.3</ele>
        <time>2020-03-11T10:35:53Z</time>
      </trkpt>
      <trkpt lat="45.55718" lon="-0.9513">
        <ele>4</ele>
        <time>2020-03-11T10:35:53Z</time>
      </trkpt>
      <trkpt lat="45.55737" lon="-0.95126">
        <ele>4.5</ele>
        <time>2020-03-11T10:35:53Z</time>
      </trkpt>
      <trkpt lat="45.55732" lon="-0.9507">
        <ele>4</ele>
        <time>2020-03-11T10:35:53Z</time>
      </trkpt>
      <trkpt lat="45.55716" lon="-0.95004">
        <ele>4</ele>
        <time>2020-03-11T10:35:53Z</time>
      </trkpt>
      <trkpt lat="45.55704" lon="-0.94947">
        <ele>4</ele>
        <time>2020-03-11T10:35:53Z</time>
      </trkpt>
      <trkpt lat="45.5569" lon="-0.9488">
        <ele>3.3</ele>
        <time>2020-03-11T10:35:53Z</time>
      </trkpt>
      <trkpt lat="45.55684" lon="-0.9484">
        <ele>3.1</ele>
        <time>2020-03-11T10:35:53Z</time>
      </trkpt>
      <trkpt lat="45.55685" lon="-0.94814">
        <ele>3</ele>
        <time>2020-03-11T10:35:53Z</time>
      </trkpt>
      <trkpt lat="45.55666" lon="-0.94785">
        <ele>3</ele>
        <time>2020-03-11T10:35:53Z</time>
      </trkpt>
      <trkpt lat="45.55636" lon="-0.94734">
        <ele>3</ele>
        <time>2020-03-11T10:35:53Z</time>
      </trkpt>
      <trkpt lat="45.55626" lon="-0.94712">
        <ele>3</ele>
        <time>2020-03-11T10:35:53Z</time>
      </trkpt>
      <trkpt lat="45.55615" lon="-0.94649">
        <ele>3.5</ele>
        <time>2020-03-11T10:35:53Z</time>
      </trkpt>
      <trkpt lat="45.55602" lon="-0.94605">
        <ele>2.9</ele>
        <time>2020-03-11T10:35:53Z</time>
      </trkpt>
      <trkpt lat="45.55593" lon="-0.94581">
        <ele>1.7</ele>
        <time>2020-03-11T10:35:53Z</time>
      </trkpt>
      <trkpt lat="45.55575" lon="-0.94551">
        <ele>3</ele>
        <time>2020-03-11T10:35:53Z</time>
      </trkpt>
      <trkpt lat="45.55557" lon="-0.94534">
        <ele>3.7</ele>
        <time>2020-03-11T10:35:53Z</time>
      </trkpt>
      <trkpt lat="45.5554" lon="-0.94523">
        <ele>3.5</ele>
        <time>2020-03-11T10:35:53Z</time>
      </trkpt>
      <trkpt lat="45.55516" lon="-0.94508">
        <ele>3.1</ele>
        <time>2020-03-11T10:35:53Z</time>
      </trkpt>
      <trkpt lat="45.55523" lon="-0.94473">
        <ele>4</ele>
        <time>2020-03-11T10:35:53Z</time>
      </trkpt>
      <trkpt lat="45.55543" lon="-0.94451">
        <ele>3.1</ele>
        <time>2020-03-11T10:35:53Z</time>
      </trkpt>
      <trkpt lat="45.55553" lon="-0.94429">
        <ele>3.6</ele>
        <time>2020-03-11T10:35:53Z</time>
      </trkpt>
      <trkpt lat="45.5555" lon="-0.94382">
        <ele>4</ele>
        <time>2020-03-11T10:35:53Z</time>
      </trkpt>
      <trkpt lat="45.55536" lon="-0.94353">
        <ele>3.8</ele>
        <time>2020-03-11T10:35:53Z</time>
      </trkpt>
      <trkpt lat="45.55542" lon="-0.94321">
        <ele>3.1</ele>
        <time>2020-03-11T10:35:53Z</time>
      </trkpt>
      <trkpt lat="45.55558" lon="-0.94292">
        <ele>3.6</ele>
        <time>2020-03-11T10:35:53Z</time>
      </trkpt>
      <trkpt lat="45.55587" lon="-0.94269">
        <ele>3.1</ele>
        <time>2020-03-11T10:35:53Z</time>
      </trkpt>
      <trkpt lat="45.55614" lon="-0.94253">
        <ele>3.2</ele>
        <time>2020-03-11T10:35:53Z</time>
      </trkpt>
      <trkpt lat="45.55639" lon="-0.9424">
        <ele>3.3</ele>
        <time>2020-03-11T10:35:53Z</time>
      </trkpt>
      <trkpt lat="45.55663" lon="-0.94228">
        <ele>3.8</ele>
        <time>2020-03-11T10:35:53Z</time>
      </trkpt>
      <trkpt lat="45.55689" lon="-0.94214">
        <ele>3.9</ele>
        <time>2020-03-11T10:35:53Z</time>
      </trkpt>
      <trkpt lat="45.55698" lon="-0.9419">
        <ele>3.9</ele>
        <time>2020-03-11T10:35:53Z</time>
      </trkpt>
      <trkpt lat="45.55702" lon="-0.94161">
        <ele>3.2</ele>
        <time>2020-03-11T10:35:53Z</time>
      </trkpt>
      <trkpt lat="45.55713" lon="-0.94135">
        <ele>3</ele>
        <time>2020-03-11T10:35:53Z</time>
      </trkpt>
      <trkpt lat="45.55724" lon="-0.9411">
        <ele>3</ele>
        <time>2020-03-11T10:35:53Z</time>
      </trkpt>
      <trkpt lat="45.5573" lon="-0.94082">
        <ele>3</ele>
        <time>2020-03-11T10:35:53Z</time>
      </trkpt>
      <trkpt lat="45.55734" lon="-0.9404">
        <ele>2.7</ele>
        <time>2020-03-11T10:35:53Z</time>
      </trkpt>
      <trkpt lat="45.55735" lon="-0.94002">
        <ele>2.5</ele>
        <time>2020-03-11T10:35:53Z</time>
      </trkpt>
      <trkpt lat="45.55731" lon="-0.93943">
        <ele>2</ele>
        <time>2020-03-11T10:35:53Z</time>
      </trkpt>
      <trkpt lat="45.55727" lon="-0.93909">
        <ele>2.9</ele>
        <time>2020-03-11T10:35:53Z</time>
      </trkpt>
      <trkpt lat="45.55744" lon="-0.93884">
        <ele>3</ele>
        <time>2020-03-11T10:35:53Z</time>
      </trkpt>
      <trkpt lat="45.55765" lon="-0.93879">
        <ele>3</ele>
        <time>2020-03-11T10:35:53Z</time>
      </trkpt>
      <trkpt lat="45.55785" lon="-0.93875">
        <ele>3</ele>
        <time>2020-03-11T10:35:53Z</time>
      </trkpt>
      <trkpt lat="45.55792" lon="-0.93821">
        <ele>3</ele>
        <time>2020-03-11T10:35:53Z</time>
      </trkpt>
      <trkpt lat="45.55787" lon="-0.93782">
        <ele>3</ele>
        <time>2020-03-11T10:35:53Z</time>
      </trkpt>
      <trkpt lat="45.55783" lon="-0.93749">
        <ele>3</ele>
        <time>2020-03-11T10:35:53Z</time>
      </trkpt>
      <trkpt lat="45.55768" lon="-0.93623">
        <ele>3.3</ele>
        <time>2020-03-11T10:35:53Z</time>
      </trkpt>
      <trkpt lat="45.5576" lon="-0.93565">
        <ele>2.8</ele>
        <time>2020-03-11T10:35:53Z</time>
      </trkpt>
      <trkpt lat="45.55757" lon="-0.93539">
        <ele>3</ele>
        <time>2020-03-11T10:35:53Z</time>
      </trkpt>
      <trkpt lat="45.55755" lon="-0.93502">
        <ele>3</ele>
        <time>2020-03-11T10:35:53Z</time>
      </trkpt>
      <trkpt lat="45.55755" lon="-0.93476">
        <ele>3</ele>
        <time>2020-03-11T10:35:53Z</time>
      </trkpt>
      <trkpt lat="45.55756" lon="-0.93435">
        <ele>2.2</ele>
        <time>2020-03-11T10:35:53Z</time>
      </trkpt>
      <trkpt lat="45.55758" lon="-0.93409">
        <ele>2.5</ele>
        <time>2020-03-11T10:35:53Z</time>
      </trkpt>
      <trkpt lat="45.55768" lon="-0.93377">
        <ele>2.8</ele>
        <time>2020-03-11T10:35:53Z</time>
      </trkpt>
      <trkpt lat="45.55779" lon="-0.93343">
        <ele>3</ele>
        <time>2020-03-11T10:35:53Z</time>
      </trkpt>
      <trkpt lat="45.55775" lon="-0.93312">
        <ele>3.6</ele>
        <time>2020-03-11T10:35:53Z</time>
      </trkpt>
      <trkpt lat="45.55762" lon="-0.93283">
        <ele>3.1</ele>
        <time>2020-03-11T10:35:53Z</time>
      </trkpt>
      <trkpt lat="45.55747" lon="-0.93251">
        <ele>3.8</ele>
        <time>2020-03-11T10:35:53Z</time>
      </trkpt>
      <trkpt lat="45.55727" lon="-0.93234">
        <ele>3.2</ele>
        <time>2020-03-11T10:35:53Z</time>
      </trkpt>
      <trkpt lat="45.55702" lon="-0.93198">
        <ele>2.9</ele>
        <time>2020-03-11T10:35:53Z</time>
      </trkpt>
      <trkpt lat="45.55686" lon="-0.93172">
        <ele>2.4</ele>
        <time>2020-03-11T10:35:53Z</time>
      </trkpt>
      <trkpt lat="45.55667" lon="-0.93128">
        <ele>3</ele>
        <time>2020-03-11T10:35:53Z</time>
      </trkpt>
      <trkpt lat="45.5565" lon="-0.93088">
        <ele>2</ele>
        <time>2020-03-11T10:35:53Z</time>
      </trkpt>
      <trkpt lat="45.55638" lon="-0.93059">
        <ele>2.8</ele>
        <time>2020-03-11T10:35:53Z</time>
      </trkpt>
      <trkpt lat="45.5564" lon="-0.9303">
        <ele>3.8</ele>
        <time>2020-03-11T10:35:53Z</time>
      </trkpt>
      <trkpt lat="45.55643" lon="-0.93001">
        <ele>3.7</ele>
        <time>2020-03-11T10:35:53Z</time>
      </trkpt>
      <trkpt lat="45.55635" lon="-0.92975">
        <ele>3.7</ele>
        <time>2020-03-11T10:35:53Z</time>
      </trkpt>
      <trkpt lat="45.5562" lon="-0.92942">
        <ele>3</ele>
        <time>2020-03-11T10:35:53Z</time>
      </trkpt>
      <trkpt lat="45.55611" lon="-0.92918">
        <ele>3</ele>
        <time>2020-03-11T10:35:53Z</time>
      </trkpt>
      <trkpt lat="45.55586" lon="-0.92865">
        <ele>2.9</ele>
        <time>2020-03-11T10:35:53Z</time>
      </trkpt>
      <trkpt lat="45.55567" lon="-0.92829">
        <ele>2.5</ele>
        <time>2020-03-11T10:35:53Z</time>
      </trkpt>
      <trkpt lat="45.55554" lon="-0.92804">
        <ele>2.9</ele>
        <time>2020-03-11T10:35:53Z</time>
      </trkpt>
      <trkpt lat="45.55545" lon="-0.9278">
        <ele>2.6</ele>
        <time>2020-03-11T10:35:53Z</time>
      </trkpt>
      <trkpt lat="45.55538" lon="-0.92755">
        <ele>2.9</ele>
        <time>2020-03-11T10:35:53Z</time>
      </trkpt>
      <trkpt lat="45.55524" lon="-0.92729">
        <ele>2.8</ele>
        <time>2020-03-11T10:35:53Z</time>
      </trkpt>
      <trkpt lat="45.55509" lon="-0.92702">
        <ele>2.8</ele>
        <time>2020-03-11T10:35:53Z</time>
      </trkpt>
      <trkpt lat="45.55489" lon="-0.92672">
        <ele>2.6</ele>
        <time>2020-03-11T10:35:53Z</time>
      </trkpt>
      <trkpt lat="45.5547" lon="-0.92644">
        <ele>2.8</ele>
        <time>2020-03-11T10:35:53Z</time>
      </trkpt>
      <trkpt lat="45.55453" lon="-0.92617">
        <ele>2.9</ele>
        <time>2020-03-11T10:35:53Z</time>
      </trkpt>
      <trkpt lat="45.55392" lon="-0.92534">
        <ele>2.7</ele>
        <time>2020-03-11T10:35:53Z</time>
      </trkpt>
      <trkpt lat="45.55371" lon="-0.92507">
        <ele>2.8</ele>
        <time>2020-03-11T10:35:53Z</time>
      </trkpt>
      <trkpt lat="45.55352" lon="-0.92487">
        <ele>2.8</ele>
        <time>2020-03-11T10:35:53Z</time>
      </trkpt>
      <trkpt lat="45.55331" lon="-0.92464">
        <ele>2.9</ele>
        <time>2020-03-11T10:35:53Z</time>
      </trkpt>
      <trkpt lat="45.55317" lon="-0.92446">
        <ele>3</ele>
        <time>2020-03-11T10:35:53Z</time>
      </trkpt>
      <trkpt lat="45.55296" lon="-0.92425">
        <ele>2.9</ele>
        <time>2020-03-11T10:35:53Z</time>
      </trkpt>
      <trkpt lat="45.55269" lon="-0.924">
        <ele>3.3</ele>
        <time>2020-03-11T10:35:53Z</time>
      </trkpt>
      <trkpt lat="45.55253" lon="-0.92387">
        <ele>3.2</ele>
        <time>2020-03-11T10:35:53Z</time>
      </trkpt>
      <trkpt lat="45.55226" lon="-0.92375">
        <ele>3.9</ele>
        <time>2020-03-11T10:35:53Z</time>
      </trkpt>
      <trkpt lat="45.55199" lon="-0.92372">
        <ele>4.2</ele>
        <time>2020-03-11T10:35:53Z</time>
      </trkpt>
      <trkpt lat="45.55176" lon="-0.92368">
        <ele>4</ele>
        <time>2020-03-11T10:35:53Z</time>
      </trkpt>
      <trkpt lat="45.55157" lon="-0.9236">
        <ele>4</ele>
        <time>2020-03-11T10:35:53Z</time>
      </trkpt>
      <trkpt lat="45.5514" lon="-0.92337">
        <ele>4.9</ele>
        <time>2020-03-11T10:35:53Z</time>
      </trkpt>
      <trkpt lat="45.55128" lon="-0.92304">
        <ele>5</ele>
        <time>2020-03-11T10:35:53Z</time>
      </trkpt>
      <trkpt lat="45.5512" lon="-0.92275">
        <ele>5.3</ele>
        <time>2020-03-11T10:35:53Z</time>
      </trkpt>
      <trkpt lat="45.55118" lon="-0.92243">
        <ele>5.2</ele>
        <time>2020-03-11T10:35:53Z</time>
      </trkpt>
      <trkpt lat="45.55127" lon="-0.92198">
        <ele>5.6</ele>
        <time>2020-03-11T10:35:53Z</time>
      </trkpt>
      <trkpt lat="45.55134" lon="-0.92167">
        <ele>5.7</ele>
        <time>2020-03-11T10:35:53Z</time>
      </trkpt>
      <trkpt lat="45.55215" lon="-0.92082">
        <ele>6.7</ele>
        <time>2020-03-11T10:35:53Z</time>
      </trkpt>
      <trkpt lat="45.55246" lon="-0.92051">
        <ele>7.9</ele>
        <time>2020-03-11T10:35:53Z</time>
      </trkpt>
      <trkpt lat="45.55224" lon="-0.9201">
        <ele>7</ele>
        <time>2020-03-11T10:35:53Z</time>
      </trkpt>
      <trkpt lat="45.55212" lon="-0.91986">
        <ele>5.9</ele>
        <time>2020-03-11T10:35:53Z</time>
      </trkpt>
      <trkpt lat="45.55194" lon="-0.91949">
        <ele>4.1</ele>
        <time>2020-03-11T10:35:53Z</time>
      </trkpt>
      <trkpt lat="45.55178" lon="-0.91921">
        <ele>3.9</ele>
        <time>2020-03-11T10:35:53Z</time>
      </trkpt>
      <trkpt lat="45.55164" lon="-0.91883">
        <ele>3.7</ele>
        <time>2020-03-11T10:35:53Z</time>
      </trkpt>
      <trkpt lat="45.55157" lon="-0.91842">
        <ele>3</ele>
        <time>2020-03-11T10:35:53Z</time>
      </trkpt>
      <trkpt lat="45.55154" lon="-0.91815">
        <ele>3</ele>
        <time>2020-03-11T10:35:53Z</time>
      </trkpt>
      <trkpt lat="45.55136" lon="-0.91827">
        <ele>2.8</ele>
        <time>2020-03-11T10:35:53Z</time>
      </trkpt>
      <trkpt lat="45.55118" lon="-0.91807">
        <ele>2.9</ele>
        <time>2020-03-11T10:35:53Z</time>
      </trkpt>
      <trkpt lat="45.55101" lon="-0.91772">
        <ele>2.4</ele>
        <time>2020-03-11T10:35:53Z</time>
      </trkpt>
      <trkpt lat="45.55086" lon="-0.91743">
        <ele>3</ele>
        <time>2020-03-11T10:35:53Z</time>
      </trkpt>
      <trkpt lat="45.55067" lon="-0.91706">
        <ele>2.5</ele>
        <time>2020-03-11T10:35:53Z</time>
      </trkpt>
      <trkpt lat="45.55052" lon="-0.9168">
        <ele>2.7</ele>
        <time>2020-03-11T10:35:53Z</time>
      </trkpt>
      <trkpt lat="45.55035" lon="-0.91651">
        <ele>2.5</ele>
        <time>2020-03-11T10:35:53Z</time>
      </trkpt>
      <trkpt lat="45.55013" lon="-0.91616">
        <ele>2.4</ele>
        <time>2020-03-11T10:35:53Z</time>
      </trkpt>
      <trkpt lat="45.54995" lon="-0.91588">
        <ele>2.5</ele>
        <time>2020-03-11T10:35:53Z</time>
      </trkpt>
      <trkpt lat="45.54977" lon="-0.91564">
        <ele>2.5</ele>
        <time>2020-03-11T10:35:53Z</time>
      </trkpt>
      <trkpt lat="45.54963" lon="-0.91544">
        <ele>2.6</ele>
        <time>2020-03-11T10:35:53Z</time>
      </trkpt>
      <trkpt lat="45.54945" lon="-0.91522">
        <ele>3</ele>
        <time>2020-03-11T10:35:53Z</time>
      </trkpt>
      <trkpt lat="45.54917" lon="-0.91486">
        <ele>3</ele>
        <time>2020-03-11T10:35:53Z</time>
      </trkpt>
      <trkpt lat="45.54899" lon="-0.91464">
        <ele>3</ele>
        <time>2020-03-11T10:35:53Z</time>
      </trkpt>
      <trkpt lat="45.54875" lon="-0.91436">
        <ele>2.7</ele>
        <time>2020-03-11T10:35:53Z</time>
      </trkpt>
      <trkpt lat="45.54859" lon="-0.91419">
        <ele>2.7</ele>
        <time>2020-03-11T10:35:53Z</time>
      </trkpt>
      <trkpt lat="45.54833" lon="-0.9139">
        <ele>3.8</ele>
        <time>2020-03-11T10:35:53Z</time>
      </trkpt>
      <trkpt lat="45.54805" lon="-0.9136">
        <ele>3.9</ele>
        <time>2020-03-11T10:35:53Z</time>
      </trkpt>
      <trkpt lat="45.54781" lon="-0.91335">
        <ele>2.9</ele>
        <time>2020-03-11T10:35:53Z</time>
      </trkpt>
      <trkpt lat="45.54751" lon="-0.91311">
        <ele>3.4</ele>
        <time>2020-03-11T10:35:53Z</time>
      </trkpt>
      <trkpt lat="45.54723" lon="-0.91286">
        <ele>3.4</ele>
        <time>2020-03-11T10:35:53Z</time>
      </trkpt>
      <trkpt lat="45.54699" lon="-0.91263">
        <ele>2.7</ele>
        <time>2020-03-11T10:35:53Z</time>
      </trkpt>
      <trkpt lat="45.54676" lon="-0.91243">
        <ele>2.5</ele>
        <time>2020-03-11T10:35:53Z</time>
      </trkpt>
      <trkpt lat="45.54633" lon="-0.91209">
        <ele>2.9</ele>
        <time>2020-03-11T10:35:53Z</time>
      </trkpt>
      <trkpt lat="45.54614" lon="-0.91194">
        <ele>3.9</ele>
        <time>2020-03-11T10:35:53Z</time>
      </trkpt>
      <trkpt lat="45.5459" lon="-0.91174">
        <ele>3.2</ele>
        <time>2020-03-11T10:35:53Z</time>
      </trkpt>
      <trkpt lat="45.54569" lon="-0.91157">
        <ele>3.2</ele>
        <time>2020-03-11T10:35:53Z</time>
      </trkpt>
      <trkpt lat="45.54548" lon="-0.91141">
        <ele>3.6</ele>
        <time>2020-03-11T10:35:53Z</time>
      </trkpt>
      <trkpt lat="45.54531" lon="-0.91128">
        <ele>3.4</ele>
        <time>2020-03-11T10:35:53Z</time>
      </trkpt>
      <trkpt lat="45.54515" lon="-0.91107">
        <ele>3.5</ele>
        <time>2020-03-11T10:35:53Z</time>
      </trkpt>
      <trkpt lat="45.54488" lon="-0.91087">
        <ele>3.3</ele>
        <time>2020-03-11T10:35:53Z</time>
      </trkpt>
      <trkpt lat="45.54454" lon="-0.9106">
        <ele>3.4</ele>
        <time>2020-03-11T10:35:53Z</time>
      </trkpt>
      <trkpt lat="45.5443" lon="-0.9104">
        <ele>3</ele>
        <time>2020-03-11T10:35:53Z</time>
      </trkpt>
      <trkpt lat="45.54401" lon="-0.91018">
        <ele>2.8</ele>
        <time>2020-03-11T10:35:53Z</time>
      </trkpt>
      <trkpt lat="45.54381" lon="-0.91002">
        <ele>3.3</ele>
        <time>2020-03-11T10:35:53Z</time>
      </trkpt>
      <trkpt lat="45.54365" lon="-0.90989">
        <ele>2.9</ele>
        <time>2020-03-11T10:35:53Z</time>
      </trkpt>
      <trkpt lat="45.54337" lon="-0.90967">
        <ele>3.1</ele>
        <time>2020-03-11T10:35:53Z</time>
      </trkpt>
      <trkpt lat="45.54307" lon="-0.90943">
        <ele>3</ele>
        <time>2020-03-11T10:35:53Z</time>
      </trkpt>
      <trkpt lat="45.54272" lon="-0.90915">
        <ele>3.4</ele>
        <time>2020-03-11T10:35:53Z</time>
      </trkpt>
      <trkpt lat="45.54254" lon="-0.90901">
        <ele>2.3</ele>
        <time>2020-03-11T10:35:53Z</time>
      </trkpt>
      <trkpt lat="45.54215" lon="-0.9087">
        <ele>2.6</ele>
        <time>2020-03-11T10:35:53Z</time>
      </trkpt>
      <trkpt lat="45.54185" lon="-0.90846">
        <ele>2.7</ele>
        <time>2020-03-11T10:35:53Z</time>
      </trkpt>
      <trkpt lat="45.5416" lon="-0.90826">
        <ele>2.6</ele>
        <time>2020-03-11T10:35:53Z</time>
      </trkpt>
      <trkpt lat="45.54125" lon="-0.90798">
        <ele>2.8</ele>
        <time>2020-03-11T10:35:53Z</time>
      </trkpt>
      <trkpt lat="45.54102" lon="-0.9078">
        <ele>3.2</ele>
        <time>2020-03-11T10:35:53Z</time>
      </trkpt>
      <trkpt lat="45.54074" lon="-0.90758">
        <ele>2.6</ele>
        <time>2020-03-11T10:35:53Z</time>
      </trkpt>
      <trkpt lat="45.5404" lon="-0.90731">
        <ele>3.2</ele>
        <time>2020-03-11T10:35:53Z</time>
      </trkpt>
      <trkpt lat="45.54015" lon="-0.90711">
        <ele>3.5</ele>
        <time>2020-03-11T10:35:53Z</time>
      </trkpt>
      <trkpt lat="45.53999" lon="-0.90698">
        <ele>3.9</ele>
        <time>2020-03-11T10:35:53Z</time>
      </trkpt>
      <trkpt lat="45.53968" lon="-0.90674">
        <ele>3.3</ele>
        <time>2020-03-11T10:35:53Z</time>
      </trkpt>
      <trkpt lat="45.53941" lon="-0.90652">
        <ele>3.5</ele>
        <time>2020-03-11T10:35:53Z</time>
      </trkpt>
      <trkpt lat="45.5392" lon="-0.90635">
        <ele>3.8</ele>
        <time>2020-03-11T10:35:53Z</time>
      </trkpt>
      <trkpt lat="45.53886" lon="-0.90607">
        <ele>3</ele>
        <time>2020-03-11T10:35:53Z</time>
      </trkpt>
      <trkpt lat="45.5387" lon="-0.90594">
        <ele>3</ele>
        <time>2020-03-11T10:35:53Z</time>
      </trkpt>
      <trkpt lat="45.53844" lon="-0.90575">
        <ele>3.2</ele>
        <time>2020-03-11T10:35:53Z</time>
      </trkpt>
      <trkpt lat="45.53824" lon="-0.9056">
        <ele>3.6</ele>
        <time>2020-03-11T10:35:53Z</time>
      </trkpt>
      <trkpt lat="45.53803" lon="-0.9056">
        <ele>3.1</ele>
        <time>2020-03-11T10:35:53Z</time>
      </trkpt>
      <trkpt lat="45.53785" lon="-0.90569">
        <ele>3.4</ele>
        <time>2020-03-11T10:35:53Z</time>
      </trkpt>
      <trkpt lat="45.53751" lon="-0.90586">
        <ele>4</ele>
        <time>2020-03-11T10:35:53Z</time>
      </trkpt>
      <trkpt lat="45.53732" lon="-0.9059">
        <ele>4</ele>
        <time>2020-03-11T10:35:53Z</time>
      </trkpt>
      <trkpt lat="45.53669" lon="-0.90615">
        <ele>3.9</ele>
        <time>2020-03-11T10:35:53Z</time>
      </trkpt>
      <trkpt lat="45.53654" lon="-0.90632">
        <ele>4</ele>
        <time>2020-03-11T10:35:53Z</time>
      </trkpt>
      <trkpt lat="45.53639" lon="-0.9065">
        <ele>3.2</ele>
        <time>2020-03-11T10:35:53Z</time>
      </trkpt>
      <trkpt lat="45.53617" lon="-0.90634">
        <ele>4</ele>
        <time>2020-03-11T10:35:53Z</time>
      </trkpt>
      <trkpt lat="45.53603" lon="-0.90594">
        <ele>3.2</ele>
        <time>2020-03-11T10:35:53Z</time>
      </trkpt>
      <trkpt lat="45.53595" lon="-0.9055">
        <ele>3.9</ele>
        <time>2020-03-11T10:35:53Z</time>
      </trkpt>
      <trkpt lat="45.53588" lon="-0.905">
        <ele>4</ele>
        <time>2020-03-11T10:35:53Z</time>
      </trkpt>
      <trkpt lat="45.53582" lon="-0.90463">
        <ele>4</ele>
        <time>2020-03-11T10:35:53Z</time>
      </trkpt>
      <trkpt lat="45.53574" lon="-0.90422">
        <ele>3.7</ele>
        <time>2020-03-11T10:35:53Z</time>
      </trkpt>
      <trkpt lat="45.53567" lon="-0.90396">
        <ele>3.1</ele>
        <time>2020-03-11T10:35:53Z</time>
      </trkpt>
      <trkpt lat="45.53556" lon="-0.90366">
        <ele>3.8</ele>
        <time>2020-03-11T10:35:53Z</time>
      </trkpt>
      <trkpt lat="45.53544" lon="-0.9034">
        <ele>3.1</ele>
        <time>2020-03-11T10:35:53Z</time>
      </trkpt>
      <trkpt lat="45.53529" lon="-0.90311">
        <ele>3.8</ele>
        <time>2020-03-11T10:35:53Z</time>
      </trkpt>
      <trkpt lat="45.53513" lon="-0.90286">
        <ele>3.4</ele>
        <time>2020-03-11T10:35:53Z</time>
      </trkpt>
      <trkpt lat="45.53494" lon="-0.9026">
        <ele>3.7</ele>
        <time>2020-03-11T10:35:53Z</time>
      </trkpt>
      <trkpt lat="45.53474" lon="-0.90229">
        <ele>3.7</ele>
        <time>2020-03-11T10:35:53Z</time>
      </trkpt>
      <trkpt lat="45.53464" lon="-0.90202">
        <ele>4</ele>
        <time>2020-03-11T10:35:53Z</time>
      </trkpt>
      <trkpt lat="45.53447" lon="-0.90187">
        <ele>4</ele>
        <time>2020-03-11T10:35:53Z</time>
      </trkpt>
      <trkpt lat="45.53419" lon="-0.90188">
        <ele>5.1</ele>
        <time>2020-03-11T10:35:53Z</time>
      </trkpt>
      <trkpt lat="45.53395" lon="-0.90185">
        <ele>6.6</ele>
        <time>2020-03-11T10:35:53Z</time>
      </trkpt>
      <trkpt lat="45.5337" lon="-0.90176">
        <ele>8.4</ele>
        <time>2020-03-11T10:35:53Z</time>
      </trkpt>
      <trkpt lat="45.53354" lon="-0.90188">
        <ele>9.5</ele>
        <time>2020-03-11T10:35:53Z</time>
      </trkpt>
      <trkpt lat="45.53336" lon="-0.90215">
        <ele>9.5</ele>
        <time>2020-03-11T10:35:53Z</time>
      </trkpt>
      <trkpt lat="45.53323" lon="-0.90234">
        <ele>8.5</ele>
        <time>2020-03-11T10:35:53Z</time>
      </trkpt>
      <trkpt lat="45.53307" lon="-0.90252">
        <ele>9.7</ele>
        <time>2020-03-11T10:35:53Z</time>
      </trkpt>
      <trkpt lat="45.53288" lon="-0.90262">
        <ele>10.5</ele>
        <time>2020-03-11T10:35:53Z</time>
      </trkpt>
      <trkpt lat="45.5327" lon="-0.90257">
        <ele>11.3</ele>
        <time>2020-03-11T10:35:53Z</time>
      </trkpt>
      <trkpt lat="45.53247" lon="-0.9028">
        <ele>12.1</ele>
        <time>2020-03-11T10:35:53Z</time>
      </trkpt>
      <trkpt lat="45.53228" lon="-0.90295">
        <ele>12.8</ele>
        <time>2020-03-11T10:35:53Z</time>
      </trkpt>
      <trkpt lat="45.53213" lon="-0.9028">
        <ele>13.6</ele>
        <time>2020-03-11T10:35:53Z</time>
      </trkpt>
      <trkpt lat="45.53193" lon="-0.90248">
        <ele>15</ele>
        <time>2020-03-11T10:35:53Z</time>
      </trkpt>
      <trkpt lat="45.53163" lon="-0.90199">
        <ele>17</ele>
        <time>2020-03-11T10:35:53Z</time>
      </trkpt>
      <trkpt lat="45.53141" lon="-0.90163">
        <ele>18</ele>
        <time>2020-03-11T10:35:53Z</time>
      </trkpt>
      <trkpt lat="45.53128" lon="-0.90144">
        <ele>18.7</ele>
        <time>2020-03-11T10:35:53Z</time>
      </trkpt>
      <trkpt lat="45.53113" lon="-0.90121">
        <ele>19.9</ele>
        <time>2020-03-11T10:35:53Z</time>
      </trkpt>
      <trkpt lat="45.53101" lon="-0.90099">
        <ele>20.7</ele>
        <time>2020-03-11T10:35:53Z</time>
      </trkpt>
      <trkpt lat="45.53084" lon="-0.90064">
        <ele>22</ele>
        <time>2020-03-11T10:35:53Z</time>
      </trkpt>
      <trkpt lat="45.53072" lon="-0.90035">
        <ele>22.5</ele>
        <time>2020-03-11T10:35:53Z</time>
      </trkpt>
      <trkpt lat="45.53053" lon="-0.89984">
        <ele>23.3</ele>
        <time>2020-03-11T10:35:53Z</time>
      </trkpt>
      <trkpt lat="45.53043" lon="-0.8996">
        <ele>23.3</ele>
        <time>2020-03-11T10:35:53Z</time>
      </trkpt>
      <trkpt lat="45.53029" lon="-0.89926">
        <ele>23</ele>
        <time>2020-03-11T10:35:53Z</time>
      </trkpt>
      <trkpt lat="45.53029" lon="-0.89898">
        <ele>22.3</ele>
        <time>2020-03-11T10:35:53Z</time>
      </trkpt>
      <trkpt lat="45.53017" lon="-0.89858">
        <ele>21.4</ele>
        <time>2020-03-11T10:35:53Z</time>
      </trkpt>
      <trkpt lat="45.53004" lon="-0.89823">
        <ele>21.5</ele>
        <time>2020-03-11T10:35:53Z</time>
      </trkpt>
      <trkpt lat="45.52993" lon="-0.89791">
        <ele>21.8</ele>
        <time>2020-03-11T10:35:53Z</time>
      </trkpt>
      <trkpt lat="45.52984" lon="-0.89765">
        <ele>21.8</ele>
        <time>2020-03-11T10:35:53Z</time>
      </trkpt>
      <trkpt lat="45.52972" lon="-0.89732">
        <ele>22</ele>
        <time>2020-03-11T10:35:53Z</time>
      </trkpt>
      <trkpt lat="45.5296" lon="-0.89697">
        <ele>22</ele>
        <time>2020-03-11T10:35:53Z</time>
      </trkpt>
      <trkpt lat="45.52942" lon="-0.89648">
        <ele>21.6</ele>
        <time>2020-03-11T10:35:53Z</time>
      </trkpt>
      <trkpt lat="45.5293" lon="-0.89617">
        <ele>21.5</ele>
        <time>2020-03-11T10:35:53Z</time>
      </trkpt>
      <trkpt lat="45.52934" lon="-0.89587">
        <ele>21.1</ele>
        <time>2020-03-11T10:35:53Z</time>
      </trkpt>
      <trkpt lat="45.52947" lon="-0.89552">
        <ele>20.9</ele>
        <time>2020-03-11T10:35:53Z</time>
      </trkpt>
      <trkpt lat="45.5296" lon="-0.89517">
        <ele>18.7</ele>
        <time>2020-03-11T10:35:53Z</time>
      </trkpt>
      <trkpt lat="45.52971" lon="-0.89485">
        <ele>20.3</ele>
        <time>2020-03-11T10:35:53Z</time>
      </trkpt>
      <trkpt lat="45.52986" lon="-0.89462">
        <ele>17.9</ele>
        <time>2020-03-11T10:35:53Z</time>
      </trkpt>
      <trkpt lat="45.53004" lon="-0.89449">
        <ele>20.7</ele>
        <time>2020-03-11T10:35:53Z</time>
      </trkpt>
      <trkpt lat="45.53027" lon="-0.89433">
        <ele>19.9</ele>
        <time>2020-03-11T10:35:53Z</time>
      </trkpt>
      <trkpt lat="45.53043" lon="-0.89421">
        <ele>19.5</ele>
        <time>2020-03-11T10:35:53Z</time>
      </trkpt>
      <trkpt lat="45.5306" lon="-0.89406">
        <ele>18.7</ele>
        <time>2020-03-11T10:35:53Z</time>
      </trkpt>
      <trkpt lat="45.53081" lon="-0.89381">
        <ele>15.7</ele>
        <time>2020-03-11T10:35:53Z</time>
      </trkpt>
      <trkpt lat="45.53098" lon="-0.89372">
        <ele>14.7</ele>
        <time>2020-03-11T10:35:53Z</time>
      </trkpt>
      <trkpt lat="45.53117" lon="-0.89369">
        <ele>13.6</ele>
        <time>2020-03-11T10:35:53Z</time>
      </trkpt>
      <trkpt lat="45.53134" lon="-0.89357">
        <ele>12.3</ele>
        <time>2020-03-11T10:35:53Z</time>
      </trkpt>
      <trkpt lat="45.53152" lon="-0.89363">
        <ele>11.1</ele>
        <time>2020-03-11T10:35:53Z</time>
      </trkpt>
      <trkpt lat="45.5317" lon="-0.89341">
        <ele>9.9</ele>
        <time>2020-03-11T10:35:53Z</time>
      </trkpt>
      <trkpt lat="45.53173" lon="-0.89311">
        <ele>9.8</ele>
        <time>2020-03-11T10:35:53Z</time>
      </trkpt>
      <trkpt lat="45.53175" lon="-0.89275">
        <ele>10.6</ele>
        <time>2020-03-11T10:35:53Z</time>
      </trkpt>
      <trkpt lat="45.53177" lon="-0.89245">
        <ele>9.6</ele>
        <time>2020-03-11T10:35:53Z</time>
      </trkpt>
      <trkpt lat="45.53181" lon="-0.89199">
        <ele>9</ele>
        <time>2020-03-11T10:35:53Z</time>
      </trkpt>
      <trkpt lat="45.53179" lon="-0.8917">
        <ele>7.7</ele>
        <time>2020-03-11T10:35:53Z</time>
      </trkpt>
      <trkpt lat="45.53172" lon="-0.89141">
        <ele>6.7</ele>
        <time>2020-03-11T10:35:53Z</time>
      </trkpt>
      <trkpt lat="45.53159" lon="-0.89099">
        <ele>5.9</ele>
        <time>2020-03-11T10:35:53Z</time>
      </trkpt>
      <trkpt lat="45.53149" lon="-0.8907">
        <ele>5.7</ele>
        <time>2020-03-11T10:35:53Z</time>
      </trkpt>
      <trkpt lat="45.53133" lon="-0.8905">
        <ele>4.4</ele>
        <time>2020-03-11T10:35:53Z</time>
      </trkpt>
      <trkpt lat="45.53122" lon="-0.89022">
        <ele>3.9</ele>
        <time>2020-03-11T10:35:53Z</time>
      </trkpt>
      <trkpt lat="45.53108" lon="-0.88985">
        <ele>3.8</ele>
        <time>2020-03-11T10:35:53Z</time>
      </trkpt>
      <trkpt lat="45.53093" lon="-0.8894">
        <ele>3.5</ele>
        <time>2020-03-11T10:35:53Z</time>
      </trkpt>
      <trkpt lat="45.53065" lon="-0.88864">
        <ele>3.3</ele>
        <time>2020-03-11T10:35:53Z</time>
      </trkpt>
      <trkpt lat="45.53037" lon="-0.8879">
        <ele>3.4</ele>
        <time>2020-03-11T10:35:53Z</time>
      </trkpt>
      <trkpt lat="45.53026" lon="-0.88765">
        <ele>3.9</ele>
        <time>2020-03-11T10:35:53Z</time>
      </trkpt>
      <trkpt lat="45.5301" lon="-0.88732">
        <ele>3.5</ele>
        <time>2020-03-11T10:35:53Z</time>
      </trkpt>
      <trkpt lat="45.52998" lon="-0.88701">
        <ele>3.9</ele>
        <time>2020-03-11T10:35:53Z</time>
      </trkpt>
      <trkpt lat="45.52992" lon="-0.88675">
        <ele>3.4</ele>
        <time>2020-03-11T10:35:53Z</time>
      </trkpt>
      <trkpt lat="45.52976" lon="-0.88623">
        <ele>3.6</ele>
        <time>2020-03-11T10:35:53Z</time>
      </trkpt>
      <trkpt lat="45.52964" lon="-0.8859">
        <ele>3.1</ele>
        <time>2020-03-11T10:35:53Z</time>
      </trkpt>
      <trkpt lat="45.52941" lon="-0.88533">
        <ele>3.9</ele>
        <time>2020-03-11T10:35:53Z</time>
      </trkpt>
      <trkpt lat="45.52915" lon="-0.8849">
        <ele>3.9</ele>
        <time>2020-03-11T10:35:53Z</time>
      </trkpt>
      <trkpt lat="45.52896" lon="-0.88458">
        <ele>3.6</ele>
        <time>2020-03-11T10:35:53Z</time>
      </trkpt>
      <trkpt lat="45.52887" lon="-0.88432">
        <ele>3.9</ele>
        <time>2020-03-11T10:35:53Z</time>
      </trkpt>
      <trkpt lat="45.52844" lon="-0.88367">
        <ele>3.9</ele>
        <time>2020-03-11T10:35:53Z</time>
      </trkpt>
      <trkpt lat="45.5279" lon="-0.88287">
        <ele>3.6</ele>
        <time>2020-03-11T10:35:53Z</time>
      </trkpt>
      <trkpt lat="45.52757" lon="-0.8824">
        <ele>3.9</ele>
        <time>2020-03-11T10:35:53Z</time>
      </trkpt>
      <trkpt lat="45.52721" lon="-0.8819">
        <ele>4.2</ele>
        <time>2020-03-11T10:35:53Z</time>
      </trkpt>
      <trkpt lat="45.52706" lon="-0.88172">
        <ele>4</ele>
        <time>2020-03-11T10:35:53Z</time>
      </trkpt>
      <trkpt lat="45.52671" lon="-0.88126">
        <ele>4.3</ele>
        <time>2020-03-11T10:35:53Z</time>
      </trkpt>
      <trkpt lat="45.52651" lon="-0.88104">
        <ele>3.9</ele>
        <time>2020-03-11T10:35:53Z</time>
      </trkpt>
      <trkpt lat="45.52637" lon="-0.88085">
        <ele>3.8</ele>
        <time>2020-03-11T10:35:53Z</time>
      </trkpt>
      <trkpt lat="45.52673" lon="-0.88071">
        <ele>8.6</ele>
        <time>2020-03-11T10:35:53Z</time>
      </trkpt>
      <trkpt lat="45.52702" lon="-0.88066">
        <ele>9</ele>
        <time>2020-03-11T10:35:53Z</time>
      </trkpt>
      <trkpt lat="45.52721" lon="-0.88061">
        <ele>9</ele>
        <time>2020-03-11T10:35:53Z</time>
      </trkpt>
      <trkpt lat="45.52712" lon="-0.88025">
        <ele>9.8</ele>
        <time>2020-03-11T10:35:53Z</time>
      </trkpt>
      <trkpt lat="45.52708" lon="-0.87987">
        <ele>11.2</ele>
        <time>2020-03-11T10:35:53Z</time>
      </trkpt>
      <trkpt lat="45.52705" lon="-0.87961">
        <ele>12</ele>
        <time>2020-03-11T10:35:53Z</time>
      </trkpt>
      <trkpt lat="45.52698" lon="-0.87928">
        <ele>13.1</ele>
        <time>2020-03-11T10:35:53Z</time>
      </trkpt>
      <trkpt lat="45.52681" lon="-0.87891">
        <ele>13.9</ele>
        <time>2020-03-11T10:35:53Z</time>
      </trkpt>
      <trkpt lat="45.52666" lon="-0.87866">
        <ele>13.8</ele>
        <time>2020-03-11T10:35:53Z</time>
      </trkpt>
      <trkpt lat="45.52648" lon="-0.87834">
        <ele>12.6</ele>
        <time>2020-03-11T10:35:53Z</time>
      </trkpt>
      <trkpt lat="45.5263" lon="-0.87792">
        <ele>12.5</ele>
        <time>2020-03-11T10:35:53Z</time>
      </trkpt>
      <trkpt lat="45.52614" lon="-0.8776">
        <ele>12.5</ele>
        <time>2020-03-11T10:35:53Z</time>
      </trkpt>
      <trkpt lat="45.52597" lon="-0.87735">
        <ele>12.8</ele>
        <time>2020-03-11T10:35:53Z</time>
      </trkpt>
      <trkpt lat="45.52573" lon="-0.87708">
        <ele>13.3</ele>
        <time>2020-03-11T10:35:53Z</time>
      </trkpt>
      <trkpt lat="45.52557" lon="-0.87689">
        <ele>14.4</ele>
        <time>2020-03-11T10:35:53Z</time>
      </trkpt>
      <trkpt lat="45.52544" lon="-0.87669">
        <ele>15.4</ele>
        <time>2020-03-11T10:35:53Z</time>
      </trkpt>
      <trkpt lat="45.5253" lon="-0.87647">
        <ele>17.1</ele>
        <time>2020-03-11T10:35:53Z</time>
      </trkpt>
      <trkpt lat="45.52505" lon="-0.87607">
        <ele>20</ele>
        <time>2020-03-11T10:35:53Z</time>
      </trkpt>
      <trkpt lat="45.52481" lon="-0.87578">
        <ele>22.7</ele>
        <time>2020-03-11T10:35:53Z</time>
      </trkpt>
      <trkpt lat="45.52465" lon="-0.87558">
        <ele>23.6</ele>
        <time>2020-03-11T10:35:53Z</time>
      </trkpt>
      <trkpt lat="45.52449" lon="-0.87536">
        <ele>25.2</ele>
        <time>2020-03-11T10:35:53Z</time>
      </trkpt>
      <trkpt lat="45.52437" lon="-0.87516">
        <ele>26.1</ele>
        <time>2020-03-11T10:35:53Z</time>
      </trkpt>
      <trkpt lat="45.52424" lon="-0.87493">
        <ele>26.5</ele>
        <time>2020-03-11T10:35:53Z</time>
      </trkpt>
      <trkpt lat="45.52413" lon="-0.87471">
        <ele>27.9</ele>
        <time>2020-03-11T10:35:53Z</time>
      </trkpt>
      <trkpt lat="45.52399" lon="-0.87453">
        <ele>29.7</ele>
        <time>2020-03-11T10:35:53Z</time>
      </trkpt>
      <trkpt lat="45.52379" lon="-0.87437">
        <ele>32.4</ele>
        <time>2020-03-11T10:35:53Z</time>
      </trkpt>
      <trkpt lat="45.52356" lon="-0.87417">
        <ele>34.8</ele>
        <time>2020-03-11T10:35:53Z</time>
      </trkpt>
      <trkpt lat="45.52339" lon="-0.87396">
        <ele>35.1</ele>
        <time>2020-03-11T10:35:53Z</time>
      </trkpt>
      <trkpt lat="45.52324" lon="-0.87375">
        <ele>35.2</ele>
        <time>2020-03-11T10:35:53Z</time>
      </trkpt>
      <trkpt lat="45.52302" lon="-0.87348">
        <ele>35.2</ele>
        <time>2020-03-11T10:35:53Z</time>
      </trkpt>
      <trkpt lat="45.52289" lon="-0.8733">
        <ele>34.9</ele>
        <time>2020-03-11T10:35:53Z</time>
      </trkpt>
      <trkpt lat="45.52275" lon="-0.87311">
        <ele>34.6</ele>
        <time>2020-03-11T10:35:53Z</time>
      </trkpt>
      <trkpt lat="45.52258" lon="-0.87288">
        <ele>34.7</ele>
        <time>2020-03-11T10:35:53Z</time>
      </trkpt>
      <trkpt lat="45.52242" lon="-0.87265">
        <ele>34.1</ele>
        <time>2020-03-11T10:35:53Z</time>
      </trkpt>
      <trkpt lat="45.5223" lon="-0.87245">
        <ele>34.1</ele>
        <time>2020-03-11T10:35:53Z</time>
      </trkpt>
      <trkpt lat="45.52215" lon="-0.87209">
        <ele>34.3</ele>
        <time>2020-03-11T10:35:53Z</time>
      </trkpt>
      <trkpt lat="45.52193" lon="-0.87164">
        <ele>34.7</ele>
        <time>2020-03-11T10:35:53Z</time>
      </trkpt>
      <trkpt lat="45.5216" lon="-0.87109">
        <ele>33.3</ele>
        <time>2020-03-11T10:35:53Z</time>
      </trkpt>
      <trkpt lat="45.52137" lon="-0.87072">
        <ele>32</ele>
        <time>2020-03-11T10:35:53Z</time>
      </trkpt>
      <trkpt lat="45.52111" lon="-0.87038">
        <ele>32.4</ele>
        <time>2020-03-11T10:35:53Z</time>
      </trkpt>
      <trkpt lat="45.521" lon="-0.87017">
        <ele>31.8</ele>
        <time>2020-03-11T10:35:53Z</time>
      </trkpt>
      <trkpt lat="45.52091" lon="-0.86988">
        <ele>30.6</ele>
        <time>2020-03-11T10:35:53Z</time>
      </trkpt>
      <trkpt lat="45.52078" lon="-0.8694">
        <ele>28.1</ele>
        <time>2020-03-11T10:35:53Z</time>
      </trkpt>
      <trkpt lat="45.52066" lon="-0.86891">
        <ele>26.6</ele>
        <time>2020-03-11T10:35:53Z</time>
      </trkpt>
      <trkpt lat="45.52054" lon="-0.86855">
        <ele>25.9</ele>
        <time>2020-03-11T10:35:53Z</time>
      </trkpt>
      <trkpt lat="45.5204" lon="-0.8682">
        <ele>26.1</ele>
        <time>2020-03-11T10:35:53Z</time>
      </trkpt>
      <trkpt lat="45.52033" lon="-0.86793">
        <ele>26.6</ele>
        <time>2020-03-11T10:35:53Z</time>
      </trkpt>
      <trkpt lat="45.5202" lon="-0.86756">
        <ele>27.6</ele>
        <time>2020-03-11T10:35:53Z</time>
      </trkpt>
      <trkpt lat="45.5201" lon="-0.86727">
        <ele>27.5</ele>
        <time>2020-03-11T10:35:53Z</time>
      </trkpt>
      <trkpt lat="45.52001" lon="-0.86704">
        <ele>27.9</ele>
        <time>2020-03-11T10:35:53Z</time>
      </trkpt>
      <trkpt lat="45.51989" lon="-0.86675">
        <ele>27.7</ele>
        <time>2020-03-11T10:35:53Z</time>
      </trkpt>
      <trkpt lat="45.51973" lon="-0.86645">
        <ele>27.2</ele>
        <time>2020-03-11T10:35:53Z</time>
      </trkpt>
      <trkpt lat="45.51951" lon="-0.8659">
        <ele>25</ele>
        <time>2020-03-11T10:35:53Z</time>
      </trkpt>
      <trkpt lat="45.51937" lon="-0.86554">
        <ele>24.2</ele>
        <time>2020-03-11T10:35:53Z</time>
      </trkpt>
      <trkpt lat="45.51916" lon="-0.86513">
        <ele>22.5</ele>
        <time>2020-03-11T10:35:53Z</time>
      </trkpt>
      <trkpt lat="45.519" lon="-0.86487">
        <ele>22.9</ele>
        <time>2020-03-11T10:35:53Z</time>
      </trkpt>
      <trkpt lat="45.51882" lon="-0.86434">
        <ele>22</ele>
        <time>2020-03-11T10:35:53Z</time>
      </trkpt>
      <trkpt lat="45.51859" lon="-0.86373">
        <ele>21.9</ele>
        <time>2020-03-11T10:35:53Z</time>
      </trkpt>
      <trkpt lat="45.51829" lon="-0.86307">
        <ele>21.8</ele>
        <time>2020-03-11T10:35:53Z</time>
      </trkpt>
      <trkpt lat="45.5181" lon="-0.8627">
        <ele>21.4</ele>
        <time>2020-03-11T10:35:53Z</time>
      </trkpt>
      <trkpt lat="45.51797" lon="-0.86243">
        <ele>21.5</ele>
        <time>2020-03-11T10:35:53Z</time>
      </trkpt>
      <trkpt lat="45.51783" lon="-0.86218">
        <ele>21.2</ele>
        <time>2020-03-11T10:35:53Z</time>
      </trkpt>
      <trkpt lat="45.51768" lon="-0.86165">
        <ele>20.3</ele>
        <time>2020-03-11T10:35:53Z</time>
      </trkpt>
      <trkpt lat="45.51764" lon="-0.86138">
        <ele>20</ele>
        <time>2020-03-11T10:35:53Z</time>
      </trkpt>
      <trkpt lat="45.5176" lon="-0.86106">
        <ele>19.7</ele>
        <time>2020-03-11T10:35:53Z</time>
      </trkpt>
      <trkpt lat="45.51752" lon="-0.86063">
        <ele>19.1</ele>
        <time>2020-03-11T10:35:53Z</time>
      </trkpt>
      <trkpt lat="45.51747" lon="-0.86035">
        <ele>18.1</ele>
        <time>2020-03-11T10:35:53Z</time>
      </trkpt>
      <trkpt lat="45.51738" lon="-0.86001">
        <ele>17.2</ele>
        <time>2020-03-11T10:35:53Z</time>
      </trkpt>
      <trkpt lat="45.51722" lon="-0.85946">
        <ele>14</ele>
        <time>2020-03-11T10:35:53Z</time>
      </trkpt>
      <trkpt lat="45.51709" lon="-0.85869">
        <ele>10.3</ele>
        <time>2020-03-11T10:35:53Z</time>
      </trkpt>
      <trkpt lat="45.51706" lon="-0.85839">
        <ele>8.2</ele>
        <time>2020-03-11T10:35:53Z</time>
      </trkpt>
      <trkpt lat="45.517" lon="-0.85793">
        <ele>4.8</ele>
        <time>2020-03-11T10:35:53Z</time>
      </trkpt>
      <trkpt lat="45.51693" lon="-0.85766">
        <ele>4</ele>
        <time>2020-03-11T10:35:53Z</time>
      </trkpt>
      <trkpt lat="45.51678" lon="-0.85725">
        <ele>3</ele>
        <time>2020-03-11T10:35:53Z</time>
      </trkpt>
      <trkpt lat="45.51656" lon="-0.85659">
        <ele>3</ele>
        <time>2020-03-11T10:35:53Z</time>
      </trkpt>
      <trkpt lat="45.51643" lon="-0.85619">
        <ele>3</ele>
        <time>2020-03-11T10:35:53Z</time>
      </trkpt>
      <trkpt lat="45.51633" lon="-0.85591">
        <ele>3.2</ele>
        <time>2020-03-11T10:35:53Z</time>
      </trkpt>
      <trkpt lat="45.51661" lon="-0.85542">
        <ele>3</ele>
        <time>2020-03-11T10:35:53Z</time>
      </trkpt>
      <trkpt lat="45.51679" lon="-0.85523">
        <ele>2.9</ele>
        <time>2020-03-11T10:35:53Z</time>
      </trkpt>
      <trkpt lat="45.51695" lon="-0.85509">
        <ele>3.7</ele>
        <time>2020-03-11T10:35:53Z</time>
      </trkpt>
      <trkpt lat="45.51678" lon="-0.8548">
        <ele>3.2</ele>
        <time>2020-03-11T10:35:53Z</time>
      </trkpt>
      <trkpt lat="45.51655" lon="-0.85464">
        <ele>3.5</ele>
        <time>2020-03-11T10:35:53Z</time>
      </trkpt>
      <trkpt lat="45.51628" lon="-0.8544">
        <ele>3.8</ele>
        <time>2020-03-11T10:35:53Z</time>
      </trkpt>
      <trkpt lat="45.51592" lon="-0.85402">
        <ele>2.7</ele>
        <time>2020-03-11T10:35:53Z</time>
      </trkpt>
      <trkpt lat="45.51577" lon="-0.85381">
        <ele>3</ele>
        <time>2020-03-11T10:35:53Z</time>
      </trkpt>
      <trkpt lat="45.51568" lon="-0.85338">
        <ele>3</ele>
        <time>2020-03-11T10:35:53Z</time>
      </trkpt>
      <trkpt lat="45.51563" lon="-0.85297">
        <ele>3</ele>
        <time>2020-03-11T10:35:53Z</time>
      </trkpt>
      <trkpt lat="45.51562" lon="-0.85263">
        <ele>3</ele>
        <time>2020-03-11T10:35:53Z</time>
      </trkpt>
      <trkpt lat="45.51577" lon="-0.85142">
        <ele>3</ele>
        <time>2020-03-11T10:35:53Z</time>
      </trkpt>
      <trkpt lat="45.51593" lon="-0.85074">
        <ele>3.4</ele>
        <time>2020-03-11T10:35:53Z</time>
      </trkpt>
      <trkpt lat="45.51601" lon="-0.85046">
        <ele>3</ele>
        <time>2020-03-11T10:35:53Z</time>
      </trkpt>
      <trkpt lat="45.51614" lon="-0.85022">
        <ele>3</ele>
        <time>2020-03-11T10:35:53Z</time>
      </trkpt>
      <trkpt lat="45.51631" lon="-0.85001">
        <ele>3</ele>
        <time>2020-03-11T10:35:53Z</time>
      </trkpt>
      <trkpt lat="45.51673" lon="-0.84939">
        <ele>3</ele>
        <time>2020-03-11T10:35:53Z</time>
      </trkpt>
      <trkpt lat="45.51688" lon="-0.84916">
        <ele>3</ele>
        <time>2020-03-11T10:35:53Z</time>
      </trkpt>
      <trkpt lat="45.51702" lon="-0.84892">
        <ele>3</ele>
        <time>2020-03-11T10:35:53Z</time>
      </trkpt>
      <trkpt lat="45.51722" lon="-0.84826">
        <ele>3.3</ele>
        <time>2020-03-11T10:35:53Z</time>
      </trkpt>
      <trkpt lat="45.5173" lon="-0.84799">
        <ele>3.9</ele>
        <time>2020-03-11T10:35:53Z</time>
      </trkpt>
      <trkpt lat="45.51736" lon="-0.84757">
        <ele>4.4</ele>
        <time>2020-03-11T10:35:53Z</time>
      </trkpt>
      <trkpt lat="45.51735" lon="-0.84726">
        <ele>4.2</ele>
        <time>2020-03-11T10:35:53Z</time>
      </trkpt>
      <trkpt lat="45.51728" lon="-0.84688">
        <ele>3.6</ele>
        <time>2020-03-11T10:35:53Z</time>
      </trkpt>
      <trkpt lat="45.5172" lon="-0.84646">
        <ele>3.6</ele>
        <time>2020-03-11T10:35:53Z</time>
      </trkpt>
      <trkpt lat="45.51712" lon="-0.84607">
        <ele>4.4</ele>
        <time>2020-03-11T10:35:53Z</time>
      </trkpt>
      <trkpt lat="45.51704" lon="-0.84575">
        <ele>4.1</ele>
        <time>2020-03-11T10:35:53Z</time>
      </trkpt>
      <trkpt lat="45.51697" lon="-0.84523">
        <ele>3</ele>
        <time>2020-03-11T10:35:53Z</time>
      </trkpt>
      <trkpt lat="45.51691" lon="-0.8448">
        <ele>4.3</ele>
        <time>2020-03-11T10:35:53Z</time>
      </trkpt>
      <trkpt lat="45.51688" lon="-0.84451">
        <ele>5.1</ele>
        <time>2020-03-11T10:35:53Z</time>
      </trkpt>
      <trkpt lat="45.51685" lon="-0.84404">
        <ele>5.7</ele>
        <time>2020-03-11T10:35:53Z</time>
      </trkpt>
      <trkpt lat="45.51686" lon="-0.84358">
        <ele>5.8</ele>
        <time>2020-03-11T10:35:53Z</time>
      </trkpt>
      <trkpt lat="45.51689" lon="-0.8433">
        <ele>5.1</ele>
        <time>2020-03-11T10:35:53Z</time>
      </trkpt>
      <trkpt lat="45.51696" lon="-0.84303">
        <ele>3.2</ele>
        <time>2020-03-11T10:35:53Z</time>
      </trkpt>
      <trkpt lat="45.51717" lon="-0.84281">
        <ele>3.4</ele>
        <time>2020-03-11T10:35:53Z</time>
      </trkpt>
      <trkpt lat="45.51736" lon="-0.84242">
        <ele>3.6</ele>
        <time>2020-03-11T10:35:53Z</time>
      </trkpt>
      <trkpt lat="45.51759" lon="-0.8419">
        <ele>3.2</ele>
        <time>2020-03-11T10:35:53Z</time>
      </trkpt>
      <trkpt lat="45.51772" lon="-0.84167">
        <ele>3.4</ele>
        <time>2020-03-11T10:35:53Z</time>
      </trkpt>
      <trkpt lat="45.51793" lon="-0.84148">
        <ele>3.1</ele>
        <time>2020-03-11T10:35:53Z</time>
      </trkpt>
      <trkpt lat="45.51824" lon="-0.8413">
        <ele>3</ele>
        <time>2020-03-11T10:35:53Z</time>
      </trkpt>
      <trkpt lat="45.51855" lon="-0.84109">
        <ele>3.4</ele>
        <time>2020-03-11T10:35:53Z</time>
      </trkpt>
      <trkpt lat="45.51882" lon="-0.84091">
        <ele>3.2</ele>
        <time>2020-03-11T10:35:53Z</time>
      </trkpt>
      <trkpt lat="45.51904" lon="-0.8408">
        <ele>3.2</ele>
        <time>2020-03-11T10:35:53Z</time>
      </trkpt>
      <trkpt lat="45.51932" lon="-0.84068">
        <ele>3</ele>
        <time>2020-03-11T10:35:53Z</time>
      </trkpt>
      <trkpt lat="45.51963" lon="-0.84049">
        <ele>3.4</ele>
        <time>2020-03-11T10:35:53Z</time>
      </trkpt>
      <trkpt lat="45.51983" lon="-0.84035">
        <ele>3.4</ele>
        <time>2020-03-11T10:35:53Z</time>
      </trkpt>
      <trkpt lat="45.52" lon="-0.84024">
        <ele>3.1</ele>
        <time>2020-03-11T10:35:53Z</time>
      </trkpt>
      <trkpt lat="45.52021" lon="-0.84007">
        <ele>3</ele>
        <time>2020-03-11T10:35:53Z</time>
      </trkpt>
      <trkpt lat="45.5203" lon="-0.83976">
        <ele>2.9</ele>
        <time>2020-03-11T10:35:53Z</time>
      </trkpt>
      <trkpt lat="45.52033" lon="-0.83949">
        <ele>3</ele>
        <time>2020-03-11T10:35:53Z</time>
      </trkpt>
      <trkpt lat="45.52051" lon="-0.83911">
        <ele>2.7</ele>
        <time>2020-03-11T10:35:53Z</time>
      </trkpt>
      <trkpt lat="45.52094" lon="-0.83842">
        <ele>2.7</ele>
        <time>2020-03-11T10:35:53Z</time>
      </trkpt>
      <trkpt lat="45.52123" lon="-0.83803">
        <ele>6.2</ele>
        <time>2020-03-11T10:35:53Z</time>
      </trkpt>
      <trkpt lat="45.52127" lon="-0.83756">
        <ele>8.2</ele>
        <time>2020-03-11T10:35:53Z</time>
      </trkpt>
      <trkpt lat="45.5213" lon="-0.83713">
        <ele>9.5</ele>
        <time>2020-03-11T10:35:53Z</time>
      </trkpt>
      <trkpt lat="45.52136" lon="-0.83674">
        <ele>10.7</ele>
        <time>2020-03-11T10:35:53Z</time>
      </trkpt>
      <trkpt lat="45.52144" lon="-0.8363">
        <ele>13</ele>
        <time>2020-03-11T10:35:53Z</time>
      </trkpt>
      <trkpt lat="45.52151" lon="-0.83591">
        <ele>16.2</ele>
        <time>2020-03-11T10:35:53Z</time>
      </trkpt>
      <trkpt lat="45.52155" lon="-0.83541">
        <ele>20.1</ele>
        <time>2020-03-11T10:35:53Z</time>
      </trkpt>
      <trkpt lat="45.52134" lon="-0.83451">
        <ele>25.2</ele>
        <time>2020-03-11T10:35:53Z</time>
      </trkpt>
      <trkpt lat="45.52124" lon="-0.83416">
        <ele>29.9</ele>
        <time>2020-03-11T10:35:53Z</time>
      </trkpt>
      <trkpt lat="45.5209" lon="-0.83329">
        <ele>38.9</ele>
        <time>2020-03-11T10:35:53Z</time>
      </trkpt>
      <trkpt lat="45.52065" lon="-0.83268">
        <ele>43.5</ele>
        <time>2020-03-11T10:35:53Z</time>
      </trkpt>
      <trkpt lat="45.52045" lon="-0.83212">
        <ele>46</ele>
        <time>2020-03-11T10:35:53Z</time>
      </trkpt>
      <trkpt lat="45.52073" lon="-0.83175">
        <ele>46.9</ele>
        <time>2020-03-11T10:35:53Z</time>
      </trkpt>
      <trkpt lat="45.52112" lon="-0.8315">
        <ele>48.6</ele>
        <time>2020-03-11T10:35:53Z</time>
      </trkpt>
      <trkpt lat="45.52134" lon="-0.83136">
        <ele>49.1</ele>
        <time>2020-03-11T10:35:53Z</time>
      </trkpt>
      <trkpt lat="45.52149" lon="-0.83053">
        <ele>50.7</ele>
        <time>2020-03-11T10:35:53Z</time>
      </trkpt>
      <trkpt lat="45.52146" lon="-0.83">
        <ele>51</ele>
        <time>2020-03-11T10:35:53Z</time>
      </trkpt>
      <trkpt lat="45.52133" lon="-0.82963">
        <ele>51.3</ele>
        <time>2020-03-11T10:35:53Z</time>
      </trkpt>
      <trkpt lat="45.52094" lon="-0.82911">
        <ele>51.5</ele>
        <time>2020-03-11T10:35:53Z</time>
      </trkpt>
      <trkpt lat="45.52067" lon="-0.82884">
        <ele>51.4</ele>
        <time>2020-03-11T10:35:53Z</time>
      </trkpt>
      <trkpt lat="45.52047" lon="-0.8286">
        <ele>51</ele>
        <time>2020-03-11T10:35:53Z</time>
      </trkpt>
      <trkpt lat="45.5203" lon="-0.82825">
        <ele>51.4</ele>
        <time>2020-03-11T10:35:53Z</time>
      </trkpt>
      <trkpt lat="45.52018" lon="-0.82799">
        <ele>51.6</ele>
        <time>2020-03-11T10:35:53Z</time>
      </trkpt>
      <trkpt lat="45.52007" lon="-0.82774">
        <ele>51.4</ele>
        <time>2020-03-11T10:35:53Z</time>
      </trkpt>
      <trkpt lat="45.51995" lon="-0.82728">
        <ele>51.6</ele>
        <time>2020-03-11T10:35:53Z</time>
      </trkpt>
      <trkpt lat="45.51984" lon="-0.82685">
        <ele>50.7</ele>
        <time>2020-03-11T10:35:53Z</time>
      </trkpt>
      <trkpt lat="45.51945" lon="-0.8263">
        <ele>48</ele>
        <time>2020-03-11T10:35:53Z</time>
      </trkpt>
      <trkpt lat="45.51925" lon="-0.82605">
        <ele>46.1</ele>
        <time>2020-03-11T10:35:53Z</time>
      </trkpt>
      <trkpt lat="45.51901" lon="-0.82582">
        <ele>46.1</ele>
        <time>2020-03-11T10:35:53Z</time>
      </trkpt>
      <trkpt lat="45.5188" lon="-0.82594">
        <ele>45.6</ele>
        <time>2020-03-11T10:35:53Z</time>
      </trkpt>
      <trkpt lat="45.51862" lon="-0.82607">
        <ele>45.3</ele>
        <time>2020-03-11T10:35:53Z</time>
      </trkpt>
      <trkpt lat="45.51835" lon="-0.82628">
        <ele>44.7</ele>
        <time>2020-03-11T10:35:53Z</time>
      </trkpt>
      <trkpt lat="45.51794" lon="-0.82654">
        <ele>44.3</ele>
        <time>2020-03-11T10:35:53Z</time>
      </trkpt>
      <trkpt lat="45.51767" lon="-0.82663">
        <ele>44.6</ele>
        <time>2020-03-11T10:35:53Z</time>
      </trkpt>
      <trkpt lat="45.51747" lon="-0.82647">
        <ele>45.7</ele>
        <time>2020-03-11T10:35:53Z</time>
      </trkpt>
      <trkpt lat="45.51714" lon="-0.82639">
        <ele>46</ele>
        <time>2020-03-11T10:35:53Z</time>
      </trkpt>
      <trkpt lat="45.51688" lon="-0.82647">
        <ele>45.2</ele>
        <time>2020-03-11T10:35:53Z</time>
      </trkpt>
      <trkpt lat="45.51655" lon="-0.82674">
        <ele>41.5</ele>
        <time>2020-03-11T10:35:53Z</time>
      </trkpt>
      <trkpt lat="45.51631" lon="-0.82697">
        <ele>39.1</ele>
        <time>2020-03-11T10:35:53Z</time>
      </trkpt>
      <trkpt lat="45.51601" lon="-0.82721">
        <ele>40.5</ele>
        <time>2020-03-11T10:35:53Z</time>
      </trkpt>
      <trkpt lat="45.51581" lon="-0.82736">
        <ele>43.3</ele>
        <time>2020-03-11T10:35:53Z</time>
      </trkpt>
      <trkpt lat="45.51547" lon="-0.82757">
        <ele>46.5</ele>
        <time>2020-03-11T10:35:53Z</time>
      </trkpt>
      <trkpt lat="45.51524" lon="-0.82776">
        <ele>47.3</ele>
        <time>2020-03-11T10:35:53Z</time>
      </trkpt>
      <trkpt lat="45.51505" lon="-0.82794">
        <ele>48.2</ele>
        <time>2020-03-11T10:35:53Z</time>
      </trkpt>
      <trkpt lat="45.5149" lon="-0.8281">
        <ele>47.8</ele>
        <time>2020-03-11T10:35:53Z</time>
      </trkpt>
      <trkpt lat="45.5147" lon="-0.82838">
        <ele>46.6</ele>
        <time>2020-03-11T10:35:53Z</time>
      </trkpt>
      <trkpt lat="45.51447" lon="-0.82866">
        <ele>42.7</ele>
        <time>2020-03-11T10:35:53Z</time>
      </trkpt>
      <trkpt lat="45.51426" lon="-0.82893">
        <ele>37.6</ele>
        <time>2020-03-11T10:35:53Z</time>
      </trkpt>
      <trkpt lat="45.51401" lon="-0.82913">
        <ele>33.3</ele>
        <time>2020-03-11T10:35:53Z</time>
      </trkpt>
      <trkpt lat="45.51379" lon="-0.8293">
        <ele>30</ele>
        <time>2020-03-11T10:35:53Z</time>
      </trkpt>
      <trkpt lat="45.51335" lon="-0.82992">
        <ele>25</ele>
        <time>2020-03-11T10:35:53Z</time>
      </trkpt>
      <trkpt lat="45.51314" lon="-0.83022">
        <ele>24</ele>
        <time>2020-03-11T10:35:53Z</time>
      </trkpt>
      <trkpt lat="45.51286" lon="-0.83063">
        <ele>25.1</ele>
        <time>2020-03-11T10:35:53Z</time>
      </trkpt>
      <trkpt lat="45.5127" lon="-0.83086">
        <ele>26.9</ele>
        <time>2020-03-11T10:35:53Z</time>
      </trkpt>
      <trkpt lat="45.51244" lon="-0.83115">
        <ele>31.9</ele>
        <time>2020-03-11T10:35:53Z</time>
      </trkpt>
      <trkpt lat="45.51224" lon="-0.83134">
        <ele>34.7</ele>
        <time>2020-03-11T10:35:53Z</time>
      </trkpt>
      <trkpt lat="45.51209" lon="-0.83153">
        <ele>37.2</ele>
        <time>2020-03-11T10:35:53Z</time>
      </trkpt>
      <trkpt lat="45.51166" lon="-0.832">
        <ele>42</ele>
        <time>2020-03-11T10:35:53Z</time>
      </trkpt>
      <trkpt lat="45.51142" lon="-0.83228">
        <ele>43.6</ele>
        <time>2020-03-11T10:35:53Z</time>
      </trkpt>
      <trkpt lat="45.51118" lon="-0.83255">
        <ele>43.7</ele>
        <time>2020-03-11T10:35:53Z</time>
      </trkpt>
      <trkpt lat="45.51095" lon="-0.83284">
        <ele>44.4</ele>
        <time>2020-03-11T10:35:53Z</time>
      </trkpt>
      <trkpt lat="45.51075" lon="-0.83254">
        <ele>46.2</ele>
        <time>2020-03-11T10:35:53Z</time>
      </trkpt>
      <trkpt lat="45.5106" lon="-0.8323">
        <ele>46.8</ele>
        <time>2020-03-11T10:35:53Z</time>
      </trkpt>
      <trkpt lat="45.51038" lon="-0.83218">
        <ele>47.7</ele>
        <time>2020-03-11T10:35:53Z</time>
      </trkpt>
      <trkpt lat="45.51015" lon="-0.83209">
        <ele>48</ele>
        <time>2020-03-11T10:35:53Z</time>
      </trkpt>
      <trkpt lat="45.50951" lon="-0.83138">
        <ele>47.2</ele>
        <time>2020-03-11T10:35:53Z</time>
      </trkpt>
      <trkpt lat="45.50927" lon="-0.8311">
        <ele>46.4</ele>
        <time>2020-03-11T10:35:53Z</time>
      </trkpt>
      <trkpt lat="45.50907" lon="-0.83077">
        <ele>45.7</ele>
        <time>2020-03-11T10:35:53Z</time>
      </trkpt>
      <trkpt lat="45.50895" lon="-0.83046">
        <ele>45.7</ele>
        <time>2020-03-11T10:35:53Z</time>
      </trkpt>
      <trkpt lat="45.50867" lon="-0.83062">
        <ele>44.4</ele>
        <time>2020-03-11T10:35:53Z</time>
      </trkpt>
      <trkpt lat="45.50819" lon="-0.8309">
        <ele>41.8</ele>
        <time>2020-03-11T10:35:53Z</time>
      </trkpt>
      <trkpt lat="45.50756" lon="-0.83126">
        <ele>35.7</ele>
        <time>2020-03-11T10:35:53Z</time>
      </trkpt>
      <trkpt lat="45.50706" lon="-0.83149">
        <ele>29.9</ele>
        <time>2020-03-11T10:35:53Z</time>
      </trkpt>
      <trkpt lat="45.50653" lon="-0.83176">
        <ele>26</ele>
        <time>2020-03-11T10:35:53Z</time>
      </trkpt>
      <trkpt lat="45.50599" lon="-0.83211">
        <ele>18.7</ele>
        <time>2020-03-11T10:35:53Z</time>
      </trkpt>
      <trkpt lat="45.50538" lon="-0.8325">
        <ele>10.4</ele>
        <time>2020-03-11T10:35:53Z</time>
      </trkpt>
      <trkpt lat="45.50497" lon="-0.83278">
        <ele>7.9</ele>
        <time>2020-03-11T10:35:53Z</time>
      </trkpt>
      <trkpt lat="45.50474" lon="-0.83289">
        <ele>6.6</ele>
        <time>2020-03-11T10:35:53Z</time>
      </trkpt>
      <trkpt lat="45.50444" lon="-0.8329">
        <ele>4.6</ele>
        <time>2020-03-11T10:35:53Z</time>
      </trkpt>
      <trkpt lat="45.50417" lon="-0.8329">
        <ele>4</ele>
        <time>2020-03-11T10:35:53Z</time>
      </trkpt>
      <trkpt lat="45.5044" lon="-0.83245">
        <ele>3.7</ele>
        <time>2020-03-11T10:35:53Z</time>
      </trkpt>
      <trkpt lat="45.50534" lon="-0.83146">
        <ele>5</ele>
        <time>2020-03-11T10:35:53Z</time>
      </trkpt>
      <trkpt lat="45.50565" lon="-0.83086">
        <ele>4.2</ele>
        <time>2020-03-11T10:35:53Z</time>
      </trkpt>
      <trkpt lat="45.50585" lon="-0.83049">
        <ele>4</ele>
        <time>2020-03-11T10:35:53Z</time>
      </trkpt>
      <trkpt lat="45.50604" lon="-0.82985">
        <ele>3.7</ele>
        <time>2020-03-11T10:35:53Z</time>
      </trkpt>
      <trkpt lat="45.50615" lon="-0.82949">
        <ele>3.4</ele>
        <time>2020-03-11T10:35:53Z</time>
      </trkpt>
      <trkpt lat="45.50625" lon="-0.82918">
        <ele>3.5</ele>
        <time>2020-03-11T10:35:53Z</time>
      </trkpt>
      <trkpt lat="45.50515" lon="-0.82738">
        <ele>3</ele>
        <time>2020-03-11T10:35:53Z</time>
      </trkpt>
      <trkpt lat="45.50512" lon="-0.82707">
        <ele>3</ele>
        <time>2020-03-11T10:35:53Z</time>
      </trkpt>
      <trkpt lat="45.50584" lon="-0.82465">
        <ele>3</ele>
        <time>2020-03-11T10:35:53Z</time>
      </trkpt>
      <trkpt lat="45.50586" lon="-0.82439">
        <ele>3.3</ele>
        <time>2020-03-11T10:35:53Z</time>
      </trkpt>
      <trkpt lat="45.50576" lon="-0.82412">
        <ele>3.9</ele>
        <time>2020-03-11T10:35:53Z</time>
      </trkpt>
      <trkpt lat="45.50564" lon="-0.82371">
        <ele>3.8</ele>
        <time>2020-03-11T10:35:53Z</time>
      </trkpt>
      <trkpt lat="45.50553" lon="-0.82325">
        <ele>3.9</ele>
        <time>2020-03-11T10:35:53Z</time>
      </trkpt>
      <trkpt lat="45.50545" lon="-0.82278">
        <ele>3.6</ele>
        <time>2020-03-11T10:35:53Z</time>
      </trkpt>
      <trkpt lat="45.50542" lon="-0.82234">
        <ele>3.8</ele>
        <time>2020-03-11T10:35:53Z</time>
      </trkpt>
      <trkpt lat="45.5054" lon="-0.82134">
        <ele>3.9</ele>
        <time>2020-03-11T10:35:53Z</time>
      </trkpt>
      <trkpt lat="45.50541" lon="-0.82018">
        <ele>4.4</ele>
        <time>2020-03-11T10:35:53Z</time>
      </trkpt>
      <trkpt lat="45.50552" lon="-0.81821">
        <ele>4.7</ele>
        <time>2020-03-11T10:35:53Z</time>
      </trkpt>
      <trkpt lat="45.50552" lon="-0.81767">
        <ele>5.6</ele>
        <time>2020-03-11T10:35:53Z</time>
      </trkpt>
      <trkpt lat="45.50548" lon="-0.81694">
        <ele>5.5</ele>
        <time>2020-03-11T10:35:53Z</time>
      </trkpt>
      <trkpt lat="45.50548" lon="-0.81654">
        <ele>5.2</ele>
        <time>2020-03-11T10:35:53Z</time>
      </trkpt>
      <trkpt lat="45.50549" lon="-0.81622">
        <ele>5.3</ele>
        <time>2020-03-11T10:35:53Z</time>
      </trkpt>
      <trkpt lat="45.50555" lon="-0.8157">
        <ele>5</ele>
        <time>2020-03-11T10:35:53Z</time>
      </trkpt>
      <trkpt lat="45.50567" lon="-0.8145">
        <ele>7.2</ele>
        <time>2020-03-11T10:35:53Z</time>
      </trkpt>
      <trkpt lat="45.50576" lon="-0.81377">
        <ele>7.2</ele>
        <time>2020-03-11T10:35:53Z</time>
      </trkpt>
      <trkpt lat="45.50581" lon="-0.81315">
        <ele>6.7</ele>
        <time>2020-03-11T10:35:53Z</time>
      </trkpt>
      <trkpt lat="45.50585" lon="-0.81277">
        <ele>7.1</ele>
        <time>2020-03-11T10:35:53Z</time>
      </trkpt>
      <trkpt lat="45.50587" lon="-0.81224">
        <ele>6.3</ele>
        <time>2020-03-11T10:35:53Z</time>
      </trkpt>
      <trkpt lat="45.50585" lon="-0.81191">
        <ele>6.9</ele>
        <time>2020-03-11T10:35:53Z</time>
      </trkpt>
      <trkpt lat="45.50589" lon="-0.81128">
        <ele>6</ele>
        <time>2020-03-11T10:35:53Z</time>
      </trkpt>
      <trkpt lat="45.50599" lon="-0.81058">
        <ele>6.1</ele>
        <time>2020-03-11T10:35:53Z</time>
      </trkpt>
      <trkpt lat="45.50544" lon="-0.81043">
        <ele>5.2</ele>
        <time>2020-03-11T10:35:53Z</time>
      </trkpt>
      <trkpt lat="45.50525" lon="-0.81038">
        <ele>5.7</ele>
        <time>2020-03-11T10:35:53Z</time>
      </trkpt>
      <trkpt lat="45.50506" lon="-0.81043">
        <ele>6.2</ele>
        <time>2020-03-11T10:35:53Z</time>
      </trkpt>
      <trkpt lat="45.50475" lon="-0.81103">
        <ele>5.3</ele>
        <time>2020-03-11T10:35:53Z</time>
      </trkpt>
      <trkpt lat="45.50441" lon="-0.81169">
        <ele>6.1</ele>
        <time>2020-03-11T10:35:53Z</time>
      </trkpt>
      <trkpt lat="45.50424" lon="-0.81215">
        <ele>5.5</ele>
        <time>2020-03-11T10:35:53Z</time>
      </trkpt>
      <trkpt lat="45.504" lon="-0.81249">
        <ele>5</ele>
        <time>2020-03-11T10:35:53Z</time>
      </trkpt>
      <trkpt lat="45.50374" lon="-0.81278">
        <ele>5.1</ele>
        <time>2020-03-11T10:35:53Z</time>
      </trkpt>
      <trkpt lat="45.50354" lon="-0.8131">
        <ele>5.1</ele>
        <time>2020-03-11T10:35:53Z</time>
      </trkpt>
      <trkpt lat="45.50338" lon="-0.81332">
        <ele>4.9</ele>
        <time>2020-03-11T10:35:53Z</time>
      </trkpt>
      <trkpt lat="45.50316" lon="-0.81348">
        <ele>5.4</ele>
        <time>2020-03-11T10:35:53Z</time>
      </trkpt>
      <trkpt lat="45.50298" lon="-0.81373">
        <ele>5.4</ele>
        <time>2020-03-11T10:35:53Z</time>
      </trkpt>
      <trkpt lat="45.50282" lon="-0.81414">
        <ele>4.9</ele>
        <time>2020-03-11T10:35:53Z</time>
      </trkpt>
      <trkpt lat="45.50263" lon="-0.81463">
        <ele>4.7</ele>
        <time>2020-03-11T10:35:53Z</time>
      </trkpt>
      <trkpt lat="45.5024" lon="-0.81513">
        <ele>5.7</ele>
        <time>2020-03-11T10:35:53Z</time>
      </trkpt>
      <trkpt lat="45.50209" lon="-0.81587">
        <ele>9.1</ele>
        <time>2020-03-11T10:35:53Z</time>
      </trkpt>
      <trkpt lat="45.50196" lon="-0.81618">
        <ele>11.1</ele>
        <time>2020-03-11T10:35:53Z</time>
      </trkpt>
      <trkpt lat="45.50177" lon="-0.81664">
        <ele>14.5</ele>
        <time>2020-03-11T10:35:53Z</time>
      </trkpt>
      <trkpt lat="45.50166" lon="-0.81692">
        <ele>15.1</ele>
        <time>2020-03-11T10:35:53Z</time>
      </trkpt>
      <trkpt lat="45.5015" lon="-0.81724">
        <ele>18.2</ele>
        <time>2020-03-11T10:35:53Z</time>
      </trkpt>
      <trkpt lat="45.50133" lon="-0.81752">
        <ele>19.4</ele>
        <time>2020-03-11T10:35:53Z</time>
      </trkpt>
      <trkpt lat="45.50115" lon="-0.81778">
        <ele>19.9</ele>
        <time>2020-03-11T10:35:53Z</time>
      </trkpt>
      <trkpt lat="45.50084" lon="-0.81817">
        <ele>21.1</ele>
        <time>2020-03-11T10:35:53Z</time>
      </trkpt>
      <trkpt lat="45.50052" lon="-0.81857">
        <ele>22.9</ele>
        <time>2020-03-11T10:35:53Z</time>
      </trkpt>
      <trkpt lat="45.50015" lon="-0.81925">
        <ele>27.2</ele>
        <time>2020-03-11T10:35:53Z</time>
      </trkpt>
      <trkpt lat="45.4999" lon="-0.81963">
        <ele>28.9</ele>
        <time>2020-03-11T10:35:53Z</time>
      </trkpt>
      <trkpt lat="45.49964" lon="-0.81977">
        <ele>29.8</ele>
        <time>2020-03-11T10:35:53Z</time>
      </trkpt>
      <trkpt lat="45.49944" lon="-0.81986">
        <ele>31</ele>
        <time>2020-03-11T10:35:53Z</time>
      </trkpt>
      <trkpt lat="45.49936" lon="-0.81943">
        <ele>32</ele>
        <time>2020-03-11T10:35:53Z</time>
      </trkpt>
      <trkpt lat="45.49926" lon="-0.81921">
        <ele>32.6</ele>
        <time>2020-03-11T10:35:53Z</time>
      </trkpt>
      <trkpt lat="45.49891" lon="-0.81868">
        <ele>34</ele>
        <time>2020-03-11T10:35:53Z</time>
      </trkpt>
      <trkpt lat="45.49868" lon="-0.8183">
        <ele>35.1</ele>
        <time>2020-03-11T10:35:53Z</time>
      </trkpt>
      <trkpt lat="45.49854" lon="-0.81807">
        <ele>35.9</ele>
        <time>2020-03-11T10:35:53Z</time>
      </trkpt>
      <trkpt lat="45.49828" lon="-0.81785">
        <ele>36.9</ele>
        <time>2020-03-11T10:35:53Z</time>
      </trkpt>
      <trkpt lat="45.49793" lon="-0.81762">
        <ele>38.3</ele>
        <time>2020-03-11T10:35:53Z</time>
      </trkpt>
      <trkpt lat="45.49761" lon="-0.81739">
        <ele>39.3</ele>
        <time>2020-03-11T10:35:53Z</time>
      </trkpt>
      <trkpt lat="45.49741" lon="-0.81703">
        <ele>40.8</ele>
        <time>2020-03-11T10:35:53Z</time>
      </trkpt>
      <trkpt lat="45.49732" lon="-0.81666">
        <ele>42</ele>
        <time>2020-03-11T10:35:53Z</time>
      </trkpt>
      <trkpt lat="45.49721" lon="-0.81626">
        <ele>43</ele>
        <time>2020-03-11T10:35:53Z</time>
      </trkpt>
      <trkpt lat="45.49697" lon="-0.81594">
        <ele>44.6</ele>
        <time>2020-03-11T10:35:53Z</time>
      </trkpt>
      <trkpt lat="45.49731" lon="-0.81561">
        <ele>45</ele>
        <time>2020-03-11T10:35:53Z</time>
      </trkpt>
      <trkpt lat="45.49708" lon="-0.81518">
        <ele>45.8</ele>
        <time>2020-03-11T10:35:53Z</time>
      </trkpt>
      <trkpt lat="45.49741" lon="-0.8149">
        <ele>44.3</ele>
        <time>2020-03-11T10:35:53Z</time>
      </trkpt>
      <trkpt lat="45.49747" lon="-0.81452">
        <ele>44.1</ele>
        <time>2020-03-11T10:35:53Z</time>
      </trkpt>
      <trkpt lat="45.49736" lon="-0.81407">
        <ele>44.3</ele>
        <time>2020-03-11T10:35:53Z</time>
      </trkpt>
      <trkpt lat="45.49717" lon="-0.81357">
        <ele>44.2</ele>
        <time>2020-03-11T10:35:53Z</time>
      </trkpt>
      <trkpt lat="45.49701" lon="-0.8132">
        <ele>44.4</ele>
        <time>2020-03-11T10:35:53Z</time>
      </trkpt>
      <trkpt lat="45.49688" lon="-0.81283">
        <ele>44</ele>
        <time>2020-03-11T10:35:53Z</time>
      </trkpt>
      <trkpt lat="45.49677" lon="-0.81259">
        <ele>44.2</ele>
        <time>2020-03-11T10:35:53Z</time>
      </trkpt>
      <trkpt lat="45.49655" lon="-0.81217">
        <ele>44.6</ele>
        <time>2020-03-11T10:35:53Z</time>
      </trkpt>
      <trkpt lat="45.49635" lon="-0.81201">
        <ele>44.7</ele>
        <time>2020-03-11T10:35:53Z</time>
      </trkpt>
      <trkpt lat="45.49618" lon="-0.81192">
        <ele>45.4</ele>
        <time>2020-03-11T10:35:53Z</time>
      </trkpt>
      <trkpt lat="45.49594" lon="-0.81177">
        <ele>46.6</ele>
        <time>2020-03-11T10:35:53Z</time>
      </trkpt>
      <trkpt lat="45.49576" lon="-0.81155">
        <ele>47.1</ele>
        <time>2020-03-11T10:35:53Z</time>
      </trkpt>
      <trkpt lat="45.49548" lon="-0.81115">
        <ele>47.6</ele>
        <time>2020-03-11T10:35:53Z</time>
      </trkpt>
      <trkpt lat="45.4949" lon="-0.81171">
        <ele>49.9</ele>
        <time>2020-03-11T10:35:53Z</time>
      </trkpt>
      <trkpt lat="45.49478" lon="-0.81136">
        <ele>50</ele>
        <time>2020-03-11T10:35:53Z</time>
      </trkpt>
      <trkpt lat="45.49471" lon="-0.81103">
        <ele>49.7</ele>
        <time>2020-03-11T10:35:53Z</time>
      </trkpt>
      <trkpt lat="45.49467" lon="-0.81067">
        <ele>49.1</ele>
        <time>2020-03-11T10:35:53Z</time>
      </trkpt>
      <trkpt lat="45.49465" lon="-0.81027">
        <ele>49</ele>
        <time>2020-03-11T10:35:53Z</time>
      </trkpt>
      <trkpt lat="45.4947" lon="-0.81002">
        <ele>47.2</ele>
        <time>2020-03-11T10:35:53Z</time>
      </trkpt>
      <trkpt lat="45.49481" lon="-0.80978">
        <ele>45.9</ele>
        <time>2020-03-11T10:35:53Z</time>
      </trkpt>
      <trkpt lat="45.49494" lon="-0.80952">
        <ele>44.5</ele>
        <time>2020-03-11T10:35:53Z</time>
      </trkpt>
      <trkpt lat="45.49496" lon="-0.80924">
        <ele>43.5</ele>
        <time>2020-03-11T10:35:53Z</time>
      </trkpt>
      <trkpt lat="45.4949" lon="-0.80897">
        <ele>43</ele>
        <time>2020-03-11T10:35:53Z</time>
      </trkpt>
      <trkpt lat="45.4948" lon="-0.80855">
        <ele>42.2</ele>
        <time>2020-03-11T10:35:53Z</time>
      </trkpt>
      <trkpt lat="45.49477" lon="-0.80827">
        <ele>41.7</ele>
        <time>2020-03-11T10:35:53Z</time>
      </trkpt>
      <trkpt lat="45.49478" lon="-0.80791">
        <ele>41.7</ele>
        <time>2020-03-11T10:35:53Z</time>
      </trkpt>
      <trkpt lat="45.49468" lon="-0.80756">
        <ele>42.5</ele>
        <time>2020-03-11T10:35:53Z</time>
      </trkpt>
      <trkpt lat="45.49465" lon="-0.80727">
        <ele>42.6</ele>
        <time>2020-03-11T10:35:53Z</time>
      </trkpt>
      <trkpt lat="45.49458" lon="-0.80696">
        <ele>44.4</ele>
        <time>2020-03-11T10:35:53Z</time>
      </trkpt>
      <trkpt lat="45.49424" lon="-0.8066">
        <ele>46.5</ele>
        <time>2020-03-11T10:35:53Z</time>
      </trkpt>
      <trkpt lat="45.49407" lon="-0.80645">
        <ele>47</ele>
        <time>2020-03-11T10:35:53Z</time>
      </trkpt>
      <trkpt lat="45.49377" lon="-0.80613">
        <ele>48.4</ele>
        <time>2020-03-11T10:35:53Z</time>
      </trkpt>
      <trkpt lat="45.49353" lon="-0.8058">
        <ele>48.4</ele>
        <time>2020-03-11T10:35:53Z</time>
      </trkpt>
      <trkpt lat="45.49338" lon="-0.80557">
        <ele>49</ele>
        <time>2020-03-11T10:35:53Z</time>
      </trkpt>
      <trkpt lat="45.49312" lon="-0.80522">
        <ele>48</ele>
        <time>2020-03-11T10:35:53Z</time>
      </trkpt>
      <trkpt lat="45.4929" lon="-0.80491">
        <ele>45.9</ele>
        <time>2020-03-11T10:35:53Z</time>
      </trkpt>
      <trkpt lat="45.49272" lon="-0.80465">
        <ele>42.6</ele>
        <time>2020-03-11T10:35:53Z</time>
      </trkpt>
      <trkpt lat="45.49236" lon="-0.8042">
        <ele>33.1</ele>
        <time>2020-03-11T10:35:53Z</time>
      </trkpt>
      <trkpt lat="45.49196" lon="-0.8037">
        <ele>19.1</ele>
        <time>2020-03-11T10:35:53Z</time>
      </trkpt>
      <trkpt lat="45.49181" lon="-0.8034">
        <ele>16.1</ele>
        <time>2020-03-11T10:35:53Z</time>
      </trkpt>
      <trkpt lat="45.49177" lon="-0.80299">
        <ele>13.2</ele>
        <time>2020-03-11T10:35:53Z</time>
      </trkpt>
      <trkpt lat="45.49153" lon="-0.803">
        <ele>6.7</ele>
        <time>2020-03-11T10:35:53Z</time>
      </trkpt>
      <trkpt lat="45.49129" lon="-0.80328">
        <ele>5.5</ele>
        <time>2020-03-11T10:35:53Z</time>
      </trkpt>
      <trkpt lat="45.4911" lon="-0.80352">
        <ele>6.3</ele>
        <time>2020-03-11T10:35:53Z</time>
      </trkpt>
      <trkpt lat="45.49086" lon="-0.80375">
        <ele>6.8</ele>
        <time>2020-03-11T10:35:53Z</time>
      </trkpt>
      <trkpt lat="45.49069" lon="-0.80398">
        <ele>6.9</ele>
        <time>2020-03-11T10:35:53Z</time>
      </trkpt>
      <trkpt lat="45.4904" lon="-0.80428">
        <ele>6.5</ele>
        <time>2020-03-11T10:35:53Z</time>
      </trkpt>
      <trkpt lat="45.49017" lon="-0.8045">
        <ele>6.4</ele>
        <time>2020-03-11T10:35:53Z</time>
      </trkpt>
      <trkpt lat="45.48991" lon="-0.80479">
        <ele>6.2</ele>
        <time>2020-03-11T10:35:53Z</time>
      </trkpt>
      <trkpt lat="45.48965" lon="-0.80506">
        <ele>6.6</ele>
        <time>2020-03-11T10:35:53Z</time>
      </trkpt>
      <trkpt lat="45.48939" lon="-0.8053">
        <ele>5.9</ele>
        <time>2020-03-11T10:35:53Z</time>
      </trkpt>
      <trkpt lat="45.48907" lon="-0.80558">
        <ele>5.7</ele>
        <time>2020-03-11T10:35:53Z</time>
      </trkpt>
      <trkpt lat="45.48874" lon="-0.80588">
        <ele>6.1</ele>
        <time>2020-03-11T10:35:53Z</time>
      </trkpt>
      <trkpt lat="45.48848" lon="-0.80614">
        <ele>5.9</ele>
        <time>2020-03-11T10:35:53Z</time>
      </trkpt>
      <trkpt lat="45.48817" lon="-0.80643">
        <ele>6.6</ele>
        <time>2020-03-11T10:35:53Z</time>
      </trkpt>
      <trkpt lat="45.48801" lon="-0.80623">
        <ele>4.7</ele>
        <time>2020-03-11T10:35:53Z</time>
      </trkpt>
      <trkpt lat="45.48778" lon="-0.80622">
        <ele>4</ele>
        <time>2020-03-11T10:35:53Z</time>
      </trkpt>
      <trkpt lat="45.4875" lon="-0.8064">
        <ele>4</ele>
        <time>2020-03-11T10:35:53Z</time>
      </trkpt>
      <trkpt lat="45.48731" lon="-0.80652">
        <ele>3.2</ele>
        <time>2020-03-11T10:35:53Z</time>
      </trkpt>
      <trkpt lat="45.4871" lon="-0.80656">
        <ele>3</ele>
        <time>2020-03-11T10:35:53Z</time>
      </trkpt>
      <trkpt lat="45.48679" lon="-0.80642">
        <ele>3</ele>
        <time>2020-03-11T10:35:53Z</time>
      </trkpt>
      <trkpt lat="45.48642" lon="-0.8064">
        <ele>3</ele>
        <time>2020-03-11T10:35:53Z</time>
      </trkpt>
      <trkpt lat="45.48624" lon="-0.80639">
        <ele>3</ele>
        <time>2020-03-11T10:35:53Z</time>
      </trkpt>
      <trkpt lat="45.48602" lon="-0.80622">
        <ele>3</ele>
        <time>2020-03-11T10:35:53Z</time>
      </trkpt>
      <trkpt lat="45.48574" lon="-0.806">
        <ele>3</ele>
        <time>2020-03-11T10:35:53Z</time>
      </trkpt>
      <trkpt lat="45.48504" lon="-0.8052">
        <ele>3</ele>
        <time>2020-03-11T10:35:53Z</time>
      </trkpt>
      <trkpt lat="45.48434" lon="-0.80456">
        <ele>3</ele>
        <time>2020-03-11T10:35:53Z</time>
      </trkpt>
      <trkpt lat="45.48423" lon="-0.80427">
        <ele>3</ele>
        <time>2020-03-11T10:35:53Z</time>
      </trkpt>
      <trkpt lat="45.48285" lon="-0.80187">
        <ele>3</ele>
        <time>2020-03-11T10:35:53Z</time>
      </trkpt>
      <trkpt lat="45.48151" lon="-0.79895">
        <ele>3</ele>
        <time>2020-03-11T10:35:53Z</time>
      </trkpt>
      <trkpt lat="45.48103" lon="-0.79796">
        <ele>3</ele>
        <time>2020-03-11T10:35:53Z</time>
      </trkpt>
      <trkpt lat="45.48053" lon="-0.79728">
        <ele>3</ele>
        <time>2020-03-11T10:35:53Z</time>
      </trkpt>
      <trkpt lat="45.47919" lon="-0.79561">
        <ele>3</ele>
        <time>2020-03-11T10:35:53Z</time>
      </trkpt>
      <trkpt lat="45.47875" lon="-0.79503">
        <ele>3</ele>
        <time>2020-03-11T10:35:53Z</time>
      </trkpt>
      <trkpt lat="45.47852" lon="-0.79459">
        <ele>3</ele>
        <time>2020-03-11T10:35:53Z</time>
      </trkpt>
      <trkpt lat="45.47816" lon="-0.79387">
        <ele>3.1</ele>
        <time>2020-03-11T10:35:53Z</time>
      </trkpt>
      <trkpt lat="45.47797" lon="-0.79343">
        <ele>3.3</ele>
        <time>2020-03-11T10:35:53Z</time>
      </trkpt>
      <trkpt lat="45.47781" lon="-0.79365">
        <ele>4</ele>
        <time>2020-03-11T10:35:53Z</time>
      </trkpt>
      <trkpt lat="45.47741" lon="-0.79437">
        <ele>3.5</ele>
        <time>2020-03-11T10:35:53Z</time>
      </trkpt>
      <trkpt lat="45.4772" lon="-0.79482">
        <ele>3.7</ele>
        <time>2020-03-11T10:35:53Z</time>
      </trkpt>
      <trkpt lat="45.47701" lon="-0.79518">
        <ele>3.8</ele>
        <time>2020-03-11T10:35:53Z</time>
      </trkpt>
      <trkpt lat="45.47666" lon="-0.79502">
        <ele>4</ele>
        <time>2020-03-11T10:35:53Z</time>
      </trkpt>
      <trkpt lat="45.47683" lon="-0.79453">
        <ele>2.9</ele>
        <time>2020-03-11T10:35:53Z</time>
      </trkpt>
      <trkpt lat="45.47756" lon="-0.79254">
        <ele>4</ele>
        <time>2020-03-11T10:35:53Z</time>
      </trkpt>
      <trkpt lat="45.47774" lon="-0.79209">
        <ele>4.4</ele>
        <time>2020-03-11T10:35:53Z</time>
      </trkpt>
      <trkpt lat="45.47763" lon="-0.79164">
        <ele>4</ele>
        <time>2020-03-11T10:35:53Z</time>
      </trkpt>
      <trkpt lat="45.47749" lon="-0.79144">
        <ele>4.6</ele>
        <time>2020-03-11T10:35:53Z</time>
      </trkpt>
      <trkpt lat="45.47734" lon="-0.7912">
        <ele>4</ele>
        <time>2020-03-11T10:35:53Z</time>
      </trkpt>
      <trkpt lat="45.4771" lon="-0.79092">
        <ele>3.9</ele>
        <time>2020-03-11T10:35:53Z</time>
      </trkpt>
      <trkpt lat="45.47687" lon="-0.79063">
        <ele>4.1</ele>
        <time>2020-03-11T10:35:53Z</time>
      </trkpt>
      <trkpt lat="45.47663" lon="-0.7903">
        <ele>3.8</ele>
        <time>2020-03-11T10:35:53Z</time>
      </trkpt>
      <trkpt lat="45.47639" lon="-0.78998">
        <ele>3</ele>
        <time>2020-03-11T10:35:53Z</time>
      </trkpt>
      <trkpt lat="45.47615" lon="-0.78969">
        <ele>3</ele>
        <time>2020-03-11T10:35:53Z</time>
      </trkpt>
      <trkpt lat="45.47595" lon="-0.78944">
        <ele>3</ele>
        <time>2020-03-11T10:35:53Z</time>
      </trkpt>
      <trkpt lat="45.47552" lon="-0.78892">
        <ele>3</ele>
        <time>2020-03-11T10:35:53Z</time>
      </trkpt>
      <trkpt lat="45.4742" lon="-0.7872">
        <ele>3</ele>
        <time>2020-03-11T10:35:53Z</time>
      </trkpt>
      <trkpt lat="45.47393" lon="-0.78683">
        <ele>3</ele>
        <time>2020-03-11T10:35:53Z</time>
      </trkpt>
      <trkpt lat="45.47362" lon="-0.78643">
        <ele>3.1</ele>
        <time>2020-03-11T10:35:53Z</time>
      </trkpt>
      <trkpt lat="45.47299" lon="-0.78561">
        <ele>3</ele>
        <time>2020-03-11T10:35:53Z</time>
      </trkpt>
      <trkpt lat="45.4726" lon="-0.78508">
        <ele>3</ele>
        <time>2020-03-11T10:35:53Z</time>
      </trkpt>
      <trkpt lat="45.47222" lon="-0.78459">
        <ele>3</ele>
        <time>2020-03-11T10:35:53Z</time>
      </trkpt>
      <trkpt lat="45.4719" lon="-0.78416">
        <ele>3</ele>
        <time>2020-03-11T10:35:53Z</time>
      </trkpt>
      <trkpt lat="45.47162" lon="-0.7838">
        <ele>3</ele>
        <time>2020-03-11T10:35:53Z</time>
      </trkpt>
      <trkpt lat="45.47055" lon="-0.78237">
        <ele>3</ele>
        <time>2020-03-11T10:35:53Z</time>
      </trkpt>
      <trkpt lat="45.47019" lon="-0.78189">
        <ele>3</ele>
        <time>2020-03-11T10:35:53Z</time>
      </trkpt>
      <trkpt lat="45.46989" lon="-0.78149">
        <ele>2.7</ele>
        <time>2020-03-11T10:35:53Z</time>
      </trkpt>
      <trkpt lat="45.46958" lon="-0.78108">
        <ele>3</ele>
        <time>2020-03-11T10:35:53Z</time>
      </trkpt>
      <trkpt lat="45.46933" lon="-0.78075">
        <ele>3</ele>
        <time>2020-03-11T10:35:53Z</time>
      </trkpt>
      <trkpt lat="45.46906" lon="-0.7804">
        <ele>3</ele>
        <time>2020-03-11T10:35:53Z</time>
      </trkpt>
      <trkpt lat="45.46864" lon="-0.77985">
        <ele>3</ele>
        <time>2020-03-11T10:35:53Z</time>
      </trkpt>
      <trkpt lat="45.46809" lon="-0.77914">
        <ele>3</ele>
        <time>2020-03-11T10:35:53Z</time>
      </trkpt>
      <trkpt lat="45.46768" lon="-0.77858">
        <ele>3</ele>
        <time>2020-03-11T10:35:53Z</time>
      </trkpt>
      <trkpt lat="45.4675" lon="-0.77842">
        <ele>3</ele>
        <time>2020-03-11T10:35:53Z</time>
      </trkpt>
      <trkpt lat="45.46753" lon="-0.77808">
        <ele>3</ele>
        <time>2020-03-11T10:35:53Z</time>
      </trkpt>
      <trkpt lat="45.46749" lon="-0.77771">
        <ele>2.8</ele>
        <time>2020-03-11T10:35:53Z</time>
      </trkpt>
      <trkpt lat="45.46744" lon="-0.77723">
        <ele>3</ele>
        <time>2020-03-11T10:35:53Z</time>
      </trkpt>
      <trkpt lat="45.46744" lon="-0.77678">
        <ele>3</ele>
        <time>2020-03-11T10:35:53Z</time>
      </trkpt>
      <trkpt lat="45.46752" lon="-0.7763">
        <ele>3</ele>
        <time>2020-03-11T10:35:53Z</time>
      </trkpt>
      <trkpt lat="45.46764" lon="-0.77594">
        <ele>3</ele>
        <time>2020-03-11T10:35:53Z</time>
      </trkpt>
      <trkpt lat="45.46765" lon="-0.77565">
        <ele>3</ele>
        <time>2020-03-11T10:35:53Z</time>
      </trkpt>
      <trkpt lat="45.46774" lon="-0.7752">
        <ele>3</ele>
        <time>2020-03-11T10:35:53Z</time>
      </trkpt>
      <trkpt lat="45.46814" lon="-0.77468">
        <ele>3</ele>
        <time>2020-03-11T10:35:53Z</time>
      </trkpt>
      <trkpt lat="45.46827" lon="-0.7745">
        <ele>3</ele>
        <time>2020-03-11T10:35:53Z</time>
      </trkpt>
      <trkpt lat="45.46716" lon="-0.7723">
        <ele>3</ele>
        <time>2020-03-11T10:35:53Z</time>
      </trkpt>
      <trkpt lat="45.46772" lon="-0.77168">
        <ele>3</ele>
        <time>2020-03-11T10:35:53Z</time>
      </trkpt>
      <trkpt lat="45.46639" lon="-0.7691">
        <ele>4</ele>
        <time>2020-03-11T10:35:53Z</time>
      </trkpt>
      <trkpt lat="45.46638" lon="-0.7688">
        <ele>4.3</ele>
        <time>2020-03-11T10:35:53Z</time>
      </trkpt>
      <trkpt lat="45.46636" lon="-0.76849">
        <ele>5</ele>
        <time>2020-03-11T10:35:53Z</time>
      </trkpt>
      <trkpt lat="45.46624" lon="-0.768">
        <ele>7.3</ele>
        <time>2020-03-11T10:35:53Z</time>
      </trkpt>
      <trkpt lat="45.46605" lon="-0.76694">
        <ele>13.3</ele>
        <time>2020-03-11T10:35:53Z</time>
      </trkpt>
      <trkpt lat="45.46589" lon="-0.76625">
        <ele>17.5</ele>
        <time>2020-03-11T10:35:53Z</time>
      </trkpt>
      <trkpt lat="45.46558" lon="-0.76518">
        <ele>22.1</ele>
        <time>2020-03-11T10:35:53Z</time>
      </trkpt>
      <trkpt lat="45.46554" lon="-0.7645">
        <ele>23.2</ele>
        <time>2020-03-11T10:35:53Z</time>
      </trkpt>
      <trkpt lat="45.46557" lon="-0.76395">
        <ele>24.7</ele>
        <time>2020-03-11T10:35:53Z</time>
      </trkpt>
      <trkpt lat="45.46573" lon="-0.76326">
        <ele>25.2</ele>
        <time>2020-03-11T10:35:53Z</time>
      </trkpt>
      <trkpt lat="45.46589" lon="-0.76275">
        <ele>26.2</ele>
        <time>2020-03-11T10:35:53Z</time>
      </trkpt>
      <trkpt lat="45.46565" lon="-0.76281">
        <ele>24.8</ele>
        <time>2020-03-11T10:35:53Z</time>
      </trkpt>
      <trkpt lat="45.46545" lon="-0.76284">
        <ele>22.8</ele>
        <time>2020-03-11T10:35:53Z</time>
      </trkpt>
      <trkpt lat="45.46512" lon="-0.76278">
        <ele>17.2</ele>
        <time>2020-03-11T10:35:53Z</time>
      </trkpt>
      <trkpt lat="45.46449" lon="-0.76305">
        <ele>9.8</ele>
        <time>2020-03-11T10:35:53Z</time>
      </trkpt>
      <trkpt lat="45.46431" lon="-0.76311">
        <ele>7.8</ele>
        <time>2020-03-11T10:35:53Z</time>
      </trkpt>
      <trkpt lat="45.46336" lon="-0.76303">
        <ele>3.1</ele>
        <time>2020-03-11T10:35:53Z</time>
      </trkpt>
      <trkpt lat="45.46273" lon="-0.76299">
        <ele>3.2</ele>
        <time>2020-03-11T10:35:53Z</time>
      </trkpt>
      <trkpt lat="45.46263" lon="-0.76266">
        <ele>3.5</ele>
        <time>2020-03-11T10:35:53Z</time>
      </trkpt>
      <trkpt lat="45.46009" lon="-0.76309">
        <ele>19.9</ele>
        <time>2020-03-11T10:35:53Z</time>
      </trkpt>
      <trkpt lat="45.46025" lon="-0.76348">
        <ele>17.5</ele>
        <time>2020-03-11T10:35:53Z</time>
      </trkpt>
      <trkpt lat="45.46053" lon="-0.76412">
        <ele>13.9</ele>
        <time>2020-03-11T10:35:53Z</time>
      </trkpt>
      <trkpt lat="45.46066" lon="-0.76438">
        <ele>12.4</ele>
        <time>2020-03-11T10:35:53Z</time>
      </trkpt>
      <trkpt lat="45.4609" lon="-0.7648">
        <ele>10.5</ele>
        <time>2020-03-11T10:35:53Z</time>
      </trkpt>
      <trkpt lat="45.46115" lon="-0.76521">
        <ele>9.7</ele>
        <time>2020-03-11T10:35:53Z</time>
      </trkpt>
      <trkpt lat="45.46092" lon="-0.76564">
        <ele>8.5</ele>
        <time>2020-03-11T10:35:53Z</time>
      </trkpt>
      <trkpt lat="45.46069" lon="-0.76587">
        <ele>6.2</ele>
        <time>2020-03-11T10:35:53Z</time>
      </trkpt>
      <trkpt lat="45.46052" lon="-0.76608">
        <ele>4.1</ele>
        <time>2020-03-11T10:35:53Z</time>
      </trkpt>
      <trkpt lat="45.46052" lon="-0.76645">
        <ele>3</ele>
        <time>2020-03-11T10:35:53Z</time>
      </trkpt>
      <trkpt lat="45.46053" lon="-0.76672">
        <ele>3</ele>
        <time>2020-03-11T10:35:53Z</time>
      </trkpt>
      <trkpt lat="45.46013" lon="-0.76796">
        <ele>3</ele>
        <time>2020-03-11T10:35:53Z</time>
      </trkpt>
      <trkpt lat="45.45967" lon="-0.76938">
        <ele>3</ele>
        <time>2020-03-11T10:35:53Z</time>
      </trkpt>
      <trkpt lat="45.45958" lon="-0.76966">
        <ele>3</ele>
        <time>2020-03-11T10:35:53Z</time>
      </trkpt>
      <trkpt lat="45.45895" lon="-0.76926">
        <ele>3</ele>
        <time>2020-03-11T10:35:53Z</time>
      </trkpt>
      <trkpt lat="45.45812" lon="-0.76888">
        <ele>3</ele>
        <time>2020-03-11T10:35:53Z</time>
      </trkpt>
      <trkpt lat="45.4574" lon="-0.76847">
        <ele>3</ele>
        <time>2020-03-11T10:35:53Z</time>
      </trkpt>
      <trkpt lat="45.45685" lon="-0.76804">
        <ele>3</ele>
        <time>2020-03-11T10:35:53Z</time>
      </trkpt>
      <trkpt lat="45.45616" lon="-0.7675">
        <ele>3</ele>
        <time>2020-03-11T10:35:53Z</time>
      </trkpt>
      <trkpt lat="45.45507" lon="-0.76666">
        <ele>3</ele>
        <time>2020-03-11T10:35:53Z</time>
      </trkpt>
      <trkpt lat="45.45519" lon="-0.76626">
        <ele>3</ele>
        <time>2020-03-11T10:35:53Z</time>
      </trkpt>
      <trkpt lat="45.45564" lon="-0.76496">
        <ele>3</ele>
        <time>2020-03-11T10:35:53Z</time>
      </trkpt>
      <trkpt lat="45.45521" lon="-0.76457">
        <ele>3.5</ele>
        <time>2020-03-11T10:35:53Z</time>
      </trkpt>
      <trkpt lat="45.45495" lon="-0.76442">
        <ele>3.9</ele>
        <time>2020-03-11T10:35:53Z</time>
      </trkpt>
      <trkpt lat="45.4546" lon="-0.76417">
        <ele>4</ele>
        <time>2020-03-11T10:35:53Z</time>
      </trkpt>
      <trkpt lat="45.45401" lon="-0.76359">
        <ele>3.5</ele>
        <time>2020-03-11T10:35:53Z</time>
      </trkpt>
      <trkpt lat="45.45353" lon="-0.76314">
        <ele>3.5</ele>
        <time>2020-03-11T10:35:53Z</time>
      </trkpt>
      <trkpt lat="45.45289" lon="-0.76253">
        <ele>4.3</ele>
        <time>2020-03-11T10:35:53Z</time>
      </trkpt>
      <trkpt lat="45.45265" lon="-0.76223">
        <ele>4.5</ele>
        <time>2020-03-11T10:35:53Z</time>
      </trkpt>
      <trkpt lat="45.45218" lon="-0.76142">
        <ele>3.8</ele>
        <time>2020-03-11T10:35:53Z</time>
      </trkpt>
      <trkpt lat="45.45187" lon="-0.76083">
        <ele>3.7</ele>
        <time>2020-03-11T10:35:53Z</time>
      </trkpt>
      <trkpt lat="45.4517" lon="-0.76031">
        <ele>4</ele>
        <time>2020-03-11T10:35:53Z</time>
      </trkpt>
      <trkpt lat="45.45162" lon="-0.76006">
        <ele>3.8</ele>
        <time>2020-03-11T10:35:53Z</time>
      </trkpt>
      <trkpt lat="45.45142" lon="-0.75963">
        <ele>3.5</ele>
        <time>2020-03-11T10:35:53Z</time>
      </trkpt>
      <trkpt lat="45.45129" lon="-0.75933">
        <ele>3.6</ele>
        <time>2020-03-11T10:35:53Z</time>
      </trkpt>
      <trkpt lat="45.45123" lon="-0.75907">
        <ele>3.4</ele>
        <time>2020-03-11T10:35:53Z</time>
      </trkpt>
      <trkpt lat="45.45118" lon="-0.75879">
        <ele>3.6</ele>
        <time>2020-03-11T10:35:53Z</time>
      </trkpt>
      <trkpt lat="45.45118" lon="-0.75828">
        <ele>4.3</ele>
        <time>2020-03-11T10:35:53Z</time>
      </trkpt>
      <trkpt lat="45.45119" lon="-0.75802">
        <ele>4.7</ele>
        <time>2020-03-11T10:35:53Z</time>
      </trkpt>
      <trkpt lat="45.4511" lon="-0.75753">
        <ele>5.9</ele>
        <time>2020-03-11T10:35:53Z</time>
      </trkpt>
      <trkpt lat="45.45109" lon="-0.75724">
        <ele>6.9</ele>
        <time>2020-03-11T10:35:53Z</time>
      </trkpt>
      <trkpt lat="45.45093" lon="-0.7568">
        <ele>8</ele>
        <time>2020-03-11T10:35:53Z</time>
      </trkpt>
      <trkpt lat="45.45073" lon="-0.75642">
        <ele>10.2</ele>
        <time>2020-03-11T10:35:53Z</time>
      </trkpt>
      <trkpt lat="45.45049" lon="-0.75611">
        <ele>12</ele>
        <time>2020-03-11T10:35:53Z</time>
      </trkpt>
      <trkpt lat="45.45028" lon="-0.75583">
        <ele>12</ele>
        <time>2020-03-11T10:35:53Z</time>
      </trkpt>
      <trkpt lat="45.44953" lon="-0.75724">
        <ele>10.3</ele>
        <time>2020-03-11T10:35:53Z</time>
      </trkpt>
      <trkpt lat="45.44935" lon="-0.75762">
        <ele>9.6</ele>
        <time>2020-03-11T10:35:53Z</time>
      </trkpt>
      <trkpt lat="45.44898" lon="-0.75738">
        <ele>9.8</ele>
        <time>2020-03-11T10:35:53Z</time>
      </trkpt>
      <trkpt lat="45.44872" lon="-0.75755">
        <ele>7.7</ele>
        <time>2020-03-11T10:35:53Z</time>
      </trkpt>
      <trkpt lat="45.44847" lon="-0.75757">
        <ele>6.5</ele>
        <time>2020-03-11T10:35:53Z</time>
      </trkpt>
      <trkpt lat="45.44789" lon="-0.75699">
        <ele>7.1</ele>
        <time>2020-03-11T10:35:53Z</time>
      </trkpt>
      <trkpt lat="45.4471" lon="-0.75596">
        <ele>6.6</ele>
        <time>2020-03-11T10:35:53Z</time>
      </trkpt>
      <trkpt lat="45.44684" lon="-0.75534">
        <ele>6.2</ele>
        <time>2020-03-11T10:35:53Z</time>
      </trkpt>
      <trkpt lat="45.44659" lon="-0.75485">
        <ele>5.1</ele>
        <time>2020-03-11T10:35:53Z</time>
      </trkpt>
      <trkpt lat="45.44627" lon="-0.75446">
        <ele>7</ele>
        <time>2020-03-11T10:35:53Z</time>
      </trkpt>
      <trkpt lat="45.4458" lon="-0.75394">
        <ele>8</ele>
        <time>2020-03-11T10:35:53Z</time>
      </trkpt>
      <trkpt lat="45.44564" lon="-0.75371">
        <ele>7.8</ele>
        <time>2020-03-11T10:35:53Z</time>
      </trkpt>
      <trkpt lat="45.44521" lon="-0.7529">
        <ele>6.9</ele>
        <time>2020-03-11T10:35:53Z</time>
      </trkpt>
      <trkpt lat="45.44495" lon="-0.75255">
        <ele>7.7</ele>
        <time>2020-03-11T10:35:53Z</time>
      </trkpt>
      <trkpt lat="45.44448" lon="-0.75206">
        <ele>8.2</ele>
        <time>2020-03-11T10:35:53Z</time>
      </trkpt>
      <trkpt lat="45.44423" lon="-0.75182">
        <ele>7</ele>
        <time>2020-03-11T10:35:53Z</time>
      </trkpt>
      <trkpt lat="45.44398" lon="-0.75151">
        <ele>5.9</ele>
        <time>2020-03-11T10:35:53Z</time>
      </trkpt>
      <trkpt lat="45.44368" lon="-0.75192">
        <ele>3.3</ele>
        <time>2020-03-11T10:35:53Z</time>
      </trkpt>
      <trkpt lat="45.44201" lon="-0.75619">
        <ele>3</ele>
        <time>2020-03-11T10:35:53Z</time>
      </trkpt>
      <trkpt lat="45.43989" lon="-0.75607">
        <ele>3</ele>
        <time>2020-03-11T10:35:53Z</time>
      </trkpt>
      <trkpt lat="45.43958" lon="-0.75606">
        <ele>3</ele>
        <time>2020-03-11T10:35:53Z</time>
      </trkpt>
      <trkpt lat="45.43857" lon="-0.75616">
        <ele>3</ele>
        <time>2020-03-11T10:35:53Z</time>
      </trkpt>
      <trkpt lat="45.43836" lon="-0.75616">
        <ele>3</ele>
        <time>2020-03-11T10:35:53Z</time>
      </trkpt>
      <trkpt lat="45.43812" lon="-0.75604">
        <ele>3</ele>
        <time>2020-03-11T10:35:53Z</time>
      </trkpt>
      <trkpt lat="45.43543" lon="-0.75442">
        <ele>3</ele>
        <time>2020-03-11T10:35:53Z</time>
      </trkpt>
      <trkpt lat="45.43498" lon="-0.75402">
        <ele>3</ele>
        <time>2020-03-11T10:35:53Z</time>
      </trkpt>
      <trkpt lat="45.4339" lon="-0.75309">
        <ele>3</ele>
        <time>2020-03-11T10:35:53Z</time>
      </trkpt>
      <trkpt lat="45.43363" lon="-0.75335">
        <ele>3.1</ele>
        <time>2020-03-11T10:35:53Z</time>
      </trkpt>
      <trkpt lat="45.43306" lon="-0.75373">
        <ele>3</ele>
        <time>2020-03-11T10:35:53Z</time>
      </trkpt>
      <trkpt lat="45.4314" lon="-0.75488">
        <ele>3</ele>
        <time>2020-03-11T10:35:53Z</time>
      </trkpt>
      <trkpt lat="45.43075" lon="-0.75537">
        <ele>3</ele>
        <time>2020-03-11T10:35:53Z</time>
      </trkpt>
      <trkpt lat="45.43057" lon="-0.75544">
        <ele>3</ele>
        <time>2020-03-11T10:35:53Z</time>
      </trkpt>
      <trkpt lat="45.43004" lon="-0.75539">
        <ele>3.1</ele>
        <time>2020-03-11T10:35:53Z</time>
      </trkpt>
      <trkpt lat="45.42994" lon="-0.75507">
        <ele>1.4</ele>
        <time>2020-03-11T10:35:53Z</time>
      </trkpt>
      <trkpt lat="45.42986" lon="-0.75481">
        <ele>2</ele>
        <time>2020-03-11T10:35:53Z</time>
      </trkpt>
      <trkpt lat="45.42971" lon="-0.75461">
        <ele>3</ele>
        <time>2020-03-11T10:35:53Z</time>
      </trkpt>
      <trkpt lat="45.42945" lon="-0.75475">
        <ele>2.9</ele>
        <time>2020-03-11T10:35:53Z</time>
      </trkpt>
      <trkpt lat="45.42873" lon="-0.75516">
        <ele>3</ele>
        <time>2020-03-11T10:35:53Z</time>
      </trkpt>
      <trkpt lat="45.42809" lon="-0.75554">
        <ele>3</ele>
        <time>2020-03-11T10:35:53Z</time>
      </trkpt>
      <trkpt lat="45.42744" lon="-0.75593">
        <ele>3.1</ele>
        <time>2020-03-11T10:35:53Z</time>
      </trkpt>
      <trkpt lat="45.42679" lon="-0.75631">
        <ele>3</ele>
        <time>2020-03-11T10:35:53Z</time>
      </trkpt>
      <trkpt lat="45.42634" lon="-0.75659">
        <ele>2.9</ele>
        <time>2020-03-11T10:35:53Z</time>
      </trkpt>
      <trkpt lat="45.42612" lon="-0.75674">
        <ele>2.3</ele>
        <time>2020-03-11T10:35:53Z</time>
      </trkpt>
      <trkpt lat="45.42594" lon="-0.75661">
        <ele>2.7</ele>
        <time>2020-03-11T10:35:53Z</time>
      </trkpt>
      <trkpt lat="45.42572" lon="-0.75648">
        <ele>2.6</ele>
        <time>2020-03-11T10:35:53Z</time>
      </trkpt>
      <trkpt lat="45.42446" lon="-0.75484">
        <ele>2.6</ele>
        <time>2020-03-11T10:35:53Z</time>
      </trkpt>
      <trkpt lat="45.42431" lon="-0.75466">
        <ele>2.6</ele>
        <time>2020-03-11T10:35:53Z</time>
      </trkpt>
      <trkpt lat="45.42412" lon="-0.75449">
        <ele>3</ele>
        <time>2020-03-11T10:35:53Z</time>
      </trkpt>
      <trkpt lat="45.42394" lon="-0.75439">
        <ele>3.7</ele>
        <time>2020-03-11T10:35:53Z</time>
      </trkpt>
      <trkpt lat="45.42309" lon="-0.7545">
        <ele>3</ele>
        <time>2020-03-11T10:35:53Z</time>
      </trkpt>
      <trkpt lat="45.4224" lon="-0.75459">
        <ele>3.3</ele>
        <time>2020-03-11T10:35:53Z</time>
      </trkpt>
      <trkpt lat="45.42222" lon="-0.75443">
        <ele>4</ele>
        <time>2020-03-11T10:35:53Z</time>
      </trkpt>
      <trkpt lat="45.42224" lon="-0.75416">
        <ele>3.9</ele>
        <time>2020-03-11T10:35:53Z</time>
      </trkpt>
      <trkpt lat="45.42234" lon="-0.75378">
        <ele>3</ele>
        <time>2020-03-11T10:35:53Z</time>
      </trkpt>
      <trkpt lat="45.42246" lon="-0.75348">
        <ele>3</ele>
        <time>2020-03-11T10:35:53Z</time>
      </trkpt>
      <trkpt lat="45.42259" lon="-0.75328">
        <ele>3.1</ele>
        <time>2020-03-11T10:35:53Z</time>
      </trkpt>
      <trkpt lat="45.42239" lon="-0.7531">
        <ele>3.8</ele>
        <time>2020-03-11T10:35:53Z</time>
      </trkpt>
      <trkpt lat="45.42218" lon="-0.75309">
        <ele>3.7</ele>
        <time>2020-03-11T10:35:53Z</time>
      </trkpt>
      <trkpt lat="45.42118" lon="-0.75256">
        <ele>3.6</ele>
        <time>2020-03-11T10:35:53Z</time>
      </trkpt>
      <trkpt lat="45.42078" lon="-0.75235">
        <ele>3.2</ele>
        <time>2020-03-11T10:35:53Z</time>
      </trkpt>
      <trkpt lat="45.42075" lon="-0.75208">
        <ele>3.1</ele>
        <time>2020-03-11T10:35:53Z</time>
      </trkpt>
      <trkpt lat="45.42073" lon="-0.74834">
        <ele>3</ele>
        <time>2020-03-11T10:35:53Z</time>
      </trkpt>
      <trkpt lat="45.42074" lon="-0.74808">
        <ele>3</ele>
        <time>2020-03-11T10:35:53Z</time>
      </trkpt>
      <trkpt lat="45.42083" lon="-0.74776">
        <ele>3.9</ele>
        <time>2020-03-11T10:35:53Z</time>
      </trkpt>
      <trkpt lat="45.42105" lon="-0.74706">
        <ele>3.3</ele>
        <time>2020-03-11T10:35:53Z</time>
      </trkpt>
      <trkpt lat="45.42161" lon="-0.74517">
        <ele>3</ele>
        <time>2020-03-11T10:35:53Z</time>
      </trkpt>
      <trkpt lat="45.42185" lon="-0.74438">
        <ele>3</ele>
        <time>2020-03-11T10:35:53Z</time>
      </trkpt>
      <trkpt lat="45.42195" lon="-0.74414">
        <ele>3</ele>
        <time>2020-03-11T10:35:53Z</time>
      </trkpt>
      <trkpt lat="45.42217" lon="-0.74382">
        <ele>3</ele>
        <time>2020-03-11T10:35:53Z</time>
      </trkpt>
      <trkpt lat="45.42304" lon="-0.74257">
        <ele>3</ele>
        <time>2020-03-11T10:35:53Z</time>
      </trkpt>
      <trkpt lat="45.42339" lon="-0.74208">
        <ele>3</ele>
        <time>2020-03-11T10:35:53Z</time>
      </trkpt>
      <trkpt lat="45.42356" lon="-0.74179">
        <ele>3</ele>
        <time>2020-03-11T10:35:53Z</time>
      </trkpt>
      <trkpt lat="45.42373" lon="-0.74138">
        <ele>3</ele>
        <time>2020-03-11T10:35:53Z</time>
      </trkpt>
      <trkpt lat="45.42434" lon="-0.7398">
        <ele>3</ele>
        <time>2020-03-11T10:35:53Z</time>
      </trkpt>
      <trkpt lat="45.42438" lon="-0.73955">
        <ele>3</ele>
        <time>2020-03-11T10:35:53Z</time>
      </trkpt>
      <trkpt lat="45.4244" lon="-0.73929">
        <ele>3</ele>
        <time>2020-03-11T10:35:53Z</time>
      </trkpt>
      <trkpt lat="45.42003" lon="-0.73581">
        <ele>3</ele>
        <time>2020-03-11T10:35:53Z</time>
      </trkpt>
      <trkpt lat="45.41899" lon="-0.73517">
        <ele>3</ele>
        <time>2020-03-11T10:35:53Z</time>
      </trkpt>
      <trkpt lat="45.41872" lon="-0.735">
        <ele>3</ele>
        <time>2020-03-11T10:35:53Z</time>
      </trkpt>
      <trkpt lat="45.41839" lon="-0.73476">
        <ele>3</ele>
        <time>2020-03-11T10:35:53Z</time>
      </trkpt>
      <trkpt lat="45.41518" lon="-0.73277">
        <ele>3</ele>
        <time>2020-03-11T10:35:53Z</time>
      </trkpt>
      <trkpt lat="45.41427" lon="-0.73215">
        <ele>2.8</ele>
        <time>2020-03-11T10:35:53Z</time>
      </trkpt>
      <trkpt lat="45.41347" lon="-0.73123">
        <ele>3</ele>
        <time>2020-03-11T10:35:53Z</time>
      </trkpt>
      <trkpt lat="45.41015" lon="-0.72732">
        <ele>3</ele>
        <time>2020-03-11T10:35:53Z</time>
      </trkpt>
      <trkpt lat="45.40963" lon="-0.72669">
        <ele>2.7</ele>
        <time>2020-03-11T10:35:53Z</time>
      </trkpt>
      <trkpt lat="45.40938" lon="-0.72647">
        <ele>2.7</ele>
        <time>2020-03-11T10:35:53Z</time>
      </trkpt>
      <trkpt lat="45.40875" lon="-0.72618">
        <ele>2.9</ele>
        <time>2020-03-11T10:35:53Z</time>
      </trkpt>
      <trkpt lat="45.40631" lon="-0.72503">
        <ele>2.9</ele>
        <time>2020-03-11T10:35:53Z</time>
      </trkpt>
      <trkpt lat="45.40605" lon="-0.72493">
        <ele>3</ele>
        <time>2020-03-11T10:35:53Z</time>
      </trkpt>
      <trkpt lat="45.40543" lon="-0.72477">
        <ele>3</ele>
        <time>2020-03-11T10:35:53Z</time>
      </trkpt>
      <trkpt lat="45.40508" lon="-0.72466">
        <ele>3</ele>
        <time>2020-03-11T10:35:53Z</time>
      </trkpt>
      <trkpt lat="45.40099" lon="-0.72357">
        <ele>3.5</ele>
        <time>2020-03-11T10:35:53Z</time>
      </trkpt>
      <trkpt lat="45.39986" lon="-0.72327">
        <ele>3</ele>
        <time>2020-03-11T10:35:53Z</time>
      </trkpt>
      <trkpt lat="45.39667" lon="-0.7224">
        <ele>3</ele>
        <time>2020-03-11T10:35:53Z</time>
      </trkpt>
      <trkpt lat="45.3915" lon="-0.72104">
        <ele>3</ele>
        <time>2020-03-11T10:35:53Z</time>
      </trkpt>
      <trkpt lat="45.39084" lon="-0.72085">
        <ele>3</ele>
        <time>2020-03-11T10:35:53Z</time>
      </trkpt>
      <trkpt lat="45.39052" lon="-0.72078">
        <ele>2.9</ele>
        <time>2020-03-11T10:35:53Z</time>
      </trkpt>
      <trkpt lat="45.39022" lon="-0.72067">
        <ele>2.7</ele>
        <time>2020-03-11T10:35:53Z</time>
      </trkpt>
      <trkpt lat="45.38562" lon="-0.71686">
        <ele>3.4</ele>
        <time>2020-03-11T10:35:53Z</time>
      </trkpt>
      <trkpt lat="45.38462" lon="-0.71605">
        <ele>3.2</ele>
        <time>2020-03-11T10:35:53Z</time>
      </trkpt>
      <trkpt lat="45.38446" lon="-0.71593">
        <ele>2.7</ele>
        <time>2020-03-11T10:35:53Z</time>
      </trkpt>
      <trkpt lat="45.38428" lon="-0.71583">
        <ele>3</ele>
        <time>2020-03-11T10:35:53Z</time>
      </trkpt>
      <trkpt lat="45.38352" lon="-0.71554">
        <ele>3</ele>
        <time>2020-03-11T10:35:53Z</time>
      </trkpt>
      <trkpt lat="45.3805" lon="-0.71428">
        <ele>2.6</ele>
        <time>2020-03-11T10:35:53Z</time>
      </trkpt>
      <trkpt lat="45.37529" lon="-0.71216">
        <ele>2.8</ele>
        <time>2020-03-11T10:35:53Z</time>
      </trkpt>
      <trkpt lat="45.37483" lon="-0.71197">
        <ele>2.9</ele>
        <time>2020-03-11T10:35:53Z</time>
      </trkpt>
      <trkpt lat="45.37429" lon="-0.71176">
        <ele>2.4</ele>
        <time>2020-03-11T10:35:53Z</time>
      </trkpt>
      <trkpt lat="45.37382" lon="-0.71157">
        <ele>2</ele>
        <time>2020-03-11T10:35:53Z</time>
      </trkpt>
      <trkpt lat="45.37355" lon="-0.71157">
        <ele>2.1</ele>
        <time>2020-03-11T10:35:53Z</time>
      </trkpt>
      <trkpt lat="45.37289" lon="-0.71202">
        <ele>2.5</ele>
        <time>2020-03-11T10:35:53Z</time>
      </trkpt>
      <trkpt lat="45.37195" lon="-0.71266">
        <ele>2</ele>
        <time>2020-03-11T10:35:53Z</time>
      </trkpt>
      <trkpt lat="45.37124" lon="-0.71314">
        <ele>2.3</ele>
        <time>2020-03-11T10:35:53Z</time>
      </trkpt>
      <trkpt lat="45.37069" lon="-0.71349">
        <ele>2.3</ele>
        <time>2020-03-11T10:35:53Z</time>
      </trkpt>
      <trkpt lat="45.37007" lon="-0.71387">
        <ele>2</ele>
        <time>2020-03-11T10:35:53Z</time>
      </trkpt>
      <trkpt lat="45.36969" lon="-0.71408">
        <ele>2</ele>
        <time>2020-03-11T10:35:53Z</time>
      </trkpt>
      <trkpt lat="45.36933" lon="-0.7143">
        <ele>2</ele>
        <time>2020-03-11T10:35:53Z</time>
      </trkpt>
      <trkpt lat="45.36882" lon="-0.71461">
        <ele>2</ele>
        <time>2020-03-11T10:35:53Z</time>
      </trkpt>
      <trkpt lat="45.36802" lon="-0.71506">
        <ele>2</ele>
        <time>2020-03-11T10:35:53Z</time>
      </trkpt>
      <trkpt lat="45.36734" lon="-0.71547">
        <ele>2.6</ele>
        <time>2020-03-11T10:35:53Z</time>
      </trkpt>
      <trkpt lat="45.36655" lon="-0.71597">
        <ele>2.2</ele>
        <time>2020-03-11T10:35:53Z</time>
      </trkpt>
      <trkpt lat="45.36581" lon="-0.71644">
        <ele>2.8</ele>
        <time>2020-03-11T10:35:53Z</time>
      </trkpt>
      <trkpt lat="45.36493" lon="-0.71701">
        <ele>2.8</ele>
        <time>2020-03-11T10:35:53Z</time>
      </trkpt>
      <trkpt lat="45.36474" lon="-0.71715">
        <ele>3</ele>
        <time>2020-03-11T10:35:53Z</time>
      </trkpt>
      <trkpt lat="45.36451" lon="-0.71825">
        <ele>2.8</ele>
        <time>2020-03-11T10:35:53Z</time>
      </trkpt>
      <trkpt lat="45.36428" lon="-0.71955">
        <ele>2.6</ele>
        <time>2020-03-11T10:35:53Z</time>
      </trkpt>
      <trkpt lat="45.36406" lon="-0.72087">
        <ele>2.9</ele>
        <time>2020-03-11T10:35:53Z</time>
      </trkpt>
      <trkpt lat="45.36381" lon="-0.72232">
        <ele>3</ele>
        <time>2020-03-11T10:35:53Z</time>
      </trkpt>
      <trkpt lat="45.36376" lon="-0.72276">
        <ele>3</ele>
        <time>2020-03-11T10:35:53Z</time>
      </trkpt>
      <trkpt lat="45.36376" lon="-0.72312">
        <ele>3</ele>
        <time>2020-03-11T10:35:53Z</time>
      </trkpt>
      <trkpt lat="45.36374" lon="-0.72437">
        <ele>2.6</ele>
        <time>2020-03-11T10:35:53Z</time>
      </trkpt>
      <trkpt lat="45.36371" lon="-0.72541">
        <ele>2.4</ele>
        <time>2020-03-11T10:35:53Z</time>
      </trkpt>
      <trkpt lat="45.36368" lon="-0.72638">
        <ele>3</ele>
        <time>2020-03-11T10:35:53Z</time>
      </trkpt>
      <trkpt lat="45.36368" lon="-0.72691">
        <ele>3.7</ele>
        <time>2020-03-11T10:35:53Z</time>
      </trkpt>
      <trkpt lat="45.36355" lon="-0.72709">
        <ele>3.6</ele>
        <time>2020-03-11T10:35:53Z</time>
      </trkpt>
      <trkpt lat="45.3634" lon="-0.72692">
        <ele>4</ele>
        <time>2020-03-11T10:35:53Z</time>
      </trkpt>
      <trkpt lat="45.36341" lon="-0.7265">
        <ele>3.3</ele>
        <time>2020-03-11T10:35:53Z</time>
      </trkpt>
      <trkpt lat="45.36343" lon="-0.72612">
        <ele>3</ele>
        <time>2020-03-11T10:35:53Z</time>
      </trkpt>
      <trkpt lat="45.36346" lon="-0.72525">
        <ele>2.5</ele>
        <time>2020-03-11T10:35:53Z</time>
      </trkpt>
      <trkpt lat="45.36347" lon="-0.72437">
        <ele>2.6</ele>
        <time>2020-03-11T10:35:53Z</time>
      </trkpt>
      <trkpt lat="45.3635" lon="-0.72344">
        <ele>2.8</ele>
        <time>2020-03-11T10:35:53Z</time>
      </trkpt>
      <trkpt lat="45.36342" lon="-0.72317">
        <ele>3</ele>
        <time>2020-03-11T10:35:53Z</time>
      </trkpt>
      <trkpt lat="45.3628" lon="-0.72298">
        <ele>3</ele>
        <time>2020-03-11T10:35:53Z</time>
      </trkpt>
      <trkpt lat="45.36225" lon="-0.7228">
        <ele>3</ele>
        <time>2020-03-11T10:35:53Z</time>
      </trkpt>
      <trkpt lat="45.36163" lon="-0.72262">
        <ele>2.5</ele>
        <time>2020-03-11T10:35:53Z</time>
      </trkpt>
      <trkpt lat="45.36084" lon="-0.72237">
        <ele>3</ele>
        <time>2020-03-11T10:35:53Z</time>
      </trkpt>
      <trkpt lat="45.36031" lon="-0.72221">
        <ele>3</ele>
        <time>2020-03-11T10:35:53Z</time>
      </trkpt>
      <trkpt lat="45.36015" lon="-0.72206">
        <ele>3</ele>
        <time>2020-03-11T10:35:53Z</time>
      </trkpt>
      <trkpt lat="45.35993" lon="-0.72197">
        <ele>2.8</ele>
        <time>2020-03-11T10:35:53Z</time>
      </trkpt>
      <trkpt lat="45.35983" lon="-0.72267">
        <ele>3</ele>
        <time>2020-03-11T10:35:53Z</time>
      </trkpt>
      <trkpt lat="45.35975" lon="-0.72334">
        <ele>3</ele>
        <time>2020-03-11T10:35:53Z</time>
      </trkpt>
      <trkpt lat="45.3597" lon="-0.72367">
        <ele>3</ele>
        <time>2020-03-11T10:35:53Z</time>
      </trkpt>
      <trkpt lat="45.35963" lon="-0.7242">
        <ele>2.9</ele>
        <time>2020-03-11T10:35:53Z</time>
      </trkpt>
      <trkpt lat="45.35959" lon="-0.72455">
        <ele>2.5</ele>
        <time>2020-03-11T10:35:53Z</time>
      </trkpt>
      <trkpt lat="45.35958" lon="-0.72496">
        <ele>2.5</ele>
        <time>2020-03-11T10:35:53Z</time>
      </trkpt>
      <trkpt lat="45.35943" lon="-0.72538">
        <ele>3.6</ele>
        <time>2020-03-11T10:35:53Z</time>
      </trkpt>
      <trkpt lat="45.3593" lon="-0.72573">
        <ele>3</ele>
        <time>2020-03-11T10:35:53Z</time>
      </trkpt>
      <trkpt lat="45.35907" lon="-0.72634">
        <ele>3.5</ele>
        <time>2020-03-11T10:35:53Z</time>
      </trkpt>
      <trkpt lat="45.35881" lon="-0.72643">
        <ele>4.1</ele>
        <time>2020-03-11T10:35:53Z</time>
      </trkpt>
      <trkpt lat="45.35855" lon="-0.72635">
        <ele>4.3</ele>
        <time>2020-03-11T10:35:53Z</time>
      </trkpt>
      <trkpt lat="45.35803" lon="-0.72617">
        <ele>3.9</ele>
        <time>2020-03-11T10:35:53Z</time>
      </trkpt>
      <trkpt lat="45.35749" lon="-0.72597">
        <ele>3</ele>
        <time>2020-03-11T10:35:53Z</time>
      </trkpt>
      <trkpt lat="45.35684" lon="-0.72575">
        <ele>3.4</ele>
        <time>2020-03-11T10:35:53Z</time>
      </trkpt>
      <trkpt lat="45.35621" lon="-0.72556">
        <ele>4</ele>
        <time>2020-03-11T10:35:53Z</time>
      </trkpt>
      <trkpt lat="45.3555" lon="-0.72533">
        <ele>4</ele>
        <time>2020-03-11T10:35:53Z</time>
      </trkpt>
      <trkpt lat="45.35477" lon="-0.7251">
        <ele>3.5</ele>
        <time>2020-03-11T10:35:53Z</time>
      </trkpt>
      <trkpt lat="45.35418" lon="-0.72489">
        <ele>3</ele>
        <time>2020-03-11T10:35:53Z</time>
      </trkpt>
      <trkpt lat="45.35346" lon="-0.72465">
        <ele>3.3</ele>
        <time>2020-03-11T10:35:53Z</time>
      </trkpt>
      <trkpt lat="45.35291" lon="-0.72449">
        <ele>3.9</ele>
        <time>2020-03-11T10:35:53Z</time>
      </trkpt>
      <trkpt lat="45.35226" lon="-0.72429">
        <ele>3.5</ele>
        <time>2020-03-11T10:35:53Z</time>
      </trkpt>
      <trkpt lat="45.35181" lon="-0.72414">
        <ele>4.4</ele>
        <time>2020-03-11T10:35:53Z</time>
      </trkpt>
      <trkpt lat="45.35129" lon="-0.724">
        <ele>3.2</ele>
        <time>2020-03-11T10:35:53Z</time>
      </trkpt>
      <trkpt lat="45.35079" lon="-0.72387">
        <ele>3.9</ele>
        <time>2020-03-11T10:35:53Z</time>
      </trkpt>
      <trkpt lat="45.35017" lon="-0.72369">
        <ele>3.3</ele>
        <time>2020-03-11T10:35:53Z</time>
      </trkpt>
      <trkpt lat="45.34975" lon="-0.72357">
        <ele>3</ele>
        <time>2020-03-11T10:35:53Z</time>
      </trkpt>
      <trkpt lat="45.34929" lon="-0.72344">
        <ele>3.3</ele>
        <time>2020-03-11T10:35:53Z</time>
      </trkpt>
      <trkpt lat="45.3485" lon="-0.72322">
        <ele>3.5</ele>
        <time>2020-03-11T10:35:53Z</time>
      </trkpt>
      <trkpt lat="45.34779" lon="-0.72301">
        <ele>3.8</ele>
        <time>2020-03-11T10:35:53Z</time>
      </trkpt>
      <trkpt lat="45.34726" lon="-0.72286">
        <ele>3.6</ele>
        <time>2020-03-11T10:35:53Z</time>
      </trkpt>
      <trkpt lat="45.34647" lon="-0.72261">
        <ele>3.4</ele>
        <time>2020-03-11T10:35:53Z</time>
      </trkpt>
      <trkpt lat="45.34626" lon="-0.72256">
        <ele>4</ele>
        <time>2020-03-11T10:35:53Z</time>
      </trkpt>
      <trkpt lat="45.3456" lon="-0.72234">
        <ele>3.6</ele>
        <time>2020-03-11T10:35:53Z</time>
      </trkpt>
      <trkpt lat="45.34492" lon="-0.72213">
        <ele>3.5</ele>
        <time>2020-03-11T10:35:53Z</time>
      </trkpt>
      <trkpt lat="45.34433" lon="-0.72194">
        <ele>4</ele>
        <time>2020-03-11T10:35:53Z</time>
      </trkpt>
      <trkpt lat="45.34397" lon="-0.72181">
        <ele>3.5</ele>
        <time>2020-03-11T10:35:53Z</time>
      </trkpt>
      <trkpt lat="45.34377" lon="-0.72174">
        <ele>3.8</ele>
        <time>2020-03-11T10:35:53Z</time>
      </trkpt>
      <trkpt lat="45.34353" lon="-0.72157">
        <ele>3.5</ele>
        <time>2020-03-11T10:35:53Z</time>
      </trkpt>
      <trkpt lat="45.34359" lon="-0.72124">
        <ele>2.9</ele>
        <time>2020-03-11T10:35:53Z</time>
      </trkpt>
      <trkpt lat="45.34381" lon="-0.72088">
        <ele>2.5</ele>
        <time>2020-03-11T10:35:53Z</time>
      </trkpt>
      <trkpt lat="45.34396" lon="-0.72066">
        <ele>3</ele>
        <time>2020-03-11T10:35:53Z</time>
      </trkpt>
      <trkpt lat="45.34413" lon="-0.72027">
        <ele>2.7</ele>
        <time>2020-03-11T10:35:53Z</time>
      </trkpt>
      <trkpt lat="45.34422" lon="-0.71997">
        <ele>2.8</ele>
        <time>2020-03-11T10:35:53Z</time>
      </trkpt>
      <trkpt lat="45.34407" lon="-0.71964">
        <ele>2.1</ele>
        <time>2020-03-11T10:35:53Z</time>
      </trkpt>
      <trkpt lat="45.34385" lon="-0.72004">
        <ele>2.8</ele>
        <time>2020-03-11T10:35:53Z</time>
      </trkpt>
      <trkpt lat="45.34363" lon="-0.72025">
        <ele>2.9</ele>
        <time>2020-03-11T10:35:53Z</time>
      </trkpt>
      <trkpt lat="45.34334" lon="-0.72046">
        <ele>3.6</ele>
        <time>2020-03-11T10:35:53Z</time>
      </trkpt>
      <trkpt lat="45.34276" lon="-0.72056">
        <ele>3.9</ele>
        <time>2020-03-11T10:35:53Z</time>
      </trkpt>
      <trkpt lat="45.34259" lon="-0.72066">
        <ele>3.2</ele>
        <time>2020-03-11T10:35:53Z</time>
      </trkpt>
      <trkpt lat="45.34238" lon="-0.7207">
        <ele>3</ele>
        <time>2020-03-11T10:35:53Z</time>
      </trkpt>
      <trkpt lat="45.34202" lon="-0.72078">
        <ele>3.6</ele>
        <time>2020-03-11T10:35:53Z</time>
      </trkpt>
      <trkpt lat="45.34144" lon="-0.72091">
        <ele>4.1</ele>
        <time>2020-03-11T10:35:53Z</time>
      </trkpt>
      <trkpt lat="45.34104" lon="-0.72083">
        <ele>4.7</ele>
        <time>2020-03-11T10:35:53Z</time>
      </trkpt>
      <trkpt lat="45.33868" lon="-0.72001">
        <ele>4.7</ele>
        <time>2020-03-11T10:35:53Z</time>
      </trkpt>
      <trkpt lat="45.33803" lon="-0.71981">
        <ele>4</ele>
        <time>2020-03-11T10:35:53Z</time>
      </trkpt>
      <trkpt lat="45.33747" lon="-0.71959">
        <ele>4</ele>
        <time>2020-03-11T10:35:53Z</time>
      </trkpt>
      <trkpt lat="45.33635" lon="-0.71915">
        <ele>4.8</ele>
        <time>2020-03-11T10:35:53Z</time>
      </trkpt>
      <trkpt lat="45.33379" lon="-0.71814">
        <ele>4.6</ele>
        <time>2020-03-11T10:35:53Z</time>
      </trkpt>
      <trkpt lat="45.33311" lon="-0.71789">
        <ele>4.7</ele>
        <time>2020-03-11T10:35:53Z</time>
      </trkpt>
      <trkpt lat="45.33205" lon="-0.71748">
        <ele>5</ele>
        <time>2020-03-11T10:35:53Z</time>
      </trkpt>
      <trkpt lat="45.33137" lon="-0.71723">
        <ele>4.9</ele>
        <time>2020-03-11T10:35:53Z</time>
      </trkpt>
      <trkpt lat="45.3308" lon="-0.71701">
        <ele>4.5</ele>
        <time>2020-03-11T10:35:53Z</time>
      </trkpt>
      <trkpt lat="45.3303" lon="-0.71681">
        <ele>4.5</ele>
        <time>2020-03-11T10:35:53Z</time>
      </trkpt>
      <trkpt lat="45.32978" lon="-0.71662">
        <ele>5</ele>
        <time>2020-03-11T10:35:53Z</time>
      </trkpt>
      <trkpt lat="45.3292" lon="-0.71637">
        <ele>5</ele>
        <time>2020-03-11T10:35:53Z</time>
      </trkpt>
      <trkpt lat="45.32886" lon="-0.71622">
        <ele>5</ele>
        <time>2020-03-11T10:35:53Z</time>
      </trkpt>
      <trkpt lat="45.32846" lon="-0.71601">
        <ele>4.3</ele>
        <time>2020-03-11T10:35:53Z</time>
      </trkpt>
      <trkpt lat="45.32816" lon="-0.71581">
        <ele>2.4</ele>
        <time>2020-03-11T10:35:53Z</time>
      </trkpt>
      <trkpt lat="45.32817" lon="-0.7155">
        <ele>2.5</ele>
        <time>2020-03-11T10:35:53Z</time>
      </trkpt>
      <trkpt lat="45.32817" lon="-0.71506">
        <ele>2.5</ele>
        <time>2020-03-11T10:35:53Z</time>
      </trkpt>
      <trkpt lat="45.32817" lon="-0.71467">
        <ele>1.8</ele>
        <time>2020-03-11T10:35:53Z</time>
      </trkpt>
      <trkpt lat="45.32816" lon="-0.71426">
        <ele>2.2</ele>
        <time>2020-03-11T10:35:53Z</time>
      </trkpt>
      <trkpt lat="45.32814" lon="-0.71385">
        <ele>2.7</ele>
        <time>2020-03-11T10:35:53Z</time>
      </trkpt>
      <trkpt lat="45.32811" lon="-0.71343">
        <ele>3.2</ele>
        <time>2020-03-11T10:35:53Z</time>
      </trkpt>
      <trkpt lat="45.32807" lon="-0.71298">
        <ele>4</ele>
        <time>2020-03-11T10:35:53Z</time>
      </trkpt>
      <trkpt lat="45.32803" lon="-0.71254">
        <ele>4</ele>
        <time>2020-03-11T10:35:53Z</time>
      </trkpt>
      <trkpt lat="45.32796" lon="-0.71203">
        <ele>3.3</ele>
        <time>2020-03-11T10:35:53Z</time>
      </trkpt>
      <trkpt lat="45.32788" lon="-0.71156">
        <ele>3</ele>
        <time>2020-03-11T10:35:53Z</time>
      </trkpt>
      <trkpt lat="45.32781" lon="-0.71122">
        <ele>3.9</ele>
        <time>2020-03-11T10:35:53Z</time>
      </trkpt>
      <trkpt lat="45.32778" lon="-0.71091">
        <ele>4</ele>
        <time>2020-03-11T10:35:53Z</time>
      </trkpt>
      <trkpt lat="45.32775" lon="-0.7106">
        <ele>3.8</ele>
        <time>2020-03-11T10:35:53Z</time>
      </trkpt>
      <trkpt lat="45.32774" lon="-0.71031">
        <ele>3.6</ele>
        <time>2020-03-11T10:35:53Z</time>
      </trkpt>
      <trkpt lat="45.32773" lon="-0.71001">
        <ele>2.7</ele>
        <time>2020-03-11T10:35:53Z</time>
      </trkpt>
      <trkpt lat="45.32772" lon="-0.70945">
        <ele>3.6</ele>
        <time>2020-03-11T10:35:53Z</time>
      </trkpt>
      <trkpt lat="45.32773" lon="-0.70903">
        <ele>3.2</ele>
        <time>2020-03-11T10:35:53Z</time>
      </trkpt>
      <trkpt lat="45.32775" lon="-0.70869">
        <ele>3.8</ele>
        <time>2020-03-11T10:35:53Z</time>
      </trkpt>
      <trkpt lat="45.32778" lon="-0.70842">
        <ele>4</ele>
        <time>2020-03-11T10:35:53Z</time>
      </trkpt>
      <trkpt lat="45.32786" lon="-0.70797">
        <ele>2.8</ele>
        <time>2020-03-11T10:35:53Z</time>
      </trkpt>
      <trkpt lat="45.32793" lon="-0.70763">
        <ele>2.2</ele>
        <time>2020-03-11T10:35:53Z</time>
      </trkpt>
      <trkpt lat="45.32758" lon="-0.70745">
        <ele>2.8</ele>
        <time>2020-03-11T10:35:53Z</time>
      </trkpt>
      <trkpt lat="45.32741" lon="-0.70735">
        <ele>2.7</ele>
        <time>2020-03-11T10:35:53Z</time>
      </trkpt>
      <trkpt lat="45.32718" lon="-0.70733">
        <ele>2.1</ele>
        <time>2020-03-11T10:35:53Z</time>
      </trkpt>
      <trkpt lat="45.32701" lon="-0.70742">
        <ele>2.2</ele>
        <time>2020-03-11T10:35:53Z</time>
      </trkpt>
      <trkpt lat="45.32684" lon="-0.70754">
        <ele>2.5</ele>
        <time>2020-03-11T10:35:53Z</time>
      </trkpt>
      <trkpt lat="45.32664" lon="-0.70764">
        <ele>3</ele>
        <time>2020-03-11T10:35:53Z</time>
      </trkpt>
      <trkpt lat="45.32639" lon="-0.70739">
        <ele>3</ele>
        <time>2020-03-11T10:35:53Z</time>
      </trkpt>
      <trkpt lat="45.32628" lon="-0.70718">
        <ele>2.6</ele>
        <time>2020-03-11T10:35:53Z</time>
      </trkpt>
      <trkpt lat="45.32604" lon="-0.70675">
        <ele>2.1</ele>
        <time>2020-03-11T10:35:53Z</time>
      </trkpt>
      <trkpt lat="45.32591" lon="-0.70654">
        <ele>2</ele>
        <time>2020-03-11T10:35:53Z</time>
      </trkpt>
      <trkpt lat="45.32532" lon="-0.70548">
        <ele>2</ele>
        <time>2020-03-11T10:35:53Z</time>
      </trkpt>
      <trkpt lat="45.32481" lon="-0.70455">
        <ele>2</ele>
        <time>2020-03-11T10:35:53Z</time>
      </trkpt>
      <trkpt lat="45.32466" lon="-0.70428">
        <ele>2</ele>
        <time>2020-03-11T10:35:53Z</time>
      </trkpt>
      <trkpt lat="45.32404" lon="-0.70316">
        <ele>2</ele>
        <time>2020-03-11T10:35:53Z</time>
      </trkpt>
      <trkpt lat="45.32392" lon="-0.70294">
        <ele>2</ele>
        <time>2020-03-11T10:35:53Z</time>
      </trkpt>
      <trkpt lat="45.32378" lon="-0.70272">
        <ele>1.9</ele>
        <time>2020-03-11T10:35:53Z</time>
      </trkpt>
      <trkpt lat="45.32341" lon="-0.70213">
        <ele>1.6</ele>
        <time>2020-03-11T10:35:53Z</time>
      </trkpt>
      <trkpt lat="45.32323" lon="-0.70182">
        <ele>1.4</ele>
        <time>2020-03-11T10:35:53Z</time>
      </trkpt>
      <trkpt lat="45.32301" lon="-0.7014">
        <ele>1.2</ele>
        <time>2020-03-11T10:35:53Z</time>
      </trkpt>
      <trkpt lat="45.32276" lon="-0.70094">
        <ele>1.1</ele>
        <time>2020-03-11T10:35:53Z</time>
      </trkpt>
      <trkpt lat="45.32261" lon="-0.7007">
        <ele>1.8</ele>
        <time>2020-03-11T10:35:53Z</time>
      </trkpt>
      <trkpt lat="45.32238" lon="-0.70059">
        <ele>2</ele>
        <time>2020-03-11T10:35:53Z</time>
      </trkpt>
      <trkpt lat="45.32203" lon="-0.70051">
        <ele>1.9</ele>
        <time>2020-03-11T10:35:53Z</time>
      </trkpt>
      <trkpt lat="45.32125" lon="-0.70032">
        <ele>1.1</ele>
        <time>2020-03-11T10:35:53Z</time>
      </trkpt>
      <trkpt lat="45.32027" lon="-0.70009">
        <ele>1.3</ele>
        <time>2020-03-11T10:35:53Z</time>
      </trkpt>
      <trkpt lat="45.32008" lon="-0.69995">
        <ele>1.7</ele>
        <time>2020-03-11T10:35:53Z</time>
      </trkpt>
      <trkpt lat="45.31983" lon="-0.69986">
        <ele>2</ele>
        <time>2020-03-11T10:35:53Z</time>
      </trkpt>
      <trkpt lat="45.31828" lon="-0.69951">
        <ele>1.4</ele>
        <time>2020-03-11T10:35:53Z</time>
      </trkpt>
      <trkpt lat="45.31808" lon="-0.69952">
        <ele>1.9</ele>
        <time>2020-03-11T10:35:53Z</time>
      </trkpt>
      <trkpt lat="45.31822" lon="-0.70027">
        <ele>2</ele>
        <time>2020-03-11T10:35:53Z</time>
      </trkpt>
      <trkpt lat="45.31948" lon="-0.7055">
        <ele>2</ele>
        <time>2020-03-11T10:35:53Z</time>
      </trkpt>
      <trkpt lat="45.3198" lon="-0.70684">
        <ele>1.6</ele>
        <time>2020-03-11T10:35:53Z</time>
      </trkpt>
      <trkpt lat="45.31987" lon="-0.70712">
        <ele>1.8</ele>
        <time>2020-03-11T10:35:53Z</time>
      </trkpt>
      <trkpt lat="45.31964" lon="-0.70733">
        <ele>2.3</ele>
        <time>2020-03-11T10:35:53Z</time>
      </trkpt>
      <trkpt lat="45.31969" lon="-0.70788">
        <ele>2.6</ele>
        <time>2020-03-11T10:35:53Z</time>
      </trkpt>
      <trkpt lat="45.31979" lon="-0.70838">
        <ele>1.8</ele>
        <time>2020-03-11T10:35:53Z</time>
      </trkpt>
      <trkpt lat="45.31979" lon="-0.70865">
        <ele>2.2</ele>
        <time>2020-03-11T10:35:53Z</time>
      </trkpt>
      <trkpt lat="45.31973" lon="-0.70895">
        <ele>2</ele>
        <time>2020-03-11T10:35:53Z</time>
      </trkpt>
      <trkpt lat="45.31983" lon="-0.70923">
        <ele>2.3</ele>
        <time>2020-03-11T10:35:53Z</time>
      </trkpt>
      <trkpt lat="45.31991" lon="-0.70949">
        <ele>2.1</ele>
        <time>2020-03-11T10:35:53Z</time>
      </trkpt>
      <trkpt lat="45.31933" lon="-0.70891">
        <ele>2</ele>
        <time>2020-03-11T10:35:53Z</time>
      </trkpt>
      <trkpt lat="45.31494" lon="-0.70202">
        <ele>1.9</ele>
        <time>2020-03-11T10:35:53Z</time>
      </trkpt>
      <trkpt lat="45.31279" lon="-0.69873">
        <ele>2.4</ele>
        <time>2020-03-11T10:35:53Z</time>
      </trkpt>
      <trkpt lat="45.31222" lon="-0.69785">
        <ele>2.3</ele>
        <time>2020-03-11T10:35:53Z</time>
      </trkpt>
      <trkpt lat="45.31107" lon="-0.69609">
        <ele>2</ele>
        <time>2020-03-11T10:35:53Z</time>
      </trkpt>
      <trkpt lat="45.3102" lon="-0.69476">
        <ele>2.4</ele>
        <time>2020-03-11T10:35:53Z</time>
      </trkpt>
      <trkpt lat="45.30587" lon="-0.68809">
        <ele>2.8</ele>
        <time>2020-03-11T10:35:53Z</time>
      </trkpt>
      <trkpt lat="45.30371" lon="-0.68471">
        <ele>3</ele>
        <time>2020-03-11T10:35:53Z</time>
      </trkpt>
      <trkpt lat="45.30344" lon="-0.68454">
        <ele>2.1</ele>
        <time>2020-03-11T10:35:53Z</time>
      </trkpt>
      <trkpt lat="45.30098" lon="-0.68378">
        <ele>1.3</ele>
        <time>2020-03-11T10:35:53Z</time>
      </trkpt>
      <trkpt lat="45.29562" lon="-0.68218">
        <ele>1</ele>
        <time>2020-03-11T10:35:53Z</time>
      </trkpt>
      <trkpt lat="45.29131" lon="-0.68089">
        <ele>1</ele>
        <time>2020-03-11T10:35:53Z</time>
      </trkpt>
      <trkpt lat="45.28755" lon="-0.67977">
        <ele>1</ele>
        <time>2020-03-11T10:35:53Z</time>
      </trkpt>
      <trkpt lat="45.28677" lon="-0.67954">
        <ele>1</ele>
        <time>2020-03-11T10:35:53Z</time>
      </trkpt>
      <trkpt lat="45.28645" lon="-0.68305">
        <ele>1</ele>
        <time>2020-03-11T10:35:53Z</time>
      </trkpt>
      <trkpt lat="45.28577" lon="-0.69006">
        <ele>2</ele>
        <time>2020-03-11T10:35:53Z</time>
      </trkpt>
      <trkpt lat="45.28521" lon="-0.69609">
        <ele>2.8</ele>
        <time>2020-03-11T10:35:53Z</time>
      </trkpt>
      <trkpt lat="45.28503" lon="-0.69843">
        <ele>3.2</ele>
        <time>2020-03-11T10:35:53Z</time>
      </trkpt>
      <trkpt lat="45.28476" lon="-0.69844">
        <ele>2.2</ele>
        <time>2020-03-11T10:35:53Z</time>
      </trkpt>
      <trkpt lat="45.28461" lon="-0.6986">
        <ele>2</ele>
        <time>2020-03-11T10:35:53Z</time>
      </trkpt>
      <trkpt lat="45.28457" lon="-0.69898">
        <ele>2</ele>
        <time>2020-03-11T10:35:53Z</time>
      </trkpt>
      <trkpt lat="45.28454" lon="-0.69938">
        <ele>2</ele>
        <time>2020-03-11T10:35:53Z</time>
      </trkpt>
      <trkpt lat="45.28452" lon="-0.69979">
        <ele>2.2</ele>
        <time>2020-03-11T10:35:53Z</time>
      </trkpt>
      <trkpt lat="45.28448" lon="-0.7005">
        <ele>3</ele>
        <time>2020-03-11T10:35:53Z</time>
      </trkpt>
      <trkpt lat="45.28433" lon="-0.70073">
        <ele>3.6</ele>
        <time>2020-03-11T10:35:53Z</time>
      </trkpt>
      <trkpt lat="45.28413" lon="-0.70067">
        <ele>3.4</ele>
        <time>2020-03-11T10:35:53Z</time>
      </trkpt>
      <trkpt lat="45.28137" lon="-0.69972">
        <ele>3</ele>
        <time>2020-03-11T10:35:53Z</time>
      </trkpt>
      <trkpt lat="45.28119" lon="-0.69966">
        <ele>3</ele>
        <time>2020-03-11T10:35:53Z</time>
      </trkpt>
      <trkpt lat="45.27951" lon="-0.69907">
        <ele>3</ele>
        <time>2020-03-11T10:35:53Z</time>
      </trkpt>
      <trkpt lat="45.27793" lon="-0.69851">
        <ele>3.3</ele>
        <time>2020-03-11T10:35:53Z</time>
      </trkpt>
      <trkpt lat="45.27665" lon="-0.69821">
        <ele>3</ele>
        <time>2020-03-11T10:35:53Z</time>
      </trkpt>
      <trkpt lat="45.27447" lon="-0.69771">
        <ele>2.8</ele>
        <time>2020-03-11T10:35:53Z</time>
      </trkpt>
      <trkpt lat="45.27397" lon="-0.69761">
        <ele>2.3</ele>
        <time>2020-03-11T10:35:53Z</time>
      </trkpt>
      <trkpt lat="45.27212" lon="-0.69722">
        <ele>3</ele>
        <time>2020-03-11T10:35:53Z</time>
      </trkpt>
      <trkpt lat="45.27042" lon="-0.69687">
        <ele>3</ele>
        <time>2020-03-11T10:35:53Z</time>
      </trkpt>
      <trkpt lat="45.26835" lon="-0.69639">
        <ele>3</ele>
        <time>2020-03-11T10:35:53Z</time>
      </trkpt>
      <trkpt lat="45.26734" lon="-0.69618">
        <ele>3.2</ele>
        <time>2020-03-11T10:35:53Z</time>
      </trkpt>
      <trkpt lat="45.26592" lon="-0.69586">
        <ele>3.1</ele>
        <time>2020-03-11T10:35:53Z</time>
      </trkpt>
      <trkpt lat="45.26549" lon="-0.69578">
        <ele>3</ele>
        <time>2020-03-11T10:35:53Z</time>
      </trkpt>
      <trkpt lat="45.26539" lon="-0.6953">
        <ele>2.4</ele>
        <time>2020-03-11T10:35:53Z</time>
      </trkpt>
      <trkpt lat="45.26546" lon="-0.69412">
        <ele>1.7</ele>
        <time>2020-03-11T10:35:53Z</time>
      </trkpt>
      <trkpt lat="45.26547" lon="-0.69357">
        <ele>2</ele>
        <time>2020-03-11T10:35:53Z</time>
      </trkpt>
      <trkpt lat="45.26533" lon="-0.69329">
        <ele>1.9</ele>
        <time>2020-03-11T10:35:53Z</time>
      </trkpt>
      <trkpt lat="45.265" lon="-0.69323">
        <ele>3</ele>
        <time>2020-03-11T10:35:53Z</time>
      </trkpt>
      <trkpt lat="45.26522" lon="-0.69017">
        <ele>2</ele>
        <time>2020-03-11T10:35:53Z</time>
      </trkpt>
      <trkpt lat="45.26548" lon="-0.68636">
        <ele>1.3</ele>
        <time>2020-03-11T10:35:53Z</time>
      </trkpt>
      <trkpt lat="45.26563" lon="-0.68414">
        <ele>1.7</ele>
        <time>2020-03-11T10:35:53Z</time>
      </trkpt>
      <trkpt lat="45.2659" lon="-0.68003">
        <ele>1.9</ele>
        <time>2020-03-11T10:35:53Z</time>
      </trkpt>
      <trkpt lat="45.26621" lon="-0.67521">
        <ele>1</ele>
        <time>2020-03-11T10:35:53Z</time>
      </trkpt>
      <trkpt lat="45.26633" lon="-0.67341">
        <ele>1.2</ele>
        <time>2020-03-11T10:35:53Z</time>
      </trkpt>
      <trkpt lat="45.26109" lon="-0.67183">
        <ele>1</ele>
        <time>2020-03-11T10:35:53Z</time>
      </trkpt>
      <trkpt lat="45.25538" lon="-0.67011">
        <ele>1</ele>
        <time>2020-03-11T10:35:53Z</time>
      </trkpt>
      <trkpt lat="45.2549" lon="-0.67006">
        <ele>1</ele>
        <time>2020-03-11T10:35:53Z</time>
      </trkpt>
      <trkpt lat="45.25525" lon="-0.66763">
        <ele>1</ele>
        <time>2020-03-11T10:35:53Z</time>
      </trkpt>
      <trkpt lat="45.25569" lon="-0.66475">
        <ele>1</ele>
        <time>2020-03-11T10:35:53Z</time>
      </trkpt>
      <trkpt lat="45.25707" lon="-0.65566">
        <ele>1</ele>
        <time>2020-03-11T10:35:53Z</time>
      </trkpt>
      <trkpt lat="45.25795" lon="-0.65006">
        <ele>1</ele>
        <time>2020-03-11T10:35:53Z</time>
      </trkpt>
      <trkpt lat="45.25839" lon="-0.64717">
        <ele>1</ele>
        <time>2020-03-11T10:35:53Z</time>
      </trkpt>
      <trkpt lat="45.25854" lon="-0.64619">
        <ele>1</ele>
        <time>2020-03-11T10:35:53Z</time>
      </trkpt>
      <trkpt lat="45.25926" lon="-0.64142">
        <ele>1</ele>
        <time>2020-03-11T10:35:53Z</time>
      </trkpt>
      <trkpt lat="45.26017" lon="-0.63579">
        <ele>1</ele>
        <time>2020-03-11T10:35:53Z</time>
      </trkpt>
      <trkpt lat="45.26077" lon="-0.63191">
        <ele>1.2</ele>
        <time>2020-03-11T10:35:53Z</time>
      </trkpt>
      <trkpt lat="45.26116" lon="-0.62932">
        <ele>2</ele>
        <time>2020-03-11T10:35:53Z</time>
      </trkpt>
      <trkpt lat="45.26124" lon="-0.6288">
        <ele>2.5</ele>
        <time>2020-03-11T10:35:53Z</time>
      </trkpt>
      <trkpt lat="45.26095" lon="-0.62869">
        <ele>2.3</ele>
        <time>2020-03-11T10:35:53Z</time>
      </trkpt>
      <trkpt lat="45.26071" lon="-0.62874">
        <ele>2</ele>
        <time>2020-03-11T10:35:53Z</time>
      </trkpt>
      <trkpt lat="45.25842" lon="-0.63095">
        <ele>2</ele>
        <time>2020-03-11T10:35:53Z</time>
      </trkpt>
      <trkpt lat="45.25647" lon="-0.63271">
        <ele>1.8</ele>
        <time>2020-03-11T10:35:53Z</time>
      </trkpt>
      <trkpt lat="45.25419" lon="-0.63493">
        <ele>1</ele>
        <time>2020-03-11T10:35:53Z</time>
      </trkpt>
      <trkpt lat="45.25282" lon="-0.63613">
        <ele>2</ele>
        <time>2020-03-11T10:35:53Z</time>
      </trkpt>
      <trkpt lat="45.25243" lon="-0.63514">
        <ele>2.3</ele>
        <time>2020-03-11T10:35:53Z</time>
      </trkpt>
      <trkpt lat="45.25229" lon="-0.63478">
        <ele>2.8</ele>
        <time>2020-03-11T10:35:53Z</time>
      </trkpt>
      <trkpt lat="45.25219" lon="-0.6344">
        <ele>3</ele>
        <time>2020-03-11T10:35:53Z</time>
      </trkpt>
      <trkpt lat="45.2519" lon="-0.63307">
        <ele>3.2</ele>
        <time>2020-03-11T10:35:53Z</time>
      </trkpt>
      <trkpt lat="45.25115" lon="-0.63205">
        <ele>3.3</ele>
        <time>2020-03-11T10:35:53Z</time>
      </trkpt>
      <trkpt lat="45.25056" lon="-0.63181">
        <ele>3.5</ele>
        <time>2020-03-11T10:35:53Z</time>
      </trkpt>
      <trkpt lat="45.25038" lon="-0.63167">
        <ele>3</ele>
        <time>2020-03-11T10:35:53Z</time>
      </trkpt>
      <trkpt lat="45.25019" lon="-0.6313">
        <ele>3.3</ele>
        <time>2020-03-11T10:35:53Z</time>
      </trkpt>
      <trkpt lat="45.24999" lon="-0.63104">
        <ele>3.8</ele>
        <time>2020-03-11T10:35:53Z</time>
      </trkpt>
      <trkpt lat="45.2495" lon="-0.63066">
        <ele>4</ele>
        <time>2020-03-11T10:35:53Z</time>
      </trkpt>
      <trkpt lat="45.24984" lon="-0.62913">
        <ele>5</ele>
        <time>2020-03-11T10:35:53Z</time>
      </trkpt>
      <trkpt lat="45.24941" lon="-0.62853">
        <ele>5</ele>
        <time>2020-03-11T10:35:53Z</time>
      </trkpt>
      <trkpt lat="45.24893" lon="-0.62804">
        <ele>6</ele>
        <time>2020-03-11T10:35:53Z</time>
      </trkpt>
      <trkpt lat="45.24883" lon="-0.62781">
        <ele>5.8</ele>
        <time>2020-03-11T10:35:53Z</time>
      </trkpt>
      <trkpt lat="45.24871" lon="-0.62753">
        <ele>5.9</ele>
        <time>2020-03-11T10:35:53Z</time>
      </trkpt>
      <trkpt lat="45.24833" lon="-0.62668">
        <ele>6</ele>
        <time>2020-03-11T10:35:53Z</time>
      </trkpt>
      <trkpt lat="45.24809" lon="-0.62569">
        <ele>7</ele>
        <time>2020-03-11T10:35:53Z</time>
      </trkpt>
      <trkpt lat="45.2478" lon="-0.62506">
        <ele>8</ele>
        <time>2020-03-11T10:35:53Z</time>
      </trkpt>
      <trkpt lat="45.24742" lon="-0.62429">
        <ele>8</ele>
        <time>2020-03-11T10:35:53Z</time>
      </trkpt>
      <trkpt lat="45.24697" lon="-0.62373">
        <ele>9</ele>
        <time>2020-03-11T10:35:53Z</time>
      </trkpt>
      <trkpt lat="45.24625" lon="-0.62283">
        <ele>10</ele>
        <time>2020-03-11T10:35:53Z</time>
      </trkpt>
      <trkpt lat="45.24566" lon="-0.62223">
        <ele>10.6</ele>
        <time>2020-03-11T10:35:53Z</time>
      </trkpt>
      <trkpt lat="45.24518" lon="-0.62174">
        <ele>11.3</ele>
        <time>2020-03-11T10:35:53Z</time>
      </trkpt>
      <trkpt lat="45.24497" lon="-0.62147">
        <ele>12</ele>
        <time>2020-03-11T10:35:53Z</time>
      </trkpt>
      <trkpt lat="45.24464" lon="-0.621">
        <ele>12.3</ele>
        <time>2020-03-11T10:35:53Z</time>
      </trkpt>
      <trkpt lat="45.24442" lon="-0.62053">
        <ele>13.1</ele>
        <time>2020-03-11T10:35:53Z</time>
      </trkpt>
      <trkpt lat="45.24419" lon="-0.6201">
        <ele>14</ele>
        <time>2020-03-11T10:35:53Z</time>
      </trkpt>
      <trkpt lat="45.24402" lon="-0.61983">
        <ele>14</ele>
        <time>2020-03-11T10:35:53Z</time>
      </trkpt>
      <trkpt lat="45.24386" lon="-0.61969">
        <ele>14</ele>
        <time>2020-03-11T10:35:53Z</time>
      </trkpt>
      <trkpt lat="45.24369" lon="-0.61946">
        <ele>14</ele>
        <time>2020-03-11T10:35:53Z</time>
      </trkpt>
      <trkpt lat="45.24335" lon="-0.619">
        <ele>14.6</ele>
        <time>2020-03-11T10:35:53Z</time>
      </trkpt>
      <trkpt lat="45.24358" lon="-0.61847">
        <ele>15</ele>
        <time>2020-03-11T10:35:53Z</time>
      </trkpt>
      <trkpt lat="45.24373" lon="-0.61815">
        <ele>15.4</ele>
        <time>2020-03-11T10:35:53Z</time>
      </trkpt>
      <trkpt lat="45.24421" lon="-0.61735">
        <ele>16.2</ele>
        <time>2020-03-11T10:35:53Z</time>
      </trkpt>
      <trkpt lat="45.24448" lon="-0.61672">
        <ele>17</ele>
        <time>2020-03-11T10:35:53Z</time>
      </trkpt>
      <trkpt lat="45.24463" lon="-0.6164">
        <ele>17</ele>
        <time>2020-03-11T10:35:53Z</time>
      </trkpt>
      <trkpt lat="45.24481" lon="-0.61615">
        <ele>17.6</ele>
        <time>2020-03-11T10:35:53Z</time>
      </trkpt>
      <trkpt lat="45.24459" lon="-0.61541">
        <ele>17</ele>
        <time>2020-03-11T10:35:53Z</time>
      </trkpt>
      <trkpt lat="45.24429" lon="-0.61421">
        <ele>17</ele>
        <time>2020-03-11T10:35:53Z</time>
      </trkpt>
      <trkpt lat="45.24403" lon="-0.61343">
        <ele>17</ele>
        <time>2020-03-11T10:35:53Z</time>
      </trkpt>
      <trkpt lat="45.24394" lon="-0.6129">
        <ele>17.2</ele>
        <time>2020-03-11T10:35:53Z</time>
      </trkpt>
      <trkpt lat="45.24399" lon="-0.61247">
        <ele>17.4</ele>
        <time>2020-03-11T10:35:53Z</time>
      </trkpt>
      <trkpt lat="45.24418" lon="-0.6121">
        <ele>18</ele>
        <time>2020-03-11T10:35:53Z</time>
      </trkpt>
      <trkpt lat="45.24453" lon="-0.61167">
        <ele>18</ele>
        <time>2020-03-11T10:35:53Z</time>
      </trkpt>
      <trkpt lat="45.24477" lon="-0.61127">
        <ele>19</ele>
        <time>2020-03-11T10:35:53Z</time>
      </trkpt>
      <trkpt lat="45.24488" lon="-0.61086">
        <ele>19</ele>
        <time>2020-03-11T10:35:53Z</time>
      </trkpt>
      <trkpt lat="45.24486" lon="-0.61026">
        <ele>19</ele>
        <time>2020-03-11T10:35:53Z</time>
      </trkpt>
      <trkpt lat="45.24518" lon="-0.60961">
        <ele>19.3</ele>
        <time>2020-03-11T10:35:53Z</time>
      </trkpt>
      <trkpt lat="45.24551" lon="-0.60908">
        <ele>20</ele>
        <time>2020-03-11T10:35:53Z</time>
      </trkpt>
      <trkpt lat="45.2457" lon="-0.60854">
        <ele>20</ele>
        <time>2020-03-11T10:35:53Z</time>
      </trkpt>
      <trkpt lat="45.24577" lon="-0.60732">
        <ele>19.9</ele>
        <time>2020-03-11T10:35:53Z</time>
      </trkpt>
      <trkpt lat="45.24598" lon="-0.6065">
        <ele>19.8</ele>
        <time>2020-03-11T10:35:53Z</time>
      </trkpt>
      <trkpt lat="45.24625" lon="-0.60526">
        <ele>20.5</ele>
        <time>2020-03-11T10:35:53Z</time>
      </trkpt>
      <trkpt lat="45.24649" lon="-0.60396">
        <ele>21.4</ele>
        <time>2020-03-11T10:35:53Z</time>
      </trkpt>
      <trkpt lat="45.24687" lon="-0.60213">
        <ele>23</ele>
        <time>2020-03-11T10:35:53Z</time>
      </trkpt>
      <trkpt lat="45.24706" lon="-0.60114">
        <ele>23.4</ele>
        <time>2020-03-11T10:35:53Z</time>
      </trkpt>
      <trkpt lat="45.24736" lon="-0.59974">
        <ele>24</ele>
        <time>2020-03-11T10:35:53Z</time>
      </trkpt>
      <trkpt lat="45.24754" lon="-0.59891">
        <ele>24</ele>
        <time>2020-03-11T10:35:53Z</time>
      </trkpt>
      <trkpt lat="45.24752" lon="-0.59818">
        <ele>24</ele>
        <time>2020-03-11T10:35:53Z</time>
      </trkpt>
      <trkpt lat="45.24758" lon="-0.59753">
        <ele>25</ele>
        <time>2020-03-11T10:35:53Z</time>
      </trkpt>
      <trkpt lat="45.2477" lon="-0.59689">
        <ele>25</ele>
        <time>2020-03-11T10:35:53Z</time>
      </trkpt>
      <trkpt lat="45.24785" lon="-0.59614">
        <ele>25.3</ele>
        <time>2020-03-11T10:35:53Z</time>
      </trkpt>
      <trkpt lat="45.24783" lon="-0.59584">
        <ele>25.2</ele>
        <time>2020-03-11T10:35:53Z</time>
      </trkpt>
      <trkpt lat="45.24774" lon="-0.59528">
        <ele>24.9</ele>
        <time>2020-03-11T10:35:53Z</time>
      </trkpt>
      <trkpt lat="45.24769" lon="-0.59492">
        <ele>24.7</ele>
        <time>2020-03-11T10:35:53Z</time>
      </trkpt>
      <trkpt lat="45.24776" lon="-0.59446">
        <ele>25</ele>
        <time>2020-03-11T10:35:53Z</time>
      </trkpt>
      <trkpt lat="45.24805" lon="-0.5935">
        <ele>26</ele>
        <time>2020-03-11T10:35:53Z</time>
      </trkpt>
      <trkpt lat="45.24815" lon="-0.59298">
        <ele>25.3</ele>
        <time>2020-03-11T10:35:53Z</time>
      </trkpt>
      <trkpt lat="45.24823" lon="-0.59219">
        <ele>25</ele>
        <time>2020-03-11T10:35:53Z</time>
      </trkpt>
      <trkpt lat="45.24835" lon="-0.5917">
        <ele>24.2</ele>
        <time>2020-03-11T10:35:53Z</time>
      </trkpt>
      <trkpt lat="45.24863" lon="-0.59101">
        <ele>23.7</ele>
        <time>2020-03-11T10:35:53Z</time>
      </trkpt>
      <trkpt lat="45.24869" lon="-0.59058">
        <ele>23</ele>
        <time>2020-03-11T10:35:53Z</time>
      </trkpt>
      <trkpt lat="45.24869" lon="-0.5899">
        <ele>22</ele>
        <time>2020-03-11T10:35:53Z</time>
      </trkpt>
      <trkpt lat="45.24867" lon="-0.58927">
        <ele>21</ele>
        <time>2020-03-11T10:35:53Z</time>
      </trkpt>
      <trkpt lat="45.24879" lon="-0.58834">
        <ele>19.6</ele>
        <time>2020-03-11T10:35:53Z</time>
      </trkpt>
      <trkpt lat="45.24862" lon="-0.58774">
        <ele>18</ele>
        <time>2020-03-11T10:35:53Z</time>
      </trkpt>
      <trkpt lat="45.24854" lon="-0.58718">
        <ele>17.1</ele>
        <time>2020-03-11T10:35:53Z</time>
      </trkpt>
      <trkpt lat="45.24842" lon="-0.58682">
        <ele>17</ele>
        <time>2020-03-11T10:35:53Z</time>
      </trkpt>
      <trkpt lat="45.248" lon="-0.58591">
        <ele>15.8</ele>
        <time>2020-03-11T10:35:53Z</time>
      </trkpt>
      <trkpt lat="45.24747" lon="-0.58511">
        <ele>14.4</ele>
        <time>2020-03-11T10:35:53Z</time>
      </trkpt>
      <trkpt lat="45.24702" lon="-0.58449">
        <ele>13.3</ele>
        <time>2020-03-11T10:35:53Z</time>
      </trkpt>
      <trkpt lat="45.24647" lon="-0.584">
        <ele>13</ele>
        <time>2020-03-11T10:35:53Z</time>
      </trkpt>
      <trkpt lat="45.24557" lon="-0.58332">
        <ele>12.1</ele>
        <time>2020-03-11T10:35:53Z</time>
      </trkpt>
      <trkpt lat="45.24515" lon="-0.58299">
        <ele>12</ele>
        <time>2020-03-11T10:35:53Z</time>
      </trkpt>
      <trkpt lat="45.24474" lon="-0.58251">
        <ele>12.1</ele>
        <time>2020-03-11T10:35:53Z</time>
      </trkpt>
      <trkpt lat="45.24442" lon="-0.5821">
        <ele>11.5</ele>
        <time>2020-03-11T10:35:53Z</time>
      </trkpt>
      <trkpt lat="45.24395" lon="-0.58145">
        <ele>10.2</ele>
        <time>2020-03-11T10:35:53Z</time>
      </trkpt>
      <trkpt lat="45.24375" lon="-0.58121">
        <ele>9.7</ele>
        <time>2020-03-11T10:35:53Z</time>
      </trkpt>
      <trkpt lat="45.24341" lon="-0.58096">
        <ele>8.5</ele>
        <time>2020-03-11T10:35:53Z</time>
      </trkpt>
      <trkpt lat="45.24322" lon="-0.58077">
        <ele>7.8</ele>
        <time>2020-03-11T10:35:53Z</time>
      </trkpt>
      <trkpt lat="45.24306" lon="-0.5801">
        <ele>7</ele>
        <time>2020-03-11T10:35:53Z</time>
      </trkpt>
      <trkpt lat="45.24288" lon="-0.57959">
        <ele>6.5</ele>
        <time>2020-03-11T10:35:53Z</time>
      </trkpt>
      <trkpt lat="45.24239" lon="-0.57887">
        <ele>5.9</ele>
        <time>2020-03-11T10:35:53Z</time>
      </trkpt>
      <trkpt lat="45.24219" lon="-0.57844">
        <ele>5.6</ele>
        <time>2020-03-11T10:35:53Z</time>
      </trkpt>
      <trkpt lat="45.24141" lon="-0.57651">
        <ele>6</ele>
        <time>2020-03-11T10:35:53Z</time>
      </trkpt>
      <trkpt lat="45.24123" lon="-0.57608">
        <ele>6.1</ele>
        <time>2020-03-11T10:35:53Z</time>
      </trkpt>
      <trkpt lat="45.2403" lon="-0.57616">
        <ele>6</ele>
        <time>2020-03-11T10:35:53Z</time>
      </trkpt>
      <trkpt lat="45.24005" lon="-0.5762">
        <ele>6</ele>
        <time>2020-03-11T10:35:53Z</time>
      </trkpt>
      <trkpt lat="45.2398" lon="-0.57628">
        <ele>6</ele>
        <time>2020-03-11T10:35:53Z</time>
      </trkpt>
      <trkpt lat="45.23842" lon="-0.57688">
        <ele>5.1</ele>
        <time>2020-03-11T10:35:53Z</time>
      </trkpt>
      <trkpt lat="45.23759" lon="-0.57724">
        <ele>5.3</ele>
        <time>2020-03-11T10:35:53Z</time>
      </trkpt>
      <trkpt lat="45.23734" lon="-0.57729">
        <ele>5</ele>
        <time>2020-03-11T10:35:53Z</time>
      </trkpt>
      <trkpt lat="45.23702" lon="-0.57733">
        <ele>5</ele>
        <time>2020-03-11T10:35:53Z</time>
      </trkpt>
      <trkpt lat="45.23665" lon="-0.57737">
        <ele>5</ele>
        <time>2020-03-11T10:35:53Z</time>
      </trkpt>
      <trkpt lat="45.23616" lon="-0.57733">
        <ele>5</ele>
        <time>2020-03-11T10:35:53Z</time>
      </trkpt>
      <trkpt lat="45.2356" lon="-0.57722">
        <ele>5</ele>
        <time>2020-03-11T10:35:53Z</time>
      </trkpt>
      <trkpt lat="45.23531" lon="-0.57718">
        <ele>5</ele>
        <time>2020-03-11T10:35:53Z</time>
      </trkpt>
      <trkpt lat="45.235" lon="-0.5771">
        <ele>5</ele>
        <time>2020-03-11T10:35:53Z</time>
      </trkpt>
      <trkpt lat="45.23462" lon="-0.57693">
        <ele>5</ele>
        <time>2020-03-11T10:35:53Z</time>
      </trkpt>
      <trkpt lat="45.2343" lon="-0.57681">
        <ele>5</ele>
        <time>2020-03-11T10:35:53Z</time>
      </trkpt>
      <trkpt lat="45.23364" lon="-0.57654">
        <ele>5</ele>
        <time>2020-03-11T10:35:53Z</time>
      </trkpt>
      <trkpt lat="45.23344" lon="-0.57647">
        <ele>5</ele>
        <time>2020-03-11T10:35:53Z</time>
      </trkpt>
      <trkpt lat="45.23308" lon="-0.57645">
        <ele>5</ele>
        <time>2020-03-11T10:35:53Z</time>
      </trkpt>
      <trkpt lat="45.23271" lon="-0.57652">
        <ele>5</ele>
        <time>2020-03-11T10:35:53Z</time>
      </trkpt>
      <trkpt lat="45.23233" lon="-0.57658">
        <ele>5</ele>
        <time>2020-03-11T10:35:53Z</time>
      </trkpt>
      <trkpt lat="45.23209" lon="-0.57656">
        <ele>5</ele>
        <time>2020-03-11T10:35:53Z</time>
      </trkpt>
      <trkpt lat="45.23184" lon="-0.5765">
        <ele>5</ele>
        <time>2020-03-11T10:35:53Z</time>
      </trkpt>
      <trkpt lat="45.23158" lon="-0.5764">
        <ele>5.3</ele>
        <time>2020-03-11T10:35:53Z</time>
      </trkpt>
      <trkpt lat="45.23122" lon="-0.57621">
        <ele>6</ele>
        <time>2020-03-11T10:35:53Z</time>
      </trkpt>
      <trkpt lat="45.22966" lon="-0.57532">
        <ele>7</ele>
        <time>2020-03-11T10:35:53Z</time>
      </trkpt>
      <trkpt lat="45.22911" lon="-0.57503">
        <ele>7</ele>
        <time>2020-03-11T10:35:53Z</time>
      </trkpt>
      <trkpt lat="45.2288" lon="-0.57491">
        <ele>7.2</ele>
        <time>2020-03-11T10:35:53Z</time>
      </trkpt>
      <trkpt lat="45.22846" lon="-0.57479">
        <ele>7</ele>
        <time>2020-03-11T10:35:53Z</time>
      </trkpt>
      <trkpt lat="45.22823" lon="-0.57472">
        <ele>7</ele>
        <time>2020-03-11T10:35:53Z</time>
      </trkpt>
      <trkpt lat="45.22795" lon="-0.57463">
        <ele>7</ele>
        <time>2020-03-11T10:35:53Z</time>
      </trkpt>
      <trkpt lat="45.22772" lon="-0.57454">
        <ele>7</ele>
        <time>2020-03-11T10:35:53Z</time>
      </trkpt>
      <trkpt lat="45.22748" lon="-0.57456">
        <ele>7</ele>
        <time>2020-03-11T10:35:53Z</time>
      </trkpt>
      <trkpt lat="45.22724" lon="-0.57458">
        <ele>6.5</ele>
        <time>2020-03-11T10:35:53Z</time>
      </trkpt>
      <trkpt lat="45.22679" lon="-0.57466">
        <ele>6</ele>
        <time>2020-03-11T10:35:53Z</time>
      </trkpt>
      <trkpt lat="45.22627" lon="-0.57489">
        <ele>5.6</ele>
        <time>2020-03-11T10:35:53Z</time>
      </trkpt>
      <trkpt lat="45.22567" lon="-0.57526">
        <ele>5.6</ele>
        <time>2020-03-11T10:35:53Z</time>
      </trkpt>
      <trkpt lat="45.22513" lon="-0.57578">
        <ele>5.6</ele>
        <time>2020-03-11T10:35:53Z</time>
      </trkpt>
      <trkpt lat="45.22481" lon="-0.57614">
        <ele>5.7</ele>
        <time>2020-03-11T10:35:53Z</time>
      </trkpt>
      <trkpt lat="45.22426" lon="-0.57681">
        <ele>5.5</ele>
        <time>2020-03-11T10:35:53Z</time>
      </trkpt>
      <trkpt lat="45.22375" lon="-0.57737">
        <ele>5.5</ele>
        <time>2020-03-11T10:35:53Z</time>
      </trkpt>
      <trkpt lat="45.22346" lon="-0.57761">
        <ele>5.5</ele>
        <time>2020-03-11T10:35:53Z</time>
      </trkpt>
      <trkpt lat="45.22305" lon="-0.57787">
        <ele>5.7</ele>
        <time>2020-03-11T10:35:53Z</time>
      </trkpt>
      <trkpt lat="45.22218" lon="-0.57838">
        <ele>6</ele>
        <time>2020-03-11T10:35:53Z</time>
      </trkpt>
      <trkpt lat="45.22139" lon="-0.57881">
        <ele>7</ele>
        <time>2020-03-11T10:35:53Z</time>
      </trkpt>
      <trkpt lat="45.21983" lon="-0.57967">
        <ele>6.6</ele>
        <time>2020-03-11T10:35:53Z</time>
      </trkpt>
      <trkpt lat="45.21825" lon="-0.58052">
        <ele>7.3</ele>
        <time>2020-03-11T10:35:53Z</time>
      </trkpt>
      <trkpt lat="45.21615" lon="-0.58168">
        <ele>9.8</ele>
        <time>2020-03-11T10:35:53Z</time>
      </trkpt>
      <trkpt lat="45.21419" lon="-0.58275">
        <ele>12.1</ele>
        <time>2020-03-11T10:35:53Z</time>
      </trkpt>
      <trkpt lat="45.21252" lon="-0.58366">
        <ele>14</ele>
        <time>2020-03-11T10:35:53Z</time>
      </trkpt>
      <trkpt lat="45.21165" lon="-0.58415">
        <ele>14.1</ele>
        <time>2020-03-11T10:35:53Z</time>
      </trkpt>
      <trkpt lat="45.21018" lon="-0.58496">
        <ele>12.1</ele>
        <time>2020-03-11T10:35:53Z</time>
      </trkpt>
      <trkpt lat="45.20798" lon="-0.58616">
        <ele>11.1</ele>
        <time>2020-03-11T10:35:53Z</time>
      </trkpt>
      <trkpt lat="45.20599" lon="-0.58723">
        <ele>11</ele>
        <time>2020-03-11T10:35:53Z</time>
      </trkpt>
      <trkpt lat="45.20518" lon="-0.58769">
        <ele>11</ele>
        <time>2020-03-11T10:35:53Z</time>
      </trkpt>
      <trkpt lat="45.20466" lon="-0.58802">
        <ele>11</ele>
        <time>2020-03-11T10:35:53Z</time>
      </trkpt>
      <trkpt lat="45.20416" lon="-0.58841">
        <ele>10.7</ele>
        <time>2020-03-11T10:35:53Z</time>
      </trkpt>
      <trkpt lat="45.20364" lon="-0.58885">
        <ele>10</ele>
        <time>2020-03-11T10:35:53Z</time>
      </trkpt>
      <trkpt lat="45.20312" lon="-0.58937">
        <ele>9.8</ele>
        <time>2020-03-11T10:35:53Z</time>
      </trkpt>
      <trkpt lat="45.20269" lon="-0.58987">
        <ele>10</ele>
        <time>2020-03-11T10:35:53Z</time>
      </trkpt>
      <trkpt lat="45.2022" lon="-0.59048">
        <ele>10.1</ele>
        <time>2020-03-11T10:35:53Z</time>
      </trkpt>
      <trkpt lat="45.20192" lon="-0.59091">
        <ele>11</ele>
        <time>2020-03-11T10:35:53Z</time>
      </trkpt>
      <trkpt lat="45.20163" lon="-0.59141">
        <ele>11</ele>
        <time>2020-03-11T10:35:53Z</time>
      </trkpt>
      <trkpt lat="45.2011" lon="-0.59232">
        <ele>11.7</ele>
        <time>2020-03-11T10:35:53Z</time>
      </trkpt>
      <trkpt lat="45.19978" lon="-0.59464">
        <ele>12.1</ele>
        <time>2020-03-11T10:35:53Z</time>
      </trkpt>
      <trkpt lat="45.19947" lon="-0.5952">
        <ele>11.9</ele>
        <time>2020-03-11T10:35:53Z</time>
      </trkpt>
      <trkpt lat="45.19905" lon="-0.59586">
        <ele>10.9</ele>
        <time>2020-03-11T10:35:53Z</time>
      </trkpt>
      <trkpt lat="45.19842" lon="-0.59672">
        <ele>11</ele>
        <time>2020-03-11T10:35:53Z</time>
      </trkpt>
      <trkpt lat="45.19785" lon="-0.59738">
        <ele>11.3</ele>
        <time>2020-03-11T10:35:53Z</time>
      </trkpt>
      <trkpt lat="45.19752" lon="-0.59771">
        <ele>11</ele>
        <time>2020-03-11T10:35:53Z</time>
      </trkpt>
      <trkpt lat="45.19707" lon="-0.59812">
        <ele>10.8</ele>
        <time>2020-03-11T10:35:53Z</time>
      </trkpt>
      <trkpt lat="45.19561" lon="-0.59923">
        <ele>9</ele>
        <time>2020-03-11T10:35:53Z</time>
      </trkpt>
      <trkpt lat="45.19409" lon="-0.60052">
        <ele>5.4</ele>
        <time>2020-03-11T10:35:53Z</time>
      </trkpt>
      <trkpt lat="45.19233" lon="-0.60212">
        <ele>7.4</ele>
        <time>2020-03-11T10:35:53Z</time>
      </trkpt>
      <trkpt lat="45.19122" lon="-0.60314">
        <ele>9.2</ele>
        <time>2020-03-11T10:35:53Z</time>
      </trkpt>
      <trkpt lat="45.19034" lon="-0.60389">
        <ele>11</ele>
        <time>2020-03-11T10:35:53Z</time>
      </trkpt>
      <trkpt lat="45.19006" lon="-0.60414">
        <ele>12</ele>
        <time>2020-03-11T10:35:53Z</time>
      </trkpt>
      <trkpt lat="45.18987" lon="-0.60432">
        <ele>12</ele>
        <time>2020-03-11T10:35:53Z</time>
      </trkpt>
      <trkpt lat="45.18953" lon="-0.60456">
        <ele>12</ele>
        <time>2020-03-11T10:35:53Z</time>
      </trkpt>
      <trkpt lat="45.18884" lon="-0.60498">
        <ele>12</ele>
        <time>2020-03-11T10:35:53Z</time>
      </trkpt>
      <trkpt lat="45.18853" lon="-0.60517">
        <ele>12</ele>
        <time>2020-03-11T10:35:53Z</time>
      </trkpt>
      <trkpt lat="45.1871" lon="-0.60612">
        <ele>13</ele>
        <time>2020-03-11T10:35:53Z</time>
      </trkpt>
      <trkpt lat="45.18643" lon="-0.60657">
        <ele>13.3</ele>
        <time>2020-03-11T10:35:53Z</time>
      </trkpt>
      <trkpt lat="45.18478" lon="-0.60769">
        <ele>14</ele>
        <time>2020-03-11T10:35:53Z</time>
      </trkpt>
      <trkpt lat="45.18457" lon="-0.60783">
        <ele>14</ele>
        <time>2020-03-11T10:35:53Z</time>
      </trkpt>
      <trkpt lat="45.18384" lon="-0.60833">
        <ele>14</ele>
        <time>2020-03-11T10:35:53Z</time>
      </trkpt>
      <trkpt lat="45.1828" lon="-0.60902">
        <ele>14</ele>
        <time>2020-03-11T10:35:53Z</time>
      </trkpt>
      <trkpt lat="45.18169" lon="-0.60979">
        <ele>14</ele>
        <time>2020-03-11T10:35:53Z</time>
      </trkpt>
      <trkpt lat="45.18071" lon="-0.61045">
        <ele>15</ele>
        <time>2020-03-11T10:35:53Z</time>
      </trkpt>
      <trkpt lat="45.17911" lon="-0.61154">
        <ele>17</ele>
        <time>2020-03-11T10:35:53Z</time>
      </trkpt>
      <trkpt lat="45.17759" lon="-0.61256">
        <ele>18</ele>
        <time>2020-03-11T10:35:53Z</time>
      </trkpt>
      <trkpt lat="45.17715" lon="-0.61287">
        <ele>18.3</ele>
        <time>2020-03-11T10:35:53Z</time>
      </trkpt>
      <trkpt lat="45.17679" lon="-0.61314">
        <ele>18.9</ele>
        <time>2020-03-11T10:35:53Z</time>
      </trkpt>
      <trkpt lat="45.17565" lon="-0.6139">
        <ele>19</ele>
        <time>2020-03-11T10:35:53Z</time>
      </trkpt>
      <trkpt lat="45.17485" lon="-0.61442">
        <ele>20</ele>
        <time>2020-03-11T10:35:53Z</time>
      </trkpt>
      <trkpt lat="45.17434" lon="-0.61479">
        <ele>21.4</ele>
        <time>2020-03-11T10:35:53Z</time>
      </trkpt>
      <trkpt lat="45.17372" lon="-0.61529">
        <ele>22</ele>
        <time>2020-03-11T10:35:53Z</time>
      </trkpt>
      <trkpt lat="45.17313" lon="-0.61583">
        <ele>24.5</ele>
        <time>2020-03-11T10:35:53Z</time>
      </trkpt>
      <trkpt lat="45.17268" lon="-0.6163">
        <ele>25.7</ele>
        <time>2020-03-11T10:35:53Z</time>
      </trkpt>
      <trkpt lat="45.17231" lon="-0.61682">
        <ele>28.5</ele>
        <time>2020-03-11T10:35:53Z</time>
      </trkpt>
      <trkpt lat="45.17192" lon="-0.61756">
        <ele>28</ele>
        <time>2020-03-11T10:35:53Z</time>
      </trkpt>
      <trkpt lat="45.17112" lon="-0.61899">
        <ele>27</ele>
        <time>2020-03-11T10:35:53Z</time>
      </trkpt>
      <trkpt lat="45.16931" lon="-0.62151">
        <ele>24.7</ele>
        <time>2020-03-11T10:35:53Z</time>
      </trkpt>
      <trkpt lat="45.16853" lon="-0.62269">
        <ele>23.7</ele>
        <time>2020-03-11T10:35:53Z</time>
      </trkpt>
      <trkpt lat="45.16821" lon="-0.62308">
        <ele>23.2</ele>
        <time>2020-03-11T10:35:53Z</time>
      </trkpt>
      <trkpt lat="45.16784" lon="-0.62354">
        <ele>21.9</ele>
        <time>2020-03-11T10:35:53Z</time>
      </trkpt>
      <trkpt lat="45.16735" lon="-0.62401">
        <ele>21.2</ele>
        <time>2020-03-11T10:35:53Z</time>
      </trkpt>
      <trkpt lat="45.16683" lon="-0.62436">
        <ele>21.4</ele>
        <time>2020-03-11T10:35:53Z</time>
      </trkpt>
      <trkpt lat="45.16576" lon="-0.62499">
        <ele>17.7</ele>
        <time>2020-03-11T10:35:53Z</time>
      </trkpt>
      <trkpt lat="45.16503" lon="-0.62544">
        <ele>18.3</ele>
        <time>2020-03-11T10:35:53Z</time>
      </trkpt>
      <trkpt lat="45.16414" lon="-0.626">
        <ele>20.1</ele>
        <time>2020-03-11T10:35:53Z</time>
      </trkpt>
      <trkpt lat="45.16353" lon="-0.62654">
        <ele>22.3</ele>
        <time>2020-03-11T10:35:53Z</time>
      </trkpt>
      <trkpt lat="45.16315" lon="-0.62701">
        <ele>23.7</ele>
        <time>2020-03-11T10:35:53Z</time>
      </trkpt>
      <trkpt lat="45.16287" lon="-0.62744">
        <ele>24</ele>
        <time>2020-03-11T10:35:53Z</time>
      </trkpt>
      <trkpt lat="45.16275" lon="-0.62769">
        <ele>23.9</ele>
        <time>2020-03-11T10:35:53Z</time>
      </trkpt>
      <trkpt lat="45.16233" lon="-0.62765">
        <ele>23.5</ele>
        <time>2020-03-11T10:35:53Z</time>
      </trkpt>
      <trkpt lat="45.16207" lon="-0.62765">
        <ele>24</ele>
        <time>2020-03-11T10:35:53Z</time>
      </trkpt>
      <trkpt lat="45.16181" lon="-0.62778">
        <ele>24.5</ele>
        <time>2020-03-11T10:35:53Z</time>
      </trkpt>
      <trkpt lat="45.16152" lon="-0.62803">
        <ele>26.1</ele>
        <time>2020-03-11T10:35:53Z</time>
      </trkpt>
      <trkpt lat="45.16128" lon="-0.62834">
        <ele>27.8</ele>
        <time>2020-03-11T10:35:53Z</time>
      </trkpt>
      <trkpt lat="45.161" lon="-0.62851">
        <ele>29.4</ele>
        <time>2020-03-11T10:35:53Z</time>
      </trkpt>
      <trkpt lat="45.16107" lon="-0.62897">
        <ele>28.7</ele>
        <time>2020-03-11T10:35:53Z</time>
      </trkpt>
      <trkpt lat="45.16106" lon="-0.62938">
        <ele>27.4</ele>
        <time>2020-03-11T10:35:53Z</time>
      </trkpt>
      <trkpt lat="45.16101" lon="-0.6302">
        <ele>24.3</ele>
        <time>2020-03-11T10:35:53Z</time>
      </trkpt>
      <trkpt lat="45.16093" lon="-0.6311">
        <ele>24.3</ele>
        <time>2020-03-11T10:35:53Z</time>
      </trkpt>
      <trkpt lat="45.16088" lon="-0.63163">
        <ele>25.6</ele>
        <time>2020-03-11T10:35:53Z</time>
      </trkpt>
      <trkpt lat="45.16059" lon="-0.63196">
        <ele>26.9</ele>
        <time>2020-03-11T10:35:53Z</time>
      </trkpt>
      <trkpt lat="45.1601" lon="-0.6323">
        <ele>27</ele>
        <time>2020-03-11T10:35:53Z</time>
      </trkpt>
      <trkpt lat="45.15968" lon="-0.63256">
        <ele>27.2</ele>
        <time>2020-03-11T10:35:53Z</time>
      </trkpt>
      <trkpt lat="45.15892" lon="-0.63284">
        <ele>28.7</ele>
        <time>2020-03-11T10:35:53Z</time>
      </trkpt>
      <trkpt lat="45.15816" lon="-0.63308">
        <ele>29.6</ele>
        <time>2020-03-11T10:35:53Z</time>
      </trkpt>
      <trkpt lat="45.1573" lon="-0.63351">
        <ele>30.5</ele>
        <time>2020-03-11T10:35:53Z</time>
      </trkpt>
      <trkpt lat="45.15675" lon="-0.63389">
        <ele>31</ele>
        <time>2020-03-11T10:35:53Z</time>
      </trkpt>
      <trkpt lat="45.15614" lon="-0.63439">
        <ele>32.7</ele>
        <time>2020-03-11T10:35:53Z</time>
      </trkpt>
      <trkpt lat="45.15541" lon="-0.63507">
        <ele>33.5</ele>
        <time>2020-03-11T10:35:53Z</time>
      </trkpt>
      <trkpt lat="45.15465" lon="-0.63574">
        <ele>33.5</ele>
        <time>2020-03-11T10:35:53Z</time>
      </trkpt>
      <trkpt lat="45.15438" lon="-0.63594">
        <ele>33.6</ele>
        <time>2020-03-11T10:35:53Z</time>
      </trkpt>
      <trkpt lat="45.15375" lon="-0.63625">
        <ele>32.5</ele>
        <time>2020-03-11T10:35:53Z</time>
      </trkpt>
      <trkpt lat="45.15329" lon="-0.6364">
        <ele>31</ele>
        <time>2020-03-11T10:35:53Z</time>
      </trkpt>
      <trkpt lat="45.15307" lon="-0.63645">
        <ele>30.6</ele>
        <time>2020-03-11T10:35:53Z</time>
      </trkpt>
      <trkpt lat="45.15223" lon="-0.63646">
        <ele>30.2</ele>
        <time>2020-03-11T10:35:53Z</time>
      </trkpt>
      <trkpt lat="45.15155" lon="-0.63647">
        <ele>29.2</ele>
        <time>2020-03-11T10:35:53Z</time>
      </trkpt>
      <trkpt lat="45.1511" lon="-0.63646">
        <ele>29.2</ele>
        <time>2020-03-11T10:35:53Z</time>
      </trkpt>
      <trkpt lat="45.15066" lon="-0.63658">
        <ele>28.6</ele>
        <time>2020-03-11T10:35:53Z</time>
      </trkpt>
      <trkpt lat="45.15023" lon="-0.63678">
        <ele>28</ele>
        <time>2020-03-11T10:35:53Z</time>
      </trkpt>
      <trkpt lat="45.14993" lon="-0.63697">
        <ele>27.9</ele>
        <time>2020-03-11T10:35:53Z</time>
      </trkpt>
      <trkpt lat="45.14961" lon="-0.63722">
        <ele>27</ele>
        <time>2020-03-11T10:35:53Z</time>
      </trkpt>
      <trkpt lat="45.14904" lon="-0.63774">
        <ele>26.1</ele>
        <time>2020-03-11T10:35:53Z</time>
      </trkpt>
      <trkpt lat="45.14855" lon="-0.63812">
        <ele>25.3</ele>
        <time>2020-03-11T10:35:53Z</time>
      </trkpt>
      <trkpt lat="45.14817" lon="-0.63838">
        <ele>26.1</ele>
        <time>2020-03-11T10:35:53Z</time>
      </trkpt>
      <trkpt lat="45.14801" lon="-0.63862">
        <ele>25.6</ele>
        <time>2020-03-11T10:35:53Z</time>
      </trkpt>
      <trkpt lat="45.14767" lon="-0.63877">
        <ele>23.6</ele>
        <time>2020-03-11T10:35:53Z</time>
      </trkpt>
      <trkpt lat="45.1473" lon="-0.63883">
        <ele>21.7</ele>
        <time>2020-03-11T10:35:53Z</time>
      </trkpt>
      <trkpt lat="45.14705" lon="-0.63888">
        <ele>21.7</ele>
        <time>2020-03-11T10:35:53Z</time>
      </trkpt>
      <trkpt lat="45.14639" lon="-0.63918">
        <ele>19.9</ele>
        <time>2020-03-11T10:35:53Z</time>
      </trkpt>
      <trkpt lat="45.14592" lon="-0.63951">
        <ele>18.9</ele>
        <time>2020-03-11T10:35:53Z</time>
      </trkpt>
      <trkpt lat="45.14563" lon="-0.63975">
        <ele>19.5</ele>
        <time>2020-03-11T10:35:53Z</time>
      </trkpt>
      <trkpt lat="45.14515" lon="-0.64023">
        <ele>20.8</ele>
        <time>2020-03-11T10:35:53Z</time>
      </trkpt>
      <trkpt lat="45.14491" lon="-0.64041">
        <ele>20.5</ele>
        <time>2020-03-11T10:35:53Z</time>
      </trkpt>
      <trkpt lat="45.14479" lon="-0.64074">
        <ele>19.8</ele>
        <time>2020-03-11T10:35:53Z</time>
      </trkpt>
      <trkpt lat="45.14458" lon="-0.64107">
        <ele>19.5</ele>
        <time>2020-03-11T10:35:53Z</time>
      </trkpt>
      <trkpt lat="45.14433" lon="-0.64154">
        <ele>20.7</ele>
        <time>2020-03-11T10:35:53Z</time>
      </trkpt>
      <trkpt lat="45.14417" lon="-0.64189">
        <ele>21.8</ele>
        <time>2020-03-11T10:35:53Z</time>
      </trkpt>
      <trkpt lat="45.14393" lon="-0.64256">
        <ele>23.6</ele>
        <time>2020-03-11T10:35:53Z</time>
      </trkpt>
      <trkpt lat="45.1438" lon="-0.64302">
        <ele>24.6</ele>
        <time>2020-03-11T10:35:53Z</time>
      </trkpt>
      <trkpt lat="45.14363" lon="-0.64345">
        <ele>24.5</ele>
        <time>2020-03-11T10:35:53Z</time>
      </trkpt>
      <trkpt lat="45.14342" lon="-0.64409">
        <ele>24.4</ele>
        <time>2020-03-11T10:35:53Z</time>
      </trkpt>
      <trkpt lat="45.14332" lon="-0.6444">
        <ele>24.1</ele>
        <time>2020-03-11T10:35:53Z</time>
      </trkpt>
      <trkpt lat="45.14254" lon="-0.64574">
        <ele>22.9</ele>
        <time>2020-03-11T10:35:53Z</time>
      </trkpt>
      <trkpt lat="45.14218" lon="-0.64636">
        <ele>22.9</ele>
        <time>2020-03-11T10:35:53Z</time>
      </trkpt>
      <trkpt lat="45.14189" lon="-0.64691">
        <ele>22.5</ele>
        <time>2020-03-11T10:35:53Z</time>
      </trkpt>
      <trkpt lat="45.14157" lon="-0.64765">
        <ele>22.8</ele>
        <time>2020-03-11T10:35:53Z</time>
      </trkpt>
      <trkpt lat="45.14142" lon="-0.64801">
        <ele>22.9</ele>
        <time>2020-03-11T10:35:53Z</time>
      </trkpt>
      <trkpt lat="45.14122" lon="-0.6485">
        <ele>22.9</ele>
        <time>2020-03-11T10:35:53Z</time>
      </trkpt>
      <trkpt lat="45.14066" lon="-0.64957">
        <ele>21.4</ele>
        <time>2020-03-11T10:35:53Z</time>
      </trkpt>
      <trkpt lat="45.14024" lon="-0.65013">
        <ele>20.1</ele>
        <time>2020-03-11T10:35:53Z</time>
      </trkpt>
      <trkpt lat="45.14011" lon="-0.65031">
        <ele>20</ele>
        <time>2020-03-11T10:35:53Z</time>
      </trkpt>
      <trkpt lat="45.13967" lon="-0.65068">
        <ele>19.6</ele>
        <time>2020-03-11T10:35:53Z</time>
      </trkpt>
      <trkpt lat="45.13905" lon="-0.65114">
        <ele>18</ele>
        <time>2020-03-11T10:35:53Z</time>
      </trkpt>
      <trkpt lat="45.13792" lon="-0.65195">
        <ele>14</ele>
        <time>2020-03-11T10:35:53Z</time>
      </trkpt>
      <trkpt lat="45.13752" lon="-0.65233">
        <ele>13.6</ele>
        <time>2020-03-11T10:35:53Z</time>
      </trkpt>
      <trkpt lat="45.13693" lon="-0.65311">
        <ele>12</ele>
        <time>2020-03-11T10:35:53Z</time>
      </trkpt>
      <trkpt lat="45.13667" lon="-0.65361">
        <ele>12</ele>
        <time>2020-03-11T10:35:53Z</time>
      </trkpt>
      <trkpt lat="45.13637" lon="-0.65421">
        <ele>9.8</ele>
        <time>2020-03-11T10:35:53Z</time>
      </trkpt>
      <trkpt lat="45.13624" lon="-0.65466">
        <ele>9.1</ele>
        <time>2020-03-11T10:35:53Z</time>
      </trkpt>
      <trkpt lat="45.13613" lon="-0.65488">
        <ele>9.3</ele>
        <time>2020-03-11T10:35:53Z</time>
      </trkpt>
      <trkpt lat="45.13528" lon="-0.65689">
        <ele>7</ele>
        <time>2020-03-11T10:35:53Z</time>
      </trkpt>
      <trkpt lat="45.13455" lon="-0.65822">
        <ele>6</ele>
        <time>2020-03-11T10:35:53Z</time>
      </trkpt>
      <trkpt lat="45.13367" lon="-0.65911">
        <ele>5.2</ele>
        <time>2020-03-11T10:35:53Z</time>
      </trkpt>
      <trkpt lat="45.13307" lon="-0.65972">
        <ele>5</ele>
        <time>2020-03-11T10:35:53Z</time>
      </trkpt>
      <trkpt lat="45.13075" lon="-0.66152">
        <ele>4.5</ele>
        <time>2020-03-11T10:35:53Z</time>
      </trkpt>
      <trkpt lat="45.12997" lon="-0.66214">
        <ele>4.3</ele>
        <time>2020-03-11T10:35:53Z</time>
      </trkpt>
      <trkpt lat="45.12956" lon="-0.66239">
        <ele>4.3</ele>
        <time>2020-03-11T10:35:53Z</time>
      </trkpt>
      <trkpt lat="45.1292" lon="-0.66258">
        <ele>4.3</ele>
        <time>2020-03-11T10:35:53Z</time>
      </trkpt>
      <trkpt lat="45.12897" lon="-0.66211">
        <ele>6.9</ele>
        <time>2020-03-11T10:35:53Z</time>
      </trkpt>
      <trkpt lat="45.12868" lon="-0.66232">
        <ele>6.6</ele>
        <time>2020-03-11T10:35:53Z</time>
      </trkpt>
      <trkpt lat="45.12849" lon="-0.66243">
        <ele>6.8</ele>
        <time>2020-03-11T10:35:53Z</time>
      </trkpt>
      <trkpt lat="45.12824" lon="-0.66259">
        <ele>6.9</ele>
        <time>2020-03-11T10:35:53Z</time>
      </trkpt>
      <trkpt lat="45.12799" lon="-0.66273">
        <ele>6.3</ele>
        <time>2020-03-11T10:35:53Z</time>
      </trkpt>
      <trkpt lat="45.12776" lon="-0.66286">
        <ele>6</ele>
        <time>2020-03-11T10:35:53Z</time>
      </trkpt>
      <trkpt lat="45.12749" lon="-0.66301">
        <ele>6.1</ele>
        <time>2020-03-11T10:35:53Z</time>
      </trkpt>
      <trkpt lat="45.12717" lon="-0.66315">
        <ele>5</ele>
        <time>2020-03-11T10:35:53Z</time>
      </trkpt>
      <trkpt lat="45.12688" lon="-0.66277">
        <ele>4.8</ele>
        <time>2020-03-11T10:35:53Z</time>
      </trkpt>
      <trkpt lat="45.12663" lon="-0.6627">
        <ele>4.1</ele>
        <time>2020-03-11T10:35:53Z</time>
      </trkpt>
      <trkpt lat="45.12611" lon="-0.66239">
        <ele>6</ele>
        <time>2020-03-11T10:35:53Z</time>
      </trkpt>
      <trkpt lat="45.1258" lon="-0.66211">
        <ele>6.8</ele>
        <time>2020-03-11T10:35:53Z</time>
      </trkpt>
      <trkpt lat="45.12558" lon="-0.6619">
        <ele>7.7</ele>
        <time>2020-03-11T10:35:53Z</time>
      </trkpt>
      <trkpt lat="45.12542" lon="-0.66173">
        <ele>8.2</ele>
        <time>2020-03-11T10:35:53Z</time>
      </trkpt>
      <trkpt lat="45.12526" lon="-0.66154">
        <ele>9.1</ele>
        <time>2020-03-11T10:35:53Z</time>
      </trkpt>
      <trkpt lat="45.12512" lon="-0.66133">
        <ele>10.2</ele>
        <time>2020-03-11T10:35:53Z</time>
      </trkpt>
      <trkpt lat="45.12469" lon="-0.66067">
        <ele>13.2</ele>
        <time>2020-03-11T10:35:53Z</time>
      </trkpt>
      <trkpt lat="45.12415" lon="-0.65985">
        <ele>16.1</ele>
        <time>2020-03-11T10:35:53Z</time>
      </trkpt>
      <trkpt lat="45.12391" lon="-0.65948">
        <ele>17.8</ele>
        <time>2020-03-11T10:35:53Z</time>
      </trkpt>
      <trkpt lat="45.12367" lon="-0.65917">
        <ele>18.6</ele>
        <time>2020-03-11T10:35:53Z</time>
      </trkpt>
      <trkpt lat="45.12353" lon="-0.65898">
        <ele>19.5</ele>
        <time>2020-03-11T10:35:53Z</time>
      </trkpt>
      <trkpt lat="45.12272" lon="-0.65799">
        <ele>25.6</ele>
        <time>2020-03-11T10:35:53Z</time>
      </trkpt>
      <trkpt lat="45.12235" lon="-0.65759">
        <ele>26.9</ele>
        <time>2020-03-11T10:35:53Z</time>
      </trkpt>
      <trkpt lat="45.12202" lon="-0.65716">
        <ele>27.5</ele>
        <time>2020-03-11T10:35:53Z</time>
      </trkpt>
      <trkpt lat="45.12165" lon="-0.65665">
        <ele>28</ele>
        <time>2020-03-11T10:35:53Z</time>
      </trkpt>
      <trkpt lat="45.12154" lon="-0.65643">
        <ele>28</ele>
        <time>2020-03-11T10:35:53Z</time>
      </trkpt>
      <trkpt lat="45.12112" lon="-0.65534">
        <ele>27.2</ele>
        <time>2020-03-11T10:35:53Z</time>
      </trkpt>
      <trkpt lat="45.12093" lon="-0.6549">
        <ele>26.5</ele>
        <time>2020-03-11T10:35:53Z</time>
      </trkpt>
      <trkpt lat="45.12062" lon="-0.6542">
        <ele>26.9</ele>
        <time>2020-03-11T10:35:53Z</time>
      </trkpt>
      <trkpt lat="45.12035" lon="-0.65366">
        <ele>27.7</ele>
        <time>2020-03-11T10:35:53Z</time>
      </trkpt>
      <trkpt lat="45.12019" lon="-0.65335">
        <ele>28</ele>
        <time>2020-03-11T10:35:53Z</time>
      </trkpt>
      <trkpt lat="45.11996" lon="-0.65284">
        <ele>28</ele>
        <time>2020-03-11T10:35:53Z</time>
      </trkpt>
      <trkpt lat="45.11971" lon="-0.65237">
        <ele>27.5</ele>
        <time>2020-03-11T10:35:53Z</time>
      </trkpt>
      <trkpt lat="45.11961" lon="-0.65213">
        <ele>27</ele>
        <time>2020-03-11T10:35:53Z</time>
      </trkpt>
      <trkpt lat="45.11954" lon="-0.65185">
        <ele>27.2</ele>
        <time>2020-03-11T10:35:53Z</time>
      </trkpt>
      <trkpt lat="45.11949" lon="-0.6516">
        <ele>27.6</ele>
        <time>2020-03-11T10:35:53Z</time>
      </trkpt>
      <trkpt lat="45.1194" lon="-0.65085">
        <ele>27.2</ele>
        <time>2020-03-11T10:35:53Z</time>
      </trkpt>
      <trkpt lat="45.11932" lon="-0.65041">
        <ele>27.4</ele>
        <time>2020-03-11T10:35:53Z</time>
      </trkpt>
      <trkpt lat="45.1192" lon="-0.64997">
        <ele>27.9</ele>
        <time>2020-03-11T10:35:53Z</time>
      </trkpt>
      <trkpt lat="45.11897" lon="-0.64931">
        <ele>27.9</ele>
        <time>2020-03-11T10:35:53Z</time>
      </trkpt>
      <trkpt lat="45.11884" lon="-0.64895">
        <ele>27.9</ele>
        <time>2020-03-11T10:35:53Z</time>
      </trkpt>
      <trkpt lat="45.11785" lon="-0.64752">
        <ele>26</ele>
        <time>2020-03-11T10:35:53Z</time>
      </trkpt>
      <trkpt lat="45.11749" lon="-0.64706">
        <ele>25.4</ele>
        <time>2020-03-11T10:35:53Z</time>
      </trkpt>
      <trkpt lat="45.11731" lon="-0.64689">
        <ele>25</ele>
        <time>2020-03-11T10:35:53Z</time>
      </trkpt>
      <trkpt lat="45.11714" lon="-0.64644">
        <ele>24.7</ele>
        <time>2020-03-11T10:35:53Z</time>
      </trkpt>
      <trkpt lat="45.11664" lon="-0.6454">
        <ele>24.9</ele>
        <time>2020-03-11T10:35:53Z</time>
      </trkpt>
      <trkpt lat="45.11616" lon="-0.64414">
        <ele>24.7</ele>
        <time>2020-03-11T10:35:53Z</time>
      </trkpt>
      <trkpt lat="45.11598" lon="-0.64371">
        <ele>24</ele>
        <time>2020-03-11T10:35:53Z</time>
      </trkpt>
      <trkpt lat="45.11586" lon="-0.64343">
        <ele>23.3</ele>
        <time>2020-03-11T10:35:53Z</time>
      </trkpt>
      <trkpt lat="45.11575" lon="-0.64317">
        <ele>23</ele>
        <time>2020-03-11T10:35:53Z</time>
      </trkpt>
      <trkpt lat="45.11555" lon="-0.64293">
        <ele>23</ele>
        <time>2020-03-11T10:35:53Z</time>
      </trkpt>
      <trkpt lat="45.11521" lon="-0.64263">
        <ele>22</ele>
        <time>2020-03-11T10:35:53Z</time>
      </trkpt>
      <trkpt lat="45.1148" lon="-0.64211">
        <ele>20.7</ele>
        <time>2020-03-11T10:35:53Z</time>
      </trkpt>
      <trkpt lat="45.11458" lon="-0.64175">
        <ele>20</ele>
        <time>2020-03-11T10:35:53Z</time>
      </trkpt>
      <trkpt lat="45.11433" lon="-0.64136">
        <ele>19</ele>
        <time>2020-03-11T10:35:53Z</time>
      </trkpt>
      <trkpt lat="45.11417" lon="-0.64116">
        <ele>18.2</ele>
        <time>2020-03-11T10:35:53Z</time>
      </trkpt>
      <trkpt lat="45.11373" lon="-0.6407">
        <ele>19</ele>
        <time>2020-03-11T10:35:53Z</time>
      </trkpt>
      <trkpt lat="45.11355" lon="-0.64061">
        <ele>19.7</ele>
        <time>2020-03-11T10:35:53Z</time>
      </trkpt>
      <trkpt lat="45.11329" lon="-0.64053">
        <ele>20.5</ele>
        <time>2020-03-11T10:35:53Z</time>
      </trkpt>
      <trkpt lat="45.11305" lon="-0.64048">
        <ele>22.3</ele>
        <time>2020-03-11T10:35:53Z</time>
      </trkpt>
      <trkpt lat="45.11268" lon="-0.64029">
        <ele>23.4</ele>
        <time>2020-03-11T10:35:53Z</time>
      </trkpt>
      <trkpt lat="45.1122" lon="-0.63999">
        <ele>26.2</ele>
        <time>2020-03-11T10:35:53Z</time>
      </trkpt>
      <trkpt lat="45.11192" lon="-0.6399">
        <ele>27.8</ele>
        <time>2020-03-11T10:35:53Z</time>
      </trkpt>
      <trkpt lat="45.11173" lon="-0.63991">
        <ele>28.7</ele>
        <time>2020-03-11T10:35:53Z</time>
      </trkpt>
      <trkpt lat="45.11146" lon="-0.63988">
        <ele>30</ele>
        <time>2020-03-11T10:35:53Z</time>
      </trkpt>
      <trkpt lat="45.11116" lon="-0.63977">
        <ele>30.9</ele>
        <time>2020-03-11T10:35:53Z</time>
      </trkpt>
      <trkpt lat="45.11098" lon="-0.63961">
        <ele>31</ele>
        <time>2020-03-11T10:35:53Z</time>
      </trkpt>
      <trkpt lat="45.11065" lon="-0.63927">
        <ele>30</ele>
        <time>2020-03-11T10:35:53Z</time>
      </trkpt>
      <trkpt lat="45.10994" lon="-0.63881">
        <ele>27.7</ele>
        <time>2020-03-11T10:35:53Z</time>
      </trkpt>
      <trkpt lat="45.10976" lon="-0.63855">
        <ele>27</ele>
        <time>2020-03-11T10:35:53Z</time>
      </trkpt>
      <trkpt lat="45.10969" lon="-0.63804">
        <ele>26.8</ele>
        <time>2020-03-11T10:35:53Z</time>
      </trkpt>
      <trkpt lat="45.10965" lon="-0.63762">
        <ele>27</ele>
        <time>2020-03-11T10:35:53Z</time>
      </trkpt>
      <trkpt lat="45.1095" lon="-0.63732">
        <ele>27.4</ele>
        <time>2020-03-11T10:35:53Z</time>
      </trkpt>
      <trkpt lat="45.10933" lon="-0.63722">
        <ele>27.2</ele>
        <time>2020-03-11T10:35:53Z</time>
      </trkpt>
      <trkpt lat="45.10885" lon="-0.63706">
        <ele>24.9</ele>
        <time>2020-03-11T10:35:53Z</time>
      </trkpt>
      <trkpt lat="45.10867" lon="-0.6368">
        <ele>24.4</ele>
        <time>2020-03-11T10:35:53Z</time>
      </trkpt>
      <trkpt lat="45.10851" lon="-0.63624">
        <ele>23.8</ele>
        <time>2020-03-11T10:35:53Z</time>
      </trkpt>
      <trkpt lat="45.10833" lon="-0.63581">
        <ele>24.1</ele>
        <time>2020-03-11T10:35:53Z</time>
      </trkpt>
      <trkpt lat="45.10826" lon="-0.63557">
        <ele>24.2</ele>
        <time>2020-03-11T10:35:53Z</time>
      </trkpt>
      <trkpt lat="45.10823" lon="-0.63523">
        <ele>23.9</ele>
        <time>2020-03-11T10:35:53Z</time>
      </trkpt>
      <trkpt lat="45.10822" lon="-0.63454">
        <ele>25.2</ele>
        <time>2020-03-11T10:35:53Z</time>
      </trkpt>
      <trkpt lat="45.10819" lon="-0.63428">
        <ele>25.2</ele>
        <time>2020-03-11T10:35:53Z</time>
      </trkpt>
      <trkpt lat="45.10801" lon="-0.6334">
        <ele>26</ele>
        <time>2020-03-11T10:35:53Z</time>
      </trkpt>
      <trkpt lat="45.10775" lon="-0.63237">
        <ele>26.2</ele>
        <time>2020-03-11T10:35:53Z</time>
      </trkpt>
      <trkpt lat="45.10767" lon="-0.63207">
        <ele>26.9</ele>
        <time>2020-03-11T10:35:53Z</time>
      </trkpt>
      <trkpt lat="45.10744" lon="-0.63162">
        <ele>28.4</ele>
        <time>2020-03-11T10:35:53Z</time>
      </trkpt>
      <trkpt lat="45.10717" lon="-0.63115">
        <ele>30.6</ele>
        <time>2020-03-11T10:35:53Z</time>
      </trkpt>
      <trkpt lat="45.10707" lon="-0.6308">
        <ele>33.2</ele>
        <time>2020-03-11T10:35:53Z</time>
      </trkpt>
      <trkpt lat="45.10693" lon="-0.62998">
        <ele>36.2</ele>
        <time>2020-03-11T10:35:53Z</time>
      </trkpt>
      <trkpt lat="45.10681" lon="-0.62957">
        <ele>37.7</ele>
        <time>2020-03-11T10:35:53Z</time>
      </trkpt>
      <trkpt lat="45.10662" lon="-0.62913">
        <ele>38.6</ele>
        <time>2020-03-11T10:35:53Z</time>
      </trkpt>
      <trkpt lat="45.10642" lon="-0.62861">
        <ele>39.7</ele>
        <time>2020-03-11T10:35:53Z</time>
      </trkpt>
      <trkpt lat="45.10636" lon="-0.62817">
        <ele>40.3</ele>
        <time>2020-03-11T10:35:53Z</time>
      </trkpt>
      <trkpt lat="45.10629" lon="-0.62755">
        <ele>41.1</ele>
        <time>2020-03-11T10:35:53Z</time>
      </trkpt>
      <trkpt lat="45.10634" lon="-0.62718">
        <ele>41.5</ele>
        <time>2020-03-11T10:35:53Z</time>
      </trkpt>
      <trkpt lat="45.10645" lon="-0.62653">
        <ele>43.7</ele>
        <time>2020-03-11T10:35:53Z</time>
      </trkpt>
      <trkpt lat="45.10651" lon="-0.62612">
        <ele>45.1</ele>
        <time>2020-03-11T10:35:53Z</time>
      </trkpt>
      <trkpt lat="45.10652" lon="-0.62579">
        <ele>47.1</ele>
        <time>2020-03-11T10:35:53Z</time>
      </trkpt>
      <trkpt lat="45.10631" lon="-0.62546">
        <ele>49.7</ele>
        <time>2020-03-11T10:35:53Z</time>
      </trkpt>
      <trkpt lat="45.10578" lon="-0.62524">
        <ele>52.7</ele>
        <time>2020-03-11T10:35:53Z</time>
      </trkpt>
      <trkpt lat="45.10542" lon="-0.62511">
        <ele>56.7</ele>
        <time>2020-03-11T10:35:53Z</time>
      </trkpt>
      <trkpt lat="45.10535" lon="-0.62483">
        <ele>59.3</ele>
        <time>2020-03-11T10:35:53Z</time>
      </trkpt>
      <trkpt lat="45.1054" lon="-0.6244">
        <ele>60.9</ele>
        <time>2020-03-11T10:35:53Z</time>
      </trkpt>
      <trkpt lat="45.10423" lon="-0.62416">
        <ele>69.8</ele>
        <time>2020-03-11T10:35:53Z</time>
      </trkpt>
      <trkpt lat="45.10408" lon="-0.62438">
        <ele>69.5</ele>
        <time>2020-03-11T10:35:53Z</time>
      </trkpt>
      <trkpt lat="45.10384" lon="-0.62436">
        <ele>69.8</ele>
        <time>2020-03-11T10:35:53Z</time>
      </trkpt>
      <trkpt lat="45.1038" lon="-0.62475">
        <ele>69</ele>
        <time>2020-03-11T10:35:53Z</time>
      </trkpt>
      <trkpt lat="45.10359" lon="-0.62564">
        <ele>69</ele>
        <time>2020-03-11T10:35:53Z</time>
      </trkpt>
      <trkpt lat="45.10344" lon="-0.62637">
        <ele>68.4</ele>
        <time>2020-03-11T10:35:53Z</time>
      </trkpt>
      <trkpt lat="45.10337" lon="-0.62661">
        <ele>68</ele>
        <time>2020-03-11T10:35:53Z</time>
      </trkpt>
      <trkpt lat="45.10326" lon="-0.62696">
        <ele>68</ele>
        <time>2020-03-11T10:35:53Z</time>
      </trkpt>
      <trkpt lat="45.10318" lon="-0.62724">
        <ele>68.4</ele>
        <time>2020-03-11T10:35:53Z</time>
      </trkpt>
      <trkpt lat="45.10315" lon="-0.62757">
        <ele>68</ele>
        <time>2020-03-11T10:35:53Z</time>
      </trkpt>
      <trkpt lat="45.10306" lon="-0.62838">
        <ele>68</ele>
        <time>2020-03-11T10:35:53Z</time>
      </trkpt>
      <trkpt lat="45.10278" lon="-0.62827">
        <ele>67</ele>
        <time>2020-03-11T10:35:53Z</time>
      </trkpt>
      <trkpt lat="45.10258" lon="-0.628">
        <ele>65.4</ele>
        <time>2020-03-11T10:35:53Z</time>
      </trkpt>
      <trkpt lat="45.10241" lon="-0.62766">
        <ele>63.4</ele>
        <time>2020-03-11T10:35:53Z</time>
      </trkpt>
      <trkpt lat="45.10225" lon="-0.62748">
        <ele>60.5</ele>
        <time>2020-03-11T10:35:53Z</time>
      </trkpt>
      <trkpt lat="45.10206" lon="-0.62744">
        <ele>59.3</ele>
        <time>2020-03-11T10:35:53Z</time>
      </trkpt>
      <trkpt lat="45.10183" lon="-0.6274">
        <ele>57.6</ele>
        <time>2020-03-11T10:35:53Z</time>
      </trkpt>
      <trkpt lat="45.1014" lon="-0.62732">
        <ele>53.5</ele>
        <time>2020-03-11T10:35:53Z</time>
      </trkpt>
      <trkpt lat="45.10077" lon="-0.62731">
        <ele>48.6</ele>
        <time>2020-03-11T10:35:53Z</time>
      </trkpt>
      <trkpt lat="45.09955" lon="-0.62688">
        <ele>37.6</ele>
        <time>2020-03-11T10:35:53Z</time>
      </trkpt>
      <trkpt lat="45.09817" lon="-0.62642">
        <ele>24.9</ele>
        <time>2020-03-11T10:35:53Z</time>
      </trkpt>
      <trkpt lat="45.09792" lon="-0.62633">
        <ele>22.6</ele>
        <time>2020-03-11T10:35:53Z</time>
      </trkpt>
      <trkpt lat="45.09677" lon="-0.62595">
        <ele>12.2</ele>
        <time>2020-03-11T10:35:53Z</time>
      </trkpt>
      <trkpt lat="45.09578" lon="-0.62562">
        <ele>7.6</ele>
        <time>2020-03-11T10:35:53Z</time>
      </trkpt>
      <trkpt lat="45.09538" lon="-0.62548">
        <ele>5.7</ele>
        <time>2020-03-11T10:35:53Z</time>
      </trkpt>
      <trkpt lat="45.09489" lon="-0.62539">
        <ele>5.8</ele>
        <time>2020-03-11T10:35:53Z</time>
      </trkpt>
      <trkpt lat="45.09377" lon="-0.62508">
        <ele>8.2</ele>
        <time>2020-03-11T10:35:53Z</time>
      </trkpt>
      <trkpt lat="45.09317" lon="-0.62521">
        <ele>10.6</ele>
        <time>2020-03-11T10:35:53Z</time>
      </trkpt>
      <trkpt lat="45.09233" lon="-0.62565">
        <ele>12.9</ele>
        <time>2020-03-11T10:35:53Z</time>
      </trkpt>
      <trkpt lat="45.09214" lon="-0.62618">
        <ele>12.6</ele>
        <time>2020-03-11T10:35:53Z</time>
      </trkpt>
      <trkpt lat="45.09191" lon="-0.62691">
        <ele>14.1</ele>
        <time>2020-03-11T10:35:53Z</time>
      </trkpt>
      <trkpt lat="45.0911" lon="-0.62882">
        <ele>15</ele>
        <time>2020-03-11T10:35:53Z</time>
      </trkpt>
      <trkpt lat="45.08995" lon="-0.62848">
        <ele>18.1</ele>
        <time>2020-03-11T10:35:53Z</time>
      </trkpt>
      <trkpt lat="45.08888" lon="-0.6283">
        <ele>20</ele>
        <time>2020-03-11T10:35:53Z</time>
      </trkpt>
      <trkpt lat="45.08789" lon="-0.62836">
        <ele>22.5</ele>
        <time>2020-03-11T10:35:53Z</time>
      </trkpt>
      <trkpt lat="45.08733" lon="-0.62833">
        <ele>24.2</ele>
        <time>2020-03-11T10:35:53Z</time>
      </trkpt>
      <trkpt lat="45.08706" lon="-0.62821">
        <ele>26.6</ele>
        <time>2020-03-11T10:35:53Z</time>
      </trkpt>
      <trkpt lat="45.08696" lon="-0.62843">
        <ele>26.9</ele>
        <time>2020-03-11T10:35:53Z</time>
      </trkpt>
      <trkpt lat="45.08578" lon="-0.62805">
        <ele>30.8</ele>
        <time>2020-03-11T10:35:53Z</time>
      </trkpt>
      <trkpt lat="45.08421" lon="-0.62758">
        <ele>25.5</ele>
        <time>2020-03-11T10:35:53Z</time>
      </trkpt>
      <trkpt lat="45.08378" lon="-0.62811">
        <ele>24.4</ele>
        <time>2020-03-11T10:35:53Z</time>
      </trkpt>
      <trkpt lat="45.08355" lon="-0.62858">
        <ele>22.1</ele>
        <time>2020-03-11T10:35:53Z</time>
      </trkpt>
      <trkpt lat="45.08339" lon="-0.62879">
        <ele>21.5</ele>
        <time>2020-03-11T10:35:53Z</time>
      </trkpt>
      <trkpt lat="45.08314" lon="-0.62921">
        <ele>20.3</ele>
        <time>2020-03-11T10:35:53Z</time>
      </trkpt>
      <trkpt lat="45.08301" lon="-0.62952">
        <ele>19.8</ele>
        <time>2020-03-11T10:35:53Z</time>
      </trkpt>
      <trkpt lat="45.0829" lon="-0.6301">
        <ele>18.4</ele>
        <time>2020-03-11T10:35:53Z</time>
      </trkpt>
      <trkpt lat="45.08288" lon="-0.63069">
        <ele>18.4</ele>
        <time>2020-03-11T10:35:53Z</time>
      </trkpt>
      <trkpt lat="45.08284" lon="-0.63143">
        <ele>18.2</ele>
        <time>2020-03-11T10:35:53Z</time>
      </trkpt>
      <trkpt lat="45.08279" lon="-0.63205">
        <ele>18</ele>
        <time>2020-03-11T10:35:53Z</time>
      </trkpt>
      <trkpt lat="45.08274" lon="-0.63234">
        <ele>17.9</ele>
        <time>2020-03-11T10:35:53Z</time>
      </trkpt>
      <trkpt lat="45.08259" lon="-0.63273">
        <ele>16.8</ele>
        <time>2020-03-11T10:35:53Z</time>
      </trkpt>
      <trkpt lat="45.08241" lon="-0.63284">
        <ele>15.6</ele>
        <time>2020-03-11T10:35:53Z</time>
      </trkpt>
      <trkpt lat="45.0818" lon="-0.63307">
        <ele>14</ele>
        <time>2020-03-11T10:35:53Z</time>
      </trkpt>
      <trkpt lat="45.0816" lon="-0.63332">
        <ele>13</ele>
        <time>2020-03-11T10:35:53Z</time>
      </trkpt>
      <trkpt lat="45.08104" lon="-0.63435">
        <ele>7.3</ele>
        <time>2020-03-11T10:35:53Z</time>
      </trkpt>
      <trkpt lat="45.08059" lon="-0.63511">
        <ele>5</ele>
        <time>2020-03-11T10:35:53Z</time>
      </trkpt>
      <trkpt lat="45.08001" lon="-0.63585">
        <ele>5</ele>
        <time>2020-03-11T10:35:53Z</time>
      </trkpt>
      <trkpt lat="45.07988" lon="-0.63604">
        <ele>5</ele>
        <time>2020-03-11T10:35:53Z</time>
      </trkpt>
      <trkpt lat="45.0797" lon="-0.63615">
        <ele>4.9</ele>
        <time>2020-03-11T10:35:53Z</time>
      </trkpt>
      <trkpt lat="45.07904" lon="-0.63699">
        <ele>4.6</ele>
        <time>2020-03-11T10:35:53Z</time>
      </trkpt>
      <trkpt lat="45.07873" lon="-0.63753">
        <ele>4.1</ele>
        <time>2020-03-11T10:35:53Z</time>
      </trkpt>
      <trkpt lat="45.07859" lon="-0.63769">
        <ele>4.6</ele>
        <time>2020-03-11T10:35:53Z</time>
      </trkpt>
      <trkpt lat="45.07811" lon="-0.63777">
        <ele>4</ele>
        <time>2020-03-11T10:35:53Z</time>
      </trkpt>
      <trkpt lat="45.07754" lon="-0.6378">
        <ele>4.9</ele>
        <time>2020-03-11T10:35:53Z</time>
      </trkpt>
      <trkpt lat="45.0773" lon="-0.63777">
        <ele>5.1</ele>
        <time>2020-03-11T10:35:53Z</time>
      </trkpt>
      <trkpt lat="45.07682" lon="-0.63765">
        <ele>5.8</ele>
        <time>2020-03-11T10:35:53Z</time>
      </trkpt>
      <trkpt lat="45.07599" lon="-0.63759">
        <ele>6.1</ele>
        <time>2020-03-11T10:35:53Z</time>
      </trkpt>
      <trkpt lat="45.07571" lon="-0.63738">
        <ele>7.9</ele>
        <time>2020-03-11T10:35:53Z</time>
      </trkpt>
      <trkpt lat="45.07521" lon="-0.63719">
        <ele>6</ele>
        <time>2020-03-11T10:35:53Z</time>
      </trkpt>
      <trkpt lat="45.07481" lon="-0.63689">
        <ele>5.8</ele>
        <time>2020-03-11T10:35:53Z</time>
      </trkpt>
      <trkpt lat="45.07436" lon="-0.63638">
        <ele>4.3</ele>
        <time>2020-03-11T10:35:53Z</time>
      </trkpt>
      <trkpt lat="45.0738" lon="-0.63557">
        <ele>4.7</ele>
        <time>2020-03-11T10:35:53Z</time>
      </trkpt>
      <trkpt lat="45.0734" lon="-0.63516">
        <ele>4.6</ele>
        <time>2020-03-11T10:35:53Z</time>
      </trkpt>
      <trkpt lat="45.07314" lon="-0.63469">
        <ele>5.9</ele>
        <time>2020-03-11T10:35:53Z</time>
      </trkpt>
      <trkpt lat="45.07284" lon="-0.63432">
        <ele>5.1</ele>
        <time>2020-03-11T10:35:53Z</time>
      </trkpt>
      <trkpt lat="45.0727" lon="-0.63414">
        <ele>4.2</ele>
        <time>2020-03-11T10:35:53Z</time>
      </trkpt>
      <trkpt lat="45.07192" lon="-0.63314">
        <ele>4.2</ele>
        <time>2020-03-11T10:35:53Z</time>
      </trkpt>
      <trkpt lat="45.07052" lon="-0.63119">
        <ele>4.5</ele>
        <time>2020-03-11T10:35:53Z</time>
      </trkpt>
      <trkpt lat="45.0702" lon="-0.63081">
        <ele>4.3</ele>
        <time>2020-03-11T10:35:53Z</time>
      </trkpt>
      <trkpt lat="45.06911" lon="-0.62951">
        <ele>7.1</ele>
        <time>2020-03-11T10:35:53Z</time>
      </trkpt>
      <trkpt lat="45.06867" lon="-0.6288">
        <ele>9.2</ele>
        <time>2020-03-11T10:35:53Z</time>
      </trkpt>
      <trkpt lat="45.06844" lon="-0.62854">
        <ele>8.6</ele>
        <time>2020-03-11T10:35:53Z</time>
      </trkpt>
      <trkpt lat="45.06761" lon="-0.62773">
        <ele>7</ele>
        <time>2020-03-11T10:35:53Z</time>
      </trkpt>
      <trkpt lat="45.06387" lon="-0.62446">
        <ele>6.3</ele>
        <time>2020-03-11T10:35:53Z</time>
      </trkpt>
      <trkpt lat="45.06232" lon="-0.62287">
        <ele>4.1</ele>
        <time>2020-03-11T10:35:53Z</time>
      </trkpt>
      <trkpt lat="45.06116" lon="-0.62168">
        <ele>5.3</ele>
        <time>2020-03-11T10:35:53Z</time>
      </trkpt>
      <trkpt lat="45.06095" lon="-0.6213">
        <ele>5</ele>
        <time>2020-03-11T10:35:53Z</time>
      </trkpt>
      <trkpt lat="45.06082" lon="-0.62077">
        <ele>5.2</ele>
        <time>2020-03-11T10:35:53Z</time>
      </trkpt>
      <trkpt lat="45.06048" lon="-0.62043">
        <ele>4.8</ele>
        <time>2020-03-11T10:35:53Z</time>
      </trkpt>
      <trkpt lat="45.0601" lon="-0.62021">
        <ele>4.8</ele>
        <time>2020-03-11T10:35:53Z</time>
      </trkpt>
      <trkpt lat="45.0591" lon="-0.6192">
        <ele>5.9</ele>
        <time>2020-03-11T10:35:53Z</time>
      </trkpt>
      <trkpt lat="45.05882" lon="-0.61886">
        <ele>5.9</ele>
        <time>2020-03-11T10:35:53Z</time>
      </trkpt>
      <trkpt lat="45.05808" lon="-0.618">
        <ele>4.5</ele>
        <time>2020-03-11T10:35:53Z</time>
      </trkpt>
      <trkpt lat="45.05769" lon="-0.61736">
        <ele>6.2</ele>
        <time>2020-03-11T10:35:53Z</time>
      </trkpt>
      <trkpt lat="45.05744" lon="-0.61703">
        <ele>4.9</ele>
        <time>2020-03-11T10:35:53Z</time>
      </trkpt>
      <trkpt lat="45.05703" lon="-0.61664">
        <ele>6.2</ele>
        <time>2020-03-11T10:35:53Z</time>
      </trkpt>
      <trkpt lat="45.05685" lon="-0.61648">
        <ele>6.5</ele>
        <time>2020-03-11T10:35:53Z</time>
      </trkpt>
      <trkpt lat="45.05657" lon="-0.61621">
        <ele>7.8</ele>
        <time>2020-03-11T10:35:53Z</time>
      </trkpt>
      <trkpt lat="45.05548" lon="-0.61456">
        <ele>5.5</ele>
        <time>2020-03-11T10:35:53Z</time>
      </trkpt>
      <trkpt lat="45.05472" lon="-0.6134">
        <ele>5.5</ele>
        <time>2020-03-11T10:35:53Z</time>
      </trkpt>
      <trkpt lat="45.05454" lon="-0.61309">
        <ele>6.8</ele>
        <time>2020-03-11T10:35:53Z</time>
      </trkpt>
      <trkpt lat="45.05418" lon="-0.61209">
        <ele>9.2</ele>
        <time>2020-03-11T10:35:53Z</time>
      </trkpt>
      <trkpt lat="45.05356" lon="-0.61082">
        <ele>4.9</ele>
        <time>2020-03-11T10:35:53Z</time>
      </trkpt>
      <trkpt lat="45.05157" lon="-0.60758">
        <ele>5.8</ele>
        <time>2020-03-11T10:35:53Z</time>
      </trkpt>
      <trkpt lat="45.05143" lon="-0.60728">
        <ele>6</ele>
        <time>2020-03-11T10:35:53Z</time>
      </trkpt>
      <trkpt lat="45.0513" lon="-0.60677">
        <ele>5.6</ele>
        <time>2020-03-11T10:35:53Z</time>
      </trkpt>
      <trkpt lat="45.0511" lon="-0.60634">
        <ele>5.3</ele>
        <time>2020-03-11T10:35:53Z</time>
      </trkpt>
      <trkpt lat="45.05086" lon="-0.60597">
        <ele>6.2</ele>
        <time>2020-03-11T10:35:53Z</time>
      </trkpt>
      <trkpt lat="45.05076" lon="-0.60574">
        <ele>6.2</ele>
        <time>2020-03-11T10:35:53Z</time>
      </trkpt>
      <trkpt lat="45.05081" lon="-0.60541">
        <ele>10.7</ele>
        <time>2020-03-11T10:35:53Z</time>
      </trkpt>
      <trkpt lat="45.05027" lon="-0.60449">
        <ele>13.8</ele>
        <time>2020-03-11T10:35:53Z</time>
      </trkpt>
      <trkpt lat="45.05033" lon="-0.60418">
        <ele>18.4</ele>
        <time>2020-03-11T10:35:53Z</time>
      </trkpt>
      <trkpt lat="45.05155" lon="-0.60598">
        <ele>35.3</ele>
        <time>2020-03-11T10:35:53Z</time>
      </trkpt>
      <trkpt lat="45.05177" lon="-0.60614">
        <ele>36.7</ele>
        <time>2020-03-11T10:35:53Z</time>
      </trkpt>
      <trkpt lat="45.05202" lon="-0.60609">
        <ele>40.7</ele>
        <time>2020-03-11T10:35:53Z</time>
      </trkpt>
      <trkpt lat="45.0526" lon="-0.60515">
        <ele>46.5</ele>
        <time>2020-03-11T10:35:53Z</time>
      </trkpt>
      <trkpt lat="45.05366" lon="-0.60365">
        <ele>47.3</ele>
        <time>2020-03-11T10:35:53Z</time>
      </trkpt>
      <trkpt lat="45.05407" lon="-0.60317">
        <ele>47.7</ele>
        <time>2020-03-11T10:35:53Z</time>
      </trkpt>
      <trkpt lat="45.05463" lon="-0.60253">
        <ele>48</ele>
        <time>2020-03-11T10:35:53Z</time>
      </trkpt>
      <trkpt lat="45.05443" lon="-0.60194">
        <ele>47</ele>
        <time>2020-03-11T10:35:53Z</time>
      </trkpt>
      <trkpt lat="45.05428" lon="-0.60157">
        <ele>47</ele>
        <time>2020-03-11T10:35:53Z</time>
      </trkpt>
      <trkpt lat="45.05415" lon="-0.60133">
        <ele>47</ele>
        <time>2020-03-11T10:35:53Z</time>
      </trkpt>
      <trkpt lat="45.05369" lon="-0.60056">
        <ele>47</ele>
        <time>2020-03-11T10:35:53Z</time>
      </trkpt>
      <trkpt lat="45.05328" lon="-0.60025">
        <ele>47</ele>
        <time>2020-03-11T10:35:53Z</time>
      </trkpt>
      <trkpt lat="45.05313" lon="-0.59987">
        <ele>46.5</ele>
        <time>2020-03-11T10:35:53Z</time>
      </trkpt>
      <trkpt lat="45.05267" lon="-0.5992">
        <ele>45.4</ele>
        <time>2020-03-11T10:35:53Z</time>
      </trkpt>
      <trkpt lat="45.0523" lon="-0.59859">
        <ele>47.1</ele>
        <time>2020-03-11T10:35:53Z</time>
      </trkpt>
      <trkpt lat="45.05208" lon="-0.5984">
        <ele>47.9</ele>
        <time>2020-03-11T10:35:53Z</time>
      </trkpt>
      <trkpt lat="45.05179" lon="-0.59836">
        <ele>48</ele>
        <time>2020-03-11T10:35:53Z</time>
      </trkpt>
      <trkpt lat="45.05158" lon="-0.59848">
        <ele>48</ele>
        <time>2020-03-11T10:35:53Z</time>
      </trkpt>
      <trkpt lat="45.05143" lon="-0.59867">
        <ele>48</ele>
        <time>2020-03-11T10:35:53Z</time>
      </trkpt>
      <trkpt lat="45.05074" lon="-0.59963">
        <ele>48.6</ele>
        <time>2020-03-11T10:35:53Z</time>
      </trkpt>
      <trkpt lat="45.05054" lon="-0.59998">
        <ele>49</ele>
        <time>2020-03-11T10:35:53Z</time>
      </trkpt>
      <trkpt lat="45.05033" lon="-0.60049">
        <ele>48.8</ele>
        <time>2020-03-11T10:35:53Z</time>
      </trkpt>
      <trkpt lat="45.05025" lon="-0.60076">
        <ele>48.2</ele>
        <time>2020-03-11T10:35:53Z</time>
      </trkpt>
      <trkpt lat="45.05006" lon="-0.60105">
        <ele>48</ele>
        <time>2020-03-11T10:35:53Z</time>
      </trkpt>
      <trkpt lat="45.04977" lon="-0.60111">
        <ele>47.2</ele>
        <time>2020-03-11T10:35:53Z</time>
      </trkpt>
      <trkpt lat="45.0496" lon="-0.60102">
        <ele>46</ele>
        <time>2020-03-11T10:35:53Z</time>
      </trkpt>
      <trkpt lat="45.04773" lon="-0.59816">
        <ele>49.1</ele>
        <time>2020-03-11T10:35:53Z</time>
      </trkpt>
      <trkpt lat="45.04756" lon="-0.59787">
        <ele>47.9</ele>
        <time>2020-03-11T10:35:53Z</time>
      </trkpt>
      <trkpt lat="45.04649" lon="-0.59603">
        <ele>42.7</ele>
        <time>2020-03-11T10:35:53Z</time>
      </trkpt>
      <trkpt lat="45.04575" lon="-0.59507">
        <ele>44.9</ele>
        <time>2020-03-11T10:35:53Z</time>
      </trkpt>
      <trkpt lat="45.04538" lon="-0.59398">
        <ele>45.5</ele>
        <time>2020-03-11T10:35:53Z</time>
      </trkpt>
      <trkpt lat="45.04515" lon="-0.59331">
        <ele>43.3</ele>
        <time>2020-03-11T10:35:53Z</time>
      </trkpt>
      <trkpt lat="45.04406" lon="-0.59097">
        <ele>33</ele>
        <time>2020-03-11T10:35:53Z</time>
      </trkpt>
      <trkpt lat="45.04375" lon="-0.59031">
        <ele>31.9</ele>
        <time>2020-03-11T10:35:53Z</time>
      </trkpt>
      <trkpt lat="45.04329" lon="-0.58972">
        <ele>30.7</ele>
        <time>2020-03-11T10:35:53Z</time>
      </trkpt>
      <trkpt lat="45.04238" lon="-0.58894">
        <ele>21.6</ele>
        <time>2020-03-11T10:35:53Z</time>
      </trkpt>
      <trkpt lat="45.0419" lon="-0.58844">
        <ele>12.3</ele>
        <time>2020-03-11T10:35:53Z</time>
      </trkpt>
      <trkpt lat="45.04167" lon="-0.5881">
        <ele>6.9</ele>
        <time>2020-03-11T10:35:53Z</time>
      </trkpt>
      <trkpt lat="45.04147" lon="-0.58765">
        <ele>4.1</ele>
        <time>2020-03-11T10:35:53Z</time>
      </trkpt>
      <trkpt lat="45.04144" lon="-0.58717">
        <ele>5.4</ele>
        <time>2020-03-11T10:35:53Z</time>
      </trkpt>
      <trkpt lat="45.04144" lon="-0.58666">
        <ele>5.4</ele>
        <time>2020-03-11T10:35:53Z</time>
      </trkpt>
      <trkpt lat="45.04122" lon="-0.58556">
        <ele>4.4</ele>
        <time>2020-03-11T10:35:53Z</time>
      </trkpt>
      <trkpt lat="45.04109" lon="-0.58481">
        <ele>5</ele>
        <time>2020-03-11T10:35:53Z</time>
      </trkpt>
      <trkpt lat="45.04102" lon="-0.58418">
        <ele>5</ele>
        <time>2020-03-11T10:35:53Z</time>
      </trkpt>
      <trkpt lat="45.04078" lon="-0.5812">
        <ele>5</ele>
        <time>2020-03-11T10:35:53Z</time>
      </trkpt>
      <trkpt lat="45.04078" lon="-0.58074">
        <ele>4.7</ele>
        <time>2020-03-11T10:35:53Z</time>
      </trkpt>
      <trkpt lat="45.04084" lon="-0.5803">
        <ele>5</ele>
        <time>2020-03-11T10:35:53Z</time>
      </trkpt>
      <trkpt lat="45.04093" lon="-0.58007">
        <ele>4.5</ele>
        <time>2020-03-11T10:35:53Z</time>
      </trkpt>
      <trkpt lat="45.04115" lon="-0.57964">
        <ele>5.6</ele>
        <time>2020-03-11T10:35:53Z</time>
      </trkpt>
      <trkpt lat="45.04196" lon="-0.57803">
        <ele>11.9</ele>
        <time>2020-03-11T10:35:53Z</time>
      </trkpt>
      <trkpt lat="45.04261" lon="-0.57738">
        <ele>16.1</ele>
        <time>2020-03-11T10:35:53Z</time>
      </trkpt>
      <trkpt lat="45.04311" lon="-0.57702">
        <ele>20.4</ele>
        <time>2020-03-11T10:35:53Z</time>
      </trkpt>
      <trkpt lat="45.04301" lon="-0.5766">
        <ele>15.3</ele>
        <time>2020-03-11T10:35:53Z</time>
      </trkpt>
      <trkpt lat="45.04286" lon="-0.57628">
        <ele>12</ele>
        <time>2020-03-11T10:35:53Z</time>
      </trkpt>
      <trkpt lat="45.04271" lon="-0.57584">
        <ele>10</ele>
        <time>2020-03-11T10:35:53Z</time>
      </trkpt>
      <trkpt lat="45.04263" lon="-0.5752">
        <ele>7.9</ele>
        <time>2020-03-11T10:35:53Z</time>
      </trkpt>
      <trkpt lat="45.04263" lon="-0.57475">
        <ele>10.4</ele>
        <time>2020-03-11T10:35:53Z</time>
      </trkpt>
      <trkpt lat="45.04261" lon="-0.57449">
        <ele>9.6</ele>
        <time>2020-03-11T10:35:53Z</time>
      </trkpt>
      <trkpt lat="45.04272" lon="-0.57363">
        <ele>7.4</ele>
        <time>2020-03-11T10:35:53Z</time>
      </trkpt>
      <trkpt lat="45.04266" lon="-0.57257">
        <ele>5.7</ele>
        <time>2020-03-11T10:35:53Z</time>
      </trkpt>
      <trkpt lat="45.04313" lon="-0.57226">
        <ele>9.9</ele>
        <time>2020-03-11T10:35:53Z</time>
      </trkpt>
      <trkpt lat="45.04323" lon="-0.57204">
        <ele>13.1</ele>
        <time>2020-03-11T10:35:53Z</time>
      </trkpt>
      <trkpt lat="45.04319" lon="-0.57179">
        <ele>12.9</ele>
        <time>2020-03-11T10:35:53Z</time>
      </trkpt>
      <trkpt lat="45.04309" lon="-0.5715">
        <ele>12.1</ele>
        <time>2020-03-11T10:35:53Z</time>
      </trkpt>
      <trkpt lat="45.04265" lon="-0.57068">
        <ele>9.3</ele>
        <time>2020-03-11T10:35:53Z</time>
      </trkpt>
      <trkpt lat="45.04251" lon="-0.5701">
        <ele>8.5</ele>
        <time>2020-03-11T10:35:53Z</time>
      </trkpt>
      <trkpt lat="45.04237" lon="-0.56962">
        <ele>8.9</ele>
        <time>2020-03-11T10:35:53Z</time>
      </trkpt>
      <trkpt lat="45.04227" lon="-0.56929">
        <ele>8.6</ele>
        <time>2020-03-11T10:35:53Z</time>
      </trkpt>
      <trkpt lat="45.04217" lon="-0.56894">
        <ele>9.7</ele>
        <time>2020-03-11T10:35:53Z</time>
      </trkpt>
      <trkpt lat="45.04206" lon="-0.56837">
        <ele>9.1</ele>
        <time>2020-03-11T10:35:53Z</time>
      </trkpt>
      <trkpt lat="45.04193" lon="-0.56778">
        <ele>8.8</ele>
        <time>2020-03-11T10:35:53Z</time>
      </trkpt>
      <trkpt lat="45.04185" lon="-0.56729">
        <ele>8.8</ele>
        <time>2020-03-11T10:35:53Z</time>
      </trkpt>
      <trkpt lat="45.04179" lon="-0.56701">
        <ele>8.3</ele>
        <time>2020-03-11T10:35:53Z</time>
      </trkpt>
      <trkpt lat="45.04171" lon="-0.56673">
        <ele>7.9</ele>
        <time>2020-03-11T10:35:53Z</time>
      </trkpt>
      <trkpt lat="45.04161" lon="-0.56647">
        <ele>7.7</ele>
        <time>2020-03-11T10:35:53Z</time>
      </trkpt>
      <trkpt lat="45.04148" lon="-0.5662">
        <ele>6.8</ele>
        <time>2020-03-11T10:35:53Z</time>
      </trkpt>
      <trkpt lat="45.04123" lon="-0.56571">
        <ele>7.2</ele>
        <time>2020-03-11T10:35:53Z</time>
      </trkpt>
      <trkpt lat="45.04071" lon="-0.5651">
        <ele>7.7</ele>
        <time>2020-03-11T10:35:53Z</time>
      </trkpt>
      <trkpt lat="45.04054" lon="-0.56479">
        <ele>8.6</ele>
        <time>2020-03-11T10:35:53Z</time>
      </trkpt>
      <trkpt lat="45.04046" lon="-0.56455">
        <ele>8.9</ele>
        <time>2020-03-11T10:35:53Z</time>
      </trkpt>
      <trkpt lat="45.04035" lon="-0.56411">
        <ele>8.9</ele>
        <time>2020-03-11T10:35:53Z</time>
      </trkpt>
      <trkpt lat="45.04059" lon="-0.5637">
        <ele>10.4</ele>
        <time>2020-03-11T10:35:53Z</time>
      </trkpt>
      <trkpt lat="45.04092" lon="-0.56298">
        <ele>14.8</ele>
        <time>2020-03-11T10:35:53Z</time>
      </trkpt>
      <trkpt lat="45.04121" lon="-0.5622">
        <ele>15.4</ele>
        <time>2020-03-11T10:35:53Z</time>
      </trkpt>
      <trkpt lat="45.04131" lon="-0.56178">
        <ele>17.2</ele>
        <time>2020-03-11T10:35:53Z</time>
      </trkpt>
      <trkpt lat="45.04138" lon="-0.56135">
        <ele>19.3</ele>
        <time>2020-03-11T10:35:53Z</time>
      </trkpt>
      <trkpt lat="45.04139" lon="-0.561">
        <ele>22.2</ele>
        <time>2020-03-11T10:35:53Z</time>
      </trkpt>
      <trkpt lat="45.0413" lon="-0.56042">
        <ele>28.8</ele>
        <time>2020-03-11T10:35:53Z</time>
      </trkpt>
      <trkpt lat="45.04098" lon="-0.56036">
        <ele>29.9</ele>
        <time>2020-03-11T10:35:53Z</time>
      </trkpt>
      <trkpt lat="45.04087" lon="-0.55995">
        <ele>31.2</ele>
        <time>2020-03-11T10:35:53Z</time>
      </trkpt>
      <trkpt lat="45.04086" lon="-0.55969">
        <ele>32</ele>
        <time>2020-03-11T10:35:53Z</time>
      </trkpt>
      <trkpt lat="45.04088" lon="-0.55938">
        <ele>32</ele>
        <time>2020-03-11T10:35:53Z</time>
      </trkpt>
      <trkpt lat="45.04087" lon="-0.55907">
        <ele>32.1</ele>
        <time>2020-03-11T10:35:53Z</time>
      </trkpt>
      <trkpt lat="45.04086" lon="-0.55875">
        <ele>32.1</ele>
        <time>2020-03-11T10:35:53Z</time>
      </trkpt>
      <trkpt lat="45.04086" lon="-0.55826">
        <ele>32.2</ele>
        <time>2020-03-11T10:35:53Z</time>
      </trkpt>
      <trkpt lat="45.04086" lon="-0.55744">
        <ele>33</ele>
        <time>2020-03-11T10:35:53Z</time>
      </trkpt>
      <trkpt lat="45.04084" lon="-0.55646">
        <ele>33.7</ele>
        <time>2020-03-11T10:35:53Z</time>
      </trkpt>
      <trkpt lat="45.04083" lon="-0.55616">
        <ele>34</ele>
        <time>2020-03-11T10:35:53Z</time>
      </trkpt>
      <trkpt lat="45.0407" lon="-0.55585">
        <ele>33.5</ele>
        <time>2020-03-11T10:35:53Z</time>
      </trkpt>
      <trkpt lat="45.04059" lon="-0.55561">
        <ele>33</ele>
        <time>2020-03-11T10:35:53Z</time>
      </trkpt>
      <trkpt lat="45.04054" lon="-0.55534">
        <ele>32.3</ele>
        <time>2020-03-11T10:35:53Z</time>
      </trkpt>
      <trkpt lat="45.04055" lon="-0.55506">
        <ele>32</ele>
        <time>2020-03-11T10:35:53Z</time>
      </trkpt>
      <trkpt lat="45.04059" lon="-0.55409">
        <ele>30.9</ele>
        <time>2020-03-11T10:35:53Z</time>
      </trkpt>
      <trkpt lat="45.04061" lon="-0.55383">
        <ele>30.8</ele>
        <time>2020-03-11T10:35:53Z</time>
      </trkpt>
      <trkpt lat="45.0408" lon="-0.5513">
        <ele>29.9</ele>
        <time>2020-03-11T10:35:53Z</time>
      </trkpt>
      <trkpt lat="45.04114" lon="-0.54839">
        <ele>30.7</ele>
        <time>2020-03-11T10:35:53Z</time>
      </trkpt>
      <trkpt lat="45.04123" lon="-0.54733">
        <ele>31.6</ele>
        <time>2020-03-11T10:35:53Z</time>
      </trkpt>
      <trkpt lat="45.04124" lon="-0.54632">
        <ele>32.5</ele>
        <time>2020-03-11T10:35:53Z</time>
      </trkpt>
      <trkpt lat="45.04114" lon="-0.54496">
        <ele>34.1</ele>
        <time>2020-03-11T10:35:53Z</time>
      </trkpt>
      <trkpt lat="45.04109" lon="-0.54326">
        <ele>37.3</ele>
        <time>2020-03-11T10:35:53Z</time>
      </trkpt>
      <trkpt lat="45.04108" lon="-0.54294">
        <ele>38</ele>
        <time>2020-03-11T10:35:53Z</time>
      </trkpt>
      <trkpt lat="45.04102" lon="-0.54042">
        <ele>43</ele>
        <time>2020-03-11T10:35:53Z</time>
      </trkpt>
      <trkpt lat="45.04098" lon="-0.53944">
        <ele>44</ele>
        <time>2020-03-11T10:35:53Z</time>
      </trkpt>
      <trkpt lat="45.04064" lon="-0.53788">
        <ele>45.4</ele>
        <time>2020-03-11T10:35:53Z</time>
      </trkpt>
      <trkpt lat="45.0404" lon="-0.53704">
        <ele>46.6</ele>
        <time>2020-03-11T10:35:53Z</time>
      </trkpt>
      <trkpt lat="45.03979" lon="-0.53587">
        <ele>48.1</ele>
        <time>2020-03-11T10:35:53Z</time>
      </trkpt>
      <trkpt lat="45.03947" lon="-0.53528">
        <ele>47.1</ele>
        <time>2020-03-11T10:35:53Z</time>
      </trkpt>
      <trkpt lat="45.03905" lon="-0.53423">
        <ele>45.1</ele>
        <time>2020-03-11T10:35:53Z</time>
      </trkpt>
      <trkpt lat="45.03875" lon="-0.53313">
        <ele>40.1</ele>
        <time>2020-03-11T10:35:53Z</time>
      </trkpt>
      <trkpt lat="45.03867" lon="-0.53266">
        <ele>38.5</ele>
        <time>2020-03-11T10:35:53Z</time>
      </trkpt>
      <trkpt lat="45.03867" lon="-0.52829">
        <ele>21.5</ele>
        <time>2020-03-11T10:35:53Z</time>
      </trkpt>
      <trkpt lat="45.03888" lon="-0.52707">
        <ele>14.6</ele>
        <time>2020-03-11T10:35:53Z</time>
      </trkpt>
      <trkpt lat="45.03896" lon="-0.52624">
        <ele>12.4</ele>
        <time>2020-03-11T10:35:53Z</time>
      </trkpt>
      <trkpt lat="45.03906" lon="-0.52401">
        <ele>7.6</ele>
        <time>2020-03-11T10:35:53Z</time>
      </trkpt>
      <trkpt lat="45.03901" lon="-0.52365">
        <ele>6.7</ele>
        <time>2020-03-11T10:35:53Z</time>
      </trkpt>
      <trkpt lat="45.03892" lon="-0.52323">
        <ele>6.6</ele>
        <time>2020-03-11T10:35:53Z</time>
      </trkpt>
      <trkpt lat="45.03903" lon="-0.52242">
        <ele>6.5</ele>
        <time>2020-03-11T10:35:53Z</time>
      </trkpt>
      <trkpt lat="45.03898" lon="-0.52198">
        <ele>6.6</ele>
        <time>2020-03-11T10:35:53Z</time>
      </trkpt>
      <trkpt lat="45.03875" lon="-0.5215">
        <ele>6.5</ele>
        <time>2020-03-11T10:35:53Z</time>
      </trkpt>
      <trkpt lat="45.03864" lon="-0.52103">
        <ele>6</ele>
        <time>2020-03-11T10:35:53Z</time>
      </trkpt>
      <trkpt lat="45.0384" lon="-0.51984">
        <ele>5.1</ele>
        <time>2020-03-11T10:35:53Z</time>
      </trkpt>
      <trkpt lat="45.03816" lon="-0.51953">
        <ele>5.1</ele>
        <time>2020-03-11T10:35:53Z</time>
      </trkpt>
      <trkpt lat="45.03752" lon="-0.51875">
        <ele>6.2</ele>
        <time>2020-03-11T10:35:53Z</time>
      </trkpt>
      <trkpt lat="45.03727" lon="-0.51833">
        <ele>6.1</ele>
        <time>2020-03-11T10:35:53Z</time>
      </trkpt>
      <trkpt lat="45.0371" lon="-0.51786">
        <ele>7</ele>
        <time>2020-03-11T10:35:53Z</time>
      </trkpt>
      <trkpt lat="45.03677" lon="-0.51592">
        <ele>6.5</ele>
        <time>2020-03-11T10:35:53Z</time>
      </trkpt>
      <trkpt lat="45.03671" lon="-0.51507">
        <ele>7.2</ele>
        <time>2020-03-11T10:35:53Z</time>
      </trkpt>
      <trkpt lat="45.03659" lon="-0.51413">
        <ele>7.2</ele>
        <time>2020-03-11T10:35:53Z</time>
      </trkpt>
      <trkpt lat="45.03653" lon="-0.51339">
        <ele>6.5</ele>
        <time>2020-03-11T10:35:53Z</time>
      </trkpt>
      <trkpt lat="45.03652" lon="-0.51218">
        <ele>6.5</ele>
        <time>2020-03-11T10:35:53Z</time>
      </trkpt>
      <trkpt lat="45.03663" lon="-0.51091">
        <ele>7.8</ele>
        <time>2020-03-11T10:35:53Z</time>
      </trkpt>
      <trkpt lat="45.03681" lon="-0.50956">
        <ele>7.7</ele>
        <time>2020-03-11T10:35:53Z</time>
      </trkpt>
      <trkpt lat="45.03718" lon="-0.50763">
        <ele>5.2</ele>
        <time>2020-03-11T10:35:53Z</time>
      </trkpt>
      <trkpt lat="45.03727" lon="-0.5072">
        <ele>4.9</ele>
        <time>2020-03-11T10:35:53Z</time>
      </trkpt>
      <trkpt lat="45.03727" lon="-0.5067">
        <ele>4.7</ele>
        <time>2020-03-11T10:35:53Z</time>
      </trkpt>
      <trkpt lat="45.0371" lon="-0.50561">
        <ele>3.7</ele>
        <time>2020-03-11T10:35:53Z</time>
      </trkpt>
      <trkpt lat="45.03704" lon="-0.50521">
        <ele>4.3</ele>
        <time>2020-03-11T10:35:53Z</time>
      </trkpt>
      <trkpt lat="45.03693" lon="-0.50425">
        <ele>8.8</ele>
        <time>2020-03-11T10:35:53Z</time>
      </trkpt>
      <trkpt lat="45.03685" lon="-0.5038">
        <ele>12.6</ele>
        <time>2020-03-11T10:35:53Z</time>
      </trkpt>
      <trkpt lat="45.03674" lon="-0.50343">
        <ele>13.7</ele>
        <time>2020-03-11T10:35:53Z</time>
      </trkpt>
      <trkpt lat="45.03626" lon="-0.50256">
        <ele>18.3</ele>
        <time>2020-03-11T10:35:53Z</time>
      </trkpt>
      <trkpt lat="45.03616" lon="-0.50215">
        <ele>20.2</ele>
        <time>2020-03-11T10:35:53Z</time>
      </trkpt>
      <trkpt lat="45.03609" lon="-0.50171">
        <ele>20.9</ele>
        <time>2020-03-11T10:35:53Z</time>
      </trkpt>
      <trkpt lat="45.03602" lon="-0.50137">
        <ele>22.4</ele>
        <time>2020-03-11T10:35:53Z</time>
      </trkpt>
      <trkpt lat="45.03586" lon="-0.5004">
        <ele>25.5</ele>
        <time>2020-03-11T10:35:53Z</time>
      </trkpt>
      <trkpt lat="45.0358" lon="-0.50005">
        <ele>26.1</ele>
        <time>2020-03-11T10:35:53Z</time>
      </trkpt>
      <trkpt lat="45.03558" lon="-0.49906">
        <ele>27.8</ele>
        <time>2020-03-11T10:35:53Z</time>
      </trkpt>
      <trkpt lat="45.03533" lon="-0.49792">
        <ele>29.7</ele>
        <time>2020-03-11T10:35:53Z</time>
      </trkpt>
      <trkpt lat="45.03509" lon="-0.49714">
        <ele>32</ele>
        <time>2020-03-11T10:35:53Z</time>
      </trkpt>
      <trkpt lat="45.0349" lon="-0.4967">
        <ele>32.3</ele>
        <time>2020-03-11T10:35:53Z</time>
      </trkpt>
      <trkpt lat="45.03435" lon="-0.49544">
        <ele>32.4</ele>
        <time>2020-03-11T10:35:53Z</time>
      </trkpt>
      <trkpt lat="45.0338" lon="-0.49436">
        <ele>31.8</ele>
        <time>2020-03-11T10:35:53Z</time>
      </trkpt>
      <trkpt lat="45.03337" lon="-0.49369">
        <ele>32</ele>
        <time>2020-03-11T10:35:53Z</time>
      </trkpt>
      <trkpt lat="45.03313" lon="-0.49331">
        <ele>32</ele>
        <time>2020-03-11T10:35:53Z</time>
      </trkpt>
      <trkpt lat="45.03281" lon="-0.49263">
        <ele>32</ele>
        <time>2020-03-11T10:35:53Z</time>
      </trkpt>
      <trkpt lat="45.0325" lon="-0.49139">
        <ele>32</ele>
        <time>2020-03-11T10:35:53Z</time>
      </trkpt>
      <trkpt lat="45.03199" lon="-0.48962">
        <ele>32</ele>
        <time>2020-03-11T10:35:53Z</time>
      </trkpt>
      <trkpt lat="45.0315" lon="-0.48873">
        <ele>32.3</ele>
        <time>2020-03-11T10:35:53Z</time>
      </trkpt>
      <trkpt lat="45.03084" lon="-0.48806">
        <ele>33</ele>
        <time>2020-03-11T10:35:53Z</time>
      </trkpt>
      <trkpt lat="45.03016" lon="-0.48739">
        <ele>31.7</ele>
        <time>2020-03-11T10:35:53Z</time>
      </trkpt>
      <trkpt lat="45.02957" lon="-0.48654">
        <ele>31.2</ele>
        <time>2020-03-11T10:35:53Z</time>
      </trkpt>
      <trkpt lat="45.02897" lon="-0.48543">
        <ele>30.9</ele>
        <time>2020-03-11T10:35:53Z</time>
      </trkpt>
      <trkpt lat="45.02839" lon="-0.48463">
        <ele>29.2</ele>
        <time>2020-03-11T10:35:53Z</time>
      </trkpt>
      <trkpt lat="45.02789" lon="-0.48396">
        <ele>28.4</ele>
        <time>2020-03-11T10:35:53Z</time>
      </trkpt>
      <trkpt lat="45.02754" lon="-0.48346">
        <ele>28.9</ele>
        <time>2020-03-11T10:35:53Z</time>
      </trkpt>
      <trkpt lat="45.02735" lon="-0.4832">
        <ele>29.3</ele>
        <time>2020-03-11T10:35:53Z</time>
      </trkpt>
      <trkpt lat="45.02705" lon="-0.48291">
        <ele>29.8</ele>
        <time>2020-03-11T10:35:53Z</time>
      </trkpt>
      <trkpt lat="45.02654" lon="-0.48259">
        <ele>29.9</ele>
        <time>2020-03-11T10:35:53Z</time>
      </trkpt>
      <trkpt lat="45.02624" lon="-0.48233">
        <ele>30.2</ele>
        <time>2020-03-11T10:35:53Z</time>
      </trkpt>
      <trkpt lat="45.02609" lon="-0.48214">
        <ele>30.7</ele>
        <time>2020-03-11T10:35:53Z</time>
      </trkpt>
      <trkpt lat="45.02592" lon="-0.48194">
        <ele>30</ele>
        <time>2020-03-11T10:35:53Z</time>
      </trkpt>
      <trkpt lat="45.02417" lon="-0.47873">
        <ele>25.4</ele>
        <time>2020-03-11T10:35:53Z</time>
      </trkpt>
      <trkpt lat="45.02294" lon="-0.47686">
        <ele>16.4</ele>
        <time>2020-03-11T10:35:53Z</time>
      </trkpt>
      <trkpt lat="45.02237" lon="-0.47599">
        <ele>16.5</ele>
        <time>2020-03-11T10:35:53Z</time>
      </trkpt>
      <trkpt lat="45.02071" lon="-0.47442">
        <ele>17.6</ele>
        <time>2020-03-11T10:35:53Z</time>
      </trkpt>
      <trkpt lat="45.02054" lon="-0.4743">
        <ele>17.5</ele>
        <time>2020-03-11T10:35:53Z</time>
      </trkpt>
      <trkpt lat="45.01935" lon="-0.47347">
        <ele>16.8</ele>
        <time>2020-03-11T10:35:53Z</time>
      </trkpt>
      <trkpt lat="45.0187" lon="-0.47291">
        <ele>16.7</ele>
        <time>2020-03-11T10:35:53Z</time>
      </trkpt>
      <trkpt lat="45.01784" lon="-0.47197">
        <ele>16.9</ele>
        <time>2020-03-11T10:35:53Z</time>
      </trkpt>
      <trkpt lat="45.01679" lon="-0.47111">
        <ele>17.6</ele>
        <time>2020-03-11T10:35:53Z</time>
      </trkpt>
      <trkpt lat="45.01612" lon="-0.4706">
        <ele>18</ele>
        <time>2020-03-11T10:35:53Z</time>
      </trkpt>
      <trkpt lat="45.01587" lon="-0.47043">
        <ele>18.1</ele>
        <time>2020-03-11T10:35:53Z</time>
      </trkpt>
      <trkpt lat="45.0151" lon="-0.46987">
        <ele>17.7</ele>
        <time>2020-03-11T10:35:53Z</time>
      </trkpt>
      <trkpt lat="45.01478" lon="-0.46964">
        <ele>17.4</ele>
        <time>2020-03-11T10:35:53Z</time>
      </trkpt>
      <trkpt lat="45.01437" lon="-0.46939">
        <ele>17.1</ele>
        <time>2020-03-11T10:35:53Z</time>
      </trkpt>
      <trkpt lat="45.01412" lon="-0.46924">
        <ele>16.8</ele>
        <time>2020-03-11T10:35:53Z</time>
      </trkpt>
      <trkpt lat="45.01301" lon="-0.46856">
        <ele>14.9</ele>
        <time>2020-03-11T10:35:53Z</time>
      </trkpt>
      <trkpt lat="45.01258" lon="-0.46831">
        <ele>15</ele>
        <time>2020-03-11T10:35:53Z</time>
      </trkpt>
      <trkpt lat="45.01194" lon="-0.46764">
        <ele>15.5</ele>
        <time>2020-03-11T10:35:53Z</time>
      </trkpt>
      <trkpt lat="45.01131" lon="-0.46697">
        <ele>16.6</ele>
        <time>2020-03-11T10:35:53Z</time>
      </trkpt>
      <trkpt lat="45.01078" lon="-0.46627">
        <ele>16.9</ele>
        <time>2020-03-11T10:35:53Z</time>
      </trkpt>
      <trkpt lat="45.01035" lon="-0.46569">
        <ele>17.6</ele>
        <time>2020-03-11T10:35:53Z</time>
      </trkpt>
      <trkpt lat="45.00921" lon="-0.46479">
        <ele>18.8</ele>
        <time>2020-03-11T10:35:53Z</time>
      </trkpt>
      <trkpt lat="45.00839" lon="-0.46397">
        <ele>19</ele>
        <time>2020-03-11T10:35:53Z</time>
      </trkpt>
      <trkpt lat="45.00689" lon="-0.46248">
        <ele>21</ele>
        <time>2020-03-11T10:35:53Z</time>
      </trkpt>
      <trkpt lat="45.00651" lon="-0.4621">
        <ele>21.8</ele>
        <time>2020-03-11T10:35:53Z</time>
      </trkpt>
      <trkpt lat="45.00615" lon="-0.46184">
        <ele>22.9</ele>
        <time>2020-03-11T10:35:53Z</time>
      </trkpt>
      <trkpt lat="45.0052" lon="-0.46146">
        <ele>24.7</ele>
        <time>2020-03-11T10:35:53Z</time>
      </trkpt>
      <trkpt lat="45.00189" lon="-0.46073">
        <ele>31.1</ele>
        <time>2020-03-11T10:35:53Z</time>
      </trkpt>
      <trkpt lat="45.0014" lon="-0.46062">
        <ele>32.7</ele>
        <time>2020-03-11T10:35:53Z</time>
      </trkpt>
      <trkpt lat="45.00101" lon="-0.46044">
        <ele>34.4</ele>
        <time>2020-03-11T10:35:53Z</time>
      </trkpt>
      <trkpt lat="45.00057" lon="-0.46024">
        <ele>35</ele>
        <time>2020-03-11T10:35:53Z</time>
      </trkpt>
      <trkpt lat="45.00021" lon="-0.46004">
        <ele>34.8</ele>
        <time>2020-03-11T10:35:53Z</time>
      </trkpt>
      <trkpt lat="44.99988" lon="-0.45986">
        <ele>34.1</ele>
        <time>2020-03-11T10:35:53Z</time>
      </trkpt>
      <trkpt lat="44.99904" lon="-0.4594">
        <ele>32.5</ele>
        <time>2020-03-11T10:35:53Z</time>
      </trkpt>
      <trkpt lat="44.99869" lon="-0.4592">
        <ele>31.9</ele>
        <time>2020-03-11T10:35:53Z</time>
      </trkpt>
      <trkpt lat="44.99804" lon="-0.45885">
        <ele>32</ele>
        <time>2020-03-11T10:35:53Z</time>
      </trkpt>
      <trkpt lat="44.99737" lon="-0.45837">
        <ele>31.9</ele>
        <time>2020-03-11T10:35:53Z</time>
      </trkpt>
      <trkpt lat="44.99655" lon="-0.45753">
        <ele>32</ele>
        <time>2020-03-11T10:35:53Z</time>
      </trkpt>
      <trkpt lat="44.99504" lon="-0.45566">
        <ele>32.9</ele>
        <time>2020-03-11T10:35:53Z</time>
      </trkpt>
      <trkpt lat="44.99483" lon="-0.45539">
        <ele>32.1</ele>
        <time>2020-03-11T10:35:53Z</time>
      </trkpt>
      <trkpt lat="44.99465" lon="-0.4551">
        <ele>32.2</ele>
        <time>2020-03-11T10:35:53Z</time>
      </trkpt>
      <trkpt lat="44.99452" lon="-0.45485">
        <ele>31.7</ele>
        <time>2020-03-11T10:35:53Z</time>
      </trkpt>
      <trkpt lat="44.99433" lon="-0.45492">
        <ele>30.6</ele>
        <time>2020-03-11T10:35:53Z</time>
      </trkpt>
      <trkpt lat="44.99391" lon="-0.45595">
        <ele>27.7</ele>
        <time>2020-03-11T10:35:53Z</time>
      </trkpt>
      <trkpt lat="44.99331" lon="-0.45758">
        <ele>21.9</ele>
        <time>2020-03-11T10:35:53Z</time>
      </trkpt>
      <trkpt lat="44.99315" lon="-0.45802">
        <ele>20.5</ele>
        <time>2020-03-11T10:35:53Z</time>
      </trkpt>
      <trkpt lat="44.99306" lon="-0.45826">
        <ele>20</ele>
        <time>2020-03-11T10:35:53Z</time>
      </trkpt>
      <trkpt lat="44.99277" lon="-0.45903">
        <ele>17.5</ele>
        <time>2020-03-11T10:35:53Z</time>
      </trkpt>
      <trkpt lat="44.99164" lon="-0.45893">
        <ele>16.9</ele>
        <time>2020-03-11T10:35:53Z</time>
      </trkpt>
      <trkpt lat="44.99156" lon="-0.45857">
        <ele>17.9</ele>
        <time>2020-03-11T10:35:53Z</time>
      </trkpt>
      <trkpt lat="44.99163" lon="-0.45826">
        <ele>16.9</ele>
        <time>2020-03-11T10:35:53Z</time>
      </trkpt>
      <trkpt lat="44.99171" lon="-0.45792">
        <ele>17.4</ele>
        <time>2020-03-11T10:35:53Z</time>
      </trkpt>
      <trkpt lat="44.99177" lon="-0.45721">
        <ele>18.2</ele>
        <time>2020-03-11T10:35:53Z</time>
      </trkpt>
      <trkpt lat="44.99046" lon="-0.45694">
        <ele>17</ele>
        <time>2020-03-11T10:35:53Z</time>
      </trkpt>
      <trkpt lat="44.98935" lon="-0.45657">
        <ele>15.8</ele>
        <time>2020-03-11T10:35:53Z</time>
      </trkpt>
      <trkpt lat="44.98912" lon="-0.45678">
        <ele>15</ele>
        <time>2020-03-11T10:35:53Z</time>
      </trkpt>
      <trkpt lat="44.98891" lon="-0.457">
        <ele>15</ele>
        <time>2020-03-11T10:35:53Z</time>
      </trkpt>
      <trkpt lat="44.98825" lon="-0.45746">
        <ele>13.7</ele>
        <time>2020-03-11T10:35:53Z</time>
      </trkpt>
      <trkpt lat="44.98788" lon="-0.45767">
        <ele>13</ele>
        <time>2020-03-11T10:35:53Z</time>
      </trkpt>
      <trkpt lat="44.98742" lon="-0.45801">
        <ele>12.6</ele>
        <time>2020-03-11T10:35:53Z</time>
      </trkpt>
      <trkpt lat="44.98695" lon="-0.45837">
        <ele>12</ele>
        <time>2020-03-11T10:35:53Z</time>
      </trkpt>
      <trkpt lat="44.98609" lon="-0.4589">
        <ele>10.9</ele>
        <time>2020-03-11T10:35:53Z</time>
      </trkpt>
      <trkpt lat="44.98545" lon="-0.45924">
        <ele>10</ele>
        <time>2020-03-11T10:35:53Z</time>
      </trkpt>
      <trkpt lat="44.98464" lon="-0.45952">
        <ele>10</ele>
        <time>2020-03-11T10:35:53Z</time>
      </trkpt>
      <trkpt lat="44.98421" lon="-0.45964">
        <ele>8.3</ele>
        <time>2020-03-11T10:35:53Z</time>
      </trkpt>
      <trkpt lat="44.98388" lon="-0.45977">
        <ele>6</ele>
        <time>2020-03-11T10:35:53Z</time>
      </trkpt>
      <trkpt lat="44.98361" lon="-0.45983">
        <ele>5.6</ele>
        <time>2020-03-11T10:35:53Z</time>
      </trkpt>
      <trkpt lat="44.9833" lon="-0.4598">
        <ele>4.7</ele>
        <time>2020-03-11T10:35:53Z</time>
      </trkpt>
      <trkpt lat="44.98306" lon="-0.45978">
        <ele>4.8</ele>
        <time>2020-03-11T10:35:53Z</time>
      </trkpt>
      <trkpt lat="44.9828" lon="-0.45994">
        <ele>4</ele>
        <time>2020-03-11T10:35:53Z</time>
      </trkpt>
      <trkpt lat="44.98225" lon="-0.46055">
        <ele>4</ele>
        <time>2020-03-11T10:35:53Z</time>
      </trkpt>
      <trkpt lat="44.98173" lon="-0.46113">
        <ele>4</ele>
        <time>2020-03-11T10:35:53Z</time>
      </trkpt>
      <trkpt lat="44.98156" lon="-0.46129">
        <ele>4</ele>
        <time>2020-03-11T10:35:53Z</time>
      </trkpt>
      <trkpt lat="44.98139" lon="-0.4614">
        <ele>4</ele>
        <time>2020-03-11T10:35:53Z</time>
      </trkpt>
      <trkpt lat="44.98084" lon="-0.46176">
        <ele>4</ele>
        <time>2020-03-11T10:35:53Z</time>
      </trkpt>
      <trkpt lat="44.98065" lon="-0.46184">
        <ele>3.8</ele>
        <time>2020-03-11T10:35:53Z</time>
      </trkpt>
      <trkpt lat="44.98025" lon="-0.46211">
        <ele>3.6</ele>
        <time>2020-03-11T10:35:53Z</time>
      </trkpt>
      <trkpt lat="44.97982" lon="-0.4624">
        <ele>4</ele>
        <time>2020-03-11T10:35:53Z</time>
      </trkpt>
      <trkpt lat="44.97964" lon="-0.46251">
        <ele>4</ele>
        <time>2020-03-11T10:35:53Z</time>
      </trkpt>
      <trkpt lat="44.97945" lon="-0.46246">
        <ele>4</ele>
        <time>2020-03-11T10:35:53Z</time>
      </trkpt>
      <trkpt lat="44.97883" lon="-0.46233">
        <ele>4</ele>
        <time>2020-03-11T10:35:53Z</time>
      </trkpt>
      <trkpt lat="44.97831" lon="-0.46223">
        <ele>4</ele>
        <time>2020-03-11T10:35:53Z</time>
      </trkpt>
      <trkpt lat="44.97787" lon="-0.46211">
        <ele>4</ele>
        <time>2020-03-11T10:35:53Z</time>
      </trkpt>
      <trkpt lat="44.97756" lon="-0.46199">
        <ele>4</ele>
        <time>2020-03-11T10:35:53Z</time>
      </trkpt>
      <trkpt lat="44.97727" lon="-0.46178">
        <ele>4</ele>
        <time>2020-03-11T10:35:53Z</time>
      </trkpt>
      <trkpt lat="44.97693" lon="-0.46161">
        <ele>4</ele>
        <time>2020-03-11T10:35:53Z</time>
      </trkpt>
      <trkpt lat="44.97687" lon="-0.46188">
        <ele>4</ele>
        <time>2020-03-11T10:35:53Z</time>
      </trkpt>
      <trkpt lat="44.97674" lon="-0.4623">
        <ele>4</ele>
        <time>2020-03-11T10:35:53Z</time>
      </trkpt>
      <trkpt lat="44.97654" lon="-0.46269">
        <ele>4</ele>
        <time>2020-03-11T10:35:53Z</time>
      </trkpt>
      <trkpt lat="44.97628" lon="-0.46312">
        <ele>4</ele>
        <time>2020-03-11T10:35:53Z</time>
      </trkpt>
      <trkpt lat="44.97596" lon="-0.46371">
        <ele>4</ele>
        <time>2020-03-11T10:35:53Z</time>
      </trkpt>
      <trkpt lat="44.97561" lon="-0.46429">
        <ele>4</ele>
        <time>2020-03-11T10:35:53Z</time>
      </trkpt>
      <trkpt lat="44.97525" lon="-0.46485">
        <ele>4.1</ele>
        <time>2020-03-11T10:35:53Z</time>
      </trkpt>
      <trkpt lat="44.97499" lon="-0.46539">
        <ele>4.6</ele>
        <time>2020-03-11T10:35:53Z</time>
      </trkpt>
      <trkpt lat="44.97482" lon="-0.46572">
        <ele>4.6</ele>
        <time>2020-03-11T10:35:53Z</time>
      </trkpt>
      <trkpt lat="44.97469" lon="-0.46595">
        <ele>4.6</ele>
        <time>2020-03-11T10:35:53Z</time>
      </trkpt>
      <trkpt lat="44.97448" lon="-0.46605">
        <ele>4.9</ele>
        <time>2020-03-11T10:35:53Z</time>
      </trkpt>
      <trkpt lat="44.97432" lon="-0.46623">
        <ele>5.5</ele>
        <time>2020-03-11T10:35:53Z</time>
      </trkpt>
      <trkpt lat="44.97416" lon="-0.46649">
        <ele>5.6</ele>
        <time>2020-03-11T10:35:53Z</time>
      </trkpt>
      <trkpt lat="44.97396" lon="-0.46647">
        <ele>5</ele>
        <time>2020-03-11T10:35:53Z</time>
      </trkpt>
      <trkpt lat="44.97361" lon="-0.46627">
        <ele>4.9</ele>
        <time>2020-03-11T10:35:53Z</time>
      </trkpt>
      <trkpt lat="44.97336" lon="-0.4661">
        <ele>5.2</ele>
        <time>2020-03-11T10:35:53Z</time>
      </trkpt>
      <trkpt lat="44.97318" lon="-0.46593">
        <ele>5.4</ele>
        <time>2020-03-11T10:35:53Z</time>
      </trkpt>
      <trkpt lat="44.97297" lon="-0.46572">
        <ele>5.3</ele>
        <time>2020-03-11T10:35:53Z</time>
      </trkpt>
      <trkpt lat="44.97284" lon="-0.46553">
        <ele>4.8</ele>
        <time>2020-03-11T10:35:53Z</time>
      </trkpt>
      <trkpt lat="44.97273" lon="-0.46526">
        <ele>4.9</ele>
        <time>2020-03-11T10:35:53Z</time>
      </trkpt>
      <trkpt lat="44.97257" lon="-0.46485">
        <ele>5.2</ele>
        <time>2020-03-11T10:35:53Z</time>
      </trkpt>
      <trkpt lat="44.9724" lon="-0.4645">
        <ele>5.2</ele>
        <time>2020-03-11T10:35:53Z</time>
      </trkpt>
      <trkpt lat="44.97219" lon="-0.46416">
        <ele>5</ele>
        <time>2020-03-11T10:35:53Z</time>
      </trkpt>
      <trkpt lat="44.97203" lon="-0.46391">
        <ele>5.4</ele>
        <time>2020-03-11T10:35:53Z</time>
      </trkpt>
      <trkpt lat="44.97186" lon="-0.46369">
        <ele>5</ele>
        <time>2020-03-11T10:35:53Z</time>
      </trkpt>
      <trkpt lat="44.97171" lon="-0.46346">
        <ele>4.9</ele>
        <time>2020-03-11T10:35:53Z</time>
      </trkpt>
      <trkpt lat="44.97159" lon="-0.46324">
        <ele>4.7</ele>
        <time>2020-03-11T10:35:53Z</time>
      </trkpt>
      <trkpt lat="44.97126" lon="-0.46274">
        <ele>5.1</ele>
        <time>2020-03-11T10:35:53Z</time>
      </trkpt>
      <trkpt lat="44.97108" lon="-0.46241">
        <ele>4.3</ele>
        <time>2020-03-11T10:35:53Z</time>
      </trkpt>
      <trkpt lat="44.97089" lon="-0.46239">
        <ele>4.1</ele>
        <time>2020-03-11T10:35:53Z</time>
      </trkpt>
      <trkpt lat="44.97071" lon="-0.46262">
        <ele>4.2</ele>
        <time>2020-03-11T10:35:53Z</time>
      </trkpt>
      <trkpt lat="44.97055" lon="-0.46283">
        <ele>4</ele>
        <time>2020-03-11T10:35:53Z</time>
      </trkpt>
      <trkpt lat="44.97035" lon="-0.46281">
        <ele>4</ele>
        <time>2020-03-11T10:35:53Z</time>
      </trkpt>
      <trkpt lat="44.96997" lon="-0.46245">
        <ele>4</ele>
        <time>2020-03-11T10:35:53Z</time>
      </trkpt>
      <trkpt lat="44.96974" lon="-0.46216">
        <ele>4</ele>
        <time>2020-03-11T10:35:53Z</time>
      </trkpt>
      <trkpt lat="44.96956" lon="-0.46181">
        <ele>4</ele>
        <time>2020-03-11T10:35:53Z</time>
      </trkpt>
      <trkpt lat="44.96948" lon="-0.46145">
        <ele>4</ele>
        <time>2020-03-11T10:35:53Z</time>
      </trkpt>
      <trkpt lat="44.96948" lon="-0.46114">
        <ele>4</ele>
        <time>2020-03-11T10:35:53Z</time>
      </trkpt>
      <trkpt lat="44.9695" lon="-0.46079">
        <ele>4</ele>
        <time>2020-03-11T10:35:53Z</time>
      </trkpt>
      <trkpt lat="44.96949" lon="-0.46052">
        <ele>4.1</ele>
        <time>2020-03-11T10:35:53Z</time>
      </trkpt>
      <trkpt lat="44.96941" lon="-0.46024">
        <ele>5</ele>
        <time>2020-03-11T10:35:53Z</time>
      </trkpt>
      <trkpt lat="44.96923" lon="-0.46019">
        <ele>5</ele>
        <time>2020-03-11T10:35:53Z</time>
      </trkpt>
      <trkpt lat="44.96898" lon="-0.46018">
        <ele>4.6</ele>
        <time>2020-03-11T10:35:53Z</time>
      </trkpt>
      <trkpt lat="44.96878" lon="-0.46014">
        <ele>4.5</ele>
        <time>2020-03-11T10:35:53Z</time>
      </trkpt>
      <trkpt lat="44.96845" lon="-0.45989">
        <ele>4.6</ele>
        <time>2020-03-11T10:35:53Z</time>
      </trkpt>
      <trkpt lat="44.9683" lon="-0.45974">
        <ele>4.9</ele>
        <time>2020-03-11T10:35:53Z</time>
      </trkpt>
      <trkpt lat="44.96763" lon="-0.45896">
        <ele>4.8</ele>
        <time>2020-03-11T10:35:53Z</time>
      </trkpt>
      <trkpt lat="44.96722" lon="-0.45829">
        <ele>5.2</ele>
        <time>2020-03-11T10:35:53Z</time>
      </trkpt>
      <trkpt lat="44.96708" lon="-0.45804">
        <ele>5.5</ele>
        <time>2020-03-11T10:35:53Z</time>
      </trkpt>
      <trkpt lat="44.96702" lon="-0.45771">
        <ele>5.1</ele>
        <time>2020-03-11T10:35:53Z</time>
      </trkpt>
      <trkpt lat="44.96724" lon="-0.45695">
        <ele>6.3</ele>
        <time>2020-03-11T10:35:53Z</time>
      </trkpt>
      <trkpt lat="44.96736" lon="-0.45659">
        <ele>7.2</ele>
        <time>2020-03-11T10:35:53Z</time>
      </trkpt>
      <trkpt lat="44.96751" lon="-0.45623">
        <ele>7.1</ele>
        <time>2020-03-11T10:35:53Z</time>
      </trkpt>
      <trkpt lat="44.96761" lon="-0.45601">
        <ele>7</ele>
        <time>2020-03-11T10:35:53Z</time>
      </trkpt>
      <trkpt lat="44.96756" lon="-0.4557">
        <ele>6.5</ele>
        <time>2020-03-11T10:35:53Z</time>
      </trkpt>
      <trkpt lat="44.96737" lon="-0.45555">
        <ele>6.1</ele>
        <time>2020-03-11T10:35:53Z</time>
      </trkpt>
      <trkpt lat="44.96721" lon="-0.45531">
        <ele>7.5</ele>
        <time>2020-03-11T10:35:53Z</time>
      </trkpt>
      <trkpt lat="44.96711" lon="-0.45505">
        <ele>8.3</ele>
        <time>2020-03-11T10:35:53Z</time>
      </trkpt>
      <trkpt lat="44.96693" lon="-0.4549">
        <ele>7.6</ele>
        <time>2020-03-11T10:35:53Z</time>
      </trkpt>
      <trkpt lat="44.96661" lon="-0.45491">
        <ele>7.3</ele>
        <time>2020-03-11T10:35:53Z</time>
      </trkpt>
      <trkpt lat="44.9663" lon="-0.4549">
        <ele>7.2</ele>
        <time>2020-03-11T10:35:53Z</time>
      </trkpt>
      <trkpt lat="44.96599" lon="-0.45495">
        <ele>8.4</ele>
        <time>2020-03-11T10:35:53Z</time>
      </trkpt>
      <trkpt lat="44.96565" lon="-0.45505">
        <ele>10.1</ele>
        <time>2020-03-11T10:35:53Z</time>
      </trkpt>
      <trkpt lat="44.96536" lon="-0.45516">
        <ele>9.9</ele>
        <time>2020-03-11T10:35:53Z</time>
      </trkpt>
      <trkpt lat="44.96511" lon="-0.45531">
        <ele>10.9</ele>
        <time>2020-03-11T10:35:53Z</time>
      </trkpt>
      <trkpt lat="44.96492" lon="-0.45548">
        <ele>11</ele>
        <time>2020-03-11T10:35:53Z</time>
      </trkpt>
      <trkpt lat="44.96473" lon="-0.45568">
        <ele>12.4</ele>
        <time>2020-03-11T10:35:53Z</time>
      </trkpt>
      <trkpt lat="44.96448" lon="-0.45601">
        <ele>12.8</ele>
        <time>2020-03-11T10:35:53Z</time>
      </trkpt>
      <trkpt lat="44.96432" lon="-0.45626">
        <ele>8.8</ele>
        <time>2020-03-11T10:35:53Z</time>
      </trkpt>
      <trkpt lat="44.96416" lon="-0.45655">
        <ele>5</ele>
        <time>2020-03-11T10:35:53Z</time>
      </trkpt>
      <trkpt lat="44.95922" lon="-0.46723">
        <ele>11</ele>
        <time>2020-03-11T10:35:53Z</time>
      </trkpt>
      <trkpt lat="44.95902" lon="-0.46761">
        <ele>10.3</ele>
        <time>2020-03-11T10:35:53Z</time>
      </trkpt>
      <trkpt lat="44.95884" lon="-0.46787">
        <ele>10.4</ele>
        <time>2020-03-11T10:35:53Z</time>
      </trkpt>
      <trkpt lat="44.95859" lon="-0.46813">
        <ele>10.1</ele>
        <time>2020-03-11T10:35:53Z</time>
      </trkpt>
      <trkpt lat="44.95841" lon="-0.46829">
        <ele>9.4</ele>
        <time>2020-03-11T10:35:53Z</time>
      </trkpt>
      <trkpt lat="44.95811" lon="-0.46846">
        <ele>8.1</ele>
        <time>2020-03-11T10:35:53Z</time>
      </trkpt>
      <trkpt lat="44.95778" lon="-0.46858">
        <ele>7.8</ele>
        <time>2020-03-11T10:35:53Z</time>
      </trkpt>
      <trkpt lat="44.95747" lon="-0.46863">
        <ele>6.7</ele>
        <time>2020-03-11T10:35:53Z</time>
      </trkpt>
      <trkpt lat="44.9572" lon="-0.46861">
        <ele>5.9</ele>
        <time>2020-03-11T10:35:53Z</time>
      </trkpt>
      <trkpt lat="44.95677" lon="-0.46856">
        <ele>4.9</ele>
        <time>2020-03-11T10:35:53Z</time>
      </trkpt>
      <trkpt lat="44.95623" lon="-0.46845">
        <ele>5</ele>
        <time>2020-03-11T10:35:53Z</time>
      </trkpt>
      <trkpt lat="44.95617" lon="-0.46871">
        <ele>4.6</ele>
        <time>2020-03-11T10:35:53Z</time>
      </trkpt>
      <trkpt lat="44.95603" lon="-0.46887">
        <ele>4</ele>
        <time>2020-03-11T10:35:53Z</time>
      </trkpt>
      <trkpt lat="44.95604" lon="-0.46915">
        <ele>4</ele>
        <time>2020-03-11T10:35:53Z</time>
      </trkpt>
      <trkpt lat="44.95624" lon="-0.46904">
        <ele>4</ele>
        <time>2020-03-11T10:35:53Z</time>
      </trkpt>
      <trkpt lat="44.95637" lon="-0.46886">
        <ele>4.1</ele>
        <time>2020-03-11T10:35:53Z</time>
      </trkpt>
      <trkpt lat="44.95657" lon="-0.46879">
        <ele>4.4</ele>
        <time>2020-03-11T10:35:53Z</time>
      </trkpt>
      <trkpt lat="44.95682" lon="-0.46878">
        <ele>4.4</ele>
        <time>2020-03-11T10:35:53Z</time>
      </trkpt>
      <trkpt lat="44.95699" lon="-0.46898">
        <ele>3.7</ele>
        <time>2020-03-11T10:35:53Z</time>
      </trkpt>
      <trkpt lat="44.957" lon="-0.4698">
        <ele>3</ele>
        <time>2020-03-11T10:35:53Z</time>
      </trkpt>
      <trkpt lat="44.95702" lon="-0.47164">
        <ele>2.3</ele>
        <time>2020-03-11T10:35:53Z</time>
      </trkpt>
      <trkpt lat="44.95703" lon="-0.47373">
        <ele>2.7</ele>
        <time>2020-03-11T10:35:53Z</time>
      </trkpt>
      <trkpt lat="44.95704" lon="-0.47472">
        <ele>3</ele>
        <time>2020-03-11T10:35:53Z</time>
      </trkpt>
      <trkpt lat="44.95703" lon="-0.47526">
        <ele>3</ele>
        <time>2020-03-11T10:35:53Z</time>
      </trkpt>
      <trkpt lat="44.95697" lon="-0.47565">
        <ele>2.6</ele>
        <time>2020-03-11T10:35:53Z</time>
      </trkpt>
      <trkpt lat="44.95681" lon="-0.47605">
        <ele>2.5</ele>
        <time>2020-03-11T10:35:53Z</time>
      </trkpt>
      <trkpt lat="44.95659" lon="-0.47663">
        <ele>2</ele>
        <time>2020-03-11T10:35:53Z</time>
      </trkpt>
      <trkpt lat="44.95642" lon="-0.47705">
        <ele>2.1</ele>
        <time>2020-03-11T10:35:53Z</time>
      </trkpt>
      <trkpt lat="44.95637" lon="-0.47733">
        <ele>2</ele>
        <time>2020-03-11T10:35:53Z</time>
      </trkpt>
      <trkpt lat="44.95646" lon="-0.47779">
        <ele>2.2</ele>
        <time>2020-03-11T10:35:53Z</time>
      </trkpt>
      <trkpt lat="44.95657" lon="-0.47815">
        <ele>2</ele>
        <time>2020-03-11T10:35:53Z</time>
      </trkpt>
      <trkpt lat="44.95677" lon="-0.47839">
        <ele>2</ele>
        <time>2020-03-11T10:35:53Z</time>
      </trkpt>
      <trkpt lat="44.95703" lon="-0.47848">
        <ele>2</ele>
        <time>2020-03-11T10:35:53Z</time>
      </trkpt>
      <trkpt lat="44.95799" lon="-0.4785">
        <ele>2</ele>
        <time>2020-03-11T10:35:53Z</time>
      </trkpt>
      <trkpt lat="44.9583" lon="-0.47851">
        <ele>2</ele>
        <time>2020-03-11T10:35:53Z</time>
      </trkpt>
      <trkpt lat="44.95854" lon="-0.47872">
        <ele>2.4</ele>
        <time>2020-03-11T10:35:53Z</time>
      </trkpt>
      <trkpt lat="44.95871" lon="-0.47896">
        <ele>3.8</ele>
        <time>2020-03-11T10:35:53Z</time>
      </trkpt>
      <trkpt lat="44.95881" lon="-0.47935">
        <ele>4.8</ele>
        <time>2020-03-11T10:35:53Z</time>
      </trkpt>
      <trkpt lat="44.95883" lon="-0.47965">
        <ele>3</ele>
        <time>2020-03-11T10:35:53Z</time>
      </trkpt>
      <trkpt lat="44.95876" lon="-0.47989">
        <ele>2.4</ele>
        <time>2020-03-11T10:35:53Z</time>
      </trkpt>
      <trkpt lat="44.95841" lon="-0.48031">
        <ele>2</ele>
        <time>2020-03-11T10:35:53Z</time>
      </trkpt>
      <trkpt lat="44.95798" lon="-0.48067">
        <ele>1.7</ele>
        <time>2020-03-11T10:35:53Z</time>
      </trkpt>
      <trkpt lat="44.95777" lon="-0.48107">
        <ele>2</ele>
        <time>2020-03-11T10:35:53Z</time>
      </trkpt>
      <trkpt lat="44.95839" lon="-0.4829">
        <ele>1.9</ele>
        <time>2020-03-11T10:35:53Z</time>
      </trkpt>
      <trkpt lat="44.95884" lon="-0.48414">
        <ele>1.9</ele>
        <time>2020-03-11T10:35:53Z</time>
      </trkpt>
      <trkpt lat="44.9543" lon="-0.48587">
        <ele>2</ele>
        <time>2020-03-11T10:35:53Z</time>
      </trkpt>
      <trkpt lat="44.95211" lon="-0.48677">
        <ele>3.6</ele>
        <time>2020-03-11T10:35:53Z</time>
      </trkpt>
      <trkpt lat="44.95026" lon="-0.48756">
        <ele>6</ele>
        <time>2020-03-11T10:35:53Z</time>
      </trkpt>
      <trkpt lat="44.94898" lon="-0.4881">
        <ele>8</ele>
        <time>2020-03-11T10:35:53Z</time>
      </trkpt>
      <trkpt lat="44.94877" lon="-0.48823">
        <ele>8.2</ele>
        <time>2020-03-11T10:35:53Z</time>
      </trkpt>
      <trkpt lat="44.94792" lon="-0.48875">
        <ele>8.8</ele>
        <time>2020-03-11T10:35:53Z</time>
      </trkpt>
      <trkpt lat="44.9473" lon="-0.48911">
        <ele>9</ele>
        <time>2020-03-11T10:35:53Z</time>
      </trkpt>
      <trkpt lat="44.94535" lon="-0.48979">
        <ele>10</ele>
        <time>2020-03-11T10:35:53Z</time>
      </trkpt>
      <trkpt lat="44.94357" lon="-0.49058">
        <ele>11</ele>
        <time>2020-03-11T10:35:53Z</time>
      </trkpt>
      <trkpt lat="44.94328" lon="-0.49071">
        <ele>11</ele>
        <time>2020-03-11T10:35:53Z</time>
      </trkpt>
      <trkpt lat="44.94287" lon="-0.49092">
        <ele>11</ele>
        <time>2020-03-11T10:35:53Z</time>
      </trkpt>
      <trkpt lat="44.9425" lon="-0.4911">
        <ele>11</ele>
        <time>2020-03-11T10:35:53Z</time>
      </trkpt>
      <trkpt lat="44.94145" lon="-0.4916">
        <ele>11</ele>
        <time>2020-03-11T10:35:53Z</time>
      </trkpt>
      <trkpt lat="44.94106" lon="-0.49177">
        <ele>11.2</ele>
        <time>2020-03-11T10:35:53Z</time>
      </trkpt>
      <trkpt lat="44.94044" lon="-0.4919">
        <ele>11</ele>
        <time>2020-03-11T10:35:53Z</time>
      </trkpt>
      <trkpt lat="44.93968" lon="-0.49221">
        <ele>11</ele>
        <time>2020-03-11T10:35:53Z</time>
      </trkpt>
      <trkpt lat="44.93792" lon="-0.49299">
        <ele>12</ele>
        <time>2020-03-11T10:35:53Z</time>
      </trkpt>
      <trkpt lat="44.93714" lon="-0.49334">
        <ele>12</ele>
        <time>2020-03-11T10:35:53Z</time>
      </trkpt>
      <trkpt lat="44.93696" lon="-0.49342">
        <ele>12</ele>
        <time>2020-03-11T10:35:53Z</time>
      </trkpt>
      <trkpt lat="44.93669" lon="-0.49354">
        <ele>11.8</ele>
        <time>2020-03-11T10:35:53Z</time>
      </trkpt>
      <trkpt lat="44.93651" lon="-0.49362">
        <ele>12</ele>
        <time>2020-03-11T10:35:53Z</time>
      </trkpt>
      <trkpt lat="44.93329" lon="-0.49504">
        <ele>13</ele>
        <time>2020-03-11T10:35:53Z</time>
      </trkpt>
      <trkpt lat="44.93251" lon="-0.49539">
        <ele>13</ele>
        <time>2020-03-11T10:35:53Z</time>
      </trkpt>
      <trkpt lat="44.93196" lon="-0.49564">
        <ele>13.7</ele>
        <time>2020-03-11T10:35:53Z</time>
      </trkpt>
      <trkpt lat="44.93147" lon="-0.49586">
        <ele>14</ele>
        <time>2020-03-11T10:35:53Z</time>
      </trkpt>
      <trkpt lat="44.93083" lon="-0.49608">
        <ele>14.1</ele>
        <time>2020-03-11T10:35:53Z</time>
      </trkpt>
      <trkpt lat="44.93022" lon="-0.49627">
        <ele>13.9</ele>
        <time>2020-03-11T10:35:53Z</time>
      </trkpt>
      <trkpt lat="44.92985" lon="-0.49641">
        <ele>12.5</ele>
        <time>2020-03-11T10:35:53Z</time>
      </trkpt>
      <trkpt lat="44.92968" lon="-0.4965">
        <ele>12</ele>
        <time>2020-03-11T10:35:53Z</time>
      </trkpt>
      <trkpt lat="44.9294" lon="-0.49651">
        <ele>11.8</ele>
        <time>2020-03-11T10:35:53Z</time>
      </trkpt>
      <trkpt lat="44.92918" lon="-0.49658">
        <ele>10.4</ele>
        <time>2020-03-11T10:35:53Z</time>
      </trkpt>
      <trkpt lat="44.92901" lon="-0.49677">
        <ele>9.8</ele>
        <time>2020-03-11T10:35:53Z</time>
      </trkpt>
      <trkpt lat="44.92893" lon="-0.49706">
        <ele>8.7</ele>
        <time>2020-03-11T10:35:53Z</time>
      </trkpt>
      <trkpt lat="44.92885" lon="-0.49733">
        <ele>8.3</ele>
        <time>2020-03-11T10:35:53Z</time>
      </trkpt>
      <trkpt lat="44.92854" lon="-0.4973">
        <ele>9.2</ele>
        <time>2020-03-11T10:35:53Z</time>
      </trkpt>
      <trkpt lat="44.92835" lon="-0.49741">
        <ele>7.2</ele>
        <time>2020-03-11T10:35:53Z</time>
      </trkpt>
      <trkpt lat="44.92808" lon="-0.49749">
        <ele>7</ele>
        <time>2020-03-11T10:35:53Z</time>
      </trkpt>
      <trkpt lat="44.92787" lon="-0.49759">
        <ele>6.1</ele>
        <time>2020-03-11T10:35:53Z</time>
      </trkpt>
      <trkpt lat="44.92769" lon="-0.49768">
        <ele>6.5</ele>
        <time>2020-03-11T10:35:53Z</time>
      </trkpt>
      <trkpt lat="44.92704" lon="-0.49781">
        <ele>7</ele>
        <time>2020-03-11T10:35:53Z</time>
      </trkpt>
      <trkpt lat="44.92683" lon="-0.49796">
        <ele>7</ele>
        <time>2020-03-11T10:35:53Z</time>
      </trkpt>
      <trkpt lat="44.92667" lon="-0.49812">
        <ele>7.2</ele>
        <time>2020-03-11T10:35:53Z</time>
      </trkpt>
      <trkpt lat="44.92625" lon="-0.49851">
        <ele>8.5</ele>
        <time>2020-03-11T10:35:53Z</time>
      </trkpt>
      <trkpt lat="44.92599" lon="-0.49866">
        <ele>8.9</ele>
        <time>2020-03-11T10:35:53Z</time>
      </trkpt>
      <trkpt lat="44.92562" lon="-0.49896">
        <ele>9.8</ele>
        <time>2020-03-11T10:35:53Z</time>
      </trkpt>
      <trkpt lat="44.92544" lon="-0.49879">
        <ele>10.3</ele>
        <time>2020-03-11T10:35:53Z</time>
      </trkpt>
      <trkpt lat="44.92529" lon="-0.49864">
        <ele>10.1</ele>
        <time>2020-03-11T10:35:53Z</time>
      </trkpt>
      <trkpt lat="44.92504" lon="-0.49833">
        <ele>11</ele>
        <time>2020-03-11T10:35:53Z</time>
      </trkpt>
      <trkpt lat="44.92464" lon="-0.49783">
        <ele>12</ele>
        <time>2020-03-11T10:35:53Z</time>
      </trkpt>
      <trkpt lat="44.92448" lon="-0.49769">
        <ele>12</ele>
        <time>2020-03-11T10:35:53Z</time>
      </trkpt>
      <trkpt lat="44.92426" lon="-0.49738">
        <ele>12.4</ele>
        <time>2020-03-11T10:35:53Z</time>
      </trkpt>
      <trkpt lat="44.92387" lon="-0.49706">
        <ele>13.1</ele>
        <time>2020-03-11T10:35:53Z</time>
      </trkpt>
      <trkpt lat="44.92348" lon="-0.49678">
        <ele>14.7</ele>
        <time>2020-03-11T10:35:53Z</time>
      </trkpt>
      <trkpt lat="44.92326" lon="-0.49666">
        <ele>15.5</ele>
        <time>2020-03-11T10:35:53Z</time>
      </trkpt>
      <trkpt lat="44.923" lon="-0.49655">
        <ele>17.5</ele>
        <time>2020-03-11T10:35:53Z</time>
      </trkpt>
      <trkpt lat="44.92222" lon="-0.49627">
        <ele>24.6</ele>
        <time>2020-03-11T10:35:53Z</time>
      </trkpt>
      <trkpt lat="44.92178" lon="-0.49608">
        <ele>25.5</ele>
        <time>2020-03-11T10:35:53Z</time>
      </trkpt>
      <trkpt lat="44.92147" lon="-0.49588">
        <ele>25.9</ele>
        <time>2020-03-11T10:35:53Z</time>
      </trkpt>
      <trkpt lat="44.92116" lon="-0.49561">
        <ele>26.2</ele>
        <time>2020-03-11T10:35:53Z</time>
      </trkpt>
      <trkpt lat="44.9194" lon="-0.49389">
        <ele>25.2</ele>
        <time>2020-03-11T10:35:53Z</time>
      </trkpt>
      <trkpt lat="44.91911" lon="-0.49363">
        <ele>24.1</ele>
        <time>2020-03-11T10:35:53Z</time>
      </trkpt>
      <trkpt lat="44.91887" lon="-0.49349">
        <ele>23.6</ele>
        <time>2020-03-11T10:35:53Z</time>
      </trkpt>
      <trkpt lat="44.91857" lon="-0.49338">
        <ele>23</ele>
        <time>2020-03-11T10:35:53Z</time>
      </trkpt>
      <trkpt lat="44.91821" lon="-0.49333">
        <ele>21.6</ele>
        <time>2020-03-11T10:35:53Z</time>
      </trkpt>
      <trkpt lat="44.91652" lon="-0.49304">
        <ele>20</ele>
        <time>2020-03-11T10:35:53Z</time>
      </trkpt>
      <trkpt lat="44.91631" lon="-0.49302">
        <ele>19.9</ele>
        <time>2020-03-11T10:35:53Z</time>
      </trkpt>
      <trkpt lat="44.91605" lon="-0.49301">
        <ele>19.8</ele>
        <time>2020-03-11T10:35:53Z</time>
      </trkpt>
      <trkpt lat="44.91581" lon="-0.49302">
        <ele>19.8</ele>
        <time>2020-03-11T10:35:53Z</time>
      </trkpt>
      <trkpt lat="44.91551" lon="-0.49308">
        <ele>19.2</ele>
        <time>2020-03-11T10:35:53Z</time>
      </trkpt>
      <trkpt lat="44.91473" lon="-0.49337">
        <ele>20</ele>
        <time>2020-03-11T10:35:53Z</time>
      </trkpt>
      <trkpt lat="44.91368" lon="-0.49371">
        <ele>19.1</ele>
        <time>2020-03-11T10:35:53Z</time>
      </trkpt>
      <trkpt lat="44.91352" lon="-0.49388">
        <ele>19.3</ele>
        <time>2020-03-11T10:35:53Z</time>
      </trkpt>
      <trkpt lat="44.91331" lon="-0.49391">
        <ele>20</ele>
        <time>2020-03-11T10:35:53Z</time>
      </trkpt>
      <trkpt lat="44.91313" lon="-0.49382">
        <ele>19.8</ele>
        <time>2020-03-11T10:35:53Z</time>
      </trkpt>
      <trkpt lat="44.91256" lon="-0.49386">
        <ele>20</ele>
        <time>2020-03-11T10:35:53Z</time>
      </trkpt>
      <trkpt lat="44.91232" lon="-0.49391">
        <ele>20.1</ele>
        <time>2020-03-11T10:35:53Z</time>
      </trkpt>
      <trkpt lat="44.91209" lon="-0.49395">
        <ele>20.6</ele>
        <time>2020-03-11T10:35:53Z</time>
      </trkpt>
      <trkpt lat="44.91183" lon="-0.49408">
        <ele>20.9</ele>
        <time>2020-03-11T10:35:53Z</time>
      </trkpt>
      <trkpt lat="44.91167" lon="-0.49423">
        <ele>21.2</ele>
        <time>2020-03-11T10:35:53Z</time>
      </trkpt>
      <trkpt lat="44.91065" lon="-0.49532">
        <ele>22</ele>
        <time>2020-03-11T10:35:53Z</time>
      </trkpt>
      <trkpt lat="44.91037" lon="-0.49559">
        <ele>22</ele>
        <time>2020-03-11T10:35:53Z</time>
      </trkpt>
      <trkpt lat="44.90997" lon="-0.4958">
        <ele>22</ele>
        <time>2020-03-11T10:35:53Z</time>
      </trkpt>
      <trkpt lat="44.90967" lon="-0.49593">
        <ele>22.3</ele>
        <time>2020-03-11T10:35:53Z</time>
      </trkpt>
      <trkpt lat="44.9093" lon="-0.49593">
        <ele>22.3</ele>
        <time>2020-03-11T10:35:53Z</time>
      </trkpt>
      <trkpt lat="44.90911" lon="-0.49586">
        <ele>22.1</ele>
        <time>2020-03-11T10:35:53Z</time>
      </trkpt>
      <trkpt lat="44.90891" lon="-0.49577">
        <ele>22</ele>
        <time>2020-03-11T10:35:53Z</time>
      </trkpt>
      <trkpt lat="44.90856" lon="-0.49553">
        <ele>22.1</ele>
        <time>2020-03-11T10:35:53Z</time>
      </trkpt>
      <trkpt lat="44.90832" lon="-0.49537">
        <ele>22</ele>
        <time>2020-03-11T10:35:53Z</time>
      </trkpt>
      <trkpt lat="44.90793" lon="-0.49521">
        <ele>22</ele>
        <time>2020-03-11T10:35:53Z</time>
      </trkpt>
      <trkpt lat="44.90756" lon="-0.4952">
        <ele>22</ele>
        <time>2020-03-11T10:35:53Z</time>
      </trkpt>
      <trkpt lat="44.90663" lon="-0.49535">
        <ele>19.9</ele>
        <time>2020-03-11T10:35:53Z</time>
      </trkpt>
      <trkpt lat="44.90632" lon="-0.49541">
        <ele>19.4</ele>
        <time>2020-03-11T10:35:53Z</time>
      </trkpt>
      <trkpt lat="44.90611" lon="-0.49545">
        <ele>19</ele>
        <time>2020-03-11T10:35:53Z</time>
      </trkpt>
      <trkpt lat="44.90559" lon="-0.49554">
        <ele>19</ele>
        <time>2020-03-11T10:35:53Z</time>
      </trkpt>
      <trkpt lat="44.90494" lon="-0.49565">
        <ele>18.9</ele>
        <time>2020-03-11T10:35:53Z</time>
      </trkpt>
      <trkpt lat="44.90459" lon="-0.49581">
        <ele>19</ele>
        <time>2020-03-11T10:35:53Z</time>
      </trkpt>
      <trkpt lat="44.90413" lon="-0.49617">
        <ele>20.2</ele>
        <time>2020-03-11T10:35:53Z</time>
      </trkpt>
      <trkpt lat="44.90375" lon="-0.49649">
        <ele>20.7</ele>
        <time>2020-03-11T10:35:53Z</time>
      </trkpt>
      <trkpt lat="44.90328" lon="-0.49701">
        <ele>21.9</ele>
        <time>2020-03-11T10:35:53Z</time>
      </trkpt>
      <trkpt lat="44.90311" lon="-0.49712">
        <ele>21.5</ele>
        <time>2020-03-11T10:35:53Z</time>
      </trkpt>
      <trkpt lat="44.90258" lon="-0.49683">
        <ele>18.6</ele>
        <time>2020-03-11T10:35:53Z</time>
      </trkpt>
      <trkpt lat="44.90092" lon="-0.4969">
        <ele>16.7</ele>
        <time>2020-03-11T10:35:53Z</time>
      </trkpt>
      <trkpt lat="44.89997" lon="-0.49727">
        <ele>19</ele>
        <time>2020-03-11T10:35:53Z</time>
      </trkpt>
      <trkpt lat="44.89907" lon="-0.49761">
        <ele>19</ele>
        <time>2020-03-11T10:35:53Z</time>
      </trkpt>
      <trkpt lat="44.89844" lon="-0.49774">
        <ele>19</ele>
        <time>2020-03-11T10:35:53Z</time>
      </trkpt>
      <trkpt lat="44.89824" lon="-0.49776">
        <ele>19.3</ele>
        <time>2020-03-11T10:35:53Z</time>
      </trkpt>
      <trkpt lat="44.89733" lon="-0.49767">
        <ele>19.8</ele>
        <time>2020-03-11T10:35:53Z</time>
      </trkpt>
      <trkpt lat="44.89714" lon="-0.49766">
        <ele>19.6</ele>
        <time>2020-03-11T10:35:53Z</time>
      </trkpt>
      <trkpt lat="44.89682" lon="-0.49788">
        <ele>20.2</ele>
        <time>2020-03-11T10:35:53Z</time>
      </trkpt>
      <trkpt lat="44.89605" lon="-0.49867">
        <ele>20.2</ele>
        <time>2020-03-11T10:35:53Z</time>
      </trkpt>
      <trkpt lat="44.89518" lon="-0.49978">
        <ele>20.1</ele>
        <time>2020-03-11T10:35:53Z</time>
      </trkpt>
      <trkpt lat="44.89503" lon="-0.49994">
        <ele>20.7</ele>
        <time>2020-03-11T10:35:53Z</time>
      </trkpt>
      <trkpt lat="44.89483" lon="-0.50007">
        <ele>21</ele>
        <time>2020-03-11T10:35:53Z</time>
      </trkpt>
      <trkpt lat="44.89463" lon="-0.50021">
        <ele>21</ele>
        <time>2020-03-11T10:35:53Z</time>
      </trkpt>
      <trkpt lat="44.89494" lon="-0.50134">
        <ele>23.9</ele>
        <time>2020-03-11T10:35:53Z</time>
      </trkpt>
      <trkpt lat="44.8952" lon="-0.50237">
        <ele>24.8</ele>
        <time>2020-03-11T10:35:53Z</time>
      </trkpt>
      <trkpt lat="44.89531" lon="-0.5028">
        <ele>24.9</ele>
        <time>2020-03-11T10:35:53Z</time>
      </trkpt>
      <trkpt lat="44.89538" lon="-0.50312">
        <ele>25.1</ele>
        <time>2020-03-11T10:35:53Z</time>
      </trkpt>
      <trkpt lat="44.89532" lon="-0.50346">
        <ele>25.9</ele>
        <time>2020-03-11T10:35:53Z</time>
      </trkpt>
      <trkpt lat="44.89528" lon="-0.50376">
        <ele>26.5</ele>
        <time>2020-03-11T10:35:53Z</time>
      </trkpt>
      <trkpt lat="44.89532" lon="-0.50412">
        <ele>27</ele>
        <time>2020-03-11T10:35:53Z</time>
      </trkpt>
      <trkpt lat="44.8954" lon="-0.5047">
        <ele>27.9</ele>
        <time>2020-03-11T10:35:53Z</time>
      </trkpt>
      <trkpt lat="44.89539" lon="-0.50505">
        <ele>28.1</ele>
        <time>2020-03-11T10:35:53Z</time>
      </trkpt>
      <trkpt lat="44.89541" lon="-0.50535">
        <ele>28.6</ele>
        <time>2020-03-11T10:35:53Z</time>
      </trkpt>
      <trkpt lat="44.89528" lon="-0.5056">
        <ele>29.2</ele>
        <time>2020-03-11T10:35:53Z</time>
      </trkpt>
      <trkpt lat="44.89452" lon="-0.50582">
        <ele>32.7</ele>
        <time>2020-03-11T10:35:53Z</time>
      </trkpt>
      <trkpt lat="44.89419" lon="-0.50595">
        <ele>33.9</ele>
        <time>2020-03-11T10:35:53Z</time>
      </trkpt>
      <trkpt lat="44.89402" lon="-0.5062">
        <ele>34.7</ele>
        <time>2020-03-11T10:35:53Z</time>
      </trkpt>
      <trkpt lat="44.89377" lon="-0.50627">
        <ele>35.2</ele>
        <time>2020-03-11T10:35:53Z</time>
      </trkpt>
      <trkpt lat="44.89348" lon="-0.50641">
        <ele>36.1</ele>
        <time>2020-03-11T10:35:53Z</time>
      </trkpt>
      <trkpt lat="44.89307" lon="-0.50676">
        <ele>37.3</ele>
        <time>2020-03-11T10:35:53Z</time>
      </trkpt>
      <trkpt lat="44.89283" lon="-0.50699">
        <ele>37.4</ele>
        <time>2020-03-11T10:35:53Z</time>
      </trkpt>
      <trkpt lat="44.89256" lon="-0.5072">
        <ele>38</ele>
        <time>2020-03-11T10:35:53Z</time>
      </trkpt>
      <trkpt lat="44.89239" lon="-0.50734">
        <ele>38.8</ele>
        <time>2020-03-11T10:35:53Z</time>
      </trkpt>
      <trkpt lat="44.89219" lon="-0.5075">
        <ele>40.2</ele>
        <time>2020-03-11T10:35:53Z</time>
      </trkpt>
      <trkpt lat="44.89176" lon="-0.50787">
        <ele>44.3</ele>
        <time>2020-03-11T10:35:53Z</time>
      </trkpt>
      <trkpt lat="44.89154" lon="-0.50805">
        <ele>46.4</ele>
        <time>2020-03-11T10:35:53Z</time>
      </trkpt>
      <trkpt lat="44.89127" lon="-0.50823">
        <ele>47.6</ele>
        <time>2020-03-11T10:35:53Z</time>
      </trkpt>
      <trkpt lat="44.89108" lon="-0.50837">
        <ele>48</ele>
        <time>2020-03-11T10:35:53Z</time>
      </trkpt>
      <trkpt lat="44.89026" lon="-0.50927">
        <ele>48.3</ele>
        <time>2020-03-11T10:35:53Z</time>
      </trkpt>
      <trkpt lat="44.8897" lon="-0.50982">
        <ele>48.3</ele>
        <time>2020-03-11T10:35:53Z</time>
      </trkpt>
      <trkpt lat="44.88955" lon="-0.50997">
        <ele>48.3</ele>
        <time>2020-03-11T10:35:53Z</time>
      </trkpt>
      <trkpt lat="44.88825" lon="-0.51097">
        <ele>46.3</ele>
        <time>2020-03-11T10:35:53Z</time>
      </trkpt>
      <trkpt lat="44.88803" lon="-0.51098">
        <ele>46</ele>
        <time>2020-03-11T10:35:53Z</time>
      </trkpt>
      <trkpt lat="44.88783" lon="-0.51111">
        <ele>46.2</ele>
        <time>2020-03-11T10:35:53Z</time>
      </trkpt>
      <trkpt lat="44.88786" lon="-0.51138">
        <ele>47</ele>
        <time>2020-03-11T10:35:53Z</time>
      </trkpt>
      <trkpt lat="44.88799" lon="-0.51161">
        <ele>47</ele>
        <time>2020-03-11T10:35:53Z</time>
      </trkpt>
      <trkpt lat="44.88811" lon="-0.51215">
        <ele>48.7</ele>
        <time>2020-03-11T10:35:53Z</time>
      </trkpt>
      <trkpt lat="44.88817" lon="-0.5125">
        <ele>49</ele>
        <time>2020-03-11T10:35:53Z</time>
      </trkpt>
      <trkpt lat="44.88818" lon="-0.51282">
        <ele>49.2</ele>
        <time>2020-03-11T10:35:53Z</time>
      </trkpt>
      <trkpt lat="44.88841" lon="-0.51443">
        <ele>51</ele>
        <time>2020-03-11T10:35:53Z</time>
      </trkpt>
      <trkpt lat="44.88848" lon="-0.51514">
        <ele>51.3</ele>
        <time>2020-03-11T10:35:53Z</time>
      </trkpt>
      <trkpt lat="44.88849" lon="-0.51548">
        <ele>51.6</ele>
        <time>2020-03-11T10:35:53Z</time>
      </trkpt>
      <trkpt lat="44.88848" lon="-0.51578">
        <ele>51.9</ele>
        <time>2020-03-11T10:35:53Z</time>
      </trkpt>
      <trkpt lat="44.8884" lon="-0.51633">
        <ele>52.2</ele>
        <time>2020-03-11T10:35:53Z</time>
      </trkpt>
      <trkpt lat="44.8883" lon="-0.51664">
        <ele>52.1</ele>
        <time>2020-03-11T10:35:53Z</time>
      </trkpt>
      <trkpt lat="44.8882" lon="-0.51688">
        <ele>52.1</ele>
        <time>2020-03-11T10:35:53Z</time>
      </trkpt>
      <trkpt lat="44.88796" lon="-0.51701">
        <ele>52.3</ele>
        <time>2020-03-11T10:35:53Z</time>
      </trkpt>
      <trkpt lat="44.8874" lon="-0.51713">
        <ele>52.2</ele>
        <time>2020-03-11T10:35:53Z</time>
      </trkpt>
      <trkpt lat="44.88695" lon="-0.51721">
        <ele>52</ele>
        <time>2020-03-11T10:35:53Z</time>
      </trkpt>
      <trkpt lat="44.88675" lon="-0.51724">
        <ele>52</ele>
        <time>2020-03-11T10:35:53Z</time>
      </trkpt>
      <trkpt lat="44.88649" lon="-0.51725">
        <ele>51.4</ele>
        <time>2020-03-11T10:35:53Z</time>
      </trkpt>
      <trkpt lat="44.88627" lon="-0.51724">
        <ele>50.6</ele>
        <time>2020-03-11T10:35:53Z</time>
      </trkpt>
      <trkpt lat="44.88606" lon="-0.51724">
        <ele>49.9</ele>
        <time>2020-03-11T10:35:53Z</time>
      </trkpt>
      <trkpt lat="44.88575" lon="-0.51731">
        <ele>48.7</ele>
        <time>2020-03-11T10:35:53Z</time>
      </trkpt>
      <trkpt lat="44.88554" lon="-0.51749">
        <ele>47.9</ele>
        <time>2020-03-11T10:35:53Z</time>
      </trkpt>
      <trkpt lat="44.88541" lon="-0.51768">
        <ele>46.8</ele>
        <time>2020-03-11T10:35:53Z</time>
      </trkpt>
      <trkpt lat="44.88527" lon="-0.51796">
        <ele>46</ele>
        <time>2020-03-11T10:35:53Z</time>
      </trkpt>
      <trkpt lat="44.88542" lon="-0.51821">
        <ele>45.7</ele>
        <time>2020-03-11T10:35:53Z</time>
      </trkpt>
      <trkpt lat="44.88557" lon="-0.5184">
        <ele>45.1</ele>
        <time>2020-03-11T10:35:53Z</time>
      </trkpt>
      <trkpt lat="44.88584" lon="-0.51858">
        <ele>44.4</ele>
        <time>2020-03-11T10:35:53Z</time>
      </trkpt>
      <trkpt lat="44.88602" lon="-0.51869">
        <ele>45</ele>
        <time>2020-03-11T10:35:53Z</time>
      </trkpt>
      <trkpt lat="44.88661" lon="-0.51913">
        <ele>44.3</ele>
        <time>2020-03-11T10:35:53Z</time>
      </trkpt>
      <trkpt lat="44.88681" lon="-0.51933">
        <ele>44.9</ele>
        <time>2020-03-11T10:35:53Z</time>
      </trkpt>
      <trkpt lat="44.88704" lon="-0.5196">
        <ele>44.7</ele>
        <time>2020-03-11T10:35:53Z</time>
      </trkpt>
      <trkpt lat="44.88732" lon="-0.52002">
        <ele>44.7</ele>
        <time>2020-03-11T10:35:53Z</time>
      </trkpt>
      <trkpt lat="44.88749" lon="-0.52034">
        <ele>42.6</ele>
        <time>2020-03-11T10:35:53Z</time>
      </trkpt>
      <trkpt lat="44.88762" lon="-0.52067">
        <ele>43.2</ele>
        <time>2020-03-11T10:35:53Z</time>
      </trkpt>
      <trkpt lat="44.88774" lon="-0.52103">
        <ele>40.4</ele>
        <time>2020-03-11T10:35:53Z</time>
      </trkpt>
      <trkpt lat="44.88783" lon="-0.52139">
        <ele>38.7</ele>
        <time>2020-03-11T10:35:53Z</time>
      </trkpt>
      <trkpt lat="44.8879" lon="-0.52177">
        <ele>39.1</ele>
        <time>2020-03-11T10:35:53Z</time>
      </trkpt>
      <trkpt lat="44.88793" lon="-0.52206">
        <ele>38</ele>
        <time>2020-03-11T10:35:53Z</time>
      </trkpt>
      <trkpt lat="44.88847" lon="-0.52662">
        <ele>9.2</ele>
        <time>2020-03-11T10:35:53Z</time>
      </trkpt>
      <trkpt lat="44.88874" lon="-0.52894">
        <ele>5</ele>
        <time>2020-03-11T10:35:53Z</time>
      </trkpt>
      <trkpt lat="44.88883" lon="-0.52923">
        <ele>5</ele>
        <time>2020-03-11T10:35:53Z</time>
      </trkpt>
      <trkpt lat="44.889" lon="-0.52935">
        <ele>5</ele>
        <time>2020-03-11T10:35:53Z</time>
      </trkpt>
      <trkpt lat="44.88909" lon="-0.52957">
        <ele>5</ele>
        <time>2020-03-11T10:35:53Z</time>
      </trkpt>
      <trkpt lat="44.88903" lon="-0.52993">
        <ele>5</ele>
        <time>2020-03-11T10:35:53Z</time>
      </trkpt>
      <trkpt lat="44.88888" lon="-0.53008">
        <ele>5</ele>
        <time>2020-03-11T10:35:53Z</time>
      </trkpt>
      <trkpt lat="44.8887" lon="-0.53009">
        <ele>5</ele>
        <time>2020-03-11T10:35:53Z</time>
      </trkpt>
      <trkpt lat="44.88854" lon="-0.52994">
        <ele>4.9</ele>
        <time>2020-03-11T10:35:53Z</time>
      </trkpt>
      <trkpt lat="44.88843" lon="-0.52973">
        <ele>4.4</ele>
        <time>2020-03-11T10:35:53Z</time>
      </trkpt>
      <trkpt lat="44.88809" lon="-0.52959">
        <ele>4</ele>
        <time>2020-03-11T10:35:53Z</time>
      </trkpt>
      <trkpt lat="44.88791" lon="-0.52957">
        <ele>4</ele>
        <time>2020-03-11T10:35:53Z</time>
      </trkpt>
      <trkpt lat="44.88771" lon="-0.52957">
        <ele>4</ele>
        <time>2020-03-11T10:35:53Z</time>
      </trkpt>
      <trkpt lat="44.88751" lon="-0.52959">
        <ele>4</ele>
        <time>2020-03-11T10:35:53Z</time>
      </trkpt>
      <trkpt lat="44.88671" lon="-0.5297">
        <ele>4</ele>
        <time>2020-03-11T10:35:53Z</time>
      </trkpt>
      <trkpt lat="44.88602" lon="-0.52986">
        <ele>4.5</ele>
        <time>2020-03-11T10:35:53Z</time>
      </trkpt>
      <trkpt lat="44.8854" lon="-0.52999">
        <ele>4</ele>
        <time>2020-03-11T10:35:53Z</time>
      </trkpt>
      <trkpt lat="44.88502" lon="-0.53011">
        <ele>4.4</ele>
        <time>2020-03-11T10:35:53Z</time>
      </trkpt>
      <trkpt lat="44.88435" lon="-0.53031">
        <ele>5</ele>
        <time>2020-03-11T10:35:53Z</time>
      </trkpt>
      <trkpt lat="44.88369" lon="-0.53057">
        <ele>5</ele>
        <time>2020-03-11T10:35:53Z</time>
      </trkpt>
      <trkpt lat="44.88234" lon="-0.53119">
        <ele>5.7</ele>
        <time>2020-03-11T10:35:53Z</time>
      </trkpt>
      <trkpt lat="44.88204" lon="-0.53133">
        <ele>5.9</ele>
        <time>2020-03-11T10:35:53Z</time>
      </trkpt>
      <trkpt lat="44.88174" lon="-0.53158">
        <ele>5.8</ele>
        <time>2020-03-11T10:35:53Z</time>
      </trkpt>
      <trkpt lat="44.88165" lon="-0.53183">
        <ele>5.4</ele>
        <time>2020-03-11T10:35:53Z</time>
      </trkpt>
      <trkpt lat="44.88147" lon="-0.53182">
        <ele>5.4</ele>
        <time>2020-03-11T10:35:53Z</time>
      </trkpt>
      <trkpt lat="44.8812" lon="-0.53167">
        <ele>5.3</ele>
        <time>2020-03-11T10:35:53Z</time>
      </trkpt>
      <trkpt lat="44.88094" lon="-0.53179">
        <ele>5.3</ele>
        <time>2020-03-11T10:35:53Z</time>
      </trkpt>
      <trkpt lat="44.88033" lon="-0.53218">
        <ele>5.5</ele>
        <time>2020-03-11T10:35:53Z</time>
      </trkpt>
      <trkpt lat="44.87984" lon="-0.53251">
        <ele>5.6</ele>
        <time>2020-03-11T10:35:53Z</time>
      </trkpt>
      <trkpt lat="44.87967" lon="-0.53264">
        <ele>5.6</ele>
        <time>2020-03-11T10:35:53Z</time>
      </trkpt>
      <trkpt lat="44.87953" lon="-0.53281">
        <ele>5</ele>
        <time>2020-03-11T10:35:53Z</time>
      </trkpt>
      <trkpt lat="44.87944" lon="-0.53305">
        <ele>5</ele>
        <time>2020-03-11T10:35:53Z</time>
      </trkpt>
      <trkpt lat="44.87931" lon="-0.53323">
        <ele>5</ele>
        <time>2020-03-11T10:35:53Z</time>
      </trkpt>
      <trkpt lat="44.87873" lon="-0.53362">
        <ele>5</ele>
        <time>2020-03-11T10:35:53Z</time>
      </trkpt>
      <trkpt lat="44.87852" lon="-0.53376">
        <ele>5</ele>
        <time>2020-03-11T10:35:53Z</time>
      </trkpt>
      <trkpt lat="44.87817" lon="-0.53398">
        <ele>4.9</ele>
        <time>2020-03-11T10:35:53Z</time>
      </trkpt>
      <trkpt lat="44.87792" lon="-0.5341">
        <ele>5</ele>
        <time>2020-03-11T10:35:53Z</time>
      </trkpt>
      <trkpt lat="44.87762" lon="-0.53421">
        <ele>5</ele>
        <time>2020-03-11T10:35:53Z</time>
      </trkpt>
      <trkpt lat="44.87727" lon="-0.53439">
        <ele>5.3</ele>
        <time>2020-03-11T10:35:53Z</time>
      </trkpt>
      <trkpt lat="44.87703" lon="-0.53453">
        <ele>6.6</ele>
        <time>2020-03-11T10:35:53Z</time>
      </trkpt>
      <trkpt lat="44.87647" lon="-0.53493">
        <ele>7.1</ele>
        <time>2020-03-11T10:35:53Z</time>
      </trkpt>
      <trkpt lat="44.87553" lon="-0.53562">
        <ele>7.1</ele>
        <time>2020-03-11T10:35:53Z</time>
      </trkpt>
      <trkpt lat="44.87537" lon="-0.53574">
        <ele>7.5</ele>
        <time>2020-03-11T10:35:53Z</time>
      </trkpt>
      <trkpt lat="44.87514" lon="-0.53591">
        <ele>7.3</ele>
        <time>2020-03-11T10:35:53Z</time>
      </trkpt>
      <trkpt lat="44.87477" lon="-0.53618">
        <ele>6.6</ele>
        <time>2020-03-11T10:35:53Z</time>
      </trkpt>
      <trkpt lat="44.87426" lon="-0.53655">
        <ele>7.1</ele>
        <time>2020-03-11T10:35:53Z</time>
      </trkpt>
      <trkpt lat="44.87399" lon="-0.53674">
        <ele>6.8</ele>
        <time>2020-03-11T10:35:53Z</time>
      </trkpt>
      <trkpt lat="44.87381" lon="-0.53683">
        <ele>6.9</ele>
        <time>2020-03-11T10:35:53Z</time>
      </trkpt>
      <trkpt lat="44.8734" lon="-0.53707">
        <ele>5.9</ele>
        <time>2020-03-11T10:35:53Z</time>
      </trkpt>
      <trkpt lat="44.87297" lon="-0.53727">
        <ele>6.7</ele>
        <time>2020-03-11T10:35:53Z</time>
      </trkpt>
      <trkpt lat="44.8727" lon="-0.53734">
        <ele>7</ele>
        <time>2020-03-11T10:35:53Z</time>
      </trkpt>
      <trkpt lat="44.87239" lon="-0.53742">
        <ele>7.7</ele>
        <time>2020-03-11T10:35:53Z</time>
      </trkpt>
      <trkpt lat="44.87216" lon="-0.53745">
        <ele>7.7</ele>
        <time>2020-03-11T10:35:53Z</time>
      </trkpt>
      <trkpt lat="44.8719" lon="-0.53747">
        <ele>7.6</ele>
        <time>2020-03-11T10:35:53Z</time>
      </trkpt>
      <trkpt lat="44.87164" lon="-0.53751">
        <ele>6.8</ele>
        <time>2020-03-11T10:35:53Z</time>
      </trkpt>
      <trkpt lat="44.87123" lon="-0.53753">
        <ele>5.4</ele>
        <time>2020-03-11T10:35:53Z</time>
      </trkpt>
      <trkpt lat="44.87063" lon="-0.53755">
        <ele>5.7</ele>
        <time>2020-03-11T10:35:53Z</time>
      </trkpt>
      <trkpt lat="44.87005" lon="-0.53751">
        <ele>6</ele>
        <time>2020-03-11T10:35:53Z</time>
      </trkpt>
      <trkpt lat="44.86961" lon="-0.53749">
        <ele>5.1</ele>
        <time>2020-03-11T10:35:53Z</time>
      </trkpt>
      <trkpt lat="44.86943" lon="-0.53748">
        <ele>5</ele>
        <time>2020-03-11T10:35:53Z</time>
      </trkpt>
      <trkpt lat="44.86924" lon="-0.53746">
        <ele>5</ele>
        <time>2020-03-11T10:35:53Z</time>
      </trkpt>
      <trkpt lat="44.86867" lon="-0.53771">
        <ele>5</ele>
        <time>2020-03-11T10:35:53Z</time>
      </trkpt>
      <trkpt lat="44.86848" lon="-0.53774">
        <ele>5</ele>
        <time>2020-03-11T10:35:53Z</time>
      </trkpt>
      <trkpt lat="44.86823" lon="-0.53778">
        <ele>4.6</ele>
        <time>2020-03-11T10:35:53Z</time>
      </trkpt>
      <trkpt lat="44.86777" lon="-0.53788">
        <ele>4</ele>
        <time>2020-03-11T10:35:53Z</time>
      </trkpt>
      <trkpt lat="44.86759" lon="-0.53794">
        <ele>4</ele>
        <time>2020-03-11T10:35:53Z</time>
      </trkpt>
      <trkpt lat="44.8673" lon="-0.53802">
        <ele>4</ele>
        <time>2020-03-11T10:35:53Z</time>
      </trkpt>
      <trkpt lat="44.86702" lon="-0.53808">
        <ele>4</ele>
        <time>2020-03-11T10:35:53Z</time>
      </trkpt>
      <trkpt lat="44.8666" lon="-0.5382">
        <ele>4</ele>
        <time>2020-03-11T10:35:53Z</time>
      </trkpt>
      <trkpt lat="44.86642" lon="-0.53826">
        <ele>4</ele>
        <time>2020-03-11T10:35:53Z</time>
      </trkpt>
      <trkpt lat="44.86624" lon="-0.53836">
        <ele>4.6</ele>
        <time>2020-03-11T10:35:53Z</time>
      </trkpt>
      <trkpt lat="44.86589" lon="-0.53853">
        <ele>5</ele>
        <time>2020-03-11T10:35:53Z</time>
      </trkpt>
      <trkpt lat="44.86567" lon="-0.53861">
        <ele>5</ele>
        <time>2020-03-11T10:35:53Z</time>
      </trkpt>
      <trkpt lat="44.86549" lon="-0.53867">
        <ele>4.8</ele>
        <time>2020-03-11T10:35:53Z</time>
      </trkpt>
      <trkpt lat="44.86524" lon="-0.53869">
        <ele>4.9</ele>
        <time>2020-03-11T10:35:53Z</time>
      </trkpt>
      <trkpt lat="44.86505" lon="-0.53862">
        <ele>4.2</ele>
        <time>2020-03-11T10:35:53Z</time>
      </trkpt>
      <trkpt lat="44.86484" lon="-0.53848">
        <ele>4.5</ele>
        <time>2020-03-11T10:35:53Z</time>
      </trkpt>
      <trkpt lat="44.86432" lon="-0.53794">
        <ele>4.9</ele>
        <time>2020-03-11T10:35:53Z</time>
      </trkpt>
      <trkpt lat="44.86417" lon="-0.53778">
        <ele>5</ele>
        <time>2020-03-11T10:35:53Z</time>
      </trkpt>
      <trkpt lat="44.86399" lon="-0.53758">
        <ele>5.3</ele>
        <time>2020-03-11T10:35:53Z</time>
      </trkpt>
      <trkpt lat="44.86376" lon="-0.53743">
        <ele>4</ele>
        <time>2020-03-11T10:35:53Z</time>
      </trkpt>
      <trkpt lat="44.86357" lon="-0.53738">
        <ele>4</ele>
        <time>2020-03-11T10:35:53Z</time>
      </trkpt>
      <trkpt lat="44.86334" lon="-0.53737">
        <ele>4</ele>
        <time>2020-03-11T10:35:53Z</time>
      </trkpt>
      <trkpt lat="44.86314" lon="-0.53745">
        <ele>4</ele>
        <time>2020-03-11T10:35:53Z</time>
      </trkpt>
      <trkpt lat="44.86289" lon="-0.53764">
        <ele>4.2</ele>
        <time>2020-03-11T10:35:53Z</time>
      </trkpt>
      <trkpt lat="44.86267" lon="-0.53778">
        <ele>4</ele>
        <time>2020-03-11T10:35:53Z</time>
      </trkpt>
      <trkpt lat="44.86235" lon="-0.53793">
        <ele>5.3</ele>
        <time>2020-03-11T10:35:53Z</time>
      </trkpt>
      <trkpt lat="44.86212" lon="-0.538">
        <ele>5</ele>
        <time>2020-03-11T10:35:53Z</time>
      </trkpt>
      <trkpt lat="44.86189" lon="-0.53806">
        <ele>4</ele>
        <time>2020-03-11T10:35:53Z</time>
      </trkpt>
      <trkpt lat="44.86152" lon="-0.53817">
        <ele>5.2</ele>
        <time>2020-03-11T10:35:53Z</time>
      </trkpt>
      <trkpt lat="44.86094" lon="-0.53832">
        <ele>5.3</ele>
        <time>2020-03-11T10:35:53Z</time>
      </trkpt>
      <trkpt lat="44.86063" lon="-0.53838">
        <ele>4.7</ele>
        <time>2020-03-11T10:35:53Z</time>
      </trkpt>
      <trkpt lat="44.86036" lon="-0.53841">
        <ele>4.8</ele>
        <time>2020-03-11T10:35:53Z</time>
      </trkpt>
      <trkpt lat="44.86018" lon="-0.53843">
        <ele>4.8</ele>
        <time>2020-03-11T10:35:53Z</time>
      </trkpt>
      <trkpt lat="44.86" lon="-0.5384">
        <ele>4.2</ele>
        <time>2020-03-11T10:35:53Z</time>
      </trkpt>
      <trkpt lat="44.85962" lon="-0.53838">
        <ele>3.7</ele>
        <time>2020-03-11T10:35:53Z</time>
      </trkpt>
      <trkpt lat="44.85947" lon="-0.53859">
        <ele>3.2</ele>
        <time>2020-03-11T10:35:53Z</time>
      </trkpt>
      <trkpt lat="44.85956" lon="-0.5391">
        <ele>4.8</ele>
        <time>2020-03-11T10:35:53Z</time>
      </trkpt>
      <trkpt lat="44.85958" lon="-0.53936">
        <ele>4.8</ele>
        <time>2020-03-11T10:35:53Z</time>
      </trkpt>
      <trkpt lat="44.85965" lon="-0.53967">
        <ele>5</ele>
        <time>2020-03-11T10:35:53Z</time>
      </trkpt>
      <trkpt lat="44.85972" lon="-0.54009">
        <ele>4</ele>
        <time>2020-03-11T10:35:53Z</time>
      </trkpt>
      <trkpt lat="44.85977" lon="-0.54048">
        <ele>4.2</ele>
        <time>2020-03-11T10:35:53Z</time>
      </trkpt>
      <trkpt lat="44.85979" lon="-0.54092">
        <ele>4.2</ele>
        <time>2020-03-11T10:35:53Z</time>
      </trkpt>
      <trkpt lat="44.85978" lon="-0.5413">
        <ele>4.2</ele>
        <time>2020-03-11T10:35:53Z</time>
      </trkpt>
      <trkpt lat="44.85972" lon="-0.54277">
        <ele>5</ele>
        <time>2020-03-11T10:35:53Z</time>
      </trkpt>
      <trkpt lat="44.85982" lon="-0.54311">
        <ele>5</ele>
        <time>2020-03-11T10:35:53Z</time>
      </trkpt>
      <trkpt lat="44.85984" lon="-0.54346">
        <ele>5</ele>
        <time>2020-03-11T10:35:53Z</time>
      </trkpt>
      <trkpt lat="44.85975" lon="-0.54382">
        <ele>5</ele>
        <time>2020-03-11T10:35:53Z</time>
      </trkpt>
      <trkpt lat="44.85963" lon="-0.54404">
        <ele>5</ele>
        <time>2020-03-11T10:35:53Z</time>
      </trkpt>
      <trkpt lat="44.85918" lon="-0.54461">
        <ele>5</ele>
        <time>2020-03-11T10:35:53Z</time>
      </trkpt>
      <trkpt lat="44.85882" lon="-0.54506">
        <ele>5</ele>
        <time>2020-03-11T10:35:53Z</time>
      </trkpt>
      <trkpt lat="44.85867" lon="-0.54527">
        <ele>5</ele>
        <time>2020-03-11T10:35:53Z</time>
      </trkpt>
      <trkpt lat="44.85853" lon="-0.54547">
        <ele>5</ele>
        <time>2020-03-11T10:35:53Z</time>
      </trkpt>
      <trkpt lat="44.85822" lon="-0.54594">
        <ele>5</ele>
        <time>2020-03-11T10:35:53Z</time>
      </trkpt>
      <trkpt lat="44.85789" lon="-0.54644">
        <ele>5</ele>
        <time>2020-03-11T10:35:53Z</time>
      </trkpt>
      <trkpt lat="44.85777" lon="-0.54663">
        <ele>5</ele>
        <time>2020-03-11T10:35:53Z</time>
      </trkpt>
      <trkpt lat="44.85762" lon="-0.54683">
        <ele>5</ele>
        <time>2020-03-11T10:35:53Z</time>
      </trkpt>
      <trkpt lat="44.85745" lon="-0.5471">
        <ele>5</ele>
        <time>2020-03-11T10:35:53Z</time>
      </trkpt>
      <trkpt lat="44.85709" lon="-0.54766">
        <ele>5</ele>
        <time>2020-03-11T10:35:53Z</time>
      </trkpt>
      <trkpt lat="44.85684" lon="-0.54813">
        <ele>5</ele>
        <time>2020-03-11T10:35:53Z</time>
      </trkpt>
      <trkpt lat="44.85662" lon="-0.54852">
        <ele>5</ele>
        <time>2020-03-11T10:35:53Z</time>
      </trkpt>
      <trkpt lat="44.85643" lon="-0.54887">
        <ele>5</ele>
        <time>2020-03-11T10:35:53Z</time>
      </trkpt>
      <trkpt lat="44.85624" lon="-0.54926">
        <ele>5</ele>
        <time>2020-03-11T10:35:53Z</time>
      </trkpt>
      <trkpt lat="44.85618" lon="-0.54958">
        <ele>5.1</ele>
        <time>2020-03-11T10:35:53Z</time>
      </trkpt>
      <trkpt lat="44.85602" lon="-0.5497">
        <ele>5</ele>
        <time>2020-03-11T10:35:53Z</time>
      </trkpt>
      <trkpt lat="44.85585" lon="-0.54996">
        <ele>5</ele>
        <time>2020-03-11T10:35:53Z</time>
      </trkpt>
      <trkpt lat="44.85569" lon="-0.55026">
        <ele>5</ele>
        <time>2020-03-11T10:35:53Z</time>
      </trkpt>
      <trkpt lat="44.8553" lon="-0.55098">
        <ele>4.6</ele>
        <time>2020-03-11T10:35:53Z</time>
      </trkpt>
      <trkpt lat="44.8551" lon="-0.55123">
        <ele>5</ele>
        <time>2020-03-11T10:35:53Z</time>
      </trkpt>
      <trkpt lat="44.85411" lon="-0.55317">
        <ele>5</ele>
        <time>2020-03-11T10:35:53Z</time>
      </trkpt>
      <trkpt lat="44.85397" lon="-0.55346">
        <ele>5</ele>
        <time>2020-03-11T10:35:53Z</time>
      </trkpt>
      <trkpt lat="44.85378" lon="-0.55382">
        <ele>4.7</ele>
        <time>2020-03-11T10:35:53Z</time>
      </trkpt>
      <trkpt lat="44.85358" lon="-0.5542">
        <ele>4.1</ele>
        <time>2020-03-11T10:35:53Z</time>
      </trkpt>
      <trkpt lat="44.85313" lon="-0.55507">
        <ele>5</ele>
        <time>2020-03-11T10:35:53Z</time>
      </trkpt>
      <trkpt lat="44.85227" lon="-0.55669">
        <ele>5</ele>
        <time>2020-03-11T10:35:53Z</time>
      </trkpt>
      <trkpt lat="44.85206" lon="-0.55709">
        <ele>4.7</ele>
        <time>2020-03-11T10:35:53Z</time>
      </trkpt>
      <trkpt lat="44.85188" lon="-0.55744">
        <ele>5</ele>
        <time>2020-03-11T10:35:53Z</time>
      </trkpt>
      <trkpt lat="44.85154" lon="-0.55805">
        <ele>5</ele>
        <time>2020-03-11T10:35:53Z</time>
      </trkpt>
      <trkpt lat="44.85109" lon="-0.55891">
        <ele>5</ele>
        <time>2020-03-11T10:35:53Z</time>
      </trkpt>
      <trkpt lat="44.85053" lon="-0.55994">
        <ele>4.3</ele>
        <time>2020-03-11T10:35:53Z</time>
      </trkpt>
      <trkpt lat="44.85008" lon="-0.56074">
        <ele>5</ele>
        <time>2020-03-11T10:35:53Z</time>
      </trkpt>
      <trkpt lat="44.84983" lon="-0.56119">
        <ele>5</ele>
        <time>2020-03-11T10:35:53Z</time>
      </trkpt>
      <trkpt lat="44.84953" lon="-0.56168">
        <ele>5</ele>
        <time>2020-03-11T10:35:53Z</time>
      </trkpt>
      <trkpt lat="44.84936" lon="-0.56196">
        <ele>4.7</ele>
        <time>2020-03-11T10:35:53Z</time>
      </trkpt>
      <trkpt lat="44.84921" lon="-0.56218">
        <ele>4.2</ele>
        <time>2020-03-11T10:35:53Z</time>
      </trkpt>
      <trkpt lat="44.84893" lon="-0.56262">
        <ele>5</ele>
        <time>2020-03-11T10:35:53Z</time>
      </trkpt>
      <trkpt lat="44.84862" lon="-0.56335">
        <ele>5</ele>
        <time>2020-03-11T10:35:53Z</time>
      </trkpt>
      <trkpt lat="44.84837" lon="-0.56369">
        <ele>5</ele>
        <time>2020-03-11T10:35:53Z</time>
      </trkpt>
      <trkpt lat="44.84784" lon="-0.56429">
        <ele>4.9</ele>
        <time>2020-03-11T10:35:53Z</time>
      </trkpt>
      <trkpt lat="44.84769" lon="-0.56443">
        <ele>5</ele>
        <time>2020-03-11T10:35:53Z</time>
      </trkpt>
      <trkpt lat="44.84712" lon="-0.56476">
        <ele>4.9</ele>
        <time>2020-03-11T10:35:53Z</time>
      </trkpt>
      <trkpt lat="44.84685" lon="-0.56491">
        <ele>5</ele>
        <time>2020-03-11T10:35:53Z</time>
      </trkpt>
      <trkpt lat="44.84663" lon="-0.56497">
        <ele>5</ele>
        <time>2020-03-11T10:35:53Z</time>
      </trkpt>
      <trkpt lat="44.84637" lon="-0.56502">
        <ele>5</ele>
        <time>2020-03-11T10:35:53Z</time>
      </trkpt>
      <trkpt lat="44.84611" lon="-0.56503">
        <ele>4.9</ele>
        <time>2020-03-11T10:35:53Z</time>
      </trkpt>
      <trkpt lat="44.8459" lon="-0.56499">
        <ele>5</ele>
        <time>2020-03-11T10:35:53Z</time>
      </trkpt>
      <trkpt lat="44.84514" lon="-0.56481">
        <ele>4.7</ele>
        <time>2020-03-11T10:35:53Z</time>
      </trkpt>
      <trkpt lat="44.84494" lon="-0.56476">
        <ele>5</ele>
        <time>2020-03-11T10:35:53Z</time>
      </trkpt>
      <trkpt lat="44.84466" lon="-0.5647">
        <ele>4.9</ele>
        <time>2020-03-11T10:35:53Z</time>
      </trkpt>
      <trkpt lat="44.84445" lon="-0.56465">
        <ele>4.7</ele>
        <time>2020-03-11T10:35:53Z</time>
      </trkpt>
      <trkpt lat="44.84411" lon="-0.56458">
        <ele>4</ele>
        <time>2020-03-11T10:35:53Z</time>
      </trkpt>
      <trkpt lat="44.84374" lon="-0.56449">
        <ele>3.9</ele>
        <time>2020-03-11T10:35:53Z</time>
      </trkpt>
      <trkpt lat="44.84344" lon="-0.56438">
        <ele>4</ele>
        <time>2020-03-11T10:35:53Z</time>
      </trkpt>
      <trkpt lat="44.84257" lon="-0.5638">
        <ele>4</ele>
        <time>2020-03-11T10:35:53Z</time>
      </trkpt>
      <trkpt lat="44.84223" lon="-0.56343">
        <ele>4.7</ele>
        <time>2020-03-11T10:35:53Z</time>
      </trkpt>
      <trkpt lat="44.84194" lon="-0.56308">
        <ele>5</ele>
        <time>2020-03-11T10:35:53Z</time>
      </trkpt>
      <trkpt lat="44.84166" lon="-0.56275">
        <ele>5</ele>
        <time>2020-03-11T10:35:53Z</time>
      </trkpt>
      <trkpt lat="44.84146" lon="-0.5625">
        <ele>5</ele>
        <time>2020-03-11T10:35:53Z</time>
      </trkpt>
      <trkpt lat="44.84122" lon="-0.56222">
        <ele>4.4</ele>
        <time>2020-03-11T10:35:53Z</time>
      </trkpt>
      <trkpt lat="44.84115" lon="-0.56195">
        <ele>5.8</ele>
        <time>2020-03-11T10:35:53Z</time>
      </trkpt>
      <trkpt lat="44.84099" lon="-0.56174">
        <ele>5.9</ele>
        <time>2020-03-11T10:35:53Z</time>
      </trkpt>
      <trkpt lat="44.84058" lon="-0.56115">
        <ele>6.7</ele>
        <time>2020-03-11T10:35:53Z</time>
      </trkpt>
      <trkpt lat="44.84032" lon="-0.56082">
        <ele>7.9</ele>
        <time>2020-03-11T10:35:53Z</time>
      </trkpt>
      <trkpt lat="44.84015" lon="-0.56057">
        <ele>8.9</ele>
        <time>2020-03-11T10:35:53Z</time>
      </trkpt>
      <trkpt lat="44.83999" lon="-0.56042">
        <ele>9.3</ele>
        <time>2020-03-11T10:35:53Z</time>
      </trkpt>
      <trkpt lat="44.83705" lon="-0.56518">
        <ele>5</ele>
        <time>2020-03-11T10:35:53Z</time>
      </trkpt>
      <trkpt lat="44.8371" lon="-0.56547">
        <ele>7</ele>
        <time>2020-03-11T10:35:53Z</time>
      </trkpt>
      <trkpt lat="44.83763" lon="-0.56614">
        <ele>6.1</ele>
        <time>2020-03-11T10:35:53Z</time>
      </trkpt>
      <trkpt lat="44.83803" lon="-0.56662">
        <ele>5.8</ele>
        <time>2020-03-11T10:35:53Z</time>
      </trkpt>
      <trkpt lat="44.83845" lon="-0.5671">
        <ele>5</ele>
        <time>2020-03-11T10:35:53Z</time>
      </trkpt>
      <trkpt lat="44.83863" lon="-0.56729">
        <ele>5</ele>
        <time>2020-03-11T10:35:53Z</time>
      </trkpt>
      <trkpt lat="44.83878" lon="-0.56743">
        <ele>5</ele>
        <time>2020-03-11T10:35:53Z</time>
      </trkpt>
      <trkpt lat="44.83895" lon="-0.56762">
        <ele>5</ele>
        <time>2020-03-11T10:35:53Z</time>
      </trkpt>
      <trkpt lat="44.83916" lon="-0.56776">
        <ele>5</ele>
        <time>2020-03-11T10:35:53Z</time>
      </trkpt>
      <trkpt lat="44.83957" lon="-0.56812">
        <ele>5</ele>
        <time>2020-03-11T10:35:53Z</time>
      </trkpt>
      <trkpt lat="44.83989" lon="-0.56838">
        <ele>5.5</ele>
        <time>2020-03-11T10:35:53Z</time>
      </trkpt>
      <trkpt lat="44.84005" lon="-0.5685">
        <ele>5.5</ele>
        <time>2020-03-11T10:35:53Z</time>
      </trkpt>
      <trkpt lat="44.84029" lon="-0.56868">
        <ele>5.8</ele>
        <time>2020-03-11T10:35:53Z</time>
      </trkpt>
      <trkpt lat="44.84066" lon="-0.56891">
        <ele>5.9</ele>
        <time>2020-03-11T10:35:53Z</time>
      </trkpt>
      <trkpt lat="44.84091" lon="-0.56904">
        <ele>5.6</ele>
        <time>2020-03-11T10:35:53Z</time>
      </trkpt>
      <trkpt lat="44.84218" lon="-0.5696">
        <ele>6</ele>
        <time>2020-03-11T10:35:53Z</time>
      </trkpt>
      <trkpt lat="44.84236" lon="-0.56968">
        <ele>6</ele>
        <time>2020-03-11T10:35:53Z</time>
      </trkpt>
      <trkpt lat="44.84265" lon="-0.56976">
        <ele>5.9</ele>
        <time>2020-03-11T10:35:53Z</time>
      </trkpt>
      <trkpt lat="44.84285" lon="-0.56981">
        <ele>5.8</ele>
        <time>2020-03-11T10:35:53Z</time>
      </trkpt>
      <trkpt lat="44.84303" lon="-0.56985">
        <ele>6</ele>
        <time>2020-03-11T10:35:53Z</time>
      </trkpt>
      <trkpt lat="44.84321" lon="-0.56988">
        <ele>6</ele>
        <time>2020-03-11T10:35:53Z</time>
      </trkpt>
      <trkpt lat="44.84351" lon="-0.56989">
        <ele>6</ele>
        <time>2020-03-11T10:35:53Z</time>
      </trkpt>
      <trkpt lat="44.84348" lon="-0.57016">
        <ele>5.4</ele>
        <time>2020-03-11T10:35:53Z</time>
      </trkpt>
      <trkpt lat="44.84344" lon="-0.57043">
        <ele>5</ele>
        <time>2020-03-11T10:35:53Z</time>
      </trkpt>
      <trkpt lat="44.84328" lon="-0.57057">
        <ele>5.1</ele>
        <time>2020-03-11T10:35:53Z</time>
      </trkpt>
      <trkpt lat="44.84305" lon="-0.57068">
        <ele>5.4</ele>
        <time>2020-03-11T10:35:53Z</time>
      </trkpt>
      <trkpt lat="44.84279" lon="-0.57062">
        <ele>5</ele>
        <time>2020-03-11T10:35:53Z</time>
      </trkpt>
      <trkpt lat="44.84276" lon="-0.57091">
        <ele>5.3</ele>
        <time>2020-03-11T10:35:53Z</time>
      </trkpt>
      <trkpt lat="44.84256" lon="-0.57093">
        <ele>5.9</ele>
        <time>2020-03-11T10:35:53Z</time>
      </trkpt>
      <trkpt lat="44.84257" lon="-0.57119">
        <ele>6.3</ele>
        <time>2020-03-11T10:35:53Z</time>
      </trkpt>
      <trkpt lat="44.8424" lon="-0.57303">
        <ele>9</ele>
        <time>2020-03-11T10:35:53Z</time>
      </trkpt>
      <trkpt lat="44.84227" lon="-0.57422">
        <ele>11</ele>
        <time>2020-03-11T10:35:53Z</time>
      </trkpt>
      <trkpt lat="44.84211" lon="-0.57454">
        <ele>11.6</ele>
        <time>2020-03-11T10:35:53Z</time>
      </trkpt>
      <trkpt lat="44.84208" lon="-0.57491">
        <ele>12</ele>
        <time>2020-03-11T10:35:53Z</time>
      </trkpt>
      <trkpt lat="44.84202" lon="-0.57568">
        <ele>13</ele>
        <time>2020-03-11T10:35:53Z</time>
      </trkpt>
      <trkpt lat="44.842" lon="-0.57594">
        <ele>13</ele>
        <time>2020-03-11T10:35:53Z</time>
      </trkpt>
      <trkpt lat="44.84198" lon="-0.57624">
        <ele>13.1</ele>
        <time>2020-03-11T10:35:53Z</time>
      </trkpt>
      <trkpt lat="44.84189" lon="-0.57737">
        <ele>14.2</ele>
        <time>2020-03-11T10:35:53Z</time>
      </trkpt>
      <trkpt lat="44.84185" lon="-0.57789">
        <ele>15</ele>
        <time>2020-03-11T10:35:53Z</time>
      </trkpt>
      <trkpt lat="44.84183" lon="-0.57817">
        <ele>15.2</ele>
        <time>2020-03-11T10:35:53Z</time>
      </trkpt>
      <trkpt lat="44.84181" lon="-0.57848">
        <ele>15.5</ele>
        <time>2020-03-11T10:35:53Z</time>
      </trkpt>
      <trkpt lat="44.84175" lon="-0.57919">
        <ele>16</ele>
        <time>2020-03-11T10:35:53Z</time>
      </trkpt>
      <trkpt lat="44.84134" lon="-0.57949">
        <ele>16.9</ele>
        <time>2020-03-11T10:35:53Z</time>
      </trkpt>
      <trkpt lat="44.84126" lon="-0.57973">
        <ele>17</ele>
        <time>2020-03-11T10:35:53Z</time>
      </trkpt>
      <trkpt lat="44.84123" lon="-0.57973">
        <ele>17</ele>
        <time>2020-03-11T10:35:53Z</time>
      </trkpt>
    </trkseg>
  </trk>
</gpx>